<?xml version="1.0" encoding="UTF-8" standalone="no" ?>
<gpx xmlns="http://www.topografix.com/GPX/1/1" xmlns:xsi="http://www.w3.org/2001/XMLSchema-instance" xsi:schemaLocation="http://www.topografix.com/GPX/1/1 http://www.topografix.com/GPX/1/1/gpx.xsd" version="1.1" creator="VisuGPX - https://www.visugpx.com">
  <metadata>
    <name>French-divide 2021</name>
  </metadata>
  <trk>
    <name><![CDATA[10 FD]]></name>
    <trkseg>
      <trkpt lat="44.98919" lon="2.64111">
        <ele>678.35</ele>
        <time>2021-08-16T04:47:03Z</time>
      </trkpt>
      <trkpt lat="44.98903" lon="2.64111">
        <ele>679.31</ele>
        <time>2021-08-16T04:47:11Z</time>
      </trkpt>
      <trkpt lat="44.98902" lon="2.6411">
        <ele>679.31</ele>
        <time>2021-08-16T04:47:16Z</time>
      </trkpt>
      <trkpt lat="44.98901" lon="2.64112">
        <ele>688.44</ele>
        <time>2021-08-16T04:47:27Z</time>
      </trkpt>
      <trkpt lat="44.98901" lon="2.64112">
        <ele>688.44</ele>
        <time>2021-08-16T04:47:28Z</time>
      </trkpt>
      <trkpt lat="44.98895" lon="2.64112">
        <ele>687.48</ele>
        <time>2021-08-16T04:47:35Z</time>
      </trkpt>
      <trkpt lat="44.98873" lon="2.64113">
        <ele>689.4</ele>
        <time>2021-08-16T04:47:46Z</time>
      </trkpt>
      <trkpt lat="44.9887" lon="2.64113">
        <ele>689.4</ele>
        <time>2021-08-16T04:47:52Z</time>
      </trkpt>
      <trkpt lat="44.98869" lon="2.64115">
        <ele>689.4</ele>
        <time>2021-08-16T04:47:59Z</time>
      </trkpt>
      <trkpt lat="44.98869" lon="2.64114">
        <ele>689.4</ele>
        <time>2021-08-16T04:48:07Z</time>
      </trkpt>
      <trkpt lat="44.98867" lon="2.64112">
        <ele>689.4</ele>
        <time>2021-08-16T04:48:09Z</time>
      </trkpt>
      <trkpt lat="44.98852" lon="2.64108">
        <ele>690.36</ele>
        <time>2021-08-16T04:48:16Z</time>
      </trkpt>
      <trkpt lat="44.98833" lon="2.64111">
        <ele>691.81</ele>
        <time>2021-08-16T04:48:25Z</time>
      </trkpt>
      <trkpt lat="44.98806" lon="2.64108">
        <ele>693.73</ele>
        <time>2021-08-16T04:48:37Z</time>
      </trkpt>
      <trkpt lat="44.98787" lon="2.64095">
        <ele>693.73</ele>
        <time>2021-08-16T04:48:44Z</time>
      </trkpt>
      <trkpt lat="44.98767" lon="2.64075">
        <ele>693.73</ele>
        <time>2021-08-16T04:48:52Z</time>
      </trkpt>
      <trkpt lat="44.98754" lon="2.64051">
        <ele>694.21</ele>
        <time>2021-08-16T04:48:59Z</time>
      </trkpt>
      <trkpt lat="44.98739" lon="2.64031">
        <ele>694.69</ele>
        <time>2021-08-16T04:49:06Z</time>
      </trkpt>
      <trkpt lat="44.98721" lon="2.64016">
        <ele>695.17</ele>
        <time>2021-08-16T04:49:13Z</time>
      </trkpt>
      <trkpt lat="44.98701" lon="2.64003">
        <ele>696.61</ele>
        <time>2021-08-16T04:49:21Z</time>
      </trkpt>
      <trkpt lat="44.98681" lon="2.63987">
        <ele>694.21</ele>
        <time>2021-08-16T04:49:27Z</time>
      </trkpt>
      <trkpt lat="44.98664" lon="2.6397">
        <ele>690.84</ele>
        <time>2021-08-16T04:49:31Z</time>
      </trkpt>
      <trkpt lat="44.98655" lon="2.63963">
        <ele>689.4</ele>
        <time>2021-08-16T04:49:33Z</time>
      </trkpt>
      <trkpt lat="44.9865" lon="2.63959">
        <ele>688.92</ele>
        <time>2021-08-16T04:49:34Z</time>
      </trkpt>
      <trkpt lat="44.98645" lon="2.63958">
        <ele>688.44</ele>
        <time>2021-08-16T04:49:35Z</time>
      </trkpt>
      <trkpt lat="44.9864" lon="2.63957">
        <ele>687.96</ele>
        <time>2021-08-16T04:49:36Z</time>
      </trkpt>
      <trkpt lat="44.98635" lon="2.63956">
        <ele>687.96</ele>
        <time>2021-08-16T04:49:37Z</time>
      </trkpt>
      <trkpt lat="44.98631" lon="2.63954">
        <ele>687.96</ele>
        <time>2021-08-16T04:49:38Z</time>
      </trkpt>
      <trkpt lat="44.98628" lon="2.63949">
        <ele>687.48</ele>
        <time>2021-08-16T04:49:39Z</time>
      </trkpt>
      <trkpt lat="44.98626" lon="2.63943">
        <ele>687.48</ele>
        <time>2021-08-16T04:49:40Z</time>
      </trkpt>
      <trkpt lat="44.98624" lon="2.63936">
        <ele>686.52</ele>
        <time>2021-08-16T04:49:41Z</time>
      </trkpt>
      <trkpt lat="44.98608" lon="2.63893">
        <ele>683.63</ele>
        <time>2021-08-16T04:49:46Z</time>
      </trkpt>
      <trkpt lat="44.98582" lon="2.63816">
        <ele>682.19</ele>
        <time>2021-08-16T04:49:54Z</time>
      </trkpt>
      <trkpt lat="44.9856" lon="2.63722">
        <ele>681.23</ele>
        <time>2021-08-16T04:50:04Z</time>
      </trkpt>
      <trkpt lat="44.98556" lon="2.63715">
        <ele>681.23</ele>
        <time>2021-08-16T04:50:05Z</time>
      </trkpt>
      <trkpt lat="44.98552" lon="2.63709">
        <ele>680.75</ele>
        <time>2021-08-16T04:50:06Z</time>
      </trkpt>
      <trkpt lat="44.98547" lon="2.63704">
        <ele>680.75</ele>
        <time>2021-08-16T04:50:07Z</time>
      </trkpt>
      <trkpt lat="44.98542" lon="2.63699">
        <ele>680.75</ele>
        <time>2021-08-16T04:50:08Z</time>
      </trkpt>
      <trkpt lat="44.98537" lon="2.63694">
        <ele>680.75</ele>
        <time>2021-08-16T04:50:09Z</time>
      </trkpt>
      <trkpt lat="44.98497" lon="2.63668">
        <ele>680.75</ele>
        <time>2021-08-16T04:50:17Z</time>
      </trkpt>
      <trkpt lat="44.98476" lon="2.63649">
        <ele>680.75</ele>
        <time>2021-08-16T04:50:22Z</time>
      </trkpt>
      <trkpt lat="44.98448" lon="2.63619">
        <ele>682.19</ele>
        <time>2021-08-16T04:50:30Z</time>
      </trkpt>
      <trkpt lat="44.98445" lon="2.63615">
        <ele>682.19</ele>
        <time>2021-08-16T04:50:31Z</time>
      </trkpt>
      <trkpt lat="44.98423" lon="2.63581">
        <ele>680.75</ele>
        <time>2021-08-16T04:50:38Z</time>
      </trkpt>
      <trkpt lat="44.9842" lon="2.63573">
        <ele>680.27</ele>
        <time>2021-08-16T04:50:39Z</time>
      </trkpt>
      <trkpt lat="44.98418" lon="2.63566">
        <ele>679.79</ele>
        <time>2021-08-16T04:50:40Z</time>
      </trkpt>
      <trkpt lat="44.98416" lon="2.63557">
        <ele>679.79</ele>
        <time>2021-08-16T04:50:41Z</time>
      </trkpt>
      <trkpt lat="44.98415" lon="2.63548">
        <ele>679.31</ele>
        <time>2021-08-16T04:50:42Z</time>
      </trkpt>
      <trkpt lat="44.98414" lon="2.63538">
        <ele>678.83</ele>
        <time>2021-08-16T04:50:43Z</time>
      </trkpt>
      <trkpt lat="44.9841" lon="2.63503">
        <ele>678.35</ele>
        <time>2021-08-16T04:50:47Z</time>
      </trkpt>
      <trkpt lat="44.9841" lon="2.63493">
        <ele>678.35</ele>
        <time>2021-08-16T04:50:48Z</time>
      </trkpt>
      <trkpt lat="44.98411" lon="2.63485">
        <ele>678.35</ele>
        <time>2021-08-16T04:50:49Z</time>
      </trkpt>
      <trkpt lat="44.98413" lon="2.63478">
        <ele>678.35</ele>
        <time>2021-08-16T04:50:50Z</time>
      </trkpt>
      <trkpt lat="44.98415" lon="2.63472">
        <ele>678.35</ele>
        <time>2021-08-16T04:50:51Z</time>
      </trkpt>
      <trkpt lat="44.98417" lon="2.63467">
        <ele>678.35</ele>
        <time>2021-08-16T04:50:52Z</time>
      </trkpt>
      <trkpt lat="44.98422" lon="2.63454">
        <ele>678.35</ele>
        <time>2021-08-16T04:50:54Z</time>
      </trkpt>
      <trkpt lat="44.98422" lon="2.63448">
        <ele>678.35</ele>
        <time>2021-08-16T04:50:55Z</time>
      </trkpt>
      <trkpt lat="44.98421" lon="2.63441">
        <ele>678.35</ele>
        <time>2021-08-16T04:50:56Z</time>
      </trkpt>
      <trkpt lat="44.98418" lon="2.63434">
        <ele>678.35</ele>
        <time>2021-08-16T04:50:57Z</time>
      </trkpt>
      <trkpt lat="44.98415" lon="2.63427">
        <ele>678.35</ele>
        <time>2021-08-16T04:50:58Z</time>
      </trkpt>
      <trkpt lat="44.98411" lon="2.6342">
        <ele>677.39</ele>
        <time>2021-08-16T04:50:59Z</time>
      </trkpt>
      <trkpt lat="44.98381" lon="2.63358">
        <ele>675.94</ele>
        <time>2021-08-16T04:51:07Z</time>
      </trkpt>
      <trkpt lat="44.98353" lon="2.63295">
        <ele>675.46</ele>
        <time>2021-08-16T04:51:16Z</time>
      </trkpt>
      <trkpt lat="44.98322" lon="2.63244">
        <ele>675.46</ele>
        <time>2021-08-16T04:51:25Z</time>
      </trkpt>
      <trkpt lat="44.98283" lon="2.63206">
        <ele>675.46</ele>
        <time>2021-08-16T04:51:34Z</time>
      </trkpt>
      <trkpt lat="44.98241" lon="2.63177">
        <ele>674.98</ele>
        <time>2021-08-16T04:51:43Z</time>
      </trkpt>
      <trkpt lat="44.98233" lon="2.63169">
        <ele>674.98</ele>
        <time>2021-08-16T04:51:45Z</time>
      </trkpt>
      <trkpt lat="44.9823" lon="2.63163">
        <ele>674.5</ele>
        <time>2021-08-16T04:51:46Z</time>
      </trkpt>
      <trkpt lat="44.98228" lon="2.63156">
        <ele>674.5</ele>
        <time>2021-08-16T04:51:47Z</time>
      </trkpt>
      <trkpt lat="44.98227" lon="2.63149">
        <ele>674.5</ele>
        <time>2021-08-16T04:51:48Z</time>
      </trkpt>
      <trkpt lat="44.98227" lon="2.63142">
        <ele>674.5</ele>
        <time>2021-08-16T04:51:49Z</time>
      </trkpt>
      <trkpt lat="44.98227" lon="2.63134">
        <ele>674.5</ele>
        <time>2021-08-16T04:51:50Z</time>
      </trkpt>
      <trkpt lat="44.9822" lon="2.6307">
        <ele>674.5</ele>
        <time>2021-08-16T04:51:59Z</time>
      </trkpt>
      <trkpt lat="44.98216" lon="2.63055">
        <ele>674.02</ele>
        <time>2021-08-16T04:52:01Z</time>
      </trkpt>
      <trkpt lat="44.98193" lon="2.62997">
        <ele>673.54</ele>
        <time>2021-08-16T04:52:10Z</time>
      </trkpt>
      <trkpt lat="44.98174" lon="2.62964">
        <ele>673.06</ele>
        <time>2021-08-16T04:52:16Z</time>
      </trkpt>
      <trkpt lat="44.98147" lon="2.62917">
        <ele>673.06</ele>
        <time>2021-08-16T04:52:25Z</time>
      </trkpt>
      <trkpt lat="44.98126" lon="2.62877">
        <ele>673.06</ele>
        <time>2021-08-16T04:52:33Z</time>
      </trkpt>
      <trkpt lat="44.98119" lon="2.62864">
        <ele>674.5</ele>
        <time>2021-08-16T04:52:36Z</time>
      </trkpt>
      <trkpt lat="44.98095" lon="2.62822">
        <ele>674.5</ele>
        <time>2021-08-16T04:52:45Z</time>
      </trkpt>
      <trkpt lat="44.98093" lon="2.62817">
        <ele>674.5</ele>
        <time>2021-08-16T04:52:46Z</time>
      </trkpt>
      <trkpt lat="44.9809" lon="2.62813">
        <ele>674.5</ele>
        <time>2021-08-16T04:52:47Z</time>
      </trkpt>
      <trkpt lat="44.98088" lon="2.62808">
        <ele>674.5</ele>
        <time>2021-08-16T04:52:48Z</time>
      </trkpt>
      <trkpt lat="44.98087" lon="2.62803">
        <ele>674.5</ele>
        <time>2021-08-16T04:52:49Z</time>
      </trkpt>
      <trkpt lat="44.98085" lon="2.62797">
        <ele>674.5</ele>
        <time>2021-08-16T04:52:50Z</time>
      </trkpt>
      <trkpt lat="44.98083" lon="2.62792">
        <ele>674.5</ele>
        <time>2021-08-16T04:52:51Z</time>
      </trkpt>
      <trkpt lat="44.98081" lon="2.62788">
        <ele>674.5</ele>
        <time>2021-08-16T04:52:52Z</time>
      </trkpt>
      <trkpt lat="44.98078" lon="2.62784">
        <ele>675.46</ele>
        <time>2021-08-16T04:52:53Z</time>
      </trkpt>
      <trkpt lat="44.98074" lon="2.62781">
        <ele>675.46</ele>
        <time>2021-08-16T04:52:54Z</time>
      </trkpt>
      <trkpt lat="44.9807" lon="2.62779">
        <ele>675.46</ele>
        <time>2021-08-16T04:52:55Z</time>
      </trkpt>
      <trkpt lat="44.98068" lon="2.62778">
        <ele>675.46</ele>
        <time>2021-08-16T04:52:56Z</time>
      </trkpt>
      <trkpt lat="44.98064" lon="2.62777">
        <ele>675.94</ele>
        <time>2021-08-16T04:52:57Z</time>
      </trkpt>
      <trkpt lat="44.9806" lon="2.62776">
        <ele>675.46</ele>
        <time>2021-08-16T04:52:58Z</time>
      </trkpt>
      <trkpt lat="44.98047" lon="2.62774">
        <ele>675.94</ele>
        <time>2021-08-16T04:53:02Z</time>
      </trkpt>
      <trkpt lat="44.98045" lon="2.6277">
        <ele>676.42</ele>
        <time>2021-08-16T04:53:03Z</time>
      </trkpt>
      <trkpt lat="44.98043" lon="2.62766">
        <ele>676.42</ele>
        <time>2021-08-16T04:53:04Z</time>
      </trkpt>
      <trkpt lat="44.98042" lon="2.62762">
        <ele>676.42</ele>
        <time>2021-08-16T04:53:05Z</time>
      </trkpt>
      <trkpt lat="44.98042" lon="2.62758">
        <ele>676.42</ele>
        <time>2021-08-16T04:53:06Z</time>
      </trkpt>
      <trkpt lat="44.98037" lon="2.62733">
        <ele>676.91</ele>
        <time>2021-08-16T04:53:12Z</time>
      </trkpt>
      <trkpt lat="44.98036" lon="2.62731">
        <ele>676.91</ele>
        <time>2021-08-16T04:53:13Z</time>
      </trkpt>
      <trkpt lat="44.98035" lon="2.6273">
        <ele>676.91</ele>
        <time>2021-08-16T04:53:14Z</time>
      </trkpt>
      <trkpt lat="44.98035" lon="2.62726">
        <ele>677.39</ele>
        <time>2021-08-16T04:53:19Z</time>
      </trkpt>
      <trkpt lat="44.98034" lon="2.62716">
        <ele>677.39</ele>
        <time>2021-08-16T04:53:25Z</time>
      </trkpt>
      <trkpt lat="44.98034" lon="2.62692">
        <ele>677.87</ele>
        <time>2021-08-16T04:53:31Z</time>
      </trkpt>
      <trkpt lat="44.98037" lon="2.62666">
        <ele>677.87</ele>
        <time>2021-08-16T04:53:38Z</time>
      </trkpt>
      <trkpt lat="44.98037" lon="2.62663">
        <ele>678.35</ele>
        <time>2021-08-16T04:53:39Z</time>
      </trkpt>
      <trkpt lat="44.98039" lon="2.62661">
        <ele>678.35</ele>
        <time>2021-08-16T04:53:40Z</time>
      </trkpt>
      <trkpt lat="44.98043" lon="2.62658">
        <ele>678.35</ele>
        <time>2021-08-16T04:53:43Z</time>
      </trkpt>
      <trkpt lat="44.98043" lon="2.62654">
        <ele>678.83</ele>
        <time>2021-08-16T04:53:44Z</time>
      </trkpt>
      <trkpt lat="44.98043" lon="2.62652">
        <ele>678.83</ele>
        <time>2021-08-16T04:53:45Z</time>
      </trkpt>
      <trkpt lat="44.98043" lon="2.62632">
        <ele>679.79</ele>
        <time>2021-08-16T04:53:52Z</time>
      </trkpt>
      <trkpt lat="44.98043" lon="2.6263">
        <ele>679.79</ele>
        <time>2021-08-16T04:53:53Z</time>
      </trkpt>
      <trkpt lat="44.98043" lon="2.62628">
        <ele>680.27</ele>
        <time>2021-08-16T04:53:54Z</time>
      </trkpt>
      <trkpt lat="44.98043" lon="2.62625">
        <ele>680.27</ele>
        <time>2021-08-16T04:53:55Z</time>
      </trkpt>
      <trkpt lat="44.98044" lon="2.62623">
        <ele>680.75</ele>
        <time>2021-08-16T04:54:00Z</time>
      </trkpt>
      <trkpt lat="44.98045" lon="2.6261">
        <ele>680.75</ele>
        <time>2021-08-16T04:54:05Z</time>
      </trkpt>
      <trkpt lat="44.98045" lon="2.62578">
        <ele>681.71</ele>
        <time>2021-08-16T04:54:14Z</time>
      </trkpt>
      <trkpt lat="44.98046" lon="2.62569">
        <ele>682.19</ele>
        <time>2021-08-16T04:54:17Z</time>
      </trkpt>
      <trkpt lat="44.98045" lon="2.62566">
        <ele>682.19</ele>
        <time>2021-08-16T04:54:18Z</time>
      </trkpt>
      <trkpt lat="44.98043" lon="2.62562">
        <ele>682.19</ele>
        <time>2021-08-16T04:54:19Z</time>
      </trkpt>
      <trkpt lat="44.98022" lon="2.62539">
        <ele>682.19</ele>
        <time>2021-08-16T04:54:27Z</time>
      </trkpt>
      <trkpt lat="44.97997" lon="2.62505">
        <ele>681.71</ele>
        <time>2021-08-16T04:54:36Z</time>
      </trkpt>
      <trkpt lat="44.97967" lon="2.62457">
        <ele>681.71</ele>
        <time>2021-08-16T04:54:48Z</time>
      </trkpt>
      <trkpt lat="44.9795" lon="2.62421">
        <ele>681.71</ele>
        <time>2021-08-16T04:54:56Z</time>
      </trkpt>
      <trkpt lat="44.97929" lon="2.62376">
        <ele>682.19</ele>
        <time>2021-08-16T04:55:06Z</time>
      </trkpt>
      <trkpt lat="44.97905" lon="2.62322">
        <ele>682.67</ele>
        <time>2021-08-16T04:55:17Z</time>
      </trkpt>
      <trkpt lat="44.97884" lon="2.62275">
        <ele>683.15</ele>
        <time>2021-08-16T04:55:27Z</time>
      </trkpt>
      <trkpt lat="44.97861" lon="2.62236">
        <ele>683.63</ele>
        <time>2021-08-16T04:55:36Z</time>
      </trkpt>
      <trkpt lat="44.97826" lon="2.62199">
        <ele>683.63</ele>
        <time>2021-08-16T04:55:46Z</time>
      </trkpt>
      <trkpt lat="44.97799" lon="2.62172">
        <ele>682.67</ele>
        <time>2021-08-16T04:55:53Z</time>
      </trkpt>
      <trkpt lat="44.97795" lon="2.62169">
        <ele>682.67</ele>
        <time>2021-08-16T04:55:54Z</time>
      </trkpt>
      <trkpt lat="44.97791" lon="2.62165">
        <ele>682.67</ele>
        <time>2021-08-16T04:55:55Z</time>
      </trkpt>
      <trkpt lat="44.97743" lon="2.62115">
        <ele>681.71</ele>
        <time>2021-08-16T04:56:07Z</time>
      </trkpt>
      <trkpt lat="44.97697" lon="2.62069">
        <ele>681.71</ele>
        <time>2021-08-16T04:56:18Z</time>
      </trkpt>
      <trkpt lat="44.97651" lon="2.62022">
        <ele>681.23</ele>
        <time>2021-08-16T04:56:28Z</time>
      </trkpt>
      <trkpt lat="44.97599" lon="2.61969">
        <ele>680.75</ele>
        <time>2021-08-16T04:56:40Z</time>
      </trkpt>
      <trkpt lat="44.97564" lon="2.6193">
        <ele>680.75</ele>
        <time>2021-08-16T04:56:49Z</time>
      </trkpt>
      <trkpt lat="44.97528" lon="2.61882">
        <ele>680.75</ele>
        <time>2021-08-16T04:56:59Z</time>
      </trkpt>
      <trkpt lat="44.97515" lon="2.61862">
        <ele>682.19</ele>
        <time>2021-08-16T04:57:03Z</time>
      </trkpt>
      <trkpt lat="44.97506" lon="2.61849">
        <ele>682.19</ele>
        <time>2021-08-16T04:57:06Z</time>
      </trkpt>
      <trkpt lat="44.97489" lon="2.61819">
        <ele>682.67</ele>
        <time>2021-08-16T04:57:13Z</time>
      </trkpt>
      <trkpt lat="44.97466" lon="2.61772">
        <ele>683.15</ele>
        <time>2021-08-16T04:57:24Z</time>
      </trkpt>
      <trkpt lat="44.97436" lon="2.61716">
        <ele>683.63</ele>
        <time>2021-08-16T04:57:36Z</time>
      </trkpt>
      <trkpt lat="44.97423" lon="2.61693">
        <ele>683.63</ele>
        <time>2021-08-16T04:57:41Z</time>
      </trkpt>
      <trkpt lat="44.97421" lon="2.61688">
        <ele>683.63</ele>
        <time>2021-08-16T04:57:42Z</time>
      </trkpt>
      <trkpt lat="44.974" lon="2.61653">
        <ele>684.12</ele>
        <time>2021-08-16T04:57:50Z</time>
      </trkpt>
      <trkpt lat="44.97367" lon="2.61601">
        <ele>685.08</ele>
        <time>2021-08-16T04:58:02Z</time>
      </trkpt>
      <trkpt lat="44.97333" lon="2.61552">
        <ele>685.08</ele>
        <time>2021-08-16T04:58:13Z</time>
      </trkpt>
      <trkpt lat="44.97288" lon="2.61505">
        <ele>686.52</ele>
        <time>2021-08-16T04:58:26Z</time>
      </trkpt>
      <trkpt lat="44.97254" lon="2.61468">
        <ele>686.52</ele>
        <time>2021-08-16T04:58:36Z</time>
      </trkpt>
      <trkpt lat="44.9723" lon="2.61425">
        <ele>686.52</ele>
        <time>2021-08-16T04:58:45Z</time>
      </trkpt>
      <trkpt lat="44.97213" lon="2.61384">
        <ele>687</ele>
        <time>2021-08-16T04:58:53Z</time>
      </trkpt>
      <trkpt lat="44.97185" lon="2.61319">
        <ele>687</ele>
        <time>2021-08-16T04:59:05Z</time>
      </trkpt>
      <trkpt lat="44.97167" lon="2.61273">
        <ele>687</ele>
        <time>2021-08-16T04:59:13Z</time>
      </trkpt>
      <trkpt lat="44.97165" lon="2.61267">
        <ele>687</ele>
        <time>2021-08-16T04:59:14Z</time>
      </trkpt>
      <trkpt lat="44.97164" lon="2.6126">
        <ele>687</ele>
        <time>2021-08-16T04:59:15Z</time>
      </trkpt>
      <trkpt lat="44.97162" lon="2.61243">
        <ele>687</ele>
        <time>2021-08-16T04:59:18Z</time>
      </trkpt>
      <trkpt lat="44.9716" lon="2.61238">
        <ele>687</ele>
        <time>2021-08-16T04:59:19Z</time>
      </trkpt>
      <trkpt lat="44.97157" lon="2.61233">
        <ele>687</ele>
        <time>2021-08-16T04:59:20Z</time>
      </trkpt>
      <trkpt lat="44.97153" lon="2.6123">
        <ele>687</ele>
        <time>2021-08-16T04:59:21Z</time>
      </trkpt>
      <trkpt lat="44.97149" lon="2.61228">
        <ele>687</ele>
        <time>2021-08-16T04:59:22Z</time>
      </trkpt>
      <trkpt lat="44.97141" lon="2.6122">
        <ele>687</ele>
        <time>2021-08-16T04:59:24Z</time>
      </trkpt>
      <trkpt lat="44.97137" lon="2.61216">
        <ele>687</ele>
        <time>2021-08-16T04:59:25Z</time>
      </trkpt>
      <trkpt lat="44.97133" lon="2.61211">
        <ele>685.56</ele>
        <time>2021-08-16T04:59:26Z</time>
      </trkpt>
      <trkpt lat="44.9713" lon="2.61205">
        <ele>685.56</ele>
        <time>2021-08-16T04:59:27Z</time>
      </trkpt>
      <trkpt lat="44.97093" lon="2.61139">
        <ele>684.6</ele>
        <time>2021-08-16T04:59:38Z</time>
      </trkpt>
      <trkpt lat="44.97074" lon="2.61107">
        <ele>684.6</ele>
        <time>2021-08-16T04:59:44Z</time>
      </trkpt>
      <trkpt lat="44.97073" lon="2.611">
        <ele>684.6</ele>
        <time>2021-08-16T04:59:45Z</time>
      </trkpt>
      <trkpt lat="44.97072" lon="2.61094">
        <ele>684.6</ele>
        <time>2021-08-16T04:59:46Z</time>
      </trkpt>
      <trkpt lat="44.97073" lon="2.61086">
        <ele>684.6</ele>
        <time>2021-08-16T04:59:47Z</time>
      </trkpt>
      <trkpt lat="44.97074" lon="2.61081">
        <ele>684.6</ele>
        <time>2021-08-16T04:59:48Z</time>
      </trkpt>
      <trkpt lat="44.97076" lon="2.61075">
        <ele>686.04</ele>
        <time>2021-08-16T04:59:49Z</time>
      </trkpt>
      <trkpt lat="44.97077" lon="2.61054">
        <ele>687.48</ele>
        <time>2021-08-16T04:59:54Z</time>
      </trkpt>
      <trkpt lat="44.97071" lon="2.61038">
        <ele>688.44</ele>
        <time>2021-08-16T05:00:00Z</time>
      </trkpt>
      <trkpt lat="44.97062" lon="2.6101">
        <ele>689.4</ele>
        <time>2021-08-16T05:00:09Z</time>
      </trkpt>
      <trkpt lat="44.97052" lon="2.6098">
        <ele>690.36</ele>
        <time>2021-08-16T05:00:18Z</time>
      </trkpt>
      <trkpt lat="44.97049" lon="2.6097">
        <ele>690.84</ele>
        <time>2021-08-16T05:00:22Z</time>
      </trkpt>
      <trkpt lat="44.97049" lon="2.60968">
        <ele>691.33</ele>
        <time>2021-08-16T05:00:23Z</time>
      </trkpt>
      <trkpt lat="44.9705" lon="2.60966">
        <ele>691.33</ele>
        <time>2021-08-16T05:00:24Z</time>
      </trkpt>
      <trkpt lat="44.97055" lon="2.60955">
        <ele>693.25</ele>
        <time>2021-08-16T05:00:32Z</time>
      </trkpt>
      <trkpt lat="44.97066" lon="2.60943">
        <ele>695.17</ele>
        <time>2021-08-16T05:00:42Z</time>
      </trkpt>
      <trkpt lat="44.97073" lon="2.60932">
        <ele>695.65</ele>
        <time>2021-08-16T05:00:50Z</time>
      </trkpt>
      <trkpt lat="44.97074" lon="2.60931">
        <ele>696.13</ele>
        <time>2021-08-16T05:00:51Z</time>
      </trkpt>
      <trkpt lat="44.97074" lon="2.60929">
        <ele>696.13</ele>
        <time>2021-08-16T05:00:52Z</time>
      </trkpt>
      <trkpt lat="44.97075" lon="2.60928">
        <ele>696.13</ele>
        <time>2021-08-16T05:00:53Z</time>
      </trkpt>
      <trkpt lat="44.97075" lon="2.60926">
        <ele>696.13</ele>
        <time>2021-08-16T05:00:54Z</time>
      </trkpt>
      <trkpt lat="44.97076" lon="2.60924">
        <ele>696.61</ele>
        <time>2021-08-16T05:00:55Z</time>
      </trkpt>
      <trkpt lat="44.97076" lon="2.60922">
        <ele>696.61</ele>
        <time>2021-08-16T05:00:56Z</time>
      </trkpt>
      <trkpt lat="44.97077" lon="2.60906">
        <ele>697.57</ele>
        <time>2021-08-16T05:01:04Z</time>
      </trkpt>
      <trkpt lat="44.97076" lon="2.60887">
        <ele>699.02</ele>
        <time>2021-08-16T05:01:13Z</time>
      </trkpt>
      <trkpt lat="44.97075" lon="2.60866">
        <ele>699.98</ele>
        <time>2021-08-16T05:01:22Z</time>
      </trkpt>
      <trkpt lat="44.9708" lon="2.60849">
        <ele>701.42</ele>
        <time>2021-08-16T05:01:30Z</time>
      </trkpt>
      <trkpt lat="44.97083" lon="2.6083">
        <ele>702.38</ele>
        <time>2021-08-16T05:01:39Z</time>
      </trkpt>
      <trkpt lat="44.97075" lon="2.60808">
        <ele>703.82</ele>
        <time>2021-08-16T05:01:48Z</time>
      </trkpt>
      <trkpt lat="44.97063" lon="2.60781">
        <ele>704.78</ele>
        <time>2021-08-16T05:01:59Z</time>
      </trkpt>
      <trkpt lat="44.97054" lon="2.6077">
        <ele>706.23</ele>
        <time>2021-08-16T05:02:07Z</time>
      </trkpt>
      <trkpt lat="44.97041" lon="2.60762">
        <ele>707.19</ele>
        <time>2021-08-16T05:02:15Z</time>
      </trkpt>
      <trkpt lat="44.97023" lon="2.60751">
        <ele>708.63</ele>
        <time>2021-08-16T05:02:27Z</time>
      </trkpt>
      <trkpt lat="44.97007" lon="2.6074">
        <ele>710.07</ele>
        <time>2021-08-16T05:02:38Z</time>
      </trkpt>
      <trkpt lat="44.97005" lon="2.60739">
        <ele>710.07</ele>
        <time>2021-08-16T05:02:39Z</time>
      </trkpt>
      <trkpt lat="44.97004" lon="2.60738">
        <ele>710.55</ele>
        <time>2021-08-16T05:02:40Z</time>
      </trkpt>
      <trkpt lat="44.97002" lon="2.60737">
        <ele>710.55</ele>
        <time>2021-08-16T05:02:41Z</time>
      </trkpt>
      <trkpt lat="44.97001" lon="2.60735">
        <ele>710.55</ele>
        <time>2021-08-16T05:02:42Z</time>
      </trkpt>
      <trkpt lat="44.97" lon="2.60732">
        <ele>711.03</ele>
        <time>2021-08-16T05:02:43Z</time>
      </trkpt>
      <trkpt lat="44.96999" lon="2.6073">
        <ele>711.03</ele>
        <time>2021-08-16T05:02:44Z</time>
      </trkpt>
      <trkpt lat="44.96997" lon="2.60729">
        <ele>711.03</ele>
        <time>2021-08-16T05:02:45Z</time>
      </trkpt>
      <trkpt lat="44.96995" lon="2.60728">
        <ele>711.03</ele>
        <time>2021-08-16T05:02:46Z</time>
      </trkpt>
      <trkpt lat="44.96994" lon="2.60726">
        <ele>711.03</ele>
        <time>2021-08-16T05:02:47Z</time>
      </trkpt>
      <trkpt lat="44.96993" lon="2.60725">
        <ele>711.03</ele>
        <time>2021-08-16T05:02:48Z</time>
      </trkpt>
      <trkpt lat="44.96992" lon="2.60723">
        <ele>711.51</ele>
        <time>2021-08-16T05:02:49Z</time>
      </trkpt>
      <trkpt lat="44.96991" lon="2.60722">
        <ele>711.51</ele>
        <time>2021-08-16T05:02:50Z</time>
      </trkpt>
      <trkpt lat="44.96989" lon="2.60721">
        <ele>711.51</ele>
        <time>2021-08-16T05:02:51Z</time>
      </trkpt>
      <trkpt lat="44.96988" lon="2.60719">
        <ele>711.51</ele>
        <time>2021-08-16T05:02:52Z</time>
      </trkpt>
      <trkpt lat="44.96979" lon="2.60707">
        <ele>713.44</ele>
        <time>2021-08-16T05:03:00Z</time>
      </trkpt>
      <trkpt lat="44.96979" lon="2.60705">
        <ele>713.44</ele>
        <time>2021-08-16T05:03:01Z</time>
      </trkpt>
      <trkpt lat="44.9698" lon="2.60704">
        <ele>713.92</ele>
        <time>2021-08-16T05:03:02Z</time>
      </trkpt>
      <trkpt lat="44.9698" lon="2.60702">
        <ele>713.92</ele>
        <time>2021-08-16T05:03:03Z</time>
      </trkpt>
      <trkpt lat="44.96981" lon="2.60701">
        <ele>713.92</ele>
        <time>2021-08-16T05:03:04Z</time>
      </trkpt>
      <trkpt lat="44.96982" lon="2.60699">
        <ele>714.4</ele>
        <time>2021-08-16T05:03:05Z</time>
      </trkpt>
      <trkpt lat="44.96983" lon="2.60698">
        <ele>714.4</ele>
        <time>2021-08-16T05:03:06Z</time>
      </trkpt>
      <trkpt lat="44.96984" lon="2.60696">
        <ele>714.88</ele>
        <time>2021-08-16T05:03:07Z</time>
      </trkpt>
      <trkpt lat="44.96993" lon="2.6068">
        <ele>715.84</ele>
        <time>2021-08-16T05:03:18Z</time>
      </trkpt>
      <trkpt lat="44.97003" lon="2.6066">
        <ele>717.28</ele>
        <time>2021-08-16T05:03:30Z</time>
      </trkpt>
      <trkpt lat="44.97011" lon="2.60648">
        <ele>718.24</ele>
        <time>2021-08-16T05:03:38Z</time>
      </trkpt>
      <trkpt lat="44.97021" lon="2.60636">
        <ele>719.68</ele>
        <time>2021-08-16T05:03:47Z</time>
      </trkpt>
      <trkpt lat="44.97025" lon="2.6063">
        <ele>720.16</ele>
        <time>2021-08-16T05:03:51Z</time>
      </trkpt>
      <trkpt lat="44.97031" lon="2.6062">
        <ele>721.13</ele>
        <time>2021-08-16T05:03:58Z</time>
      </trkpt>
      <trkpt lat="44.97031" lon="2.60619">
        <ele>721.61</ele>
        <time>2021-08-16T05:03:59Z</time>
      </trkpt>
      <trkpt lat="44.97031" lon="2.60617">
        <ele>721.61</ele>
        <time>2021-08-16T05:04:00Z</time>
      </trkpt>
      <trkpt lat="44.97032" lon="2.60615">
        <ele>721.61</ele>
        <time>2021-08-16T05:04:01Z</time>
      </trkpt>
      <trkpt lat="44.97032" lon="2.60614">
        <ele>721.61</ele>
        <time>2021-08-16T05:04:02Z</time>
      </trkpt>
      <trkpt lat="44.97033" lon="2.60611">
        <ele>722.09</ele>
        <time>2021-08-16T05:04:04Z</time>
      </trkpt>
      <trkpt lat="44.97033" lon="2.6061">
        <ele>722.09</ele>
        <time>2021-08-16T05:04:05Z</time>
      </trkpt>
      <trkpt lat="44.97034" lon="2.60608">
        <ele>722.09</ele>
        <time>2021-08-16T05:04:06Z</time>
      </trkpt>
      <trkpt lat="44.97035" lon="2.60607">
        <ele>723.05</ele>
        <time>2021-08-16T05:04:07Z</time>
      </trkpt>
      <trkpt lat="44.97035" lon="2.60605">
        <ele>723.05</ele>
        <time>2021-08-16T05:04:08Z</time>
      </trkpt>
      <trkpt lat="44.97036" lon="2.60604">
        <ele>723.05</ele>
        <time>2021-08-16T05:04:09Z</time>
      </trkpt>
      <trkpt lat="44.97036" lon="2.60602">
        <ele>723.05</ele>
        <time>2021-08-16T05:04:10Z</time>
      </trkpt>
      <trkpt lat="44.97037" lon="2.606">
        <ele>723.53</ele>
        <time>2021-08-16T05:04:11Z</time>
      </trkpt>
      <trkpt lat="44.97037" lon="2.60599">
        <ele>723.53</ele>
        <time>2021-08-16T05:04:12Z</time>
      </trkpt>
      <trkpt lat="44.97039" lon="2.60589">
        <ele>724.97</ele>
        <time>2021-08-16T05:04:20Z</time>
      </trkpt>
      <trkpt lat="44.97039" lon="2.60576">
        <ele>726.41</ele>
        <time>2021-08-16T05:04:29Z</time>
      </trkpt>
      <trkpt lat="44.97041" lon="2.60565">
        <ele>727.86</ele>
        <time>2021-08-16T05:04:38Z</time>
      </trkpt>
      <trkpt lat="44.97043" lon="2.60553">
        <ele>729.78</ele>
        <time>2021-08-16T05:04:49Z</time>
      </trkpt>
      <trkpt lat="44.97045" lon="2.60541">
        <ele>731.22</ele>
        <time>2021-08-16T05:04:59Z</time>
      </trkpt>
      <trkpt lat="44.97048" lon="2.60526">
        <ele>732.66</ele>
        <time>2021-08-16T05:05:10Z</time>
      </trkpt>
      <trkpt lat="44.97053" lon="2.60511">
        <ele>734.58</ele>
        <time>2021-08-16T05:05:21Z</time>
      </trkpt>
      <trkpt lat="44.97057" lon="2.60499">
        <ele>736.03</ele>
        <time>2021-08-16T05:05:30Z</time>
      </trkpt>
      <trkpt lat="44.9706" lon="2.60486">
        <ele>737.95</ele>
        <time>2021-08-16T05:05:41Z</time>
      </trkpt>
      <trkpt lat="44.9706" lon="2.60485">
        <ele>737.95</ele>
        <time>2021-08-16T05:05:42Z</time>
      </trkpt>
      <trkpt lat="44.97061" lon="2.60478">
        <ele>738.91</ele>
        <time>2021-08-16T05:05:48Z</time>
      </trkpt>
      <trkpt lat="44.97063" lon="2.6046">
        <ele>740.35</ele>
        <time>2021-08-16T05:05:59Z</time>
      </trkpt>
      <trkpt lat="44.97062" lon="2.60453">
        <ele>741.31</ele>
        <time>2021-08-16T05:06:07Z</time>
      </trkpt>
      <trkpt lat="44.97061" lon="2.60449">
        <ele>741.31</ele>
        <time>2021-08-16T05:06:10Z</time>
      </trkpt>
      <trkpt lat="44.97061" lon="2.60448">
        <ele>741.31</ele>
        <time>2021-08-16T05:06:11Z</time>
      </trkpt>
      <trkpt lat="44.97054" lon="2.60426">
        <ele>742.28</ele>
        <time>2021-08-16T05:06:19Z</time>
      </trkpt>
      <trkpt lat="44.97051" lon="2.60403">
        <ele>743.24</ele>
        <time>2021-08-16T05:06:27Z</time>
      </trkpt>
      <trkpt lat="44.97047" lon="2.60383">
        <ele>744.68</ele>
        <time>2021-08-16T05:06:35Z</time>
      </trkpt>
      <trkpt lat="44.97044" lon="2.60358">
        <ele>746.12</ele>
        <time>2021-08-16T05:06:45Z</time>
      </trkpt>
      <trkpt lat="44.9704" lon="2.60339">
        <ele>747.56</ele>
        <time>2021-08-16T05:06:53Z</time>
      </trkpt>
      <trkpt lat="44.97038" lon="2.60324">
        <ele>748.04</ele>
        <time>2021-08-16T05:07:00Z</time>
      </trkpt>
      <trkpt lat="44.97038" lon="2.60322">
        <ele>749</ele>
        <time>2021-08-16T05:07:01Z</time>
      </trkpt>
      <trkpt lat="44.97037" lon="2.6032">
        <ele>749</ele>
        <time>2021-08-16T05:07:02Z</time>
      </trkpt>
      <trkpt lat="44.97037" lon="2.60318">
        <ele>749</ele>
        <time>2021-08-16T05:07:03Z</time>
      </trkpt>
      <trkpt lat="44.97037" lon="2.60316">
        <ele>749.49</ele>
        <time>2021-08-16T05:07:04Z</time>
      </trkpt>
      <trkpt lat="44.97037" lon="2.60314">
        <ele>749.49</ele>
        <time>2021-08-16T05:07:05Z</time>
      </trkpt>
      <trkpt lat="44.97037" lon="2.60312">
        <ele>749.49</ele>
        <time>2021-08-16T05:07:06Z</time>
      </trkpt>
      <trkpt lat="44.97037" lon="2.6031">
        <ele>749.97</ele>
        <time>2021-08-16T05:07:07Z</time>
      </trkpt>
      <trkpt lat="44.97037" lon="2.60308">
        <ele>749.97</ele>
        <time>2021-08-16T05:07:08Z</time>
      </trkpt>
      <trkpt lat="44.97036" lon="2.60286">
        <ele>750.93</ele>
        <time>2021-08-16T05:07:17Z</time>
      </trkpt>
      <trkpt lat="44.97035" lon="2.6027">
        <ele>751.89</ele>
        <time>2021-08-16T05:07:24Z</time>
      </trkpt>
      <trkpt lat="44.97035" lon="2.60257">
        <ele>753.33</ele>
        <time>2021-08-16T05:07:31Z</time>
      </trkpt>
      <trkpt lat="44.97035" lon="2.60256">
        <ele>753.81</ele>
        <time>2021-08-16T05:07:32Z</time>
      </trkpt>
      <trkpt lat="44.97035" lon="2.60248">
        <ele>754.29</ele>
        <time>2021-08-16T05:07:37Z</time>
      </trkpt>
      <trkpt lat="44.97032" lon="2.60239">
        <ele>755.25</ele>
        <time>2021-08-16T05:07:43Z</time>
      </trkpt>
      <trkpt lat="44.9703" lon="2.60228">
        <ele>756.69</ele>
        <time>2021-08-16T05:07:50Z</time>
      </trkpt>
      <trkpt lat="44.9703" lon="2.60218">
        <ele>758.14</ele>
        <time>2021-08-16T05:07:57Z</time>
      </trkpt>
      <trkpt lat="44.97028" lon="2.60204">
        <ele>759.58</ele>
        <time>2021-08-16T05:08:07Z</time>
      </trkpt>
      <trkpt lat="44.97024" lon="2.60196">
        <ele>761.5</ele>
        <time>2021-08-16T05:08:16Z</time>
      </trkpt>
      <trkpt lat="44.9702" lon="2.60188">
        <ele>761.98</ele>
        <time>2021-08-16T05:08:24Z</time>
      </trkpt>
      <trkpt lat="44.97019" lon="2.60185">
        <ele>761.98</ele>
        <time>2021-08-16T05:08:32Z</time>
      </trkpt>
      <trkpt lat="44.97019" lon="2.60184">
        <ele>762.46</ele>
        <time>2021-08-16T05:08:33Z</time>
      </trkpt>
      <trkpt lat="44.97019" lon="2.60182">
        <ele>762.46</ele>
        <time>2021-08-16T05:08:34Z</time>
      </trkpt>
      <trkpt lat="44.97014" lon="2.60167">
        <ele>763.9</ele>
        <time>2021-08-16T05:08:42Z</time>
      </trkpt>
      <trkpt lat="44.97011" lon="2.6015">
        <ele>764.87</ele>
        <time>2021-08-16T05:08:49Z</time>
      </trkpt>
      <trkpt lat="44.97008" lon="2.60134">
        <ele>765.35</ele>
        <time>2021-08-16T05:08:56Z</time>
      </trkpt>
      <trkpt lat="44.97001" lon="2.60111">
        <ele>767.27</ele>
        <time>2021-08-16T05:09:06Z</time>
      </trkpt>
      <trkpt lat="44.96993" lon="2.60095">
        <ele>768.71</ele>
        <time>2021-08-16T05:09:14Z</time>
      </trkpt>
      <trkpt lat="44.96983" lon="2.6008">
        <ele>770.15</ele>
        <time>2021-08-16T05:09:23Z</time>
      </trkpt>
      <trkpt lat="44.96978" lon="2.60067">
        <ele>771.6</ele>
        <time>2021-08-16T05:09:31Z</time>
      </trkpt>
      <trkpt lat="44.96978" lon="2.60066">
        <ele>771.6</ele>
        <time>2021-08-16T05:09:32Z</time>
      </trkpt>
      <trkpt lat="44.96977" lon="2.60063">
        <ele>772.08</ele>
        <time>2021-08-16T05:09:34Z</time>
      </trkpt>
      <trkpt lat="44.96977" lon="2.60061">
        <ele>772.08</ele>
        <time>2021-08-16T05:09:35Z</time>
      </trkpt>
      <trkpt lat="44.96978" lon="2.60049">
        <ele>773.52</ele>
        <time>2021-08-16T05:09:42Z</time>
      </trkpt>
      <trkpt lat="44.96978" lon="2.60047">
        <ele>773.52</ele>
        <time>2021-08-16T05:09:43Z</time>
      </trkpt>
      <trkpt lat="44.96979" lon="2.60045">
        <ele>774.48</ele>
        <time>2021-08-16T05:09:44Z</time>
      </trkpt>
      <trkpt lat="44.96979" lon="2.60043">
        <ele>774.48</ele>
        <time>2021-08-16T05:09:45Z</time>
      </trkpt>
      <trkpt lat="44.96979" lon="2.60042">
        <ele>774.48</ele>
        <time>2021-08-16T05:09:46Z</time>
      </trkpt>
      <trkpt lat="44.96979" lon="2.6004">
        <ele>774.48</ele>
        <time>2021-08-16T05:09:47Z</time>
      </trkpt>
      <trkpt lat="44.96979" lon="2.60038">
        <ele>774.48</ele>
        <time>2021-08-16T05:09:48Z</time>
      </trkpt>
      <trkpt lat="44.9698" lon="2.60036">
        <ele>774.96</ele>
        <time>2021-08-16T05:09:49Z</time>
      </trkpt>
      <trkpt lat="44.9698" lon="2.60034">
        <ele>774.96</ele>
        <time>2021-08-16T05:09:50Z</time>
      </trkpt>
      <trkpt lat="44.96981" lon="2.60016">
        <ele>775.92</ele>
        <time>2021-08-16T05:09:59Z</time>
      </trkpt>
      <trkpt lat="44.96982" lon="2.59992">
        <ele>777.36</ele>
        <time>2021-08-16T05:10:10Z</time>
      </trkpt>
      <trkpt lat="44.96982" lon="2.5999">
        <ele>777.36</ele>
        <time>2021-08-16T05:10:11Z</time>
      </trkpt>
      <trkpt lat="44.96981" lon="2.59983">
        <ele>778.32</ele>
        <time>2021-08-16T05:10:16Z</time>
      </trkpt>
      <trkpt lat="44.96981" lon="2.59982">
        <ele>778.32</ele>
        <time>2021-08-16T05:10:17Z</time>
      </trkpt>
      <trkpt lat="44.9698" lon="2.5998">
        <ele>778.81</ele>
        <time>2021-08-16T05:10:18Z</time>
      </trkpt>
      <trkpt lat="44.96977" lon="2.59969">
        <ele>780.25</ele>
        <time>2021-08-16T05:10:24Z</time>
      </trkpt>
      <trkpt lat="44.96976" lon="2.59967">
        <ele>780.25</ele>
        <time>2021-08-16T05:10:25Z</time>
      </trkpt>
      <trkpt lat="44.96975" lon="2.59966">
        <ele>780.25</ele>
        <time>2021-08-16T05:10:26Z</time>
      </trkpt>
      <trkpt lat="44.96974" lon="2.59964">
        <ele>780.73</ele>
        <time>2021-08-16T05:10:27Z</time>
      </trkpt>
      <trkpt lat="44.96973" lon="2.59963">
        <ele>780.73</ele>
        <time>2021-08-16T05:10:28Z</time>
      </trkpt>
      <trkpt lat="44.96972" lon="2.59961">
        <ele>781.21</ele>
        <time>2021-08-16T05:10:29Z</time>
      </trkpt>
      <trkpt lat="44.96972" lon="2.5996">
        <ele>781.21</ele>
        <time>2021-08-16T05:10:30Z</time>
      </trkpt>
      <trkpt lat="44.96966" lon="2.59952">
        <ele>782.17</ele>
        <time>2021-08-16T05:10:35Z</time>
      </trkpt>
      <trkpt lat="44.96965" lon="2.5995">
        <ele>782.65</ele>
        <time>2021-08-16T05:10:36Z</time>
      </trkpt>
      <trkpt lat="44.96964" lon="2.59948">
        <ele>782.65</ele>
        <time>2021-08-16T05:10:37Z</time>
      </trkpt>
      <trkpt lat="44.96958" lon="2.59934">
        <ele>783.13</ele>
        <time>2021-08-16T05:10:44Z</time>
      </trkpt>
      <trkpt lat="44.96944" lon="2.59913">
        <ele>783.13</ele>
        <time>2021-08-16T05:10:52Z</time>
      </trkpt>
      <trkpt lat="44.96929" lon="2.59898">
        <ele>783.61</ele>
        <time>2021-08-16T05:10:59Z</time>
      </trkpt>
      <trkpt lat="44.96912" lon="2.59892">
        <ele>783.61</ele>
        <time>2021-08-16T05:11:06Z</time>
      </trkpt>
      <trkpt lat="44.96904" lon="2.59888">
        <ele>785.05</ele>
        <time>2021-08-16T05:11:12Z</time>
      </trkpt>
      <trkpt lat="44.96903" lon="2.59886">
        <ele>785.05</ele>
        <time>2021-08-16T05:11:13Z</time>
      </trkpt>
      <trkpt lat="44.96902" lon="2.59884">
        <ele>785.53</ele>
        <time>2021-08-16T05:11:14Z</time>
      </trkpt>
      <trkpt lat="44.96896" lon="2.59874">
        <ele>786.5</ele>
        <time>2021-08-16T05:11:21Z</time>
      </trkpt>
      <trkpt lat="44.9689" lon="2.59864">
        <ele>787.46</ele>
        <time>2021-08-16T05:11:27Z</time>
      </trkpt>
      <trkpt lat="44.96881" lon="2.5985">
        <ele>788.42</ele>
        <time>2021-08-16T05:11:36Z</time>
      </trkpt>
      <trkpt lat="44.96873" lon="2.59839">
        <ele>790.82</ele>
        <time>2021-08-16T05:11:47Z</time>
      </trkpt>
      <trkpt lat="44.9687" lon="2.59835">
        <ele>792.26</ele>
        <time>2021-08-16T05:11:51Z</time>
      </trkpt>
      <trkpt lat="44.96869" lon="2.59834">
        <ele>792.26</ele>
        <time>2021-08-16T05:11:52Z</time>
      </trkpt>
      <trkpt lat="44.96868" lon="2.59833">
        <ele>792.26</ele>
        <time>2021-08-16T05:11:53Z</time>
      </trkpt>
      <trkpt lat="44.96868" lon="2.59831">
        <ele>792.26</ele>
        <time>2021-08-16T05:11:54Z</time>
      </trkpt>
      <trkpt lat="44.96866" lon="2.5983">
        <ele>792.26</ele>
        <time>2021-08-16T05:11:55Z</time>
      </trkpt>
      <trkpt lat="44.96854" lon="2.59823">
        <ele>793.22</ele>
        <time>2021-08-16T05:12:02Z</time>
      </trkpt>
      <trkpt lat="44.96849" lon="2.59818">
        <ele>793.71</ele>
        <time>2021-08-16T05:12:05Z</time>
      </trkpt>
      <trkpt lat="44.96848" lon="2.59817">
        <ele>793.71</ele>
        <time>2021-08-16T05:12:06Z</time>
      </trkpt>
      <trkpt lat="44.96847" lon="2.59815">
        <ele>793.71</ele>
        <time>2021-08-16T05:12:07Z</time>
      </trkpt>
      <trkpt lat="44.96845" lon="2.59813">
        <ele>793.71</ele>
        <time>2021-08-16T05:12:08Z</time>
      </trkpt>
      <trkpt lat="44.96843" lon="2.5981">
        <ele>793.71</ele>
        <time>2021-08-16T05:12:09Z</time>
      </trkpt>
      <trkpt lat="44.96841" lon="2.59807">
        <ele>793.71</ele>
        <time>2021-08-16T05:12:10Z</time>
      </trkpt>
      <trkpt lat="44.96839" lon="2.59804">
        <ele>793.71</ele>
        <time>2021-08-16T05:12:11Z</time>
      </trkpt>
      <trkpt lat="44.96827" lon="2.59785">
        <ele>793.71</ele>
        <time>2021-08-16T05:12:17Z</time>
      </trkpt>
      <trkpt lat="44.96814" lon="2.5977">
        <ele>793.71</ele>
        <time>2021-08-16T05:12:24Z</time>
      </trkpt>
      <trkpt lat="44.96806" lon="2.59757">
        <ele>794.19</ele>
        <time>2021-08-16T05:12:30Z</time>
      </trkpt>
      <trkpt lat="44.96798" lon="2.59748">
        <ele>794.67</ele>
        <time>2021-08-16T05:12:36Z</time>
      </trkpt>
      <trkpt lat="44.96791" lon="2.59739">
        <ele>795.63</ele>
        <time>2021-08-16T05:12:43Z</time>
      </trkpt>
      <trkpt lat="44.96788" lon="2.59736">
        <ele>795.63</ele>
        <time>2021-08-16T05:12:45Z</time>
      </trkpt>
      <trkpt lat="44.96785" lon="2.59735">
        <ele>796.11</ele>
        <time>2021-08-16T05:12:47Z</time>
      </trkpt>
      <trkpt lat="44.96776" lon="2.59726">
        <ele>797.55</ele>
        <time>2021-08-16T05:12:56Z</time>
      </trkpt>
      <trkpt lat="44.96773" lon="2.59717">
        <ele>798.99</ele>
        <time>2021-08-16T05:13:04Z</time>
      </trkpt>
      <trkpt lat="44.96767" lon="2.59709">
        <ele>800.44</ele>
        <time>2021-08-16T05:13:14Z</time>
      </trkpt>
      <trkpt lat="44.96762" lon="2.59705">
        <ele>801.88</ele>
        <time>2021-08-16T05:13:22Z</time>
      </trkpt>
      <trkpt lat="44.96758" lon="2.59701">
        <ele>803.32</ele>
        <time>2021-08-16T05:13:31Z</time>
      </trkpt>
      <trkpt lat="44.96752" lon="2.59696">
        <ele>805.24</ele>
        <time>2021-08-16T05:13:42Z</time>
      </trkpt>
      <trkpt lat="44.96746" lon="2.5969">
        <ele>807.16</ele>
        <time>2021-08-16T05:13:53Z</time>
      </trkpt>
      <trkpt lat="44.9674" lon="2.59686">
        <ele>808.61</ele>
        <time>2021-08-16T05:14:03Z</time>
      </trkpt>
      <trkpt lat="44.96738" lon="2.59679">
        <ele>810.05</ele>
        <time>2021-08-16T05:14:11Z</time>
      </trkpt>
      <trkpt lat="44.96736" lon="2.59676">
        <ele>811.97</ele>
        <time>2021-08-16T05:14:20Z</time>
      </trkpt>
      <trkpt lat="44.96732" lon="2.59672">
        <ele>813.89</ele>
        <time>2021-08-16T05:14:30Z</time>
      </trkpt>
      <trkpt lat="44.96729" lon="2.59668">
        <ele>815.34</ele>
        <time>2021-08-16T05:14:39Z</time>
      </trkpt>
      <trkpt lat="44.96724" lon="2.59664">
        <ele>817.26</ele>
        <time>2021-08-16T05:14:49Z</time>
      </trkpt>
      <trkpt lat="44.96719" lon="2.59657">
        <ele>818.7</ele>
        <time>2021-08-16T05:14:58Z</time>
      </trkpt>
      <trkpt lat="44.96717" lon="2.59649">
        <ele>819.18</ele>
        <time>2021-08-16T05:15:06Z</time>
      </trkpt>
      <trkpt lat="44.9671" lon="2.59641">
        <ele>819.18</ele>
        <time>2021-08-16T05:15:14Z</time>
      </trkpt>
      <trkpt lat="44.96699" lon="2.5963">
        <ele>815.82</ele>
        <time>2021-08-16T05:15:20Z</time>
      </trkpt>
      <trkpt lat="44.96693" lon="2.59625">
        <ele>815.82</ele>
        <time>2021-08-16T05:15:24Z</time>
      </trkpt>
      <trkpt lat="44.96688" lon="2.59619">
        <ele>815.34</ele>
        <time>2021-08-16T05:15:30Z</time>
      </trkpt>
      <trkpt lat="44.96684" lon="2.59617">
        <ele>815.34</ele>
        <time>2021-08-16T05:15:35Z</time>
      </trkpt>
      <trkpt lat="44.96679" lon="2.59614">
        <ele>816.78</ele>
        <time>2021-08-16T05:15:40Z</time>
      </trkpt>
      <trkpt lat="44.96673" lon="2.59612">
        <ele>818.7</ele>
        <time>2021-08-16T05:15:49Z</time>
      </trkpt>
      <trkpt lat="44.96667" lon="2.59615">
        <ele>820.14</ele>
        <time>2021-08-16T05:15:58Z</time>
      </trkpt>
      <trkpt lat="44.96657" lon="2.59611">
        <ele>817.74</ele>
        <time>2021-08-16T05:16:03Z</time>
      </trkpt>
      <trkpt lat="44.96641" lon="2.59596">
        <ele>816.3</ele>
        <time>2021-08-16T05:16:08Z</time>
      </trkpt>
      <trkpt lat="44.96621" lon="2.59581">
        <ele>815.34</ele>
        <time>2021-08-16T05:16:14Z</time>
      </trkpt>
      <trkpt lat="44.96603" lon="2.59563">
        <ele>812.45</ele>
        <time>2021-08-16T05:16:20Z</time>
      </trkpt>
      <trkpt lat="44.9659" lon="2.59549">
        <ele>811.97</ele>
        <time>2021-08-16T05:16:25Z</time>
      </trkpt>
      <trkpt lat="44.96584" lon="2.59526">
        <ele>810.05</ele>
        <time>2021-08-16T05:16:31Z</time>
      </trkpt>
      <trkpt lat="44.96574" lon="2.59502">
        <ele>810.05</ele>
        <time>2021-08-16T05:16:38Z</time>
      </trkpt>
      <trkpt lat="44.96563" lon="2.5949">
        <ele>810.05</ele>
        <time>2021-08-16T05:16:44Z</time>
      </trkpt>
      <trkpt lat="44.96552" lon="2.59476">
        <ele>809.57</ele>
        <time>2021-08-16T05:16:49Z</time>
      </trkpt>
      <trkpt lat="44.96539" lon="2.59462">
        <ele>806.2</ele>
        <time>2021-08-16T05:16:54Z</time>
      </trkpt>
      <trkpt lat="44.9653" lon="2.59458">
        <ele>803.32</ele>
        <time>2021-08-16T05:16:57Z</time>
      </trkpt>
      <trkpt lat="44.96515" lon="2.59448">
        <ele>799.47</ele>
        <time>2021-08-16T05:17:01Z</time>
      </trkpt>
      <trkpt lat="44.965" lon="2.5944">
        <ele>795.63</ele>
        <time>2021-08-16T05:17:05Z</time>
      </trkpt>
      <trkpt lat="44.96478" lon="2.59434">
        <ele>792.26</ele>
        <time>2021-08-16T05:17:11Z</time>
      </trkpt>
      <trkpt lat="44.96472" lon="2.59432">
        <ele>791.3</ele>
        <time>2021-08-16T05:17:13Z</time>
      </trkpt>
      <trkpt lat="44.96452" lon="2.59424">
        <ele>788.9</ele>
        <time>2021-08-16T05:17:18Z</time>
      </trkpt>
      <trkpt lat="44.96442" lon="2.59418">
        <ele>787.94</ele>
        <time>2021-08-16T05:17:20Z</time>
      </trkpt>
      <trkpt lat="44.96436" lon="2.59415">
        <ele>786.5</ele>
        <time>2021-08-16T05:17:22Z</time>
      </trkpt>
      <trkpt lat="44.96434" lon="2.59415">
        <ele>786.02</ele>
        <time>2021-08-16T05:17:23Z</time>
      </trkpt>
      <trkpt lat="44.96433" lon="2.59416">
        <ele>786.02</ele>
        <time>2021-08-16T05:17:24Z</time>
      </trkpt>
      <trkpt lat="44.96432" lon="2.59418">
        <ele>786.02</ele>
        <time>2021-08-16T05:17:28Z</time>
      </trkpt>
      <trkpt lat="44.9643" lon="2.59417">
        <ele>786.5</ele>
        <time>2021-08-16T05:17:34Z</time>
      </trkpt>
      <trkpt lat="44.96428" lon="2.59415">
        <ele>786.02</ele>
        <time>2021-08-16T05:17:36Z</time>
      </trkpt>
      <trkpt lat="44.96426" lon="2.59413">
        <ele>785.53</ele>
        <time>2021-08-16T05:17:38Z</time>
      </trkpt>
      <trkpt lat="44.9642" lon="2.59408">
        <ele>785.05</ele>
        <time>2021-08-16T05:17:41Z</time>
      </trkpt>
      <trkpt lat="44.96418" lon="2.59406">
        <ele>784.57</ele>
        <time>2021-08-16T05:17:42Z</time>
      </trkpt>
      <trkpt lat="44.96417" lon="2.59404">
        <ele>784.57</ele>
        <time>2021-08-16T05:17:43Z</time>
      </trkpt>
      <trkpt lat="44.96415" lon="2.59402">
        <ele>784.09</ele>
        <time>2021-08-16T05:17:44Z</time>
      </trkpt>
      <trkpt lat="44.96413" lon="2.59401">
        <ele>784.09</ele>
        <time>2021-08-16T05:17:45Z</time>
      </trkpt>
      <trkpt lat="44.96411" lon="2.594">
        <ele>783.13</ele>
        <time>2021-08-16T05:17:46Z</time>
      </trkpt>
      <trkpt lat="44.96409" lon="2.59398">
        <ele>782.65</ele>
        <time>2021-08-16T05:17:47Z</time>
      </trkpt>
      <trkpt lat="44.96406" lon="2.59397">
        <ele>782.17</ele>
        <time>2021-08-16T05:17:48Z</time>
      </trkpt>
      <trkpt lat="44.96403" lon="2.59396">
        <ele>782.17</ele>
        <time>2021-08-16T05:17:49Z</time>
      </trkpt>
      <trkpt lat="44.96389" lon="2.59387">
        <ele>778.81</ele>
        <time>2021-08-16T05:17:54Z</time>
      </trkpt>
      <trkpt lat="44.96372" lon="2.5938">
        <ele>776.88</ele>
        <time>2021-08-16T05:17:58Z</time>
      </trkpt>
      <trkpt lat="44.96352" lon="2.59375">
        <ele>774</ele>
        <time>2021-08-16T05:18:04Z</time>
      </trkpt>
      <trkpt lat="44.9634" lon="2.59372">
        <ele>770.63</ele>
        <time>2021-08-16T05:18:09Z</time>
      </trkpt>
      <trkpt lat="44.96325" lon="2.59365">
        <ele>768.23</ele>
        <time>2021-08-16T05:18:14Z</time>
      </trkpt>
      <trkpt lat="44.96313" lon="2.59367">
        <ele>766.31</ele>
        <time>2021-08-16T05:18:18Z</time>
      </trkpt>
      <trkpt lat="44.96309" lon="2.59365">
        <ele>765.83</ele>
        <time>2021-08-16T05:18:19Z</time>
      </trkpt>
      <trkpt lat="44.96282" lon="2.59354">
        <ele>763.42</ele>
        <time>2021-08-16T05:18:26Z</time>
      </trkpt>
      <trkpt lat="44.96281" lon="2.5935">
        <ele>763.42</ele>
        <time>2021-08-16T05:18:27Z</time>
      </trkpt>
      <trkpt lat="44.96281" lon="2.59345">
        <ele>763.42</ele>
        <time>2021-08-16T05:18:28Z</time>
      </trkpt>
      <trkpt lat="44.96284" lon="2.59321">
        <ele>763.42</ele>
        <time>2021-08-16T05:18:34Z</time>
      </trkpt>
      <trkpt lat="44.96283" lon="2.59306">
        <ele>763.42</ele>
        <time>2021-08-16T05:18:37Z</time>
      </trkpt>
      <trkpt lat="44.96281" lon="2.593">
        <ele>762.94</ele>
        <time>2021-08-16T05:18:38Z</time>
      </trkpt>
      <trkpt lat="44.96277" lon="2.59295">
        <ele>762.46</ele>
        <time>2021-08-16T05:18:39Z</time>
      </trkpt>
      <trkpt lat="44.96273" lon="2.59291">
        <ele>761.5</ele>
        <time>2021-08-16T05:18:40Z</time>
      </trkpt>
      <trkpt lat="44.96252" lon="2.59277">
        <ele>758.14</ele>
        <time>2021-08-16T05:18:44Z</time>
      </trkpt>
      <trkpt lat="44.96229" lon="2.59268">
        <ele>755.25</ele>
        <time>2021-08-16T05:18:49Z</time>
      </trkpt>
      <trkpt lat="44.96226" lon="2.59269">
        <ele>755.25</ele>
        <time>2021-08-16T05:18:50Z</time>
      </trkpt>
      <trkpt lat="44.96224" lon="2.59273">
        <ele>755.25</ele>
        <time>2021-08-16T05:18:51Z</time>
      </trkpt>
      <trkpt lat="44.96224" lon="2.59277">
        <ele>754.29</ele>
        <time>2021-08-16T05:18:52Z</time>
      </trkpt>
      <trkpt lat="44.96223" lon="2.59283">
        <ele>754.29</ele>
        <time>2021-08-16T05:18:53Z</time>
      </trkpt>
      <trkpt lat="44.96224" lon="2.5929">
        <ele>753.33</ele>
        <time>2021-08-16T05:18:54Z</time>
      </trkpt>
      <trkpt lat="44.96224" lon="2.59305">
        <ele>752.37</ele>
        <time>2021-08-16T05:18:56Z</time>
      </trkpt>
      <trkpt lat="44.96225" lon="2.59319">
        <ele>751.89</ele>
        <time>2021-08-16T05:18:58Z</time>
      </trkpt>
      <trkpt lat="44.96226" lon="2.59326">
        <ele>751.41</ele>
        <time>2021-08-16T05:18:59Z</time>
      </trkpt>
      <trkpt lat="44.96228" lon="2.59332">
        <ele>751.41</ele>
        <time>2021-08-16T05:19:00Z</time>
      </trkpt>
      <trkpt lat="44.96231" lon="2.59338">
        <ele>750.45</ele>
        <time>2021-08-16T05:19:01Z</time>
      </trkpt>
      <trkpt lat="44.96245" lon="2.59372">
        <ele>747.08</ele>
        <time>2021-08-16T05:19:06Z</time>
      </trkpt>
      <trkpt lat="44.9625" lon="2.59384">
        <ele>746.12</ele>
        <time>2021-08-16T05:19:08Z</time>
      </trkpt>
      <trkpt lat="44.96252" lon="2.59389">
        <ele>745.64</ele>
        <time>2021-08-16T05:19:09Z</time>
      </trkpt>
      <trkpt lat="44.96254" lon="2.59394">
        <ele>745.16</ele>
        <time>2021-08-16T05:19:10Z</time>
      </trkpt>
      <trkpt lat="44.96255" lon="2.59399">
        <ele>744.2</ele>
        <time>2021-08-16T05:19:11Z</time>
      </trkpt>
      <trkpt lat="44.96255" lon="2.59403">
        <ele>743.72</ele>
        <time>2021-08-16T05:19:12Z</time>
      </trkpt>
      <trkpt lat="44.96254" lon="2.59407">
        <ele>742.28</ele>
        <time>2021-08-16T05:19:13Z</time>
      </trkpt>
      <trkpt lat="44.96253" lon="2.5941">
        <ele>741.79</ele>
        <time>2021-08-16T05:19:14Z</time>
      </trkpt>
      <trkpt lat="44.9625" lon="2.59411">
        <ele>740.35</ele>
        <time>2021-08-16T05:19:15Z</time>
      </trkpt>
      <trkpt lat="44.96247" lon="2.5941">
        <ele>739.87</ele>
        <time>2021-08-16T05:19:16Z</time>
      </trkpt>
      <trkpt lat="44.96243" lon="2.59407">
        <ele>738.91</ele>
        <time>2021-08-16T05:19:17Z</time>
      </trkpt>
      <trkpt lat="44.9624" lon="2.59403">
        <ele>738.43</ele>
        <time>2021-08-16T05:19:18Z</time>
      </trkpt>
      <trkpt lat="44.96235" lon="2.594">
        <ele>737.47</ele>
        <time>2021-08-16T05:19:19Z</time>
      </trkpt>
      <trkpt lat="44.96229" lon="2.59399">
        <ele>737.47</ele>
        <time>2021-08-16T05:19:20Z</time>
      </trkpt>
      <trkpt lat="44.96224" lon="2.59401">
        <ele>736.99</ele>
        <time>2021-08-16T05:19:21Z</time>
      </trkpt>
      <trkpt lat="44.96219" lon="2.59404">
        <ele>736.99</ele>
        <time>2021-08-16T05:19:22Z</time>
      </trkpt>
      <trkpt lat="44.96215" lon="2.59407">
        <ele>738.43</ele>
        <time>2021-08-16T05:19:23Z</time>
      </trkpt>
      <trkpt lat="44.96205" lon="2.59414">
        <ele>739.39</ele>
        <time>2021-08-16T05:19:28Z</time>
      </trkpt>
      <trkpt lat="44.96191" lon="2.59424">
        <ele>740.35</ele>
        <time>2021-08-16T05:19:34Z</time>
      </trkpt>
      <trkpt lat="44.96185" lon="2.59431">
        <ele>740.35</ele>
        <time>2021-08-16T05:19:36Z</time>
      </trkpt>
      <trkpt lat="44.96181" lon="2.59435">
        <ele>739.39</ele>
        <time>2021-08-16T05:19:37Z</time>
      </trkpt>
      <trkpt lat="44.96178" lon="2.59438">
        <ele>738.43</ele>
        <time>2021-08-16T05:19:38Z</time>
      </trkpt>
      <trkpt lat="44.96174" lon="2.59441">
        <ele>738.43</ele>
        <time>2021-08-16T05:19:39Z</time>
      </trkpt>
      <trkpt lat="44.9617" lon="2.59442">
        <ele>737.95</ele>
        <time>2021-08-16T05:19:40Z</time>
      </trkpt>
      <trkpt lat="44.96166" lon="2.59442">
        <ele>737.95</ele>
        <time>2021-08-16T05:19:41Z</time>
      </trkpt>
      <trkpt lat="44.96161" lon="2.59442">
        <ele>736.99</ele>
        <time>2021-08-16T05:19:42Z</time>
      </trkpt>
      <trkpt lat="44.96152" lon="2.5944">
        <ele>736.51</ele>
        <time>2021-08-16T05:19:44Z</time>
      </trkpt>
      <trkpt lat="44.96146" lon="2.59439">
        <ele>735.55</ele>
        <time>2021-08-16T05:19:45Z</time>
      </trkpt>
      <trkpt lat="44.96141" lon="2.59438">
        <ele>735.55</ele>
        <time>2021-08-16T05:19:46Z</time>
      </trkpt>
      <trkpt lat="44.96137" lon="2.59437">
        <ele>735.55</ele>
        <time>2021-08-16T05:19:47Z</time>
      </trkpt>
      <trkpt lat="44.96133" lon="2.59434">
        <ele>735.55</ele>
        <time>2021-08-16T05:19:48Z</time>
      </trkpt>
      <trkpt lat="44.9613" lon="2.59432">
        <ele>735.55</ele>
        <time>2021-08-16T05:19:49Z</time>
      </trkpt>
      <trkpt lat="44.96128" lon="2.5943">
        <ele>735.55</ele>
        <time>2021-08-16T05:19:50Z</time>
      </trkpt>
      <trkpt lat="44.96126" lon="2.59427">
        <ele>735.55</ele>
        <time>2021-08-16T05:19:51Z</time>
      </trkpt>
      <trkpt lat="44.96124" lon="2.59424">
        <ele>736.51</ele>
        <time>2021-08-16T05:19:52Z</time>
      </trkpt>
      <trkpt lat="44.96123" lon="2.59421">
        <ele>736.51</ele>
        <time>2021-08-16T05:19:53Z</time>
      </trkpt>
      <trkpt lat="44.96121" lon="2.59418">
        <ele>736.99</ele>
        <time>2021-08-16T05:19:54Z</time>
      </trkpt>
      <trkpt lat="44.96119" lon="2.59415">
        <ele>736.99</ele>
        <time>2021-08-16T05:19:55Z</time>
      </trkpt>
      <trkpt lat="44.96117" lon="2.59412">
        <ele>736.99</ele>
        <time>2021-08-16T05:19:56Z</time>
      </trkpt>
      <trkpt lat="44.96101" lon="2.59391">
        <ele>737.47</ele>
        <time>2021-08-16T05:20:03Z</time>
      </trkpt>
      <trkpt lat="44.96082" lon="2.59366">
        <ele>738.91</ele>
        <time>2021-08-16T05:20:12Z</time>
      </trkpt>
      <trkpt lat="44.96074" lon="2.59347">
        <ele>738.91</ele>
        <time>2021-08-16T05:20:18Z</time>
      </trkpt>
      <trkpt lat="44.96069" lon="2.59326">
        <ele>739.39</ele>
        <time>2021-08-16T05:20:23Z</time>
      </trkpt>
      <trkpt lat="44.96065" lon="2.59308">
        <ele>740.35</ele>
        <time>2021-08-16T05:20:29Z</time>
      </trkpt>
      <trkpt lat="44.96058" lon="2.59287">
        <ele>741.31</ele>
        <time>2021-08-16T05:20:36Z</time>
      </trkpt>
      <trkpt lat="44.96049" lon="2.59256">
        <ele>741.31</ele>
        <time>2021-08-16T05:20:44Z</time>
      </trkpt>
      <trkpt lat="44.96048" lon="2.59223">
        <ele>741.31</ele>
        <time>2021-08-16T05:20:50Z</time>
      </trkpt>
      <trkpt lat="44.96048" lon="2.59209">
        <ele>742.28</ele>
        <time>2021-08-16T05:20:53Z</time>
      </trkpt>
      <trkpt lat="44.96047" lon="2.59206">
        <ele>742.28</ele>
        <time>2021-08-16T05:20:54Z</time>
      </trkpt>
      <trkpt lat="44.96037" lon="2.59182">
        <ele>742.76</ele>
        <time>2021-08-16T05:21:02Z</time>
      </trkpt>
      <trkpt lat="44.96025" lon="2.59164">
        <ele>742.76</ele>
        <time>2021-08-16T05:21:08Z</time>
      </trkpt>
      <trkpt lat="44.96018" lon="2.59154">
        <ele>742.76</ele>
        <time>2021-08-16T05:21:11Z</time>
      </trkpt>
      <trkpt lat="44.96014" lon="2.5915">
        <ele>741.31</ele>
        <time>2021-08-16T05:21:12Z</time>
      </trkpt>
      <trkpt lat="44.96011" lon="2.59145">
        <ele>741.31</ele>
        <time>2021-08-16T05:21:13Z</time>
      </trkpt>
      <trkpt lat="44.96008" lon="2.59141">
        <ele>740.83</ele>
        <time>2021-08-16T05:21:14Z</time>
      </trkpt>
      <trkpt lat="44.96005" lon="2.59136">
        <ele>740.83</ele>
        <time>2021-08-16T05:21:15Z</time>
      </trkpt>
      <trkpt lat="44.96003" lon="2.59131">
        <ele>740.35</ele>
        <time>2021-08-16T05:21:16Z</time>
      </trkpt>
      <trkpt lat="44.95986" lon="2.59096">
        <ele>739.39</ele>
        <time>2021-08-16T05:21:23Z</time>
      </trkpt>
      <trkpt lat="44.9598" lon="2.59082">
        <ele>738.43</ele>
        <time>2021-08-16T05:21:25Z</time>
      </trkpt>
      <trkpt lat="44.95978" lon="2.59074">
        <ele>738.43</ele>
        <time>2021-08-16T05:21:26Z</time>
      </trkpt>
      <trkpt lat="44.95968" lon="2.59043">
        <ele>737.47</ele>
        <time>2021-08-16T05:21:31Z</time>
      </trkpt>
      <trkpt lat="44.95965" lon="2.59039">
        <ele>737.47</ele>
        <time>2021-08-16T05:21:32Z</time>
      </trkpt>
      <trkpt lat="44.95961" lon="2.59036">
        <ele>737.47</ele>
        <time>2021-08-16T05:21:33Z</time>
      </trkpt>
      <trkpt lat="44.95947" lon="2.59026">
        <ele>736.51</ele>
        <time>2021-08-16T05:21:36Z</time>
      </trkpt>
      <trkpt lat="44.95944" lon="2.59022">
        <ele>736.51</ele>
        <time>2021-08-16T05:21:37Z</time>
      </trkpt>
      <trkpt lat="44.95941" lon="2.59017">
        <ele>736.51</ele>
        <time>2021-08-16T05:21:38Z</time>
      </trkpt>
      <trkpt lat="44.95928" lon="2.58984">
        <ele>736.51</ele>
        <time>2021-08-16T05:21:45Z</time>
      </trkpt>
      <trkpt lat="44.95917" lon="2.58954">
        <ele>736.51</ele>
        <time>2021-08-16T05:21:52Z</time>
      </trkpt>
      <trkpt lat="44.95906" lon="2.58931">
        <ele>735.55</ele>
        <time>2021-08-16T05:21:57Z</time>
      </trkpt>
      <trkpt lat="44.9589" lon="2.58909">
        <ele>735.07</ele>
        <time>2021-08-16T05:22:03Z</time>
      </trkpt>
      <trkpt lat="44.95877" lon="2.58883">
        <ele>734.58</ele>
        <time>2021-08-16T05:22:09Z</time>
      </trkpt>
      <trkpt lat="44.95872" lon="2.58874">
        <ele>734.1</ele>
        <time>2021-08-16T05:22:11Z</time>
      </trkpt>
      <trkpt lat="44.95869" lon="2.58869">
        <ele>733.62</ele>
        <time>2021-08-16T05:22:12Z</time>
      </trkpt>
      <trkpt lat="44.95851" lon="2.58847">
        <ele>732.66</ele>
        <time>2021-08-16T05:22:17Z</time>
      </trkpt>
      <trkpt lat="44.95848" lon="2.58841">
        <ele>732.66</ele>
        <time>2021-08-16T05:22:18Z</time>
      </trkpt>
      <trkpt lat="44.95846" lon="2.58835">
        <ele>732.18</ele>
        <time>2021-08-16T05:22:19Z</time>
      </trkpt>
      <trkpt lat="44.95843" lon="2.58827">
        <ele>732.18</ele>
        <time>2021-08-16T05:22:20Z</time>
      </trkpt>
      <trkpt lat="44.9584" lon="2.58819">
        <ele>731.7</ele>
        <time>2021-08-16T05:22:21Z</time>
      </trkpt>
      <trkpt lat="44.95838" lon="2.58812">
        <ele>731.7</ele>
        <time>2021-08-16T05:22:22Z</time>
      </trkpt>
      <trkpt lat="44.95836" lon="2.58804">
        <ele>731.7</ele>
        <time>2021-08-16T05:22:23Z</time>
      </trkpt>
      <trkpt lat="44.95831" lon="2.58789">
        <ele>731.22</ele>
        <time>2021-08-16T05:22:25Z</time>
      </trkpt>
      <trkpt lat="44.95829" lon="2.58783">
        <ele>731.22</ele>
        <time>2021-08-16T05:22:26Z</time>
      </trkpt>
      <trkpt lat="44.95826" lon="2.58777">
        <ele>731.22</ele>
        <time>2021-08-16T05:22:27Z</time>
      </trkpt>
      <trkpt lat="44.95819" lon="2.58765">
        <ele>731.22</ele>
        <time>2021-08-16T05:22:29Z</time>
      </trkpt>
      <trkpt lat="44.9581" lon="2.58755">
        <ele>732.66</ele>
        <time>2021-08-16T05:22:32Z</time>
      </trkpt>
      <trkpt lat="44.95799" lon="2.58729">
        <ele>732.66</ele>
        <time>2021-08-16T05:22:38Z</time>
      </trkpt>
      <trkpt lat="44.95796" lon="2.58722">
        <ele>732.66</ele>
        <time>2021-08-16T05:22:39Z</time>
      </trkpt>
      <trkpt lat="44.95793" lon="2.58716">
        <ele>732.66</ele>
        <time>2021-08-16T05:22:40Z</time>
      </trkpt>
      <trkpt lat="44.95789" lon="2.5871">
        <ele>732.66</ele>
        <time>2021-08-16T05:22:41Z</time>
      </trkpt>
      <trkpt lat="44.95778" lon="2.58688">
        <ele>733.62</ele>
        <time>2021-08-16T05:22:46Z</time>
      </trkpt>
      <trkpt lat="44.95769" lon="2.58659">
        <ele>734.58</ele>
        <time>2021-08-16T05:22:55Z</time>
      </trkpt>
      <trkpt lat="44.95765" lon="2.58644">
        <ele>736.03</ele>
        <time>2021-08-16T05:23:02Z</time>
      </trkpt>
      <trkpt lat="44.95761" lon="2.5863">
        <ele>736.99</ele>
        <time>2021-08-16T05:23:08Z</time>
      </trkpt>
      <trkpt lat="44.9576" lon="2.58628">
        <ele>736.99</ele>
        <time>2021-08-16T05:23:09Z</time>
      </trkpt>
      <trkpt lat="44.95756" lon="2.58618">
        <ele>737.47</ele>
        <time>2021-08-16T05:23:14Z</time>
      </trkpt>
      <trkpt lat="44.95754" lon="2.58615">
        <ele>737.47</ele>
        <time>2021-08-16T05:23:15Z</time>
      </trkpt>
      <trkpt lat="44.95753" lon="2.58612">
        <ele>737.47</ele>
        <time>2021-08-16T05:23:16Z</time>
      </trkpt>
      <trkpt lat="44.95751" lon="2.5861">
        <ele>737.47</ele>
        <time>2021-08-16T05:23:17Z</time>
      </trkpt>
      <trkpt lat="44.95749" lon="2.58608">
        <ele>737.47</ele>
        <time>2021-08-16T05:23:18Z</time>
      </trkpt>
      <trkpt lat="44.95747" lon="2.58606">
        <ele>737.47</ele>
        <time>2021-08-16T05:23:19Z</time>
      </trkpt>
      <trkpt lat="44.95734" lon="2.58597">
        <ele>734.1</ele>
        <time>2021-08-16T05:23:25Z</time>
      </trkpt>
      <trkpt lat="44.9572" lon="2.58586">
        <ele>732.66</ele>
        <time>2021-08-16T05:23:30Z</time>
      </trkpt>
      <trkpt lat="44.95701" lon="2.58561">
        <ele>731.7</ele>
        <time>2021-08-16T05:23:36Z</time>
      </trkpt>
      <trkpt lat="44.95675" lon="2.58526">
        <ele>729.3</ele>
        <time>2021-08-16T05:23:43Z</time>
      </trkpt>
      <trkpt lat="44.9566" lon="2.58505">
        <ele>725.93</ele>
        <time>2021-08-16T05:23:46Z</time>
      </trkpt>
      <trkpt lat="44.95641" lon="2.58483">
        <ele>724.49</ele>
        <time>2021-08-16T05:23:49Z</time>
      </trkpt>
      <trkpt lat="44.9561" lon="2.58445">
        <ele>722.57</ele>
        <time>2021-08-16T05:23:53Z</time>
      </trkpt>
      <trkpt lat="44.95604" lon="2.58438">
        <ele>722.09</ele>
        <time>2021-08-16T05:23:54Z</time>
      </trkpt>
      <trkpt lat="44.95563" lon="2.58398">
        <ele>721.13</ele>
        <time>2021-08-16T05:24:00Z</time>
      </trkpt>
      <trkpt lat="44.95547" lon="2.58368">
        <ele>722.57</ele>
        <time>2021-08-16T05:24:04Z</time>
      </trkpt>
      <trkpt lat="44.95527" lon="2.58326">
        <ele>720.65</ele>
        <time>2021-08-16T05:24:10Z</time>
      </trkpt>
      <trkpt lat="44.95522" lon="2.58318">
        <ele>719.68</ele>
        <time>2021-08-16T05:24:11Z</time>
      </trkpt>
      <trkpt lat="44.95513" lon="2.58304">
        <ele>718.24</ele>
        <time>2021-08-16T05:24:13Z</time>
      </trkpt>
      <trkpt lat="44.95493" lon="2.5828">
        <ele>714.4</ele>
        <time>2021-08-16T05:24:16Z</time>
      </trkpt>
      <trkpt lat="44.9547" lon="2.58253">
        <ele>711.99</ele>
        <time>2021-08-16T05:24:19Z</time>
      </trkpt>
      <trkpt lat="44.95445" lon="2.58207">
        <ele>709.11</ele>
        <time>2021-08-16T05:24:23Z</time>
      </trkpt>
      <trkpt lat="44.95419" lon="2.58144">
        <ele>705.75</ele>
        <time>2021-08-16T05:24:28Z</time>
      </trkpt>
      <trkpt lat="44.95414" lon="2.58135">
        <ele>705.26</ele>
        <time>2021-08-16T05:24:29Z</time>
      </trkpt>
      <trkpt lat="44.95393" lon="2.58102">
        <ele>701.9</ele>
        <time>2021-08-16T05:24:32Z</time>
      </trkpt>
      <trkpt lat="44.9538" lon="2.58077">
        <ele>699.98</ele>
        <time>2021-08-16T05:24:34Z</time>
      </trkpt>
      <trkpt lat="44.95364" lon="2.58039">
        <ele>696.61</ele>
        <time>2021-08-16T05:24:37Z</time>
      </trkpt>
      <trkpt lat="44.95341" lon="2.57999">
        <ele>693.25</ele>
        <time>2021-08-16T05:24:41Z</time>
      </trkpt>
      <trkpt lat="44.95336" lon="2.57988">
        <ele>692.77</ele>
        <time>2021-08-16T05:24:42Z</time>
      </trkpt>
      <trkpt lat="44.95332" lon="2.57979">
        <ele>691.81</ele>
        <time>2021-08-16T05:24:43Z</time>
      </trkpt>
      <trkpt lat="44.9533" lon="2.57968">
        <ele>691.33</ele>
        <time>2021-08-16T05:24:44Z</time>
      </trkpt>
      <trkpt lat="44.95327" lon="2.57957">
        <ele>689.88</ele>
        <time>2021-08-16T05:24:45Z</time>
      </trkpt>
      <trkpt lat="44.95327" lon="2.57947">
        <ele>689.4</ele>
        <time>2021-08-16T05:24:46Z</time>
      </trkpt>
      <trkpt lat="44.95328" lon="2.57932">
        <ele>688.92</ele>
        <time>2021-08-16T05:24:47Z</time>
      </trkpt>
      <trkpt lat="44.95328" lon="2.57924">
        <ele>688.44</ele>
        <time>2021-08-16T05:24:48Z</time>
      </trkpt>
      <trkpt lat="44.95327" lon="2.57914">
        <ele>687.48</ele>
        <time>2021-08-16T05:24:49Z</time>
      </trkpt>
      <trkpt lat="44.95325" lon="2.57904">
        <ele>686.52</ele>
        <time>2021-08-16T05:24:50Z</time>
      </trkpt>
      <trkpt lat="44.95321" lon="2.57895">
        <ele>686.52</ele>
        <time>2021-08-16T05:24:51Z</time>
      </trkpt>
      <trkpt lat="44.95316" lon="2.57887">
        <ele>685.56</ele>
        <time>2021-08-16T05:24:52Z</time>
      </trkpt>
      <trkpt lat="44.95311" lon="2.5788">
        <ele>684.6</ele>
        <time>2021-08-16T05:24:53Z</time>
      </trkpt>
      <trkpt lat="44.95305" lon="2.57873">
        <ele>684.12</ele>
        <time>2021-08-16T05:24:54Z</time>
      </trkpt>
      <trkpt lat="44.95298" lon="2.57869">
        <ele>683.15</ele>
        <time>2021-08-16T05:24:55Z</time>
      </trkpt>
      <trkpt lat="44.95292" lon="2.57866">
        <ele>682.19</ele>
        <time>2021-08-16T05:24:56Z</time>
      </trkpt>
      <trkpt lat="44.95287" lon="2.57862">
        <ele>681.71</ele>
        <time>2021-08-16T05:24:57Z</time>
      </trkpt>
      <trkpt lat="44.95283" lon="2.57857">
        <ele>680.75</ele>
        <time>2021-08-16T05:24:58Z</time>
      </trkpt>
      <trkpt lat="44.95279" lon="2.57849">
        <ele>679.79</ele>
        <time>2021-08-16T05:24:59Z</time>
      </trkpt>
      <trkpt lat="44.95272" lon="2.57835">
        <ele>677.87</ele>
        <time>2021-08-16T05:25:01Z</time>
      </trkpt>
      <trkpt lat="44.95268" lon="2.57829">
        <ele>676.91</ele>
        <time>2021-08-16T05:25:02Z</time>
      </trkpt>
      <trkpt lat="44.95262" lon="2.57817">
        <ele>675.94</ele>
        <time>2021-08-16T05:25:04Z</time>
      </trkpt>
      <trkpt lat="44.95256" lon="2.57798">
        <ele>674.02</ele>
        <time>2021-08-16T05:25:09Z</time>
      </trkpt>
      <trkpt lat="44.95253" lon="2.57793">
        <ele>673.54</ele>
        <time>2021-08-16T05:25:13Z</time>
      </trkpt>
      <trkpt lat="44.95251" lon="2.57793">
        <ele>673.06</ele>
        <time>2021-08-16T05:25:14Z</time>
      </trkpt>
      <trkpt lat="44.9525" lon="2.57794">
        <ele>673.06</ele>
        <time>2021-08-16T05:25:15Z</time>
      </trkpt>
      <trkpt lat="44.95247" lon="2.57794">
        <ele>672.1</ele>
        <time>2021-08-16T05:25:16Z</time>
      </trkpt>
      <trkpt lat="44.95245" lon="2.57793">
        <ele>672.58</ele>
        <time>2021-08-16T05:25:17Z</time>
      </trkpt>
      <trkpt lat="44.95242" lon="2.57794">
        <ele>672.1</ele>
        <time>2021-08-16T05:25:18Z</time>
      </trkpt>
      <trkpt lat="44.95234" lon="2.5779">
        <ele>671.14</ele>
        <time>2021-08-16T05:25:21Z</time>
      </trkpt>
      <trkpt lat="44.95232" lon="2.57786">
        <ele>671.14</ele>
        <time>2021-08-16T05:25:22Z</time>
      </trkpt>
      <trkpt lat="44.95232" lon="2.57782">
        <ele>671.14</ele>
        <time>2021-08-16T05:25:23Z</time>
      </trkpt>
      <trkpt lat="44.95231" lon="2.5775">
        <ele>670.18</ele>
        <time>2021-08-16T05:25:29Z</time>
      </trkpt>
      <trkpt lat="44.95232" lon="2.57746">
        <ele>671.14</ele>
        <time>2021-08-16T05:25:30Z</time>
      </trkpt>
      <trkpt lat="44.95232" lon="2.57743">
        <ele>671.14</ele>
        <time>2021-08-16T05:25:31Z</time>
      </trkpt>
      <trkpt lat="44.95232" lon="2.57742">
        <ele>671.14</ele>
        <time>2021-08-16T05:25:35Z</time>
      </trkpt>
      <trkpt lat="44.95232" lon="2.57742">
        <ele>671.14</ele>
        <time>2021-08-16T05:25:46Z</time>
      </trkpt>
      <trkpt lat="44.95232" lon="2.57742">
        <ele>671.14</ele>
        <time>2021-08-16T05:25:57Z</time>
      </trkpt>
      <trkpt lat="44.95232" lon="2.57741">
        <ele>671.14</ele>
        <time>2021-08-16T05:26:10Z</time>
      </trkpt>
      <trkpt lat="44.95232" lon="2.57739">
        <ele>671.14</ele>
        <time>2021-08-16T05:26:11Z</time>
      </trkpt>
      <trkpt lat="44.95232" lon="2.57737">
        <ele>671.14</ele>
        <time>2021-08-16T05:26:12Z</time>
      </trkpt>
      <trkpt lat="44.95231" lon="2.57735">
        <ele>671.14</ele>
        <time>2021-08-16T05:26:13Z</time>
      </trkpt>
      <trkpt lat="44.9523" lon="2.57731">
        <ele>671.14</ele>
        <time>2021-08-16T05:26:14Z</time>
      </trkpt>
      <trkpt lat="44.95229" lon="2.57728">
        <ele>671.14</ele>
        <time>2021-08-16T05:26:15Z</time>
      </trkpt>
      <trkpt lat="44.95228" lon="2.57723">
        <ele>671.14</ele>
        <time>2021-08-16T05:26:16Z</time>
      </trkpt>
      <trkpt lat="44.95227" lon="2.57719">
        <ele>671.14</ele>
        <time>2021-08-16T05:26:17Z</time>
      </trkpt>
      <trkpt lat="44.95226" lon="2.57713">
        <ele>671.14</ele>
        <time>2021-08-16T05:26:18Z</time>
      </trkpt>
      <trkpt lat="44.95221" lon="2.57667">
        <ele>670.66</ele>
        <time>2021-08-16T05:26:26Z</time>
      </trkpt>
      <trkpt lat="44.95216" lon="2.57624">
        <ele>672.1</ele>
        <time>2021-08-16T05:26:34Z</time>
      </trkpt>
      <trkpt lat="44.95215" lon="2.57615">
        <ele>672.58</ele>
        <time>2021-08-16T05:26:36Z</time>
      </trkpt>
      <trkpt lat="44.95212" lon="2.57584">
        <ele>673.06</ele>
        <time>2021-08-16T05:26:43Z</time>
      </trkpt>
      <trkpt lat="44.95208" lon="2.57545">
        <ele>674.02</ele>
        <time>2021-08-16T05:26:52Z</time>
      </trkpt>
      <trkpt lat="44.95203" lon="2.57502">
        <ele>674.98</ele>
        <time>2021-08-16T05:27:02Z</time>
      </trkpt>
      <trkpt lat="44.95195" lon="2.57461">
        <ele>675.46</ele>
        <time>2021-08-16T05:27:11Z</time>
      </trkpt>
      <trkpt lat="44.95181" lon="2.57427">
        <ele>675.94</ele>
        <time>2021-08-16T05:27:19Z</time>
      </trkpt>
      <trkpt lat="44.9516" lon="2.57385">
        <ele>675.94</ele>
        <time>2021-08-16T05:27:28Z</time>
      </trkpt>
      <trkpt lat="44.95149" lon="2.57364">
        <ele>676.42</ele>
        <time>2021-08-16T05:27:33Z</time>
      </trkpt>
      <trkpt lat="44.95146" lon="2.5736">
        <ele>676.42</ele>
        <time>2021-08-16T05:27:34Z</time>
      </trkpt>
      <trkpt lat="44.95144" lon="2.57356">
        <ele>676.91</ele>
        <time>2021-08-16T05:27:35Z</time>
      </trkpt>
      <trkpt lat="44.95131" lon="2.5733">
        <ele>677.87</ele>
        <time>2021-08-16T05:27:43Z</time>
      </trkpt>
      <trkpt lat="44.95116" lon="2.57301">
        <ele>679.79</ele>
        <time>2021-08-16T05:27:54Z</time>
      </trkpt>
      <trkpt lat="44.95105" lon="2.57279">
        <ele>680.27</ele>
        <time>2021-08-16T05:28:03Z</time>
      </trkpt>
      <trkpt lat="44.95092" lon="2.57252">
        <ele>681.71</ele>
        <time>2021-08-16T05:28:13Z</time>
      </trkpt>
      <trkpt lat="44.95077" lon="2.57222">
        <ele>682.67</ele>
        <time>2021-08-16T05:28:24Z</time>
      </trkpt>
      <trkpt lat="44.95061" lon="2.57193">
        <ele>684.12</ele>
        <time>2021-08-16T05:28:34Z</time>
      </trkpt>
      <trkpt lat="44.95054" lon="2.57176">
        <ele>685.08</ele>
        <time>2021-08-16T05:28:40Z</time>
      </trkpt>
      <trkpt lat="44.95053" lon="2.57173">
        <ele>685.08</ele>
        <time>2021-08-16T05:28:41Z</time>
      </trkpt>
      <trkpt lat="44.95054" lon="2.5717">
        <ele>685.56</ele>
        <time>2021-08-16T05:28:42Z</time>
      </trkpt>
      <trkpt lat="44.95055" lon="2.57169">
        <ele>685.56</ele>
        <time>2021-08-16T05:28:43Z</time>
      </trkpt>
      <trkpt lat="44.95056" lon="2.57169">
        <ele>686.04</ele>
        <time>2021-08-16T05:28:44Z</time>
      </trkpt>
      <trkpt lat="44.95057" lon="2.57168">
        <ele>686.04</ele>
        <time>2021-08-16T05:28:45Z</time>
      </trkpt>
      <trkpt lat="44.95058" lon="2.57167">
        <ele>686.52</ele>
        <time>2021-08-16T05:28:46Z</time>
      </trkpt>
      <trkpt lat="44.95059" lon="2.57166">
        <ele>686.52</ele>
        <time>2021-08-16T05:28:47Z</time>
      </trkpt>
      <trkpt lat="44.9506" lon="2.57166">
        <ele>686.52</ele>
        <time>2021-08-16T05:28:48Z</time>
      </trkpt>
      <trkpt lat="44.95061" lon="2.57165">
        <ele>686.52</ele>
        <time>2021-08-16T05:28:49Z</time>
      </trkpt>
      <trkpt lat="44.95062" lon="2.57164">
        <ele>687</ele>
        <time>2021-08-16T05:28:50Z</time>
      </trkpt>
      <trkpt lat="44.95063" lon="2.57163">
        <ele>687</ele>
        <time>2021-08-16T05:28:51Z</time>
      </trkpt>
      <trkpt lat="44.95065" lon="2.57163">
        <ele>687.96</ele>
        <time>2021-08-16T05:28:52Z</time>
      </trkpt>
      <trkpt lat="44.95065" lon="2.57161">
        <ele>687.48</ele>
        <time>2021-08-16T05:28:53Z</time>
      </trkpt>
      <trkpt lat="44.95066" lon="2.5716">
        <ele>687.96</ele>
        <time>2021-08-16T05:28:54Z</time>
      </trkpt>
      <trkpt lat="44.95071" lon="2.57147">
        <ele>689.4</ele>
        <time>2021-08-16T05:29:03Z</time>
      </trkpt>
      <trkpt lat="44.95071" lon="2.57145">
        <ele>689.4</ele>
        <time>2021-08-16T05:29:10Z</time>
      </trkpt>
      <trkpt lat="44.9507" lon="2.57145">
        <ele>689.4</ele>
        <time>2021-08-16T05:29:27Z</time>
      </trkpt>
      <trkpt lat="44.95068" lon="2.57143">
        <ele>689.4</ele>
        <time>2021-08-16T05:29:37Z</time>
      </trkpt>
      <trkpt lat="44.95067" lon="2.57141">
        <ele>689.4</ele>
        <time>2021-08-16T05:29:38Z</time>
      </trkpt>
      <trkpt lat="44.95067" lon="2.57139">
        <ele>689.4</ele>
        <time>2021-08-16T05:29:39Z</time>
      </trkpt>
      <trkpt lat="44.95066" lon="2.57137">
        <ele>689.4</ele>
        <time>2021-08-16T05:29:40Z</time>
      </trkpt>
      <trkpt lat="44.95065" lon="2.57135">
        <ele>689.4</ele>
        <time>2021-08-16T05:29:41Z</time>
      </trkpt>
      <trkpt lat="44.95065" lon="2.57133">
        <ele>689.4</ele>
        <time>2021-08-16T05:29:42Z</time>
      </trkpt>
      <trkpt lat="44.95065" lon="2.5713">
        <ele>689.88</ele>
        <time>2021-08-16T05:29:43Z</time>
      </trkpt>
      <trkpt lat="44.95064" lon="2.57128">
        <ele>689.88</ele>
        <time>2021-08-16T05:29:44Z</time>
      </trkpt>
      <trkpt lat="44.95059" lon="2.5711">
        <ele>691.33</ele>
        <time>2021-08-16T05:29:53Z</time>
      </trkpt>
      <trkpt lat="44.95057" lon="2.57096">
        <ele>691.33</ele>
        <time>2021-08-16T05:30:00Z</time>
      </trkpt>
      <trkpt lat="44.95057" lon="2.57094">
        <ele>692.29</ele>
        <time>2021-08-16T05:30:01Z</time>
      </trkpt>
      <trkpt lat="44.95057" lon="2.57093">
        <ele>692.29</ele>
        <time>2021-08-16T05:30:02Z</time>
      </trkpt>
      <trkpt lat="44.95054" lon="2.57074">
        <ele>693.25</ele>
        <time>2021-08-16T05:30:12Z</time>
      </trkpt>
      <trkpt lat="44.95052" lon="2.5706">
        <ele>695.17</ele>
        <time>2021-08-16T05:30:20Z</time>
      </trkpt>
      <trkpt lat="44.95051" lon="2.57058">
        <ele>695.65</ele>
        <time>2021-08-16T05:30:24Z</time>
      </trkpt>
      <trkpt lat="44.95053" lon="2.57046">
        <ele>696.61</ele>
        <time>2021-08-16T05:30:33Z</time>
      </trkpt>
      <trkpt lat="44.95058" lon="2.57039">
        <ele>698.05</ele>
        <time>2021-08-16T05:30:42Z</time>
      </trkpt>
      <trkpt lat="44.95062" lon="2.57029">
        <ele>699.98</ele>
        <time>2021-08-16T05:30:53Z</time>
      </trkpt>
      <trkpt lat="44.95065" lon="2.57019">
        <ele>701.42</ele>
        <time>2021-08-16T05:31:03Z</time>
      </trkpt>
      <trkpt lat="44.95067" lon="2.57011">
        <ele>702.86</ele>
        <time>2021-08-16T05:31:13Z</time>
      </trkpt>
      <trkpt lat="44.95067" lon="2.57003">
        <ele>704.3</ele>
        <time>2021-08-16T05:31:22Z</time>
      </trkpt>
      <trkpt lat="44.95067" lon="2.57001">
        <ele>704.78</ele>
        <time>2021-08-16T05:31:31Z</time>
      </trkpt>
      <trkpt lat="44.95067" lon="2.56995">
        <ele>705.75</ele>
        <time>2021-08-16T05:31:38Z</time>
      </trkpt>
      <trkpt lat="44.95067" lon="2.56986">
        <ele>707.67</ele>
        <time>2021-08-16T05:31:48Z</time>
      </trkpt>
      <trkpt lat="44.95066" lon="2.56975">
        <ele>709.11</ele>
        <time>2021-08-16T05:32:00Z</time>
      </trkpt>
      <trkpt lat="44.95065" lon="2.56966">
        <ele>711.03</ele>
        <time>2021-08-16T05:32:10Z</time>
      </trkpt>
      <trkpt lat="44.95063" lon="2.56959">
        <ele>711.99</ele>
        <time>2021-08-16T05:32:19Z</time>
      </trkpt>
      <trkpt lat="44.95063" lon="2.56958">
        <ele>712.47</ele>
        <time>2021-08-16T05:32:20Z</time>
      </trkpt>
      <trkpt lat="44.95062" lon="2.56949">
        <ele>713.44</ele>
        <time>2021-08-16T05:32:28Z</time>
      </trkpt>
      <trkpt lat="44.95063" lon="2.56937">
        <ele>714.88</ele>
        <time>2021-08-16T05:32:39Z</time>
      </trkpt>
      <trkpt lat="44.95063" lon="2.56929">
        <ele>715.36</ele>
        <time>2021-08-16T05:32:47Z</time>
      </trkpt>
      <trkpt lat="44.95063" lon="2.56922">
        <ele>716.32</ele>
        <time>2021-08-16T05:32:53Z</time>
      </trkpt>
      <trkpt lat="44.95062" lon="2.56921">
        <ele>716.32</ele>
        <time>2021-08-16T05:32:54Z</time>
      </trkpt>
      <trkpt lat="44.95062" lon="2.5692">
        <ele>716.32</ele>
        <time>2021-08-16T05:32:55Z</time>
      </trkpt>
      <trkpt lat="44.95063" lon="2.56911">
        <ele>717.76</ele>
        <time>2021-08-16T05:33:01Z</time>
      </trkpt>
      <trkpt lat="44.95063" lon="2.56909">
        <ele>718.24</ele>
        <time>2021-08-16T05:33:02Z</time>
      </trkpt>
      <trkpt lat="44.95063" lon="2.56907">
        <ele>718.24</ele>
        <time>2021-08-16T05:33:03Z</time>
      </trkpt>
      <trkpt lat="44.95063" lon="2.56905">
        <ele>718.72</ele>
        <time>2021-08-16T05:33:04Z</time>
      </trkpt>
      <trkpt lat="44.95063" lon="2.56903">
        <ele>718.72</ele>
        <time>2021-08-16T05:33:05Z</time>
      </trkpt>
      <trkpt lat="44.95063" lon="2.56902">
        <ele>719.2</ele>
        <time>2021-08-16T05:33:06Z</time>
      </trkpt>
      <trkpt lat="44.95063" lon="2.569">
        <ele>719.68</ele>
        <time>2021-08-16T05:33:07Z</time>
      </trkpt>
      <trkpt lat="44.95063" lon="2.56898">
        <ele>719.68</ele>
        <time>2021-08-16T05:33:08Z</time>
      </trkpt>
      <trkpt lat="44.95063" lon="2.56896">
        <ele>719.68</ele>
        <time>2021-08-16T05:33:09Z</time>
      </trkpt>
      <trkpt lat="44.95064" lon="2.56891">
        <ele>720.65</ele>
        <time>2021-08-16T05:33:13Z</time>
      </trkpt>
      <trkpt lat="44.95066" lon="2.56884">
        <ele>721.61</ele>
        <time>2021-08-16T05:33:18Z</time>
      </trkpt>
      <trkpt lat="44.95075" lon="2.56877">
        <ele>722.57</ele>
        <time>2021-08-16T05:33:27Z</time>
      </trkpt>
      <trkpt lat="44.95083" lon="2.5687">
        <ele>723.05</ele>
        <time>2021-08-16T05:33:34Z</time>
      </trkpt>
      <trkpt lat="44.95084" lon="2.56868">
        <ele>723.05</ele>
        <time>2021-08-16T05:33:35Z</time>
      </trkpt>
      <trkpt lat="44.95085" lon="2.56867">
        <ele>723.53</ele>
        <time>2021-08-16T05:33:36Z</time>
      </trkpt>
      <trkpt lat="44.95086" lon="2.56867">
        <ele>723.53</ele>
        <time>2021-08-16T05:33:37Z</time>
      </trkpt>
      <trkpt lat="44.95087" lon="2.56866">
        <ele>723.53</ele>
        <time>2021-08-16T05:33:38Z</time>
      </trkpt>
      <trkpt lat="44.95088" lon="2.56865">
        <ele>723.53</ele>
        <time>2021-08-16T05:33:39Z</time>
      </trkpt>
      <trkpt lat="44.9509" lon="2.56865">
        <ele>723.53</ele>
        <time>2021-08-16T05:33:40Z</time>
      </trkpt>
      <trkpt lat="44.95091" lon="2.56864">
        <ele>724.01</ele>
        <time>2021-08-16T05:33:41Z</time>
      </trkpt>
      <trkpt lat="44.95092" lon="2.56863">
        <ele>724.01</ele>
        <time>2021-08-16T05:33:42Z</time>
      </trkpt>
      <trkpt lat="44.951" lon="2.56856">
        <ele>724.97</ele>
        <time>2021-08-16T05:33:50Z</time>
      </trkpt>
      <trkpt lat="44.95108" lon="2.56849">
        <ele>726.41</ele>
        <time>2021-08-16T05:33:58Z</time>
      </trkpt>
      <trkpt lat="44.95117" lon="2.56842">
        <ele>727.37</ele>
        <time>2021-08-16T05:34:06Z</time>
      </trkpt>
      <trkpt lat="44.9512" lon="2.56839">
        <ele>727.86</ele>
        <time>2021-08-16T05:34:09Z</time>
      </trkpt>
      <trkpt lat="44.9512" lon="2.56837">
        <ele>728.34</ele>
        <time>2021-08-16T05:34:10Z</time>
      </trkpt>
      <trkpt lat="44.95121" lon="2.56836">
        <ele>728.34</ele>
        <time>2021-08-16T05:34:11Z</time>
      </trkpt>
      <trkpt lat="44.95122" lon="2.56835">
        <ele>728.34</ele>
        <time>2021-08-16T05:34:12Z</time>
      </trkpt>
      <trkpt lat="44.95123" lon="2.56834">
        <ele>728.34</ele>
        <time>2021-08-16T05:34:13Z</time>
      </trkpt>
      <trkpt lat="44.95127" lon="2.56821">
        <ele>730.26</ele>
        <time>2021-08-16T05:34:23Z</time>
      </trkpt>
      <trkpt lat="44.95126" lon="2.56808">
        <ele>731.7</ele>
        <time>2021-08-16T05:34:32Z</time>
      </trkpt>
      <trkpt lat="44.95123" lon="2.56802">
        <ele>733.14</ele>
        <time>2021-08-16T05:34:38Z</time>
      </trkpt>
      <trkpt lat="44.95122" lon="2.56801">
        <ele>733.14</ele>
        <time>2021-08-16T05:34:39Z</time>
      </trkpt>
      <trkpt lat="44.95121" lon="2.56801">
        <ele>733.14</ele>
        <time>2021-08-16T05:34:40Z</time>
      </trkpt>
      <trkpt lat="44.9512" lon="2.568">
        <ele>733.14</ele>
        <time>2021-08-16T05:34:41Z</time>
      </trkpt>
      <trkpt lat="44.95118" lon="2.568">
        <ele>733.14</ele>
        <time>2021-08-16T05:34:42Z</time>
      </trkpt>
      <trkpt lat="44.95117" lon="2.568">
        <ele>733.14</ele>
        <time>2021-08-16T05:34:43Z</time>
      </trkpt>
      <trkpt lat="44.95116" lon="2.568">
        <ele>734.1</ele>
        <time>2021-08-16T05:34:44Z</time>
      </trkpt>
      <trkpt lat="44.95115" lon="2.568">
        <ele>734.1</ele>
        <time>2021-08-16T05:34:45Z</time>
      </trkpt>
      <trkpt lat="44.95112" lon="2.56804">
        <ele>735.07</ele>
        <time>2021-08-16T05:34:50Z</time>
      </trkpt>
      <trkpt lat="44.95108" lon="2.56807">
        <ele>736.03</ele>
        <time>2021-08-16T05:34:56Z</time>
      </trkpt>
      <trkpt lat="44.95103" lon="2.56806">
        <ele>736.99</ele>
        <time>2021-08-16T05:35:01Z</time>
      </trkpt>
      <trkpt lat="44.95102" lon="2.56806">
        <ele>737.47</ele>
        <time>2021-08-16T05:35:02Z</time>
      </trkpt>
      <trkpt lat="44.95095" lon="2.56803">
        <ele>738.43</ele>
        <time>2021-08-16T05:35:10Z</time>
      </trkpt>
      <trkpt lat="44.95087" lon="2.56796">
        <ele>739.87</ele>
        <time>2021-08-16T05:35:18Z</time>
      </trkpt>
      <trkpt lat="44.95073" lon="2.56786">
        <ele>740.83</ele>
        <time>2021-08-16T05:35:29Z</time>
      </trkpt>
      <trkpt lat="44.95069" lon="2.56783">
        <ele>741.79</ele>
        <time>2021-08-16T05:35:33Z</time>
      </trkpt>
      <trkpt lat="44.95061" lon="2.56778">
        <ele>743.24</ele>
        <time>2021-08-16T05:35:41Z</time>
      </trkpt>
      <trkpt lat="44.95051" lon="2.56774">
        <ele>744.2</ele>
        <time>2021-08-16T05:35:50Z</time>
      </trkpt>
      <trkpt lat="44.95043" lon="2.56769">
        <ele>745.16</ele>
        <time>2021-08-16T05:35:57Z</time>
      </trkpt>
      <trkpt lat="44.95036" lon="2.56764">
        <ele>746.12</ele>
        <time>2021-08-16T05:36:04Z</time>
      </trkpt>
      <trkpt lat="44.95032" lon="2.56761">
        <ele>747.08</ele>
        <time>2021-08-16T05:36:08Z</time>
      </trkpt>
      <trkpt lat="44.95025" lon="2.56758">
        <ele>748.04</ele>
        <time>2021-08-16T05:36:16Z</time>
      </trkpt>
      <trkpt lat="44.95019" lon="2.56753">
        <ele>749</ele>
        <time>2021-08-16T05:36:23Z</time>
      </trkpt>
      <trkpt lat="44.95014" lon="2.56751">
        <ele>749.97</ele>
        <time>2021-08-16T05:36:30Z</time>
      </trkpt>
      <trkpt lat="44.95005" lon="2.56745">
        <ele>749.97</ele>
        <time>2021-08-16T05:36:44Z</time>
      </trkpt>
      <trkpt lat="44.95001" lon="2.56741">
        <ele>749.97</ele>
        <time>2021-08-16T05:36:57Z</time>
      </trkpt>
      <trkpt lat="44.95002" lon="2.56738">
        <ele>749.97</ele>
        <time>2021-08-16T05:37:05Z</time>
      </trkpt>
      <trkpt lat="44.95003" lon="2.56734">
        <ele>750.45</ele>
        <time>2021-08-16T05:37:12Z</time>
      </trkpt>
      <trkpt lat="44.95005" lon="2.5673">
        <ele>751.41</ele>
        <time>2021-08-16T05:37:16Z</time>
      </trkpt>
      <trkpt lat="44.95008" lon="2.56721">
        <ele>752.85</ele>
        <time>2021-08-16T05:37:23Z</time>
      </trkpt>
      <trkpt lat="44.95008" lon="2.5672">
        <ele>752.85</ele>
        <time>2021-08-16T05:37:24Z</time>
      </trkpt>
      <trkpt lat="44.95008" lon="2.56716">
        <ele>753.33</ele>
        <time>2021-08-16T05:37:26Z</time>
      </trkpt>
      <trkpt lat="44.95012" lon="2.56702">
        <ele>754.29</ele>
        <time>2021-08-16T05:37:33Z</time>
      </trkpt>
      <trkpt lat="44.95012" lon="2.56698">
        <ele>755.25</ele>
        <time>2021-08-16T05:37:36Z</time>
      </trkpt>
      <trkpt lat="44.95013" lon="2.56695">
        <ele>755.25</ele>
        <time>2021-08-16T05:37:37Z</time>
      </trkpt>
      <trkpt lat="44.95012" lon="2.56693">
        <ele>755.25</ele>
        <time>2021-08-16T05:37:38Z</time>
      </trkpt>
      <trkpt lat="44.95012" lon="2.5668">
        <ele>756.21</ele>
        <time>2021-08-16T05:37:45Z</time>
      </trkpt>
      <trkpt lat="44.95014" lon="2.56665">
        <ele>757.18</ele>
        <time>2021-08-16T05:37:53Z</time>
      </trkpt>
      <trkpt lat="44.95015" lon="2.56656">
        <ele>758.14</ele>
        <time>2021-08-16T05:37:58Z</time>
      </trkpt>
      <trkpt lat="44.95015" lon="2.56652">
        <ele>758.62</ele>
        <time>2021-08-16T05:38:01Z</time>
      </trkpt>
      <trkpt lat="44.95017" lon="2.56635">
        <ele>760.06</ele>
        <time>2021-08-16T05:38:10Z</time>
      </trkpt>
      <trkpt lat="44.95019" lon="2.56625">
        <ele>761.02</ele>
        <time>2021-08-16T05:38:17Z</time>
      </trkpt>
      <trkpt lat="44.95021" lon="2.56619">
        <ele>761.5</ele>
        <time>2021-08-16T05:38:22Z</time>
      </trkpt>
      <trkpt lat="44.95021" lon="2.56617">
        <ele>761.98</ele>
        <time>2021-08-16T05:38:23Z</time>
      </trkpt>
      <trkpt lat="44.95025" lon="2.5661">
        <ele>762.94</ele>
        <time>2021-08-16T05:38:29Z</time>
      </trkpt>
      <trkpt lat="44.95031" lon="2.56597">
        <ele>764.87</ele>
        <time>2021-08-16T05:38:39Z</time>
      </trkpt>
      <trkpt lat="44.95036" lon="2.56589">
        <ele>766.79</ele>
        <time>2021-08-16T05:38:48Z</time>
      </trkpt>
      <trkpt lat="44.95041" lon="2.56581">
        <ele>767.75</ele>
        <time>2021-08-16T05:38:56Z</time>
      </trkpt>
      <trkpt lat="44.95046" lon="2.56574">
        <ele>769.19</ele>
        <time>2021-08-16T05:39:03Z</time>
      </trkpt>
      <trkpt lat="44.95053" lon="2.56563">
        <ele>770.63</ele>
        <time>2021-08-16T05:39:12Z</time>
      </trkpt>
      <trkpt lat="44.95058" lon="2.56553">
        <ele>771.6</ele>
        <time>2021-08-16T05:39:20Z</time>
      </trkpt>
      <trkpt lat="44.95061" lon="2.56545">
        <ele>773.04</ele>
        <time>2021-08-16T05:39:29Z</time>
      </trkpt>
      <trkpt lat="44.95065" lon="2.56536">
        <ele>774.48</ele>
        <time>2021-08-16T05:39:37Z</time>
      </trkpt>
      <trkpt lat="44.95069" lon="2.56525">
        <ele>775.44</ele>
        <time>2021-08-16T05:39:45Z</time>
      </trkpt>
      <trkpt lat="44.95071" lon="2.56513">
        <ele>776.4</ele>
        <time>2021-08-16T05:39:54Z</time>
      </trkpt>
      <trkpt lat="44.95073" lon="2.56505">
        <ele>776.4</ele>
        <time>2021-08-16T05:40:02Z</time>
      </trkpt>
      <trkpt lat="44.95076" lon="2.56488">
        <ele>777.84</ele>
        <time>2021-08-16T05:40:10Z</time>
      </trkpt>
      <trkpt lat="44.95079" lon="2.56474">
        <ele>778.32</ele>
        <time>2021-08-16T05:40:16Z</time>
      </trkpt>
      <trkpt lat="44.95079" lon="2.56463">
        <ele>779.77</ele>
        <time>2021-08-16T05:40:21Z</time>
      </trkpt>
      <trkpt lat="44.95079" lon="2.5646">
        <ele>779.77</ele>
        <time>2021-08-16T05:40:22Z</time>
      </trkpt>
      <trkpt lat="44.95079" lon="2.56457">
        <ele>779.77</ele>
        <time>2021-08-16T05:40:23Z</time>
      </trkpt>
      <trkpt lat="44.95078" lon="2.56455">
        <ele>780.25</ele>
        <time>2021-08-16T05:40:24Z</time>
      </trkpt>
      <trkpt lat="44.95078" lon="2.56452">
        <ele>780.25</ele>
        <time>2021-08-16T05:40:25Z</time>
      </trkpt>
      <trkpt lat="44.95077" lon="2.5645">
        <ele>780.25</ele>
        <time>2021-08-16T05:40:26Z</time>
      </trkpt>
      <trkpt lat="44.95076" lon="2.56447">
        <ele>780.73</ele>
        <time>2021-08-16T05:40:27Z</time>
      </trkpt>
      <trkpt lat="44.95076" lon="2.56444">
        <ele>780.73</ele>
        <time>2021-08-16T05:40:28Z</time>
      </trkpt>
      <trkpt lat="44.95071" lon="2.56424">
        <ele>782.17</ele>
        <time>2021-08-16T05:40:35Z</time>
      </trkpt>
      <trkpt lat="44.95068" lon="2.56398">
        <ele>784.09</ele>
        <time>2021-08-16T05:40:45Z</time>
      </trkpt>
      <trkpt lat="44.95065" lon="2.56374">
        <ele>785.53</ele>
        <time>2021-08-16T05:40:55Z</time>
      </trkpt>
      <trkpt lat="44.95062" lon="2.5636">
        <ele>788.42</ele>
        <time>2021-08-16T05:41:00Z</time>
      </trkpt>
      <trkpt lat="44.95055" lon="2.56339">
        <ele>785.53</ele>
        <time>2021-08-16T05:41:07Z</time>
      </trkpt>
      <trkpt lat="44.95049" lon="2.56313">
        <ele>784.09</ele>
        <time>2021-08-16T05:41:13Z</time>
      </trkpt>
      <trkpt lat="44.95047" lon="2.56301">
        <ele>784.09</ele>
        <time>2021-08-16T05:41:15Z</time>
      </trkpt>
      <trkpt lat="44.9504" lon="2.56275">
        <ele>783.13</ele>
        <time>2021-08-16T05:41:19Z</time>
      </trkpt>
      <trkpt lat="44.95038" lon="2.56268">
        <ele>783.13</ele>
        <time>2021-08-16T05:41:20Z</time>
      </trkpt>
      <trkpt lat="44.95029" lon="2.56232">
        <ele>781.69</ele>
        <time>2021-08-16T05:41:27Z</time>
      </trkpt>
      <trkpt lat="44.95028" lon="2.56226">
        <ele>781.69</ele>
        <time>2021-08-16T05:41:28Z</time>
      </trkpt>
      <trkpt lat="44.95011" lon="2.56184">
        <ele>778.81</ele>
        <time>2021-08-16T05:41:34Z</time>
      </trkpt>
      <trkpt lat="44.95002" lon="2.56158">
        <ele>778.32</ele>
        <time>2021-08-16T05:41:39Z</time>
      </trkpt>
      <trkpt lat="44.95003" lon="2.56156">
        <ele>778.32</ele>
        <time>2021-08-16T05:41:40Z</time>
      </trkpt>
      <trkpt lat="44.95004" lon="2.56154">
        <ele>778.32</ele>
        <time>2021-08-16T05:41:41Z</time>
      </trkpt>
      <trkpt lat="44.95019" lon="2.56138">
        <ele>779.77</ele>
        <time>2021-08-16T05:41:50Z</time>
      </trkpt>
      <trkpt lat="44.95022" lon="2.56133">
        <ele>780.25</ele>
        <time>2021-08-16T05:41:52Z</time>
      </trkpt>
      <trkpt lat="44.95023" lon="2.56129">
        <ele>780.25</ele>
        <time>2021-08-16T05:41:53Z</time>
      </trkpt>
      <trkpt lat="44.95023" lon="2.56125">
        <ele>780.25</ele>
        <time>2021-08-16T05:41:54Z</time>
      </trkpt>
      <trkpt lat="44.95022" lon="2.56121">
        <ele>780.25</ele>
        <time>2021-08-16T05:41:55Z</time>
      </trkpt>
      <trkpt lat="44.95021" lon="2.56116">
        <ele>780.25</ele>
        <time>2021-08-16T05:41:56Z</time>
      </trkpt>
      <trkpt lat="44.9502" lon="2.5611">
        <ele>780.25</ele>
        <time>2021-08-16T05:41:57Z</time>
      </trkpt>
      <trkpt lat="44.95018" lon="2.56104">
        <ele>780.25</ele>
        <time>2021-08-16T05:41:58Z</time>
      </trkpt>
      <trkpt lat="44.95004" lon="2.56048">
        <ele>780.25</ele>
        <time>2021-08-16T05:42:07Z</time>
      </trkpt>
      <trkpt lat="44.94995" lon="2.56002">
        <ele>780.25</ele>
        <time>2021-08-16T05:42:15Z</time>
      </trkpt>
      <trkpt lat="44.94982" lon="2.55953">
        <ele>780.73</ele>
        <time>2021-08-16T05:42:25Z</time>
      </trkpt>
      <trkpt lat="44.94976" lon="2.55921">
        <ele>781.69</ele>
        <time>2021-08-16T05:42:33Z</time>
      </trkpt>
      <trkpt lat="44.94972" lon="2.55907">
        <ele>782.17</ele>
        <time>2021-08-16T05:42:37Z</time>
      </trkpt>
      <trkpt lat="44.9497" lon="2.55903">
        <ele>782.65</ele>
        <time>2021-08-16T05:42:38Z</time>
      </trkpt>
      <trkpt lat="44.94969" lon="2.559">
        <ele>782.65</ele>
        <time>2021-08-16T05:42:39Z</time>
      </trkpt>
      <trkpt lat="44.94963" lon="2.55874">
        <ele>783.61</ele>
        <time>2021-08-16T05:42:48Z</time>
      </trkpt>
      <trkpt lat="44.94956" lon="2.55848">
        <ele>785.05</ele>
        <time>2021-08-16T05:42:57Z</time>
      </trkpt>
      <trkpt lat="44.9495" lon="2.55826">
        <ele>785.05</ele>
        <time>2021-08-16T05:43:03Z</time>
      </trkpt>
      <trkpt lat="44.94942" lon="2.55802">
        <ele>786.02</ele>
        <time>2021-08-16T05:43:10Z</time>
      </trkpt>
      <trkpt lat="44.94936" lon="2.5578">
        <ele>786.98</ele>
        <time>2021-08-16T05:43:17Z</time>
      </trkpt>
      <trkpt lat="44.94928" lon="2.55755">
        <ele>787.94</ele>
        <time>2021-08-16T05:43:26Z</time>
      </trkpt>
      <trkpt lat="44.94921" lon="2.55737">
        <ele>788.9</ele>
        <time>2021-08-16T05:43:34Z</time>
      </trkpt>
      <trkpt lat="44.94914" lon="2.5572">
        <ele>790.34</ele>
        <time>2021-08-16T05:43:43Z</time>
      </trkpt>
      <trkpt lat="44.94904" lon="2.55702">
        <ele>791.78</ele>
        <time>2021-08-16T05:43:51Z</time>
      </trkpt>
      <trkpt lat="44.94903" lon="2.557">
        <ele>791.78</ele>
        <time>2021-08-16T05:43:52Z</time>
      </trkpt>
      <trkpt lat="44.94902" lon="2.55698">
        <ele>792.26</ele>
        <time>2021-08-16T05:43:53Z</time>
      </trkpt>
      <trkpt lat="44.94901" lon="2.55695">
        <ele>792.26</ele>
        <time>2021-08-16T05:43:54Z</time>
      </trkpt>
      <trkpt lat="44.949" lon="2.55693">
        <ele>792.74</ele>
        <time>2021-08-16T05:43:55Z</time>
      </trkpt>
      <trkpt lat="44.94899" lon="2.55691">
        <ele>792.74</ele>
        <time>2021-08-16T05:43:56Z</time>
      </trkpt>
      <trkpt lat="44.94899" lon="2.5569">
        <ele>792.74</ele>
        <time>2021-08-16T05:43:57Z</time>
      </trkpt>
      <trkpt lat="44.94898" lon="2.55688">
        <ele>793.22</ele>
        <time>2021-08-16T05:43:58Z</time>
      </trkpt>
      <trkpt lat="44.94897" lon="2.55687">
        <ele>793.22</ele>
        <time>2021-08-16T05:43:59Z</time>
      </trkpt>
      <trkpt lat="44.94893" lon="2.55677">
        <ele>794.19</ele>
        <time>2021-08-16T05:44:07Z</time>
      </trkpt>
      <trkpt lat="44.94888" lon="2.55667">
        <ele>795.15</ele>
        <time>2021-08-16T05:44:14Z</time>
      </trkpt>
      <trkpt lat="44.94882" lon="2.55655">
        <ele>796.11</ele>
        <time>2021-08-16T05:44:22Z</time>
      </trkpt>
      <trkpt lat="44.94881" lon="2.55653">
        <ele>796.59</ele>
        <time>2021-08-16T05:44:23Z</time>
      </trkpt>
      <trkpt lat="44.9488" lon="2.55652">
        <ele>796.59</ele>
        <time>2021-08-16T05:44:24Z</time>
      </trkpt>
      <trkpt lat="44.94872" lon="2.55644">
        <ele>798.51</ele>
        <time>2021-08-16T05:44:32Z</time>
      </trkpt>
      <trkpt lat="44.94862" lon="2.55628">
        <ele>798.99</ele>
        <time>2021-08-16T05:44:39Z</time>
      </trkpt>
      <trkpt lat="44.94852" lon="2.55615">
        <ele>799.95</ele>
        <time>2021-08-16T05:44:47Z</time>
      </trkpt>
      <trkpt lat="44.94844" lon="2.55604">
        <ele>800.92</ele>
        <time>2021-08-16T05:44:53Z</time>
      </trkpt>
      <trkpt lat="44.94837" lon="2.55592">
        <ele>801.88</ele>
        <time>2021-08-16T05:45:00Z</time>
      </trkpt>
      <trkpt lat="44.94826" lon="2.55571">
        <ele>802.84</ele>
        <time>2021-08-16T05:45:08Z</time>
      </trkpt>
      <trkpt lat="44.94819" lon="2.55557">
        <ele>804.28</ele>
        <time>2021-08-16T05:45:16Z</time>
      </trkpt>
      <trkpt lat="44.94811" lon="2.55539">
        <ele>805.72</ele>
        <time>2021-08-16T05:45:24Z</time>
      </trkpt>
      <trkpt lat="44.94805" lon="2.55525">
        <ele>806.68</ele>
        <time>2021-08-16T05:45:32Z</time>
      </trkpt>
      <trkpt lat="44.94799" lon="2.55516">
        <ele>807.16</ele>
        <time>2021-08-16T05:45:39Z</time>
      </trkpt>
      <trkpt lat="44.94789" lon="2.55501">
        <ele>808.13</ele>
        <time>2021-08-16T05:45:47Z</time>
      </trkpt>
      <trkpt lat="44.94782" lon="2.55479">
        <ele>809.09</ele>
        <time>2021-08-16T05:45:54Z</time>
      </trkpt>
      <trkpt lat="44.94775" lon="2.55461">
        <ele>810.05</ele>
        <time>2021-08-16T05:46:01Z</time>
      </trkpt>
      <trkpt lat="44.94768" lon="2.55448">
        <ele>811.01</ele>
        <time>2021-08-16T05:46:07Z</time>
      </trkpt>
      <trkpt lat="44.94767" lon="2.55443">
        <ele>811.01</ele>
        <time>2021-08-16T05:46:09Z</time>
      </trkpt>
      <trkpt lat="44.94767" lon="2.55441">
        <ele>811.97</ele>
        <time>2021-08-16T05:46:10Z</time>
      </trkpt>
      <trkpt lat="44.94766" lon="2.55439">
        <ele>811.97</ele>
        <time>2021-08-16T05:46:11Z</time>
      </trkpt>
      <trkpt lat="44.94763" lon="2.55417">
        <ele>813.41</ele>
        <time>2021-08-16T05:46:19Z</time>
      </trkpt>
      <trkpt lat="44.94758" lon="2.55401">
        <ele>813.89</ele>
        <time>2021-08-16T05:46:25Z</time>
      </trkpt>
      <trkpt lat="44.94757" lon="2.55399">
        <ele>814.37</ele>
        <time>2021-08-16T05:46:26Z</time>
      </trkpt>
      <trkpt lat="44.94757" lon="2.55397">
        <ele>814.37</ele>
        <time>2021-08-16T05:46:27Z</time>
      </trkpt>
      <trkpt lat="44.94756" lon="2.55395">
        <ele>814.85</ele>
        <time>2021-08-16T05:46:28Z</time>
      </trkpt>
      <trkpt lat="44.94755" lon="2.55393">
        <ele>814.85</ele>
        <time>2021-08-16T05:46:29Z</time>
      </trkpt>
      <trkpt lat="44.94755" lon="2.5539">
        <ele>815.34</ele>
        <time>2021-08-16T05:46:30Z</time>
      </trkpt>
      <trkpt lat="44.94754" lon="2.55389">
        <ele>815.34</ele>
        <time>2021-08-16T05:46:31Z</time>
      </trkpt>
      <trkpt lat="44.94752" lon="2.55387">
        <ele>815.34</ele>
        <time>2021-08-16T05:46:32Z</time>
      </trkpt>
      <trkpt lat="44.94746" lon="2.55381">
        <ele>816.3</ele>
        <time>2021-08-16T05:46:38Z</time>
      </trkpt>
      <trkpt lat="44.94745" lon="2.5538">
        <ele>816.3</ele>
        <time>2021-08-16T05:46:39Z</time>
      </trkpt>
      <trkpt lat="44.94744" lon="2.55379">
        <ele>816.3</ele>
        <time>2021-08-16T05:46:40Z</time>
      </trkpt>
      <trkpt lat="44.94733" lon="2.55366">
        <ele>817.26</ele>
        <time>2021-08-16T05:46:48Z</time>
      </trkpt>
      <trkpt lat="44.94725" lon="2.55346">
        <ele>818.7</ele>
        <time>2021-08-16T05:46:56Z</time>
      </trkpt>
      <trkpt lat="44.94723" lon="2.55335">
        <ele>818.7</ele>
        <time>2021-08-16T05:47:00Z</time>
      </trkpt>
      <trkpt lat="44.94723" lon="2.55332">
        <ele>819.18</ele>
        <time>2021-08-16T05:47:01Z</time>
      </trkpt>
      <trkpt lat="44.94722" lon="2.5533">
        <ele>819.18</ele>
        <time>2021-08-16T05:47:02Z</time>
      </trkpt>
      <trkpt lat="44.94722" lon="2.55327">
        <ele>819.18</ele>
        <time>2021-08-16T05:47:03Z</time>
      </trkpt>
      <trkpt lat="44.94721" lon="2.55325">
        <ele>819.18</ele>
        <time>2021-08-16T05:47:04Z</time>
      </trkpt>
      <trkpt lat="44.9472" lon="2.55323">
        <ele>819.66</ele>
        <time>2021-08-16T05:47:05Z</time>
      </trkpt>
      <trkpt lat="44.94719" lon="2.5532">
        <ele>819.66</ele>
        <time>2021-08-16T05:47:06Z</time>
      </trkpt>
      <trkpt lat="44.94718" lon="2.55318">
        <ele>819.66</ele>
        <time>2021-08-16T05:47:07Z</time>
      </trkpt>
      <trkpt lat="44.94716" lon="2.55315">
        <ele>819.66</ele>
        <time>2021-08-16T05:47:08Z</time>
      </trkpt>
      <trkpt lat="44.94705" lon="2.55297">
        <ele>820.62</ele>
        <time>2021-08-16T05:47:15Z</time>
      </trkpt>
      <trkpt lat="44.94696" lon="2.55276">
        <ele>821.1</ele>
        <time>2021-08-16T05:47:22Z</time>
      </trkpt>
      <trkpt lat="44.94691" lon="2.55258">
        <ele>822.55</ele>
        <time>2021-08-16T05:47:28Z</time>
      </trkpt>
      <trkpt lat="44.94691" lon="2.55254">
        <ele>822.55</ele>
        <time>2021-08-16T05:47:30Z</time>
      </trkpt>
      <trkpt lat="44.94689" lon="2.55251">
        <ele>823.03</ele>
        <time>2021-08-16T05:47:32Z</time>
      </trkpt>
      <trkpt lat="44.94688" lon="2.55248">
        <ele>823.03</ele>
        <time>2021-08-16T05:47:33Z</time>
      </trkpt>
      <trkpt lat="44.94686" lon="2.55245">
        <ele>823.03</ele>
        <time>2021-08-16T05:47:34Z</time>
      </trkpt>
      <trkpt lat="44.94684" lon="2.5524">
        <ele>823.51</ele>
        <time>2021-08-16T05:47:36Z</time>
      </trkpt>
      <trkpt lat="44.94681" lon="2.55234">
        <ele>823.51</ele>
        <time>2021-08-16T05:47:38Z</time>
      </trkpt>
      <trkpt lat="44.9468" lon="2.55232">
        <ele>823.51</ele>
        <time>2021-08-16T05:47:39Z</time>
      </trkpt>
      <trkpt lat="44.9467" lon="2.55213">
        <ele>824.95</ele>
        <time>2021-08-16T05:47:47Z</time>
      </trkpt>
      <trkpt lat="44.9466" lon="2.5519">
        <ele>826.39</ele>
        <time>2021-08-16T05:47:55Z</time>
      </trkpt>
      <trkpt lat="44.94653" lon="2.55172">
        <ele>827.35</ele>
        <time>2021-08-16T05:48:03Z</time>
      </trkpt>
      <trkpt lat="44.94652" lon="2.55167">
        <ele>827.83</ele>
        <time>2021-08-16T05:48:06Z</time>
      </trkpt>
      <trkpt lat="44.94651" lon="2.55164">
        <ele>827.83</ele>
        <time>2021-08-16T05:48:07Z</time>
      </trkpt>
      <trkpt lat="44.94651" lon="2.55162">
        <ele>827.83</ele>
        <time>2021-08-16T05:48:08Z</time>
      </trkpt>
      <trkpt lat="44.9465" lon="2.55159">
        <ele>827.83</ele>
        <time>2021-08-16T05:48:09Z</time>
      </trkpt>
      <trkpt lat="44.94649" lon="2.55157">
        <ele>827.83</ele>
        <time>2021-08-16T05:48:10Z</time>
      </trkpt>
      <trkpt lat="44.94649" lon="2.55155">
        <ele>827.83</ele>
        <time>2021-08-16T05:48:11Z</time>
      </trkpt>
      <trkpt lat="44.94648" lon="2.55153">
        <ele>827.83</ele>
        <time>2021-08-16T05:48:12Z</time>
      </trkpt>
      <trkpt lat="44.94648" lon="2.55151">
        <ele>828.79</ele>
        <time>2021-08-16T05:48:13Z</time>
      </trkpt>
      <trkpt lat="44.94647" lon="2.55149">
        <ele>828.79</ele>
        <time>2021-08-16T05:48:14Z</time>
      </trkpt>
      <trkpt lat="44.94646" lon="2.55148">
        <ele>828.79</ele>
        <time>2021-08-16T05:48:15Z</time>
      </trkpt>
      <trkpt lat="44.94646" lon="2.55146">
        <ele>829.27</ele>
        <time>2021-08-16T05:48:16Z</time>
      </trkpt>
      <trkpt lat="44.94645" lon="2.55144">
        <ele>829.27</ele>
        <time>2021-08-16T05:48:17Z</time>
      </trkpt>
      <trkpt lat="44.94644" lon="2.55142">
        <ele>829.27</ele>
        <time>2021-08-16T05:48:18Z</time>
      </trkpt>
      <trkpt lat="44.94644" lon="2.5514">
        <ele>829.76</ele>
        <time>2021-08-16T05:48:19Z</time>
      </trkpt>
      <trkpt lat="44.94643" lon="2.55137">
        <ele>829.76</ele>
        <time>2021-08-16T05:48:20Z</time>
      </trkpt>
      <trkpt lat="44.94642" lon="2.55135">
        <ele>829.76</ele>
        <time>2021-08-16T05:48:21Z</time>
      </trkpt>
      <trkpt lat="44.94638" lon="2.55115">
        <ele>830.72</ele>
        <time>2021-08-16T05:48:29Z</time>
      </trkpt>
      <trkpt lat="44.94635" lon="2.55098">
        <ele>831.68</ele>
        <time>2021-08-16T05:48:36Z</time>
      </trkpt>
      <trkpt lat="44.94634" lon="2.55079">
        <ele>833.12</ele>
        <time>2021-08-16T05:48:44Z</time>
      </trkpt>
      <trkpt lat="44.94633" lon="2.55075">
        <ele>833.6</ele>
        <time>2021-08-16T05:48:46Z</time>
      </trkpt>
      <trkpt lat="44.9463" lon="2.5507">
        <ele>834.08</ele>
        <time>2021-08-16T05:48:49Z</time>
      </trkpt>
      <trkpt lat="44.94628" lon="2.55069">
        <ele>834.08</ele>
        <time>2021-08-16T05:48:50Z</time>
      </trkpt>
      <trkpt lat="44.94627" lon="2.55067">
        <ele>834.08</ele>
        <time>2021-08-16T05:48:51Z</time>
      </trkpt>
      <trkpt lat="44.94621" lon="2.5505">
        <ele>835.04</ele>
        <time>2021-08-16T05:48:59Z</time>
      </trkpt>
      <trkpt lat="44.9462" lon="2.55048">
        <ele>835.04</ele>
        <time>2021-08-16T05:49:00Z</time>
      </trkpt>
      <trkpt lat="44.94615" lon="2.55036">
        <ele>836</ele>
        <time>2021-08-16T05:49:07Z</time>
      </trkpt>
      <trkpt lat="44.94612" lon="2.55029">
        <ele>836.48</ele>
        <time>2021-08-16T05:49:11Z</time>
      </trkpt>
      <trkpt lat="44.9461" lon="2.55027">
        <ele>836.96</ele>
        <time>2021-08-16T05:49:12Z</time>
      </trkpt>
      <trkpt lat="44.94609" lon="2.55026">
        <ele>836.96</ele>
        <time>2021-08-16T05:49:13Z</time>
      </trkpt>
      <trkpt lat="44.94608" lon="2.55024">
        <ele>836.96</ele>
        <time>2021-08-16T05:49:14Z</time>
      </trkpt>
      <trkpt lat="44.94607" lon="2.55023">
        <ele>837.45</ele>
        <time>2021-08-16T05:49:15Z</time>
      </trkpt>
      <trkpt lat="44.94606" lon="2.55021">
        <ele>837.45</ele>
        <time>2021-08-16T05:49:16Z</time>
      </trkpt>
      <trkpt lat="44.94605" lon="2.55019">
        <ele>837.45</ele>
        <time>2021-08-16T05:49:17Z</time>
      </trkpt>
      <trkpt lat="44.94604" lon="2.55017">
        <ele>837.93</ele>
        <time>2021-08-16T05:49:18Z</time>
      </trkpt>
      <trkpt lat="44.94603" lon="2.55015">
        <ele>837.93</ele>
        <time>2021-08-16T05:49:19Z</time>
      </trkpt>
      <trkpt lat="44.94598" lon="2.55004">
        <ele>838.89</ele>
        <time>2021-08-16T05:49:25Z</time>
      </trkpt>
      <trkpt lat="44.94592" lon="2.54988">
        <ele>839.85</ele>
        <time>2021-08-16T05:49:32Z</time>
      </trkpt>
      <trkpt lat="44.94586" lon="2.54972">
        <ele>841.77</ele>
        <time>2021-08-16T05:49:41Z</time>
      </trkpt>
      <trkpt lat="44.94578" lon="2.54959">
        <ele>842.73</ele>
        <time>2021-08-16T05:49:49Z</time>
      </trkpt>
      <trkpt lat="44.94572" lon="2.54949">
        <ele>843.69</ele>
        <time>2021-08-16T05:49:55Z</time>
      </trkpt>
      <trkpt lat="44.94566" lon="2.54938">
        <ele>844.66</ele>
        <time>2021-08-16T05:50:03Z</time>
      </trkpt>
      <trkpt lat="44.94558" lon="2.54923">
        <ele>846.1</ele>
        <time>2021-08-16T05:50:12Z</time>
      </trkpt>
      <trkpt lat="44.94548" lon="2.54905">
        <ele>848.02</ele>
        <time>2021-08-16T05:50:22Z</time>
      </trkpt>
      <trkpt lat="44.94541" lon="2.54893">
        <ele>848.98</ele>
        <time>2021-08-16T05:50:29Z</time>
      </trkpt>
      <trkpt lat="44.94534" lon="2.54883">
        <ele>849.94</ele>
        <time>2021-08-16T05:50:36Z</time>
      </trkpt>
      <trkpt lat="44.94531" lon="2.54878">
        <ele>850.42</ele>
        <time>2021-08-16T05:50:40Z</time>
      </trkpt>
      <trkpt lat="44.94524" lon="2.54872">
        <ele>851.38</ele>
        <time>2021-08-16T05:50:46Z</time>
      </trkpt>
      <trkpt lat="44.94523" lon="2.54871">
        <ele>851.87</ele>
        <time>2021-08-16T05:50:47Z</time>
      </trkpt>
      <trkpt lat="44.94522" lon="2.5487">
        <ele>851.87</ele>
        <time>2021-08-16T05:50:48Z</time>
      </trkpt>
      <trkpt lat="44.9452" lon="2.54869">
        <ele>851.87</ele>
        <time>2021-08-16T05:50:49Z</time>
      </trkpt>
      <trkpt lat="44.94519" lon="2.54868">
        <ele>851.87</ele>
        <time>2021-08-16T05:50:50Z</time>
      </trkpt>
      <trkpt lat="44.94518" lon="2.54867">
        <ele>851.87</ele>
        <time>2021-08-16T05:50:51Z</time>
      </trkpt>
      <trkpt lat="44.94516" lon="2.54866">
        <ele>852.35</ele>
        <time>2021-08-16T05:50:52Z</time>
      </trkpt>
      <trkpt lat="44.94509" lon="2.54859">
        <ele>853.31</ele>
        <time>2021-08-16T05:50:59Z</time>
      </trkpt>
      <trkpt lat="44.94497" lon="2.54853">
        <ele>854.27</ele>
        <time>2021-08-16T05:51:07Z</time>
      </trkpt>
      <trkpt lat="44.94486" lon="2.54845">
        <ele>855.23</ele>
        <time>2021-08-16T05:51:16Z</time>
      </trkpt>
      <trkpt lat="44.94485" lon="2.54844">
        <ele>855.23</ele>
        <time>2021-08-16T05:51:17Z</time>
      </trkpt>
      <trkpt lat="44.94483" lon="2.54843">
        <ele>855.23</ele>
        <time>2021-08-16T05:51:18Z</time>
      </trkpt>
      <trkpt lat="44.94482" lon="2.54842">
        <ele>855.71</ele>
        <time>2021-08-16T05:51:19Z</time>
      </trkpt>
      <trkpt lat="44.94481" lon="2.54841">
        <ele>855.71</ele>
        <time>2021-08-16T05:51:20Z</time>
      </trkpt>
      <trkpt lat="44.94469" lon="2.54833">
        <ele>857.63</ele>
        <time>2021-08-16T05:51:30Z</time>
      </trkpt>
      <trkpt lat="44.94463" lon="2.54826">
        <ele>859.08</ele>
        <time>2021-08-16T05:51:36Z</time>
      </trkpt>
      <trkpt lat="44.94455" lon="2.54818">
        <ele>860.04</ele>
        <time>2021-08-16T05:51:43Z</time>
      </trkpt>
      <trkpt lat="44.94448" lon="2.54812">
        <ele>861</ele>
        <time>2021-08-16T05:51:49Z</time>
      </trkpt>
      <trkpt lat="44.94435" lon="2.54792">
        <ele>862.44</ele>
        <time>2021-08-16T05:51:58Z</time>
      </trkpt>
      <trkpt lat="44.9443" lon="2.5478">
        <ele>862.92</ele>
        <time>2021-08-16T05:52:03Z</time>
      </trkpt>
      <trkpt lat="44.94429" lon="2.54778">
        <ele>863.4</ele>
        <time>2021-08-16T05:52:04Z</time>
      </trkpt>
      <trkpt lat="44.94429" lon="2.54775">
        <ele>863.4</ele>
        <time>2021-08-16T05:52:05Z</time>
      </trkpt>
      <trkpt lat="44.94425" lon="2.54755">
        <ele>864.36</ele>
        <time>2021-08-16T05:52:13Z</time>
      </trkpt>
      <trkpt lat="44.94425" lon="2.54753">
        <ele>864.36</ele>
        <time>2021-08-16T05:52:14Z</time>
      </trkpt>
      <trkpt lat="44.94425" lon="2.5475">
        <ele>864.36</ele>
        <time>2021-08-16T05:52:15Z</time>
      </trkpt>
      <trkpt lat="44.94425" lon="2.54729">
        <ele>865.32</ele>
        <time>2021-08-16T05:52:24Z</time>
      </trkpt>
      <trkpt lat="44.94429" lon="2.54714">
        <ele>867.25</ele>
        <time>2021-08-16T05:52:32Z</time>
      </trkpt>
      <trkpt lat="44.94428" lon="2.54707">
        <ele>867.73</ele>
        <time>2021-08-16T05:52:37Z</time>
      </trkpt>
      <trkpt lat="44.94431" lon="2.547">
        <ele>868.69</ele>
        <time>2021-08-16T05:52:43Z</time>
      </trkpt>
      <trkpt lat="44.94431" lon="2.54698">
        <ele>869.17</ele>
        <time>2021-08-16T05:52:44Z</time>
      </trkpt>
      <trkpt lat="44.94432" lon="2.54696">
        <ele>869.17</ele>
        <time>2021-08-16T05:52:45Z</time>
      </trkpt>
      <trkpt lat="44.94437" lon="2.54688">
        <ele>871.09</ele>
        <time>2021-08-16T05:52:52Z</time>
      </trkpt>
      <trkpt lat="44.94447" lon="2.54672">
        <ele>869.65</ele>
        <time>2021-08-16T05:53:00Z</time>
      </trkpt>
      <trkpt lat="44.94459" lon="2.54663">
        <ele>868.21</ele>
        <time>2021-08-16T05:53:03Z</time>
      </trkpt>
      <trkpt lat="44.94466" lon="2.54659">
        <ele>867.25</ele>
        <time>2021-08-16T05:53:05Z</time>
      </trkpt>
      <trkpt lat="44.94487" lon="2.54643">
        <ele>865.32</ele>
        <time>2021-08-16T05:53:11Z</time>
      </trkpt>
      <trkpt lat="44.9449" lon="2.5464">
        <ele>864.36</ele>
        <time>2021-08-16T05:53:12Z</time>
      </trkpt>
      <trkpt lat="44.94519" lon="2.54621">
        <ele>862.44</ele>
        <time>2021-08-16T05:53:19Z</time>
      </trkpt>
      <trkpt lat="44.94541" lon="2.54604">
        <ele>860.04</ele>
        <time>2021-08-16T05:53:25Z</time>
      </trkpt>
      <trkpt lat="44.94554" lon="2.54595">
        <ele>858.59</ele>
        <time>2021-08-16T05:53:28Z</time>
      </trkpt>
      <trkpt lat="44.94579" lon="2.54577">
        <ele>855.71</ele>
        <time>2021-08-16T05:53:33Z</time>
      </trkpt>
      <trkpt lat="44.94584" lon="2.54572">
        <ele>855.71</ele>
        <time>2021-08-16T05:53:34Z</time>
      </trkpt>
      <trkpt lat="44.94588" lon="2.54567">
        <ele>854.75</ele>
        <time>2021-08-16T05:53:35Z</time>
      </trkpt>
      <trkpt lat="44.9461" lon="2.54541">
        <ele>853.31</ele>
        <time>2021-08-16T05:53:39Z</time>
      </trkpt>
      <trkpt lat="44.94616" lon="2.54536">
        <ele>853.31</ele>
        <time>2021-08-16T05:53:40Z</time>
      </trkpt>
      <trkpt lat="44.94633" lon="2.54524">
        <ele>852.35</ele>
        <time>2021-08-16T05:53:43Z</time>
      </trkpt>
      <trkpt lat="44.94646" lon="2.54511">
        <ele>853.31</ele>
        <time>2021-08-16T05:53:47Z</time>
      </trkpt>
      <trkpt lat="44.94648" lon="2.54501">
        <ele>853.79</ele>
        <time>2021-08-16T05:53:50Z</time>
      </trkpt>
      <trkpt lat="44.94647" lon="2.54498">
        <ele>853.79</ele>
        <time>2021-08-16T05:53:51Z</time>
      </trkpt>
      <trkpt lat="44.94641" lon="2.54493">
        <ele>851.87</ele>
        <time>2021-08-16T05:53:53Z</time>
      </trkpt>
      <trkpt lat="44.94627" lon="2.54481">
        <ele>848.98</ele>
        <time>2021-08-16T05:53:57Z</time>
      </trkpt>
      <trkpt lat="44.94615" lon="2.54476">
        <ele>848.5</ele>
        <time>2021-08-16T05:54:00Z</time>
      </trkpt>
      <trkpt lat="44.94611" lon="2.54476">
        <ele>847.54</ele>
        <time>2021-08-16T05:54:01Z</time>
      </trkpt>
      <trkpt lat="44.94601" lon="2.54475">
        <ele>847.06</ele>
        <time>2021-08-16T05:54:03Z</time>
      </trkpt>
      <trkpt lat="44.94595" lon="2.54474">
        <ele>846.58</ele>
        <time>2021-08-16T05:54:04Z</time>
      </trkpt>
      <trkpt lat="44.94589" lon="2.54472">
        <ele>846.1</ele>
        <time>2021-08-16T05:54:05Z</time>
      </trkpt>
      <trkpt lat="44.94563" lon="2.54459">
        <ele>842.73</ele>
        <time>2021-08-16T05:54:09Z</time>
      </trkpt>
      <trkpt lat="44.94523" lon="2.5443">
        <ele>839.85</ele>
        <time>2021-08-16T05:54:14Z</time>
      </trkpt>
      <trkpt lat="44.94517" lon="2.54423">
        <ele>839.37</ele>
        <time>2021-08-16T05:54:15Z</time>
      </trkpt>
      <trkpt lat="44.9451" lon="2.54414">
        <ele>839.37</ele>
        <time>2021-08-16T05:54:16Z</time>
      </trkpt>
      <trkpt lat="44.94505" lon="2.54405">
        <ele>839.37</ele>
        <time>2021-08-16T05:54:17Z</time>
      </trkpt>
      <trkpt lat="44.945" lon="2.54396">
        <ele>839.85</ele>
        <time>2021-08-16T05:54:18Z</time>
      </trkpt>
      <trkpt lat="44.94473" lon="2.54352">
        <ele>839.85</ele>
        <time>2021-08-16T05:54:24Z</time>
      </trkpt>
      <trkpt lat="44.94434" lon="2.54299">
        <ele>839.85</ele>
        <time>2021-08-16T05:54:34Z</time>
      </trkpt>
      <trkpt lat="44.9442" lon="2.54285">
        <ele>841.77</ele>
        <time>2021-08-16T05:54:38Z</time>
      </trkpt>
      <trkpt lat="44.94411" lon="2.54279">
        <ele>841.77</ele>
        <time>2021-08-16T05:54:40Z</time>
      </trkpt>
      <trkpt lat="44.944" lon="2.54268">
        <ele>841.77</ele>
        <time>2021-08-16T05:54:43Z</time>
      </trkpt>
      <trkpt lat="44.94396" lon="2.54263">
        <ele>841.77</ele>
        <time>2021-08-16T05:54:44Z</time>
      </trkpt>
      <trkpt lat="44.94393" lon="2.54258">
        <ele>841.77</ele>
        <time>2021-08-16T05:54:45Z</time>
      </trkpt>
      <trkpt lat="44.9439" lon="2.54252">
        <ele>841.77</ele>
        <time>2021-08-16T05:54:46Z</time>
      </trkpt>
      <trkpt lat="44.94388" lon="2.54245">
        <ele>841.77</ele>
        <time>2021-08-16T05:54:47Z</time>
      </trkpt>
      <trkpt lat="44.94386" lon="2.5424">
        <ele>841.77</ele>
        <time>2021-08-16T05:54:48Z</time>
      </trkpt>
      <trkpt lat="44.94368" lon="2.54188">
        <ele>841.77</ele>
        <time>2021-08-16T05:54:56Z</time>
      </trkpt>
      <trkpt lat="44.94354" lon="2.54159">
        <ele>839.85</ele>
        <time>2021-08-16T05:55:00Z</time>
      </trkpt>
      <trkpt lat="44.9432" lon="2.54111">
        <ele>837.45</ele>
        <time>2021-08-16T05:55:07Z</time>
      </trkpt>
      <trkpt lat="44.94302" lon="2.54092">
        <ele>836</ele>
        <time>2021-08-16T05:55:10Z</time>
      </trkpt>
      <trkpt lat="44.94266" lon="2.54044">
        <ele>832.64</ele>
        <time>2021-08-16T05:55:16Z</time>
      </trkpt>
      <trkpt lat="44.94254" lon="2.54028">
        <ele>831.68</ele>
        <time>2021-08-16T05:55:18Z</time>
      </trkpt>
      <trkpt lat="44.94246" lon="2.54021">
        <ele>830.72</ele>
        <time>2021-08-16T05:55:19Z</time>
      </trkpt>
      <trkpt lat="44.94239" lon="2.54015">
        <ele>829.76</ele>
        <time>2021-08-16T05:55:20Z</time>
      </trkpt>
      <trkpt lat="44.9423" lon="2.54009">
        <ele>829.27</ele>
        <time>2021-08-16T05:55:21Z</time>
      </trkpt>
      <trkpt lat="44.94221" lon="2.54004">
        <ele>828.31</ele>
        <time>2021-08-16T05:55:22Z</time>
      </trkpt>
      <trkpt lat="44.94211" lon="2.54">
        <ele>827.35</ele>
        <time>2021-08-16T05:55:23Z</time>
      </trkpt>
      <trkpt lat="44.94201" lon="2.53998">
        <ele>825.91</ele>
        <time>2021-08-16T05:55:24Z</time>
      </trkpt>
      <trkpt lat="44.9419" lon="2.53996">
        <ele>824.47</ele>
        <time>2021-08-16T05:55:25Z</time>
      </trkpt>
      <trkpt lat="44.94164" lon="2.53991">
        <ele>820.14</ele>
        <time>2021-08-16T05:55:27Z</time>
      </trkpt>
      <trkpt lat="44.94127" lon="2.53982">
        <ele>815.82</ele>
        <time>2021-08-16T05:55:30Z</time>
      </trkpt>
      <trkpt lat="44.94105" lon="2.53975">
        <ele>813.89</ele>
        <time>2021-08-16T05:55:32Z</time>
      </trkpt>
      <trkpt lat="44.94095" lon="2.5397">
        <ele>812.93</ele>
        <time>2021-08-16T05:55:33Z</time>
      </trkpt>
      <trkpt lat="44.94085" lon="2.53964">
        <ele>812.45</ele>
        <time>2021-08-16T05:55:34Z</time>
      </trkpt>
      <trkpt lat="44.94076" lon="2.53956">
        <ele>811.49</ele>
        <time>2021-08-16T05:55:35Z</time>
      </trkpt>
      <trkpt lat="44.94069" lon="2.53948">
        <ele>811.01</ele>
        <time>2021-08-16T05:55:36Z</time>
      </trkpt>
      <trkpt lat="44.9406" lon="2.53938">
        <ele>809.57</ele>
        <time>2021-08-16T05:55:37Z</time>
      </trkpt>
      <trkpt lat="44.94048" lon="2.53925">
        <ele>808.13</ele>
        <time>2021-08-16T05:55:39Z</time>
      </trkpt>
      <trkpt lat="44.94046" lon="2.53923">
        <ele>808.13</ele>
        <time>2021-08-16T05:55:40Z</time>
      </trkpt>
      <trkpt lat="44.94045" lon="2.53926">
        <ele>808.13</ele>
        <time>2021-08-16T05:55:44Z</time>
      </trkpt>
      <trkpt lat="44.94047" lon="2.53927">
        <ele>807.64</ele>
        <time>2021-08-16T05:55:45Z</time>
      </trkpt>
      <trkpt lat="44.94048" lon="2.53927">
        <ele>808.13</ele>
        <time>2021-08-16T05:55:46Z</time>
      </trkpt>
      <trkpt lat="44.9405" lon="2.53929">
        <ele>808.13</ele>
        <time>2021-08-16T05:55:47Z</time>
      </trkpt>
      <trkpt lat="44.94052" lon="2.5393">
        <ele>808.13</ele>
        <time>2021-08-16T05:55:48Z</time>
      </trkpt>
      <trkpt lat="44.94068" lon="2.53933">
        <ele>808.13</ele>
        <time>2021-08-16T05:55:55Z</time>
      </trkpt>
      <trkpt lat="44.94085" lon="2.53919">
        <ele>808.13</ele>
        <time>2021-08-16T05:56:01Z</time>
      </trkpt>
      <trkpt lat="44.94104" lon="2.53902">
        <ele>808.13</ele>
        <time>2021-08-16T05:56:09Z</time>
      </trkpt>
      <trkpt lat="44.9411" lon="2.53898">
        <ele>809.57</ele>
        <time>2021-08-16T05:56:13Z</time>
      </trkpt>
      <trkpt lat="44.94114" lon="2.53897">
        <ele>810.05</ele>
        <time>2021-08-16T05:56:16Z</time>
      </trkpt>
      <trkpt lat="44.94115" lon="2.53896">
        <ele>810.53</ele>
        <time>2021-08-16T05:56:17Z</time>
      </trkpt>
      <trkpt lat="44.94117" lon="2.53896">
        <ele>810.53</ele>
        <time>2021-08-16T05:56:18Z</time>
      </trkpt>
      <trkpt lat="44.94118" lon="2.53896">
        <ele>810.53</ele>
        <time>2021-08-16T05:56:19Z</time>
      </trkpt>
      <trkpt lat="44.9412" lon="2.53896">
        <ele>811.01</ele>
        <time>2021-08-16T05:56:20Z</time>
      </trkpt>
      <trkpt lat="44.94123" lon="2.53895">
        <ele>811.97</ele>
        <time>2021-08-16T05:56:23Z</time>
      </trkpt>
      <trkpt lat="44.94124" lon="2.53895">
        <ele>811.97</ele>
        <time>2021-08-16T05:56:24Z</time>
      </trkpt>
      <trkpt lat="44.94125" lon="2.53895">
        <ele>812.45</ele>
        <time>2021-08-16T05:56:25Z</time>
      </trkpt>
      <trkpt lat="44.94127" lon="2.53894">
        <ele>812.45</ele>
        <time>2021-08-16T05:56:26Z</time>
      </trkpt>
      <trkpt lat="44.94128" lon="2.53894">
        <ele>812.93</ele>
        <time>2021-08-16T05:56:27Z</time>
      </trkpt>
      <trkpt lat="44.94129" lon="2.53894">
        <ele>812.93</ele>
        <time>2021-08-16T05:56:28Z</time>
      </trkpt>
      <trkpt lat="44.94139" lon="2.53894">
        <ele>813.89</ele>
        <time>2021-08-16T05:56:36Z</time>
      </trkpt>
      <trkpt lat="44.9414" lon="2.53894">
        <ele>814.37</ele>
        <time>2021-08-16T05:56:37Z</time>
      </trkpt>
      <trkpt lat="44.94141" lon="2.53894">
        <ele>814.37</ele>
        <time>2021-08-16T05:56:38Z</time>
      </trkpt>
      <trkpt lat="44.94152" lon="2.53892">
        <ele>815.82</ele>
        <time>2021-08-16T05:56:47Z</time>
      </trkpt>
      <trkpt lat="44.9416" lon="2.5389">
        <ele>817.26</ele>
        <time>2021-08-16T05:56:54Z</time>
      </trkpt>
      <trkpt lat="44.94169" lon="2.53887">
        <ele>818.7</ele>
        <time>2021-08-16T05:57:04Z</time>
      </trkpt>
      <trkpt lat="44.94176" lon="2.53884">
        <ele>820.14</ele>
        <time>2021-08-16T05:57:13Z</time>
      </trkpt>
      <trkpt lat="44.94184" lon="2.5388">
        <ele>823.03</ele>
        <time>2021-08-16T05:57:23Z</time>
      </trkpt>
      <trkpt lat="44.94192" lon="2.53875">
        <ele>824.95</ele>
        <time>2021-08-16T05:57:33Z</time>
      </trkpt>
      <trkpt lat="44.94196" lon="2.53872">
        <ele>825.91</ele>
        <time>2021-08-16T05:57:39Z</time>
      </trkpt>
      <trkpt lat="44.94198" lon="2.53868">
        <ele>826.39</ele>
        <time>2021-08-16T05:57:44Z</time>
      </trkpt>
      <trkpt lat="44.942" lon="2.53859">
        <ele>827.83</ele>
        <time>2021-08-16T05:57:52Z</time>
      </trkpt>
      <trkpt lat="44.94197" lon="2.53849">
        <ele>829.76</ele>
        <time>2021-08-16T05:58:01Z</time>
      </trkpt>
      <trkpt lat="44.94191" lon="2.53842">
        <ele>831.2</ele>
        <time>2021-08-16T05:58:11Z</time>
      </trkpt>
      <trkpt lat="44.9419" lon="2.53839">
        <ele>831.68</ele>
        <time>2021-08-16T05:58:20Z</time>
      </trkpt>
      <trkpt lat="44.94191" lon="2.5384">
        <ele>831.68</ele>
        <time>2021-08-16T05:58:35Z</time>
      </trkpt>
      <trkpt lat="44.94189" lon="2.53838">
        <ele>832.16</ele>
        <time>2021-08-16T05:58:44Z</time>
      </trkpt>
      <trkpt lat="44.94187" lon="2.53838">
        <ele>832.16</ele>
        <time>2021-08-16T05:58:48Z</time>
      </trkpt>
      <trkpt lat="44.94186" lon="2.53838">
        <ele>832.16</ele>
        <time>2021-08-16T05:58:49Z</time>
      </trkpt>
      <trkpt lat="44.94185" lon="2.53839">
        <ele>832.16</ele>
        <time>2021-08-16T05:58:50Z</time>
      </trkpt>
      <trkpt lat="44.94183" lon="2.5384">
        <ele>832.16</ele>
        <time>2021-08-16T05:58:51Z</time>
      </trkpt>
      <trkpt lat="44.94182" lon="2.5384">
        <ele>832.16</ele>
        <time>2021-08-16T05:58:52Z</time>
      </trkpt>
      <trkpt lat="44.94181" lon="2.5384">
        <ele>832.16</ele>
        <time>2021-08-16T05:58:53Z</time>
      </trkpt>
      <trkpt lat="44.9418" lon="2.5384">
        <ele>832.16</ele>
        <time>2021-08-16T05:58:54Z</time>
      </trkpt>
      <trkpt lat="44.94171" lon="2.53835">
        <ele>832.16</ele>
        <time>2021-08-16T05:59:01Z</time>
      </trkpt>
      <trkpt lat="44.94162" lon="2.53821">
        <ele>830.72</ele>
        <time>2021-08-16T05:59:05Z</time>
      </trkpt>
      <trkpt lat="44.9416" lon="2.53816">
        <ele>830.24</ele>
        <time>2021-08-16T05:59:06Z</time>
      </trkpt>
      <trkpt lat="44.94144" lon="2.5376">
        <ele>828.31</ele>
        <time>2021-08-16T05:59:14Z</time>
      </trkpt>
      <trkpt lat="44.94128" lon="2.53723">
        <ele>825.91</ele>
        <time>2021-08-16T05:59:19Z</time>
      </trkpt>
      <trkpt lat="44.94125" lon="2.53716">
        <ele>825.91</ele>
        <time>2021-08-16T05:59:20Z</time>
      </trkpt>
      <trkpt lat="44.94121" lon="2.53712">
        <ele>824.95</ele>
        <time>2021-08-16T05:59:21Z</time>
      </trkpt>
      <trkpt lat="44.9411" lon="2.53702">
        <ele>823.99</ele>
        <time>2021-08-16T05:59:26Z</time>
      </trkpt>
      <trkpt lat="44.94105" lon="2.537">
        <ele>823.51</ele>
        <time>2021-08-16T05:59:29Z</time>
      </trkpt>
      <trkpt lat="44.94104" lon="2.53699">
        <ele>823.51</ele>
        <time>2021-08-16T05:59:30Z</time>
      </trkpt>
      <trkpt lat="44.9409" lon="2.53681">
        <ele>822.06</ele>
        <time>2021-08-16T05:59:36Z</time>
      </trkpt>
      <trkpt lat="44.94073" lon="2.53659">
        <ele>820.14</ele>
        <time>2021-08-16T05:59:42Z</time>
      </trkpt>
      <trkpt lat="44.94062" lon="2.53648">
        <ele>819.18</ele>
        <time>2021-08-16T05:59:45Z</time>
      </trkpt>
      <trkpt lat="44.94059" lon="2.53644">
        <ele>819.18</ele>
        <time>2021-08-16T05:59:46Z</time>
      </trkpt>
      <trkpt lat="44.94034" lon="2.53626">
        <ele>816.3</ele>
        <time>2021-08-16T05:59:52Z</time>
      </trkpt>
      <trkpt lat="44.94027" lon="2.53618">
        <ele>815.34</ele>
        <time>2021-08-16T05:59:54Z</time>
      </trkpt>
      <trkpt lat="44.94003" lon="2.53599">
        <ele>814.85</ele>
        <time>2021-08-16T05:59:59Z</time>
      </trkpt>
      <trkpt lat="44.93989" lon="2.53592">
        <ele>813.89</ele>
        <time>2021-08-16T06:00:02Z</time>
      </trkpt>
      <trkpt lat="44.93973" lon="2.53585">
        <ele>812.93</ele>
        <time>2021-08-16T06:00:05Z</time>
      </trkpt>
      <trkpt lat="44.93937" lon="2.53568">
        <ele>811.01</ele>
        <time>2021-08-16T06:00:12Z</time>
      </trkpt>
      <trkpt lat="44.93932" lon="2.53564">
        <ele>810.53</ele>
        <time>2021-08-16T06:00:13Z</time>
      </trkpt>
      <trkpt lat="44.93928" lon="2.5356">
        <ele>810.53</ele>
        <time>2021-08-16T06:00:14Z</time>
      </trkpt>
      <trkpt lat="44.93917" lon="2.53548">
        <ele>810.05</ele>
        <time>2021-08-16T06:00:17Z</time>
      </trkpt>
      <trkpt lat="44.93902" lon="2.53523">
        <ele>809.57</ele>
        <time>2021-08-16T06:00:23Z</time>
      </trkpt>
      <trkpt lat="44.93885" lon="2.53484">
        <ele>809.57</ele>
        <time>2021-08-16T06:00:31Z</time>
      </trkpt>
      <trkpt lat="44.93874" lon="2.53459">
        <ele>808.61</ele>
        <time>2021-08-16T06:00:36Z</time>
      </trkpt>
      <trkpt lat="44.93872" lon="2.53453">
        <ele>808.61</ele>
        <time>2021-08-16T06:00:37Z</time>
      </trkpt>
      <trkpt lat="44.9387" lon="2.53446">
        <ele>808.13</ele>
        <time>2021-08-16T06:00:38Z</time>
      </trkpt>
      <trkpt lat="44.93861" lon="2.534">
        <ele>804.76</ele>
        <time>2021-08-16T06:00:45Z</time>
      </trkpt>
      <trkpt lat="44.9386" lon="2.53386">
        <ele>804.28</ele>
        <time>2021-08-16T06:00:47Z</time>
      </trkpt>
      <trkpt lat="44.93854" lon="2.53368">
        <ele>801.4</ele>
        <time>2021-08-16T06:00:51Z</time>
      </trkpt>
      <trkpt lat="44.93846" lon="2.53355">
        <ele>798.03</ele>
        <time>2021-08-16T06:00:56Z</time>
      </trkpt>
      <trkpt lat="44.93845" lon="2.53354">
        <ele>798.03</ele>
        <time>2021-08-16T06:00:57Z</time>
      </trkpt>
      <trkpt lat="44.93839" lon="2.53346">
        <ele>796.11</ele>
        <time>2021-08-16T06:01:04Z</time>
      </trkpt>
      <trkpt lat="44.93837" lon="2.53342">
        <ele>795.15</ele>
        <time>2021-08-16T06:01:06Z</time>
      </trkpt>
      <trkpt lat="44.93836" lon="2.53338">
        <ele>794.67</ele>
        <time>2021-08-16T06:01:08Z</time>
      </trkpt>
      <trkpt lat="44.93833" lon="2.53335">
        <ele>794.67</ele>
        <time>2021-08-16T06:01:13Z</time>
      </trkpt>
      <trkpt lat="44.93832" lon="2.53335">
        <ele>794.67</ele>
        <time>2021-08-16T06:01:14Z</time>
      </trkpt>
      <trkpt lat="44.93831" lon="2.53336">
        <ele>794.19</ele>
        <time>2021-08-16T06:01:15Z</time>
      </trkpt>
      <trkpt lat="44.93829" lon="2.53337">
        <ele>793.71</ele>
        <time>2021-08-16T06:01:16Z</time>
      </trkpt>
      <trkpt lat="44.93828" lon="2.53338">
        <ele>793.71</ele>
        <time>2021-08-16T06:01:17Z</time>
      </trkpt>
      <trkpt lat="44.93828" lon="2.53341">
        <ele>792.74</ele>
        <time>2021-08-16T06:01:18Z</time>
      </trkpt>
      <trkpt lat="44.93827" lon="2.53342">
        <ele>792.26</ele>
        <time>2021-08-16T06:01:19Z</time>
      </trkpt>
      <trkpt lat="44.93827" lon="2.53345">
        <ele>792.26</ele>
        <time>2021-08-16T06:01:20Z</time>
      </trkpt>
      <trkpt lat="44.93826" lon="2.53347">
        <ele>791.78</ele>
        <time>2021-08-16T06:01:22Z</time>
      </trkpt>
      <trkpt lat="44.93824" lon="2.53349">
        <ele>790.82</ele>
        <time>2021-08-16T06:01:23Z</time>
      </trkpt>
      <trkpt lat="44.93823" lon="2.53349">
        <ele>790.34</ele>
        <time>2021-08-16T06:01:24Z</time>
      </trkpt>
      <trkpt lat="44.93821" lon="2.5335">
        <ele>790.34</ele>
        <time>2021-08-16T06:01:25Z</time>
      </trkpt>
      <trkpt lat="44.93819" lon="2.5335">
        <ele>789.86</ele>
        <time>2021-08-16T06:01:26Z</time>
      </trkpt>
      <trkpt lat="44.93818" lon="2.53349">
        <ele>789.86</ele>
        <time>2021-08-16T06:01:27Z</time>
      </trkpt>
      <trkpt lat="44.93817" lon="2.53348">
        <ele>789.38</ele>
        <time>2021-08-16T06:01:28Z</time>
      </trkpt>
      <trkpt lat="44.93815" lon="2.53347">
        <ele>789.38</ele>
        <time>2021-08-16T06:01:29Z</time>
      </trkpt>
      <trkpt lat="44.93814" lon="2.53348">
        <ele>788.42</ele>
        <time>2021-08-16T06:01:30Z</time>
      </trkpt>
      <trkpt lat="44.93812" lon="2.53348">
        <ele>787.94</ele>
        <time>2021-08-16T06:01:31Z</time>
      </trkpt>
      <trkpt lat="44.9381" lon="2.53348">
        <ele>787.46</ele>
        <time>2021-08-16T06:01:32Z</time>
      </trkpt>
      <trkpt lat="44.93808" lon="2.53349">
        <ele>787.46</ele>
        <time>2021-08-16T06:01:33Z</time>
      </trkpt>
      <trkpt lat="44.93806" lon="2.53351">
        <ele>786.5</ele>
        <time>2021-08-16T06:01:34Z</time>
      </trkpt>
      <trkpt lat="44.93805" lon="2.53353">
        <ele>786.02</ele>
        <time>2021-08-16T06:01:35Z</time>
      </trkpt>
      <trkpt lat="44.93803" lon="2.53355">
        <ele>785.53</ele>
        <time>2021-08-16T06:01:36Z</time>
      </trkpt>
      <trkpt lat="44.938" lon="2.53357">
        <ele>785.53</ele>
        <time>2021-08-16T06:01:37Z</time>
      </trkpt>
      <trkpt lat="44.93798" lon="2.53358">
        <ele>785.05</ele>
        <time>2021-08-16T06:01:38Z</time>
      </trkpt>
      <trkpt lat="44.93795" lon="2.5336">
        <ele>785.05</ele>
        <time>2021-08-16T06:01:39Z</time>
      </trkpt>
      <trkpt lat="44.93786" lon="2.53364">
        <ele>784.09</ele>
        <time>2021-08-16T06:01:44Z</time>
      </trkpt>
      <trkpt lat="44.93777" lon="2.53363">
        <ele>784.09</ele>
        <time>2021-08-16T06:01:52Z</time>
      </trkpt>
      <trkpt lat="44.93771" lon="2.53364">
        <ele>784.09</ele>
        <time>2021-08-16T06:01:59Z</time>
      </trkpt>
      <trkpt lat="44.93769" lon="2.53363">
        <ele>784.09</ele>
        <time>2021-08-16T06:02:00Z</time>
      </trkpt>
      <trkpt lat="44.93768" lon="2.53362">
        <ele>784.09</ele>
        <time>2021-08-16T06:02:01Z</time>
      </trkpt>
      <trkpt lat="44.93767" lon="2.53361">
        <ele>784.09</ele>
        <time>2021-08-16T06:02:02Z</time>
      </trkpt>
      <trkpt lat="44.93767" lon="2.53359">
        <ele>784.09</ele>
        <time>2021-08-16T06:02:03Z</time>
      </trkpt>
      <trkpt lat="44.93766" lon="2.53357">
        <ele>784.09</ele>
        <time>2021-08-16T06:02:04Z</time>
      </trkpt>
      <trkpt lat="44.93765" lon="2.53355">
        <ele>784.09</ele>
        <time>2021-08-16T06:02:05Z</time>
      </trkpt>
      <trkpt lat="44.93765" lon="2.53352">
        <ele>784.09</ele>
        <time>2021-08-16T06:02:06Z</time>
      </trkpt>
      <trkpt lat="44.93766" lon="2.53333">
        <ele>783.13</ele>
        <time>2021-08-16T06:02:11Z</time>
      </trkpt>
      <trkpt lat="44.93766" lon="2.53331">
        <ele>783.13</ele>
        <time>2021-08-16T06:02:12Z</time>
      </trkpt>
      <trkpt lat="44.93767" lon="2.53325">
        <ele>783.13</ele>
        <time>2021-08-16T06:02:17Z</time>
      </trkpt>
      <trkpt lat="44.93767" lon="2.53321">
        <ele>783.13</ele>
        <time>2021-08-16T06:02:23Z</time>
      </trkpt>
      <trkpt lat="44.93766" lon="2.53313">
        <ele>782.17</ele>
        <time>2021-08-16T06:02:30Z</time>
      </trkpt>
      <trkpt lat="44.93762" lon="2.53306">
        <ele>781.69</ele>
        <time>2021-08-16T06:02:35Z</time>
      </trkpt>
      <trkpt lat="44.93761" lon="2.53299">
        <ele>781.69</ele>
        <time>2021-08-16T06:02:41Z</time>
      </trkpt>
      <trkpt lat="44.93761" lon="2.53295">
        <ele>781.69</ele>
        <time>2021-08-16T06:02:45Z</time>
      </trkpt>
      <trkpt lat="44.9376" lon="2.53284">
        <ele>781.69</ele>
        <time>2021-08-16T06:02:49Z</time>
      </trkpt>
      <trkpt lat="44.93759" lon="2.53281">
        <ele>781.69</ele>
        <time>2021-08-16T06:02:50Z</time>
      </trkpt>
      <trkpt lat="44.93758" lon="2.53278">
        <ele>781.69</ele>
        <time>2021-08-16T06:02:51Z</time>
      </trkpt>
      <trkpt lat="44.93757" lon="2.53275">
        <ele>781.69</ele>
        <time>2021-08-16T06:02:52Z</time>
      </trkpt>
      <trkpt lat="44.93756" lon="2.53273">
        <ele>781.69</ele>
        <time>2021-08-16T06:02:53Z</time>
      </trkpt>
      <trkpt lat="44.93756" lon="2.53269">
        <ele>781.21</ele>
        <time>2021-08-16T06:02:54Z</time>
      </trkpt>
      <trkpt lat="44.93755" lon="2.53267">
        <ele>781.21</ele>
        <time>2021-08-16T06:02:55Z</time>
      </trkpt>
      <trkpt lat="44.93754" lon="2.53264">
        <ele>781.21</ele>
        <time>2021-08-16T06:02:56Z</time>
      </trkpt>
      <trkpt lat="44.9375" lon="2.53257">
        <ele>781.21</ele>
        <time>2021-08-16T06:03:01Z</time>
      </trkpt>
      <trkpt lat="44.93748" lon="2.53256">
        <ele>781.21</ele>
        <time>2021-08-16T06:03:02Z</time>
      </trkpt>
      <trkpt lat="44.93746" lon="2.53255">
        <ele>781.21</ele>
        <time>2021-08-16T06:03:03Z</time>
      </trkpt>
      <trkpt lat="44.93745" lon="2.53253">
        <ele>781.21</ele>
        <time>2021-08-16T06:03:04Z</time>
      </trkpt>
      <trkpt lat="44.93743" lon="2.5325">
        <ele>781.21</ele>
        <time>2021-08-16T06:03:05Z</time>
      </trkpt>
      <trkpt lat="44.93734" lon="2.53231">
        <ele>780.73</ele>
        <time>2021-08-16T06:03:11Z</time>
      </trkpt>
      <trkpt lat="44.93728" lon="2.53204">
        <ele>779.77</ele>
        <time>2021-08-16T06:03:19Z</time>
      </trkpt>
      <trkpt lat="44.93722" lon="2.5318">
        <ele>780.25</ele>
        <time>2021-08-16T06:03:26Z</time>
      </trkpt>
      <trkpt lat="44.9372" lon="2.53158">
        <ele>780.25</ele>
        <time>2021-08-16T06:03:33Z</time>
      </trkpt>
      <trkpt lat="44.93719" lon="2.53153">
        <ele>781.21</ele>
        <time>2021-08-16T06:03:35Z</time>
      </trkpt>
      <trkpt lat="44.93718" lon="2.53135">
        <ele>782.65</ele>
        <time>2021-08-16T06:03:43Z</time>
      </trkpt>
      <trkpt lat="44.93715" lon="2.53113">
        <ele>783.61</ele>
        <time>2021-08-16T06:03:50Z</time>
      </trkpt>
      <trkpt lat="44.93707" lon="2.53089">
        <ele>783.61</ele>
        <time>2021-08-16T06:03:56Z</time>
      </trkpt>
      <trkpt lat="44.93703" lon="2.53051">
        <ele>783.61</ele>
        <time>2021-08-16T06:04:03Z</time>
      </trkpt>
      <trkpt lat="44.93704" lon="2.5303">
        <ele>784.09</ele>
        <time>2021-08-16T06:04:09Z</time>
      </trkpt>
      <trkpt lat="44.93707" lon="2.53018">
        <ele>784.57</ele>
        <time>2021-08-16T06:04:15Z</time>
      </trkpt>
      <trkpt lat="44.93708" lon="2.53005">
        <ele>786.5</ele>
        <time>2021-08-16T06:04:23Z</time>
      </trkpt>
      <trkpt lat="44.93709" lon="2.52998">
        <ele>786.5</ele>
        <time>2021-08-16T06:04:30Z</time>
      </trkpt>
      <trkpt lat="44.93709" lon="2.52997">
        <ele>786.5</ele>
        <time>2021-08-16T06:04:32Z</time>
      </trkpt>
      <trkpt lat="44.93712" lon="2.52991">
        <ele>786.98</ele>
        <time>2021-08-16T06:04:36Z</time>
      </trkpt>
      <trkpt lat="44.93713" lon="2.52989">
        <ele>786.98</ele>
        <time>2021-08-16T06:04:37Z</time>
      </trkpt>
      <trkpt lat="44.93714" lon="2.52988">
        <ele>786.98</ele>
        <time>2021-08-16T06:04:38Z</time>
      </trkpt>
      <trkpt lat="44.93718" lon="2.52974">
        <ele>788.42</ele>
        <time>2021-08-16T06:04:46Z</time>
      </trkpt>
      <trkpt lat="44.93724" lon="2.5296">
        <ele>791.3</ele>
        <time>2021-08-16T06:04:55Z</time>
      </trkpt>
      <trkpt lat="44.93728" lon="2.52947">
        <ele>793.22</ele>
        <time>2021-08-16T06:05:03Z</time>
      </trkpt>
      <trkpt lat="44.93731" lon="2.52936">
        <ele>794.19</ele>
        <time>2021-08-16T06:05:11Z</time>
      </trkpt>
      <trkpt lat="44.93735" lon="2.52925">
        <ele>795.15</ele>
        <time>2021-08-16T06:05:19Z</time>
      </trkpt>
      <trkpt lat="44.93738" lon="2.52918">
        <ele>796.11</ele>
        <time>2021-08-16T06:05:25Z</time>
      </trkpt>
      <trkpt lat="44.93741" lon="2.52909">
        <ele>797.07</ele>
        <time>2021-08-16T06:05:32Z</time>
      </trkpt>
      <trkpt lat="44.93743" lon="2.52903">
        <ele>797.55</ele>
        <time>2021-08-16T06:05:39Z</time>
      </trkpt>
      <trkpt lat="44.93745" lon="2.52897">
        <ele>798.03</ele>
        <time>2021-08-16T06:05:42Z</time>
      </trkpt>
      <trkpt lat="44.93752" lon="2.52882">
        <ele>799.47</ele>
        <time>2021-08-16T06:05:50Z</time>
      </trkpt>
      <trkpt lat="44.93753" lon="2.52881">
        <ele>799.47</ele>
        <time>2021-08-16T06:05:51Z</time>
      </trkpt>
      <trkpt lat="44.93758" lon="2.52877">
        <ele>800.44</ele>
        <time>2021-08-16T06:05:56Z</time>
      </trkpt>
      <trkpt lat="44.93762" lon="2.52874">
        <ele>801.4</ele>
        <time>2021-08-16T06:06:03Z</time>
      </trkpt>
      <trkpt lat="44.93772" lon="2.52867">
        <ele>803.8</ele>
        <time>2021-08-16T06:06:15Z</time>
      </trkpt>
      <trkpt lat="44.93779" lon="2.5286">
        <ele>805.24</ele>
        <time>2021-08-16T06:06:24Z</time>
      </trkpt>
      <trkpt lat="44.93785" lon="2.52854">
        <ele>806.68</ele>
        <time>2021-08-16T06:06:32Z</time>
      </trkpt>
      <trkpt lat="44.93788" lon="2.52852">
        <ele>806.68</ele>
        <time>2021-08-16T06:06:39Z</time>
      </trkpt>
      <trkpt lat="44.93801" lon="2.52844">
        <ele>807.64</ele>
        <time>2021-08-16T06:06:46Z</time>
      </trkpt>
      <trkpt lat="44.93816" lon="2.52832">
        <ele>809.57</ele>
        <time>2021-08-16T06:06:55Z</time>
      </trkpt>
      <trkpt lat="44.93827" lon="2.52825">
        <ele>810.53</ele>
        <time>2021-08-16T06:07:03Z</time>
      </trkpt>
      <trkpt lat="44.93839" lon="2.52817">
        <ele>812.93</ele>
        <time>2021-08-16T06:07:12Z</time>
      </trkpt>
      <trkpt lat="44.93844" lon="2.52815">
        <ele>812.93</ele>
        <time>2021-08-16T06:07:15Z</time>
      </trkpt>
      <trkpt lat="44.93846" lon="2.52814">
        <ele>812.93</ele>
        <time>2021-08-16T06:07:16Z</time>
      </trkpt>
      <trkpt lat="44.9386" lon="2.52807">
        <ele>814.37</ele>
        <time>2021-08-16T06:07:23Z</time>
      </trkpt>
      <trkpt lat="44.93876" lon="2.52796">
        <ele>814.85</ele>
        <time>2021-08-16T06:07:31Z</time>
      </trkpt>
      <trkpt lat="44.9389" lon="2.52788">
        <ele>815.34</ele>
        <time>2021-08-16T06:07:37Z</time>
      </trkpt>
      <trkpt lat="44.93901" lon="2.52783">
        <ele>815.82</ele>
        <time>2021-08-16T06:07:42Z</time>
      </trkpt>
      <trkpt lat="44.93922" lon="2.52774">
        <ele>816.3</ele>
        <time>2021-08-16T06:07:50Z</time>
      </trkpt>
      <trkpt lat="44.93942" lon="2.52776">
        <ele>816.78</ele>
        <time>2021-08-16T06:07:57Z</time>
      </trkpt>
      <trkpt lat="44.93966" lon="2.52783">
        <ele>817.26</ele>
        <time>2021-08-16T06:08:05Z</time>
      </trkpt>
      <trkpt lat="44.93986" lon="2.52794">
        <ele>817.26</ele>
        <time>2021-08-16T06:08:12Z</time>
      </trkpt>
      <trkpt lat="44.94001" lon="2.52793">
        <ele>818.22</ele>
        <time>2021-08-16T06:08:19Z</time>
      </trkpt>
      <trkpt lat="44.94005" lon="2.52791">
        <ele>818.22</ele>
        <time>2021-08-16T06:08:27Z</time>
      </trkpt>
      <trkpt lat="44.94006" lon="2.52789">
        <ele>818.22</ele>
        <time>2021-08-16T06:08:28Z</time>
      </trkpt>
      <trkpt lat="44.94008" lon="2.52781">
        <ele>818.22</ele>
        <time>2021-08-16T06:08:32Z</time>
      </trkpt>
      <trkpt lat="44.94007" lon="2.52763">
        <ele>818.7</ele>
        <time>2021-08-16T06:08:38Z</time>
      </trkpt>
      <trkpt lat="44.94004" lon="2.52738">
        <ele>820.14</ele>
        <time>2021-08-16T06:08:46Z</time>
      </trkpt>
      <trkpt lat="44.94004" lon="2.5273">
        <ele>820.14</ele>
        <time>2021-08-16T06:08:49Z</time>
      </trkpt>
      <trkpt lat="44.94003" lon="2.52728">
        <ele>820.14</ele>
        <time>2021-08-16T06:08:50Z</time>
      </trkpt>
      <trkpt lat="44.94003" lon="2.52725">
        <ele>820.62</ele>
        <time>2021-08-16T06:08:51Z</time>
      </trkpt>
      <trkpt lat="44.94002" lon="2.52707">
        <ele>822.55</ele>
        <time>2021-08-16T06:09:00Z</time>
      </trkpt>
      <trkpt lat="44.94002" lon="2.52688">
        <ele>823.51</ele>
        <time>2021-08-16T06:09:08Z</time>
      </trkpt>
      <trkpt lat="44.94003" lon="2.52683">
        <ele>823.99</ele>
        <time>2021-08-16T06:09:10Z</time>
      </trkpt>
      <trkpt lat="44.94002" lon="2.52681">
        <ele>824.47</ele>
        <time>2021-08-16T06:09:11Z</time>
      </trkpt>
      <trkpt lat="44.94002" lon="2.52679">
        <ele>824.47</ele>
        <time>2021-08-16T06:09:12Z</time>
      </trkpt>
      <trkpt lat="44.94002" lon="2.52676">
        <ele>824.47</ele>
        <time>2021-08-16T06:09:13Z</time>
      </trkpt>
      <trkpt lat="44.94002" lon="2.52674">
        <ele>824.95</ele>
        <time>2021-08-16T06:09:14Z</time>
      </trkpt>
      <trkpt lat="44.94003" lon="2.52672">
        <ele>824.95</ele>
        <time>2021-08-16T06:09:15Z</time>
      </trkpt>
      <trkpt lat="44.94003" lon="2.5267">
        <ele>825.43</ele>
        <time>2021-08-16T06:09:16Z</time>
      </trkpt>
      <trkpt lat="44.94004" lon="2.52668">
        <ele>825.43</ele>
        <time>2021-08-16T06:09:17Z</time>
      </trkpt>
      <trkpt lat="44.94006" lon="2.52669">
        <ele>825.43</ele>
        <time>2021-08-16T06:09:18Z</time>
      </trkpt>
      <trkpt lat="44.94006" lon="2.5267">
        <ele>825.43</ele>
        <time>2021-08-16T06:09:19Z</time>
      </trkpt>
      <trkpt lat="44.94007" lon="2.52672">
        <ele>825.43</ele>
        <time>2021-08-16T06:09:20Z</time>
      </trkpt>
      <trkpt lat="44.94007" lon="2.52674">
        <ele>825.43</ele>
        <time>2021-08-16T06:09:21Z</time>
      </trkpt>
      <trkpt lat="44.94009" lon="2.52685">
        <ele>825.43</ele>
        <time>2021-08-16T06:09:26Z</time>
      </trkpt>
      <trkpt lat="44.9401" lon="2.52678">
        <ele>825.91</ele>
        <time>2021-08-16T06:09:29Z</time>
      </trkpt>
      <trkpt lat="44.94009" lon="2.52675">
        <ele>825.91</ele>
        <time>2021-08-16T06:09:30Z</time>
      </trkpt>
      <trkpt lat="44.94008" lon="2.52641">
        <ele>825.43</ele>
        <time>2021-08-16T06:09:38Z</time>
      </trkpt>
      <trkpt lat="44.94005" lon="2.52625">
        <ele>825.43</ele>
        <time>2021-08-16T06:09:41Z</time>
      </trkpt>
      <trkpt lat="44.94003" lon="2.52619">
        <ele>825.43</ele>
        <time>2021-08-16T06:09:42Z</time>
      </trkpt>
      <trkpt lat="44.94" lon="2.52614">
        <ele>824.47</ele>
        <time>2021-08-16T06:09:43Z</time>
      </trkpt>
      <trkpt lat="44.93996" lon="2.5261">
        <ele>824.47</ele>
        <time>2021-08-16T06:09:44Z</time>
      </trkpt>
      <trkpt lat="44.93991" lon="2.52604">
        <ele>823.51</ele>
        <time>2021-08-16T06:09:45Z</time>
      </trkpt>
      <trkpt lat="44.93988" lon="2.52602">
        <ele>823.51</ele>
        <time>2021-08-16T06:09:46Z</time>
      </trkpt>
      <trkpt lat="44.93981" lon="2.52596">
        <ele>823.03</ele>
        <time>2021-08-16T06:09:48Z</time>
      </trkpt>
      <trkpt lat="44.93954" lon="2.52571">
        <ele>821.58</ele>
        <time>2021-08-16T06:09:53Z</time>
      </trkpt>
      <trkpt lat="44.9395" lon="2.52563">
        <ele>821.1</ele>
        <time>2021-08-16T06:09:54Z</time>
      </trkpt>
      <trkpt lat="44.93948" lon="2.52555">
        <ele>821.1</ele>
        <time>2021-08-16T06:09:55Z</time>
      </trkpt>
      <trkpt lat="44.93947" lon="2.52549">
        <ele>820.62</ele>
        <time>2021-08-16T06:09:56Z</time>
      </trkpt>
      <trkpt lat="44.93946" lon="2.52543">
        <ele>820.62</ele>
        <time>2021-08-16T06:09:57Z</time>
      </trkpt>
      <trkpt lat="44.93944" lon="2.52532">
        <ele>822.06</ele>
        <time>2021-08-16T06:10:01Z</time>
      </trkpt>
      <trkpt lat="44.93943" lon="2.5253">
        <ele>822.06</ele>
        <time>2021-08-16T06:10:02Z</time>
      </trkpt>
      <trkpt lat="44.93939" lon="2.5252">
        <ele>823.99</ele>
        <time>2021-08-16T06:10:09Z</time>
      </trkpt>
      <trkpt lat="44.93936" lon="2.52511">
        <ele>824.95</ele>
        <time>2021-08-16T06:10:14Z</time>
      </trkpt>
      <trkpt lat="44.93936" lon="2.52509">
        <ele>824.95</ele>
        <time>2021-08-16T06:10:15Z</time>
      </trkpt>
      <trkpt lat="44.93935" lon="2.52507">
        <ele>824.95</ele>
        <time>2021-08-16T06:10:16Z</time>
      </trkpt>
      <trkpt lat="44.93935" lon="2.52505">
        <ele>825.43</ele>
        <time>2021-08-16T06:10:17Z</time>
      </trkpt>
      <trkpt lat="44.93936" lon="2.52503">
        <ele>825.43</ele>
        <time>2021-08-16T06:10:18Z</time>
      </trkpt>
      <trkpt lat="44.93937" lon="2.52501">
        <ele>825.91</ele>
        <time>2021-08-16T06:10:20Z</time>
      </trkpt>
      <trkpt lat="44.93941" lon="2.52498">
        <ele>826.87</ele>
        <time>2021-08-16T06:10:25Z</time>
      </trkpt>
      <trkpt lat="44.93946" lon="2.52504">
        <ele>827.35</ele>
        <time>2021-08-16T06:10:30Z</time>
      </trkpt>
      <trkpt lat="44.93946" lon="2.52505">
        <ele>828.31</ele>
        <time>2021-08-16T06:10:31Z</time>
      </trkpt>
      <trkpt lat="44.93947" lon="2.52506">
        <ele>828.31</ele>
        <time>2021-08-16T06:10:32Z</time>
      </trkpt>
      <trkpt lat="44.93954" lon="2.52517">
        <ele>829.76</ele>
        <time>2021-08-16T06:10:42Z</time>
      </trkpt>
      <trkpt lat="44.93959" lon="2.52524">
        <ele>831.2</ele>
        <time>2021-08-16T06:10:50Z</time>
      </trkpt>
      <trkpt lat="44.9396" lon="2.52526">
        <ele>831.2</ele>
        <time>2021-08-16T06:10:51Z</time>
      </trkpt>
      <trkpt lat="44.9396" lon="2.52527">
        <ele>831.68</ele>
        <time>2021-08-16T06:10:52Z</time>
      </trkpt>
      <trkpt lat="44.93967" lon="2.52536">
        <ele>833.12</ele>
        <time>2021-08-16T06:11:00Z</time>
      </trkpt>
      <trkpt lat="44.93971" lon="2.52539">
        <ele>833.6</ele>
        <time>2021-08-16T06:11:04Z</time>
      </trkpt>
      <trkpt lat="44.9398" lon="2.52544">
        <ele>835.04</ele>
        <time>2021-08-16T06:11:13Z</time>
      </trkpt>
      <trkpt lat="44.93992" lon="2.52547">
        <ele>836.96</ele>
        <time>2021-08-16T06:11:23Z</time>
      </trkpt>
      <trkpt lat="44.94003" lon="2.52547">
        <ele>838.89</ele>
        <time>2021-08-16T06:11:32Z</time>
      </trkpt>
      <trkpt lat="44.94015" lon="2.52547">
        <ele>840.81</ele>
        <time>2021-08-16T06:11:42Z</time>
      </trkpt>
      <trkpt lat="44.94025" lon="2.52546">
        <ele>842.25</ele>
        <time>2021-08-16T06:11:50Z</time>
      </trkpt>
      <trkpt lat="44.94036" lon="2.52546">
        <ele>844.18</ele>
        <time>2021-08-16T06:12:00Z</time>
      </trkpt>
      <trkpt lat="44.94047" lon="2.52545">
        <ele>846.1</ele>
        <time>2021-08-16T06:12:09Z</time>
      </trkpt>
      <trkpt lat="44.94061" lon="2.52546">
        <ele>847.54</ele>
        <time>2021-08-16T06:12:18Z</time>
      </trkpt>
      <trkpt lat="44.94063" lon="2.52545">
        <ele>848.02</ele>
        <time>2021-08-16T06:12:19Z</time>
      </trkpt>
      <trkpt lat="44.94074" lon="2.52542">
        <ele>849.46</ele>
        <time>2021-08-16T06:12:27Z</time>
      </trkpt>
      <trkpt lat="44.94084" lon="2.52539">
        <ele>851.38</ele>
        <time>2021-08-16T06:12:35Z</time>
      </trkpt>
      <trkpt lat="44.94099" lon="2.52531">
        <ele>852.83</ele>
        <time>2021-08-16T06:12:44Z</time>
      </trkpt>
      <trkpt lat="44.9411" lon="2.52525">
        <ele>854.27</ele>
        <time>2021-08-16T06:12:52Z</time>
      </trkpt>
      <trkpt lat="44.94117" lon="2.5252">
        <ele>854.75</ele>
        <time>2021-08-16T06:12:57Z</time>
      </trkpt>
      <trkpt lat="44.94118" lon="2.52518">
        <ele>855.23</ele>
        <time>2021-08-16T06:12:58Z</time>
      </trkpt>
      <trkpt lat="44.94122" lon="2.52512">
        <ele>855.71</ele>
        <time>2021-08-16T06:13:02Z</time>
      </trkpt>
      <trkpt lat="44.94134" lon="2.52504">
        <ele>857.15</ele>
        <time>2021-08-16T06:13:11Z</time>
      </trkpt>
      <trkpt lat="44.94145" lon="2.52494">
        <ele>859.08</ele>
        <time>2021-08-16T06:13:20Z</time>
      </trkpt>
      <trkpt lat="44.94154" lon="2.52479">
        <ele>860.52</ele>
        <time>2021-08-16T06:13:29Z</time>
      </trkpt>
      <trkpt lat="44.94164" lon="2.52462">
        <ele>862.44</ele>
        <time>2021-08-16T06:13:38Z</time>
      </trkpt>
      <trkpt lat="44.94173" lon="2.52444">
        <ele>862.92</ele>
        <time>2021-08-16T06:13:46Z</time>
      </trkpt>
      <trkpt lat="44.94185" lon="2.52421">
        <ele>864.36</ele>
        <time>2021-08-16T06:13:56Z</time>
      </trkpt>
      <trkpt lat="44.94195" lon="2.52401">
        <ele>865.8</ele>
        <time>2021-08-16T06:14:05Z</time>
      </trkpt>
      <trkpt lat="44.94202" lon="2.52388">
        <ele>866.29</ele>
        <time>2021-08-16T06:14:11Z</time>
      </trkpt>
      <trkpt lat="44.94203" lon="2.52385">
        <ele>866.29</ele>
        <time>2021-08-16T06:14:12Z</time>
      </trkpt>
      <trkpt lat="44.94204" lon="2.52383">
        <ele>866.29</ele>
        <time>2021-08-16T06:14:13Z</time>
      </trkpt>
      <trkpt lat="44.94205" lon="2.52381">
        <ele>866.77</ele>
        <time>2021-08-16T06:14:14Z</time>
      </trkpt>
      <trkpt lat="44.94206" lon="2.52378">
        <ele>866.77</ele>
        <time>2021-08-16T06:14:15Z</time>
      </trkpt>
      <trkpt lat="44.94207" lon="2.52376">
        <ele>866.77</ele>
        <time>2021-08-16T06:14:16Z</time>
      </trkpt>
      <trkpt lat="44.94218" lon="2.52356">
        <ele>868.21</ele>
        <time>2021-08-16T06:14:25Z</time>
      </trkpt>
      <trkpt lat="44.94231" lon="2.52331">
        <ele>869.65</ele>
        <time>2021-08-16T06:14:36Z</time>
      </trkpt>
      <trkpt lat="44.94246" lon="2.52301">
        <ele>871.57</ele>
        <time>2021-08-16T06:14:49Z</time>
      </trkpt>
      <trkpt lat="44.94256" lon="2.5228">
        <ele>873.5</ele>
        <time>2021-08-16T06:14:56Z</time>
      </trkpt>
      <trkpt lat="44.94264" lon="2.52252">
        <ele>874.46</ele>
        <time>2021-08-16T06:15:04Z</time>
      </trkpt>
      <trkpt lat="44.94254" lon="2.52236">
        <ele>874.94</ele>
        <time>2021-08-16T06:15:09Z</time>
      </trkpt>
      <trkpt lat="44.94231" lon="2.52228">
        <ele>874.94</ele>
        <time>2021-08-16T06:15:16Z</time>
      </trkpt>
      <trkpt lat="44.94202" lon="2.52217">
        <ele>874.94</ele>
        <time>2021-08-16T06:15:24Z</time>
      </trkpt>
      <trkpt lat="44.94167" lon="2.52202">
        <ele>875.42</ele>
        <time>2021-08-16T06:15:33Z</time>
      </trkpt>
      <trkpt lat="44.94157" lon="2.52196">
        <ele>875.42</ele>
        <time>2021-08-16T06:15:36Z</time>
      </trkpt>
      <trkpt lat="44.94153" lon="2.52194">
        <ele>875.42</ele>
        <time>2021-08-16T06:15:37Z</time>
      </trkpt>
      <trkpt lat="44.94119" lon="2.52165">
        <ele>875.42</ele>
        <time>2021-08-16T06:15:46Z</time>
      </trkpt>
      <trkpt lat="44.94103" lon="2.52152">
        <ele>875.42</ele>
        <time>2021-08-16T06:15:50Z</time>
      </trkpt>
      <trkpt lat="44.94099" lon="2.52149">
        <ele>875.42</ele>
        <time>2021-08-16T06:15:51Z</time>
      </trkpt>
      <trkpt lat="44.94094" lon="2.52147">
        <ele>874.46</ele>
        <time>2021-08-16T06:15:52Z</time>
      </trkpt>
      <trkpt lat="44.9409" lon="2.52143">
        <ele>874.46</ele>
        <time>2021-08-16T06:15:53Z</time>
      </trkpt>
      <trkpt lat="44.94086" lon="2.5214">
        <ele>874.46</ele>
        <time>2021-08-16T06:15:54Z</time>
      </trkpt>
      <trkpt lat="44.94081" lon="2.52136">
        <ele>874.46</ele>
        <time>2021-08-16T06:15:55Z</time>
      </trkpt>
      <trkpt lat="44.94077" lon="2.52133">
        <ele>874.46</ele>
        <time>2021-08-16T06:15:56Z</time>
      </trkpt>
      <trkpt lat="44.94041" lon="2.52102">
        <ele>873.01</ele>
        <time>2021-08-16T06:16:04Z</time>
      </trkpt>
      <trkpt lat="44.94005" lon="2.52059">
        <ele>872.05</ele>
        <time>2021-08-16T06:16:13Z</time>
      </trkpt>
      <trkpt lat="44.93973" lon="2.52021">
        <ele>872.05</ele>
        <time>2021-08-16T06:16:21Z</time>
      </trkpt>
      <trkpt lat="44.93954" lon="2.51995">
        <ele>871.57</ele>
        <time>2021-08-16T06:16:26Z</time>
      </trkpt>
      <trkpt lat="44.93932" lon="2.51958">
        <ele>871.09</ele>
        <time>2021-08-16T06:16:32Z</time>
      </trkpt>
      <trkpt lat="44.93897" lon="2.51896">
        <ele>869.17</ele>
        <time>2021-08-16T06:16:41Z</time>
      </trkpt>
      <trkpt lat="44.93866" lon="2.51844">
        <ele>868.69</ele>
        <time>2021-08-16T06:16:49Z</time>
      </trkpt>
      <trkpt lat="44.9383" lon="2.51784">
        <ele>867.73</ele>
        <time>2021-08-16T06:16:58Z</time>
      </trkpt>
      <trkpt lat="44.938" lon="2.51734">
        <ele>866.77</ele>
        <time>2021-08-16T06:17:06Z</time>
      </trkpt>
      <trkpt lat="44.93796" lon="2.51728">
        <ele>866.29</ele>
        <time>2021-08-16T06:17:07Z</time>
      </trkpt>
      <trkpt lat="44.93789" lon="2.51717">
        <ele>866.29</ele>
        <time>2021-08-16T06:17:09Z</time>
      </trkpt>
      <trkpt lat="44.93786" lon="2.5171">
        <ele>866.29</ele>
        <time>2021-08-16T06:17:10Z</time>
      </trkpt>
      <trkpt lat="44.93785" lon="2.51702">
        <ele>866.29</ele>
        <time>2021-08-16T06:17:11Z</time>
      </trkpt>
      <trkpt lat="44.93786" lon="2.51695">
        <ele>866.29</ele>
        <time>2021-08-16T06:17:12Z</time>
      </trkpt>
      <trkpt lat="44.93787" lon="2.51688">
        <ele>866.29</ele>
        <time>2021-08-16T06:17:13Z</time>
      </trkpt>
      <trkpt lat="44.9379" lon="2.51683">
        <ele>866.29</ele>
        <time>2021-08-16T06:17:14Z</time>
      </trkpt>
      <trkpt lat="44.93794" lon="2.51677">
        <ele>866.29</ele>
        <time>2021-08-16T06:17:15Z</time>
      </trkpt>
      <trkpt lat="44.93797" lon="2.51672">
        <ele>866.29</ele>
        <time>2021-08-16T06:17:16Z</time>
      </trkpt>
      <trkpt lat="44.93823" lon="2.51632">
        <ele>864.84</ele>
        <time>2021-08-16T06:17:23Z</time>
      </trkpt>
      <trkpt lat="44.9383" lon="2.51619">
        <ele>863.4</ele>
        <time>2021-08-16T06:17:25Z</time>
      </trkpt>
      <trkpt lat="44.93832" lon="2.51613">
        <ele>863.4</ele>
        <time>2021-08-16T06:17:26Z</time>
      </trkpt>
      <trkpt lat="44.93834" lon="2.51604">
        <ele>862.44</ele>
        <time>2021-08-16T06:17:27Z</time>
      </trkpt>
      <trkpt lat="44.93834" lon="2.51596">
        <ele>861.96</ele>
        <time>2021-08-16T06:17:28Z</time>
      </trkpt>
      <trkpt lat="44.9383" lon="2.51589">
        <ele>861.48</ele>
        <time>2021-08-16T06:17:29Z</time>
      </trkpt>
      <trkpt lat="44.93824" lon="2.51585">
        <ele>861.48</ele>
        <time>2021-08-16T06:17:30Z</time>
      </trkpt>
      <trkpt lat="44.93817" lon="2.51579">
        <ele>861.48</ele>
        <time>2021-08-16T06:17:31Z</time>
      </trkpt>
      <trkpt lat="44.9381" lon="2.51574">
        <ele>861</ele>
        <time>2021-08-16T06:17:32Z</time>
      </trkpt>
      <trkpt lat="44.93805" lon="2.51568">
        <ele>860.52</ele>
        <time>2021-08-16T06:17:33Z</time>
      </trkpt>
      <trkpt lat="44.93799" lon="2.51561">
        <ele>860.04</ele>
        <time>2021-08-16T06:17:34Z</time>
      </trkpt>
      <trkpt lat="44.93773" lon="2.51533">
        <ele>856.67</ele>
        <time>2021-08-16T06:17:38Z</time>
      </trkpt>
      <trkpt lat="44.9376" lon="2.51518">
        <ele>855.23</ele>
        <time>2021-08-16T06:17:40Z</time>
      </trkpt>
      <trkpt lat="44.93712" lon="2.51458">
        <ele>850.9</ele>
        <time>2021-08-16T06:17:48Z</time>
      </trkpt>
      <trkpt lat="44.93689" lon="2.51419">
        <ele>847.54</ele>
        <time>2021-08-16T06:17:52Z</time>
      </trkpt>
      <trkpt lat="44.93673" lon="2.51385">
        <ele>843.69</ele>
        <time>2021-08-16T06:17:55Z</time>
      </trkpt>
      <trkpt lat="44.93649" lon="2.51342">
        <ele>839.37</ele>
        <time>2021-08-16T06:17:59Z</time>
      </trkpt>
      <trkpt lat="44.93597" lon="2.51246">
        <ele>837.45</ele>
        <time>2021-08-16T06:18:08Z</time>
      </trkpt>
      <trkpt lat="44.93558" lon="2.51169">
        <ele>835.52</ele>
        <time>2021-08-16T06:18:16Z</time>
      </trkpt>
      <trkpt lat="44.93544" lon="2.51122">
        <ele>836.96</ele>
        <time>2021-08-16T06:18:22Z</time>
      </trkpt>
      <trkpt lat="44.93539" lon="2.51105">
        <ele>836.96</ele>
        <time>2021-08-16T06:18:25Z</time>
      </trkpt>
      <trkpt lat="44.93537" lon="2.51099">
        <ele>836.96</ele>
        <time>2021-08-16T06:18:26Z</time>
      </trkpt>
      <trkpt lat="44.93535" lon="2.51093">
        <ele>836.96</ele>
        <time>2021-08-16T06:18:27Z</time>
      </trkpt>
      <trkpt lat="44.93531" lon="2.51081">
        <ele>836.96</ele>
        <time>2021-08-16T06:18:29Z</time>
      </trkpt>
      <trkpt lat="44.93519" lon="2.51041">
        <ele>835.52</ele>
        <time>2021-08-16T06:18:35Z</time>
      </trkpt>
      <trkpt lat="44.935" lon="2.50989">
        <ele>831.2</ele>
        <time>2021-08-16T06:18:42Z</time>
      </trkpt>
      <trkpt lat="44.93493" lon="2.50972">
        <ele>830.24</ele>
        <time>2021-08-16T06:18:44Z</time>
      </trkpt>
      <trkpt lat="44.93488" lon="2.50964">
        <ele>829.27</ele>
        <time>2021-08-16T06:18:45Z</time>
      </trkpt>
      <trkpt lat="44.93448" lon="2.50912">
        <ele>826.39</ele>
        <time>2021-08-16T06:18:52Z</time>
      </trkpt>
      <trkpt lat="44.93399" lon="2.50871">
        <ele>823.51</ele>
        <time>2021-08-16T06:18:59Z</time>
      </trkpt>
      <trkpt lat="44.93354" lon="2.5084">
        <ele>819.66</ele>
        <time>2021-08-16T06:19:05Z</time>
      </trkpt>
      <trkpt lat="44.93331" lon="2.50823">
        <ele>816.3</ele>
        <time>2021-08-16T06:19:09Z</time>
      </trkpt>
      <trkpt lat="44.93306" lon="2.50804">
        <ele>811.97</ele>
        <time>2021-08-16T06:19:14Z</time>
      </trkpt>
      <trkpt lat="44.93294" lon="2.50795">
        <ele>810.05</ele>
        <time>2021-08-16T06:19:16Z</time>
      </trkpt>
      <trkpt lat="44.93281" lon="2.50789">
        <ele>807.64</ele>
        <time>2021-08-16T06:19:18Z</time>
      </trkpt>
      <trkpt lat="44.93275" lon="2.50787">
        <ele>806.68</ele>
        <time>2021-08-16T06:19:19Z</time>
      </trkpt>
      <trkpt lat="44.93253" lon="2.50784">
        <ele>803.32</ele>
        <time>2021-08-16T06:19:23Z</time>
      </trkpt>
      <trkpt lat="44.93234" lon="2.50782">
        <ele>799.95</ele>
        <time>2021-08-16T06:19:27Z</time>
      </trkpt>
      <trkpt lat="44.93227" lon="2.50775">
        <ele>798.51</ele>
        <time>2021-08-16T06:19:30Z</time>
      </trkpt>
      <trkpt lat="44.93227" lon="2.50772">
        <ele>798.99</ele>
        <time>2021-08-16T06:19:31Z</time>
      </trkpt>
      <trkpt lat="44.93228" lon="2.5077">
        <ele>798.99</ele>
        <time>2021-08-16T06:19:32Z</time>
      </trkpt>
      <trkpt lat="44.93229" lon="2.50769">
        <ele>798.99</ele>
        <time>2021-08-16T06:19:33Z</time>
      </trkpt>
      <trkpt lat="44.93235" lon="2.50765">
        <ele>799.95</ele>
        <time>2021-08-16T06:19:41Z</time>
      </trkpt>
      <trkpt lat="44.93244" lon="2.5076">
        <ele>800.44</ele>
        <time>2021-08-16T06:19:47Z</time>
      </trkpt>
      <trkpt lat="44.93245" lon="2.50758">
        <ele>800.44</ele>
        <time>2021-08-16T06:19:48Z</time>
      </trkpt>
      <trkpt lat="44.93247" lon="2.50757">
        <ele>800.44</ele>
        <time>2021-08-16T06:19:49Z</time>
      </trkpt>
      <trkpt lat="44.93248" lon="2.50756">
        <ele>800.44</ele>
        <time>2021-08-16T06:19:50Z</time>
      </trkpt>
      <trkpt lat="44.9325" lon="2.50755">
        <ele>800.44</ele>
        <time>2021-08-16T06:19:51Z</time>
      </trkpt>
      <trkpt lat="44.93252" lon="2.50753">
        <ele>800.44</ele>
        <time>2021-08-16T06:19:52Z</time>
      </trkpt>
      <trkpt lat="44.93278" lon="2.50741">
        <ele>800.44</ele>
        <time>2021-08-16T06:20:00Z</time>
      </trkpt>
      <trkpt lat="44.93282" lon="2.5074">
        <ele>800.44</ele>
        <time>2021-08-16T06:20:01Z</time>
      </trkpt>
      <trkpt lat="44.93286" lon="2.50739">
        <ele>798.99</ele>
        <time>2021-08-16T06:20:02Z</time>
      </trkpt>
      <trkpt lat="44.93296" lon="2.50738">
        <ele>798.03</ele>
        <time>2021-08-16T06:20:04Z</time>
      </trkpt>
      <trkpt lat="44.93311" lon="2.50736">
        <ele>796.59</ele>
        <time>2021-08-16T06:20:07Z</time>
      </trkpt>
      <trkpt lat="44.93322" lon="2.50737">
        <ele>795.15</ele>
        <time>2021-08-16T06:20:10Z</time>
      </trkpt>
      <trkpt lat="44.93327" lon="2.50739">
        <ele>794.19</ele>
        <time>2021-08-16T06:20:11Z</time>
      </trkpt>
      <trkpt lat="44.93332" lon="2.5074">
        <ele>793.22</ele>
        <time>2021-08-16T06:20:12Z</time>
      </trkpt>
      <trkpt lat="44.93356" lon="2.50746">
        <ele>790.34</ele>
        <time>2021-08-16T06:20:16Z</time>
      </trkpt>
      <trkpt lat="44.93376" lon="2.50754">
        <ele>788.9</ele>
        <time>2021-08-16T06:20:19Z</time>
      </trkpt>
      <trkpt lat="44.93415" lon="2.50765">
        <ele>785.53</ele>
        <time>2021-08-16T06:20:25Z</time>
      </trkpt>
      <trkpt lat="44.93421" lon="2.50765">
        <ele>784.57</ele>
        <time>2021-08-16T06:20:26Z</time>
      </trkpt>
      <trkpt lat="44.93431" lon="2.50765">
        <ele>783.61</ele>
        <time>2021-08-16T06:20:27Z</time>
      </trkpt>
      <trkpt lat="44.93439" lon="2.50765">
        <ele>782.65</ele>
        <time>2021-08-16T06:20:28Z</time>
      </trkpt>
      <trkpt lat="44.93446" lon="2.50765">
        <ele>783.13</ele>
        <time>2021-08-16T06:20:29Z</time>
      </trkpt>
      <trkpt lat="44.93454" lon="2.50765">
        <ele>782.17</ele>
        <time>2021-08-16T06:20:30Z</time>
      </trkpt>
      <trkpt lat="44.93462" lon="2.50764">
        <ele>781.69</ele>
        <time>2021-08-16T06:20:31Z</time>
      </trkpt>
      <trkpt lat="44.93469" lon="2.50763">
        <ele>781.69</ele>
        <time>2021-08-16T06:20:32Z</time>
      </trkpt>
      <trkpt lat="44.93488" lon="2.5076">
        <ele>780.73</ele>
        <time>2021-08-16T06:20:35Z</time>
      </trkpt>
      <trkpt lat="44.93493" lon="2.50758">
        <ele>780.25</ele>
        <time>2021-08-16T06:20:36Z</time>
      </trkpt>
      <trkpt lat="44.93497" lon="2.50754">
        <ele>779.77</ele>
        <time>2021-08-16T06:20:37Z</time>
      </trkpt>
      <trkpt lat="44.93501" lon="2.50749">
        <ele>778.81</ele>
        <time>2021-08-16T06:20:38Z</time>
      </trkpt>
      <trkpt lat="44.93505" lon="2.50745">
        <ele>778.32</ele>
        <time>2021-08-16T06:20:39Z</time>
      </trkpt>
      <trkpt lat="44.93509" lon="2.50744">
        <ele>778.32</ele>
        <time>2021-08-16T06:20:40Z</time>
      </trkpt>
      <trkpt lat="44.93512" lon="2.50745">
        <ele>777.36</ele>
        <time>2021-08-16T06:20:41Z</time>
      </trkpt>
      <trkpt lat="44.93516" lon="2.50745">
        <ele>776.88</ele>
        <time>2021-08-16T06:20:42Z</time>
      </trkpt>
      <trkpt lat="44.93533" lon="2.50747">
        <ele>773.04</ele>
        <time>2021-08-16T06:20:48Z</time>
      </trkpt>
      <trkpt lat="44.9355" lon="2.50763">
        <ele>769.67</ele>
        <time>2021-08-16T06:20:53Z</time>
      </trkpt>
      <trkpt lat="44.93565" lon="2.50776">
        <ele>766.31</ele>
        <time>2021-08-16T06:20:57Z</time>
      </trkpt>
      <trkpt lat="44.93568" lon="2.50779">
        <ele>766.31</ele>
        <time>2021-08-16T06:20:58Z</time>
      </trkpt>
      <trkpt lat="44.93572" lon="2.50782">
        <ele>766.31</ele>
        <time>2021-08-16T06:21:02Z</time>
      </trkpt>
      <trkpt lat="44.93574" lon="2.50786">
        <ele>765.83</ele>
        <time>2021-08-16T06:21:15Z</time>
      </trkpt>
      <trkpt lat="44.93571" lon="2.50789">
        <ele>765.83</ele>
        <time>2021-08-16T06:21:31Z</time>
      </trkpt>
      <trkpt lat="44.93578" lon="2.50786">
        <ele>765.83</ele>
        <time>2021-08-16T06:21:49Z</time>
      </trkpt>
      <trkpt lat="44.93581" lon="2.50784">
        <ele>765.83</ele>
        <time>2021-08-16T06:22:06Z</time>
      </trkpt>
      <trkpt lat="44.93582" lon="2.50783">
        <ele>765.35</ele>
        <time>2021-08-16T06:22:23Z</time>
      </trkpt>
      <trkpt lat="44.93582" lon="2.50786">
        <ele>765.35</ele>
        <time>2021-08-16T06:22:38Z</time>
      </trkpt>
      <trkpt lat="44.93584" lon="2.50787">
        <ele>766.31</ele>
        <time>2021-08-16T06:22:53Z</time>
      </trkpt>
      <trkpt lat="44.93583" lon="2.50786">
        <ele>766.31</ele>
        <time>2021-08-16T06:23:05Z</time>
      </trkpt>
      <trkpt lat="44.93589" lon="2.50785">
        <ele>766.31</ele>
        <time>2021-08-16T06:23:20Z</time>
      </trkpt>
      <trkpt lat="44.93589" lon="2.50785">
        <ele>766.31</ele>
        <time>2021-08-16T06:23:40Z</time>
      </trkpt>
      <trkpt lat="44.93588" lon="2.50789">
        <ele>766.31</ele>
        <time>2021-08-16T06:23:57Z</time>
      </trkpt>
      <trkpt lat="44.93589" lon="2.50784">
        <ele>765.35</ele>
        <time>2021-08-16T06:24:16Z</time>
      </trkpt>
      <trkpt lat="44.93591" lon="2.50782">
        <ele>765.35</ele>
        <time>2021-08-16T06:24:37Z</time>
      </trkpt>
      <trkpt lat="44.93593" lon="2.50783">
        <ele>765.35</ele>
        <time>2021-08-16T06:24:58Z</time>
      </trkpt>
      <trkpt lat="44.93594" lon="2.50783">
        <ele>765.35</ele>
        <time>2021-08-16T06:25:15Z</time>
      </trkpt>
      <trkpt lat="44.93593" lon="2.50783">
        <ele>764.87</ele>
        <time>2021-08-16T06:25:28Z</time>
      </trkpt>
      <trkpt lat="44.93593" lon="2.5078">
        <ele>764.87</ele>
        <time>2021-08-16T06:25:46Z</time>
      </trkpt>
      <trkpt lat="44.93595" lon="2.50779">
        <ele>764.87</ele>
        <time>2021-08-16T06:26:02Z</time>
      </trkpt>
      <trkpt lat="44.93594" lon="2.50783">
        <ele>764.87</ele>
        <time>2021-08-16T06:26:19Z</time>
      </trkpt>
      <trkpt lat="44.93591" lon="2.50782">
        <ele>764.87</ele>
        <time>2021-08-16T06:26:34Z</time>
      </trkpt>
      <trkpt lat="44.93592" lon="2.50783">
        <ele>764.87</ele>
        <time>2021-08-16T06:26:51Z</time>
      </trkpt>
      <trkpt lat="44.93591" lon="2.50784">
        <ele>764.87</ele>
        <time>2021-08-16T06:27:07Z</time>
      </trkpt>
      <trkpt lat="44.93591" lon="2.5078">
        <ele>765.35</ele>
        <time>2021-08-16T06:27:23Z</time>
      </trkpt>
      <trkpt lat="44.93591" lon="2.50778">
        <ele>765.35</ele>
        <time>2021-08-16T06:27:34Z</time>
      </trkpt>
      <trkpt lat="44.93593" lon="2.50776">
        <ele>765.35</ele>
        <time>2021-08-16T06:27:46Z</time>
      </trkpt>
      <trkpt lat="44.93593" lon="2.50779">
        <ele>764.87</ele>
        <time>2021-08-16T06:28:04Z</time>
      </trkpt>
      <trkpt lat="44.93595" lon="2.50776">
        <ele>764.87</ele>
        <time>2021-08-16T06:28:17Z</time>
      </trkpt>
      <trkpt lat="44.93594" lon="2.50772">
        <ele>764.87</ele>
        <time>2021-08-16T06:28:30Z</time>
      </trkpt>
      <trkpt lat="44.93592" lon="2.50775">
        <ele>764.87</ele>
        <time>2021-08-16T06:28:45Z</time>
      </trkpt>
      <trkpt lat="44.9359" lon="2.50777">
        <ele>764.87</ele>
        <time>2021-08-16T06:29:00Z</time>
      </trkpt>
      <trkpt lat="44.93589" lon="2.50775">
        <ele>764.87</ele>
        <time>2021-08-16T06:29:13Z</time>
      </trkpt>
      <trkpt lat="44.93588" lon="2.50775">
        <ele>764.87</ele>
        <time>2021-08-16T06:29:27Z</time>
      </trkpt>
      <trkpt lat="44.9359" lon="2.50777">
        <ele>764.87</ele>
        <time>2021-08-16T06:29:32Z</time>
      </trkpt>
      <trkpt lat="44.9359" lon="2.50778">
        <ele>764.87</ele>
        <time>2021-08-16T06:29:33Z</time>
      </trkpt>
      <trkpt lat="44.93595" lon="2.50781">
        <ele>764.87</ele>
        <time>2021-08-16T06:29:38Z</time>
      </trkpt>
      <trkpt lat="44.93597" lon="2.5078">
        <ele>764.87</ele>
        <time>2021-08-16T06:29:39Z</time>
      </trkpt>
      <trkpt lat="44.93599" lon="2.50779">
        <ele>764.87</ele>
        <time>2021-08-16T06:29:40Z</time>
      </trkpt>
      <trkpt lat="44.93602" lon="2.50777">
        <ele>764.87</ele>
        <time>2021-08-16T06:29:41Z</time>
      </trkpt>
      <trkpt lat="44.93604" lon="2.50775">
        <ele>764.87</ele>
        <time>2021-08-16T06:29:42Z</time>
      </trkpt>
      <trkpt lat="44.93606" lon="2.50772">
        <ele>764.87</ele>
        <time>2021-08-16T06:29:43Z</time>
      </trkpt>
      <trkpt lat="44.93614" lon="2.50753">
        <ele>766.31</ele>
        <time>2021-08-16T06:29:50Z</time>
      </trkpt>
      <trkpt lat="44.93621" lon="2.50732">
        <ele>767.75</ele>
        <time>2021-08-16T06:29:59Z</time>
      </trkpt>
      <trkpt lat="44.93626" lon="2.50721">
        <ele>769.19</ele>
        <time>2021-08-16T06:30:08Z</time>
      </trkpt>
      <trkpt lat="44.93633" lon="2.50705">
        <ele>771.11</ele>
        <time>2021-08-16T06:30:19Z</time>
      </trkpt>
      <trkpt lat="44.93638" lon="2.50694">
        <ele>772.56</ele>
        <time>2021-08-16T06:30:29Z</time>
      </trkpt>
      <trkpt lat="44.93642" lon="2.50685">
        <ele>773.52</ele>
        <time>2021-08-16T06:30:37Z</time>
      </trkpt>
      <trkpt lat="44.93648" lon="2.50678">
        <ele>775.44</ele>
        <time>2021-08-16T06:30:46Z</time>
      </trkpt>
      <trkpt lat="44.93655" lon="2.50671">
        <ele>777.84</ele>
        <time>2021-08-16T06:30:57Z</time>
      </trkpt>
      <trkpt lat="44.93662" lon="2.50668">
        <ele>779.29</ele>
        <time>2021-08-16T06:31:07Z</time>
      </trkpt>
      <trkpt lat="44.9367" lon="2.50668">
        <ele>780.73</ele>
        <time>2021-08-16T06:31:16Z</time>
      </trkpt>
      <trkpt lat="44.93678" lon="2.50664">
        <ele>782.65</ele>
        <time>2021-08-16T06:31:26Z</time>
      </trkpt>
      <trkpt lat="44.9368" lon="2.50662">
        <ele>782.65</ele>
        <time>2021-08-16T06:31:29Z</time>
      </trkpt>
      <trkpt lat="44.93681" lon="2.50662">
        <ele>782.65</ele>
        <time>2021-08-16T06:31:30Z</time>
      </trkpt>
      <trkpt lat="44.93682" lon="2.50661">
        <ele>782.65</ele>
        <time>2021-08-16T06:31:31Z</time>
      </trkpt>
      <trkpt lat="44.93683" lon="2.5066">
        <ele>783.13</ele>
        <time>2021-08-16T06:31:32Z</time>
      </trkpt>
      <trkpt lat="44.93684" lon="2.5066">
        <ele>783.13</ele>
        <time>2021-08-16T06:31:38Z</time>
      </trkpt>
      <trkpt lat="44.93688" lon="2.50655">
        <ele>783.13</ele>
        <time>2021-08-16T06:31:49Z</time>
      </trkpt>
      <trkpt lat="44.93698" lon="2.50636">
        <ele>783.61</ele>
        <time>2021-08-16T06:31:57Z</time>
      </trkpt>
      <trkpt lat="44.93712" lon="2.50625">
        <ele>779.77</ele>
        <time>2021-08-16T06:32:02Z</time>
      </trkpt>
      <trkpt lat="44.93716" lon="2.50626">
        <ele>779.29</ele>
        <time>2021-08-16T06:32:03Z</time>
      </trkpt>
      <trkpt lat="44.93721" lon="2.50629">
        <ele>778.81</ele>
        <time>2021-08-16T06:32:04Z</time>
      </trkpt>
      <trkpt lat="44.93725" lon="2.50633">
        <ele>778.32</ele>
        <time>2021-08-16T06:32:05Z</time>
      </trkpt>
      <trkpt lat="44.93729" lon="2.50637">
        <ele>778.32</ele>
        <time>2021-08-16T06:32:06Z</time>
      </trkpt>
      <trkpt lat="44.93746" lon="2.50655">
        <ele>776.4</ele>
        <time>2021-08-16T06:32:10Z</time>
      </trkpt>
      <trkpt lat="44.9375" lon="2.5066">
        <ele>775.44</ele>
        <time>2021-08-16T06:32:11Z</time>
      </trkpt>
      <trkpt lat="44.93754" lon="2.50664">
        <ele>775.44</ele>
        <time>2021-08-16T06:32:12Z</time>
      </trkpt>
      <trkpt lat="44.93758" lon="2.50666">
        <ele>774.48</ele>
        <time>2021-08-16T06:32:13Z</time>
      </trkpt>
      <trkpt lat="44.93761" lon="2.50665">
        <ele>774.48</ele>
        <time>2021-08-16T06:32:14Z</time>
      </trkpt>
      <trkpt lat="44.93763" lon="2.50662">
        <ele>773.52</ele>
        <time>2021-08-16T06:32:15Z</time>
      </trkpt>
      <trkpt lat="44.93765" lon="2.50656">
        <ele>772.56</ele>
        <time>2021-08-16T06:32:16Z</time>
      </trkpt>
      <trkpt lat="44.93764" lon="2.5065">
        <ele>772.08</ele>
        <time>2021-08-16T06:32:17Z</time>
      </trkpt>
      <trkpt lat="44.93762" lon="2.50643">
        <ele>772.08</ele>
        <time>2021-08-16T06:32:18Z</time>
      </trkpt>
      <trkpt lat="44.9376" lon="2.50636">
        <ele>771.6</ele>
        <time>2021-08-16T06:32:19Z</time>
      </trkpt>
      <trkpt lat="44.93755" lon="2.5062">
        <ele>770.63</ele>
        <time>2021-08-16T06:32:21Z</time>
      </trkpt>
      <trkpt lat="44.93746" lon="2.50584">
        <ele>768.23</ele>
        <time>2021-08-16T06:32:26Z</time>
      </trkpt>
      <trkpt lat="44.93745" lon="2.50577">
        <ele>767.75</ele>
        <time>2021-08-16T06:32:27Z</time>
      </trkpt>
      <trkpt lat="44.93738" lon="2.50537">
        <ele>764.87</ele>
        <time>2021-08-16T06:32:33Z</time>
      </trkpt>
      <trkpt lat="44.93735" lon="2.50522">
        <ele>763.42</ele>
        <time>2021-08-16T06:32:35Z</time>
      </trkpt>
      <trkpt lat="44.93729" lon="2.50485">
        <ele>760.06</ele>
        <time>2021-08-16T06:32:40Z</time>
      </trkpt>
      <trkpt lat="44.93726" lon="2.50464">
        <ele>758.62</ele>
        <time>2021-08-16T06:32:43Z</time>
      </trkpt>
      <trkpt lat="44.93726" lon="2.50458">
        <ele>757.66</ele>
        <time>2021-08-16T06:32:44Z</time>
      </trkpt>
      <trkpt lat="44.93726" lon="2.50452">
        <ele>756.69</ele>
        <time>2021-08-16T06:32:45Z</time>
      </trkpt>
      <trkpt lat="44.93728" lon="2.50448">
        <ele>755.73</ele>
        <time>2021-08-16T06:32:46Z</time>
      </trkpt>
      <trkpt lat="44.93731" lon="2.50444">
        <ele>754.77</ele>
        <time>2021-08-16T06:32:47Z</time>
      </trkpt>
      <trkpt lat="44.93735" lon="2.50443">
        <ele>754.29</ele>
        <time>2021-08-16T06:32:48Z</time>
      </trkpt>
      <trkpt lat="44.93741" lon="2.50444">
        <ele>753.33</ele>
        <time>2021-08-16T06:32:49Z</time>
      </trkpt>
      <trkpt lat="44.93745" lon="2.50445">
        <ele>752.37</ele>
        <time>2021-08-16T06:32:50Z</time>
      </trkpt>
      <trkpt lat="44.93751" lon="2.50448">
        <ele>751.41</ele>
        <time>2021-08-16T06:32:51Z</time>
      </trkpt>
      <trkpt lat="44.93757" lon="2.50451">
        <ele>750.45</ele>
        <time>2021-08-16T06:32:52Z</time>
      </trkpt>
      <trkpt lat="44.93762" lon="2.50454">
        <ele>749.49</ele>
        <time>2021-08-16T06:32:53Z</time>
      </trkpt>
      <trkpt lat="44.9377" lon="2.50457">
        <ele>748.04</ele>
        <time>2021-08-16T06:32:54Z</time>
      </trkpt>
      <trkpt lat="44.93776" lon="2.5046">
        <ele>747.56</ele>
        <time>2021-08-16T06:32:55Z</time>
      </trkpt>
      <trkpt lat="44.93793" lon="2.50468">
        <ele>744.2</ele>
        <time>2021-08-16T06:32:58Z</time>
      </trkpt>
      <trkpt lat="44.93811" lon="2.50475">
        <ele>741.31</ele>
        <time>2021-08-16T06:33:01Z</time>
      </trkpt>
      <trkpt lat="44.93816" lon="2.50475">
        <ele>741.31</ele>
        <time>2021-08-16T06:33:02Z</time>
      </trkpt>
      <trkpt lat="44.93821" lon="2.50473">
        <ele>740.35</ele>
        <time>2021-08-16T06:33:03Z</time>
      </trkpt>
      <trkpt lat="44.93824" lon="2.5047">
        <ele>738.91</ele>
        <time>2021-08-16T06:33:04Z</time>
      </trkpt>
      <trkpt lat="44.93826" lon="2.50465">
        <ele>738.43</ele>
        <time>2021-08-16T06:33:05Z</time>
      </trkpt>
      <trkpt lat="44.93826" lon="2.50459">
        <ele>738.43</ele>
        <time>2021-08-16T06:33:06Z</time>
      </trkpt>
      <trkpt lat="44.93824" lon="2.50455">
        <ele>737.95</ele>
        <time>2021-08-16T06:33:07Z</time>
      </trkpt>
      <trkpt lat="44.93821" lon="2.50449">
        <ele>738.43</ele>
        <time>2021-08-16T06:33:08Z</time>
      </trkpt>
      <trkpt lat="44.93801" lon="2.50418">
        <ele>736.03</ele>
        <time>2021-08-16T06:33:13Z</time>
      </trkpt>
      <trkpt lat="44.93784" lon="2.50378">
        <ele>733.62</ele>
        <time>2021-08-16T06:33:18Z</time>
      </trkpt>
      <trkpt lat="44.93782" lon="2.5037">
        <ele>732.66</ele>
        <time>2021-08-16T06:33:19Z</time>
      </trkpt>
      <trkpt lat="44.9378" lon="2.50362">
        <ele>732.18</ele>
        <time>2021-08-16T06:33:20Z</time>
      </trkpt>
      <trkpt lat="44.93779" lon="2.50354">
        <ele>731.22</ele>
        <time>2021-08-16T06:33:21Z</time>
      </trkpt>
      <trkpt lat="44.93779" lon="2.50345">
        <ele>730.26</ele>
        <time>2021-08-16T06:33:22Z</time>
      </trkpt>
      <trkpt lat="44.93779" lon="2.50338">
        <ele>729.78</ele>
        <time>2021-08-16T06:33:23Z</time>
      </trkpt>
      <trkpt lat="44.93779" lon="2.50323">
        <ele>728.82</ele>
        <time>2021-08-16T06:33:25Z</time>
      </trkpt>
      <trkpt lat="44.93781" lon="2.50301">
        <ele>726.89</ele>
        <time>2021-08-16T06:33:28Z</time>
      </trkpt>
      <trkpt lat="44.93779" lon="2.5025">
        <ele>724.01</ele>
        <time>2021-08-16T06:33:34Z</time>
      </trkpt>
      <trkpt lat="44.93779" lon="2.50244">
        <ele>723.53</ele>
        <time>2021-08-16T06:33:35Z</time>
      </trkpt>
      <trkpt lat="44.9378" lon="2.50237">
        <ele>722.09</ele>
        <time>2021-08-16T06:33:36Z</time>
      </trkpt>
      <trkpt lat="44.93782" lon="2.50232">
        <ele>721.61</ele>
        <time>2021-08-16T06:33:37Z</time>
      </trkpt>
      <trkpt lat="44.93786" lon="2.50227">
        <ele>720.65</ele>
        <time>2021-08-16T06:33:38Z</time>
      </trkpt>
      <trkpt lat="44.93791" lon="2.50225">
        <ele>720.16</ele>
        <time>2021-08-16T06:33:39Z</time>
      </trkpt>
      <trkpt lat="44.93797" lon="2.50223">
        <ele>719.2</ele>
        <time>2021-08-16T06:33:40Z</time>
      </trkpt>
      <trkpt lat="44.93803" lon="2.50221">
        <ele>718.72</ele>
        <time>2021-08-16T06:33:41Z</time>
      </trkpt>
      <trkpt lat="44.93808" lon="2.50218">
        <ele>717.76</ele>
        <time>2021-08-16T06:33:42Z</time>
      </trkpt>
      <trkpt lat="44.93813" lon="2.50214">
        <ele>717.76</ele>
        <time>2021-08-16T06:33:43Z</time>
      </trkpt>
      <trkpt lat="44.93818" lon="2.5021">
        <ele>717.28</ele>
        <time>2021-08-16T06:33:44Z</time>
      </trkpt>
      <trkpt lat="44.93821" lon="2.50206">
        <ele>717.28</ele>
        <time>2021-08-16T06:33:45Z</time>
      </trkpt>
      <trkpt lat="44.93825" lon="2.502">
        <ele>717.28</ele>
        <time>2021-08-16T06:33:46Z</time>
      </trkpt>
      <trkpt lat="44.93828" lon="2.50195">
        <ele>717.28</ele>
        <time>2021-08-16T06:33:47Z</time>
      </trkpt>
      <trkpt lat="44.9383" lon="2.50188">
        <ele>717.28</ele>
        <time>2021-08-16T06:33:48Z</time>
      </trkpt>
      <trkpt lat="44.9383" lon="2.50182">
        <ele>717.28</ele>
        <time>2021-08-16T06:33:49Z</time>
      </trkpt>
      <trkpt lat="44.9383" lon="2.50175">
        <ele>717.28</ele>
        <time>2021-08-16T06:33:50Z</time>
      </trkpt>
      <trkpt lat="44.9383" lon="2.50139">
        <ele>717.28</ele>
        <time>2021-08-16T06:33:57Z</time>
      </trkpt>
      <trkpt lat="44.9383" lon="2.5012">
        <ele>718.72</ele>
        <time>2021-08-16T06:34:02Z</time>
      </trkpt>
      <trkpt lat="44.93834" lon="2.50084">
        <ele>719.68</ele>
        <time>2021-08-16T06:34:11Z</time>
      </trkpt>
      <trkpt lat="44.9384" lon="2.5004">
        <ele>720.65</ele>
        <time>2021-08-16T06:34:21Z</time>
      </trkpt>
      <trkpt lat="44.93844" lon="2.5001">
        <ele>721.61</ele>
        <time>2021-08-16T06:34:30Z</time>
      </trkpt>
      <trkpt lat="44.93843" lon="2.49976">
        <ele>723.05</ele>
        <time>2021-08-16T06:34:41Z</time>
      </trkpt>
      <trkpt lat="44.93838" lon="2.49943">
        <ele>724.01</ele>
        <time>2021-08-16T06:34:50Z</time>
      </trkpt>
      <trkpt lat="44.93835" lon="2.49912">
        <ele>724.97</ele>
        <time>2021-08-16T06:34:58Z</time>
      </trkpt>
      <trkpt lat="44.9383" lon="2.49884">
        <ele>724.97</ele>
        <time>2021-08-16T06:35:05Z</time>
      </trkpt>
      <trkpt lat="44.93822" lon="2.49847">
        <ele>724.97</ele>
        <time>2021-08-16T06:35:12Z</time>
      </trkpt>
      <trkpt lat="44.93815" lon="2.49821">
        <ele>724.97</ele>
        <time>2021-08-16T06:35:16Z</time>
      </trkpt>
      <trkpt lat="44.93807" lon="2.49775">
        <ele>724.97</ele>
        <time>2021-08-16T06:35:23Z</time>
      </trkpt>
      <trkpt lat="44.93806" lon="2.49769">
        <ele>724.97</ele>
        <time>2021-08-16T06:35:24Z</time>
      </trkpt>
      <trkpt lat="44.93805" lon="2.49762">
        <ele>724.97</ele>
        <time>2021-08-16T06:35:25Z</time>
      </trkpt>
      <trkpt lat="44.93804" lon="2.49755">
        <ele>724.97</ele>
        <time>2021-08-16T06:35:26Z</time>
      </trkpt>
      <trkpt lat="44.93804" lon="2.49748">
        <ele>724.97</ele>
        <time>2021-08-16T06:35:27Z</time>
      </trkpt>
      <trkpt lat="44.93801" lon="2.49698">
        <ele>724.97</ele>
        <time>2021-08-16T06:35:35Z</time>
      </trkpt>
      <trkpt lat="44.93796" lon="2.49658">
        <ele>726.41</ele>
        <time>2021-08-16T06:35:44Z</time>
      </trkpt>
      <trkpt lat="44.93797" lon="2.49632">
        <ele>727.86</ele>
        <time>2021-08-16T06:35:52Z</time>
      </trkpt>
      <trkpt lat="44.93799" lon="2.496">
        <ele>729.3</ele>
        <time>2021-08-16T06:36:02Z</time>
      </trkpt>
      <trkpt lat="44.93804" lon="2.49576">
        <ele>730.74</ele>
        <time>2021-08-16T06:36:10Z</time>
      </trkpt>
      <trkpt lat="44.93815" lon="2.49543">
        <ele>731.7</ele>
        <time>2021-08-16T06:36:21Z</time>
      </trkpt>
      <trkpt lat="44.93825" lon="2.4952">
        <ele>731.7</ele>
        <time>2021-08-16T06:36:27Z</time>
      </trkpt>
      <trkpt lat="44.93828" lon="2.49504">
        <ele>731.7</ele>
        <time>2021-08-16T06:36:30Z</time>
      </trkpt>
      <trkpt lat="44.93828" lon="2.49498">
        <ele>731.7</ele>
        <time>2021-08-16T06:36:31Z</time>
      </trkpt>
      <trkpt lat="44.93827" lon="2.49493">
        <ele>731.7</ele>
        <time>2021-08-16T06:36:32Z</time>
      </trkpt>
      <trkpt lat="44.93824" lon="2.49487">
        <ele>731.7</ele>
        <time>2021-08-16T06:36:33Z</time>
      </trkpt>
      <trkpt lat="44.93821" lon="2.49482">
        <ele>731.7</ele>
        <time>2021-08-16T06:36:34Z</time>
      </trkpt>
      <trkpt lat="44.93816" lon="2.49479">
        <ele>731.7</ele>
        <time>2021-08-16T06:36:35Z</time>
      </trkpt>
      <trkpt lat="44.93811" lon="2.49476">
        <ele>730.26</ele>
        <time>2021-08-16T06:36:36Z</time>
      </trkpt>
      <trkpt lat="44.93805" lon="2.49475">
        <ele>730.26</ele>
        <time>2021-08-16T06:36:37Z</time>
      </trkpt>
      <trkpt lat="44.938" lon="2.49474">
        <ele>729.78</ele>
        <time>2021-08-16T06:36:38Z</time>
      </trkpt>
      <trkpt lat="44.93772" lon="2.49468">
        <ele>729.78</ele>
        <time>2021-08-16T06:36:44Z</time>
      </trkpt>
      <trkpt lat="44.93749" lon="2.49457">
        <ele>731.7</ele>
        <time>2021-08-16T06:36:51Z</time>
      </trkpt>
      <trkpt lat="44.93719" lon="2.49438">
        <ele>733.62</ele>
        <time>2021-08-16T06:37:01Z</time>
      </trkpt>
      <trkpt lat="44.93695" lon="2.49416">
        <ele>734.58</ele>
        <time>2021-08-16T06:37:11Z</time>
      </trkpt>
      <trkpt lat="44.93677" lon="2.49394">
        <ele>736.03</ele>
        <time>2021-08-16T06:37:19Z</time>
      </trkpt>
      <trkpt lat="44.93669" lon="2.49381">
        <ele>736.51</ele>
        <time>2021-08-16T06:37:24Z</time>
      </trkpt>
      <trkpt lat="44.9366" lon="2.4936">
        <ele>737.95</ele>
        <time>2021-08-16T06:37:32Z</time>
      </trkpt>
      <trkpt lat="44.93649" lon="2.4933">
        <ele>739.87</ele>
        <time>2021-08-16T06:37:43Z</time>
      </trkpt>
      <trkpt lat="44.93643" lon="2.49308">
        <ele>740.83</ele>
        <time>2021-08-16T06:37:51Z</time>
      </trkpt>
      <trkpt lat="44.93634" lon="2.49278">
        <ele>742.28</ele>
        <time>2021-08-16T06:38:01Z</time>
      </trkpt>
      <trkpt lat="44.93625" lon="2.4924">
        <ele>743.72</ele>
        <time>2021-08-16T06:38:13Z</time>
      </trkpt>
      <trkpt lat="44.93621" lon="2.49202">
        <ele>744.68</ele>
        <time>2021-08-16T06:38:22Z</time>
      </trkpt>
      <trkpt lat="44.93618" lon="2.49164">
        <ele>745.64</ele>
        <time>2021-08-16T06:38:31Z</time>
      </trkpt>
      <trkpt lat="44.93615" lon="2.49129">
        <ele>746.12</ele>
        <time>2021-08-16T06:38:39Z</time>
      </trkpt>
      <trkpt lat="44.93609" lon="2.49087">
        <ele>746.12</ele>
        <time>2021-08-16T06:38:46Z</time>
      </trkpt>
      <trkpt lat="44.936" lon="2.49053">
        <ele>744.68</ele>
        <time>2021-08-16T06:38:51Z</time>
      </trkpt>
      <trkpt lat="44.93597" lon="2.49048">
        <ele>744.68</ele>
        <time>2021-08-16T06:38:52Z</time>
      </trkpt>
      <trkpt lat="44.93594" lon="2.49042">
        <ele>744.68</ele>
        <time>2021-08-16T06:38:53Z</time>
      </trkpt>
      <trkpt lat="44.9359" lon="2.49038">
        <ele>744.68</ele>
        <time>2021-08-16T06:38:54Z</time>
      </trkpt>
      <trkpt lat="44.93587" lon="2.49036">
        <ele>744.68</ele>
        <time>2021-08-16T06:38:55Z</time>
      </trkpt>
      <trkpt lat="44.93583" lon="2.49033">
        <ele>744.68</ele>
        <time>2021-08-16T06:38:56Z</time>
      </trkpt>
      <trkpt lat="44.93551" lon="2.49015">
        <ele>746.6</ele>
        <time>2021-08-16T06:39:05Z</time>
      </trkpt>
      <trkpt lat="44.9353" lon="2.48999">
        <ele>748.52</ele>
        <time>2021-08-16T06:39:13Z</time>
      </trkpt>
      <trkpt lat="44.93511" lon="2.48977">
        <ele>749.97</ele>
        <time>2021-08-16T06:39:21Z</time>
      </trkpt>
      <trkpt lat="44.93484" lon="2.4895">
        <ele>751.41</ele>
        <time>2021-08-16T06:39:31Z</time>
      </trkpt>
      <trkpt lat="44.93458" lon="2.48918">
        <ele>751.89</ele>
        <time>2021-08-16T06:39:41Z</time>
      </trkpt>
      <trkpt lat="44.93439" lon="2.48892">
        <ele>753.33</ele>
        <time>2021-08-16T06:39:50Z</time>
      </trkpt>
      <trkpt lat="44.93424" lon="2.4886">
        <ele>754.29</ele>
        <time>2021-08-16T06:40:00Z</time>
      </trkpt>
      <trkpt lat="44.93419" lon="2.48831">
        <ele>756.69</ele>
        <time>2021-08-16T06:40:08Z</time>
      </trkpt>
      <trkpt lat="44.93416" lon="2.48796">
        <ele>757.66</ele>
        <time>2021-08-16T06:40:17Z</time>
      </trkpt>
      <trkpt lat="44.93417" lon="2.48753">
        <ele>759.58</ele>
        <time>2021-08-16T06:40:28Z</time>
      </trkpt>
      <trkpt lat="44.9342" lon="2.48719">
        <ele>760.54</ele>
        <time>2021-08-16T06:40:37Z</time>
      </trkpt>
      <trkpt lat="44.93425" lon="2.48678">
        <ele>761.98</ele>
        <time>2021-08-16T06:40:48Z</time>
      </trkpt>
      <trkpt lat="44.93432" lon="2.48644">
        <ele>762.94</ele>
        <time>2021-08-16T06:40:57Z</time>
      </trkpt>
      <trkpt lat="44.93441" lon="2.48609">
        <ele>763.42</ele>
        <time>2021-08-16T06:41:06Z</time>
      </trkpt>
      <trkpt lat="44.93449" lon="2.48579">
        <ele>764.87</ele>
        <time>2021-08-16T06:41:15Z</time>
      </trkpt>
      <trkpt lat="44.93456" lon="2.48554">
        <ele>765.83</ele>
        <time>2021-08-16T06:41:23Z</time>
      </trkpt>
      <trkpt lat="44.93464" lon="2.48522">
        <ele>767.75</ele>
        <time>2021-08-16T06:41:33Z</time>
      </trkpt>
      <trkpt lat="44.93472" lon="2.48492">
        <ele>769.67</ele>
        <time>2021-08-16T06:41:43Z</time>
      </trkpt>
      <trkpt lat="44.93478" lon="2.4847">
        <ele>771.11</ele>
        <time>2021-08-16T06:41:51Z</time>
      </trkpt>
      <trkpt lat="44.93484" lon="2.48447">
        <ele>772.56</ele>
        <time>2021-08-16T06:42:00Z</time>
      </trkpt>
      <trkpt lat="44.93487" lon="2.48416">
        <ele>774.48</ele>
        <time>2021-08-16T06:42:09Z</time>
      </trkpt>
      <trkpt lat="44.93485" lon="2.4839">
        <ele>775.44</ele>
        <time>2021-08-16T06:42:17Z</time>
      </trkpt>
      <trkpt lat="44.9348" lon="2.48374">
        <ele>776.4</ele>
        <time>2021-08-16T06:42:24Z</time>
      </trkpt>
      <trkpt lat="44.93469" lon="2.48347">
        <ele>777.84</ele>
        <time>2021-08-16T06:42:33Z</time>
      </trkpt>
      <trkpt lat="44.9346" lon="2.48309">
        <ele>779.29</ele>
        <time>2021-08-16T06:42:44Z</time>
      </trkpt>
      <trkpt lat="44.93456" lon="2.48283">
        <ele>780.25</ele>
        <time>2021-08-16T06:42:51Z</time>
      </trkpt>
      <trkpt lat="44.93456" lon="2.48246">
        <ele>780.25</ele>
        <time>2021-08-16T06:42:58Z</time>
      </trkpt>
      <trkpt lat="44.93459" lon="2.482">
        <ele>778.81</ele>
        <time>2021-08-16T06:43:05Z</time>
      </trkpt>
      <trkpt lat="44.93461" lon="2.48186">
        <ele>777.84</ele>
        <time>2021-08-16T06:43:07Z</time>
      </trkpt>
      <trkpt lat="44.93462" lon="2.48178">
        <ele>777.84</ele>
        <time>2021-08-16T06:43:08Z</time>
      </trkpt>
      <trkpt lat="44.93464" lon="2.48118">
        <ele>777.36</ele>
        <time>2021-08-16T06:43:16Z</time>
      </trkpt>
      <trkpt lat="44.93469" lon="2.48074">
        <ele>777.84</ele>
        <time>2021-08-16T06:43:23Z</time>
      </trkpt>
      <trkpt lat="44.93474" lon="2.48023">
        <ele>777.36</ele>
        <time>2021-08-16T06:43:30Z</time>
      </trkpt>
      <trkpt lat="44.9348" lon="2.47965">
        <ele>777.36</ele>
        <time>2021-08-16T06:43:37Z</time>
      </trkpt>
      <trkpt lat="44.93485" lon="2.47927">
        <ele>778.32</ele>
        <time>2021-08-16T06:43:43Z</time>
      </trkpt>
      <trkpt lat="44.93486" lon="2.47904">
        <ele>779.77</ele>
        <time>2021-08-16T06:43:49Z</time>
      </trkpt>
      <trkpt lat="44.93486" lon="2.479">
        <ele>779.77</ele>
        <time>2021-08-16T06:43:50Z</time>
      </trkpt>
      <trkpt lat="44.93481" lon="2.47869">
        <ele>780.73</ele>
        <time>2021-08-16T06:43:57Z</time>
      </trkpt>
      <trkpt lat="44.93472" lon="2.47837">
        <ele>782.17</ele>
        <time>2021-08-16T06:44:05Z</time>
      </trkpt>
      <trkpt lat="44.93462" lon="2.47808">
        <ele>782.17</ele>
        <time>2021-08-16T06:44:12Z</time>
      </trkpt>
      <trkpt lat="44.93452" lon="2.47775">
        <ele>783.61</ele>
        <time>2021-08-16T06:44:19Z</time>
      </trkpt>
      <trkpt lat="44.93445" lon="2.47735">
        <ele>784.09</ele>
        <time>2021-08-16T06:44:26Z</time>
      </trkpt>
      <trkpt lat="44.9344" lon="2.477">
        <ele>784.09</ele>
        <time>2021-08-16T06:44:31Z</time>
      </trkpt>
      <trkpt lat="44.93439" lon="2.47693">
        <ele>783.13</ele>
        <time>2021-08-16T06:44:32Z</time>
      </trkpt>
      <trkpt lat="44.93436" lon="2.47663">
        <ele>783.13</ele>
        <time>2021-08-16T06:44:36Z</time>
      </trkpt>
      <trkpt lat="44.93436" lon="2.47657">
        <ele>783.13</ele>
        <time>2021-08-16T06:44:37Z</time>
      </trkpt>
      <trkpt lat="44.93434" lon="2.47638">
        <ele>782.65</ele>
        <time>2021-08-16T06:44:40Z</time>
      </trkpt>
      <trkpt lat="44.93433" lon="2.47609">
        <ele>782.65</ele>
        <time>2021-08-16T06:44:46Z</time>
      </trkpt>
      <trkpt lat="44.93435" lon="2.47605">
        <ele>782.65</ele>
        <time>2021-08-16T06:44:51Z</time>
      </trkpt>
      <trkpt lat="44.93435" lon="2.47607">
        <ele>782.65</ele>
        <time>2021-08-16T06:44:52Z</time>
      </trkpt>
      <trkpt lat="44.93435" lon="2.47609">
        <ele>782.65</ele>
        <time>2021-08-16T06:44:53Z</time>
      </trkpt>
      <trkpt lat="44.93436" lon="2.47611">
        <ele>782.65</ele>
        <time>2021-08-16T06:44:54Z</time>
      </trkpt>
      <trkpt lat="44.93435" lon="2.47614">
        <ele>782.65</ele>
        <time>2021-08-16T06:44:55Z</time>
      </trkpt>
      <trkpt lat="44.93436" lon="2.47618">
        <ele>782.65</ele>
        <time>2021-08-16T06:44:56Z</time>
      </trkpt>
      <trkpt lat="44.93436" lon="2.47623">
        <ele>782.65</ele>
        <time>2021-08-16T06:44:57Z</time>
      </trkpt>
      <trkpt lat="44.93438" lon="2.47652">
        <ele>782.65</ele>
        <time>2021-08-16T06:45:02Z</time>
      </trkpt>
      <trkpt lat="44.93438" lon="2.47659">
        <ele>782.65</ele>
        <time>2021-08-16T06:45:03Z</time>
      </trkpt>
      <trkpt lat="44.93443" lon="2.47709">
        <ele>783.61</ele>
        <time>2021-08-16T06:45:11Z</time>
      </trkpt>
      <trkpt lat="44.93445" lon="2.47715">
        <ele>783.61</ele>
        <time>2021-08-16T06:45:12Z</time>
      </trkpt>
      <trkpt lat="44.93446" lon="2.4772">
        <ele>784.09</ele>
        <time>2021-08-16T06:45:13Z</time>
      </trkpt>
      <trkpt lat="44.93447" lon="2.47726">
        <ele>784.09</ele>
        <time>2021-08-16T06:45:14Z</time>
      </trkpt>
      <trkpt lat="44.93448" lon="2.47732">
        <ele>784.09</ele>
        <time>2021-08-16T06:45:15Z</time>
      </trkpt>
      <trkpt lat="44.93457" lon="2.47777">
        <ele>784.57</ele>
        <time>2021-08-16T06:45:23Z</time>
      </trkpt>
      <trkpt lat="44.93464" lon="2.47795">
        <ele>783.61</ele>
        <time>2021-08-16T06:45:26Z</time>
      </trkpt>
      <trkpt lat="44.93472" lon="2.47814">
        <ele>782.65</ele>
        <time>2021-08-16T06:45:31Z</time>
      </trkpt>
      <trkpt lat="44.9348" lon="2.4784">
        <ele>781.69</ele>
        <time>2021-08-16T06:45:37Z</time>
      </trkpt>
      <trkpt lat="44.93483" lon="2.47865">
        <ele>780.73</ele>
        <time>2021-08-16T06:45:42Z</time>
      </trkpt>
      <trkpt lat="44.93484" lon="2.47878">
        <ele>780.73</ele>
        <time>2021-08-16T06:45:44Z</time>
      </trkpt>
      <trkpt lat="44.93483" lon="2.47884">
        <ele>780.25</ele>
        <time>2021-08-16T06:45:45Z</time>
      </trkpt>
      <trkpt lat="44.93482" lon="2.47896">
        <ele>780.25</ele>
        <time>2021-08-16T06:45:49Z</time>
      </trkpt>
      <trkpt lat="44.93483" lon="2.47895">
        <ele>780.25</ele>
        <time>2021-08-16T06:45:53Z</time>
      </trkpt>
      <trkpt lat="44.93483" lon="2.47893">
        <ele>780.25</ele>
        <time>2021-08-16T06:45:54Z</time>
      </trkpt>
      <trkpt lat="44.93484" lon="2.4789">
        <ele>780.25</ele>
        <time>2021-08-16T06:45:55Z</time>
      </trkpt>
      <trkpt lat="44.93484" lon="2.47862">
        <ele>780.25</ele>
        <time>2021-08-16T06:46:02Z</time>
      </trkpt>
      <trkpt lat="44.93483" lon="2.47853">
        <ele>782.17</ele>
        <time>2021-08-16T06:46:04Z</time>
      </trkpt>
      <trkpt lat="44.93475" lon="2.47829">
        <ele>782.65</ele>
        <time>2021-08-16T06:46:11Z</time>
      </trkpt>
      <trkpt lat="44.93467" lon="2.47806">
        <ele>783.13</ele>
        <time>2021-08-16T06:46:17Z</time>
      </trkpt>
      <trkpt lat="44.93459" lon="2.4778">
        <ele>784.09</ele>
        <time>2021-08-16T06:46:23Z</time>
      </trkpt>
      <trkpt lat="44.93449" lon="2.4774">
        <ele>785.05</ele>
        <time>2021-08-16T06:46:32Z</time>
      </trkpt>
      <trkpt lat="44.93443" lon="2.47699">
        <ele>785.05</ele>
        <time>2021-08-16T06:46:39Z</time>
      </trkpt>
      <trkpt lat="44.93438" lon="2.47643">
        <ele>783.61</ele>
        <time>2021-08-16T06:46:47Z</time>
      </trkpt>
      <trkpt lat="44.93438" lon="2.47637">
        <ele>783.61</ele>
        <time>2021-08-16T06:46:48Z</time>
      </trkpt>
      <trkpt lat="44.93437" lon="2.47631">
        <ele>783.61</ele>
        <time>2021-08-16T06:46:49Z</time>
      </trkpt>
      <trkpt lat="44.93437" lon="2.47593">
        <ele>783.61</ele>
        <time>2021-08-16T06:46:56Z</time>
      </trkpt>
      <trkpt lat="44.93439" lon="2.4758">
        <ele>783.61</ele>
        <time>2021-08-16T06:46:58Z</time>
      </trkpt>
      <trkpt lat="44.9344" lon="2.47573">
        <ele>783.61</ele>
        <time>2021-08-16T06:46:59Z</time>
      </trkpt>
      <trkpt lat="44.93441" lon="2.47566">
        <ele>783.61</ele>
        <time>2021-08-16T06:47:00Z</time>
      </trkpt>
      <trkpt lat="44.93447" lon="2.47523">
        <ele>783.61</ele>
        <time>2021-08-16T06:47:07Z</time>
      </trkpt>
      <trkpt lat="44.93447" lon="2.47514">
        <ele>785.05</ele>
        <time>2021-08-16T06:47:09Z</time>
      </trkpt>
      <trkpt lat="44.93447" lon="2.47497">
        <ele>785.05</ele>
        <time>2021-08-16T06:47:12Z</time>
      </trkpt>
      <trkpt lat="44.93446" lon="2.4749">
        <ele>785.05</ele>
        <time>2021-08-16T06:47:13Z</time>
      </trkpt>
      <trkpt lat="44.93445" lon="2.47483">
        <ele>783.61</ele>
        <time>2021-08-16T06:47:14Z</time>
      </trkpt>
      <trkpt lat="44.93445" lon="2.47474">
        <ele>783.61</ele>
        <time>2021-08-16T06:47:15Z</time>
      </trkpt>
      <trkpt lat="44.93443" lon="2.47466">
        <ele>783.13</ele>
        <time>2021-08-16T06:47:16Z</time>
      </trkpt>
      <trkpt lat="44.93441" lon="2.47458">
        <ele>783.61</ele>
        <time>2021-08-16T06:47:17Z</time>
      </trkpt>
      <trkpt lat="44.93436" lon="2.47432">
        <ele>782.17</ele>
        <time>2021-08-16T06:47:20Z</time>
      </trkpt>
      <trkpt lat="44.93435" lon="2.47424">
        <ele>782.17</ele>
        <time>2021-08-16T06:47:21Z</time>
      </trkpt>
      <trkpt lat="44.93433" lon="2.47416">
        <ele>782.17</ele>
        <time>2021-08-16T06:47:22Z</time>
      </trkpt>
      <trkpt lat="44.93431" lon="2.47409">
        <ele>782.17</ele>
        <time>2021-08-16T06:47:23Z</time>
      </trkpt>
      <trkpt lat="44.93428" lon="2.47401">
        <ele>782.17</ele>
        <time>2021-08-16T06:47:24Z</time>
      </trkpt>
      <trkpt lat="44.93409" lon="2.47357">
        <ele>781.69</ele>
        <time>2021-08-16T06:47:30Z</time>
      </trkpt>
      <trkpt lat="44.93385" lon="2.47321">
        <ele>781.21</ele>
        <time>2021-08-16T06:47:37Z</time>
      </trkpt>
      <trkpt lat="44.93387" lon="2.47315">
        <ele>781.21</ele>
        <time>2021-08-16T06:47:43Z</time>
      </trkpt>
      <trkpt lat="44.93389" lon="2.4731">
        <ele>781.21</ele>
        <time>2021-08-16T06:47:59Z</time>
      </trkpt>
      <trkpt lat="44.93389" lon="2.4731">
        <ele>781.21</ele>
        <time>2021-08-16T06:48:06Z</time>
      </trkpt>
      <trkpt lat="44.93388" lon="2.47309">
        <ele>781.21</ele>
        <time>2021-08-16T06:48:07Z</time>
      </trkpt>
      <trkpt lat="44.93386" lon="2.47307">
        <ele>781.21</ele>
        <time>2021-08-16T06:48:08Z</time>
      </trkpt>
      <trkpt lat="44.93385" lon="2.47305">
        <ele>781.21</ele>
        <time>2021-08-16T06:48:09Z</time>
      </trkpt>
      <trkpt lat="44.93383" lon="2.47303">
        <ele>780.73</ele>
        <time>2021-08-16T06:48:10Z</time>
      </trkpt>
      <trkpt lat="44.93365" lon="2.47272">
        <ele>779.77</ele>
        <time>2021-08-16T06:48:17Z</time>
      </trkpt>
      <trkpt lat="44.93362" lon="2.47266">
        <ele>778.81</ele>
        <time>2021-08-16T06:48:18Z</time>
      </trkpt>
      <trkpt lat="44.93354" lon="2.47246">
        <ele>777.84</ele>
        <time>2021-08-16T06:48:21Z</time>
      </trkpt>
      <trkpt lat="44.93351" lon="2.47239">
        <ele>777.84</ele>
        <time>2021-08-16T06:48:22Z</time>
      </trkpt>
      <trkpt lat="44.93348" lon="2.47231">
        <ele>777.36</ele>
        <time>2021-08-16T06:48:23Z</time>
      </trkpt>
      <trkpt lat="44.93324" lon="2.47167">
        <ele>775.92</ele>
        <time>2021-08-16T06:48:31Z</time>
      </trkpt>
      <trkpt lat="44.93307" lon="2.47127">
        <ele>775.92</ele>
        <time>2021-08-16T06:48:36Z</time>
      </trkpt>
      <trkpt lat="44.9329" lon="2.47072">
        <ele>775.44</ele>
        <time>2021-08-16T06:48:43Z</time>
      </trkpt>
      <trkpt lat="44.93273" lon="2.47018">
        <ele>776.88</ele>
        <time>2021-08-16T06:48:51Z</time>
      </trkpt>
      <trkpt lat="44.93257" lon="2.46982">
        <ele>778.32</ele>
        <time>2021-08-16T06:48:58Z</time>
      </trkpt>
      <trkpt lat="44.93236" lon="2.4696">
        <ele>779.77</ele>
        <time>2021-08-16T06:49:06Z</time>
      </trkpt>
      <trkpt lat="44.93219" lon="2.46936">
        <ele>781.69</ele>
        <time>2021-08-16T06:49:15Z</time>
      </trkpt>
      <trkpt lat="44.93206" lon="2.4691">
        <ele>782.17</ele>
        <time>2021-08-16T06:49:23Z</time>
      </trkpt>
      <trkpt lat="44.93193" lon="2.4687">
        <ele>780.25</ele>
        <time>2021-08-16T06:49:29Z</time>
      </trkpt>
      <trkpt lat="44.93174" lon="2.46805">
        <ele>777.84</ele>
        <time>2021-08-16T06:49:36Z</time>
      </trkpt>
      <trkpt lat="44.9317" lon="2.46788">
        <ele>777.36</ele>
        <time>2021-08-16T06:49:38Z</time>
      </trkpt>
      <trkpt lat="44.9317" lon="2.4678">
        <ele>777.36</ele>
        <time>2021-08-16T06:49:39Z</time>
      </trkpt>
      <trkpt lat="44.93172" lon="2.46775">
        <ele>777.36</ele>
        <time>2021-08-16T06:49:40Z</time>
      </trkpt>
      <trkpt lat="44.93175" lon="2.46772">
        <ele>776.88</ele>
        <time>2021-08-16T06:49:41Z</time>
      </trkpt>
      <trkpt lat="44.93178" lon="2.4677">
        <ele>777.36</ele>
        <time>2021-08-16T06:49:42Z</time>
      </trkpt>
      <trkpt lat="44.93181" lon="2.4677">
        <ele>777.36</ele>
        <time>2021-08-16T06:49:43Z</time>
      </trkpt>
      <trkpt lat="44.93184" lon="2.46772">
        <ele>777.36</ele>
        <time>2021-08-16T06:49:44Z</time>
      </trkpt>
      <trkpt lat="44.93187" lon="2.46774">
        <ele>777.36</ele>
        <time>2021-08-16T06:49:45Z</time>
      </trkpt>
      <trkpt lat="44.93188" lon="2.46776">
        <ele>777.36</ele>
        <time>2021-08-16T06:49:46Z</time>
      </trkpt>
      <trkpt lat="44.93189" lon="2.46778">
        <ele>778.81</ele>
        <time>2021-08-16T06:49:47Z</time>
      </trkpt>
      <trkpt lat="44.9319" lon="2.46781">
        <ele>778.81</ele>
        <time>2021-08-16T06:49:48Z</time>
      </trkpt>
      <trkpt lat="44.93192" lon="2.46787">
        <ele>778.81</ele>
        <time>2021-08-16T06:49:51Z</time>
      </trkpt>
      <trkpt lat="44.93194" lon="2.46788">
        <ele>778.81</ele>
        <time>2021-08-16T06:49:52Z</time>
      </trkpt>
      <trkpt lat="44.93195" lon="2.46789">
        <ele>778.81</ele>
        <time>2021-08-16T06:49:53Z</time>
      </trkpt>
      <trkpt lat="44.93196" lon="2.4679">
        <ele>778.81</ele>
        <time>2021-08-16T06:49:54Z</time>
      </trkpt>
      <trkpt lat="44.93198" lon="2.46792">
        <ele>779.29</ele>
        <time>2021-08-16T06:49:55Z</time>
      </trkpt>
      <trkpt lat="44.93199" lon="2.46793">
        <ele>779.29</ele>
        <time>2021-08-16T06:49:56Z</time>
      </trkpt>
      <trkpt lat="44.93201" lon="2.46795">
        <ele>779.29</ele>
        <time>2021-08-16T06:49:57Z</time>
      </trkpt>
      <trkpt lat="44.93202" lon="2.46797">
        <ele>779.77</ele>
        <time>2021-08-16T06:49:58Z</time>
      </trkpt>
      <trkpt lat="44.93203" lon="2.46798">
        <ele>779.77</ele>
        <time>2021-08-16T06:49:59Z</time>
      </trkpt>
      <trkpt lat="44.93205" lon="2.468">
        <ele>779.77</ele>
        <time>2021-08-16T06:50:00Z</time>
      </trkpt>
      <trkpt lat="44.93215" lon="2.46811">
        <ele>781.21</ele>
        <time>2021-08-16T06:50:08Z</time>
      </trkpt>
      <trkpt lat="44.93223" lon="2.46817">
        <ele>783.13</ele>
        <time>2021-08-16T06:50:15Z</time>
      </trkpt>
      <trkpt lat="44.93234" lon="2.46822">
        <ele>784.57</ele>
        <time>2021-08-16T06:50:23Z</time>
      </trkpt>
      <trkpt lat="44.93235" lon="2.46821">
        <ele>784.57</ele>
        <time>2021-08-16T06:50:24Z</time>
      </trkpt>
      <trkpt lat="44.93235" lon="2.46819">
        <ele>784.57</ele>
        <time>2021-08-16T06:50:25Z</time>
      </trkpt>
      <trkpt lat="44.93236" lon="2.46813">
        <ele>785.05</ele>
        <time>2021-08-16T06:50:29Z</time>
      </trkpt>
      <trkpt lat="44.93244" lon="2.46792">
        <ele>786.5</ele>
        <time>2021-08-16T06:50:38Z</time>
      </trkpt>
      <trkpt lat="44.93256" lon="2.4677">
        <ele>784.57</ele>
        <time>2021-08-16T06:50:44Z</time>
      </trkpt>
      <trkpt lat="44.93269" lon="2.46749">
        <ele>783.61</ele>
        <time>2021-08-16T06:50:50Z</time>
      </trkpt>
      <trkpt lat="44.93285" lon="2.46725">
        <ele>782.65</ele>
        <time>2021-08-16T06:50:56Z</time>
      </trkpt>
      <trkpt lat="44.93291" lon="2.46715">
        <ele>782.17</ele>
        <time>2021-08-16T06:50:58Z</time>
      </trkpt>
      <trkpt lat="44.93295" lon="2.46711">
        <ele>782.17</ele>
        <time>2021-08-16T06:50:59Z</time>
      </trkpt>
      <trkpt lat="44.93299" lon="2.46709">
        <ele>782.17</ele>
        <time>2021-08-16T06:51:00Z</time>
      </trkpt>
      <trkpt lat="44.93302" lon="2.46708">
        <ele>782.17</ele>
        <time>2021-08-16T06:51:01Z</time>
      </trkpt>
      <trkpt lat="44.93305" lon="2.46706">
        <ele>783.61</ele>
        <time>2021-08-16T06:51:02Z</time>
      </trkpt>
      <trkpt lat="44.93308" lon="2.46705">
        <ele>783.61</ele>
        <time>2021-08-16T06:51:03Z</time>
      </trkpt>
      <trkpt lat="44.9331" lon="2.46703">
        <ele>783.61</ele>
        <time>2021-08-16T06:51:04Z</time>
      </trkpt>
      <trkpt lat="44.93312" lon="2.467">
        <ele>783.61</ele>
        <time>2021-08-16T06:51:05Z</time>
      </trkpt>
      <trkpt lat="44.93315" lon="2.46694">
        <ele>781.21</ele>
        <time>2021-08-16T06:51:06Z</time>
      </trkpt>
      <trkpt lat="44.93317" lon="2.46688">
        <ele>779.77</ele>
        <time>2021-08-16T06:51:07Z</time>
      </trkpt>
      <trkpt lat="44.93327" lon="2.46663">
        <ele>775.92</ele>
        <time>2021-08-16T06:51:10Z</time>
      </trkpt>
      <trkpt lat="44.93329" lon="2.46657">
        <ele>774.96</ele>
        <time>2021-08-16T06:51:11Z</time>
      </trkpt>
      <trkpt lat="44.93334" lon="2.46639">
        <ele>773.04</ele>
        <time>2021-08-16T06:51:13Z</time>
      </trkpt>
      <trkpt lat="44.93341" lon="2.46615">
        <ele>769.67</ele>
        <time>2021-08-16T06:51:16Z</time>
      </trkpt>
      <trkpt lat="44.93344" lon="2.46607">
        <ele>768.71</ele>
        <time>2021-08-16T06:51:17Z</time>
      </trkpt>
      <trkpt lat="44.93346" lon="2.46599">
        <ele>768.23</ele>
        <time>2021-08-16T06:51:18Z</time>
      </trkpt>
      <trkpt lat="44.93352" lon="2.46576">
        <ele>764.87</ele>
        <time>2021-08-16T06:51:22Z</time>
      </trkpt>
      <trkpt lat="44.93354" lon="2.46571">
        <ele>764.39</ele>
        <time>2021-08-16T06:51:23Z</time>
      </trkpt>
      <trkpt lat="44.93355" lon="2.46565">
        <ele>762.94</ele>
        <time>2021-08-16T06:51:24Z</time>
      </trkpt>
      <trkpt lat="44.9336" lon="2.46549">
        <ele>760.06</ele>
        <time>2021-08-16T06:51:26Z</time>
      </trkpt>
      <trkpt lat="44.93371" lon="2.46512">
        <ele>756.69</ele>
        <time>2021-08-16T06:51:31Z</time>
      </trkpt>
      <trkpt lat="44.93372" lon="2.46506">
        <ele>756.69</ele>
        <time>2021-08-16T06:51:32Z</time>
      </trkpt>
      <trkpt lat="44.93374" lon="2.46499">
        <ele>755.73</ele>
        <time>2021-08-16T06:51:33Z</time>
      </trkpt>
      <trkpt lat="44.93382" lon="2.46479">
        <ele>753.33</ele>
        <time>2021-08-16T06:51:36Z</time>
      </trkpt>
      <trkpt lat="44.93387" lon="2.46457">
        <ele>749.97</ele>
        <time>2021-08-16T06:51:39Z</time>
      </trkpt>
      <trkpt lat="44.93388" lon="2.4645">
        <ele>749.49</ele>
        <time>2021-08-16T06:51:40Z</time>
      </trkpt>
      <trkpt lat="44.93389" lon="2.46442">
        <ele>748.52</ele>
        <time>2021-08-16T06:51:41Z</time>
      </trkpt>
      <trkpt lat="44.9339" lon="2.46435">
        <ele>748.52</ele>
        <time>2021-08-16T06:51:42Z</time>
      </trkpt>
      <trkpt lat="44.93394" lon="2.46412">
        <ele>745.64</ele>
        <time>2021-08-16T06:51:45Z</time>
      </trkpt>
      <trkpt lat="44.93401" lon="2.46367">
        <ele>741.31</ele>
        <time>2021-08-16T06:51:51Z</time>
      </trkpt>
      <trkpt lat="44.93403" lon="2.46359">
        <ele>741.31</ele>
        <time>2021-08-16T06:51:52Z</time>
      </trkpt>
      <trkpt lat="44.93406" lon="2.46331">
        <ele>739.87</ele>
        <time>2021-08-16T06:51:55Z</time>
      </trkpt>
      <trkpt lat="44.93406" lon="2.46322">
        <ele>739.87</ele>
        <time>2021-08-16T06:51:56Z</time>
      </trkpt>
      <trkpt lat="44.93406" lon="2.46314">
        <ele>738.91</ele>
        <time>2021-08-16T06:51:57Z</time>
      </trkpt>
      <trkpt lat="44.93407" lon="2.46307">
        <ele>738.91</ele>
        <time>2021-08-16T06:51:58Z</time>
      </trkpt>
      <trkpt lat="44.93408" lon="2.463">
        <ele>738.43</ele>
        <time>2021-08-16T06:51:59Z</time>
      </trkpt>
      <trkpt lat="44.93408" lon="2.46295">
        <ele>737.47</ele>
        <time>2021-08-16T06:52:00Z</time>
      </trkpt>
      <trkpt lat="44.93407" lon="2.46291">
        <ele>736.99</ele>
        <time>2021-08-16T06:52:01Z</time>
      </trkpt>
      <trkpt lat="44.93403" lon="2.46288">
        <ele>736.03</ele>
        <time>2021-08-16T06:52:02Z</time>
      </trkpt>
      <trkpt lat="44.93398" lon="2.46285">
        <ele>735.55</ele>
        <time>2021-08-16T06:52:03Z</time>
      </trkpt>
      <trkpt lat="44.93392" lon="2.46284">
        <ele>734.1</ele>
        <time>2021-08-16T06:52:04Z</time>
      </trkpt>
      <trkpt lat="44.93386" lon="2.46285">
        <ele>733.14</ele>
        <time>2021-08-16T06:52:05Z</time>
      </trkpt>
      <trkpt lat="44.9338" lon="2.46288">
        <ele>732.18</ele>
        <time>2021-08-16T06:52:06Z</time>
      </trkpt>
      <trkpt lat="44.93373" lon="2.46291">
        <ele>730.74</ele>
        <time>2021-08-16T06:52:07Z</time>
      </trkpt>
      <trkpt lat="44.9335" lon="2.463">
        <ele>727.37</ele>
        <time>2021-08-16T06:52:11Z</time>
      </trkpt>
      <trkpt lat="44.93348" lon="2.46296">
        <ele>726.89</ele>
        <time>2021-08-16T06:52:12Z</time>
      </trkpt>
      <trkpt lat="44.93349" lon="2.46291">
        <ele>726.41</ele>
        <time>2021-08-16T06:52:13Z</time>
      </trkpt>
      <trkpt lat="44.9335" lon="2.46284">
        <ele>725.45</ele>
        <time>2021-08-16T06:52:14Z</time>
      </trkpt>
      <trkpt lat="44.93352" lon="2.46276">
        <ele>724.49</ele>
        <time>2021-08-16T06:52:15Z</time>
      </trkpt>
      <trkpt lat="44.93357" lon="2.46258">
        <ele>722.57</ele>
        <time>2021-08-16T06:52:17Z</time>
      </trkpt>
      <trkpt lat="44.9337" lon="2.46229">
        <ele>719.68</ele>
        <time>2021-08-16T06:52:20Z</time>
      </trkpt>
      <trkpt lat="44.93376" lon="2.4622">
        <ele>719.2</ele>
        <time>2021-08-16T06:52:21Z</time>
      </trkpt>
      <trkpt lat="44.934" lon="2.4619">
        <ele>715.84</ele>
        <time>2021-08-16T06:52:25Z</time>
      </trkpt>
      <trkpt lat="44.93411" lon="2.46178">
        <ele>713.44</ele>
        <time>2021-08-16T06:52:27Z</time>
      </trkpt>
      <trkpt lat="44.93415" lon="2.46172">
        <ele>711.99</ele>
        <time>2021-08-16T06:52:28Z</time>
      </trkpt>
      <trkpt lat="44.93425" lon="2.46158">
        <ele>709.11</ele>
        <time>2021-08-16T06:52:31Z</time>
      </trkpt>
      <trkpt lat="44.93426" lon="2.46154">
        <ele>708.15</ele>
        <time>2021-08-16T06:52:32Z</time>
      </trkpt>
      <trkpt lat="44.93425" lon="2.4615">
        <ele>707.67</ele>
        <time>2021-08-16T06:52:33Z</time>
      </trkpt>
      <trkpt lat="44.93421" lon="2.46146">
        <ele>707.19</ele>
        <time>2021-08-16T06:52:34Z</time>
      </trkpt>
      <trkpt lat="44.93417" lon="2.46142">
        <ele>706.23</ele>
        <time>2021-08-16T06:52:35Z</time>
      </trkpt>
      <trkpt lat="44.93411" lon="2.46139">
        <ele>705.26</ele>
        <time>2021-08-16T06:52:36Z</time>
      </trkpt>
      <trkpt lat="44.93403" lon="2.46137">
        <ele>703.82</ele>
        <time>2021-08-16T06:52:37Z</time>
      </trkpt>
      <trkpt lat="44.93387" lon="2.46129">
        <ele>700.46</ele>
        <time>2021-08-16T06:52:39Z</time>
      </trkpt>
      <trkpt lat="44.9338" lon="2.46122">
        <ele>699.5</ele>
        <time>2021-08-16T06:52:40Z</time>
      </trkpt>
      <trkpt lat="44.93374" lon="2.46112">
        <ele>698.53</ele>
        <time>2021-08-16T06:52:41Z</time>
      </trkpt>
      <trkpt lat="44.9337" lon="2.46102">
        <ele>698.53</ele>
        <time>2021-08-16T06:52:42Z</time>
      </trkpt>
      <trkpt lat="44.93354" lon="2.46064">
        <ele>699.98</ele>
        <time>2021-08-16T06:52:47Z</time>
      </trkpt>
      <trkpt lat="44.93352" lon="2.46059">
        <ele>699.98</ele>
        <time>2021-08-16T06:52:48Z</time>
      </trkpt>
      <trkpt lat="44.93339" lon="2.46028">
        <ele>700.94</ele>
        <time>2021-08-16T06:52:55Z</time>
      </trkpt>
      <trkpt lat="44.93327" lon="2.46002">
        <ele>698.05</ele>
        <time>2021-08-16T06:52:59Z</time>
      </trkpt>
      <trkpt lat="44.93324" lon="2.45991">
        <ele>697.09</ele>
        <time>2021-08-16T06:53:00Z</time>
      </trkpt>
      <trkpt lat="44.93322" lon="2.4598">
        <ele>695.65</ele>
        <time>2021-08-16T06:53:01Z</time>
      </trkpt>
      <trkpt lat="44.93321" lon="2.45969">
        <ele>694.69</ele>
        <time>2021-08-16T06:53:02Z</time>
      </trkpt>
      <trkpt lat="44.93321" lon="2.45958">
        <ele>694.69</ele>
        <time>2021-08-16T06:53:03Z</time>
      </trkpt>
      <trkpt lat="44.93319" lon="2.45938">
        <ele>694.69</ele>
        <time>2021-08-16T06:53:05Z</time>
      </trkpt>
      <trkpt lat="44.93309" lon="2.45883">
        <ele>691.33</ele>
        <time>2021-08-16T06:53:11Z</time>
      </trkpt>
      <trkpt lat="44.93307" lon="2.45874">
        <ele>691.33</ele>
        <time>2021-08-16T06:53:12Z</time>
      </trkpt>
      <trkpt lat="44.93302" lon="2.45848">
        <ele>690.36</ele>
        <time>2021-08-16T06:53:15Z</time>
      </trkpt>
      <trkpt lat="44.933" lon="2.45833">
        <ele>689.4</ele>
        <time>2021-08-16T06:53:17Z</time>
      </trkpt>
      <trkpt lat="44.93298" lon="2.45826">
        <ele>689.4</ele>
        <time>2021-08-16T06:53:18Z</time>
      </trkpt>
      <trkpt lat="44.93295" lon="2.45819">
        <ele>687.96</ele>
        <time>2021-08-16T06:53:19Z</time>
      </trkpt>
      <trkpt lat="44.9329" lon="2.45811">
        <ele>687.48</ele>
        <time>2021-08-16T06:53:20Z</time>
      </trkpt>
      <trkpt lat="44.93284" lon="2.45803">
        <ele>686.04</ele>
        <time>2021-08-16T06:53:21Z</time>
      </trkpt>
      <trkpt lat="44.93277" lon="2.45795">
        <ele>686.04</ele>
        <time>2021-08-16T06:53:22Z</time>
      </trkpt>
      <trkpt lat="44.9327" lon="2.45788">
        <ele>685.56</ele>
        <time>2021-08-16T06:53:23Z</time>
      </trkpt>
      <trkpt lat="44.93238" lon="2.45757">
        <ele>682.67</ele>
        <time>2021-08-16T06:53:28Z</time>
      </trkpt>
      <trkpt lat="44.93232" lon="2.45753">
        <ele>681.71</ele>
        <time>2021-08-16T06:53:29Z</time>
      </trkpt>
      <trkpt lat="44.93228" lon="2.4575">
        <ele>681.71</ele>
        <time>2021-08-16T06:53:30Z</time>
      </trkpt>
      <trkpt lat="44.93226" lon="2.45747">
        <ele>681.71</ele>
        <time>2021-08-16T06:53:31Z</time>
      </trkpt>
      <trkpt lat="44.93226" lon="2.45743">
        <ele>681.23</ele>
        <time>2021-08-16T06:53:32Z</time>
      </trkpt>
      <trkpt lat="44.93228" lon="2.45741">
        <ele>681.23</ele>
        <time>2021-08-16T06:53:33Z</time>
      </trkpt>
      <trkpt lat="44.9323" lon="2.45741">
        <ele>680.75</ele>
        <time>2021-08-16T06:53:34Z</time>
      </trkpt>
      <trkpt lat="44.93233" lon="2.45741">
        <ele>680.75</ele>
        <time>2021-08-16T06:53:35Z</time>
      </trkpt>
      <trkpt lat="44.93236" lon="2.45742">
        <ele>680.27</ele>
        <time>2021-08-16T06:53:36Z</time>
      </trkpt>
      <trkpt lat="44.93239" lon="2.45744">
        <ele>679.79</ele>
        <time>2021-08-16T06:53:37Z</time>
      </trkpt>
      <trkpt lat="44.93259" lon="2.45753">
        <ele>676.91</ele>
        <time>2021-08-16T06:53:41Z</time>
      </trkpt>
      <trkpt lat="44.93286" lon="2.45766">
        <ele>674.5</ele>
        <time>2021-08-16T06:53:45Z</time>
      </trkpt>
      <trkpt lat="44.93317" lon="2.45775">
        <ele>672.58</ele>
        <time>2021-08-16T06:53:50Z</time>
      </trkpt>
      <trkpt lat="44.93333" lon="2.45782">
        <ele>672.58</ele>
        <time>2021-08-16T06:53:53Z</time>
      </trkpt>
      <trkpt lat="44.93338" lon="2.45785">
        <ele>672.58</ele>
        <time>2021-08-16T06:53:54Z</time>
      </trkpt>
      <trkpt lat="44.93343" lon="2.45789">
        <ele>672.1</ele>
        <time>2021-08-16T06:53:55Z</time>
      </trkpt>
      <trkpt lat="44.93376" lon="2.45811">
        <ele>669.7</ele>
        <time>2021-08-16T06:54:01Z</time>
      </trkpt>
      <trkpt lat="44.93382" lon="2.45816">
        <ele>669.7</ele>
        <time>2021-08-16T06:54:02Z</time>
      </trkpt>
      <trkpt lat="44.93406" lon="2.45847">
        <ele>669.22</ele>
        <time>2021-08-16T06:54:08Z</time>
      </trkpt>
      <trkpt lat="44.93426" lon="2.45869">
        <ele>669.22</ele>
        <time>2021-08-16T06:54:15Z</time>
      </trkpt>
      <trkpt lat="44.93439" lon="2.4589">
        <ele>670.66</ele>
        <time>2021-08-16T06:54:21Z</time>
      </trkpt>
      <trkpt lat="44.93454" lon="2.45921">
        <ele>671.62</ele>
        <time>2021-08-16T06:54:29Z</time>
      </trkpt>
      <trkpt lat="44.9346" lon="2.45929">
        <ele>672.1</ele>
        <time>2021-08-16T06:54:33Z</time>
      </trkpt>
      <trkpt lat="44.93462" lon="2.4593">
        <ele>672.1</ele>
        <time>2021-08-16T06:54:34Z</time>
      </trkpt>
      <trkpt lat="44.93463" lon="2.4593">
        <ele>673.06</ele>
        <time>2021-08-16T06:54:35Z</time>
      </trkpt>
      <trkpt lat="44.93465" lon="2.45931">
        <ele>673.06</ele>
        <time>2021-08-16T06:54:36Z</time>
      </trkpt>
      <trkpt lat="44.93467" lon="2.45931">
        <ele>673.06</ele>
        <time>2021-08-16T06:54:37Z</time>
      </trkpt>
      <trkpt lat="44.93469" lon="2.45932">
        <ele>673.06</ele>
        <time>2021-08-16T06:54:38Z</time>
      </trkpt>
      <trkpt lat="44.93471" lon="2.45933">
        <ele>673.06</ele>
        <time>2021-08-16T06:54:39Z</time>
      </trkpt>
      <trkpt lat="44.93473" lon="2.45934">
        <ele>673.06</ele>
        <time>2021-08-16T06:54:40Z</time>
      </trkpt>
      <trkpt lat="44.93475" lon="2.45936">
        <ele>673.06</ele>
        <time>2021-08-16T06:54:41Z</time>
      </trkpt>
      <trkpt lat="44.93477" lon="2.45937">
        <ele>673.06</ele>
        <time>2021-08-16T06:54:42Z</time>
      </trkpt>
      <trkpt lat="44.93478" lon="2.45938">
        <ele>673.54</ele>
        <time>2021-08-16T06:54:43Z</time>
      </trkpt>
      <trkpt lat="44.93492" lon="2.45949">
        <ele>673.54</ele>
        <time>2021-08-16T06:54:50Z</time>
      </trkpt>
      <trkpt lat="44.93502" lon="2.45955">
        <ele>671.62</ele>
        <time>2021-08-16T06:54:53Z</time>
      </trkpt>
      <trkpt lat="44.93507" lon="2.45956">
        <ele>671.14</ele>
        <time>2021-08-16T06:54:54Z</time>
      </trkpt>
      <trkpt lat="44.93512" lon="2.45956">
        <ele>670.66</ele>
        <time>2021-08-16T06:54:55Z</time>
      </trkpt>
      <trkpt lat="44.93517" lon="2.45958">
        <ele>670.66</ele>
        <time>2021-08-16T06:54:56Z</time>
      </trkpt>
      <trkpt lat="44.93521" lon="2.45959">
        <ele>670.66</ele>
        <time>2021-08-16T06:54:57Z</time>
      </trkpt>
      <trkpt lat="44.93526" lon="2.45959">
        <ele>670.66</ele>
        <time>2021-08-16T06:54:58Z</time>
      </trkpt>
      <trkpt lat="44.93535" lon="2.4596">
        <ele>670.66</ele>
        <time>2021-08-16T06:55:01Z</time>
      </trkpt>
      <trkpt lat="44.93536" lon="2.45959">
        <ele>670.66</ele>
        <time>2021-08-16T06:55:02Z</time>
      </trkpt>
      <trkpt lat="44.93537" lon="2.45957">
        <ele>670.18</ele>
        <time>2021-08-16T06:55:03Z</time>
      </trkpt>
      <trkpt lat="44.93541" lon="2.45947">
        <ele>668.25</ele>
        <time>2021-08-16T06:55:08Z</time>
      </trkpt>
      <trkpt lat="44.93544" lon="2.45942">
        <ele>667.29</ele>
        <time>2021-08-16T06:55:13Z</time>
      </trkpt>
      <trkpt lat="44.93547" lon="2.45936">
        <ele>666.81</ele>
        <time>2021-08-16T06:55:18Z</time>
      </trkpt>
      <trkpt lat="44.93548" lon="2.45935">
        <ele>666.33</ele>
        <time>2021-08-16T06:55:19Z</time>
      </trkpt>
      <trkpt lat="44.93549" lon="2.45932">
        <ele>666.33</ele>
        <time>2021-08-16T06:55:20Z</time>
      </trkpt>
      <trkpt lat="44.93555" lon="2.45908">
        <ele>662.97</ele>
        <time>2021-08-16T06:55:26Z</time>
      </trkpt>
      <trkpt lat="44.93556" lon="2.45905">
        <ele>662.97</ele>
        <time>2021-08-16T06:55:27Z</time>
      </trkpt>
      <trkpt lat="44.93557" lon="2.45892">
        <ele>662.01</ele>
        <time>2021-08-16T06:55:32Z</time>
      </trkpt>
      <trkpt lat="44.93556" lon="2.45889">
        <ele>661.04</ele>
        <time>2021-08-16T06:55:33Z</time>
      </trkpt>
      <trkpt lat="44.93556" lon="2.45886">
        <ele>661.04</ele>
        <time>2021-08-16T06:55:34Z</time>
      </trkpt>
      <trkpt lat="44.93556" lon="2.45884">
        <ele>661.04</ele>
        <time>2021-08-16T06:55:35Z</time>
      </trkpt>
      <trkpt lat="44.93556" lon="2.45881">
        <ele>660.56</ele>
        <time>2021-08-16T06:55:36Z</time>
      </trkpt>
      <trkpt lat="44.93557" lon="2.45879">
        <ele>660.08</ele>
        <time>2021-08-16T06:55:37Z</time>
      </trkpt>
      <trkpt lat="44.93558" lon="2.45877">
        <ele>659.12</ele>
        <time>2021-08-16T06:55:38Z</time>
      </trkpt>
      <trkpt lat="44.9356" lon="2.45875">
        <ele>658.64</ele>
        <time>2021-08-16T06:55:39Z</time>
      </trkpt>
      <trkpt lat="44.93561" lon="2.45874">
        <ele>658.16</ele>
        <time>2021-08-16T06:55:40Z</time>
      </trkpt>
      <trkpt lat="44.93569" lon="2.45862">
        <ele>655.76</ele>
        <time>2021-08-16T06:55:46Z</time>
      </trkpt>
      <trkpt lat="44.93574" lon="2.45854">
        <ele>654.31</ele>
        <time>2021-08-16T06:55:50Z</time>
      </trkpt>
      <trkpt lat="44.93577" lon="2.45849">
        <ele>652.39</ele>
        <time>2021-08-16T06:55:54Z</time>
      </trkpt>
      <trkpt lat="44.93578" lon="2.45847">
        <ele>651.91</ele>
        <time>2021-08-16T06:55:55Z</time>
      </trkpt>
      <trkpt lat="44.9358" lon="2.45845">
        <ele>651.91</ele>
        <time>2021-08-16T06:55:56Z</time>
      </trkpt>
      <trkpt lat="44.93588" lon="2.4584">
        <ele>650.47</ele>
        <time>2021-08-16T06:56:00Z</time>
      </trkpt>
      <trkpt lat="44.93589" lon="2.4584">
        <ele>649.99</ele>
        <time>2021-08-16T06:56:01Z</time>
      </trkpt>
      <trkpt lat="44.9359" lon="2.4584">
        <ele>649.51</ele>
        <time>2021-08-16T06:56:02Z</time>
      </trkpt>
      <trkpt lat="44.93592" lon="2.4584">
        <ele>649.51</ele>
        <time>2021-08-16T06:56:03Z</time>
      </trkpt>
      <trkpt lat="44.93594" lon="2.4584">
        <ele>649.51</ele>
        <time>2021-08-16T06:56:04Z</time>
      </trkpt>
      <trkpt lat="44.93596" lon="2.4584">
        <ele>649.03</ele>
        <time>2021-08-16T06:56:05Z</time>
      </trkpt>
      <trkpt lat="44.93598" lon="2.45841">
        <ele>648.55</ele>
        <time>2021-08-16T06:56:06Z</time>
      </trkpt>
      <trkpt lat="44.936" lon="2.45842">
        <ele>648.07</ele>
        <time>2021-08-16T06:56:07Z</time>
      </trkpt>
      <trkpt lat="44.93603" lon="2.45842">
        <ele>648.07</ele>
        <time>2021-08-16T06:56:08Z</time>
      </trkpt>
      <trkpt lat="44.93605" lon="2.45843">
        <ele>647.59</ele>
        <time>2021-08-16T06:56:09Z</time>
      </trkpt>
      <trkpt lat="44.93609" lon="2.45844">
        <ele>647.1</ele>
        <time>2021-08-16T06:56:10Z</time>
      </trkpt>
      <trkpt lat="44.93629" lon="2.45842">
        <ele>643.26</ele>
        <time>2021-08-16T06:56:16Z</time>
      </trkpt>
      <trkpt lat="44.93645" lon="2.45827">
        <ele>640.86</ele>
        <time>2021-08-16T06:56:22Z</time>
      </trkpt>
      <trkpt lat="44.93647" lon="2.45823">
        <ele>640.38</ele>
        <time>2021-08-16T06:56:23Z</time>
      </trkpt>
      <trkpt lat="44.93648" lon="2.45817">
        <ele>640.38</ele>
        <time>2021-08-16T06:56:24Z</time>
      </trkpt>
      <trkpt lat="44.93652" lon="2.45792">
        <ele>637.49</ele>
        <time>2021-08-16T06:56:27Z</time>
      </trkpt>
      <trkpt lat="44.93654" lon="2.45785">
        <ele>637.01</ele>
        <time>2021-08-16T06:56:28Z</time>
      </trkpt>
      <trkpt lat="44.93659" lon="2.45778">
        <ele>636.53</ele>
        <time>2021-08-16T06:56:29Z</time>
      </trkpt>
      <trkpt lat="44.93664" lon="2.45772">
        <ele>636.05</ele>
        <time>2021-08-16T06:56:30Z</time>
      </trkpt>
      <trkpt lat="44.93669" lon="2.45768">
        <ele>636.05</ele>
        <time>2021-08-16T06:56:31Z</time>
      </trkpt>
      <trkpt lat="44.93688" lon="2.45752">
        <ele>635.09</ele>
        <time>2021-08-16T06:56:35Z</time>
      </trkpt>
      <trkpt lat="44.93691" lon="2.45748">
        <ele>634.61</ele>
        <time>2021-08-16T06:56:36Z</time>
      </trkpt>
      <trkpt lat="44.93692" lon="2.45744">
        <ele>634.61</ele>
        <time>2021-08-16T06:56:37Z</time>
      </trkpt>
      <trkpt lat="44.93693" lon="2.45739">
        <ele>634.61</ele>
        <time>2021-08-16T06:56:38Z</time>
      </trkpt>
      <trkpt lat="44.93691" lon="2.45735">
        <ele>634.61</ele>
        <time>2021-08-16T06:56:39Z</time>
      </trkpt>
      <trkpt lat="44.93689" lon="2.45731">
        <ele>634.61</ele>
        <time>2021-08-16T06:56:40Z</time>
      </trkpt>
      <trkpt lat="44.93687" lon="2.45727">
        <ele>634.61</ele>
        <time>2021-08-16T06:56:41Z</time>
      </trkpt>
      <trkpt lat="44.93675" lon="2.45709">
        <ele>636.05</ele>
        <time>2021-08-16T06:56:46Z</time>
      </trkpt>
      <trkpt lat="44.93653" lon="2.45675">
        <ele>636.05</ele>
        <time>2021-08-16T06:56:53Z</time>
      </trkpt>
      <trkpt lat="44.93617" lon="2.45623">
        <ele>636.05</ele>
        <time>2021-08-16T06:57:03Z</time>
      </trkpt>
      <trkpt lat="44.93596" lon="2.45587">
        <ele>636.05</ele>
        <time>2021-08-16T06:57:10Z</time>
      </trkpt>
      <trkpt lat="44.93593" lon="2.45582">
        <ele>636.05</ele>
        <time>2021-08-16T06:57:11Z</time>
      </trkpt>
      <trkpt lat="44.93591" lon="2.45578">
        <ele>636.05</ele>
        <time>2021-08-16T06:57:12Z</time>
      </trkpt>
      <trkpt lat="44.93589" lon="2.45572">
        <ele>636.05</ele>
        <time>2021-08-16T06:57:13Z</time>
      </trkpt>
      <trkpt lat="44.93588" lon="2.45566">
        <ele>636.05</ele>
        <time>2021-08-16T06:57:14Z</time>
      </trkpt>
      <trkpt lat="44.93587" lon="2.45558">
        <ele>636.05</ele>
        <time>2021-08-16T06:57:15Z</time>
      </trkpt>
      <trkpt lat="44.93584" lon="2.45544">
        <ele>636.05</ele>
        <time>2021-08-16T06:57:17Z</time>
      </trkpt>
      <trkpt lat="44.93578" lon="2.45519">
        <ele>635.09</ele>
        <time>2021-08-16T06:57:21Z</time>
      </trkpt>
      <trkpt lat="44.93577" lon="2.45507">
        <ele>635.09</ele>
        <time>2021-08-16T06:57:23Z</time>
      </trkpt>
      <trkpt lat="44.93577" lon="2.45502">
        <ele>635.09</ele>
        <time>2021-08-16T06:57:24Z</time>
      </trkpt>
      <trkpt lat="44.93578" lon="2.4549">
        <ele>635.09</ele>
        <time>2021-08-16T06:57:29Z</time>
      </trkpt>
      <trkpt lat="44.93577" lon="2.45486">
        <ele>635.09</ele>
        <time>2021-08-16T06:57:32Z</time>
      </trkpt>
      <trkpt lat="44.93576" lon="2.45483">
        <ele>635.09</ele>
        <time>2021-08-16T06:57:33Z</time>
      </trkpt>
      <trkpt lat="44.93575" lon="2.45481">
        <ele>635.09</ele>
        <time>2021-08-16T06:57:34Z</time>
      </trkpt>
      <trkpt lat="44.93573" lon="2.45479">
        <ele>635.09</ele>
        <time>2021-08-16T06:57:35Z</time>
      </trkpt>
      <trkpt lat="44.93571" lon="2.45475">
        <ele>634.61</ele>
        <time>2021-08-16T06:57:36Z</time>
      </trkpt>
      <trkpt lat="44.93568" lon="2.45471">
        <ele>634.61</ele>
        <time>2021-08-16T06:57:37Z</time>
      </trkpt>
      <trkpt lat="44.93562" lon="2.45458">
        <ele>634.61</ele>
        <time>2021-08-16T06:57:40Z</time>
      </trkpt>
      <trkpt lat="44.93562" lon="2.45452">
        <ele>634.61</ele>
        <time>2021-08-16T06:57:41Z</time>
      </trkpt>
      <trkpt lat="44.93562" lon="2.45445">
        <ele>634.61</ele>
        <time>2021-08-16T06:57:42Z</time>
      </trkpt>
      <trkpt lat="44.93562" lon="2.4544">
        <ele>634.61</ele>
        <time>2021-08-16T06:57:43Z</time>
      </trkpt>
      <trkpt lat="44.93562" lon="2.45433">
        <ele>634.61</ele>
        <time>2021-08-16T06:57:44Z</time>
      </trkpt>
      <trkpt lat="44.93561" lon="2.45385">
        <ele>634.61</ele>
        <time>2021-08-16T06:57:52Z</time>
      </trkpt>
      <trkpt lat="44.93559" lon="2.45358">
        <ele>634.61</ele>
        <time>2021-08-16T06:57:56Z</time>
      </trkpt>
      <trkpt lat="44.93558" lon="2.4535">
        <ele>634.61</ele>
        <time>2021-08-16T06:57:57Z</time>
      </trkpt>
      <trkpt lat="44.93556" lon="2.45344">
        <ele>634.61</ele>
        <time>2021-08-16T06:57:58Z</time>
      </trkpt>
      <trkpt lat="44.93554" lon="2.45338">
        <ele>634.61</ele>
        <time>2021-08-16T06:57:59Z</time>
      </trkpt>
      <trkpt lat="44.93551" lon="2.45333">
        <ele>634.61</ele>
        <time>2021-08-16T06:58:00Z</time>
      </trkpt>
      <trkpt lat="44.93547" lon="2.45328">
        <ele>634.61</ele>
        <time>2021-08-16T06:58:01Z</time>
      </trkpt>
      <trkpt lat="44.93527" lon="2.45301">
        <ele>634.61</ele>
        <time>2021-08-16T06:58:06Z</time>
      </trkpt>
      <trkpt lat="44.93523" lon="2.45295">
        <ele>634.61</ele>
        <time>2021-08-16T06:58:07Z</time>
      </trkpt>
      <trkpt lat="44.93492" lon="2.4525">
        <ele>633.65</ele>
        <time>2021-08-16T06:58:15Z</time>
      </trkpt>
      <trkpt lat="44.93489" lon="2.45245">
        <ele>633.65</ele>
        <time>2021-08-16T06:58:16Z</time>
      </trkpt>
      <trkpt lat="44.93464" lon="2.4521">
        <ele>633.65</ele>
        <time>2021-08-16T06:58:23Z</time>
      </trkpt>
      <trkpt lat="44.93431" lon="2.45159">
        <ele>633.17</ele>
        <time>2021-08-16T06:58:32Z</time>
      </trkpt>
      <trkpt lat="44.93423" lon="2.45148">
        <ele>633.17</ele>
        <time>2021-08-16T06:58:34Z</time>
      </trkpt>
      <trkpt lat="44.93419" lon="2.45141">
        <ele>633.17</ele>
        <time>2021-08-16T06:58:35Z</time>
      </trkpt>
      <trkpt lat="44.93415" lon="2.45135">
        <ele>633.17</ele>
        <time>2021-08-16T06:58:36Z</time>
      </trkpt>
      <trkpt lat="44.93375" lon="2.45078">
        <ele>632.2</ele>
        <time>2021-08-16T06:58:46Z</time>
      </trkpt>
      <trkpt lat="44.93344" lon="2.45033">
        <ele>631.72</ele>
        <time>2021-08-16T06:58:54Z</time>
      </trkpt>
      <trkpt lat="44.93314" lon="2.4499">
        <ele>631.72</ele>
        <time>2021-08-16T06:59:02Z</time>
      </trkpt>
      <trkpt lat="44.93286" lon="2.44949">
        <ele>631.72</ele>
        <time>2021-08-16T06:59:10Z</time>
      </trkpt>
      <trkpt lat="44.93264" lon="2.44919">
        <ele>631.72</ele>
        <time>2021-08-16T06:59:17Z</time>
      </trkpt>
      <trkpt lat="44.93258" lon="2.44912">
        <ele>631.72</ele>
        <time>2021-08-16T06:59:19Z</time>
      </trkpt>
      <trkpt lat="44.93245" lon="2.44896">
        <ele>631.24</ele>
        <time>2021-08-16T06:59:23Z</time>
      </trkpt>
      <trkpt lat="44.93241" lon="2.44892">
        <ele>631.24</ele>
        <time>2021-08-16T06:59:24Z</time>
      </trkpt>
      <trkpt lat="44.93238" lon="2.44886">
        <ele>631.24</ele>
        <time>2021-08-16T06:59:25Z</time>
      </trkpt>
      <trkpt lat="44.93233" lon="2.4488">
        <ele>631.24</ele>
        <time>2021-08-16T06:59:26Z</time>
      </trkpt>
      <trkpt lat="44.93231" lon="2.44875">
        <ele>630.76</ele>
        <time>2021-08-16T06:59:27Z</time>
      </trkpt>
      <trkpt lat="44.93227" lon="2.4487">
        <ele>630.76</ele>
        <time>2021-08-16T06:59:28Z</time>
      </trkpt>
      <trkpt lat="44.93215" lon="2.44853">
        <ele>630.76</ele>
        <time>2021-08-16T06:59:32Z</time>
      </trkpt>
      <trkpt lat="44.93212" lon="2.4485">
        <ele>630.76</ele>
        <time>2021-08-16T06:59:33Z</time>
      </trkpt>
      <trkpt lat="44.93209" lon="2.44846">
        <ele>630.76</ele>
        <time>2021-08-16T06:59:34Z</time>
      </trkpt>
      <trkpt lat="44.93184" lon="2.44808">
        <ele>630.28</ele>
        <time>2021-08-16T06:59:43Z</time>
      </trkpt>
      <trkpt lat="44.93181" lon="2.44805">
        <ele>630.28</ele>
        <time>2021-08-16T06:59:44Z</time>
      </trkpt>
      <trkpt lat="44.93178" lon="2.44801">
        <ele>630.28</ele>
        <time>2021-08-16T06:59:45Z</time>
      </trkpt>
      <trkpt lat="44.93174" lon="2.44798">
        <ele>630.28</ele>
        <time>2021-08-16T06:59:46Z</time>
      </trkpt>
      <trkpt lat="44.9317" lon="2.44796">
        <ele>630.28</ele>
        <time>2021-08-16T06:59:47Z</time>
      </trkpt>
      <trkpt lat="44.93162" lon="2.4479">
        <ele>630.28</ele>
        <time>2021-08-16T06:59:49Z</time>
      </trkpt>
      <trkpt lat="44.93158" lon="2.44787">
        <ele>630.28</ele>
        <time>2021-08-16T06:59:50Z</time>
      </trkpt>
      <trkpt lat="44.93155" lon="2.44785">
        <ele>630.28</ele>
        <time>2021-08-16T06:59:51Z</time>
      </trkpt>
      <trkpt lat="44.93151" lon="2.44782">
        <ele>630.28</ele>
        <time>2021-08-16T06:59:52Z</time>
      </trkpt>
      <trkpt lat="44.93147" lon="2.4478">
        <ele>630.28</ele>
        <time>2021-08-16T06:59:53Z</time>
      </trkpt>
      <trkpt lat="44.93139" lon="2.44774">
        <ele>629.8</ele>
        <time>2021-08-16T06:59:55Z</time>
      </trkpt>
      <trkpt lat="44.93135" lon="2.44772">
        <ele>629.8</ele>
        <time>2021-08-16T06:59:56Z</time>
      </trkpt>
      <trkpt lat="44.93126" lon="2.44768">
        <ele>629.8</ele>
        <time>2021-08-16T06:59:58Z</time>
      </trkpt>
      <trkpt lat="44.93123" lon="2.44766">
        <ele>629.8</ele>
        <time>2021-08-16T06:59:59Z</time>
      </trkpt>
      <trkpt lat="44.93102" lon="2.44754">
        <ele>629.32</ele>
        <time>2021-08-16T07:00:05Z</time>
      </trkpt>
      <trkpt lat="44.93076" lon="2.44736">
        <ele>628.84</ele>
        <time>2021-08-16T07:00:13Z</time>
      </trkpt>
      <trkpt lat="44.93058" lon="2.44719">
        <ele>628.84</ele>
        <time>2021-08-16T07:00:17Z</time>
      </trkpt>
      <trkpt lat="44.93035" lon="2.44696">
        <ele>628.36</ele>
        <time>2021-08-16T07:00:24Z</time>
      </trkpt>
      <trkpt lat="44.93027" lon="2.44685">
        <ele>628.36</ele>
        <time>2021-08-16T07:00:29Z</time>
      </trkpt>
      <trkpt lat="44.93025" lon="2.44684">
        <ele>628.36</ele>
        <time>2021-08-16T07:00:30Z</time>
      </trkpt>
      <trkpt lat="44.93026" lon="2.44683">
        <ele>628.36</ele>
        <time>2021-08-16T07:00:31Z</time>
      </trkpt>
      <trkpt lat="44.93028" lon="2.44681">
        <ele>628.36</ele>
        <time>2021-08-16T07:00:32Z</time>
      </trkpt>
      <trkpt lat="44.9303" lon="2.44678">
        <ele>628.36</ele>
        <time>2021-08-16T07:00:33Z</time>
      </trkpt>
      <trkpt lat="44.93031" lon="2.44673">
        <ele>628.36</ele>
        <time>2021-08-16T07:00:34Z</time>
      </trkpt>
      <trkpt lat="44.93048" lon="2.44641">
        <ele>628.36</ele>
        <time>2021-08-16T07:00:42Z</time>
      </trkpt>
      <trkpt lat="44.9306" lon="2.44623">
        <ele>628.84</ele>
        <time>2021-08-16T07:00:47Z</time>
      </trkpt>
      <trkpt lat="44.93061" lon="2.4462">
        <ele>628.84</ele>
        <time>2021-08-16T07:00:48Z</time>
      </trkpt>
      <trkpt lat="44.93061" lon="2.44617">
        <ele>628.84</ele>
        <time>2021-08-16T07:00:49Z</time>
      </trkpt>
      <trkpt lat="44.9306" lon="2.44614">
        <ele>629.8</ele>
        <time>2021-08-16T07:00:50Z</time>
      </trkpt>
      <trkpt lat="44.93059" lon="2.44611">
        <ele>629.8</ele>
        <time>2021-08-16T07:00:51Z</time>
      </trkpt>
      <trkpt lat="44.93057" lon="2.44609">
        <ele>629.8</ele>
        <time>2021-08-16T07:00:52Z</time>
      </trkpt>
      <trkpt lat="44.93044" lon="2.44591">
        <ele>630.28</ele>
        <time>2021-08-16T07:00:59Z</time>
      </trkpt>
      <trkpt lat="44.93038" lon="2.44578">
        <ele>630.28</ele>
        <time>2021-08-16T07:01:03Z</time>
      </trkpt>
      <trkpt lat="44.93039" lon="2.44575">
        <ele>630.28</ele>
        <time>2021-08-16T07:01:04Z</time>
      </trkpt>
      <trkpt lat="44.9304" lon="2.44562">
        <ele>631.24</ele>
        <time>2021-08-16T07:01:09Z</time>
      </trkpt>
      <trkpt lat="44.93042" lon="2.44559">
        <ele>631.24</ele>
        <time>2021-08-16T07:01:10Z</time>
      </trkpt>
      <trkpt lat="44.93043" lon="2.44557">
        <ele>631.24</ele>
        <time>2021-08-16T07:01:11Z</time>
      </trkpt>
      <trkpt lat="44.93044" lon="2.44555">
        <ele>631.24</ele>
        <time>2021-08-16T07:01:12Z</time>
      </trkpt>
      <trkpt lat="44.93044" lon="2.44552">
        <ele>631.24</ele>
        <time>2021-08-16T07:01:13Z</time>
      </trkpt>
      <trkpt lat="44.93046" lon="2.4455">
        <ele>631.24</ele>
        <time>2021-08-16T07:01:14Z</time>
      </trkpt>
      <trkpt lat="44.93046" lon="2.44551">
        <ele>631.24</ele>
        <time>2021-08-16T07:01:16Z</time>
      </trkpt>
      <trkpt lat="44.93046" lon="2.44552">
        <ele>631.24</ele>
        <time>2021-08-16T07:01:17Z</time>
      </trkpt>
      <trkpt lat="44.93046" lon="2.44549">
        <ele>631.24</ele>
        <time>2021-08-16T07:01:22Z</time>
      </trkpt>
      <trkpt lat="44.93042" lon="2.44541">
        <ele>631.24</ele>
        <time>2021-08-16T07:01:32Z</time>
      </trkpt>
      <trkpt lat="44.93035" lon="2.44528">
        <ele>631.72</ele>
        <time>2021-08-16T07:01:49Z</time>
      </trkpt>
      <trkpt lat="44.93032" lon="2.44524">
        <ele>631.72</ele>
        <time>2021-08-16T07:02:05Z</time>
      </trkpt>
      <trkpt lat="44.93032" lon="2.44524">
        <ele>631.72</ele>
        <time>2021-08-16T07:02:16Z</time>
      </trkpt>
      <trkpt lat="44.93032" lon="2.44523">
        <ele>631.72</ele>
        <time>2021-08-16T07:02:18Z</time>
      </trkpt>
      <trkpt lat="44.9303" lon="2.44521">
        <ele>632.2</ele>
        <time>2021-08-16T07:02:24Z</time>
      </trkpt>
      <trkpt lat="44.93031" lon="2.44523">
        <ele>632.2</ele>
        <time>2021-08-16T07:02:32Z</time>
      </trkpt>
      <trkpt lat="44.9303" lon="2.44526">
        <ele>632.2</ele>
        <time>2021-08-16T07:02:47Z</time>
      </trkpt>
      <trkpt lat="44.93029" lon="2.44528">
        <ele>632.68</ele>
        <time>2021-08-16T07:03:00Z</time>
      </trkpt>
      <trkpt lat="44.93029" lon="2.44529">
        <ele>632.68</ele>
        <time>2021-08-16T07:03:13Z</time>
      </trkpt>
      <trkpt lat="44.93025" lon="2.44526">
        <ele>632.68</ele>
        <time>2021-08-16T07:03:32Z</time>
      </trkpt>
      <trkpt lat="44.93024" lon="2.44523">
        <ele>633.17</ele>
        <time>2021-08-16T07:03:51Z</time>
      </trkpt>
      <trkpt lat="44.9303" lon="2.44526">
        <ele>633.17</ele>
        <time>2021-08-16T07:04:13Z</time>
      </trkpt>
      <trkpt lat="44.93027" lon="2.44527">
        <ele>633.65</ele>
        <time>2021-08-16T07:04:30Z</time>
      </trkpt>
      <trkpt lat="44.93027" lon="2.44527">
        <ele>633.65</ele>
        <time>2021-08-16T07:04:39Z</time>
      </trkpt>
      <trkpt lat="44.93028" lon="2.44525">
        <ele>633.65</ele>
        <time>2021-08-16T07:05:00Z</time>
      </trkpt>
      <trkpt lat="44.93029" lon="2.44522">
        <ele>633.65</ele>
        <time>2021-08-16T07:05:05Z</time>
      </trkpt>
      <trkpt lat="44.93021" lon="2.44526">
        <ele>633.65</ele>
        <time>2021-08-16T07:05:12Z</time>
      </trkpt>
      <trkpt lat="44.93011" lon="2.44537">
        <ele>634.13</ele>
        <time>2021-08-16T07:05:19Z</time>
      </trkpt>
      <trkpt lat="44.93009" lon="2.44535">
        <ele>634.13</ele>
        <time>2021-08-16T07:05:20Z</time>
      </trkpt>
      <trkpt lat="44.93007" lon="2.44533">
        <ele>634.13</ele>
        <time>2021-08-16T07:05:21Z</time>
      </trkpt>
      <trkpt lat="44.93006" lon="2.44531">
        <ele>634.13</ele>
        <time>2021-08-16T07:05:22Z</time>
      </trkpt>
      <trkpt lat="44.93004" lon="2.44528">
        <ele>634.13</ele>
        <time>2021-08-16T07:05:23Z</time>
      </trkpt>
      <trkpt lat="44.92993" lon="2.44515">
        <ele>634.13</ele>
        <time>2021-08-16T07:05:29Z</time>
      </trkpt>
      <trkpt lat="44.92988" lon="2.44516">
        <ele>634.13</ele>
        <time>2021-08-16T07:05:32Z</time>
      </trkpt>
      <trkpt lat="44.92982" lon="2.44525">
        <ele>634.13</ele>
        <time>2021-08-16T07:05:39Z</time>
      </trkpt>
      <trkpt lat="44.92982" lon="2.44526">
        <ele>634.13</ele>
        <time>2021-08-16T07:05:40Z</time>
      </trkpt>
      <trkpt lat="44.92984" lon="2.44528">
        <ele>634.13</ele>
        <time>2021-08-16T07:05:46Z</time>
      </trkpt>
      <trkpt lat="44.92989" lon="2.4453">
        <ele>632.68</ele>
        <time>2021-08-16T07:06:04Z</time>
      </trkpt>
      <trkpt lat="44.9299" lon="2.44531">
        <ele>632.2</ele>
        <time>2021-08-16T07:06:17Z</time>
      </trkpt>
      <trkpt lat="44.92991" lon="2.44532">
        <ele>634.13</ele>
        <time>2021-08-16T07:06:23Z</time>
      </trkpt>
      <trkpt lat="44.92994" lon="2.44533">
        <ele>633.65</ele>
        <time>2021-08-16T07:06:33Z</time>
      </trkpt>
      <trkpt lat="44.92993" lon="2.4453">
        <ele>633.65</ele>
        <time>2021-08-16T07:06:42Z</time>
      </trkpt>
      <trkpt lat="44.9299" lon="2.44527">
        <ele>633.65</ele>
        <time>2021-08-16T07:06:51Z</time>
      </trkpt>
      <trkpt lat="44.92987" lon="2.44527">
        <ele>633.65</ele>
        <time>2021-08-16T07:06:53Z</time>
      </trkpt>
      <trkpt lat="44.92985" lon="2.44526">
        <ele>632.68</ele>
        <time>2021-08-16T07:06:54Z</time>
      </trkpt>
      <trkpt lat="44.92983" lon="2.44525">
        <ele>632.68</ele>
        <time>2021-08-16T07:06:55Z</time>
      </trkpt>
      <trkpt lat="44.92957" lon="2.44514">
        <ele>632.68</ele>
        <time>2021-08-16T07:07:02Z</time>
      </trkpt>
      <trkpt lat="44.92936" lon="2.44507">
        <ele>631.72</ele>
        <time>2021-08-16T07:07:08Z</time>
      </trkpt>
      <trkpt lat="44.9293" lon="2.44508">
        <ele>631.72</ele>
        <time>2021-08-16T07:07:10Z</time>
      </trkpt>
      <trkpt lat="44.92905" lon="2.44526">
        <ele>630.28</ele>
        <time>2021-08-16T07:07:18Z</time>
      </trkpt>
      <trkpt lat="44.92889" lon="2.4454">
        <ele>629.32</ele>
        <time>2021-08-16T07:07:24Z</time>
      </trkpt>
      <trkpt lat="44.92877" lon="2.44562">
        <ele>628.84</ele>
        <time>2021-08-16T07:07:31Z</time>
      </trkpt>
      <trkpt lat="44.92877" lon="2.44567">
        <ele>628.84</ele>
        <time>2021-08-16T07:07:37Z</time>
      </trkpt>
      <trkpt lat="44.9288" lon="2.44569">
        <ele>628.84</ele>
        <time>2021-08-16T07:07:54Z</time>
      </trkpt>
      <trkpt lat="44.92882" lon="2.44572">
        <ele>628.84</ele>
        <time>2021-08-16T07:08:16Z</time>
      </trkpt>
      <trkpt lat="44.92883" lon="2.44574">
        <ele>628.84</ele>
        <time>2021-08-16T07:08:30Z</time>
      </trkpt>
      <trkpt lat="44.92884" lon="2.44573">
        <ele>628.84</ele>
        <time>2021-08-16T07:08:50Z</time>
      </trkpt>
      <trkpt lat="44.92886" lon="2.4457">
        <ele>628.84</ele>
        <time>2021-08-16T07:09:11Z</time>
      </trkpt>
      <trkpt lat="44.92886" lon="2.44567">
        <ele>628.84</ele>
        <time>2021-08-16T07:09:35Z</time>
      </trkpt>
      <trkpt lat="44.92885" lon="2.44566">
        <ele>628.84</ele>
        <time>2021-08-16T07:09:54Z</time>
      </trkpt>
      <trkpt lat="44.92886" lon="2.44565">
        <ele>628.84</ele>
        <time>2021-08-16T07:10:12Z</time>
      </trkpt>
      <trkpt lat="44.92886" lon="2.44563">
        <ele>628.84</ele>
        <time>2021-08-16T07:10:33Z</time>
      </trkpt>
      <trkpt lat="44.92888" lon="2.44566">
        <ele>628.36</ele>
        <time>2021-08-16T07:10:52Z</time>
      </trkpt>
      <trkpt lat="44.92887" lon="2.44568">
        <ele>628.36</ele>
        <time>2021-08-16T07:11:11Z</time>
      </trkpt>
      <trkpt lat="44.92885" lon="2.44568">
        <ele>628.36</ele>
        <time>2021-08-16T07:11:32Z</time>
      </trkpt>
      <trkpt lat="44.92883" lon="2.44567">
        <ele>628.36</ele>
        <time>2021-08-16T07:11:50Z</time>
      </trkpt>
      <trkpt lat="44.92879" lon="2.44565">
        <ele>628.36</ele>
        <time>2021-08-16T07:12:07Z</time>
      </trkpt>
      <trkpt lat="44.92878" lon="2.44566">
        <ele>628.36</ele>
        <time>2021-08-16T07:12:21Z</time>
      </trkpt>
      <trkpt lat="44.92878" lon="2.44567">
        <ele>628.36</ele>
        <time>2021-08-16T07:12:36Z</time>
      </trkpt>
      <trkpt lat="44.92881" lon="2.44569">
        <ele>628.36</ele>
        <time>2021-08-16T07:12:55Z</time>
      </trkpt>
      <trkpt lat="44.92883" lon="2.44569">
        <ele>628.36</ele>
        <time>2021-08-16T07:13:16Z</time>
      </trkpt>
      <trkpt lat="44.92882" lon="2.44567">
        <ele>628.36</ele>
        <time>2021-08-16T07:13:41Z</time>
      </trkpt>
      <trkpt lat="44.9288" lon="2.44567">
        <ele>628.36</ele>
        <time>2021-08-16T07:13:57Z</time>
      </trkpt>
      <trkpt lat="44.92879" lon="2.44563">
        <ele>628.36</ele>
        <time>2021-08-16T07:14:21Z</time>
      </trkpt>
      <trkpt lat="44.92879" lon="2.44567">
        <ele>628.36</ele>
        <time>2021-08-16T07:14:41Z</time>
      </trkpt>
      <trkpt lat="44.92878" lon="2.44569">
        <ele>628.36</ele>
        <time>2021-08-16T07:14:59Z</time>
      </trkpt>
      <trkpt lat="44.92879" lon="2.4457">
        <ele>628.36</ele>
        <time>2021-08-16T07:15:19Z</time>
      </trkpt>
      <trkpt lat="44.92881" lon="2.44568">
        <ele>628.36</ele>
        <time>2021-08-16T07:15:35Z</time>
      </trkpt>
      <trkpt lat="44.92882" lon="2.44568">
        <ele>628.36</ele>
        <time>2021-08-16T07:15:50Z</time>
      </trkpt>
      <trkpt lat="44.92883" lon="2.44567">
        <ele>628.36</ele>
        <time>2021-08-16T07:16:09Z</time>
      </trkpt>
      <trkpt lat="44.92883" lon="2.44567">
        <ele>628.36</ele>
        <time>2021-08-16T07:16:29Z</time>
      </trkpt>
      <trkpt lat="44.92884" lon="2.4457">
        <ele>628.36</ele>
        <time>2021-08-16T07:16:53Z</time>
      </trkpt>
      <trkpt lat="44.92883" lon="2.44571">
        <ele>628.36</ele>
        <time>2021-08-16T07:17:04Z</time>
      </trkpt>
      <trkpt lat="44.92884" lon="2.4457">
        <ele>628.36</ele>
        <time>2021-08-16T07:17:17Z</time>
      </trkpt>
      <trkpt lat="44.92885" lon="2.44569">
        <ele>628.36</ele>
        <time>2021-08-16T07:17:41Z</time>
      </trkpt>
      <trkpt lat="44.92883" lon="2.44566">
        <ele>628.36</ele>
        <time>2021-08-16T07:18:03Z</time>
      </trkpt>
      <trkpt lat="44.92879" lon="2.44564">
        <ele>628.36</ele>
        <time>2021-08-16T07:18:29Z</time>
      </trkpt>
      <trkpt lat="44.92881" lon="2.44566">
        <ele>628.36</ele>
        <time>2021-08-16T07:18:52Z</time>
      </trkpt>
      <trkpt lat="44.9288" lon="2.44563">
        <ele>628.36</ele>
        <time>2021-08-16T07:19:14Z</time>
      </trkpt>
      <trkpt lat="44.92879" lon="2.44563">
        <ele>628.36</ele>
        <time>2021-08-16T07:19:31Z</time>
      </trkpt>
      <trkpt lat="44.92881" lon="2.44564">
        <ele>628.36</ele>
        <time>2021-08-16T07:19:45Z</time>
      </trkpt>
      <trkpt lat="44.92885" lon="2.44564">
        <ele>628.36</ele>
        <time>2021-08-16T07:20:01Z</time>
      </trkpt>
      <trkpt lat="44.92884" lon="2.44563">
        <ele>628.36</ele>
        <time>2021-08-16T07:20:17Z</time>
      </trkpt>
      <trkpt lat="44.92883" lon="2.44568">
        <ele>628.36</ele>
        <time>2021-08-16T07:20:35Z</time>
      </trkpt>
      <trkpt lat="44.92884" lon="2.44569">
        <ele>628.36</ele>
        <time>2021-08-16T07:20:50Z</time>
      </trkpt>
      <trkpt lat="44.92884" lon="2.44568">
        <ele>628.36</ele>
        <time>2021-08-16T07:21:08Z</time>
      </trkpt>
      <trkpt lat="44.92883" lon="2.44567">
        <ele>627.88</ele>
        <time>2021-08-16T07:21:29Z</time>
      </trkpt>
      <trkpt lat="44.92884" lon="2.44569">
        <ele>627.88</ele>
        <time>2021-08-16T07:21:50Z</time>
      </trkpt>
      <trkpt lat="44.92883" lon="2.44571">
        <ele>627.88</ele>
        <time>2021-08-16T07:22:06Z</time>
      </trkpt>
      <trkpt lat="44.92881" lon="2.44571">
        <ele>628.36</ele>
        <time>2021-08-16T07:22:17Z</time>
      </trkpt>
      <trkpt lat="44.92882" lon="2.44571">
        <ele>628.36</ele>
        <time>2021-08-16T07:22:25Z</time>
      </trkpt>
      <trkpt lat="44.92878" lon="2.44568">
        <ele>628.36</ele>
        <time>2021-08-16T07:22:41Z</time>
      </trkpt>
      <trkpt lat="44.9288" lon="2.44567">
        <ele>628.36</ele>
        <time>2021-08-16T07:23:02Z</time>
      </trkpt>
      <trkpt lat="44.92881" lon="2.44567">
        <ele>628.36</ele>
        <time>2021-08-16T07:23:21Z</time>
      </trkpt>
      <trkpt lat="44.92881" lon="2.44567">
        <ele>627.88</ele>
        <time>2021-08-16T07:23:29Z</time>
      </trkpt>
      <trkpt lat="44.92882" lon="2.44564">
        <ele>627.88</ele>
        <time>2021-08-16T07:23:32Z</time>
      </trkpt>
      <trkpt lat="44.9288" lon="2.44561">
        <ele>627.88</ele>
        <time>2021-08-16T07:23:40Z</time>
      </trkpt>
      <trkpt lat="44.92879" lon="2.4456">
        <ele>627.88</ele>
        <time>2021-08-16T07:23:53Z</time>
      </trkpt>
      <trkpt lat="44.92881" lon="2.4456">
        <ele>627.88</ele>
        <time>2021-08-16T07:24:02Z</time>
      </trkpt>
      <trkpt lat="44.92882" lon="2.44558">
        <ele>627.88</ele>
        <time>2021-08-16T07:24:19Z</time>
      </trkpt>
      <trkpt lat="44.92883" lon="2.44559">
        <ele>627.88</ele>
        <time>2021-08-16T07:24:26Z</time>
      </trkpt>
      <trkpt lat="44.92893" lon="2.44548">
        <ele>627.88</ele>
        <time>2021-08-16T07:24:32Z</time>
      </trkpt>
      <trkpt lat="44.92905" lon="2.44534">
        <ele>629.32</ele>
        <time>2021-08-16T07:24:38Z</time>
      </trkpt>
      <trkpt lat="44.92922" lon="2.44519">
        <ele>629.8</ele>
        <time>2021-08-16T07:24:46Z</time>
      </trkpt>
      <trkpt lat="44.92936" lon="2.44508">
        <ele>630.76</ele>
        <time>2021-08-16T07:24:53Z</time>
      </trkpt>
      <trkpt lat="44.92948" lon="2.44513">
        <ele>631.24</ele>
        <time>2021-08-16T07:25:00Z</time>
      </trkpt>
      <trkpt lat="44.92965" lon="2.4452">
        <ele>631.72</ele>
        <time>2021-08-16T07:25:07Z</time>
      </trkpt>
      <trkpt lat="44.92983" lon="2.44523">
        <ele>631.72</ele>
        <time>2021-08-16T07:25:14Z</time>
      </trkpt>
      <trkpt lat="44.92998" lon="2.4454">
        <ele>631.72</ele>
        <time>2021-08-16T07:25:20Z</time>
      </trkpt>
      <trkpt lat="44.93001" lon="2.44541">
        <ele>631.72</ele>
        <time>2021-08-16T07:25:21Z</time>
      </trkpt>
      <trkpt lat="44.93006" lon="2.44542">
        <ele>631.72</ele>
        <time>2021-08-16T07:25:24Z</time>
      </trkpt>
      <trkpt lat="44.93008" lon="2.44544">
        <ele>631.72</ele>
        <time>2021-08-16T07:25:25Z</time>
      </trkpt>
      <trkpt lat="44.93028" lon="2.44559">
        <ele>630.28</ele>
        <time>2021-08-16T07:25:33Z</time>
      </trkpt>
      <trkpt lat="44.93041" lon="2.44577">
        <ele>630.28</ele>
        <time>2021-08-16T07:25:38Z</time>
      </trkpt>
      <trkpt lat="44.93053" lon="2.44598">
        <ele>630.28</ele>
        <time>2021-08-16T07:25:43Z</time>
      </trkpt>
      <trkpt lat="44.93061" lon="2.44608">
        <ele>630.28</ele>
        <time>2021-08-16T07:25:47Z</time>
      </trkpt>
      <trkpt lat="44.93064" lon="2.44608">
        <ele>630.28</ele>
        <time>2021-08-16T07:25:48Z</time>
      </trkpt>
      <trkpt lat="44.93067" lon="2.44607">
        <ele>630.28</ele>
        <time>2021-08-16T07:25:49Z</time>
      </trkpt>
      <trkpt lat="44.93069" lon="2.44604">
        <ele>630.28</ele>
        <time>2021-08-16T07:25:50Z</time>
      </trkpt>
      <trkpt lat="44.93071" lon="2.44601">
        <ele>630.28</ele>
        <time>2021-08-16T07:25:51Z</time>
      </trkpt>
      <trkpt lat="44.93072" lon="2.44597">
        <ele>630.28</ele>
        <time>2021-08-16T07:25:52Z</time>
      </trkpt>
      <trkpt lat="44.9308" lon="2.44575">
        <ele>630.76</ele>
        <time>2021-08-16T07:25:57Z</time>
      </trkpt>
      <trkpt lat="44.93086" lon="2.44545">
        <ele>631.72</ele>
        <time>2021-08-16T07:26:04Z</time>
      </trkpt>
      <trkpt lat="44.93085" lon="2.44536">
        <ele>632.2</ele>
        <time>2021-08-16T07:26:06Z</time>
      </trkpt>
      <trkpt lat="44.93083" lon="2.44528">
        <ele>632.2</ele>
        <time>2021-08-16T07:26:08Z</time>
      </trkpt>
      <trkpt lat="44.93082" lon="2.44524">
        <ele>632.68</ele>
        <time>2021-08-16T07:26:09Z</time>
      </trkpt>
      <trkpt lat="44.93081" lon="2.44521">
        <ele>632.68</ele>
        <time>2021-08-16T07:26:10Z</time>
      </trkpt>
      <trkpt lat="44.93081" lon="2.44498">
        <ele>633.17</ele>
        <time>2021-08-16T07:26:16Z</time>
      </trkpt>
      <trkpt lat="44.93082" lon="2.44473">
        <ele>634.13</ele>
        <time>2021-08-16T07:26:23Z</time>
      </trkpt>
      <trkpt lat="44.93081" lon="2.44469">
        <ele>634.13</ele>
        <time>2021-08-16T07:26:24Z</time>
      </trkpt>
      <trkpt lat="44.93081" lon="2.44466">
        <ele>634.61</ele>
        <time>2021-08-16T07:26:25Z</time>
      </trkpt>
      <trkpt lat="44.93081" lon="2.44464">
        <ele>634.61</ele>
        <time>2021-08-16T07:26:26Z</time>
      </trkpt>
      <trkpt lat="44.93081" lon="2.44461">
        <ele>634.61</ele>
        <time>2021-08-16T07:26:27Z</time>
      </trkpt>
      <trkpt lat="44.9308" lon="2.44458">
        <ele>634.61</ele>
        <time>2021-08-16T07:26:28Z</time>
      </trkpt>
      <trkpt lat="44.9308" lon="2.44454">
        <ele>635.09</ele>
        <time>2021-08-16T07:26:29Z</time>
      </trkpt>
      <trkpt lat="44.93079" lon="2.44433">
        <ele>635.57</ele>
        <time>2021-08-16T07:26:35Z</time>
      </trkpt>
      <trkpt lat="44.93076" lon="2.44413">
        <ele>636.53</ele>
        <time>2021-08-16T07:26:42Z</time>
      </trkpt>
      <trkpt lat="44.93076" lon="2.44409">
        <ele>636.53</ele>
        <time>2021-08-16T07:26:43Z</time>
      </trkpt>
      <trkpt lat="44.93076" lon="2.44406">
        <ele>636.53</ele>
        <time>2021-08-16T07:26:44Z</time>
      </trkpt>
      <trkpt lat="44.93076" lon="2.44403">
        <ele>636.53</ele>
        <time>2021-08-16T07:26:45Z</time>
      </trkpt>
      <trkpt lat="44.93075" lon="2.44399">
        <ele>637.01</ele>
        <time>2021-08-16T07:26:46Z</time>
      </trkpt>
      <trkpt lat="44.93075" lon="2.44396">
        <ele>637.01</ele>
        <time>2021-08-16T07:26:47Z</time>
      </trkpt>
      <trkpt lat="44.93075" lon="2.44371">
        <ele>637.49</ele>
        <time>2021-08-16T07:26:54Z</time>
      </trkpt>
      <trkpt lat="44.93075" lon="2.44336">
        <ele>638.93</ele>
        <time>2021-08-16T07:27:04Z</time>
      </trkpt>
      <trkpt lat="44.93074" lon="2.44309">
        <ele>639.41</ele>
        <time>2021-08-16T07:27:12Z</time>
      </trkpt>
      <trkpt lat="44.93075" lon="2.4428">
        <ele>640.38</ele>
        <time>2021-08-16T07:27:20Z</time>
      </trkpt>
      <trkpt lat="44.93073" lon="2.44251">
        <ele>641.82</ele>
        <time>2021-08-16T07:27:29Z</time>
      </trkpt>
      <trkpt lat="44.93073" lon="2.44245">
        <ele>642.3</ele>
        <time>2021-08-16T07:27:31Z</time>
      </trkpt>
      <trkpt lat="44.93079" lon="2.44233">
        <ele>643.26</ele>
        <time>2021-08-16T07:27:36Z</time>
      </trkpt>
      <trkpt lat="44.93094" lon="2.44232">
        <ele>644.7</ele>
        <time>2021-08-16T07:27:44Z</time>
      </trkpt>
      <trkpt lat="44.93102" lon="2.44241">
        <ele>645.66</ele>
        <time>2021-08-16T07:27:51Z</time>
      </trkpt>
      <trkpt lat="44.93109" lon="2.44251">
        <ele>646.62</ele>
        <time>2021-08-16T07:28:00Z</time>
      </trkpt>
      <trkpt lat="44.9312" lon="2.44263">
        <ele>648.07</ele>
        <time>2021-08-16T07:28:07Z</time>
      </trkpt>
      <trkpt lat="44.93129" lon="2.44276">
        <ele>649.03</ele>
        <time>2021-08-16T07:28:14Z</time>
      </trkpt>
      <trkpt lat="44.93133" lon="2.44293">
        <ele>650.47</ele>
        <time>2021-08-16T07:28:21Z</time>
      </trkpt>
      <trkpt lat="44.93137" lon="2.44317">
        <ele>650.95</ele>
        <time>2021-08-16T07:28:29Z</time>
      </trkpt>
      <trkpt lat="44.93143" lon="2.44343">
        <ele>652.39</ele>
        <time>2021-08-16T07:28:37Z</time>
      </trkpt>
      <trkpt lat="44.9315" lon="2.44371">
        <ele>653.83</ele>
        <time>2021-08-16T07:28:46Z</time>
      </trkpt>
      <trkpt lat="44.93154" lon="2.44402">
        <ele>654.8</ele>
        <time>2021-08-16T07:28:55Z</time>
      </trkpt>
      <trkpt lat="44.93161" lon="2.44416">
        <ele>654.8</ele>
        <time>2021-08-16T07:29:01Z</time>
      </trkpt>
      <trkpt lat="44.93163" lon="2.44417">
        <ele>654.8</ele>
        <time>2021-08-16T07:29:02Z</time>
      </trkpt>
      <trkpt lat="44.93165" lon="2.44416">
        <ele>654.8</ele>
        <time>2021-08-16T07:29:03Z</time>
      </trkpt>
      <trkpt lat="44.93167" lon="2.44414">
        <ele>655.28</ele>
        <time>2021-08-16T07:29:04Z</time>
      </trkpt>
      <trkpt lat="44.93168" lon="2.44411">
        <ele>655.76</ele>
        <time>2021-08-16T07:29:05Z</time>
      </trkpt>
      <trkpt lat="44.93168" lon="2.44408">
        <ele>655.76</ele>
        <time>2021-08-16T07:29:06Z</time>
      </trkpt>
      <trkpt lat="44.93168" lon="2.44405">
        <ele>655.76</ele>
        <time>2021-08-16T07:29:07Z</time>
      </trkpt>
      <trkpt lat="44.93168" lon="2.44402">
        <ele>655.76</ele>
        <time>2021-08-16T07:29:08Z</time>
      </trkpt>
      <trkpt lat="44.93163" lon="2.44377">
        <ele>656.72</ele>
        <time>2021-08-16T07:29:16Z</time>
      </trkpt>
      <trkpt lat="44.93158" lon="2.44356">
        <ele>658.16</ele>
        <time>2021-08-16T07:29:25Z</time>
      </trkpt>
      <trkpt lat="44.93156" lon="2.44332">
        <ele>659.12</ele>
        <time>2021-08-16T07:29:34Z</time>
      </trkpt>
      <trkpt lat="44.93158" lon="2.44297">
        <ele>661.04</ele>
        <time>2021-08-16T07:29:44Z</time>
      </trkpt>
      <trkpt lat="44.93168" lon="2.44271">
        <ele>662.01</ele>
        <time>2021-08-16T07:29:53Z</time>
      </trkpt>
      <trkpt lat="44.93181" lon="2.4425">
        <ele>662.97</ele>
        <time>2021-08-16T07:30:02Z</time>
      </trkpt>
      <trkpt lat="44.93193" lon="2.4423">
        <ele>663.45</ele>
        <time>2021-08-16T07:30:10Z</time>
      </trkpt>
      <trkpt lat="44.93203" lon="2.44206">
        <ele>664.89</ele>
        <time>2021-08-16T07:30:19Z</time>
      </trkpt>
      <trkpt lat="44.93211" lon="2.44185">
        <ele>665.85</ele>
        <time>2021-08-16T07:30:27Z</time>
      </trkpt>
      <trkpt lat="44.93222" lon="2.4416">
        <ele>667.29</ele>
        <time>2021-08-16T07:30:37Z</time>
      </trkpt>
      <trkpt lat="44.93224" lon="2.44158">
        <ele>667.29</ele>
        <time>2021-08-16T07:30:38Z</time>
      </trkpt>
      <trkpt lat="44.93238" lon="2.4413">
        <ele>669.22</ele>
        <time>2021-08-16T07:30:50Z</time>
      </trkpt>
      <trkpt lat="44.93248" lon="2.44109">
        <ele>670.66</ele>
        <time>2021-08-16T07:30:59Z</time>
      </trkpt>
      <trkpt lat="44.93259" lon="2.4409">
        <ele>672.1</ele>
        <time>2021-08-16T07:31:08Z</time>
      </trkpt>
      <trkpt lat="44.93265" lon="2.44072">
        <ele>673.06</ele>
        <time>2021-08-16T07:31:16Z</time>
      </trkpt>
      <trkpt lat="44.93277" lon="2.44048">
        <ele>674.5</ele>
        <time>2021-08-16T07:31:27Z</time>
      </trkpt>
      <trkpt lat="44.93286" lon="2.44034">
        <ele>675.46</ele>
        <time>2021-08-16T07:31:35Z</time>
      </trkpt>
      <trkpt lat="44.933" lon="2.44014">
        <ele>677.39</ele>
        <time>2021-08-16T07:31:44Z</time>
      </trkpt>
      <trkpt lat="44.93316" lon="2.43992">
        <ele>678.83</ele>
        <time>2021-08-16T07:31:54Z</time>
      </trkpt>
      <trkpt lat="44.93334" lon="2.43969">
        <ele>680.75</ele>
        <time>2021-08-16T07:32:06Z</time>
      </trkpt>
      <trkpt lat="44.9335" lon="2.4395">
        <ele>682.19</ele>
        <time>2021-08-16T07:32:17Z</time>
      </trkpt>
      <trkpt lat="44.93357" lon="2.43932">
        <ele>683.63</ele>
        <time>2021-08-16T07:32:25Z</time>
      </trkpt>
      <trkpt lat="44.93357" lon="2.43907">
        <ele>685.08</ele>
        <time>2021-08-16T07:32:35Z</time>
      </trkpt>
      <trkpt lat="44.93355" lon="2.43896">
        <ele>686.04</ele>
        <time>2021-08-16T07:32:40Z</time>
      </trkpt>
      <trkpt lat="44.93355" lon="2.43894">
        <ele>686.04</ele>
        <time>2021-08-16T07:32:41Z</time>
      </trkpt>
      <trkpt lat="44.93348" lon="2.43878">
        <ele>687.48</ele>
        <time>2021-08-16T07:32:49Z</time>
      </trkpt>
      <trkpt lat="44.93347" lon="2.43877">
        <ele>687.48</ele>
        <time>2021-08-16T07:32:50Z</time>
      </trkpt>
      <trkpt lat="44.93345" lon="2.43876">
        <ele>687.48</ele>
        <time>2021-08-16T07:32:51Z</time>
      </trkpt>
      <trkpt lat="44.93343" lon="2.43876">
        <ele>687.48</ele>
        <time>2021-08-16T07:32:52Z</time>
      </trkpt>
      <trkpt lat="44.93341" lon="2.43877">
        <ele>687.48</ele>
        <time>2021-08-16T07:32:53Z</time>
      </trkpt>
      <trkpt lat="44.93339" lon="2.43879">
        <ele>687.48</ele>
        <time>2021-08-16T07:32:54Z</time>
      </trkpt>
      <trkpt lat="44.93337" lon="2.4388">
        <ele>687.48</ele>
        <time>2021-08-16T07:32:55Z</time>
      </trkpt>
      <trkpt lat="44.93335" lon="2.43882">
        <ele>687.48</ele>
        <time>2021-08-16T07:32:56Z</time>
      </trkpt>
      <trkpt lat="44.93334" lon="2.43884">
        <ele>687.48</ele>
        <time>2021-08-16T07:32:57Z</time>
      </trkpt>
      <trkpt lat="44.93316" lon="2.43894">
        <ele>688.92</ele>
        <time>2021-08-16T07:33:06Z</time>
      </trkpt>
      <trkpt lat="44.93296" lon="2.43899">
        <ele>690.36</ele>
        <time>2021-08-16T07:33:15Z</time>
      </trkpt>
      <trkpt lat="44.93282" lon="2.43898">
        <ele>692.29</ele>
        <time>2021-08-16T07:33:22Z</time>
      </trkpt>
      <trkpt lat="44.93268" lon="2.43896">
        <ele>694.21</ele>
        <time>2021-08-16T07:33:30Z</time>
      </trkpt>
      <trkpt lat="44.93257" lon="2.43889">
        <ele>696.13</ele>
        <time>2021-08-16T07:33:38Z</time>
      </trkpt>
      <trkpt lat="44.93252" lon="2.43887">
        <ele>696.61</ele>
        <time>2021-08-16T07:33:42Z</time>
      </trkpt>
      <trkpt lat="44.9325" lon="2.43884">
        <ele>696.61</ele>
        <time>2021-08-16T07:33:44Z</time>
      </trkpt>
      <trkpt lat="44.93249" lon="2.43884">
        <ele>696.61</ele>
        <time>2021-08-16T07:33:45Z</time>
      </trkpt>
      <trkpt lat="44.93239" lon="2.43872">
        <ele>698.05</ele>
        <time>2021-08-16T07:33:54Z</time>
      </trkpt>
      <trkpt lat="44.93235" lon="2.43851">
        <ele>699.98</ele>
        <time>2021-08-16T07:34:05Z</time>
      </trkpt>
      <trkpt lat="44.93232" lon="2.43832">
        <ele>702.38</ele>
        <time>2021-08-16T07:34:16Z</time>
      </trkpt>
      <trkpt lat="44.9323" lon="2.43813">
        <ele>703.82</ele>
        <time>2021-08-16T07:34:26Z</time>
      </trkpt>
      <trkpt lat="44.93227" lon="2.43793">
        <ele>705.26</ele>
        <time>2021-08-16T07:34:37Z</time>
      </trkpt>
      <trkpt lat="44.93224" lon="2.43771">
        <ele>707.19</ele>
        <time>2021-08-16T07:34:47Z</time>
      </trkpt>
      <trkpt lat="44.93221" lon="2.43746">
        <ele>710.07</ele>
        <time>2021-08-16T07:34:58Z</time>
      </trkpt>
      <trkpt lat="44.93221" lon="2.43721">
        <ele>710.07</ele>
        <time>2021-08-16T07:35:06Z</time>
      </trkpt>
      <trkpt lat="44.93219" lon="2.43691">
        <ele>710.07</ele>
        <time>2021-08-16T07:35:14Z</time>
      </trkpt>
      <trkpt lat="44.9322" lon="2.43665">
        <ele>709.59</ele>
        <time>2021-08-16T07:35:22Z</time>
      </trkpt>
      <trkpt lat="44.9322" lon="2.43663">
        <ele>709.59</ele>
        <time>2021-08-16T07:35:23Z</time>
      </trkpt>
      <trkpt lat="44.9322" lon="2.43662">
        <ele>709.59</ele>
        <time>2021-08-16T07:35:24Z</time>
      </trkpt>
      <trkpt lat="44.9322" lon="2.4366">
        <ele>709.59</ele>
        <time>2021-08-16T07:35:25Z</time>
      </trkpt>
      <trkpt lat="44.93218" lon="2.43658">
        <ele>709.59</ele>
        <time>2021-08-16T07:35:26Z</time>
      </trkpt>
      <trkpt lat="44.93215" lon="2.43656">
        <ele>709.59</ele>
        <time>2021-08-16T07:35:27Z</time>
      </trkpt>
      <trkpt lat="44.93206" lon="2.4365">
        <ele>708.63</ele>
        <time>2021-08-16T07:35:30Z</time>
      </trkpt>
      <trkpt lat="44.93178" lon="2.43633">
        <ele>705.75</ele>
        <time>2021-08-16T07:35:36Z</time>
      </trkpt>
      <trkpt lat="44.93156" lon="2.43617">
        <ele>705.26</ele>
        <time>2021-08-16T07:35:40Z</time>
      </trkpt>
      <trkpt lat="44.9315" lon="2.43612">
        <ele>705.26</ele>
        <time>2021-08-16T07:35:41Z</time>
      </trkpt>
      <trkpt lat="44.93145" lon="2.4361">
        <ele>704.78</ele>
        <time>2021-08-16T07:35:42Z</time>
      </trkpt>
      <trkpt lat="44.93139" lon="2.43608">
        <ele>704.3</ele>
        <time>2021-08-16T07:35:44Z</time>
      </trkpt>
      <trkpt lat="44.93138" lon="2.43605">
        <ele>703.82</ele>
        <time>2021-08-16T07:35:45Z</time>
      </trkpt>
      <trkpt lat="44.93138" lon="2.43601">
        <ele>704.3</ele>
        <time>2021-08-16T07:35:46Z</time>
      </trkpt>
      <trkpt lat="44.93138" lon="2.43598">
        <ele>704.3</ele>
        <time>2021-08-16T07:35:47Z</time>
      </trkpt>
      <trkpt lat="44.93139" lon="2.43594">
        <ele>703.34</ele>
        <time>2021-08-16T07:35:48Z</time>
      </trkpt>
      <trkpt lat="44.9314" lon="2.4359">
        <ele>703.34</ele>
        <time>2021-08-16T07:35:49Z</time>
      </trkpt>
      <trkpt lat="44.93141" lon="2.43585">
        <ele>703.34</ele>
        <time>2021-08-16T07:35:50Z</time>
      </trkpt>
      <trkpt lat="44.93143" lon="2.4358">
        <ele>703.34</ele>
        <time>2021-08-16T07:35:51Z</time>
      </trkpt>
      <trkpt lat="44.93162" lon="2.4352">
        <ele>700.94</ele>
        <time>2021-08-16T07:36:00Z</time>
      </trkpt>
      <trkpt lat="44.9317" lon="2.43492">
        <ele>699.98</ele>
        <time>2021-08-16T07:36:04Z</time>
      </trkpt>
      <trkpt lat="44.93175" lon="2.43477">
        <ele>699.02</ele>
        <time>2021-08-16T07:36:06Z</time>
      </trkpt>
      <trkpt lat="44.93175" lon="2.43468">
        <ele>698.05</ele>
        <time>2021-08-16T07:36:07Z</time>
      </trkpt>
      <trkpt lat="44.93173" lon="2.43459">
        <ele>696.61</ele>
        <time>2021-08-16T07:36:08Z</time>
      </trkpt>
      <trkpt lat="44.93169" lon="2.43452">
        <ele>696.61</ele>
        <time>2021-08-16T07:36:09Z</time>
      </trkpt>
      <trkpt lat="44.93165" lon="2.43446">
        <ele>697.57</ele>
        <time>2021-08-16T07:36:10Z</time>
      </trkpt>
      <trkpt lat="44.93161" lon="2.4344">
        <ele>697.57</ele>
        <time>2021-08-16T07:36:11Z</time>
      </trkpt>
      <trkpt lat="44.93141" lon="2.43403">
        <ele>697.57</ele>
        <time>2021-08-16T07:36:17Z</time>
      </trkpt>
      <trkpt lat="44.93141" lon="2.43396">
        <ele>696.61</ele>
        <time>2021-08-16T07:36:18Z</time>
      </trkpt>
      <trkpt lat="44.93143" lon="2.4339">
        <ele>696.13</ele>
        <time>2021-08-16T07:36:19Z</time>
      </trkpt>
      <trkpt lat="44.93146" lon="2.43378">
        <ele>695.65</ele>
        <time>2021-08-16T07:36:21Z</time>
      </trkpt>
      <trkpt lat="44.93149" lon="2.4337">
        <ele>696.13</ele>
        <time>2021-08-16T07:36:22Z</time>
      </trkpt>
      <trkpt lat="44.93155" lon="2.43349">
        <ele>696.13</ele>
        <time>2021-08-16T07:36:26Z</time>
      </trkpt>
      <trkpt lat="44.93154" lon="2.43347">
        <ele>696.13</ele>
        <time>2021-08-16T07:36:27Z</time>
      </trkpt>
      <trkpt lat="44.93153" lon="2.43349">
        <ele>696.13</ele>
        <time>2021-08-16T07:36:28Z</time>
      </trkpt>
      <trkpt lat="44.93152" lon="2.43351">
        <ele>696.13</ele>
        <time>2021-08-16T07:36:29Z</time>
      </trkpt>
      <trkpt lat="44.93151" lon="2.43354">
        <ele>696.13</ele>
        <time>2021-08-16T07:36:30Z</time>
      </trkpt>
      <trkpt lat="44.93146" lon="2.43361">
        <ele>696.13</ele>
        <time>2021-08-16T07:36:33Z</time>
      </trkpt>
      <trkpt lat="44.93143" lon="2.43361">
        <ele>696.13</ele>
        <time>2021-08-16T07:36:34Z</time>
      </trkpt>
      <trkpt lat="44.9314" lon="2.43359">
        <ele>696.13</ele>
        <time>2021-08-16T07:36:35Z</time>
      </trkpt>
      <trkpt lat="44.93118" lon="2.43345">
        <ele>692.29</ele>
        <time>2021-08-16T07:36:40Z</time>
      </trkpt>
      <trkpt lat="44.93114" lon="2.4334">
        <ele>691.81</ele>
        <time>2021-08-16T07:36:41Z</time>
      </trkpt>
      <trkpt lat="44.9311" lon="2.43336">
        <ele>690.84</ele>
        <time>2021-08-16T07:36:42Z</time>
      </trkpt>
      <trkpt lat="44.93104" lon="2.43332">
        <ele>689.88</ele>
        <time>2021-08-16T07:36:43Z</time>
      </trkpt>
      <trkpt lat="44.93098" lon="2.4333">
        <ele>689.88</ele>
        <time>2021-08-16T07:36:44Z</time>
      </trkpt>
      <trkpt lat="44.93092" lon="2.43328">
        <ele>688.44</ele>
        <time>2021-08-16T07:36:45Z</time>
      </trkpt>
      <trkpt lat="44.93085" lon="2.43325">
        <ele>688.44</ele>
        <time>2021-08-16T07:36:46Z</time>
      </trkpt>
      <trkpt lat="44.9308" lon="2.43321">
        <ele>688.44</ele>
        <time>2021-08-16T07:36:47Z</time>
      </trkpt>
      <trkpt lat="44.93075" lon="2.43316">
        <ele>688.92</ele>
        <time>2021-08-16T07:36:48Z</time>
      </trkpt>
      <trkpt lat="44.93071" lon="2.43311">
        <ele>688.44</ele>
        <time>2021-08-16T07:36:49Z</time>
      </trkpt>
      <trkpt lat="44.93067" lon="2.43305">
        <ele>688.44</ele>
        <time>2021-08-16T07:36:50Z</time>
      </trkpt>
      <trkpt lat="44.93049" lon="2.43277">
        <ele>689.88</ele>
        <time>2021-08-16T07:36:56Z</time>
      </trkpt>
      <trkpt lat="44.93046" lon="2.43274">
        <ele>689.88</ele>
        <time>2021-08-16T07:36:57Z</time>
      </trkpt>
      <trkpt lat="44.93042" lon="2.4327">
        <ele>689.88</ele>
        <time>2021-08-16T07:36:58Z</time>
      </trkpt>
      <trkpt lat="44.93038" lon="2.43266">
        <ele>688.92</ele>
        <time>2021-08-16T07:36:59Z</time>
      </trkpt>
      <trkpt lat="44.93032" lon="2.43261">
        <ele>687.96</ele>
        <time>2021-08-16T07:37:00Z</time>
      </trkpt>
      <trkpt lat="44.93025" lon="2.43259">
        <ele>687.96</ele>
        <time>2021-08-16T07:37:01Z</time>
      </trkpt>
      <trkpt lat="44.93019" lon="2.43259">
        <ele>687.96</ele>
        <time>2021-08-16T07:37:02Z</time>
      </trkpt>
      <trkpt lat="44.93013" lon="2.43261">
        <ele>687.96</ele>
        <time>2021-08-16T07:37:03Z</time>
      </trkpt>
      <trkpt lat="44.93006" lon="2.43265">
        <ele>687</ele>
        <time>2021-08-16T07:37:04Z</time>
      </trkpt>
      <trkpt lat="44.93001" lon="2.4327">
        <ele>687</ele>
        <time>2021-08-16T07:37:05Z</time>
      </trkpt>
      <trkpt lat="44.92991" lon="2.4328">
        <ele>687</ele>
        <time>2021-08-16T07:37:07Z</time>
      </trkpt>
      <trkpt lat="44.92958" lon="2.43316">
        <ele>686.52</ele>
        <time>2021-08-16T07:37:14Z</time>
      </trkpt>
      <trkpt lat="44.92953" lon="2.4332">
        <ele>686.52</ele>
        <time>2021-08-16T07:37:15Z</time>
      </trkpt>
      <trkpt lat="44.92934" lon="2.43334">
        <ele>686.52</ele>
        <time>2021-08-16T07:37:19Z</time>
      </trkpt>
      <trkpt lat="44.92929" lon="2.43335">
        <ele>686.52</ele>
        <time>2021-08-16T07:37:20Z</time>
      </trkpt>
      <trkpt lat="44.92903" lon="2.43338">
        <ele>686.52</ele>
        <time>2021-08-16T07:37:27Z</time>
      </trkpt>
      <trkpt lat="44.92889" lon="2.43325">
        <ele>686.52</ele>
        <time>2021-08-16T07:37:32Z</time>
      </trkpt>
      <trkpt lat="44.92889" lon="2.43321">
        <ele>686.52</ele>
        <time>2021-08-16T07:37:33Z</time>
      </trkpt>
      <trkpt lat="44.9289" lon="2.43317">
        <ele>686.52</ele>
        <time>2021-08-16T07:37:34Z</time>
      </trkpt>
      <trkpt lat="44.92891" lon="2.43313">
        <ele>686.52</ele>
        <time>2021-08-16T07:37:35Z</time>
      </trkpt>
      <trkpt lat="44.92892" lon="2.43308">
        <ele>686.52</ele>
        <time>2021-08-16T07:37:36Z</time>
      </trkpt>
      <trkpt lat="44.92903" lon="2.43287">
        <ele>685.56</ele>
        <time>2021-08-16T07:37:42Z</time>
      </trkpt>
      <trkpt lat="44.92911" lon="2.43276">
        <ele>684.6</ele>
        <time>2021-08-16T07:37:45Z</time>
      </trkpt>
      <trkpt lat="44.92935" lon="2.4324">
        <ele>680.27</ele>
        <time>2021-08-16T07:37:51Z</time>
      </trkpt>
      <trkpt lat="44.92939" lon="2.43234">
        <ele>678.83</ele>
        <time>2021-08-16T07:37:52Z</time>
      </trkpt>
      <trkpt lat="44.92942" lon="2.43228">
        <ele>678.83</ele>
        <time>2021-08-16T07:37:53Z</time>
      </trkpt>
      <trkpt lat="44.92945" lon="2.43222">
        <ele>678.35</ele>
        <time>2021-08-16T07:37:54Z</time>
      </trkpt>
      <trkpt lat="44.92958" lon="2.43198">
        <ele>676.42</ele>
        <time>2021-08-16T07:37:58Z</time>
      </trkpt>
      <trkpt lat="44.92961" lon="2.43192">
        <ele>675.46</ele>
        <time>2021-08-16T07:37:59Z</time>
      </trkpt>
      <trkpt lat="44.92964" lon="2.43186">
        <ele>674.98</ele>
        <time>2021-08-16T07:38:00Z</time>
      </trkpt>
      <trkpt lat="44.92972" lon="2.43171">
        <ele>671.62</ele>
        <time>2021-08-16T07:38:04Z</time>
      </trkpt>
      <trkpt lat="44.92976" lon="2.43168">
        <ele>671.62</ele>
        <time>2021-08-16T07:38:08Z</time>
      </trkpt>
      <trkpt lat="44.92978" lon="2.43168">
        <ele>670.66</ele>
        <time>2021-08-16T07:38:09Z</time>
      </trkpt>
      <trkpt lat="44.92991" lon="2.43166">
        <ele>667.77</ele>
        <time>2021-08-16T07:38:14Z</time>
      </trkpt>
      <trkpt lat="44.93009" lon="2.43158">
        <ele>665.37</ele>
        <time>2021-08-16T07:38:20Z</time>
      </trkpt>
      <trkpt lat="44.93031" lon="2.43161">
        <ele>662.49</ele>
        <time>2021-08-16T07:38:26Z</time>
      </trkpt>
      <trkpt lat="44.93049" lon="2.43163">
        <ele>660.56</ele>
        <time>2021-08-16T07:38:31Z</time>
      </trkpt>
      <trkpt lat="44.93062" lon="2.43155">
        <ele>658.16</ele>
        <time>2021-08-16T07:38:37Z</time>
      </trkpt>
      <trkpt lat="44.93078" lon="2.43133">
        <ele>655.76</ele>
        <time>2021-08-16T07:38:45Z</time>
      </trkpt>
      <trkpt lat="44.93083" lon="2.4312">
        <ele>654.31</ele>
        <time>2021-08-16T07:38:48Z</time>
      </trkpt>
      <trkpt lat="44.93091" lon="2.43102">
        <ele>651.43</ele>
        <time>2021-08-16T07:38:53Z</time>
      </trkpt>
      <trkpt lat="44.93092" lon="2.431">
        <ele>650.95</ele>
        <time>2021-08-16T07:38:54Z</time>
      </trkpt>
      <trkpt lat="44.93097" lon="2.43081">
        <ele>648.55</ele>
        <time>2021-08-16T07:39:01Z</time>
      </trkpt>
      <trkpt lat="44.93097" lon="2.43076">
        <ele>648.07</ele>
        <time>2021-08-16T07:39:03Z</time>
      </trkpt>
      <trkpt lat="44.93098" lon="2.4307">
        <ele>646.62</ele>
        <time>2021-08-16T07:39:05Z</time>
      </trkpt>
      <trkpt lat="44.93098" lon="2.43068">
        <ele>646.14</ele>
        <time>2021-08-16T07:39:06Z</time>
      </trkpt>
      <trkpt lat="44.931" lon="2.43056">
        <ele>645.18</ele>
        <time>2021-08-16T07:39:11Z</time>
      </trkpt>
      <trkpt lat="44.931" lon="2.43037">
        <ele>642.78</ele>
        <time>2021-08-16T07:39:17Z</time>
      </trkpt>
      <trkpt lat="44.93099" lon="2.43017">
        <ele>639.41</ele>
        <time>2021-08-16T07:39:22Z</time>
      </trkpt>
      <trkpt lat="44.93096" lon="2.42995">
        <ele>636.53</ele>
        <time>2021-08-16T07:39:27Z</time>
      </trkpt>
      <trkpt lat="44.93095" lon="2.42971">
        <ele>633.17</ele>
        <time>2021-08-16T07:39:33Z</time>
      </trkpt>
      <trkpt lat="44.93098" lon="2.42941">
        <ele>630.76</ele>
        <time>2021-08-16T07:39:40Z</time>
      </trkpt>
      <trkpt lat="44.93098" lon="2.42916">
        <ele>628.36</ele>
        <time>2021-08-16T07:39:46Z</time>
      </trkpt>
      <trkpt lat="44.93096" lon="2.42881">
        <ele>626.92</ele>
        <time>2021-08-16T07:39:53Z</time>
      </trkpt>
      <trkpt lat="44.93093" lon="2.42841">
        <ele>625.96</ele>
        <time>2021-08-16T07:40:00Z</time>
      </trkpt>
      <trkpt lat="44.93093" lon="2.42829">
        <ele>625.47</ele>
        <time>2021-08-16T07:40:02Z</time>
      </trkpt>
      <trkpt lat="44.93094" lon="2.42823">
        <ele>624.99</ele>
        <time>2021-08-16T07:40:03Z</time>
      </trkpt>
      <trkpt lat="44.93094" lon="2.42816">
        <ele>624.99</ele>
        <time>2021-08-16T07:40:04Z</time>
      </trkpt>
      <trkpt lat="44.93095" lon="2.42809">
        <ele>624.99</ele>
        <time>2021-08-16T07:40:05Z</time>
      </trkpt>
      <trkpt lat="44.93097" lon="2.42802">
        <ele>624.03</ele>
        <time>2021-08-16T07:40:06Z</time>
      </trkpt>
      <trkpt lat="44.93104" lon="2.42776">
        <ele>623.55</ele>
        <time>2021-08-16T07:40:10Z</time>
      </trkpt>
      <trkpt lat="44.93116" lon="2.42749">
        <ele>623.07</ele>
        <time>2021-08-16T07:40:14Z</time>
      </trkpt>
      <trkpt lat="44.93128" lon="2.42701">
        <ele>623.07</ele>
        <time>2021-08-16T07:40:22Z</time>
      </trkpt>
      <trkpt lat="44.9313" lon="2.42682">
        <ele>624.51</ele>
        <time>2021-08-16T07:40:26Z</time>
      </trkpt>
      <trkpt lat="44.9313" lon="2.42653">
        <ele>624.51</ele>
        <time>2021-08-16T07:40:31Z</time>
      </trkpt>
      <trkpt lat="44.93131" lon="2.42646">
        <ele>624.51</ele>
        <time>2021-08-16T07:40:32Z</time>
      </trkpt>
      <trkpt lat="44.93135" lon="2.42612">
        <ele>624.51</ele>
        <time>2021-08-16T07:40:38Z</time>
      </trkpt>
      <trkpt lat="44.93132" lon="2.42601">
        <ele>624.51</ele>
        <time>2021-08-16T07:40:40Z</time>
      </trkpt>
      <trkpt lat="44.9313" lon="2.42596">
        <ele>624.51</ele>
        <time>2021-08-16T07:40:41Z</time>
      </trkpt>
      <trkpt lat="44.93127" lon="2.42591">
        <ele>624.51</ele>
        <time>2021-08-16T07:40:42Z</time>
      </trkpt>
      <trkpt lat="44.93124" lon="2.42585">
        <ele>624.03</ele>
        <time>2021-08-16T07:40:43Z</time>
      </trkpt>
      <trkpt lat="44.9312" lon="2.42578">
        <ele>624.03</ele>
        <time>2021-08-16T07:40:44Z</time>
      </trkpt>
      <trkpt lat="44.93118" lon="2.42573">
        <ele>624.03</ele>
        <time>2021-08-16T07:40:45Z</time>
      </trkpt>
      <trkpt lat="44.93116" lon="2.42566">
        <ele>623.07</ele>
        <time>2021-08-16T07:40:46Z</time>
      </trkpt>
      <trkpt lat="44.93111" lon="2.42552">
        <ele>623.07</ele>
        <time>2021-08-16T07:40:48Z</time>
      </trkpt>
      <trkpt lat="44.9311" lon="2.42545">
        <ele>623.07</ele>
        <time>2021-08-16T07:40:49Z</time>
      </trkpt>
      <trkpt lat="44.931" lon="2.42498">
        <ele>624.03</ele>
        <time>2021-08-16T07:40:57Z</time>
      </trkpt>
      <trkpt lat="44.93093" lon="2.42463">
        <ele>624.51</ele>
        <time>2021-08-16T07:41:04Z</time>
      </trkpt>
      <trkpt lat="44.9308" lon="2.4241">
        <ele>624.51</ele>
        <time>2021-08-16T07:41:13Z</time>
      </trkpt>
      <trkpt lat="44.93076" lon="2.42396">
        <ele>623.07</ele>
        <time>2021-08-16T07:41:15Z</time>
      </trkpt>
      <trkpt lat="44.93056" lon="2.42335">
        <ele>619.71</ele>
        <time>2021-08-16T07:41:23Z</time>
      </trkpt>
      <trkpt lat="44.9304" lon="2.42304">
        <ele>619.71</ele>
        <time>2021-08-16T07:41:27Z</time>
      </trkpt>
      <trkpt lat="44.93002" lon="2.42252">
        <ele>618.75</ele>
        <time>2021-08-16T07:41:35Z</time>
      </trkpt>
      <trkpt lat="44.92983" lon="2.42202">
        <ele>620.19</ele>
        <time>2021-08-16T07:41:42Z</time>
      </trkpt>
      <trkpt lat="44.92969" lon="2.42166">
        <ele>622.11</ele>
        <time>2021-08-16T07:41:49Z</time>
      </trkpt>
      <trkpt lat="44.92957" lon="2.42131">
        <ele>622.59</ele>
        <time>2021-08-16T07:41:57Z</time>
      </trkpt>
      <trkpt lat="44.92936" lon="2.42087">
        <ele>622.59</ele>
        <time>2021-08-16T07:42:05Z</time>
      </trkpt>
      <trkpt lat="44.92901" lon="2.4203">
        <ele>619.71</ele>
        <time>2021-08-16T07:42:15Z</time>
      </trkpt>
      <trkpt lat="44.92859" lon="2.4198">
        <ele>618.26</ele>
        <time>2021-08-16T07:42:23Z</time>
      </trkpt>
      <trkpt lat="44.9282" lon="2.41936">
        <ele>617.3</ele>
        <time>2021-08-16T07:42:31Z</time>
      </trkpt>
      <trkpt lat="44.92815" lon="2.41929">
        <ele>617.3</ele>
        <time>2021-08-16T07:42:32Z</time>
      </trkpt>
      <trkpt lat="44.92812" lon="2.41924">
        <ele>617.3</ele>
        <time>2021-08-16T07:42:33Z</time>
      </trkpt>
      <trkpt lat="44.92792" lon="2.41895">
        <ele>616.82</ele>
        <time>2021-08-16T07:42:38Z</time>
      </trkpt>
      <trkpt lat="44.92788" lon="2.41887">
        <ele>616.34</ele>
        <time>2021-08-16T07:42:39Z</time>
      </trkpt>
      <trkpt lat="44.92786" lon="2.4188">
        <ele>615.86</ele>
        <time>2021-08-16T07:42:40Z</time>
      </trkpt>
      <trkpt lat="44.92783" lon="2.41871">
        <ele>615.86</ele>
        <time>2021-08-16T07:42:41Z</time>
      </trkpt>
      <trkpt lat="44.92782" lon="2.41863">
        <ele>615.86</ele>
        <time>2021-08-16T07:42:42Z</time>
      </trkpt>
      <trkpt lat="44.9278" lon="2.41854">
        <ele>615.86</ele>
        <time>2021-08-16T07:42:43Z</time>
      </trkpt>
      <trkpt lat="44.92779" lon="2.41845">
        <ele>615.38</ele>
        <time>2021-08-16T07:42:44Z</time>
      </trkpt>
      <trkpt lat="44.92773" lon="2.4182">
        <ele>615.38</ele>
        <time>2021-08-16T07:42:47Z</time>
      </trkpt>
      <trkpt lat="44.9277" lon="2.41812">
        <ele>614.9</ele>
        <time>2021-08-16T07:42:48Z</time>
      </trkpt>
      <trkpt lat="44.92767" lon="2.41805">
        <ele>614.9</ele>
        <time>2021-08-16T07:42:49Z</time>
      </trkpt>
      <trkpt lat="44.92763" lon="2.41798">
        <ele>613.94</ele>
        <time>2021-08-16T07:42:50Z</time>
      </trkpt>
      <trkpt lat="44.92758" lon="2.41793">
        <ele>613.94</ele>
        <time>2021-08-16T07:42:51Z</time>
      </trkpt>
      <trkpt lat="44.92753" lon="2.41788">
        <ele>613.94</ele>
        <time>2021-08-16T07:42:52Z</time>
      </trkpt>
      <trkpt lat="44.92748" lon="2.41783">
        <ele>613.94</ele>
        <time>2021-08-16T07:42:53Z</time>
      </trkpt>
      <trkpt lat="44.92742" lon="2.41778">
        <ele>613.94</ele>
        <time>2021-08-16T07:42:54Z</time>
      </trkpt>
      <trkpt lat="44.92707" lon="2.41748">
        <ele>611.06</ele>
        <time>2021-08-16T07:43:00Z</time>
      </trkpt>
      <trkpt lat="44.92702" lon="2.41741">
        <ele>611.54</ele>
        <time>2021-08-16T07:43:01Z</time>
      </trkpt>
      <trkpt lat="44.92697" lon="2.41734">
        <ele>611.06</ele>
        <time>2021-08-16T07:43:02Z</time>
      </trkpt>
      <trkpt lat="44.92672" lon="2.4168">
        <ele>611.06</ele>
        <time>2021-08-16T07:43:09Z</time>
      </trkpt>
      <trkpt lat="44.92656" lon="2.41611">
        <ele>609.13</ele>
        <time>2021-08-16T07:43:17Z</time>
      </trkpt>
      <trkpt lat="44.92646" lon="2.41558">
        <ele>606.25</ele>
        <time>2021-08-16T07:43:22Z</time>
      </trkpt>
      <trkpt lat="44.9263" lon="2.415">
        <ele>602.88</ele>
        <time>2021-08-16T07:43:27Z</time>
      </trkpt>
      <trkpt lat="44.92621" lon="2.41477">
        <ele>601.44</ele>
        <time>2021-08-16T07:43:29Z</time>
      </trkpt>
      <trkpt lat="44.92611" lon="2.41454">
        <ele>600.48</ele>
        <time>2021-08-16T07:43:31Z</time>
      </trkpt>
      <trkpt lat="44.92583" lon="2.41382">
        <ele>596.64</ele>
        <time>2021-08-16T07:43:37Z</time>
      </trkpt>
      <trkpt lat="44.92579" lon="2.41369">
        <ele>596.64</ele>
        <time>2021-08-16T07:43:38Z</time>
      </trkpt>
      <trkpt lat="44.92546" lon="2.41261">
        <ele>595.19</ele>
        <time>2021-08-16T07:43:47Z</time>
      </trkpt>
      <trkpt lat="44.92513" lon="2.41165">
        <ele>592.79</ele>
        <time>2021-08-16T07:43:56Z</time>
      </trkpt>
      <trkpt lat="44.92472" lon="2.41066">
        <ele>590.39</ele>
        <time>2021-08-16T07:44:06Z</time>
      </trkpt>
      <trkpt lat="44.92449" lon="2.40999">
        <ele>588.46</ele>
        <time>2021-08-16T07:44:13Z</time>
      </trkpt>
      <trkpt lat="44.9244" lon="2.40937">
        <ele>588.95</ele>
        <time>2021-08-16T07:44:20Z</time>
      </trkpt>
      <trkpt lat="44.92439" lon="2.4092">
        <ele>588.95</ele>
        <time>2021-08-16T07:44:22Z</time>
      </trkpt>
      <trkpt lat="44.92439" lon="2.40913">
        <ele>588.95</ele>
        <time>2021-08-16T07:44:23Z</time>
      </trkpt>
      <trkpt lat="44.92441" lon="2.40849">
        <ele>589.91</ele>
        <time>2021-08-16T07:44:32Z</time>
      </trkpt>
      <trkpt lat="44.92446" lon="2.40787">
        <ele>590.87</ele>
        <time>2021-08-16T07:44:42Z</time>
      </trkpt>
      <trkpt lat="44.9245" lon="2.40731">
        <ele>591.83</ele>
        <time>2021-08-16T07:44:52Z</time>
      </trkpt>
      <trkpt lat="44.9245" lon="2.40691">
        <ele>593.27</ele>
        <time>2021-08-16T07:45:01Z</time>
      </trkpt>
      <trkpt lat="44.92449" lon="2.4067">
        <ele>594.23</ele>
        <time>2021-08-16T07:45:06Z</time>
      </trkpt>
      <trkpt lat="44.92448" lon="2.40656">
        <ele>595.19</ele>
        <time>2021-08-16T07:45:11Z</time>
      </trkpt>
      <trkpt lat="44.92448" lon="2.40654">
        <ele>595.19</ele>
        <time>2021-08-16T07:45:12Z</time>
      </trkpt>
      <trkpt lat="44.92444" lon="2.40618">
        <ele>596.64</ele>
        <time>2021-08-16T07:45:24Z</time>
      </trkpt>
      <trkpt lat="44.92441" lon="2.40587">
        <ele>598.08</ele>
        <time>2021-08-16T07:45:34Z</time>
      </trkpt>
      <trkpt lat="44.92438" lon="2.40557">
        <ele>599.52</ele>
        <time>2021-08-16T07:45:44Z</time>
      </trkpt>
      <trkpt lat="44.92434" lon="2.40523">
        <ele>600.96</ele>
        <time>2021-08-16T07:45:55Z</time>
      </trkpt>
      <trkpt lat="44.92431" lon="2.40493">
        <ele>601.92</ele>
        <time>2021-08-16T07:46:05Z</time>
      </trkpt>
      <trkpt lat="44.92426" lon="2.40461">
        <ele>602.88</ele>
        <time>2021-08-16T07:46:14Z</time>
      </trkpt>
      <trkpt lat="44.92414" lon="2.40416">
        <ele>603.36</ele>
        <time>2021-08-16T07:46:25Z</time>
      </trkpt>
      <trkpt lat="44.92399" lon="2.40377">
        <ele>603.36</ele>
        <time>2021-08-16T07:46:33Z</time>
      </trkpt>
      <trkpt lat="44.92377" lon="2.40326">
        <ele>603.36</ele>
        <time>2021-08-16T07:46:43Z</time>
      </trkpt>
      <trkpt lat="44.92352" lon="2.40268">
        <ele>603.36</ele>
        <time>2021-08-16T07:46:53Z</time>
      </trkpt>
      <trkpt lat="44.92322" lon="2.40199">
        <ele>601.92</ele>
        <time>2021-08-16T07:47:04Z</time>
      </trkpt>
      <trkpt lat="44.92295" lon="2.40132">
        <ele>601.92</ele>
        <time>2021-08-16T07:47:14Z</time>
      </trkpt>
      <trkpt lat="44.92279" lon="2.40072">
        <ele>601.92</ele>
        <time>2021-08-16T07:47:23Z</time>
      </trkpt>
      <trkpt lat="44.92271" lon="2.40019">
        <ele>603.36</ele>
        <time>2021-08-16T07:47:32Z</time>
      </trkpt>
      <trkpt lat="44.92264" lon="2.39954">
        <ele>604.81</ele>
        <time>2021-08-16T07:47:43Z</time>
      </trkpt>
      <trkpt lat="44.92256" lon="2.39893">
        <ele>604.81</ele>
        <time>2021-08-16T07:47:52Z</time>
      </trkpt>
      <trkpt lat="44.92249" lon="2.39838">
        <ele>603.36</ele>
        <time>2021-08-16T07:47:59Z</time>
      </trkpt>
      <trkpt lat="44.92248" lon="2.39829">
        <ele>603.36</ele>
        <time>2021-08-16T07:48:00Z</time>
      </trkpt>
      <trkpt lat="44.92238" lon="2.39741">
        <ele>602.4</ele>
        <time>2021-08-16T07:48:10Z</time>
      </trkpt>
      <trkpt lat="44.92227" lon="2.39646">
        <ele>600.96</ele>
        <time>2021-08-16T07:48:20Z</time>
      </trkpt>
      <trkpt lat="44.92222" lon="2.39539">
        <ele>599.52</ele>
        <time>2021-08-16T07:48:31Z</time>
      </trkpt>
      <trkpt lat="44.9222" lon="2.39434">
        <ele>598.56</ele>
        <time>2021-08-16T07:48:42Z</time>
      </trkpt>
      <trkpt lat="44.92215" lon="2.3935">
        <ele>597.6</ele>
        <time>2021-08-16T07:48:51Z</time>
      </trkpt>
      <trkpt lat="44.922" lon="2.39244">
        <ele>596.64</ele>
        <time>2021-08-16T07:49:02Z</time>
      </trkpt>
      <trkpt lat="44.92178" lon="2.39146">
        <ele>596.15</ele>
        <time>2021-08-16T07:49:13Z</time>
      </trkpt>
      <trkpt lat="44.92157" lon="2.39057">
        <ele>596.15</ele>
        <time>2021-08-16T07:49:24Z</time>
      </trkpt>
      <trkpt lat="44.92136" lon="2.38971">
        <ele>596.15</ele>
        <time>2021-08-16T07:49:35Z</time>
      </trkpt>
      <trkpt lat="44.92112" lon="2.38887">
        <ele>595.19</ele>
        <time>2021-08-16T07:49:45Z</time>
      </trkpt>
      <trkpt lat="44.9208" lon="2.3879">
        <ele>594.71</ele>
        <time>2021-08-16T07:49:57Z</time>
      </trkpt>
      <trkpt lat="44.92058" lon="2.38729">
        <ele>594.71</ele>
        <time>2021-08-16T07:50:05Z</time>
      </trkpt>
      <trkpt lat="44.92042" lon="2.38681">
        <ele>596.15</ele>
        <time>2021-08-16T07:50:12Z</time>
      </trkpt>
      <trkpt lat="44.9202" lon="2.38618">
        <ele>596.64</ele>
        <time>2021-08-16T07:50:22Z</time>
      </trkpt>
      <trkpt lat="44.92003" lon="2.38569">
        <ele>598.08</ele>
        <time>2021-08-16T07:50:30Z</time>
      </trkpt>
      <trkpt lat="44.91987" lon="2.38519">
        <ele>599.04</ele>
        <time>2021-08-16T07:50:39Z</time>
      </trkpt>
      <trkpt lat="44.9197" lon="2.38462">
        <ele>599.52</ele>
        <time>2021-08-16T07:50:50Z</time>
      </trkpt>
      <trkpt lat="44.91956" lon="2.38406">
        <ele>600</ele>
        <time>2021-08-16T07:51:00Z</time>
      </trkpt>
      <trkpt lat="44.91942" lon="2.38343">
        <ele>598.56</ele>
        <time>2021-08-16T07:51:09Z</time>
      </trkpt>
      <trkpt lat="44.91939" lon="2.38326">
        <ele>598.08</ele>
        <time>2021-08-16T07:51:11Z</time>
      </trkpt>
      <trkpt lat="44.9193" lon="2.38273">
        <ele>596.15</ele>
        <time>2021-08-16T07:51:17Z</time>
      </trkpt>
      <trkpt lat="44.91929" lon="2.38263">
        <ele>596.15</ele>
        <time>2021-08-16T07:51:18Z</time>
      </trkpt>
      <trkpt lat="44.91911" lon="2.38146">
        <ele>594.23</ele>
        <time>2021-08-16T07:51:30Z</time>
      </trkpt>
      <trkpt lat="44.91898" lon="2.38042">
        <ele>593.75</ele>
        <time>2021-08-16T07:51:41Z</time>
      </trkpt>
      <trkpt lat="44.91893" lon="2.37937">
        <ele>590.39</ele>
        <time>2021-08-16T07:51:51Z</time>
      </trkpt>
      <trkpt lat="44.91888" lon="2.37842">
        <ele>588.95</ele>
        <time>2021-08-16T07:52:00Z</time>
      </trkpt>
      <trkpt lat="44.91871" lon="2.37755">
        <ele>587.5</ele>
        <time>2021-08-16T07:52:09Z</time>
      </trkpt>
      <trkpt lat="44.91854" lon="2.37691">
        <ele>587.98</ele>
        <time>2021-08-16T07:52:17Z</time>
      </trkpt>
      <trkpt lat="44.9185" lon="2.37678">
        <ele>589.43</ele>
        <time>2021-08-16T07:52:19Z</time>
      </trkpt>
      <trkpt lat="44.91836" lon="2.37618">
        <ele>589.43</ele>
        <time>2021-08-16T07:52:27Z</time>
      </trkpt>
      <trkpt lat="44.91824" lon="2.37553">
        <ele>586.54</ele>
        <time>2021-08-16T07:52:34Z</time>
      </trkpt>
      <trkpt lat="44.91805" lon="2.37449">
        <ele>584.14</ele>
        <time>2021-08-16T07:52:45Z</time>
      </trkpt>
      <trkpt lat="44.91802" lon="2.37386">
        <ele>581.25</ele>
        <time>2021-08-16T07:52:51Z</time>
      </trkpt>
      <trkpt lat="44.918" lon="2.37342">
        <ele>579.81</ele>
        <time>2021-08-16T07:52:55Z</time>
      </trkpt>
      <trkpt lat="44.91797" lon="2.37274">
        <ele>575.49</ele>
        <time>2021-08-16T07:53:01Z</time>
      </trkpt>
      <trkpt lat="44.91795" lon="2.37249">
        <ele>575.01</ele>
        <time>2021-08-16T07:53:03Z</time>
      </trkpt>
      <trkpt lat="44.91788" lon="2.37182">
        <ele>571.16</ele>
        <time>2021-08-16T07:53:08Z</time>
      </trkpt>
      <trkpt lat="44.91773" lon="2.37094">
        <ele>567.32</ele>
        <time>2021-08-16T07:53:14Z</time>
      </trkpt>
      <trkpt lat="44.91751" lon="2.36995">
        <ele>566.83</ele>
        <time>2021-08-16T07:53:22Z</time>
      </trkpt>
      <trkpt lat="44.91739" lon="2.36945">
        <ele>568.28</ele>
        <time>2021-08-16T07:53:27Z</time>
      </trkpt>
      <trkpt lat="44.91728" lon="2.36899">
        <ele>570.2</ele>
        <time>2021-08-16T07:53:33Z</time>
      </trkpt>
      <trkpt lat="44.91721" lon="2.36865">
        <ele>572.12</ele>
        <time>2021-08-16T07:53:40Z</time>
      </trkpt>
      <trkpt lat="44.91715" lon="2.36839">
        <ele>573.56</ele>
        <time>2021-08-16T07:53:48Z</time>
      </trkpt>
      <trkpt lat="44.91707" lon="2.36806">
        <ele>575.49</ele>
        <time>2021-08-16T07:54:00Z</time>
      </trkpt>
      <trkpt lat="44.91702" lon="2.36781">
        <ele>576.93</ele>
        <time>2021-08-16T07:54:10Z</time>
      </trkpt>
      <trkpt lat="44.91695" lon="2.36749">
        <ele>578.37</ele>
        <time>2021-08-16T07:54:21Z</time>
      </trkpt>
      <trkpt lat="44.91689" lon="2.36722">
        <ele>578.85</ele>
        <time>2021-08-16T07:54:31Z</time>
      </trkpt>
      <trkpt lat="44.91682" lon="2.36693">
        <ele>580.29</ele>
        <time>2021-08-16T07:54:41Z</time>
      </trkpt>
      <trkpt lat="44.91677" lon="2.36669">
        <ele>581.25</ele>
        <time>2021-08-16T07:54:49Z</time>
      </trkpt>
      <trkpt lat="44.91669" lon="2.36637">
        <ele>582.22</ele>
        <time>2021-08-16T07:54:59Z</time>
      </trkpt>
      <trkpt lat="44.91663" lon="2.3661">
        <ele>583.18</ele>
        <time>2021-08-16T07:55:06Z</time>
      </trkpt>
      <trkpt lat="44.91657" lon="2.36586">
        <ele>583.66</ele>
        <time>2021-08-16T07:55:13Z</time>
      </trkpt>
      <trkpt lat="44.91637" lon="2.36536">
        <ele>584.14</ele>
        <time>2021-08-16T07:55:24Z</time>
      </trkpt>
      <trkpt lat="44.91626" lon="2.36512">
        <ele>584.14</ele>
        <time>2021-08-16T07:55:29Z</time>
      </trkpt>
      <trkpt lat="44.9161" lon="2.36464">
        <ele>584.14</ele>
        <time>2021-08-16T07:55:38Z</time>
      </trkpt>
      <trkpt lat="44.91602" lon="2.36428">
        <ele>585.1</ele>
        <time>2021-08-16T07:55:46Z</time>
      </trkpt>
      <trkpt lat="44.91595" lon="2.36387">
        <ele>587.02</ele>
        <time>2021-08-16T07:55:58Z</time>
      </trkpt>
      <trkpt lat="44.91593" lon="2.36366">
        <ele>588.46</ele>
        <time>2021-08-16T07:56:05Z</time>
      </trkpt>
      <trkpt lat="44.9159" lon="2.36346">
        <ele>589.91</ele>
        <time>2021-08-16T07:56:12Z</time>
      </trkpt>
      <trkpt lat="44.91588" lon="2.36325">
        <ele>590.39</ele>
        <time>2021-08-16T07:56:20Z</time>
      </trkpt>
      <trkpt lat="44.91586" lon="2.36311">
        <ele>591.35</ele>
        <time>2021-08-16T07:56:26Z</time>
      </trkpt>
      <trkpt lat="44.91582" lon="2.36295">
        <ele>592.79</ele>
        <time>2021-08-16T07:56:33Z</time>
      </trkpt>
      <trkpt lat="44.91576" lon="2.36275">
        <ele>594.23</ele>
        <time>2021-08-16T07:56:42Z</time>
      </trkpt>
      <trkpt lat="44.91571" lon="2.36255">
        <ele>595.67</ele>
        <time>2021-08-16T07:56:51Z</time>
      </trkpt>
      <trkpt lat="44.9156" lon="2.36241">
        <ele>596.15</ele>
        <time>2021-08-16T07:56:59Z</time>
      </trkpt>
      <trkpt lat="44.91558" lon="2.36242">
        <ele>596.15</ele>
        <time>2021-08-16T07:57:00Z</time>
      </trkpt>
      <trkpt lat="44.91556" lon="2.36243">
        <ele>596.15</ele>
        <time>2021-08-16T07:57:01Z</time>
      </trkpt>
      <trkpt lat="44.91541" lon="2.3625">
        <ele>596.15</ele>
        <time>2021-08-16T07:57:07Z</time>
      </trkpt>
      <trkpt lat="44.91539" lon="2.36248">
        <ele>596.15</ele>
        <time>2021-08-16T07:57:08Z</time>
      </trkpt>
      <trkpt lat="44.91537" lon="2.36246">
        <ele>596.64</ele>
        <time>2021-08-16T07:57:09Z</time>
      </trkpt>
      <trkpt lat="44.91536" lon="2.36243">
        <ele>596.64</ele>
        <time>2021-08-16T07:57:10Z</time>
      </trkpt>
      <trkpt lat="44.91534" lon="2.36239">
        <ele>596.64</ele>
        <time>2021-08-16T07:57:11Z</time>
      </trkpt>
      <trkpt lat="44.91533" lon="2.36236">
        <ele>596.64</ele>
        <time>2021-08-16T07:57:12Z</time>
      </trkpt>
      <trkpt lat="44.91531" lon="2.36215">
        <ele>596.64</ele>
        <time>2021-08-16T07:57:16Z</time>
      </trkpt>
      <trkpt lat="44.9153" lon="2.36209">
        <ele>596.64</ele>
        <time>2021-08-16T07:57:17Z</time>
      </trkpt>
      <trkpt lat="44.9153" lon="2.36203">
        <ele>594.71</ele>
        <time>2021-08-16T07:57:18Z</time>
      </trkpt>
      <trkpt lat="44.91528" lon="2.36196">
        <ele>594.71</ele>
        <time>2021-08-16T07:57:19Z</time>
      </trkpt>
      <trkpt lat="44.91526" lon="2.36189">
        <ele>594.23</ele>
        <time>2021-08-16T07:57:20Z</time>
      </trkpt>
      <trkpt lat="44.91522" lon="2.36183">
        <ele>593.27</ele>
        <time>2021-08-16T07:57:21Z</time>
      </trkpt>
      <trkpt lat="44.91518" lon="2.36177">
        <ele>593.27</ele>
        <time>2021-08-16T07:57:22Z</time>
      </trkpt>
      <trkpt lat="44.91513" lon="2.36171">
        <ele>592.79</ele>
        <time>2021-08-16T07:57:23Z</time>
      </trkpt>
      <trkpt lat="44.91482" lon="2.36136">
        <ele>589.91</ele>
        <time>2021-08-16T07:57:29Z</time>
      </trkpt>
      <trkpt lat="44.91468" lon="2.36119">
        <ele>587.98</ele>
        <time>2021-08-16T07:57:32Z</time>
      </trkpt>
      <trkpt lat="44.91447" lon="2.36084">
        <ele>584.62</ele>
        <time>2021-08-16T07:57:38Z</time>
      </trkpt>
      <trkpt lat="44.91439" lon="2.36061">
        <ele>582.7</ele>
        <time>2021-08-16T07:57:42Z</time>
      </trkpt>
      <trkpt lat="44.91437" lon="2.36053">
        <ele>582.22</ele>
        <time>2021-08-16T07:57:43Z</time>
      </trkpt>
      <trkpt lat="44.91435" lon="2.36044">
        <ele>581.73</ele>
        <time>2021-08-16T07:57:44Z</time>
      </trkpt>
      <trkpt lat="44.91434" lon="2.36035">
        <ele>580.77</ele>
        <time>2021-08-16T07:57:45Z</time>
      </trkpt>
      <trkpt lat="44.91434" lon="2.36024">
        <ele>580.29</ele>
        <time>2021-08-16T07:57:46Z</time>
      </trkpt>
      <trkpt lat="44.9143" lon="2.35966">
        <ele>576.45</ele>
        <time>2021-08-16T07:57:51Z</time>
      </trkpt>
      <trkpt lat="44.91429" lon="2.35954">
        <ele>576.45</ele>
        <time>2021-08-16T07:57:52Z</time>
      </trkpt>
      <trkpt lat="44.91421" lon="2.35891">
        <ele>574.04</ele>
        <time>2021-08-16T07:57:57Z</time>
      </trkpt>
      <trkpt lat="44.91412" lon="2.35831">
        <ele>574.04</ele>
        <time>2021-08-16T07:58:03Z</time>
      </trkpt>
      <trkpt lat="44.91409" lon="2.35787">
        <ele>576.45</ele>
        <time>2021-08-16T07:58:09Z</time>
      </trkpt>
      <trkpt lat="44.91403" lon="2.3575">
        <ele>577.89</ele>
        <time>2021-08-16T07:58:17Z</time>
      </trkpt>
      <trkpt lat="44.91398" lon="2.35724">
        <ele>577.89</ele>
        <time>2021-08-16T07:58:25Z</time>
      </trkpt>
      <trkpt lat="44.9139" lon="2.35699">
        <ele>579.33</ele>
        <time>2021-08-16T07:58:35Z</time>
      </trkpt>
      <trkpt lat="44.91389" lon="2.35695">
        <ele>579.81</ele>
        <time>2021-08-16T07:58:37Z</time>
      </trkpt>
      <trkpt lat="44.91389" lon="2.35693">
        <ele>580.29</ele>
        <time>2021-08-16T07:58:38Z</time>
      </trkpt>
      <trkpt lat="44.9139" lon="2.35691">
        <ele>580.29</ele>
        <time>2021-08-16T07:58:39Z</time>
      </trkpt>
      <trkpt lat="44.91391" lon="2.35689">
        <ele>580.29</ele>
        <time>2021-08-16T07:58:40Z</time>
      </trkpt>
      <trkpt lat="44.91391" lon="2.35688">
        <ele>580.77</ele>
        <time>2021-08-16T07:58:41Z</time>
      </trkpt>
      <trkpt lat="44.91391" lon="2.35685">
        <ele>580.77</ele>
        <time>2021-08-16T07:58:42Z</time>
      </trkpt>
      <trkpt lat="44.9139" lon="2.35684">
        <ele>580.77</ele>
        <time>2021-08-16T07:58:43Z</time>
      </trkpt>
      <trkpt lat="44.91389" lon="2.35682">
        <ele>580.77</ele>
        <time>2021-08-16T07:58:44Z</time>
      </trkpt>
      <trkpt lat="44.91388" lon="2.35682">
        <ele>580.77</ele>
        <time>2021-08-16T07:58:45Z</time>
      </trkpt>
      <trkpt lat="44.9137" lon="2.35675">
        <ele>581.73</ele>
        <time>2021-08-16T07:58:54Z</time>
      </trkpt>
      <trkpt lat="44.91351" lon="2.3567">
        <ele>582.7</ele>
        <time>2021-08-16T07:59:04Z</time>
      </trkpt>
      <trkpt lat="44.91341" lon="2.35665">
        <ele>583.66</ele>
        <time>2021-08-16T07:59:11Z</time>
      </trkpt>
      <trkpt lat="44.91327" lon="2.35661">
        <ele>585.1</ele>
        <time>2021-08-16T07:59:22Z</time>
      </trkpt>
      <trkpt lat="44.91316" lon="2.35657">
        <ele>586.06</ele>
        <time>2021-08-16T07:59:30Z</time>
      </trkpt>
      <trkpt lat="44.91303" lon="2.35653">
        <ele>587.02</ele>
        <time>2021-08-16T07:59:38Z</time>
      </trkpt>
      <trkpt lat="44.9129" lon="2.35648">
        <ele>588.95</ele>
        <time>2021-08-16T07:59:46Z</time>
      </trkpt>
      <trkpt lat="44.91275" lon="2.3564">
        <ele>590.39</ele>
        <time>2021-08-16T07:59:55Z</time>
      </trkpt>
      <trkpt lat="44.91264" lon="2.35635">
        <ele>591.35</ele>
        <time>2021-08-16T08:00:02Z</time>
      </trkpt>
      <trkpt lat="44.91263" lon="2.35635">
        <ele>591.35</ele>
        <time>2021-08-16T08:00:04Z</time>
      </trkpt>
      <trkpt lat="44.91261" lon="2.35633">
        <ele>591.83</ele>
        <time>2021-08-16T08:00:05Z</time>
      </trkpt>
      <trkpt lat="44.91259" lon="2.35632">
        <ele>591.83</ele>
        <time>2021-08-16T08:00:06Z</time>
      </trkpt>
      <trkpt lat="44.91247" lon="2.35619">
        <ele>592.31</ele>
        <time>2021-08-16T08:00:13Z</time>
      </trkpt>
      <trkpt lat="44.91232" lon="2.35605">
        <ele>593.27</ele>
        <time>2021-08-16T08:00:21Z</time>
      </trkpt>
      <trkpt lat="44.91215" lon="2.35593">
        <ele>593.75</ele>
        <time>2021-08-16T08:00:29Z</time>
      </trkpt>
      <trkpt lat="44.91211" lon="2.35588">
        <ele>593.75</ele>
        <time>2021-08-16T08:00:31Z</time>
      </trkpt>
      <trkpt lat="44.91209" lon="2.35585">
        <ele>593.75</ele>
        <time>2021-08-16T08:00:32Z</time>
      </trkpt>
      <trkpt lat="44.91209" lon="2.35581">
        <ele>593.75</ele>
        <time>2021-08-16T08:00:33Z</time>
      </trkpt>
      <trkpt lat="44.9121" lon="2.35578">
        <ele>593.75</ele>
        <time>2021-08-16T08:00:34Z</time>
      </trkpt>
      <trkpt lat="44.91211" lon="2.35575">
        <ele>593.75</ele>
        <time>2021-08-16T08:00:35Z</time>
      </trkpt>
      <trkpt lat="44.91223" lon="2.35547">
        <ele>593.75</ele>
        <time>2021-08-16T08:00:43Z</time>
      </trkpt>
      <trkpt lat="44.91238" lon="2.35517">
        <ele>594.71</ele>
        <time>2021-08-16T08:00:52Z</time>
      </trkpt>
      <trkpt lat="44.91254" lon="2.35487">
        <ele>595.67</ele>
        <time>2021-08-16T08:01:02Z</time>
      </trkpt>
      <trkpt lat="44.91268" lon="2.35455">
        <ele>597.12</ele>
        <time>2021-08-16T08:01:13Z</time>
      </trkpt>
      <trkpt lat="44.91268" lon="2.35452">
        <ele>597.12</ele>
        <time>2021-08-16T08:01:14Z</time>
      </trkpt>
      <trkpt lat="44.91266" lon="2.35449">
        <ele>597.12</ele>
        <time>2021-08-16T08:01:15Z</time>
      </trkpt>
      <trkpt lat="44.91265" lon="2.35447">
        <ele>597.12</ele>
        <time>2021-08-16T08:01:16Z</time>
      </trkpt>
      <trkpt lat="44.91262" lon="2.35445">
        <ele>597.12</ele>
        <time>2021-08-16T08:01:17Z</time>
      </trkpt>
      <trkpt lat="44.91259" lon="2.35442">
        <ele>597.12</ele>
        <time>2021-08-16T08:01:18Z</time>
      </trkpt>
      <trkpt lat="44.91256" lon="2.3544">
        <ele>597.12</ele>
        <time>2021-08-16T08:01:19Z</time>
      </trkpt>
      <trkpt lat="44.91241" lon="2.35427">
        <ele>595.67</ele>
        <time>2021-08-16T08:01:23Z</time>
      </trkpt>
      <trkpt lat="44.91222" lon="2.35408">
        <ele>592.31</ele>
        <time>2021-08-16T08:01:27Z</time>
      </trkpt>
      <trkpt lat="44.91204" lon="2.35392">
        <ele>589.91</ele>
        <time>2021-08-16T08:01:30Z</time>
      </trkpt>
      <trkpt lat="44.91192" lon="2.3538">
        <ele>589.43</ele>
        <time>2021-08-16T08:01:32Z</time>
      </trkpt>
      <trkpt lat="44.91169" lon="2.35358">
        <ele>589.43</ele>
        <time>2021-08-16T08:01:36Z</time>
      </trkpt>
      <trkpt lat="44.91165" lon="2.35354">
        <ele>589.43</ele>
        <time>2021-08-16T08:01:37Z</time>
      </trkpt>
      <trkpt lat="44.91162" lon="2.35348">
        <ele>589.43</ele>
        <time>2021-08-16T08:01:38Z</time>
      </trkpt>
      <trkpt lat="44.91159" lon="2.35343">
        <ele>589.43</ele>
        <time>2021-08-16T08:01:39Z</time>
      </trkpt>
      <trkpt lat="44.91157" lon="2.35338">
        <ele>589.43</ele>
        <time>2021-08-16T08:01:40Z</time>
      </trkpt>
      <trkpt lat="44.91155" lon="2.35334">
        <ele>589.43</ele>
        <time>2021-08-16T08:01:41Z</time>
      </trkpt>
      <trkpt lat="44.91154" lon="2.35329">
        <ele>590.39</ele>
        <time>2021-08-16T08:01:42Z</time>
      </trkpt>
      <trkpt lat="44.91153" lon="2.35326">
        <ele>590.87</ele>
        <time>2021-08-16T08:01:43Z</time>
      </trkpt>
      <trkpt lat="44.91145" lon="2.353">
        <ele>591.83</ele>
        <time>2021-08-16T08:01:51Z</time>
      </trkpt>
      <trkpt lat="44.91134" lon="2.3528">
        <ele>592.79</ele>
        <time>2021-08-16T08:02:00Z</time>
      </trkpt>
      <trkpt lat="44.91127" lon="2.35267">
        <ele>593.27</ele>
        <time>2021-08-16T08:02:07Z</time>
      </trkpt>
      <trkpt lat="44.91126" lon="2.35266">
        <ele>593.75</ele>
        <time>2021-08-16T08:02:08Z</time>
      </trkpt>
      <trkpt lat="44.91125" lon="2.35264">
        <ele>593.75</ele>
        <time>2021-08-16T08:02:09Z</time>
      </trkpt>
      <trkpt lat="44.91122" lon="2.3525">
        <ele>595.19</ele>
        <time>2021-08-16T08:02:16Z</time>
      </trkpt>
      <trkpt lat="44.91119" lon="2.35237">
        <ele>596.64</ele>
        <time>2021-08-16T08:02:23Z</time>
      </trkpt>
      <trkpt lat="44.91119" lon="2.35235">
        <ele>596.64</ele>
        <time>2021-08-16T08:02:24Z</time>
      </trkpt>
      <trkpt lat="44.91119" lon="2.35233">
        <ele>596.64</ele>
        <time>2021-08-16T08:02:25Z</time>
      </trkpt>
      <trkpt lat="44.91117" lon="2.35226">
        <ele>597.12</ele>
        <time>2021-08-16T08:02:29Z</time>
      </trkpt>
      <trkpt lat="44.91116" lon="2.35223">
        <ele>597.6</ele>
        <time>2021-08-16T08:02:30Z</time>
      </trkpt>
      <trkpt lat="44.91116" lon="2.35222">
        <ele>597.6</ele>
        <time>2021-08-16T08:02:31Z</time>
      </trkpt>
      <trkpt lat="44.91115" lon="2.35219">
        <ele>597.6</ele>
        <time>2021-08-16T08:02:32Z</time>
      </trkpt>
      <trkpt lat="44.91115" lon="2.35217">
        <ele>597.6</ele>
        <time>2021-08-16T08:02:33Z</time>
      </trkpt>
      <trkpt lat="44.91115" lon="2.35215">
        <ele>597.6</ele>
        <time>2021-08-16T08:02:34Z</time>
      </trkpt>
      <trkpt lat="44.91114" lon="2.35213">
        <ele>597.6</ele>
        <time>2021-08-16T08:02:35Z</time>
      </trkpt>
      <trkpt lat="44.9111" lon="2.35192">
        <ele>598.08</ele>
        <time>2021-08-16T08:02:43Z</time>
      </trkpt>
      <trkpt lat="44.91107" lon="2.35172">
        <ele>598.56</ele>
        <time>2021-08-16T08:02:51Z</time>
      </trkpt>
      <trkpt lat="44.91103" lon="2.35152">
        <ele>599.04</ele>
        <time>2021-08-16T08:02:59Z</time>
      </trkpt>
      <trkpt lat="44.91103" lon="2.3515">
        <ele>599.04</ele>
        <time>2021-08-16T08:03:00Z</time>
      </trkpt>
      <trkpt lat="44.91103" lon="2.35148">
        <ele>599.52</ele>
        <time>2021-08-16T08:03:01Z</time>
      </trkpt>
      <trkpt lat="44.91103" lon="2.35145">
        <ele>599.52</ele>
        <time>2021-08-16T08:03:02Z</time>
      </trkpt>
      <trkpt lat="44.91103" lon="2.35143">
        <ele>599.52</ele>
        <time>2021-08-16T08:03:03Z</time>
      </trkpt>
      <trkpt lat="44.91102" lon="2.35141">
        <ele>600</ele>
        <time>2021-08-16T08:03:04Z</time>
      </trkpt>
      <trkpt lat="44.91102" lon="2.35139">
        <ele>600</ele>
        <time>2021-08-16T08:03:05Z</time>
      </trkpt>
      <trkpt lat="44.91101" lon="2.35137">
        <ele>600</ele>
        <time>2021-08-16T08:03:06Z</time>
      </trkpt>
      <trkpt lat="44.911" lon="2.35134">
        <ele>600.48</ele>
        <time>2021-08-16T08:03:07Z</time>
      </trkpt>
      <trkpt lat="44.911" lon="2.35132">
        <ele>600.48</ele>
        <time>2021-08-16T08:03:08Z</time>
      </trkpt>
      <trkpt lat="44.91099" lon="2.3513">
        <ele>600.96</ele>
        <time>2021-08-16T08:03:09Z</time>
      </trkpt>
      <trkpt lat="44.91099" lon="2.35128">
        <ele>600.96</ele>
        <time>2021-08-16T08:03:10Z</time>
      </trkpt>
      <trkpt lat="44.91099" lon="2.35126">
        <ele>600.96</ele>
        <time>2021-08-16T08:03:11Z</time>
      </trkpt>
      <trkpt lat="44.91098" lon="2.35123">
        <ele>600.96</ele>
        <time>2021-08-16T08:03:12Z</time>
      </trkpt>
      <trkpt lat="44.91098" lon="2.35121">
        <ele>601.44</ele>
        <time>2021-08-16T08:03:13Z</time>
      </trkpt>
      <trkpt lat="44.91098" lon="2.35119">
        <ele>601.44</ele>
        <time>2021-08-16T08:03:14Z</time>
      </trkpt>
      <trkpt lat="44.91097" lon="2.35116">
        <ele>601.44</ele>
        <time>2021-08-16T08:03:15Z</time>
      </trkpt>
      <trkpt lat="44.9109" lon="2.35088">
        <ele>601.44</ele>
        <time>2021-08-16T08:03:23Z</time>
      </trkpt>
      <trkpt lat="44.91083" lon="2.35065">
        <ele>601.92</ele>
        <time>2021-08-16T08:03:29Z</time>
      </trkpt>
      <trkpt lat="44.91073" lon="2.3504">
        <ele>601.92</ele>
        <time>2021-08-16T08:03:37Z</time>
      </trkpt>
      <trkpt lat="44.91068" lon="2.3503">
        <ele>600.48</ele>
        <time>2021-08-16T08:03:39Z</time>
      </trkpt>
      <trkpt lat="44.91065" lon="2.35025">
        <ele>599.52</ele>
        <time>2021-08-16T08:03:40Z</time>
      </trkpt>
      <trkpt lat="44.91061" lon="2.35017">
        <ele>598.56</ele>
        <time>2021-08-16T08:03:41Z</time>
      </trkpt>
      <trkpt lat="44.91056" lon="2.35009">
        <ele>597.6</ele>
        <time>2021-08-16T08:03:42Z</time>
      </trkpt>
      <trkpt lat="44.9105" lon="2.35">
        <ele>596.15</ele>
        <time>2021-08-16T08:03:43Z</time>
      </trkpt>
      <trkpt lat="44.91024" lon="2.34957">
        <ele>595.19</ele>
        <time>2021-08-16T08:03:48Z</time>
      </trkpt>
      <trkpt lat="44.91022" lon="2.34948">
        <ele>595.19</ele>
        <time>2021-08-16T08:03:49Z</time>
      </trkpt>
      <trkpt lat="44.91022" lon="2.34941">
        <ele>595.19</ele>
        <time>2021-08-16T08:03:50Z</time>
      </trkpt>
      <trkpt lat="44.91023" lon="2.34935">
        <ele>595.19</ele>
        <time>2021-08-16T08:03:51Z</time>
      </trkpt>
      <trkpt lat="44.91024" lon="2.3493">
        <ele>596.64</ele>
        <time>2021-08-16T08:03:52Z</time>
      </trkpt>
      <trkpt lat="44.91024" lon="2.34928">
        <ele>597.12</ele>
        <time>2021-08-16T08:03:53Z</time>
      </trkpt>
      <trkpt lat="44.91024" lon="2.34922">
        <ele>597.6</ele>
        <time>2021-08-16T08:03:58Z</time>
      </trkpt>
      <trkpt lat="44.91023" lon="2.34913">
        <ele>599.52</ele>
        <time>2021-08-16T08:04:07Z</time>
      </trkpt>
      <trkpt lat="44.9102" lon="2.34903">
        <ele>600.96</ele>
        <time>2021-08-16T08:04:17Z</time>
      </trkpt>
      <trkpt lat="44.91019" lon="2.34895">
        <ele>601.44</ele>
        <time>2021-08-16T08:04:24Z</time>
      </trkpt>
      <trkpt lat="44.91018" lon="2.34892">
        <ele>601.44</ele>
        <time>2021-08-16T08:04:26Z</time>
      </trkpt>
      <trkpt lat="44.91013" lon="2.34878">
        <ele>602.88</ele>
        <time>2021-08-16T08:04:33Z</time>
      </trkpt>
      <trkpt lat="44.91013" lon="2.34876">
        <ele>602.88</ele>
        <time>2021-08-16T08:04:34Z</time>
      </trkpt>
      <trkpt lat="44.91012" lon="2.34874">
        <ele>603.36</ele>
        <time>2021-08-16T08:04:35Z</time>
      </trkpt>
      <trkpt lat="44.91012" lon="2.34872">
        <ele>603.36</ele>
        <time>2021-08-16T08:04:36Z</time>
      </trkpt>
      <trkpt lat="44.91011" lon="2.3487">
        <ele>602.88</ele>
        <time>2021-08-16T08:04:37Z</time>
      </trkpt>
      <trkpt lat="44.9101" lon="2.34868">
        <ele>603.36</ele>
        <time>2021-08-16T08:04:38Z</time>
      </trkpt>
      <trkpt lat="44.91009" lon="2.34867">
        <ele>603.36</ele>
        <time>2021-08-16T08:04:39Z</time>
      </trkpt>
      <trkpt lat="44.90997" lon="2.34853">
        <ele>604.33</ele>
        <time>2021-08-16T08:04:47Z</time>
      </trkpt>
      <trkpt lat="44.90987" lon="2.34841">
        <ele>605.29</ele>
        <time>2021-08-16T08:04:54Z</time>
      </trkpt>
      <trkpt lat="44.9098" lon="2.34828">
        <ele>605.29</ele>
        <time>2021-08-16T08:05:00Z</time>
      </trkpt>
      <trkpt lat="44.9097" lon="2.34813">
        <ele>605.29</ele>
        <time>2021-08-16T08:05:07Z</time>
      </trkpt>
      <trkpt lat="44.90967" lon="2.3481">
        <ele>605.29</ele>
        <time>2021-08-16T08:05:13Z</time>
      </trkpt>
      <trkpt lat="44.90966" lon="2.34808">
        <ele>605.29</ele>
        <time>2021-08-16T08:05:22Z</time>
      </trkpt>
      <trkpt lat="44.90967" lon="2.34808">
        <ele>605.29</ele>
        <time>2021-08-16T08:05:23Z</time>
      </trkpt>
      <trkpt lat="44.90973" lon="2.34815">
        <ele>605.29</ele>
        <time>2021-08-16T08:05:29Z</time>
      </trkpt>
      <trkpt lat="44.90981" lon="2.34828">
        <ele>605.29</ele>
        <time>2021-08-16T08:05:35Z</time>
      </trkpt>
      <trkpt lat="44.90997" lon="2.34846">
        <ele>604.33</ele>
        <time>2021-08-16T08:05:41Z</time>
      </trkpt>
      <trkpt lat="44.91004" lon="2.34847">
        <ele>603.36</ele>
        <time>2021-08-16T08:05:43Z</time>
      </trkpt>
      <trkpt lat="44.91006" lon="2.34845">
        <ele>603.36</ele>
        <time>2021-08-16T08:05:44Z</time>
      </trkpt>
      <trkpt lat="44.91007" lon="2.34843">
        <ele>603.36</ele>
        <time>2021-08-16T08:05:45Z</time>
      </trkpt>
      <trkpt lat="44.91009" lon="2.34841">
        <ele>603.36</ele>
        <time>2021-08-16T08:05:46Z</time>
      </trkpt>
      <trkpt lat="44.9101" lon="2.34839">
        <ele>603.36</ele>
        <time>2021-08-16T08:05:47Z</time>
      </trkpt>
      <trkpt lat="44.91011" lon="2.34837">
        <ele>603.36</ele>
        <time>2021-08-16T08:05:48Z</time>
      </trkpt>
      <trkpt lat="44.91012" lon="2.34834">
        <ele>603.36</ele>
        <time>2021-08-16T08:05:49Z</time>
      </trkpt>
      <trkpt lat="44.91013" lon="2.34832">
        <ele>603.36</ele>
        <time>2021-08-16T08:05:50Z</time>
      </trkpt>
      <trkpt lat="44.91013" lon="2.34829">
        <ele>603.85</ele>
        <time>2021-08-16T08:05:51Z</time>
      </trkpt>
      <trkpt lat="44.91013" lon="2.34826">
        <ele>603.85</ele>
        <time>2021-08-16T08:05:52Z</time>
      </trkpt>
      <trkpt lat="44.91014" lon="2.34823">
        <ele>603.85</ele>
        <time>2021-08-16T08:05:53Z</time>
      </trkpt>
      <trkpt lat="44.91014" lon="2.34819">
        <ele>603.85</ele>
        <time>2021-08-16T08:05:54Z</time>
      </trkpt>
      <trkpt lat="44.91019" lon="2.34796">
        <ele>603.85</ele>
        <time>2021-08-16T08:06:00Z</time>
      </trkpt>
      <trkpt lat="44.91025" lon="2.34767">
        <ele>603.85</ele>
        <time>2021-08-16T08:06:06Z</time>
      </trkpt>
      <trkpt lat="44.91037" lon="2.34721">
        <ele>600.96</ele>
        <time>2021-08-16T08:06:13Z</time>
      </trkpt>
      <trkpt lat="44.9104" lon="2.34715">
        <ele>600.48</ele>
        <time>2021-08-16T08:06:14Z</time>
      </trkpt>
      <trkpt lat="44.91044" lon="2.34708">
        <ele>600</ele>
        <time>2021-08-16T08:06:15Z</time>
      </trkpt>
      <trkpt lat="44.91052" lon="2.34695">
        <ele>598.56</ele>
        <time>2021-08-16T08:06:17Z</time>
      </trkpt>
      <trkpt lat="44.91071" lon="2.34654">
        <ele>596.15</ele>
        <time>2021-08-16T08:06:22Z</time>
      </trkpt>
      <trkpt lat="44.91074" lon="2.34646">
        <ele>596.15</ele>
        <time>2021-08-16T08:06:23Z</time>
      </trkpt>
      <trkpt lat="44.91079" lon="2.34629">
        <ele>596.15</ele>
        <time>2021-08-16T08:06:25Z</time>
      </trkpt>
      <trkpt lat="44.91083" lon="2.34622">
        <ele>596.15</ele>
        <time>2021-08-16T08:06:26Z</time>
      </trkpt>
      <trkpt lat="44.91086" lon="2.34616">
        <ele>596.15</ele>
        <time>2021-08-16T08:06:27Z</time>
      </trkpt>
      <trkpt lat="44.91098" lon="2.34596">
        <ele>597.6</ele>
        <time>2021-08-16T08:06:31Z</time>
      </trkpt>
      <trkpt lat="44.91112" lon="2.34571">
        <ele>598.56</ele>
        <time>2021-08-16T08:06:38Z</time>
      </trkpt>
      <trkpt lat="44.91128" lon="2.34561">
        <ele>598.08</ele>
        <time>2021-08-16T08:06:43Z</time>
      </trkpt>
      <trkpt lat="44.91153" lon="2.34555">
        <ele>596.15</ele>
        <time>2021-08-16T08:06:49Z</time>
      </trkpt>
      <trkpt lat="44.91157" lon="2.34555">
        <ele>596.15</ele>
        <time>2021-08-16T08:06:50Z</time>
      </trkpt>
      <trkpt lat="44.91165" lon="2.34558">
        <ele>595.67</ele>
        <time>2021-08-16T08:06:52Z</time>
      </trkpt>
      <trkpt lat="44.9117" lon="2.34558">
        <ele>594.71</ele>
        <time>2021-08-16T08:06:53Z</time>
      </trkpt>
      <trkpt lat="44.91174" lon="2.34556">
        <ele>594.71</ele>
        <time>2021-08-16T08:06:54Z</time>
      </trkpt>
      <trkpt lat="44.91179" lon="2.34555">
        <ele>593.75</ele>
        <time>2021-08-16T08:06:55Z</time>
      </trkpt>
      <trkpt lat="44.91184" lon="2.34554">
        <ele>593.75</ele>
        <time>2021-08-16T08:06:56Z</time>
      </trkpt>
      <trkpt lat="44.91189" lon="2.34552">
        <ele>592.79</ele>
        <time>2021-08-16T08:06:57Z</time>
      </trkpt>
      <trkpt lat="44.91194" lon="2.34549">
        <ele>592.31</ele>
        <time>2021-08-16T08:06:58Z</time>
      </trkpt>
      <trkpt lat="44.91198" lon="2.34545">
        <ele>592.79</ele>
        <time>2021-08-16T08:06:59Z</time>
      </trkpt>
      <trkpt lat="44.91202" lon="2.3454">
        <ele>591.83</ele>
        <time>2021-08-16T08:07:00Z</time>
      </trkpt>
      <trkpt lat="44.91206" lon="2.34536">
        <ele>591.83</ele>
        <time>2021-08-16T08:07:01Z</time>
      </trkpt>
      <trkpt lat="44.9121" lon="2.34532">
        <ele>591.35</ele>
        <time>2021-08-16T08:07:02Z</time>
      </trkpt>
      <trkpt lat="44.91225" lon="2.3452">
        <ele>590.39</ele>
        <time>2021-08-16T08:07:05Z</time>
      </trkpt>
      <trkpt lat="44.91234" lon="2.34513">
        <ele>588.95</ele>
        <time>2021-08-16T08:07:07Z</time>
      </trkpt>
      <trkpt lat="44.91239" lon="2.34508">
        <ele>588.46</ele>
        <time>2021-08-16T08:07:08Z</time>
      </trkpt>
      <trkpt lat="44.91242" lon="2.34501">
        <ele>587.5</ele>
        <time>2021-08-16T08:07:09Z</time>
      </trkpt>
      <trkpt lat="44.91246" lon="2.34493">
        <ele>587.02</ele>
        <time>2021-08-16T08:07:10Z</time>
      </trkpt>
      <trkpt lat="44.9125" lon="2.34485">
        <ele>586.06</ele>
        <time>2021-08-16T08:07:11Z</time>
      </trkpt>
      <trkpt lat="44.91261" lon="2.34461">
        <ele>586.06</ele>
        <time>2021-08-16T08:07:14Z</time>
      </trkpt>
      <trkpt lat="44.91265" lon="2.34454">
        <ele>586.06</ele>
        <time>2021-08-16T08:07:15Z</time>
      </trkpt>
      <trkpt lat="44.91282" lon="2.34422">
        <ele>586.06</ele>
        <time>2021-08-16T08:07:20Z</time>
      </trkpt>
      <trkpt lat="44.91293" lon="2.34408">
        <ele>584.14</ele>
        <time>2021-08-16T08:07:22Z</time>
      </trkpt>
      <trkpt lat="44.91298" lon="2.34403">
        <ele>583.18</ele>
        <time>2021-08-16T08:07:23Z</time>
      </trkpt>
      <trkpt lat="44.9133" lon="2.34384">
        <ele>579.33</ele>
        <time>2021-08-16T08:07:28Z</time>
      </trkpt>
      <trkpt lat="44.91336" lon="2.34382">
        <ele>579.33</ele>
        <time>2021-08-16T08:07:29Z</time>
      </trkpt>
      <trkpt lat="44.91344" lon="2.34381">
        <ele>577.41</ele>
        <time>2021-08-16T08:07:30Z</time>
      </trkpt>
      <trkpt lat="44.91357" lon="2.34376">
        <ele>577.41</ele>
        <time>2021-08-16T08:07:32Z</time>
      </trkpt>
      <trkpt lat="44.91381" lon="2.34363">
        <ele>579.33</ele>
        <time>2021-08-16T08:07:37Z</time>
      </trkpt>
      <trkpt lat="44.91386" lon="2.34357">
        <ele>580.77</ele>
        <time>2021-08-16T08:07:41Z</time>
      </trkpt>
      <trkpt lat="44.91394" lon="2.34347">
        <ele>583.18</ele>
        <time>2021-08-16T08:07:51Z</time>
      </trkpt>
      <trkpt lat="44.91397" lon="2.34337">
        <ele>584.14</ele>
        <time>2021-08-16T08:08:00Z</time>
      </trkpt>
      <trkpt lat="44.91402" lon="2.34334">
        <ele>584.14</ele>
        <time>2021-08-16T08:08:07Z</time>
      </trkpt>
      <trkpt lat="44.91404" lon="2.34334">
        <ele>584.14</ele>
        <time>2021-08-16T08:08:08Z</time>
      </trkpt>
      <trkpt lat="44.91405" lon="2.34333">
        <ele>584.14</ele>
        <time>2021-08-16T08:08:09Z</time>
      </trkpt>
      <trkpt lat="44.91406" lon="2.34332">
        <ele>584.14</ele>
        <time>2021-08-16T08:08:10Z</time>
      </trkpt>
      <trkpt lat="44.91418" lon="2.34326">
        <ele>584.14</ele>
        <time>2021-08-16T08:08:17Z</time>
      </trkpt>
      <trkpt lat="44.91427" lon="2.34321">
        <ele>583.18</ele>
        <time>2021-08-16T08:08:20Z</time>
      </trkpt>
      <trkpt lat="44.91435" lon="2.34316">
        <ele>581.25</ele>
        <time>2021-08-16T08:08:22Z</time>
      </trkpt>
      <trkpt lat="44.9144" lon="2.34313">
        <ele>580.29</ele>
        <time>2021-08-16T08:08:23Z</time>
      </trkpt>
      <trkpt lat="44.91444" lon="2.34308">
        <ele>580.29</ele>
        <time>2021-08-16T08:08:24Z</time>
      </trkpt>
      <trkpt lat="44.91446" lon="2.34304">
        <ele>580.29</ele>
        <time>2021-08-16T08:08:25Z</time>
      </trkpt>
      <trkpt lat="44.9145" lon="2.34295">
        <ele>582.22</ele>
        <time>2021-08-16T08:08:28Z</time>
      </trkpt>
      <trkpt lat="44.91455" lon="2.34276">
        <ele>583.18</ele>
        <time>2021-08-16T08:08:35Z</time>
      </trkpt>
      <trkpt lat="44.91464" lon="2.34259">
        <ele>584.14</ele>
        <time>2021-08-16T08:08:41Z</time>
      </trkpt>
      <trkpt lat="44.91476" lon="2.3425">
        <ele>584.14</ele>
        <time>2021-08-16T08:08:47Z</time>
      </trkpt>
      <trkpt lat="44.91477" lon="2.34247">
        <ele>584.14</ele>
        <time>2021-08-16T08:08:48Z</time>
      </trkpt>
      <trkpt lat="44.91478" lon="2.34244">
        <ele>584.14</ele>
        <time>2021-08-16T08:08:49Z</time>
      </trkpt>
      <trkpt lat="44.91478" lon="2.34242">
        <ele>584.14</ele>
        <time>2021-08-16T08:08:50Z</time>
      </trkpt>
      <trkpt lat="44.91478" lon="2.34239">
        <ele>584.14</ele>
        <time>2021-08-16T08:08:51Z</time>
      </trkpt>
      <trkpt lat="44.91485" lon="2.34221">
        <ele>581.25</ele>
        <time>2021-08-16T08:08:56Z</time>
      </trkpt>
      <trkpt lat="44.91488" lon="2.34217">
        <ele>580.29</ele>
        <time>2021-08-16T08:08:57Z</time>
      </trkpt>
      <trkpt lat="44.91493" lon="2.34215">
        <ele>580.29</ele>
        <time>2021-08-16T08:08:58Z</time>
      </trkpt>
      <trkpt lat="44.91496" lon="2.34213">
        <ele>579.33</ele>
        <time>2021-08-16T08:08:59Z</time>
      </trkpt>
      <trkpt lat="44.91499" lon="2.34209">
        <ele>579.33</ele>
        <time>2021-08-16T08:09:00Z</time>
      </trkpt>
      <trkpt lat="44.915" lon="2.34206">
        <ele>579.33</ele>
        <time>2021-08-16T08:09:01Z</time>
      </trkpt>
      <trkpt lat="44.91502" lon="2.34203">
        <ele>579.33</ele>
        <time>2021-08-16T08:09:02Z</time>
      </trkpt>
      <trkpt lat="44.91503" lon="2.34201">
        <ele>580.29</ele>
        <time>2021-08-16T08:09:03Z</time>
      </trkpt>
      <trkpt lat="44.91504" lon="2.342">
        <ele>580.29</ele>
        <time>2021-08-16T08:09:04Z</time>
      </trkpt>
      <trkpt lat="44.91506" lon="2.34198">
        <ele>580.29</ele>
        <time>2021-08-16T08:09:05Z</time>
      </trkpt>
      <trkpt lat="44.91509" lon="2.34196">
        <ele>580.29</ele>
        <time>2021-08-16T08:09:06Z</time>
      </trkpt>
      <trkpt lat="44.91512" lon="2.34194">
        <ele>580.29</ele>
        <time>2021-08-16T08:09:07Z</time>
      </trkpt>
      <trkpt lat="44.91514" lon="2.34191">
        <ele>580.29</ele>
        <time>2021-08-16T08:09:08Z</time>
      </trkpt>
      <trkpt lat="44.91516" lon="2.34188">
        <ele>580.29</ele>
        <time>2021-08-16T08:09:09Z</time>
      </trkpt>
      <trkpt lat="44.9152" lon="2.34184">
        <ele>578.85</ele>
        <time>2021-08-16T08:09:10Z</time>
      </trkpt>
      <trkpt lat="44.91524" lon="2.34181">
        <ele>578.85</ele>
        <time>2021-08-16T08:09:11Z</time>
      </trkpt>
      <trkpt lat="44.91544" lon="2.34172">
        <ele>579.33</ele>
        <time>2021-08-16T08:09:16Z</time>
      </trkpt>
      <trkpt lat="44.91546" lon="2.34171">
        <ele>579.33</ele>
        <time>2021-08-16T08:09:17Z</time>
      </trkpt>
      <trkpt lat="44.91561" lon="2.34163">
        <ele>579.33</ele>
        <time>2021-08-16T08:09:22Z</time>
      </trkpt>
      <trkpt lat="44.91564" lon="2.34163">
        <ele>579.33</ele>
        <time>2021-08-16T08:09:23Z</time>
      </trkpt>
      <trkpt lat="44.91572" lon="2.34159">
        <ele>578.37</ele>
        <time>2021-08-16T08:09:26Z</time>
      </trkpt>
      <trkpt lat="44.91574" lon="2.34156">
        <ele>578.37</ele>
        <time>2021-08-16T08:09:27Z</time>
      </trkpt>
      <trkpt lat="44.91576" lon="2.34153">
        <ele>578.37</ele>
        <time>2021-08-16T08:09:28Z</time>
      </trkpt>
      <trkpt lat="44.91578" lon="2.34151">
        <ele>578.37</ele>
        <time>2021-08-16T08:09:29Z</time>
      </trkpt>
      <trkpt lat="44.91579" lon="2.34148">
        <ele>578.37</ele>
        <time>2021-08-16T08:09:30Z</time>
      </trkpt>
      <trkpt lat="44.9158" lon="2.34146">
        <ele>578.37</ele>
        <time>2021-08-16T08:09:31Z</time>
      </trkpt>
      <trkpt lat="44.91582" lon="2.34144">
        <ele>578.37</ele>
        <time>2021-08-16T08:09:32Z</time>
      </trkpt>
      <trkpt lat="44.916" lon="2.34125">
        <ele>576.93</ele>
        <time>2021-08-16T08:09:39Z</time>
      </trkpt>
      <trkpt lat="44.91617" lon="2.341">
        <ele>574.04</ele>
        <time>2021-08-16T08:09:45Z</time>
      </trkpt>
      <trkpt lat="44.91621" lon="2.34094">
        <ele>573.08</ele>
        <time>2021-08-16T08:09:46Z</time>
      </trkpt>
      <trkpt lat="44.91636" lon="2.34073">
        <ele>570.68</ele>
        <time>2021-08-16T08:09:51Z</time>
      </trkpt>
      <trkpt lat="44.9164" lon="2.34072">
        <ele>569.72</ele>
        <time>2021-08-16T08:09:52Z</time>
      </trkpt>
      <trkpt lat="44.91643" lon="2.34073">
        <ele>568.76</ele>
        <time>2021-08-16T08:09:53Z</time>
      </trkpt>
      <trkpt lat="44.91646" lon="2.34073">
        <ele>567.8</ele>
        <time>2021-08-16T08:09:54Z</time>
      </trkpt>
      <trkpt lat="44.9165" lon="2.34072">
        <ele>566.35</ele>
        <time>2021-08-16T08:09:55Z</time>
      </trkpt>
      <trkpt lat="44.91654" lon="2.3407">
        <ele>564.91</ele>
        <time>2021-08-16T08:09:56Z</time>
      </trkpt>
      <trkpt lat="44.91657" lon="2.34067">
        <ele>564.91</ele>
        <time>2021-08-16T08:09:57Z</time>
      </trkpt>
      <trkpt lat="44.91659" lon="2.34063">
        <ele>564.43</ele>
        <time>2021-08-16T08:09:58Z</time>
      </trkpt>
      <trkpt lat="44.9166" lon="2.34058">
        <ele>564.43</ele>
        <time>2021-08-16T08:09:59Z</time>
      </trkpt>
      <trkpt lat="44.91671" lon="2.3403">
        <ele>564.91</ele>
        <time>2021-08-16T08:10:05Z</time>
      </trkpt>
      <trkpt lat="44.91673" lon="2.34024">
        <ele>564.43</ele>
        <time>2021-08-16T08:10:06Z</time>
      </trkpt>
      <trkpt lat="44.91685" lon="2.33981">
        <ele>563.47</ele>
        <time>2021-08-16T08:10:12Z</time>
      </trkpt>
      <trkpt lat="44.91687" lon="2.33973">
        <ele>563.47</ele>
        <time>2021-08-16T08:10:13Z</time>
      </trkpt>
      <trkpt lat="44.91697" lon="2.33936">
        <ele>563.47</ele>
        <time>2021-08-16T08:10:19Z</time>
      </trkpt>
      <trkpt lat="44.91701" lon="2.33912">
        <ele>564.91</ele>
        <time>2021-08-16T08:10:25Z</time>
      </trkpt>
      <trkpt lat="44.91704" lon="2.33893">
        <ele>566.35</ele>
        <time>2021-08-16T08:10:32Z</time>
      </trkpt>
      <trkpt lat="44.91705" lon="2.3389">
        <ele>566.35</ele>
        <time>2021-08-16T08:10:33Z</time>
      </trkpt>
      <trkpt lat="44.91707" lon="2.33887">
        <ele>566.35</ele>
        <time>2021-08-16T08:10:34Z</time>
      </trkpt>
      <trkpt lat="44.9171" lon="2.33884">
        <ele>566.35</ele>
        <time>2021-08-16T08:10:35Z</time>
      </trkpt>
      <trkpt lat="44.91712" lon="2.3388">
        <ele>566.35</ele>
        <time>2021-08-16T08:10:36Z</time>
      </trkpt>
      <trkpt lat="44.91715" lon="2.33876">
        <ele>566.35</ele>
        <time>2021-08-16T08:10:37Z</time>
      </trkpt>
      <trkpt lat="44.91718" lon="2.33872">
        <ele>566.83</ele>
        <time>2021-08-16T08:10:38Z</time>
      </trkpt>
      <trkpt lat="44.91727" lon="2.33862">
        <ele>565.39</ele>
        <time>2021-08-16T08:10:41Z</time>
      </trkpt>
      <trkpt lat="44.91736" lon="2.33847">
        <ele>565.39</ele>
        <time>2021-08-16T08:10:47Z</time>
      </trkpt>
      <trkpt lat="44.91749" lon="2.33826">
        <ele>563.95</ele>
        <time>2021-08-16T08:10:53Z</time>
      </trkpt>
      <trkpt lat="44.91756" lon="2.33817">
        <ele>562.51</ele>
        <time>2021-08-16T08:10:55Z</time>
      </trkpt>
      <trkpt lat="44.91759" lon="2.33812">
        <ele>561.55</ele>
        <time>2021-08-16T08:10:56Z</time>
      </trkpt>
      <trkpt lat="44.91762" lon="2.33805">
        <ele>561.07</ele>
        <time>2021-08-16T08:10:57Z</time>
      </trkpt>
      <trkpt lat="44.91764" lon="2.33797">
        <ele>560.11</ele>
        <time>2021-08-16T08:10:58Z</time>
      </trkpt>
      <trkpt lat="44.91764" lon="2.33787">
        <ele>559.14</ele>
        <time>2021-08-16T08:10:59Z</time>
      </trkpt>
      <trkpt lat="44.91764" lon="2.33778">
        <ele>558.66</ele>
        <time>2021-08-16T08:11:00Z</time>
      </trkpt>
      <trkpt lat="44.91764" lon="2.33768">
        <ele>557.7</ele>
        <time>2021-08-16T08:11:01Z</time>
      </trkpt>
      <trkpt lat="44.91763" lon="2.33758">
        <ele>557.22</ele>
        <time>2021-08-16T08:11:02Z</time>
      </trkpt>
      <trkpt lat="44.9176" lon="2.33741">
        <ele>556.26</ele>
        <time>2021-08-16T08:11:04Z</time>
      </trkpt>
      <trkpt lat="44.9176" lon="2.33734">
        <ele>556.26</ele>
        <time>2021-08-16T08:11:05Z</time>
      </trkpt>
      <trkpt lat="44.91761" lon="2.33729">
        <ele>556.26</ele>
        <time>2021-08-16T08:11:06Z</time>
      </trkpt>
      <trkpt lat="44.91762" lon="2.33725">
        <ele>555.78</ele>
        <time>2021-08-16T08:11:07Z</time>
      </trkpt>
      <trkpt lat="44.91763" lon="2.33722">
        <ele>555.78</ele>
        <time>2021-08-16T08:11:08Z</time>
      </trkpt>
      <trkpt lat="44.91763" lon="2.33719">
        <ele>555.78</ele>
        <time>2021-08-16T08:11:09Z</time>
      </trkpt>
      <trkpt lat="44.91763" lon="2.33716">
        <ele>556.26</ele>
        <time>2021-08-16T08:11:16Z</time>
      </trkpt>
      <trkpt lat="44.91763" lon="2.33714">
        <ele>556.26</ele>
        <time>2021-08-16T08:11:41Z</time>
      </trkpt>
      <trkpt lat="44.91762" lon="2.33711">
        <ele>556.26</ele>
        <time>2021-08-16T08:11:49Z</time>
      </trkpt>
      <trkpt lat="44.9176" lon="2.33706">
        <ele>556.26</ele>
        <time>2021-08-16T08:12:01Z</time>
      </trkpt>
      <trkpt lat="44.91757" lon="2.33694">
        <ele>558.18</ele>
        <time>2021-08-16T08:12:08Z</time>
      </trkpt>
      <trkpt lat="44.91756" lon="2.3369">
        <ele>558.18</ele>
        <time>2021-08-16T08:12:15Z</time>
      </trkpt>
      <trkpt lat="44.91755" lon="2.33689">
        <ele>558.18</ele>
        <time>2021-08-16T08:12:34Z</time>
      </trkpt>
      <trkpt lat="44.91755" lon="2.33686">
        <ele>558.18</ele>
        <time>2021-08-16T08:12:48Z</time>
      </trkpt>
      <trkpt lat="44.9175" lon="2.33671">
        <ele>560.11</ele>
        <time>2021-08-16T08:12:56Z</time>
      </trkpt>
      <trkpt lat="44.91747" lon="2.33664">
        <ele>560.59</ele>
        <time>2021-08-16T08:13:00Z</time>
      </trkpt>
      <trkpt lat="44.91742" lon="2.33656">
        <ele>562.03</ele>
        <time>2021-08-16T08:13:08Z</time>
      </trkpt>
      <trkpt lat="44.91736" lon="2.33646">
        <ele>562.99</ele>
        <time>2021-08-16T08:13:17Z</time>
      </trkpt>
      <trkpt lat="44.91729" lon="2.33632">
        <ele>564.43</ele>
        <time>2021-08-16T08:13:28Z</time>
      </trkpt>
      <trkpt lat="44.91725" lon="2.33622">
        <ele>565.87</ele>
        <time>2021-08-16T08:13:37Z</time>
      </trkpt>
      <trkpt lat="44.9172" lon="2.33612">
        <ele>566.83</ele>
        <time>2021-08-16T08:13:46Z</time>
      </trkpt>
      <trkpt lat="44.91716" lon="2.336">
        <ele>568.28</ele>
        <time>2021-08-16T08:13:56Z</time>
      </trkpt>
      <trkpt lat="44.91714" lon="2.33596">
        <ele>568.76</ele>
        <time>2021-08-16T08:14:04Z</time>
      </trkpt>
      <trkpt lat="44.91707" lon="2.33586">
        <ele>569.24</ele>
        <time>2021-08-16T08:14:10Z</time>
      </trkpt>
      <trkpt lat="44.91697" lon="2.33573">
        <ele>570.2</ele>
        <time>2021-08-16T08:14:16Z</time>
      </trkpt>
      <trkpt lat="44.91684" lon="2.33565">
        <ele>570.68</ele>
        <time>2021-08-16T08:14:23Z</time>
      </trkpt>
      <trkpt lat="44.91672" lon="2.33564">
        <ele>571.16</ele>
        <time>2021-08-16T08:14:29Z</time>
      </trkpt>
      <trkpt lat="44.91653" lon="2.33564">
        <ele>572.6</ele>
        <time>2021-08-16T08:14:38Z</time>
      </trkpt>
      <trkpt lat="44.91636" lon="2.33562">
        <ele>573.56</ele>
        <time>2021-08-16T08:14:47Z</time>
      </trkpt>
      <trkpt lat="44.91625" lon="2.33563">
        <ele>575.01</ele>
        <time>2021-08-16T08:14:54Z</time>
      </trkpt>
      <trkpt lat="44.91614" lon="2.33564">
        <ele>575.49</ele>
        <time>2021-08-16T08:15:02Z</time>
      </trkpt>
      <trkpt lat="44.91603" lon="2.33563">
        <ele>576.93</ele>
        <time>2021-08-16T08:15:10Z</time>
      </trkpt>
      <trkpt lat="44.91591" lon="2.33561">
        <ele>578.37</ele>
        <time>2021-08-16T08:15:19Z</time>
      </trkpt>
      <trkpt lat="44.91588" lon="2.33559">
        <ele>578.85</ele>
        <time>2021-08-16T08:15:25Z</time>
      </trkpt>
      <trkpt lat="44.91581" lon="2.33557">
        <ele>580.29</ele>
        <time>2021-08-16T08:15:33Z</time>
      </trkpt>
      <trkpt lat="44.91579" lon="2.33552">
        <ele>580.77</ele>
        <time>2021-08-16T08:15:42Z</time>
      </trkpt>
      <trkpt lat="44.91578" lon="2.33549">
        <ele>580.77</ele>
        <time>2021-08-16T08:15:44Z</time>
      </trkpt>
      <trkpt lat="44.91576" lon="2.33543">
        <ele>581.25</ele>
        <time>2021-08-16T08:15:48Z</time>
      </trkpt>
      <trkpt lat="44.91576" lon="2.33541">
        <ele>581.25</ele>
        <time>2021-08-16T08:15:49Z</time>
      </trkpt>
      <trkpt lat="44.91575" lon="2.33539">
        <ele>581.25</ele>
        <time>2021-08-16T08:15:50Z</time>
      </trkpt>
      <trkpt lat="44.91575" lon="2.33537">
        <ele>581.25</ele>
        <time>2021-08-16T08:15:51Z</time>
      </trkpt>
      <trkpt lat="44.91574" lon="2.33536">
        <ele>581.73</ele>
        <time>2021-08-16T08:15:52Z</time>
      </trkpt>
      <trkpt lat="44.91573" lon="2.33534">
        <ele>581.73</ele>
        <time>2021-08-16T08:15:53Z</time>
      </trkpt>
      <trkpt lat="44.91572" lon="2.33532">
        <ele>582.22</ele>
        <time>2021-08-16T08:15:54Z</time>
      </trkpt>
      <trkpt lat="44.91568" lon="2.33524">
        <ele>583.18</ele>
        <time>2021-08-16T08:15:59Z</time>
      </trkpt>
      <trkpt lat="44.91564" lon="2.3352">
        <ele>583.66</ele>
        <time>2021-08-16T08:16:06Z</time>
      </trkpt>
      <trkpt lat="44.91556" lon="2.33519">
        <ele>585.58</ele>
        <time>2021-08-16T08:16:17Z</time>
      </trkpt>
      <trkpt lat="44.91552" lon="2.33526">
        <ele>587.02</ele>
        <time>2021-08-16T08:16:26Z</time>
      </trkpt>
      <trkpt lat="44.91547" lon="2.33531">
        <ele>587.98</ele>
        <time>2021-08-16T08:16:34Z</time>
      </trkpt>
      <trkpt lat="44.9154" lon="2.33536">
        <ele>589.43</ele>
        <time>2021-08-16T08:16:42Z</time>
      </trkpt>
      <trkpt lat="44.91539" lon="2.33536">
        <ele>589.43</ele>
        <time>2021-08-16T08:16:43Z</time>
      </trkpt>
      <trkpt lat="44.91535" lon="2.3354">
        <ele>589.91</ele>
        <time>2021-08-16T08:16:51Z</time>
      </trkpt>
      <trkpt lat="44.91527" lon="2.33544">
        <ele>590.87</ele>
        <time>2021-08-16T08:16:57Z</time>
      </trkpt>
      <trkpt lat="44.91519" lon="2.33544">
        <ele>591.35</ele>
        <time>2021-08-16T08:17:03Z</time>
      </trkpt>
      <trkpt lat="44.91518" lon="2.33543">
        <ele>591.35</ele>
        <time>2021-08-16T08:17:04Z</time>
      </trkpt>
      <trkpt lat="44.91517" lon="2.33543">
        <ele>591.83</ele>
        <time>2021-08-16T08:17:05Z</time>
      </trkpt>
      <trkpt lat="44.91513" lon="2.33538">
        <ele>592.79</ele>
        <time>2021-08-16T08:17:09Z</time>
      </trkpt>
      <trkpt lat="44.91513" lon="2.33536">
        <ele>593.27</ele>
        <time>2021-08-16T08:17:10Z</time>
      </trkpt>
      <trkpt lat="44.91513" lon="2.33535">
        <ele>593.27</ele>
        <time>2021-08-16T08:17:11Z</time>
      </trkpt>
      <trkpt lat="44.91512" lon="2.33532">
        <ele>593.75</ele>
        <time>2021-08-16T08:17:13Z</time>
      </trkpt>
      <trkpt lat="44.91513" lon="2.3353">
        <ele>593.75</ele>
        <time>2021-08-16T08:17:14Z</time>
      </trkpt>
      <trkpt lat="44.91513" lon="2.33529">
        <ele>593.75</ele>
        <time>2021-08-16T08:17:15Z</time>
      </trkpt>
      <trkpt lat="44.91514" lon="2.33514">
        <ele>595.67</ele>
        <time>2021-08-16T08:17:25Z</time>
      </trkpt>
      <trkpt lat="44.91515" lon="2.33513">
        <ele>595.67</ele>
        <time>2021-08-16T08:17:26Z</time>
      </trkpt>
      <trkpt lat="44.91515" lon="2.3351">
        <ele>595.67</ele>
        <time>2021-08-16T08:17:32Z</time>
      </trkpt>
      <trkpt lat="44.91514" lon="2.33507">
        <ele>595.67</ele>
        <time>2021-08-16T08:17:49Z</time>
      </trkpt>
      <trkpt lat="44.91513" lon="2.33505">
        <ele>596.15</ele>
        <time>2021-08-16T08:18:02Z</time>
      </trkpt>
      <trkpt lat="44.91514" lon="2.335">
        <ele>596.64</ele>
        <time>2021-08-16T08:18:09Z</time>
      </trkpt>
      <trkpt lat="44.91511" lon="2.33492">
        <ele>598.56</ele>
        <time>2021-08-16T08:18:18Z</time>
      </trkpt>
      <trkpt lat="44.91507" lon="2.33485">
        <ele>599.52</ele>
        <time>2021-08-16T08:18:27Z</time>
      </trkpt>
      <trkpt lat="44.91503" lon="2.33476">
        <ele>600.96</ele>
        <time>2021-08-16T08:18:34Z</time>
      </trkpt>
      <trkpt lat="44.91497" lon="2.33469">
        <ele>602.4</ele>
        <time>2021-08-16T08:18:43Z</time>
      </trkpt>
      <trkpt lat="44.91491" lon="2.3346">
        <ele>603.36</ele>
        <time>2021-08-16T08:18:52Z</time>
      </trkpt>
      <trkpt lat="44.91487" lon="2.33452">
        <ele>604.33</ele>
        <time>2021-08-16T08:18:59Z</time>
      </trkpt>
      <trkpt lat="44.91486" lon="2.33451">
        <ele>604.81</ele>
        <time>2021-08-16T08:19:13Z</time>
      </trkpt>
      <trkpt lat="44.91483" lon="2.33443">
        <ele>604.81</ele>
        <time>2021-08-16T08:19:24Z</time>
      </trkpt>
      <trkpt lat="44.91481" lon="2.33438">
        <ele>605.29</ele>
        <time>2021-08-16T08:19:31Z</time>
      </trkpt>
      <trkpt lat="44.91468" lon="2.33424">
        <ele>606.25</ele>
        <time>2021-08-16T08:19:39Z</time>
      </trkpt>
      <trkpt lat="44.9145" lon="2.33409">
        <ele>606.73</ele>
        <time>2021-08-16T08:19:47Z</time>
      </trkpt>
      <trkpt lat="44.91437" lon="2.33398">
        <ele>606.73</ele>
        <time>2021-08-16T08:19:52Z</time>
      </trkpt>
      <trkpt lat="44.91423" lon="2.33386">
        <ele>606.73</ele>
        <time>2021-08-16T08:19:57Z</time>
      </trkpt>
      <trkpt lat="44.91408" lon="2.33379">
        <ele>605.29</ele>
        <time>2021-08-16T08:20:02Z</time>
      </trkpt>
      <trkpt lat="44.91397" lon="2.33374">
        <ele>604.33</ele>
        <time>2021-08-16T08:20:07Z</time>
      </trkpt>
      <trkpt lat="44.91393" lon="2.33372">
        <ele>604.33</ele>
        <time>2021-08-16T08:20:14Z</time>
      </trkpt>
      <trkpt lat="44.91389" lon="2.3337">
        <ele>604.33</ele>
        <time>2021-08-16T08:20:19Z</time>
      </trkpt>
      <trkpt lat="44.91378" lon="2.33357">
        <ele>602.4</ele>
        <time>2021-08-16T08:20:25Z</time>
      </trkpt>
      <trkpt lat="44.91367" lon="2.33332">
        <ele>600</ele>
        <time>2021-08-16T08:20:30Z</time>
      </trkpt>
      <trkpt lat="44.91356" lon="2.33314">
        <ele>597.12</ele>
        <time>2021-08-16T08:20:34Z</time>
      </trkpt>
      <trkpt lat="44.91356" lon="2.33308">
        <ele>597.12</ele>
        <time>2021-08-16T08:20:35Z</time>
      </trkpt>
      <trkpt lat="44.91358" lon="2.33301">
        <ele>596.64</ele>
        <time>2021-08-16T08:20:36Z</time>
      </trkpt>
      <trkpt lat="44.91363" lon="2.3329">
        <ele>596.64</ele>
        <time>2021-08-16T08:20:38Z</time>
      </trkpt>
      <trkpt lat="44.91365" lon="2.33284">
        <ele>596.15</ele>
        <time>2021-08-16T08:20:39Z</time>
      </trkpt>
      <trkpt lat="44.91369" lon="2.33272">
        <ele>595.67</ele>
        <time>2021-08-16T08:20:41Z</time>
      </trkpt>
      <trkpt lat="44.91378" lon="2.33244">
        <ele>593.75</ele>
        <time>2021-08-16T08:20:47Z</time>
      </trkpt>
      <trkpt lat="44.91382" lon="2.33233">
        <ele>591.35</ele>
        <time>2021-08-16T08:20:50Z</time>
      </trkpt>
      <trkpt lat="44.91382" lon="2.33229">
        <ele>591.35</ele>
        <time>2021-08-16T08:20:51Z</time>
      </trkpt>
      <trkpt lat="44.91381" lon="2.33225">
        <ele>590.39</ele>
        <time>2021-08-16T08:20:52Z</time>
      </trkpt>
      <trkpt lat="44.91379" lon="2.33223">
        <ele>589.91</ele>
        <time>2021-08-16T08:20:53Z</time>
      </trkpt>
      <trkpt lat="44.91377" lon="2.3322">
        <ele>589.43</ele>
        <time>2021-08-16T08:20:54Z</time>
      </trkpt>
      <trkpt lat="44.91376" lon="2.33217">
        <ele>589.43</ele>
        <time>2021-08-16T08:20:55Z</time>
      </trkpt>
      <trkpt lat="44.91374" lon="2.33215">
        <ele>588.46</ele>
        <time>2021-08-16T08:20:56Z</time>
      </trkpt>
      <trkpt lat="44.91372" lon="2.33213">
        <ele>587.98</ele>
        <time>2021-08-16T08:20:57Z</time>
      </trkpt>
      <trkpt lat="44.91363" lon="2.3319">
        <ele>584.62</ele>
        <time>2021-08-16T08:21:04Z</time>
      </trkpt>
      <trkpt lat="44.91363" lon="2.33184">
        <ele>584.14</ele>
        <time>2021-08-16T08:21:05Z</time>
      </trkpt>
      <trkpt lat="44.91364" lon="2.3317">
        <ele>583.18</ele>
        <time>2021-08-16T08:21:07Z</time>
      </trkpt>
      <trkpt lat="44.91365" lon="2.33163">
        <ele>582.22</ele>
        <time>2021-08-16T08:21:08Z</time>
      </trkpt>
      <trkpt lat="44.91373" lon="2.33128">
        <ele>581.25</ele>
        <time>2021-08-16T08:21:13Z</time>
      </trkpt>
      <trkpt lat="44.91381" lon="2.33111">
        <ele>580.29</ele>
        <time>2021-08-16T08:21:16Z</time>
      </trkpt>
      <trkpt lat="44.9139" lon="2.33092">
        <ele>578.85</ele>
        <time>2021-08-16T08:21:19Z</time>
      </trkpt>
      <trkpt lat="44.91394" lon="2.33086">
        <ele>578.37</ele>
        <time>2021-08-16T08:21:20Z</time>
      </trkpt>
      <trkpt lat="44.91416" lon="2.33056">
        <ele>575.97</ele>
        <time>2021-08-16T08:21:25Z</time>
      </trkpt>
      <trkpt lat="44.9145" lon="2.33031">
        <ele>572.6</ele>
        <time>2021-08-16T08:21:30Z</time>
      </trkpt>
      <trkpt lat="44.91463" lon="2.33022">
        <ele>572.12</ele>
        <time>2021-08-16T08:21:32Z</time>
      </trkpt>
      <trkpt lat="44.91469" lon="2.33018">
        <ele>571.16</ele>
        <time>2021-08-16T08:21:33Z</time>
      </trkpt>
      <trkpt lat="44.9148" lon="2.3301">
        <ele>569.24</ele>
        <time>2021-08-16T08:21:35Z</time>
      </trkpt>
      <trkpt lat="44.91486" lon="2.33004">
        <ele>568.76</ele>
        <time>2021-08-16T08:21:36Z</time>
      </trkpt>
      <trkpt lat="44.91491" lon="2.32998">
        <ele>567.8</ele>
        <time>2021-08-16T08:21:37Z</time>
      </trkpt>
      <trkpt lat="44.91501" lon="2.32984">
        <ele>566.83</ele>
        <time>2021-08-16T08:21:39Z</time>
      </trkpt>
      <trkpt lat="44.91519" lon="2.32956">
        <ele>564.43</ele>
        <time>2021-08-16T08:21:43Z</time>
      </trkpt>
      <trkpt lat="44.91534" lon="2.32937">
        <ele>562.51</ele>
        <time>2021-08-16T08:21:46Z</time>
      </trkpt>
      <trkpt lat="44.91543" lon="2.32929">
        <ele>561.55</ele>
        <time>2021-08-16T08:21:48Z</time>
      </trkpt>
      <trkpt lat="44.91548" lon="2.32926">
        <ele>561.07</ele>
        <time>2021-08-16T08:21:49Z</time>
      </trkpt>
      <trkpt lat="44.91552" lon="2.32923">
        <ele>561.07</ele>
        <time>2021-08-16T08:21:50Z</time>
      </trkpt>
      <trkpt lat="44.91574" lon="2.32903">
        <ele>560.59</ele>
        <time>2021-08-16T08:21:57Z</time>
      </trkpt>
      <trkpt lat="44.91589" lon="2.32889">
        <ele>560.59</ele>
        <time>2021-08-16T08:22:04Z</time>
      </trkpt>
      <trkpt lat="44.91608" lon="2.32871">
        <ele>560.59</ele>
        <time>2021-08-16T08:22:11Z</time>
      </trkpt>
      <trkpt lat="44.9163" lon="2.32846">
        <ele>560.59</ele>
        <time>2021-08-16T08:22:18Z</time>
      </trkpt>
      <trkpt lat="44.9165" lon="2.32815">
        <ele>559.62</ele>
        <time>2021-08-16T08:22:25Z</time>
      </trkpt>
      <trkpt lat="44.9167" lon="2.32762">
        <ele>557.7</ele>
        <time>2021-08-16T08:22:32Z</time>
      </trkpt>
      <trkpt lat="44.91695" lon="2.3272">
        <ele>556.26</ele>
        <time>2021-08-16T08:22:38Z</time>
      </trkpt>
      <trkpt lat="44.91741" lon="2.32656">
        <ele>555.3</ele>
        <time>2021-08-16T08:22:48Z</time>
      </trkpt>
      <trkpt lat="44.91778" lon="2.32603">
        <ele>555.78</ele>
        <time>2021-08-16T08:22:57Z</time>
      </trkpt>
      <trkpt lat="44.91781" lon="2.32596">
        <ele>555.78</ele>
        <time>2021-08-16T08:22:58Z</time>
      </trkpt>
      <trkpt lat="44.91784" lon="2.32587">
        <ele>555.78</ele>
        <time>2021-08-16T08:22:59Z</time>
      </trkpt>
      <trkpt lat="44.91786" lon="2.32578">
        <ele>555.78</ele>
        <time>2021-08-16T08:23:00Z</time>
      </trkpt>
      <trkpt lat="44.91787" lon="2.32569">
        <ele>555.78</ele>
        <time>2021-08-16T08:23:01Z</time>
      </trkpt>
      <trkpt lat="44.91787" lon="2.32561">
        <ele>555.78</ele>
        <time>2021-08-16T08:23:02Z</time>
      </trkpt>
      <trkpt lat="44.91787" lon="2.32553">
        <ele>555.78</ele>
        <time>2021-08-16T08:23:03Z</time>
      </trkpt>
      <trkpt lat="44.91786" lon="2.32523">
        <ele>557.22</ele>
        <time>2021-08-16T08:23:07Z</time>
      </trkpt>
      <trkpt lat="44.91786" lon="2.32517">
        <ele>557.22</ele>
        <time>2021-08-16T08:23:08Z</time>
      </trkpt>
      <trkpt lat="44.91785" lon="2.32496">
        <ele>558.66</ele>
        <time>2021-08-16T08:23:14Z</time>
      </trkpt>
      <trkpt lat="44.91785" lon="2.32474">
        <ele>560.11</ele>
        <time>2021-08-16T08:23:23Z</time>
      </trkpt>
      <trkpt lat="44.9179" lon="2.32455">
        <ele>561.55</ele>
        <time>2021-08-16T08:23:32Z</time>
      </trkpt>
      <trkpt lat="44.9182" lon="2.32439">
        <ele>564.43</ele>
        <time>2021-08-16T08:23:52Z</time>
      </trkpt>
      <trkpt lat="44.91846" lon="2.32439">
        <ele>565.39</ele>
        <time>2021-08-16T08:24:03Z</time>
      </trkpt>
      <trkpt lat="44.91871" lon="2.32432">
        <ele>565.87</ele>
        <time>2021-08-16T08:24:12Z</time>
      </trkpt>
      <trkpt lat="44.91888" lon="2.32416">
        <ele>566.83</ele>
        <time>2021-08-16T08:24:20Z</time>
      </trkpt>
      <trkpt lat="44.91907" lon="2.32398">
        <ele>567.32</ele>
        <time>2021-08-16T08:24:29Z</time>
      </trkpt>
      <trkpt lat="44.91919" lon="2.32372">
        <ele>568.76</ele>
        <time>2021-08-16T08:24:38Z</time>
      </trkpt>
      <trkpt lat="44.91929" lon="2.32342">
        <ele>569.72</ele>
        <time>2021-08-16T08:24:48Z</time>
      </trkpt>
      <trkpt lat="44.91935" lon="2.32324">
        <ele>570.2</ele>
        <time>2021-08-16T08:24:54Z</time>
      </trkpt>
      <trkpt lat="44.91937" lon="2.32319">
        <ele>570.2</ele>
        <time>2021-08-16T08:24:56Z</time>
      </trkpt>
      <trkpt lat="44.91953" lon="2.32303">
        <ele>572.12</ele>
        <time>2021-08-16T08:25:05Z</time>
      </trkpt>
      <trkpt lat="44.91968" lon="2.32298">
        <ele>573.08</ele>
        <time>2021-08-16T08:25:14Z</time>
      </trkpt>
      <trkpt lat="44.91985" lon="2.32302">
        <ele>574.53</ele>
        <time>2021-08-16T08:25:24Z</time>
      </trkpt>
      <trkpt lat="44.92" lon="2.32314">
        <ele>575.97</ele>
        <time>2021-08-16T08:25:34Z</time>
      </trkpt>
      <trkpt lat="44.92012" lon="2.32326">
        <ele>576.93</ele>
        <time>2021-08-16T08:25:42Z</time>
      </trkpt>
      <trkpt lat="44.92028" lon="2.32338">
        <ele>577.89</ele>
        <time>2021-08-16T08:25:51Z</time>
      </trkpt>
      <trkpt lat="44.92045" lon="2.3235">
        <ele>579.33</ele>
        <time>2021-08-16T08:26:01Z</time>
      </trkpt>
      <trkpt lat="44.9205" lon="2.32353">
        <ele>579.81</ele>
        <time>2021-08-16T08:26:04Z</time>
      </trkpt>
      <trkpt lat="44.92052" lon="2.32355">
        <ele>580.29</ele>
        <time>2021-08-16T08:26:05Z</time>
      </trkpt>
      <trkpt lat="44.92071" lon="2.32366">
        <ele>581.25</ele>
        <time>2021-08-16T08:26:15Z</time>
      </trkpt>
      <trkpt lat="44.92088" lon="2.32371">
        <ele>583.18</ele>
        <time>2021-08-16T08:26:23Z</time>
      </trkpt>
      <trkpt lat="44.92108" lon="2.32378">
        <ele>584.62</ele>
        <time>2021-08-16T08:26:31Z</time>
      </trkpt>
      <trkpt lat="44.92134" lon="2.32381">
        <ele>585.58</ele>
        <time>2021-08-16T08:26:41Z</time>
      </trkpt>
      <trkpt lat="44.92162" lon="2.32375">
        <ele>585.58</ele>
        <time>2021-08-16T08:26:50Z</time>
      </trkpt>
      <trkpt lat="44.92188" lon="2.32375">
        <ele>586.06</ele>
        <time>2021-08-16T08:26:59Z</time>
      </trkpt>
      <trkpt lat="44.92198" lon="2.32371">
        <ele>586.54</ele>
        <time>2021-08-16T08:27:03Z</time>
      </trkpt>
      <trkpt lat="44.922" lon="2.32368">
        <ele>586.54</ele>
        <time>2021-08-16T08:27:04Z</time>
      </trkpt>
      <trkpt lat="44.922" lon="2.32363">
        <ele>586.54</ele>
        <time>2021-08-16T08:27:05Z</time>
      </trkpt>
      <trkpt lat="44.922" lon="2.3236">
        <ele>586.54</ele>
        <time>2021-08-16T08:27:06Z</time>
      </trkpt>
      <trkpt lat="44.922" lon="2.32357">
        <ele>586.54</ele>
        <time>2021-08-16T08:27:07Z</time>
      </trkpt>
      <trkpt lat="44.92199" lon="2.32353">
        <ele>586.54</ele>
        <time>2021-08-16T08:27:08Z</time>
      </trkpt>
      <trkpt lat="44.92189" lon="2.32324">
        <ele>587.5</ele>
        <time>2021-08-16T08:27:17Z</time>
      </trkpt>
      <trkpt lat="44.92182" lon="2.32305">
        <ele>588.95</ele>
        <time>2021-08-16T08:27:25Z</time>
      </trkpt>
      <trkpt lat="44.92176" lon="2.32288">
        <ele>589.91</ele>
        <time>2021-08-16T08:27:32Z</time>
      </trkpt>
      <trkpt lat="44.9217" lon="2.32267">
        <ele>590.87</ele>
        <time>2021-08-16T08:27:41Z</time>
      </trkpt>
      <trkpt lat="44.92169" lon="2.32244">
        <ele>592.31</ele>
        <time>2021-08-16T08:27:49Z</time>
      </trkpt>
      <trkpt lat="44.92175" lon="2.32223">
        <ele>593.27</ele>
        <time>2021-08-16T08:27:58Z</time>
      </trkpt>
      <trkpt lat="44.92181" lon="2.32202">
        <ele>594.71</ele>
        <time>2021-08-16T08:28:07Z</time>
      </trkpt>
      <trkpt lat="44.9219" lon="2.32183">
        <ele>595.67</ele>
        <time>2021-08-16T08:28:16Z</time>
      </trkpt>
      <trkpt lat="44.92199" lon="2.32159">
        <ele>597.12</ele>
        <time>2021-08-16T08:28:26Z</time>
      </trkpt>
      <trkpt lat="44.92212" lon="2.32129">
        <ele>598.56</ele>
        <time>2021-08-16T08:28:36Z</time>
      </trkpt>
      <trkpt lat="44.92227" lon="2.32099">
        <ele>599.52</ele>
        <time>2021-08-16T08:28:45Z</time>
      </trkpt>
      <trkpt lat="44.92232" lon="2.32083">
        <ele>599.52</ele>
        <time>2021-08-16T08:28:50Z</time>
      </trkpt>
      <trkpt lat="44.9223" lon="2.3208">
        <ele>599.52</ele>
        <time>2021-08-16T08:28:51Z</time>
      </trkpt>
      <trkpt lat="44.92228" lon="2.32077">
        <ele>599.52</ele>
        <time>2021-08-16T08:28:52Z</time>
      </trkpt>
      <trkpt lat="44.92222" lon="2.3207">
        <ele>599.52</ele>
        <time>2021-08-16T08:28:54Z</time>
      </trkpt>
      <trkpt lat="44.92219" lon="2.32065">
        <ele>598.08</ele>
        <time>2021-08-16T08:28:55Z</time>
      </trkpt>
      <trkpt lat="44.92217" lon="2.32059">
        <ele>598.08</ele>
        <time>2021-08-16T08:28:56Z</time>
      </trkpt>
      <trkpt lat="44.92215" lon="2.32051">
        <ele>597.6</ele>
        <time>2021-08-16T08:28:57Z</time>
      </trkpt>
      <trkpt lat="44.92215" lon="2.32043">
        <ele>596.64</ele>
        <time>2021-08-16T08:28:58Z</time>
      </trkpt>
      <trkpt lat="44.92215" lon="2.32035">
        <ele>595.67</ele>
        <time>2021-08-16T08:28:59Z</time>
      </trkpt>
      <trkpt lat="44.92215" lon="2.32018">
        <ele>595.19</ele>
        <time>2021-08-16T08:29:01Z</time>
      </trkpt>
      <trkpt lat="44.92214" lon="2.31982">
        <ele>592.79</ele>
        <time>2021-08-16T08:29:05Z</time>
      </trkpt>
      <trkpt lat="44.92217" lon="2.31941">
        <ele>591.35</ele>
        <time>2021-08-16T08:29:09Z</time>
      </trkpt>
      <trkpt lat="44.92219" lon="2.3193">
        <ele>590.39</ele>
        <time>2021-08-16T08:29:10Z</time>
      </trkpt>
      <trkpt lat="44.92229" lon="2.31885">
        <ele>587.02</ele>
        <time>2021-08-16T08:29:14Z</time>
      </trkpt>
      <trkpt lat="44.92245" lon="2.31832">
        <ele>584.14</ele>
        <time>2021-08-16T08:29:19Z</time>
      </trkpt>
      <trkpt lat="44.92257" lon="2.31794">
        <ele>581.25</ele>
        <time>2021-08-16T08:29:23Z</time>
      </trkpt>
      <trkpt lat="44.92267" lon="2.31754">
        <ele>578.37</ele>
        <time>2021-08-16T08:29:27Z</time>
      </trkpt>
      <trkpt lat="44.92273" lon="2.31708">
        <ele>575.97</ele>
        <time>2021-08-16T08:29:32Z</time>
      </trkpt>
      <trkpt lat="44.92273" lon="2.31701">
        <ele>575.49</ele>
        <time>2021-08-16T08:29:33Z</time>
      </trkpt>
      <trkpt lat="44.92272" lon="2.31692">
        <ele>574.53</ele>
        <time>2021-08-16T08:29:35Z</time>
      </trkpt>
      <trkpt lat="44.92275" lon="2.3167">
        <ele>574.04</ele>
        <time>2021-08-16T08:29:41Z</time>
      </trkpt>
      <trkpt lat="44.92279" lon="2.31645">
        <ele>573.56</ele>
        <time>2021-08-16T08:29:46Z</time>
      </trkpt>
      <trkpt lat="44.92289" lon="2.31614">
        <ele>572.6</ele>
        <time>2021-08-16T08:29:53Z</time>
      </trkpt>
      <trkpt lat="44.92304" lon="2.31589">
        <ele>571.64</ele>
        <time>2021-08-16T08:29:59Z</time>
      </trkpt>
      <trkpt lat="44.92312" lon="2.31582">
        <ele>571.16</ele>
        <time>2021-08-16T08:30:01Z</time>
      </trkpt>
      <trkpt lat="44.92315" lon="2.31576">
        <ele>571.16</ele>
        <time>2021-08-16T08:30:02Z</time>
      </trkpt>
      <trkpt lat="44.92339" lon="2.31537">
        <ele>569.24</ele>
        <time>2021-08-16T08:30:09Z</time>
      </trkpt>
      <trkpt lat="44.92361" lon="2.31511">
        <ele>568.28</ele>
        <time>2021-08-16T08:30:15Z</time>
      </trkpt>
      <trkpt lat="44.92384" lon="2.31487">
        <ele>566.83</ele>
        <time>2021-08-16T08:30:22Z</time>
      </trkpt>
      <trkpt lat="44.92399" lon="2.31476">
        <ele>565.39</ele>
        <time>2021-08-16T08:30:28Z</time>
      </trkpt>
      <trkpt lat="44.92417" lon="2.31472">
        <ele>562.51</ele>
        <time>2021-08-16T08:30:33Z</time>
      </trkpt>
      <trkpt lat="44.92421" lon="2.31473">
        <ele>562.03</ele>
        <time>2021-08-16T08:30:34Z</time>
      </trkpt>
      <trkpt lat="44.92425" lon="2.31473">
        <ele>561.07</ele>
        <time>2021-08-16T08:30:35Z</time>
      </trkpt>
      <trkpt lat="44.9244" lon="2.3147">
        <ele>559.14</ele>
        <time>2021-08-16T08:30:40Z</time>
      </trkpt>
      <trkpt lat="44.92452" lon="2.31463">
        <ele>556.74</ele>
        <time>2021-08-16T08:30:44Z</time>
      </trkpt>
      <trkpt lat="44.92454" lon="2.31462">
        <ele>556.26</ele>
        <time>2021-08-16T08:30:45Z</time>
      </trkpt>
      <trkpt lat="44.92457" lon="2.31461">
        <ele>556.26</ele>
        <time>2021-08-16T08:30:49Z</time>
      </trkpt>
      <trkpt lat="44.92458" lon="2.3146">
        <ele>556.26</ele>
        <time>2021-08-16T08:30:59Z</time>
      </trkpt>
      <trkpt lat="44.9246" lon="2.31459">
        <ele>556.26</ele>
        <time>2021-08-16T08:31:13Z</time>
      </trkpt>
      <trkpt lat="44.9246" lon="2.31458">
        <ele>556.26</ele>
        <time>2021-08-16T08:31:22Z</time>
      </trkpt>
      <trkpt lat="44.9246" lon="2.31458">
        <ele>556.26</ele>
        <time>2021-08-16T08:31:41Z</time>
      </trkpt>
      <trkpt lat="44.92461" lon="2.31456">
        <ele>556.26</ele>
        <time>2021-08-16T08:32:02Z</time>
      </trkpt>
      <trkpt lat="44.92461" lon="2.31456">
        <ele>556.74</ele>
        <time>2021-08-16T08:32:16Z</time>
      </trkpt>
      <trkpt lat="44.92463" lon="2.31456">
        <ele>556.74</ele>
        <time>2021-08-16T08:32:17Z</time>
      </trkpt>
      <trkpt lat="44.92466" lon="2.31457">
        <ele>555.78</ele>
        <time>2021-08-16T08:32:18Z</time>
      </trkpt>
      <trkpt lat="44.92469" lon="2.31457">
        <ele>554.82</ele>
        <time>2021-08-16T08:32:19Z</time>
      </trkpt>
      <trkpt lat="44.92472" lon="2.31459">
        <ele>553.86</ele>
        <time>2021-08-16T08:32:20Z</time>
      </trkpt>
      <trkpt lat="44.92475" lon="2.3146">
        <ele>553.86</ele>
        <time>2021-08-16T08:32:21Z</time>
      </trkpt>
      <trkpt lat="44.92478" lon="2.31461">
        <ele>553.38</ele>
        <time>2021-08-16T08:32:22Z</time>
      </trkpt>
      <trkpt lat="44.92482" lon="2.31463">
        <ele>553.38</ele>
        <time>2021-08-16T08:32:23Z</time>
      </trkpt>
      <trkpt lat="44.92484" lon="2.31464">
        <ele>553.38</ele>
        <time>2021-08-16T08:32:24Z</time>
      </trkpt>
      <trkpt lat="44.92486" lon="2.31465">
        <ele>553.38</ele>
        <time>2021-08-16T08:32:25Z</time>
      </trkpt>
      <trkpt lat="44.92488" lon="2.31466">
        <ele>553.38</ele>
        <time>2021-08-16T08:32:26Z</time>
      </trkpt>
      <trkpt lat="44.9249" lon="2.31467">
        <ele>553.38</ele>
        <time>2021-08-16T08:32:27Z</time>
      </trkpt>
      <trkpt lat="44.92492" lon="2.31468">
        <ele>553.38</ele>
        <time>2021-08-16T08:32:28Z</time>
      </trkpt>
      <trkpt lat="44.92494" lon="2.31469">
        <ele>553.38</ele>
        <time>2021-08-16T08:32:29Z</time>
      </trkpt>
      <trkpt lat="44.92497" lon="2.31469">
        <ele>553.38</ele>
        <time>2021-08-16T08:32:30Z</time>
      </trkpt>
      <trkpt lat="44.92499" lon="2.31469">
        <ele>553.38</ele>
        <time>2021-08-16T08:32:31Z</time>
      </trkpt>
      <trkpt lat="44.92501" lon="2.31469">
        <ele>553.38</ele>
        <time>2021-08-16T08:32:32Z</time>
      </trkpt>
      <trkpt lat="44.92503" lon="2.31469">
        <ele>553.38</ele>
        <time>2021-08-16T08:32:33Z</time>
      </trkpt>
      <trkpt lat="44.9251" lon="2.31469">
        <ele>555.78</ele>
        <time>2021-08-16T08:32:39Z</time>
      </trkpt>
      <trkpt lat="44.92512" lon="2.31467">
        <ele>555.78</ele>
        <time>2021-08-16T08:32:40Z</time>
      </trkpt>
      <trkpt lat="44.92524" lon="2.31456">
        <ele>555.78</ele>
        <time>2021-08-16T08:32:46Z</time>
      </trkpt>
      <trkpt lat="44.92529" lon="2.3145">
        <ele>554.82</ele>
        <time>2021-08-16T08:32:48Z</time>
      </trkpt>
      <trkpt lat="44.92541" lon="2.31443">
        <ele>556.26</ele>
        <time>2021-08-16T08:32:53Z</time>
      </trkpt>
      <trkpt lat="44.92543" lon="2.31442">
        <ele>556.26</ele>
        <time>2021-08-16T08:32:54Z</time>
      </trkpt>
      <trkpt lat="44.92548" lon="2.31439">
        <ele>556.74</ele>
        <time>2021-08-16T08:32:57Z</time>
      </trkpt>
      <trkpt lat="44.92549" lon="2.31437">
        <ele>556.74</ele>
        <time>2021-08-16T08:32:58Z</time>
      </trkpt>
      <trkpt lat="44.92555" lon="2.31433">
        <ele>556.74</ele>
        <time>2021-08-16T08:33:01Z</time>
      </trkpt>
      <trkpt lat="44.92556" lon="2.3143">
        <ele>556.74</ele>
        <time>2021-08-16T08:33:02Z</time>
      </trkpt>
      <trkpt lat="44.92558" lon="2.31426">
        <ele>555.78</ele>
        <time>2021-08-16T08:33:03Z</time>
      </trkpt>
      <trkpt lat="44.9256" lon="2.31424">
        <ele>555.78</ele>
        <time>2021-08-16T08:33:04Z</time>
      </trkpt>
      <trkpt lat="44.92561" lon="2.31422">
        <ele>555.78</ele>
        <time>2021-08-16T08:33:05Z</time>
      </trkpt>
      <trkpt lat="44.92563" lon="2.3142">
        <ele>555.78</ele>
        <time>2021-08-16T08:33:06Z</time>
      </trkpt>
      <trkpt lat="44.92568" lon="2.31416">
        <ele>555.78</ele>
        <time>2021-08-16T08:33:12Z</time>
      </trkpt>
      <trkpt lat="44.92568" lon="2.31415">
        <ele>557.22</ele>
        <time>2021-08-16T08:33:14Z</time>
      </trkpt>
      <trkpt lat="44.92569" lon="2.31414">
        <ele>558.66</ele>
        <time>2021-08-16T08:33:21Z</time>
      </trkpt>
      <trkpt lat="44.92571" lon="2.31411">
        <ele>559.62</ele>
        <time>2021-08-16T08:33:28Z</time>
      </trkpt>
      <trkpt lat="44.92572" lon="2.31407">
        <ele>561.07</ele>
        <time>2021-08-16T08:33:36Z</time>
      </trkpt>
      <trkpt lat="44.92568" lon="2.31404">
        <ele>562.51</ele>
        <time>2021-08-16T08:33:46Z</time>
      </trkpt>
      <trkpt lat="44.92562" lon="2.31401">
        <ele>563.47</ele>
        <time>2021-08-16T08:33:55Z</time>
      </trkpt>
      <trkpt lat="44.9256" lon="2.31394">
        <ele>565.39</ele>
        <time>2021-08-16T08:34:04Z</time>
      </trkpt>
      <trkpt lat="44.92561" lon="2.31388">
        <ele>566.83</ele>
        <time>2021-08-16T08:34:12Z</time>
      </trkpt>
      <trkpt lat="44.9256" lon="2.31382">
        <ele>568.28</ele>
        <time>2021-08-16T08:34:20Z</time>
      </trkpt>
      <trkpt lat="44.92561" lon="2.31374">
        <ele>570.2</ele>
        <time>2021-08-16T08:34:30Z</time>
      </trkpt>
      <trkpt lat="44.92562" lon="2.31367">
        <ele>571.64</ele>
        <time>2021-08-16T08:34:38Z</time>
      </trkpt>
      <trkpt lat="44.92559" lon="2.31357">
        <ele>573.08</ele>
        <time>2021-08-16T08:34:46Z</time>
      </trkpt>
      <trkpt lat="44.92557" lon="2.31351">
        <ele>573.08</ele>
        <time>2021-08-16T08:34:53Z</time>
      </trkpt>
      <trkpt lat="44.92557" lon="2.31349">
        <ele>573.08</ele>
        <time>2021-08-16T08:34:54Z</time>
      </trkpt>
      <trkpt lat="44.92557" lon="2.31346">
        <ele>573.08</ele>
        <time>2021-08-16T08:34:55Z</time>
      </trkpt>
      <trkpt lat="44.92557" lon="2.31344">
        <ele>573.08</ele>
        <time>2021-08-16T08:34:56Z</time>
      </trkpt>
      <trkpt lat="44.92558" lon="2.31342">
        <ele>573.08</ele>
        <time>2021-08-16T08:34:57Z</time>
      </trkpt>
      <trkpt lat="44.92558" lon="2.3134">
        <ele>573.08</ele>
        <time>2021-08-16T08:34:58Z</time>
      </trkpt>
      <trkpt lat="44.92559" lon="2.31338">
        <ele>573.56</ele>
        <time>2021-08-16T08:34:59Z</time>
      </trkpt>
      <trkpt lat="44.92557" lon="2.31318">
        <ele>574.04</ele>
        <time>2021-08-16T08:35:06Z</time>
      </trkpt>
      <trkpt lat="44.92552" lon="2.31285">
        <ele>575.49</ele>
        <time>2021-08-16T08:35:16Z</time>
      </trkpt>
      <trkpt lat="44.92549" lon="2.31257">
        <ele>576.45</ele>
        <time>2021-08-16T08:35:26Z</time>
      </trkpt>
      <trkpt lat="44.92546" lon="2.31234">
        <ele>577.89</ele>
        <time>2021-08-16T08:35:36Z</time>
      </trkpt>
      <trkpt lat="44.92543" lon="2.31221">
        <ele>578.85</ele>
        <time>2021-08-16T08:35:43Z</time>
      </trkpt>
      <trkpt lat="44.92541" lon="2.31213">
        <ele>579.33</ele>
        <time>2021-08-16T08:35:50Z</time>
      </trkpt>
      <trkpt lat="44.92539" lon="2.31204">
        <ele>580.77</ele>
        <time>2021-08-16T08:35:59Z</time>
      </trkpt>
      <trkpt lat="44.92537" lon="2.312">
        <ele>582.7</ele>
        <time>2021-08-16T08:36:09Z</time>
      </trkpt>
      <trkpt lat="44.92535" lon="2.31197">
        <ele>583.66</ele>
        <time>2021-08-16T08:36:15Z</time>
      </trkpt>
      <trkpt lat="44.92532" lon="2.31191">
        <ele>585.58</ele>
        <time>2021-08-16T08:36:23Z</time>
      </trkpt>
      <trkpt lat="44.9253" lon="2.31181">
        <ele>587.02</ele>
        <time>2021-08-16T08:36:34Z</time>
      </trkpt>
      <trkpt lat="44.9253" lon="2.31172">
        <ele>587.98</ele>
        <time>2021-08-16T08:36:42Z</time>
      </trkpt>
      <trkpt lat="44.92531" lon="2.31163">
        <ele>588.95</ele>
        <time>2021-08-16T08:36:49Z</time>
      </trkpt>
      <trkpt lat="44.9253" lon="2.3115">
        <ele>590.39</ele>
        <time>2021-08-16T08:36:58Z</time>
      </trkpt>
      <trkpt lat="44.92527" lon="2.31135">
        <ele>592.31</ele>
        <time>2021-08-16T08:37:07Z</time>
      </trkpt>
      <trkpt lat="44.92525" lon="2.31121">
        <ele>593.75</ele>
        <time>2021-08-16T08:37:16Z</time>
      </trkpt>
      <trkpt lat="44.9252" lon="2.31102">
        <ele>595.19</ele>
        <time>2021-08-16T08:37:25Z</time>
      </trkpt>
      <trkpt lat="44.92508" lon="2.31088">
        <ele>596.15</ele>
        <time>2021-08-16T08:37:34Z</time>
      </trkpt>
      <trkpt lat="44.92491" lon="2.31073">
        <ele>598.08</ele>
        <time>2021-08-16T08:37:45Z</time>
      </trkpt>
      <trkpt lat="44.92481" lon="2.31062">
        <ele>599.52</ele>
        <time>2021-08-16T08:37:53Z</time>
      </trkpt>
      <trkpt lat="44.92479" lon="2.31059">
        <ele>600</ele>
        <time>2021-08-16T08:37:55Z</time>
      </trkpt>
      <trkpt lat="44.92477" lon="2.31057">
        <ele>600</ele>
        <time>2021-08-16T08:37:56Z</time>
      </trkpt>
      <trkpt lat="44.92466" lon="2.31044">
        <ele>602.4</ele>
        <time>2021-08-16T08:38:06Z</time>
      </trkpt>
      <trkpt lat="44.92456" lon="2.31032">
        <ele>603.85</ele>
        <time>2021-08-16T08:38:16Z</time>
      </trkpt>
      <trkpt lat="44.92454" lon="2.31031">
        <ele>604.33</ele>
        <time>2021-08-16T08:38:17Z</time>
      </trkpt>
      <trkpt lat="44.92446" lon="2.31023">
        <ele>606.25</ele>
        <time>2021-08-16T08:38:26Z</time>
      </trkpt>
      <trkpt lat="44.92438" lon="2.31014">
        <ele>607.21</ele>
        <time>2021-08-16T08:38:35Z</time>
      </trkpt>
      <trkpt lat="44.92428" lon="2.31003">
        <ele>609.61</ele>
        <time>2021-08-16T08:38:45Z</time>
      </trkpt>
      <trkpt lat="44.92422" lon="2.30996">
        <ele>610.09</ele>
        <time>2021-08-16T08:38:50Z</time>
      </trkpt>
      <trkpt lat="44.92421" lon="2.30994">
        <ele>610.57</ele>
        <time>2021-08-16T08:38:51Z</time>
      </trkpt>
      <trkpt lat="44.9242" lon="2.30993">
        <ele>610.57</ele>
        <time>2021-08-16T08:38:52Z</time>
      </trkpt>
      <trkpt lat="44.92415" lon="2.30986">
        <ele>612.02</ele>
        <time>2021-08-16T08:38:57Z</time>
      </trkpt>
      <trkpt lat="44.92414" lon="2.30984">
        <ele>612.02</ele>
        <time>2021-08-16T08:38:58Z</time>
      </trkpt>
      <trkpt lat="44.92411" lon="2.30979">
        <ele>612.02</ele>
        <time>2021-08-16T08:39:01Z</time>
      </trkpt>
      <trkpt lat="44.9241" lon="2.30978">
        <ele>612.02</ele>
        <time>2021-08-16T08:39:02Z</time>
      </trkpt>
      <trkpt lat="44.92409" lon="2.30977">
        <ele>612.5</ele>
        <time>2021-08-16T08:39:03Z</time>
      </trkpt>
      <trkpt lat="44.92406" lon="2.30973">
        <ele>612.98</ele>
        <time>2021-08-16T08:39:06Z</time>
      </trkpt>
      <trkpt lat="44.92405" lon="2.30972">
        <ele>612.98</ele>
        <time>2021-08-16T08:39:07Z</time>
      </trkpt>
      <trkpt lat="44.92397" lon="2.3096">
        <ele>614.42</ele>
        <time>2021-08-16T08:39:16Z</time>
      </trkpt>
      <trkpt lat="44.92388" lon="2.30947">
        <ele>615.38</ele>
        <time>2021-08-16T08:39:25Z</time>
      </trkpt>
      <trkpt lat="44.92376" lon="2.30934">
        <ele>616.34</ele>
        <time>2021-08-16T08:39:33Z</time>
      </trkpt>
      <trkpt lat="44.92359" lon="2.30915">
        <ele>618.26</ele>
        <time>2021-08-16T08:39:43Z</time>
      </trkpt>
      <trkpt lat="44.92342" lon="2.30897">
        <ele>618.75</ele>
        <time>2021-08-16T08:39:52Z</time>
      </trkpt>
      <trkpt lat="44.9233" lon="2.30882">
        <ele>618.75</ele>
        <time>2021-08-16T08:39:58Z</time>
      </trkpt>
      <trkpt lat="44.92313" lon="2.30853">
        <ele>618.75</ele>
        <time>2021-08-16T08:40:06Z</time>
      </trkpt>
      <trkpt lat="44.92306" lon="2.30838">
        <ele>617.3</ele>
        <time>2021-08-16T08:40:09Z</time>
      </trkpt>
      <trkpt lat="44.92299" lon="2.30822">
        <ele>616.82</ele>
        <time>2021-08-16T08:40:12Z</time>
      </trkpt>
      <trkpt lat="44.92293" lon="2.30812">
        <ele>616.34</ele>
        <time>2021-08-16T08:40:14Z</time>
      </trkpt>
      <trkpt lat="44.92276" lon="2.30788">
        <ele>615.38</ele>
        <time>2021-08-16T08:40:20Z</time>
      </trkpt>
      <trkpt lat="44.92255" lon="2.30769">
        <ele>613.94</ele>
        <time>2021-08-16T08:40:27Z</time>
      </trkpt>
      <trkpt lat="44.92253" lon="2.30767">
        <ele>613.94</ele>
        <time>2021-08-16T08:40:28Z</time>
      </trkpt>
      <trkpt lat="44.92252" lon="2.30767">
        <ele>613.94</ele>
        <time>2021-08-16T08:40:29Z</time>
      </trkpt>
      <trkpt lat="44.92251" lon="2.30769">
        <ele>613.94</ele>
        <time>2021-08-16T08:40:30Z</time>
      </trkpt>
      <trkpt lat="44.92251" lon="2.3077">
        <ele>613.94</ele>
        <time>2021-08-16T08:40:31Z</time>
      </trkpt>
      <trkpt lat="44.92253" lon="2.30771">
        <ele>613.94</ele>
        <time>2021-08-16T08:40:32Z</time>
      </trkpt>
      <trkpt lat="44.92255" lon="2.30772">
        <ele>613.94</ele>
        <time>2021-08-16T08:40:33Z</time>
      </trkpt>
      <trkpt lat="44.92257" lon="2.30773">
        <ele>613.94</ele>
        <time>2021-08-16T08:40:34Z</time>
      </trkpt>
      <trkpt lat="44.92273" lon="2.30781">
        <ele>615.38</ele>
        <time>2021-08-16T08:40:40Z</time>
      </trkpt>
      <trkpt lat="44.92276" lon="2.3078">
        <ele>615.38</ele>
        <time>2021-08-16T08:40:41Z</time>
      </trkpt>
      <trkpt lat="44.92278" lon="2.30777">
        <ele>615.38</ele>
        <time>2021-08-16T08:40:42Z</time>
      </trkpt>
      <trkpt lat="44.9228" lon="2.30772">
        <ele>615.38</ele>
        <time>2021-08-16T08:40:43Z</time>
      </trkpt>
      <trkpt lat="44.9228" lon="2.30768">
        <ele>615.38</ele>
        <time>2021-08-16T08:40:44Z</time>
      </trkpt>
      <trkpt lat="44.9228" lon="2.30762">
        <ele>615.38</ele>
        <time>2021-08-16T08:40:45Z</time>
      </trkpt>
      <trkpt lat="44.9228" lon="2.30755">
        <ele>613.94</ele>
        <time>2021-08-16T08:40:46Z</time>
      </trkpt>
      <trkpt lat="44.9228" lon="2.30747">
        <ele>613.46</ele>
        <time>2021-08-16T08:40:47Z</time>
      </trkpt>
      <trkpt lat="44.9228" lon="2.30731">
        <ele>612.5</ele>
        <time>2021-08-16T08:40:49Z</time>
      </trkpt>
      <trkpt lat="44.92282" lon="2.30714">
        <ele>611.54</ele>
        <time>2021-08-16T08:40:51Z</time>
      </trkpt>
      <trkpt lat="44.92284" lon="2.30706">
        <ele>611.54</ele>
        <time>2021-08-16T08:40:52Z</time>
      </trkpt>
      <trkpt lat="44.92287" lon="2.30697">
        <ele>611.06</ele>
        <time>2021-08-16T08:40:53Z</time>
      </trkpt>
      <trkpt lat="44.9229" lon="2.3069">
        <ele>611.06</ele>
        <time>2021-08-16T08:40:54Z</time>
      </trkpt>
      <trkpt lat="44.92294" lon="2.30683">
        <ele>610.57</ele>
        <time>2021-08-16T08:40:55Z</time>
      </trkpt>
      <trkpt lat="44.92335" lon="2.306">
        <ele>610.09</ele>
        <time>2021-08-16T08:41:06Z</time>
      </trkpt>
      <trkpt lat="44.92363" lon="2.30527">
        <ele>608.17</ele>
        <time>2021-08-16T08:41:15Z</time>
      </trkpt>
      <trkpt lat="44.92385" lon="2.30447">
        <ele>606.73</ele>
        <time>2021-08-16T08:41:24Z</time>
      </trkpt>
      <trkpt lat="44.92406" lon="2.30353">
        <ele>604.33</ele>
        <time>2021-08-16T08:41:34Z</time>
      </trkpt>
      <trkpt lat="44.92412" lon="2.30325">
        <ele>603.85</ele>
        <time>2021-08-16T08:41:37Z</time>
      </trkpt>
      <trkpt lat="44.92415" lon="2.30316">
        <ele>603.85</ele>
        <time>2021-08-16T08:41:38Z</time>
      </trkpt>
      <trkpt lat="44.92423" lon="2.30292">
        <ele>603.36</ele>
        <time>2021-08-16T08:41:41Z</time>
      </trkpt>
      <trkpt lat="44.92423" lon="2.30287">
        <ele>603.36</ele>
        <time>2021-08-16T08:41:42Z</time>
      </trkpt>
      <trkpt lat="44.92422" lon="2.3028">
        <ele>603.36</ele>
        <time>2021-08-16T08:41:43Z</time>
      </trkpt>
      <trkpt lat="44.92419" lon="2.30274">
        <ele>602.4</ele>
        <time>2021-08-16T08:41:44Z</time>
      </trkpt>
      <trkpt lat="44.92415" lon="2.30271">
        <ele>601.92</ele>
        <time>2021-08-16T08:41:45Z</time>
      </trkpt>
      <trkpt lat="44.9241" lon="2.30268">
        <ele>601.92</ele>
        <time>2021-08-16T08:41:46Z</time>
      </trkpt>
      <trkpt lat="44.92405" lon="2.30265">
        <ele>601.92</ele>
        <time>2021-08-16T08:41:47Z</time>
      </trkpt>
      <trkpt lat="44.92363" lon="2.30239">
        <ele>600.96</ele>
        <time>2021-08-16T08:41:54Z</time>
      </trkpt>
      <trkpt lat="44.92311" lon="2.3021">
        <ele>600</ele>
        <time>2021-08-16T08:42:02Z</time>
      </trkpt>
      <trkpt lat="44.92238" lon="2.30184">
        <ele>598.08</ele>
        <time>2021-08-16T08:42:12Z</time>
      </trkpt>
      <trkpt lat="44.92173" lon="2.3017">
        <ele>596.64</ele>
        <time>2021-08-16T08:42:21Z</time>
      </trkpt>
      <trkpt lat="44.92136" lon="2.30157">
        <ele>596.64</ele>
        <time>2021-08-16T08:42:27Z</time>
      </trkpt>
      <trkpt lat="44.92076" lon="2.3012">
        <ele>596.15</ele>
        <time>2021-08-16T08:42:38Z</time>
      </trkpt>
      <trkpt lat="44.92035" lon="2.30102">
        <ele>597.6</ele>
        <time>2021-08-16T08:42:46Z</time>
      </trkpt>
      <trkpt lat="44.92033" lon="2.301">
        <ele>597.6</ele>
        <time>2021-08-16T08:42:47Z</time>
      </trkpt>
      <trkpt lat="44.92033" lon="2.30097">
        <ele>597.6</ele>
        <time>2021-08-16T08:42:48Z</time>
      </trkpt>
      <trkpt lat="44.92034" lon="2.30094">
        <ele>597.6</ele>
        <time>2021-08-16T08:42:49Z</time>
      </trkpt>
      <trkpt lat="44.92034" lon="2.30092">
        <ele>598.08</ele>
        <time>2021-08-16T08:42:50Z</time>
      </trkpt>
      <trkpt lat="44.92033" lon="2.3009">
        <ele>598.08</ele>
        <time>2021-08-16T08:42:51Z</time>
      </trkpt>
      <trkpt lat="44.92032" lon="2.30087">
        <ele>598.08</ele>
        <time>2021-08-16T08:42:52Z</time>
      </trkpt>
      <trkpt lat="44.92032" lon="2.30084">
        <ele>598.08</ele>
        <time>2021-08-16T08:42:53Z</time>
      </trkpt>
      <trkpt lat="44.92032" lon="2.30079">
        <ele>598.08</ele>
        <time>2021-08-16T08:42:54Z</time>
      </trkpt>
      <trkpt lat="44.92032" lon="2.30074">
        <ele>598.08</ele>
        <time>2021-08-16T08:42:55Z</time>
      </trkpt>
      <trkpt lat="44.92039" lon="2.3004">
        <ele>598.08</ele>
        <time>2021-08-16T08:43:01Z</time>
      </trkpt>
      <trkpt lat="44.92047" lon="2.30012">
        <ele>596.15</ele>
        <time>2021-08-16T08:43:05Z</time>
      </trkpt>
      <trkpt lat="44.9205" lon="2.30007">
        <ele>595.67</ele>
        <time>2021-08-16T08:43:06Z</time>
      </trkpt>
      <trkpt lat="44.92059" lon="2.29988">
        <ele>595.67</ele>
        <time>2021-08-16T08:43:09Z</time>
      </trkpt>
      <trkpt lat="44.92073" lon="2.2995">
        <ele>592.31</ele>
        <time>2021-08-16T08:43:14Z</time>
      </trkpt>
      <trkpt lat="44.92078" lon="2.29942">
        <ele>591.35</ele>
        <time>2021-08-16T08:43:15Z</time>
      </trkpt>
      <trkpt lat="44.92083" lon="2.29938">
        <ele>590.87</ele>
        <time>2021-08-16T08:43:16Z</time>
      </trkpt>
      <trkpt lat="44.92092" lon="2.29936">
        <ele>590.39</ele>
        <time>2021-08-16T08:43:17Z</time>
      </trkpt>
      <trkpt lat="44.92098" lon="2.29935">
        <ele>589.43</ele>
        <time>2021-08-16T08:43:18Z</time>
      </trkpt>
      <trkpt lat="44.92122" lon="2.29928">
        <ele>587.98</ele>
        <time>2021-08-16T08:43:21Z</time>
      </trkpt>
      <trkpt lat="44.9213" lon="2.29924">
        <ele>587.5</ele>
        <time>2021-08-16T08:43:22Z</time>
      </trkpt>
      <trkpt lat="44.92158" lon="2.29907">
        <ele>586.54</ele>
        <time>2021-08-16T08:43:26Z</time>
      </trkpt>
      <trkpt lat="44.92182" lon="2.29892">
        <ele>586.54</ele>
        <time>2021-08-16T08:43:30Z</time>
      </trkpt>
      <trkpt lat="44.92187" lon="2.29892">
        <ele>586.06</ele>
        <time>2021-08-16T08:43:31Z</time>
      </trkpt>
      <trkpt lat="44.92193" lon="2.29894">
        <ele>585.58</ele>
        <time>2021-08-16T08:43:32Z</time>
      </trkpt>
      <trkpt lat="44.92234" lon="2.29911">
        <ele>586.06</ele>
        <time>2021-08-16T08:43:39Z</time>
      </trkpt>
      <trkpt lat="44.92267" lon="2.29926">
        <ele>586.06</ele>
        <time>2021-08-16T08:43:45Z</time>
      </trkpt>
      <trkpt lat="44.92272" lon="2.29925">
        <ele>586.06</ele>
        <time>2021-08-16T08:43:46Z</time>
      </trkpt>
      <trkpt lat="44.92278" lon="2.29923">
        <ele>585.58</ele>
        <time>2021-08-16T08:43:47Z</time>
      </trkpt>
      <trkpt lat="44.92282" lon="2.29919">
        <ele>585.58</ele>
        <time>2021-08-16T08:43:48Z</time>
      </trkpt>
      <trkpt lat="44.92287" lon="2.29913">
        <ele>584.62</ele>
        <time>2021-08-16T08:43:49Z</time>
      </trkpt>
      <trkpt lat="44.9229" lon="2.29905">
        <ele>584.62</ele>
        <time>2021-08-16T08:43:50Z</time>
      </trkpt>
      <trkpt lat="44.92293" lon="2.29897">
        <ele>583.66</ele>
        <time>2021-08-16T08:43:51Z</time>
      </trkpt>
      <trkpt lat="44.92295" lon="2.29887">
        <ele>583.18</ele>
        <time>2021-08-16T08:43:52Z</time>
      </trkpt>
      <trkpt lat="44.92302" lon="2.29855">
        <ele>580.29</ele>
        <time>2021-08-16T08:43:55Z</time>
      </trkpt>
      <trkpt lat="44.9231" lon="2.29819">
        <ele>576.45</ele>
        <time>2021-08-16T08:43:58Z</time>
      </trkpt>
      <trkpt lat="44.92314" lon="2.29808">
        <ele>575.49</ele>
        <time>2021-08-16T08:43:59Z</time>
      </trkpt>
      <trkpt lat="44.92319" lon="2.29797">
        <ele>574.53</ele>
        <time>2021-08-16T08:44:00Z</time>
      </trkpt>
      <trkpt lat="44.92324" lon="2.29787">
        <ele>574.53</ele>
        <time>2021-08-16T08:44:01Z</time>
      </trkpt>
      <trkpt lat="44.92327" lon="2.29777">
        <ele>574.53</ele>
        <time>2021-08-16T08:44:02Z</time>
      </trkpt>
      <trkpt lat="44.92329" lon="2.29764">
        <ele>574.53</ele>
        <time>2021-08-16T08:44:03Z</time>
      </trkpt>
      <trkpt lat="44.92329" lon="2.29755">
        <ele>574.53</ele>
        <time>2021-08-16T08:44:04Z</time>
      </trkpt>
      <trkpt lat="44.9233" lon="2.29706">
        <ele>576.45</ele>
        <time>2021-08-16T08:44:10Z</time>
      </trkpt>
      <trkpt lat="44.92331" lon="2.29699">
        <ele>576.93</ele>
        <time>2021-08-16T08:44:11Z</time>
      </trkpt>
      <trkpt lat="44.92335" lon="2.29681">
        <ele>577.41</ele>
        <time>2021-08-16T08:44:14Z</time>
      </trkpt>
      <trkpt lat="44.9234" lon="2.29664">
        <ele>577.89</ele>
        <time>2021-08-16T08:44:17Z</time>
      </trkpt>
      <trkpt lat="44.92349" lon="2.29644">
        <ele>578.37</ele>
        <time>2021-08-16T08:44:21Z</time>
      </trkpt>
      <trkpt lat="44.92353" lon="2.29638">
        <ele>578.37</ele>
        <time>2021-08-16T08:44:22Z</time>
      </trkpt>
      <trkpt lat="44.92355" lon="2.29634">
        <ele>578.37</ele>
        <time>2021-08-16T08:44:23Z</time>
      </trkpt>
      <trkpt lat="44.92382" lon="2.29582">
        <ele>578.37</ele>
        <time>2021-08-16T08:44:32Z</time>
      </trkpt>
      <trkpt lat="44.92386" lon="2.29568">
        <ele>578.37</ele>
        <time>2021-08-16T08:44:34Z</time>
      </trkpt>
      <trkpt lat="44.92397" lon="2.29508">
        <ele>578.85</ele>
        <time>2021-08-16T08:44:43Z</time>
      </trkpt>
      <trkpt lat="44.92398" lon="2.29502">
        <ele>578.85</ele>
        <time>2021-08-16T08:44:44Z</time>
      </trkpt>
      <trkpt lat="44.924" lon="2.29496">
        <ele>578.85</ele>
        <time>2021-08-16T08:44:45Z</time>
      </trkpt>
      <trkpt lat="44.92402" lon="2.29491">
        <ele>578.85</ele>
        <time>2021-08-16T08:44:46Z</time>
      </trkpt>
      <trkpt lat="44.92404" lon="2.29487">
        <ele>579.33</ele>
        <time>2021-08-16T08:44:47Z</time>
      </trkpt>
      <trkpt lat="44.92407" lon="2.29483">
        <ele>578.85</ele>
        <time>2021-08-16T08:44:48Z</time>
      </trkpt>
      <trkpt lat="44.92411" lon="2.29475">
        <ele>579.33</ele>
        <time>2021-08-16T08:44:50Z</time>
      </trkpt>
      <trkpt lat="44.92414" lon="2.2947">
        <ele>579.81</ele>
        <time>2021-08-16T08:44:51Z</time>
      </trkpt>
      <trkpt lat="44.92431" lon="2.29449">
        <ele>580.77</ele>
        <time>2021-08-16T08:44:58Z</time>
      </trkpt>
      <trkpt lat="44.9245" lon="2.29425">
        <ele>579.81</ele>
        <time>2021-08-16T08:45:04Z</time>
      </trkpt>
      <trkpt lat="44.92465" lon="2.29405">
        <ele>579.33</ele>
        <time>2021-08-16T08:45:08Z</time>
      </trkpt>
      <trkpt lat="44.92468" lon="2.294">
        <ele>578.85</ele>
        <time>2021-08-16T08:45:09Z</time>
      </trkpt>
      <trkpt lat="44.92487" lon="2.29358">
        <ele>575.97</ele>
        <time>2021-08-16T08:45:15Z</time>
      </trkpt>
      <trkpt lat="44.92502" lon="2.29332">
        <ele>575.97</ele>
        <time>2021-08-16T08:45:19Z</time>
      </trkpt>
      <trkpt lat="44.92506" lon="2.29327">
        <ele>575.97</ele>
        <time>2021-08-16T08:45:20Z</time>
      </trkpt>
      <trkpt lat="44.92514" lon="2.29318">
        <ele>575.97</ele>
        <time>2021-08-16T08:45:22Z</time>
      </trkpt>
      <trkpt lat="44.92523" lon="2.29311">
        <ele>575.97</ele>
        <time>2021-08-16T08:45:24Z</time>
      </trkpt>
      <trkpt lat="44.92544" lon="2.29293">
        <ele>577.89</ele>
        <time>2021-08-16T08:45:30Z</time>
      </trkpt>
      <trkpt lat="44.92566" lon="2.29273">
        <ele>577.89</ele>
        <time>2021-08-16T08:45:37Z</time>
      </trkpt>
      <trkpt lat="44.92581" lon="2.29261">
        <ele>577.89</ele>
        <time>2021-08-16T08:45:42Z</time>
      </trkpt>
      <trkpt lat="44.92591" lon="2.29241">
        <ele>578.37</ele>
        <time>2021-08-16T08:45:47Z</time>
      </trkpt>
      <trkpt lat="44.92601" lon="2.29198">
        <ele>576.93</ele>
        <time>2021-08-16T08:45:54Z</time>
      </trkpt>
      <trkpt lat="44.92602" lon="2.2919">
        <ele>576.93</ele>
        <time>2021-08-16T08:45:55Z</time>
      </trkpt>
      <trkpt lat="44.92604" lon="2.29161">
        <ele>576.45</ele>
        <time>2021-08-16T08:45:59Z</time>
      </trkpt>
      <trkpt lat="44.92603" lon="2.29139">
        <ele>576.45</ele>
        <time>2021-08-16T08:46:02Z</time>
      </trkpt>
      <trkpt lat="44.92598" lon="2.291">
        <ele>577.89</ele>
        <time>2021-08-16T08:46:08Z</time>
      </trkpt>
      <trkpt lat="44.92597" lon="2.29095">
        <ele>577.89</ele>
        <time>2021-08-16T08:46:09Z</time>
      </trkpt>
      <trkpt lat="44.92596" lon="2.29088">
        <ele>577.89</ele>
        <time>2021-08-16T08:46:10Z</time>
      </trkpt>
      <trkpt lat="44.92595" lon="2.29082">
        <ele>577.89</ele>
        <time>2021-08-16T08:46:11Z</time>
      </trkpt>
      <trkpt lat="44.92594" lon="2.29076">
        <ele>577.89</ele>
        <time>2021-08-16T08:46:12Z</time>
      </trkpt>
      <trkpt lat="44.92594" lon="2.29069">
        <ele>577.89</ele>
        <time>2021-08-16T08:46:13Z</time>
      </trkpt>
      <trkpt lat="44.92591" lon="2.29017">
        <ele>577.89</ele>
        <time>2021-08-16T08:46:21Z</time>
      </trkpt>
      <trkpt lat="44.92589" lon="2.28964">
        <ele>580.29</ele>
        <time>2021-08-16T08:46:30Z</time>
      </trkpt>
      <trkpt lat="44.92585" lon="2.28924">
        <ele>581.25</ele>
        <time>2021-08-16T08:46:37Z</time>
      </trkpt>
      <trkpt lat="44.92575" lon="2.28891">
        <ele>581.73</ele>
        <time>2021-08-16T08:46:44Z</time>
      </trkpt>
      <trkpt lat="44.92568" lon="2.28861">
        <ele>582.7</ele>
        <time>2021-08-16T08:46:51Z</time>
      </trkpt>
      <trkpt lat="44.92564" lon="2.28828">
        <ele>583.18</ele>
        <time>2021-08-16T08:46:58Z</time>
      </trkpt>
      <trkpt lat="44.9256" lon="2.28787">
        <ele>584.62</ele>
        <time>2021-08-16T08:47:08Z</time>
      </trkpt>
      <trkpt lat="44.92559" lon="2.28749">
        <ele>587.02</ele>
        <time>2021-08-16T08:47:18Z</time>
      </trkpt>
      <trkpt lat="44.92555" lon="2.2871">
        <ele>587.98</ele>
        <time>2021-08-16T08:47:28Z</time>
      </trkpt>
      <trkpt lat="44.92556" lon="2.28664">
        <ele>587.98</ele>
        <time>2021-08-16T08:47:37Z</time>
      </trkpt>
      <trkpt lat="44.92568" lon="2.28613">
        <ele>587.98</ele>
        <time>2021-08-16T08:47:45Z</time>
      </trkpt>
      <trkpt lat="44.92585" lon="2.28562">
        <ele>587.98</ele>
        <time>2021-08-16T08:47:53Z</time>
      </trkpt>
      <trkpt lat="44.92608" lon="2.28496">
        <ele>586.54</ele>
        <time>2021-08-16T08:48:02Z</time>
      </trkpt>
      <trkpt lat="44.92633" lon="2.28423">
        <ele>585.1</ele>
        <time>2021-08-16T08:48:12Z</time>
      </trkpt>
      <trkpt lat="44.92654" lon="2.28355">
        <ele>584.14</ele>
        <time>2021-08-16T08:48:21Z</time>
      </trkpt>
      <trkpt lat="44.9268" lon="2.28279">
        <ele>582.22</ele>
        <time>2021-08-16T08:48:30Z</time>
      </trkpt>
      <trkpt lat="44.92686" lon="2.28269">
        <ele>582.22</ele>
        <time>2021-08-16T08:48:31Z</time>
      </trkpt>
      <trkpt lat="44.92692" lon="2.2826">
        <ele>581.73</ele>
        <time>2021-08-16T08:48:33Z</time>
      </trkpt>
      <trkpt lat="44.92701" lon="2.28251">
        <ele>582.7</ele>
        <time>2021-08-16T08:48:35Z</time>
      </trkpt>
      <trkpt lat="44.92705" lon="2.28247">
        <ele>582.7</ele>
        <time>2021-08-16T08:48:36Z</time>
      </trkpt>
      <trkpt lat="44.9271" lon="2.28244">
        <ele>582.7</ele>
        <time>2021-08-16T08:48:37Z</time>
      </trkpt>
      <trkpt lat="44.92715" lon="2.2824">
        <ele>582.7</ele>
        <time>2021-08-16T08:48:38Z</time>
      </trkpt>
      <trkpt lat="44.92719" lon="2.28236">
        <ele>582.7</ele>
        <time>2021-08-16T08:48:39Z</time>
      </trkpt>
      <trkpt lat="44.9276" lon="2.28183">
        <ele>581.25</ele>
        <time>2021-08-16T08:48:49Z</time>
      </trkpt>
      <trkpt lat="44.92764" lon="2.28176">
        <ele>581.25</ele>
        <time>2021-08-16T08:48:50Z</time>
      </trkpt>
      <trkpt lat="44.92767" lon="2.28166">
        <ele>580.77</ele>
        <time>2021-08-16T08:48:51Z</time>
      </trkpt>
      <trkpt lat="44.92768" lon="2.28157">
        <ele>580.77</ele>
        <time>2021-08-16T08:48:52Z</time>
      </trkpt>
      <trkpt lat="44.92769" lon="2.2815">
        <ele>579.81</ele>
        <time>2021-08-16T08:48:53Z</time>
      </trkpt>
      <trkpt lat="44.9277" lon="2.28138">
        <ele>579.33</ele>
        <time>2021-08-16T08:48:54Z</time>
      </trkpt>
      <trkpt lat="44.9277" lon="2.28086">
        <ele>576.93</ele>
        <time>2021-08-16T08:48:59Z</time>
      </trkpt>
      <trkpt lat="44.92767" lon="2.2805">
        <ele>575.49</ele>
        <time>2021-08-16T08:49:02Z</time>
      </trkpt>
      <trkpt lat="44.92763" lon="2.27971">
        <ele>572.12</ele>
        <time>2021-08-16T08:49:08Z</time>
      </trkpt>
      <trkpt lat="44.92765" lon="2.27959">
        <ele>572.12</ele>
        <time>2021-08-16T08:49:09Z</time>
      </trkpt>
      <trkpt lat="44.92767" lon="2.27948">
        <ele>571.64</ele>
        <time>2021-08-16T08:49:10Z</time>
      </trkpt>
      <trkpt lat="44.9277" lon="2.27936">
        <ele>571.16</ele>
        <time>2021-08-16T08:49:11Z</time>
      </trkpt>
      <trkpt lat="44.92775" lon="2.27924">
        <ele>571.16</ele>
        <time>2021-08-16T08:49:12Z</time>
      </trkpt>
      <trkpt lat="44.92778" lon="2.27914">
        <ele>571.16</ele>
        <time>2021-08-16T08:49:13Z</time>
      </trkpt>
      <trkpt lat="44.92801" lon="2.27851">
        <ele>572.6</ele>
        <time>2021-08-16T08:49:20Z</time>
      </trkpt>
      <trkpt lat="44.92813" lon="2.27815">
        <ele>575.01</ele>
        <time>2021-08-16T08:49:26Z</time>
      </trkpt>
      <trkpt lat="44.92823" lon="2.27785">
        <ele>576.45</ele>
        <time>2021-08-16T08:49:33Z</time>
      </trkpt>
      <trkpt lat="44.92834" lon="2.27754">
        <ele>577.89</ele>
        <time>2021-08-16T08:49:41Z</time>
      </trkpt>
      <trkpt lat="44.92841" lon="2.27729">
        <ele>578.85</ele>
        <time>2021-08-16T08:49:48Z</time>
      </trkpt>
      <trkpt lat="44.92848" lon="2.2771">
        <ele>579.33</ele>
        <time>2021-08-16T08:49:54Z</time>
      </trkpt>
      <trkpt lat="44.92863" lon="2.2768">
        <ele>581.25</ele>
        <time>2021-08-16T08:50:05Z</time>
      </trkpt>
      <trkpt lat="44.9288" lon="2.27654">
        <ele>581.73</ele>
        <time>2021-08-16T08:50:15Z</time>
      </trkpt>
      <trkpt lat="44.92897" lon="2.27635">
        <ele>582.7</ele>
        <time>2021-08-16T08:50:23Z</time>
      </trkpt>
      <trkpt lat="44.92915" lon="2.27616">
        <ele>583.18</ele>
        <time>2021-08-16T08:50:31Z</time>
      </trkpt>
      <trkpt lat="44.92934" lon="2.27595">
        <ele>584.62</ele>
        <time>2021-08-16T08:50:40Z</time>
      </trkpt>
      <trkpt lat="44.9295" lon="2.27575">
        <ele>586.06</ele>
        <time>2021-08-16T08:50:48Z</time>
      </trkpt>
      <trkpt lat="44.92967" lon="2.27551">
        <ele>587.02</ele>
        <time>2021-08-16T08:50:57Z</time>
      </trkpt>
      <trkpt lat="44.92983" lon="2.27526">
        <ele>587.98</ele>
        <time>2021-08-16T08:51:06Z</time>
      </trkpt>
      <trkpt lat="44.92998" lon="2.27502">
        <ele>588.95</ele>
        <time>2021-08-16T08:51:14Z</time>
      </trkpt>
      <trkpt lat="44.93016" lon="2.27472">
        <ele>589.43</ele>
        <time>2021-08-16T08:51:23Z</time>
      </trkpt>
      <trkpt lat="44.93034" lon="2.27437">
        <ele>590.39</ele>
        <time>2021-08-16T08:51:33Z</time>
      </trkpt>
      <trkpt lat="44.93046" lon="2.27412">
        <ele>590.39</ele>
        <time>2021-08-16T08:51:40Z</time>
      </trkpt>
      <trkpt lat="44.93055" lon="2.27388">
        <ele>590.87</ele>
        <time>2021-08-16T08:51:46Z</time>
      </trkpt>
      <trkpt lat="44.93068" lon="2.27348">
        <ele>591.35</ele>
        <time>2021-08-16T08:51:55Z</time>
      </trkpt>
      <trkpt lat="44.93087" lon="2.27313">
        <ele>592.31</ele>
        <time>2021-08-16T08:52:05Z</time>
      </trkpt>
      <trkpt lat="44.93109" lon="2.27292">
        <ele>593.27</ele>
        <time>2021-08-16T08:52:14Z</time>
      </trkpt>
      <trkpt lat="44.93127" lon="2.27285">
        <ele>594.23</ele>
        <time>2021-08-16T08:52:20Z</time>
      </trkpt>
      <trkpt lat="44.93146" lon="2.27272">
        <ele>594.71</ele>
        <time>2021-08-16T08:52:27Z</time>
      </trkpt>
      <trkpt lat="44.93164" lon="2.27243">
        <ele>595.19</ele>
        <time>2021-08-16T08:52:36Z</time>
      </trkpt>
      <trkpt lat="44.93182" lon="2.27205">
        <ele>597.12</ele>
        <time>2021-08-16T08:52:47Z</time>
      </trkpt>
      <trkpt lat="44.93199" lon="2.27184">
        <ele>598.56</ele>
        <time>2021-08-16T08:52:56Z</time>
      </trkpt>
      <trkpt lat="44.93215" lon="2.2716">
        <ele>599.04</ele>
        <time>2021-08-16T08:53:04Z</time>
      </trkpt>
      <trkpt lat="44.93226" lon="2.2712">
        <ele>599.04</ele>
        <time>2021-08-16T08:53:12Z</time>
      </trkpt>
      <trkpt lat="44.93229" lon="2.27101">
        <ele>599.04</ele>
        <time>2021-08-16T08:53:15Z</time>
      </trkpt>
      <trkpt lat="44.93237" lon="2.27052">
        <ele>597.6</ele>
        <time>2021-08-16T08:53:22Z</time>
      </trkpt>
      <trkpt lat="44.93249" lon="2.26997">
        <ele>597.12</ele>
        <time>2021-08-16T08:53:30Z</time>
      </trkpt>
      <trkpt lat="44.93259" lon="2.26949">
        <ele>596.64</ele>
        <time>2021-08-16T08:53:38Z</time>
      </trkpt>
      <trkpt lat="44.9326" lon="2.26943">
        <ele>596.64</ele>
        <time>2021-08-16T08:53:39Z</time>
      </trkpt>
      <trkpt lat="44.9326" lon="2.26937">
        <ele>596.64</ele>
        <time>2021-08-16T08:53:40Z</time>
      </trkpt>
      <trkpt lat="44.9326" lon="2.26931">
        <ele>596.64</ele>
        <time>2021-08-16T08:53:41Z</time>
      </trkpt>
      <trkpt lat="44.93259" lon="2.26925">
        <ele>596.64</ele>
        <time>2021-08-16T08:53:42Z</time>
      </trkpt>
      <trkpt lat="44.93258" lon="2.26919">
        <ele>596.64</ele>
        <time>2021-08-16T08:53:43Z</time>
      </trkpt>
      <trkpt lat="44.93257" lon="2.26913">
        <ele>596.64</ele>
        <time>2021-08-16T08:53:44Z</time>
      </trkpt>
      <trkpt lat="44.93255" lon="2.26907">
        <ele>596.64</ele>
        <time>2021-08-16T08:53:45Z</time>
      </trkpt>
      <trkpt lat="44.93253" lon="2.26902">
        <ele>596.64</ele>
        <time>2021-08-16T08:53:46Z</time>
      </trkpt>
      <trkpt lat="44.93251" lon="2.26898">
        <ele>596.64</ele>
        <time>2021-08-16T08:53:47Z</time>
      </trkpt>
      <trkpt lat="44.93244" lon="2.26885">
        <ele>598.08</ele>
        <time>2021-08-16T08:53:50Z</time>
      </trkpt>
      <trkpt lat="44.93223" lon="2.26836">
        <ele>599.04</ele>
        <time>2021-08-16T08:54:01Z</time>
      </trkpt>
      <trkpt lat="44.9321" lon="2.26791">
        <ele>600</ele>
        <time>2021-08-16T08:54:10Z</time>
      </trkpt>
      <trkpt lat="44.93213" lon="2.26762">
        <ele>600</ele>
        <time>2021-08-16T08:54:15Z</time>
      </trkpt>
      <trkpt lat="44.93216" lon="2.2675">
        <ele>600</ele>
        <time>2021-08-16T08:54:17Z</time>
      </trkpt>
      <trkpt lat="44.93226" lon="2.26727">
        <ele>598.56</ele>
        <time>2021-08-16T08:54:21Z</time>
      </trkpt>
      <trkpt lat="44.93229" lon="2.26721">
        <ele>598.56</ele>
        <time>2021-08-16T08:54:22Z</time>
      </trkpt>
      <trkpt lat="44.93239" lon="2.26697">
        <ele>598.08</ele>
        <time>2021-08-16T08:54:26Z</time>
      </trkpt>
      <trkpt lat="44.93241" lon="2.2669">
        <ele>597.6</ele>
        <time>2021-08-16T08:54:27Z</time>
      </trkpt>
      <trkpt lat="44.93251" lon="2.26622">
        <ele>595.67</ele>
        <time>2021-08-16T08:54:35Z</time>
      </trkpt>
      <trkpt lat="44.93245" lon="2.26547">
        <ele>593.75</ele>
        <time>2021-08-16T08:54:43Z</time>
      </trkpt>
      <trkpt lat="44.93244" lon="2.26525">
        <ele>591.83</ele>
        <time>2021-08-16T08:54:45Z</time>
      </trkpt>
      <trkpt lat="44.93244" lon="2.26513">
        <ele>591.83</ele>
        <time>2021-08-16T08:54:46Z</time>
      </trkpt>
      <trkpt lat="44.93249" lon="2.26465">
        <ele>588.95</ele>
        <time>2021-08-16T08:54:50Z</time>
      </trkpt>
      <trkpt lat="44.93261" lon="2.264">
        <ele>586.06</ele>
        <time>2021-08-16T08:54:55Z</time>
      </trkpt>
      <trkpt lat="44.9327" lon="2.26343">
        <ele>582.7</ele>
        <time>2021-08-16T08:54:59Z</time>
      </trkpt>
      <trkpt lat="44.93281" lon="2.2628">
        <ele>578.37</ele>
        <time>2021-08-16T08:55:03Z</time>
      </trkpt>
      <trkpt lat="44.93301" lon="2.26198">
        <ele>575.01</ele>
        <time>2021-08-16T08:55:08Z</time>
      </trkpt>
      <trkpt lat="44.93324" lon="2.26124">
        <ele>571.64</ele>
        <time>2021-08-16T08:55:13Z</time>
      </trkpt>
      <trkpt lat="44.93349" lon="2.26032">
        <ele>567.8</ele>
        <time>2021-08-16T08:55:19Z</time>
      </trkpt>
      <trkpt lat="44.93364" lon="2.25956">
        <ele>566.35</ele>
        <time>2021-08-16T08:55:24Z</time>
      </trkpt>
      <trkpt lat="44.93368" lon="2.25873">
        <ele>564.91</ele>
        <time>2021-08-16T08:55:30Z</time>
      </trkpt>
      <trkpt lat="44.93363" lon="2.25794">
        <ele>565.87</ele>
        <time>2021-08-16T08:55:37Z</time>
      </trkpt>
      <trkpt lat="44.93365" lon="2.2571">
        <ele>564.43</ele>
        <time>2021-08-16T08:55:45Z</time>
      </trkpt>
      <trkpt lat="44.93374" lon="2.25643">
        <ele>562.99</ele>
        <time>2021-08-16T08:55:52Z</time>
      </trkpt>
      <trkpt lat="44.93385" lon="2.25576">
        <ele>561.07</ele>
        <time>2021-08-16T08:56:00Z</time>
      </trkpt>
      <trkpt lat="44.93385" lon="2.25571">
        <ele>561.55</ele>
        <time>2021-08-16T08:56:04Z</time>
      </trkpt>
      <trkpt lat="44.93382" lon="2.25564">
        <ele>560.59</ele>
        <time>2021-08-16T08:56:13Z</time>
      </trkpt>
      <trkpt lat="44.93381" lon="2.25562">
        <ele>560.59</ele>
        <time>2021-08-16T08:56:14Z</time>
      </trkpt>
      <trkpt lat="44.93378" lon="2.2556">
        <ele>560.59</ele>
        <time>2021-08-16T08:56:15Z</time>
      </trkpt>
      <trkpt lat="44.93375" lon="2.25559">
        <ele>560.59</ele>
        <time>2021-08-16T08:56:16Z</time>
      </trkpt>
      <trkpt lat="44.93372" lon="2.25557">
        <ele>560.59</ele>
        <time>2021-08-16T08:56:17Z</time>
      </trkpt>
      <trkpt lat="44.93368" lon="2.25555">
        <ele>560.59</ele>
        <time>2021-08-16T08:56:18Z</time>
      </trkpt>
      <trkpt lat="44.93341" lon="2.25538">
        <ele>560.59</ele>
        <time>2021-08-16T08:56:25Z</time>
      </trkpt>
      <trkpt lat="44.93337" lon="2.25533">
        <ele>560.59</ele>
        <time>2021-08-16T08:56:26Z</time>
      </trkpt>
      <trkpt lat="44.93336" lon="2.2553">
        <ele>560.59</ele>
        <time>2021-08-16T08:56:27Z</time>
      </trkpt>
      <trkpt lat="44.93333" lon="2.25529">
        <ele>560.59</ele>
        <time>2021-08-16T08:56:28Z</time>
      </trkpt>
      <trkpt lat="44.93332" lon="2.25531">
        <ele>560.59</ele>
        <time>2021-08-16T08:56:29Z</time>
      </trkpt>
      <trkpt lat="44.93332" lon="2.25535">
        <ele>560.59</ele>
        <time>2021-08-16T08:56:30Z</time>
      </trkpt>
      <trkpt lat="44.93334" lon="2.25539">
        <ele>560.59</ele>
        <time>2021-08-16T08:56:31Z</time>
      </trkpt>
      <trkpt lat="44.93337" lon="2.25542">
        <ele>560.59</ele>
        <time>2021-08-16T08:56:32Z</time>
      </trkpt>
      <trkpt lat="44.9334" lon="2.25544">
        <ele>560.59</ele>
        <time>2021-08-16T08:56:33Z</time>
      </trkpt>
      <trkpt lat="44.93343" lon="2.25546">
        <ele>560.59</ele>
        <time>2021-08-16T08:56:34Z</time>
      </trkpt>
      <trkpt lat="44.93347" lon="2.25546">
        <ele>560.59</ele>
        <time>2021-08-16T08:56:35Z</time>
      </trkpt>
      <trkpt lat="44.93352" lon="2.25545">
        <ele>560.59</ele>
        <time>2021-08-16T08:56:36Z</time>
      </trkpt>
      <trkpt lat="44.93356" lon="2.25542">
        <ele>560.59</ele>
        <time>2021-08-16T08:56:37Z</time>
      </trkpt>
      <trkpt lat="44.93358" lon="2.25538">
        <ele>560.59</ele>
        <time>2021-08-16T08:56:38Z</time>
      </trkpt>
      <trkpt lat="44.93369" lon="2.25516">
        <ele>562.51</ele>
        <time>2021-08-16T08:56:44Z</time>
      </trkpt>
      <trkpt lat="44.93384" lon="2.25473">
        <ele>563.47</ele>
        <time>2021-08-16T08:56:54Z</time>
      </trkpt>
      <trkpt lat="44.93397" lon="2.25442">
        <ele>563.95</ele>
        <time>2021-08-16T08:57:02Z</time>
      </trkpt>
      <trkpt lat="44.93411" lon="2.25413">
        <ele>563.95</ele>
        <time>2021-08-16T08:57:09Z</time>
      </trkpt>
      <trkpt lat="44.93436" lon="2.2537">
        <ele>562.51</ele>
        <time>2021-08-16T08:57:18Z</time>
      </trkpt>
      <trkpt lat="44.93438" lon="2.25365">
        <ele>562.51</ele>
        <time>2021-08-16T08:57:19Z</time>
      </trkpt>
      <trkpt lat="44.93441" lon="2.25361">
        <ele>562.51</ele>
        <time>2021-08-16T08:57:20Z</time>
      </trkpt>
      <trkpt lat="44.93444" lon="2.25357">
        <ele>562.51</ele>
        <time>2021-08-16T08:57:21Z</time>
      </trkpt>
      <trkpt lat="44.93447" lon="2.25352">
        <ele>562.51</ele>
        <time>2021-08-16T08:57:22Z</time>
      </trkpt>
      <trkpt lat="44.93475" lon="2.25315">
        <ele>560.59</ele>
        <time>2021-08-16T08:57:30Z</time>
      </trkpt>
      <trkpt lat="44.9351" lon="2.25277">
        <ele>558.18</ele>
        <time>2021-08-16T08:57:37Z</time>
      </trkpt>
      <trkpt lat="44.9354" lon="2.2525">
        <ele>555.3</ele>
        <time>2021-08-16T08:57:42Z</time>
      </trkpt>
      <trkpt lat="44.93582" lon="2.25203">
        <ele>552.41</ele>
        <time>2021-08-16T08:57:49Z</time>
      </trkpt>
      <trkpt lat="44.93588" lon="2.25193">
        <ele>551.93</ele>
        <time>2021-08-16T08:57:50Z</time>
      </trkpt>
      <trkpt lat="44.93597" lon="2.25173">
        <ele>550.01</ele>
        <time>2021-08-16T08:57:52Z</time>
      </trkpt>
      <trkpt lat="44.93602" lon="2.25163">
        <ele>550.01</ele>
        <time>2021-08-16T08:57:53Z</time>
      </trkpt>
      <trkpt lat="44.93623" lon="2.25129">
        <ele>549.53</ele>
        <time>2021-08-16T08:57:57Z</time>
      </trkpt>
      <trkpt lat="44.93628" lon="2.25123">
        <ele>549.53</ele>
        <time>2021-08-16T08:57:58Z</time>
      </trkpt>
      <trkpt lat="44.93633" lon="2.25119">
        <ele>549.53</ele>
        <time>2021-08-16T08:57:59Z</time>
      </trkpt>
      <trkpt lat="44.9364" lon="2.25113">
        <ele>550.97</ele>
        <time>2021-08-16T08:58:01Z</time>
      </trkpt>
      <trkpt lat="44.93651" lon="2.25102">
        <ele>552.41</ele>
        <time>2021-08-16T08:58:07Z</time>
      </trkpt>
      <trkpt lat="44.93665" lon="2.25086">
        <ele>552.9</ele>
        <time>2021-08-16T08:58:15Z</time>
      </trkpt>
      <trkpt lat="44.93683" lon="2.25069">
        <ele>553.86</ele>
        <time>2021-08-16T08:58:23Z</time>
      </trkpt>
      <trkpt lat="44.93698" lon="2.25052">
        <ele>554.82</ele>
        <time>2021-08-16T08:58:30Z</time>
      </trkpt>
      <trkpt lat="44.93709" lon="2.25033">
        <ele>555.78</ele>
        <time>2021-08-16T08:58:38Z</time>
      </trkpt>
      <trkpt lat="44.9372" lon="2.25014">
        <ele>557.22</ele>
        <time>2021-08-16T08:58:46Z</time>
      </trkpt>
      <trkpt lat="44.93729" lon="2.25003">
        <ele>557.22</ele>
        <time>2021-08-16T08:58:52Z</time>
      </trkpt>
      <trkpt lat="44.9374" lon="2.2499">
        <ele>558.66</ele>
        <time>2021-08-16T08:59:00Z</time>
      </trkpt>
      <trkpt lat="44.9375" lon="2.24978">
        <ele>559.14</ele>
        <time>2021-08-16T08:59:07Z</time>
      </trkpt>
      <trkpt lat="44.9376" lon="2.24967">
        <ele>559.62</ele>
        <time>2021-08-16T08:59:14Z</time>
      </trkpt>
      <trkpt lat="44.9377" lon="2.24955">
        <ele>560.59</ele>
        <time>2021-08-16T08:59:21Z</time>
      </trkpt>
      <trkpt lat="44.93771" lon="2.24953">
        <ele>560.59</ele>
        <time>2021-08-16T08:59:22Z</time>
      </trkpt>
      <trkpt lat="44.93772" lon="2.24952">
        <ele>560.59</ele>
        <time>2021-08-16T08:59:23Z</time>
      </trkpt>
      <trkpt lat="44.93781" lon="2.2494">
        <ele>561.07</ele>
        <time>2021-08-16T08:59:29Z</time>
      </trkpt>
      <trkpt lat="44.93788" lon="2.24917">
        <ele>562.03</ele>
        <time>2021-08-16T08:59:37Z</time>
      </trkpt>
      <trkpt lat="44.93791" lon="2.24902">
        <ele>563.47</ele>
        <time>2021-08-16T08:59:44Z</time>
      </trkpt>
      <trkpt lat="44.93796" lon="2.24882">
        <ele>564.43</ele>
        <time>2021-08-16T08:59:51Z</time>
      </trkpt>
      <trkpt lat="44.93801" lon="2.24855">
        <ele>564.43</ele>
        <time>2021-08-16T08:59:59Z</time>
      </trkpt>
      <trkpt lat="44.93793" lon="2.24822">
        <ele>565.87</ele>
        <time>2021-08-16T09:00:09Z</time>
      </trkpt>
      <trkpt lat="44.93787" lon="2.24805">
        <ele>566.83</ele>
        <time>2021-08-16T09:00:16Z</time>
      </trkpt>
      <trkpt lat="44.93781" lon="2.24787">
        <ele>568.28</ele>
        <time>2021-08-16T09:00:23Z</time>
      </trkpt>
      <trkpt lat="44.93775" lon="2.24773">
        <ele>569.24</ele>
        <time>2021-08-16T09:00:29Z</time>
      </trkpt>
      <trkpt lat="44.93769" lon="2.24757">
        <ele>570.2</ele>
        <time>2021-08-16T09:00:35Z</time>
      </trkpt>
      <trkpt lat="44.93758" lon="2.24744">
        <ele>571.16</ele>
        <time>2021-08-16T09:00:43Z</time>
      </trkpt>
      <trkpt lat="44.93752" lon="2.24739">
        <ele>572.6</ele>
        <time>2021-08-16T09:00:47Z</time>
      </trkpt>
      <trkpt lat="44.93751" lon="2.24739">
        <ele>572.6</ele>
        <time>2021-08-16T09:00:48Z</time>
      </trkpt>
      <trkpt lat="44.9375" lon="2.24738">
        <ele>572.6</ele>
        <time>2021-08-16T09:00:49Z</time>
      </trkpt>
      <trkpt lat="44.93748" lon="2.24738">
        <ele>572.6</ele>
        <time>2021-08-16T09:00:50Z</time>
      </trkpt>
      <trkpt lat="44.93747" lon="2.24737">
        <ele>573.08</ele>
        <time>2021-08-16T09:00:51Z</time>
      </trkpt>
      <trkpt lat="44.93746" lon="2.24736">
        <ele>573.08</ele>
        <time>2021-08-16T09:00:52Z</time>
      </trkpt>
      <trkpt lat="44.93744" lon="2.24735">
        <ele>573.08</ele>
        <time>2021-08-16T09:00:53Z</time>
      </trkpt>
      <trkpt lat="44.93742" lon="2.24733">
        <ele>573.56</ele>
        <time>2021-08-16T09:00:54Z</time>
      </trkpt>
      <trkpt lat="44.93741" lon="2.24731">
        <ele>574.04</ele>
        <time>2021-08-16T09:00:55Z</time>
      </trkpt>
      <trkpt lat="44.9374" lon="2.24729">
        <ele>574.04</ele>
        <time>2021-08-16T09:00:56Z</time>
      </trkpt>
      <trkpt lat="44.9374" lon="2.24726">
        <ele>574.04</ele>
        <time>2021-08-16T09:00:57Z</time>
      </trkpt>
      <trkpt lat="44.93739" lon="2.24724">
        <ele>574.04</ele>
        <time>2021-08-16T09:00:58Z</time>
      </trkpt>
      <trkpt lat="44.93739" lon="2.24722">
        <ele>574.04</ele>
        <time>2021-08-16T09:00:59Z</time>
      </trkpt>
      <trkpt lat="44.9374" lon="2.24719">
        <ele>574.04</ele>
        <time>2021-08-16T09:01:00Z</time>
      </trkpt>
      <trkpt lat="44.93739" lon="2.24717">
        <ele>574.53</ele>
        <time>2021-08-16T09:01:01Z</time>
      </trkpt>
      <trkpt lat="44.93739" lon="2.24715">
        <ele>574.53</ele>
        <time>2021-08-16T09:01:02Z</time>
      </trkpt>
      <trkpt lat="44.93739" lon="2.24712">
        <ele>574.53</ele>
        <time>2021-08-16T09:01:03Z</time>
      </trkpt>
      <trkpt lat="44.93739" lon="2.2471">
        <ele>574.53</ele>
        <time>2021-08-16T09:01:04Z</time>
      </trkpt>
      <trkpt lat="44.93738" lon="2.24688">
        <ele>575.01</ele>
        <time>2021-08-16T09:01:11Z</time>
      </trkpt>
      <trkpt lat="44.93739" lon="2.24658">
        <ele>575.49</ele>
        <time>2021-08-16T09:01:20Z</time>
      </trkpt>
      <trkpt lat="44.93735" lon="2.24641">
        <ele>576.93</ele>
        <time>2021-08-16T09:01:27Z</time>
      </trkpt>
      <trkpt lat="44.93722" lon="2.2463">
        <ele>577.89</ele>
        <time>2021-08-16T09:01:34Z</time>
      </trkpt>
      <trkpt lat="44.93706" lon="2.24621">
        <ele>577.89</ele>
        <time>2021-08-16T09:01:42Z</time>
      </trkpt>
      <trkpt lat="44.93699" lon="2.24606">
        <ele>579.33</ele>
        <time>2021-08-16T09:01:48Z</time>
      </trkpt>
      <trkpt lat="44.93699" lon="2.24604">
        <ele>579.33</ele>
        <time>2021-08-16T09:01:49Z</time>
      </trkpt>
      <trkpt lat="44.937" lon="2.24602">
        <ele>579.33</ele>
        <time>2021-08-16T09:01:50Z</time>
      </trkpt>
      <trkpt lat="44.93701" lon="2.24601">
        <ele>579.33</ele>
        <time>2021-08-16T09:01:51Z</time>
      </trkpt>
      <trkpt lat="44.93703" lon="2.24599">
        <ele>579.33</ele>
        <time>2021-08-16T09:01:52Z</time>
      </trkpt>
      <trkpt lat="44.93718" lon="2.24593">
        <ele>580.29</ele>
        <time>2021-08-16T09:01:59Z</time>
      </trkpt>
      <trkpt lat="44.93738" lon="2.24586">
        <ele>581.25</ele>
        <time>2021-08-16T09:02:06Z</time>
      </trkpt>
      <trkpt lat="44.93765" lon="2.24576">
        <ele>581.25</ele>
        <time>2021-08-16T09:02:15Z</time>
      </trkpt>
      <trkpt lat="44.93782" lon="2.24563">
        <ele>582.22</ele>
        <time>2021-08-16T09:02:22Z</time>
      </trkpt>
      <trkpt lat="44.93785" lon="2.24557">
        <ele>582.7</ele>
        <time>2021-08-16T09:02:25Z</time>
      </trkpt>
      <trkpt lat="44.93786" lon="2.24556">
        <ele>582.7</ele>
        <time>2021-08-16T09:02:26Z</time>
      </trkpt>
      <trkpt lat="44.93789" lon="2.2455">
        <ele>583.18</ele>
        <time>2021-08-16T09:02:29Z</time>
      </trkpt>
      <trkpt lat="44.93796" lon="2.24523">
        <ele>584.62</ele>
        <time>2021-08-16T09:02:39Z</time>
      </trkpt>
      <trkpt lat="44.93807" lon="2.24498">
        <ele>585.58</ele>
        <time>2021-08-16T09:02:50Z</time>
      </trkpt>
      <trkpt lat="44.93811" lon="2.2448">
        <ele>587.02</ele>
        <time>2021-08-16T09:02:58Z</time>
      </trkpt>
      <trkpt lat="44.93808" lon="2.24471">
        <ele>588.46</ele>
        <time>2021-08-16T09:03:04Z</time>
      </trkpt>
      <trkpt lat="44.93802" lon="2.24458">
        <ele>589.43</ele>
        <time>2021-08-16T09:03:12Z</time>
      </trkpt>
      <trkpt lat="44.93793" lon="2.24443">
        <ele>591.35</ele>
        <time>2021-08-16T09:03:22Z</time>
      </trkpt>
      <trkpt lat="44.93785" lon="2.24428">
        <ele>593.27</ele>
        <time>2021-08-16T09:03:32Z</time>
      </trkpt>
      <trkpt lat="44.93776" lon="2.2441">
        <ele>594.71</ele>
        <time>2021-08-16T09:03:42Z</time>
      </trkpt>
      <trkpt lat="44.93766" lon="2.24393">
        <ele>595.19</ele>
        <time>2021-08-16T09:03:51Z</time>
      </trkpt>
      <trkpt lat="44.93754" lon="2.24371">
        <ele>596.15</ele>
        <time>2021-08-16T09:04:00Z</time>
      </trkpt>
      <trkpt lat="44.93742" lon="2.24351">
        <ele>597.12</ele>
        <time>2021-08-16T09:04:09Z</time>
      </trkpt>
      <trkpt lat="44.93737" lon="2.2434">
        <ele>597.6</ele>
        <time>2021-08-16T09:04:14Z</time>
      </trkpt>
      <trkpt lat="44.93737" lon="2.24338">
        <ele>598.08</ele>
        <time>2021-08-16T09:04:15Z</time>
      </trkpt>
      <trkpt lat="44.93738" lon="2.24337">
        <ele>598.08</ele>
        <time>2021-08-16T09:04:16Z</time>
      </trkpt>
      <trkpt lat="44.9374" lon="2.24337">
        <ele>598.08</ele>
        <time>2021-08-16T09:04:17Z</time>
      </trkpt>
      <trkpt lat="44.93742" lon="2.24336">
        <ele>598.08</ele>
        <time>2021-08-16T09:04:18Z</time>
      </trkpt>
      <trkpt lat="44.93744" lon="2.24337">
        <ele>598.08</ele>
        <time>2021-08-16T09:04:19Z</time>
      </trkpt>
      <trkpt lat="44.93747" lon="2.24336">
        <ele>598.08</ele>
        <time>2021-08-16T09:04:20Z</time>
      </trkpt>
      <trkpt lat="44.9375" lon="2.24336">
        <ele>598.08</ele>
        <time>2021-08-16T09:04:21Z</time>
      </trkpt>
      <trkpt lat="44.93754" lon="2.24337">
        <ele>598.08</ele>
        <time>2021-08-16T09:04:22Z</time>
      </trkpt>
      <trkpt lat="44.93773" lon="2.24339">
        <ele>595.67</ele>
        <time>2021-08-16T09:04:26Z</time>
      </trkpt>
      <trkpt lat="44.93823" lon="2.24339">
        <ele>594.71</ele>
        <time>2021-08-16T09:04:35Z</time>
      </trkpt>
      <trkpt lat="44.93831" lon="2.24336">
        <ele>594.71</ele>
        <time>2021-08-16T09:04:37Z</time>
      </trkpt>
      <trkpt lat="44.93869" lon="2.24329">
        <ele>594.71</ele>
        <time>2021-08-16T09:04:46Z</time>
      </trkpt>
      <trkpt lat="44.9389" lon="2.24326">
        <ele>595.67</ele>
        <time>2021-08-16T09:04:51Z</time>
      </trkpt>
      <trkpt lat="44.93926" lon="2.2432">
        <ele>596.15</ele>
        <time>2021-08-16T09:05:00Z</time>
      </trkpt>
      <trkpt lat="44.93962" lon="2.24312">
        <ele>596.64</ele>
        <time>2021-08-16T09:05:10Z</time>
      </trkpt>
      <trkpt lat="44.93986" lon="2.24313">
        <ele>597.12</ele>
        <time>2021-08-16T09:05:17Z</time>
      </trkpt>
      <trkpt lat="44.93999" lon="2.24332">
        <ele>595.19</ele>
        <time>2021-08-16T09:05:21Z</time>
      </trkpt>
      <trkpt lat="44.94003" lon="2.24338">
        <ele>594.23</ele>
        <time>2021-08-16T09:05:22Z</time>
      </trkpt>
      <trkpt lat="44.94008" lon="2.24342">
        <ele>593.75</ele>
        <time>2021-08-16T09:05:23Z</time>
      </trkpt>
      <trkpt lat="44.94013" lon="2.24345">
        <ele>593.27</ele>
        <time>2021-08-16T09:05:24Z</time>
      </trkpt>
      <trkpt lat="44.94031" lon="2.24349">
        <ele>592.79</ele>
        <time>2021-08-16T09:05:29Z</time>
      </trkpt>
      <trkpt lat="44.94056" lon="2.24333">
        <ele>594.23</ele>
        <time>2021-08-16T09:05:37Z</time>
      </trkpt>
      <trkpt lat="44.94084" lon="2.24317">
        <ele>594.71</ele>
        <time>2021-08-16T09:05:45Z</time>
      </trkpt>
      <trkpt lat="44.94126" lon="2.24291">
        <ele>594.71</ele>
        <time>2021-08-16T09:05:56Z</time>
      </trkpt>
      <trkpt lat="44.94159" lon="2.24271">
        <ele>593.27</ele>
        <time>2021-08-16T09:06:03Z</time>
      </trkpt>
      <trkpt lat="44.94209" lon="2.24237">
        <ele>590.87</ele>
        <time>2021-08-16T09:06:12Z</time>
      </trkpt>
      <trkpt lat="44.94247" lon="2.24189">
        <ele>588.46</ele>
        <time>2021-08-16T09:06:20Z</time>
      </trkpt>
      <trkpt lat="44.94261" lon="2.24169">
        <ele>588.46</ele>
        <time>2021-08-16T09:06:23Z</time>
      </trkpt>
      <trkpt lat="44.94295" lon="2.24118">
        <ele>587.02</ele>
        <time>2021-08-16T09:06:31Z</time>
      </trkpt>
      <trkpt lat="44.94343" lon="2.24038">
        <ele>585.1</ele>
        <time>2021-08-16T09:06:42Z</time>
      </trkpt>
      <trkpt lat="44.94403" lon="2.23943">
        <ele>582.7</ele>
        <time>2021-08-16T09:06:55Z</time>
      </trkpt>
      <trkpt lat="44.94442" lon="2.23872">
        <ele>580.77</ele>
        <time>2021-08-16T09:07:04Z</time>
      </trkpt>
      <trkpt lat="44.94461" lon="2.23838">
        <ele>580.29</ele>
        <time>2021-08-16T09:07:09Z</time>
      </trkpt>
      <trkpt lat="44.94466" lon="2.23832">
        <ele>580.29</ele>
        <time>2021-08-16T09:07:10Z</time>
      </trkpt>
      <trkpt lat="44.94472" lon="2.23826">
        <ele>580.29</ele>
        <time>2021-08-16T09:07:11Z</time>
      </trkpt>
      <trkpt lat="44.94475" lon="2.23823">
        <ele>580.29</ele>
        <time>2021-08-16T09:07:12Z</time>
      </trkpt>
      <trkpt lat="44.9448" lon="2.23818">
        <ele>580.29</ele>
        <time>2021-08-16T09:07:13Z</time>
      </trkpt>
      <trkpt lat="44.94513" lon="2.23785">
        <ele>580.29</ele>
        <time>2021-08-16T09:07:21Z</time>
      </trkpt>
      <trkpt lat="44.94543" lon="2.23755">
        <ele>580.77</ele>
        <time>2021-08-16T09:07:29Z</time>
      </trkpt>
      <trkpt lat="44.94577" lon="2.23719">
        <ele>580.77</ele>
        <time>2021-08-16T09:07:39Z</time>
      </trkpt>
      <trkpt lat="44.94598" lon="2.23696">
        <ele>581.73</ele>
        <time>2021-08-16T09:07:46Z</time>
      </trkpt>
      <trkpt lat="44.94619" lon="2.23674">
        <ele>582.7</ele>
        <time>2021-08-16T09:07:54Z</time>
      </trkpt>
      <trkpt lat="44.94635" lon="2.23655">
        <ele>583.66</ele>
        <time>2021-08-16T09:08:01Z</time>
      </trkpt>
      <trkpt lat="44.94651" lon="2.23626">
        <ele>583.66</ele>
        <time>2021-08-16T09:08:08Z</time>
      </trkpt>
      <trkpt lat="44.94653" lon="2.2362">
        <ele>583.66</ele>
        <time>2021-08-16T09:08:09Z</time>
      </trkpt>
      <trkpt lat="44.94655" lon="2.23614">
        <ele>583.66</ele>
        <time>2021-08-16T09:08:10Z</time>
      </trkpt>
      <trkpt lat="44.94658" lon="2.236">
        <ele>582.22</ele>
        <time>2021-08-16T09:08:12Z</time>
      </trkpt>
      <trkpt lat="44.94659" lon="2.23593">
        <ele>581.25</ele>
        <time>2021-08-16T09:08:13Z</time>
      </trkpt>
      <trkpt lat="44.94661" lon="2.23541">
        <ele>580.29</ele>
        <time>2021-08-16T09:08:20Z</time>
      </trkpt>
      <trkpt lat="44.94662" lon="2.23536">
        <ele>580.29</ele>
        <time>2021-08-16T09:08:21Z</time>
      </trkpt>
      <trkpt lat="44.94664" lon="2.23529">
        <ele>580.29</ele>
        <time>2021-08-16T09:08:22Z</time>
      </trkpt>
      <trkpt lat="44.94672" lon="2.23497">
        <ele>580.29</ele>
        <time>2021-08-16T09:08:28Z</time>
      </trkpt>
      <trkpt lat="44.9468" lon="2.23475">
        <ele>580.29</ele>
        <time>2021-08-16T09:08:32Z</time>
      </trkpt>
      <trkpt lat="44.94683" lon="2.23469">
        <ele>580.29</ele>
        <time>2021-08-16T09:08:33Z</time>
      </trkpt>
      <trkpt lat="44.94699" lon="2.2344">
        <ele>580.29</ele>
        <time>2021-08-16T09:08:39Z</time>
      </trkpt>
      <trkpt lat="44.94703" lon="2.23435">
        <ele>580.29</ele>
        <time>2021-08-16T09:08:40Z</time>
      </trkpt>
      <trkpt lat="44.94706" lon="2.23431">
        <ele>580.29</ele>
        <time>2021-08-16T09:08:41Z</time>
      </trkpt>
      <trkpt lat="44.94709" lon="2.23427">
        <ele>580.29</ele>
        <time>2021-08-16T09:08:42Z</time>
      </trkpt>
      <trkpt lat="44.94711" lon="2.23422">
        <ele>580.29</ele>
        <time>2021-08-16T09:08:43Z</time>
      </trkpt>
      <trkpt lat="44.94714" lon="2.23417">
        <ele>580.29</ele>
        <time>2021-08-16T09:08:44Z</time>
      </trkpt>
      <trkpt lat="44.94719" lon="2.23408">
        <ele>580.29</ele>
        <time>2021-08-16T09:08:46Z</time>
      </trkpt>
      <trkpt lat="44.94721" lon="2.23403">
        <ele>580.29</ele>
        <time>2021-08-16T09:08:47Z</time>
      </trkpt>
      <trkpt lat="44.94724" lon="2.23398">
        <ele>580.29</ele>
        <time>2021-08-16T09:08:48Z</time>
      </trkpt>
      <trkpt lat="44.94727" lon="2.23394">
        <ele>581.25</ele>
        <time>2021-08-16T09:08:49Z</time>
      </trkpt>
      <trkpt lat="44.9473" lon="2.23389">
        <ele>581.25</ele>
        <time>2021-08-16T09:08:50Z</time>
      </trkpt>
      <trkpt lat="44.94733" lon="2.23386">
        <ele>581.25</ele>
        <time>2021-08-16T09:08:51Z</time>
      </trkpt>
      <trkpt lat="44.94761" lon="2.23354">
        <ele>581.73</ele>
        <time>2021-08-16T09:09:01Z</time>
      </trkpt>
      <trkpt lat="44.9479" lon="2.23322">
        <ele>580.29</ele>
        <time>2021-08-16T09:09:10Z</time>
      </trkpt>
      <trkpt lat="44.94793" lon="2.23318">
        <ele>580.29</ele>
        <time>2021-08-16T09:09:11Z</time>
      </trkpt>
      <trkpt lat="44.94796" lon="2.23314">
        <ele>580.29</ele>
        <time>2021-08-16T09:09:12Z</time>
      </trkpt>
      <trkpt lat="44.94826" lon="2.23277">
        <ele>579.33</ele>
        <time>2021-08-16T09:09:20Z</time>
      </trkpt>
      <trkpt lat="44.94839" lon="2.23265">
        <ele>577.89</ele>
        <time>2021-08-16T09:09:23Z</time>
      </trkpt>
      <trkpt lat="44.9488" lon="2.23231">
        <ele>575.49</ele>
        <time>2021-08-16T09:09:32Z</time>
      </trkpt>
      <trkpt lat="44.94908" lon="2.23193">
        <ele>574.53</ele>
        <time>2021-08-16T09:09:39Z</time>
      </trkpt>
      <trkpt lat="44.94912" lon="2.23187">
        <ele>574.53</ele>
        <time>2021-08-16T09:09:40Z</time>
      </trkpt>
      <trkpt lat="44.94916" lon="2.23182">
        <ele>574.53</ele>
        <time>2021-08-16T09:09:41Z</time>
      </trkpt>
      <trkpt lat="44.94936" lon="2.23141">
        <ele>574.53</ele>
        <time>2021-08-16T09:09:48Z</time>
      </trkpt>
      <trkpt lat="44.94943" lon="2.23131">
        <ele>575.01</ele>
        <time>2021-08-16T09:09:50Z</time>
      </trkpt>
      <trkpt lat="44.94946" lon="2.23127">
        <ele>575.01</ele>
        <time>2021-08-16T09:09:51Z</time>
      </trkpt>
      <trkpt lat="44.9495" lon="2.23124">
        <ele>575.01</ele>
        <time>2021-08-16T09:09:52Z</time>
      </trkpt>
      <trkpt lat="44.94953" lon="2.23121">
        <ele>575.01</ele>
        <time>2021-08-16T09:09:53Z</time>
      </trkpt>
      <trkpt lat="44.94957" lon="2.23118">
        <ele>575.97</ele>
        <time>2021-08-16T09:09:54Z</time>
      </trkpt>
      <trkpt lat="44.94984" lon="2.23101">
        <ele>577.41</ele>
        <time>2021-08-16T09:10:02Z</time>
      </trkpt>
      <trkpt lat="44.95004" lon="2.23084">
        <ele>577.89</ele>
        <time>2021-08-16T09:10:09Z</time>
      </trkpt>
      <trkpt lat="44.9503" lon="2.23057">
        <ele>577.41</ele>
        <time>2021-08-16T09:10:17Z</time>
      </trkpt>
      <trkpt lat="44.95034" lon="2.23053">
        <ele>577.41</ele>
        <time>2021-08-16T09:10:18Z</time>
      </trkpt>
      <trkpt lat="44.9504" lon="2.23044">
        <ele>576.45</ele>
        <time>2021-08-16T09:10:20Z</time>
      </trkpt>
      <trkpt lat="44.95051" lon="2.23022">
        <ele>575.49</ele>
        <time>2021-08-16T09:10:24Z</time>
      </trkpt>
      <trkpt lat="44.95053" lon="2.23015">
        <ele>575.49</ele>
        <time>2021-08-16T09:10:25Z</time>
      </trkpt>
      <trkpt lat="44.95054" lon="2.23007">
        <ele>574.53</ele>
        <time>2021-08-16T09:10:26Z</time>
      </trkpt>
      <trkpt lat="44.95055" lon="2.22998">
        <ele>573.56</ele>
        <time>2021-08-16T09:10:27Z</time>
      </trkpt>
      <trkpt lat="44.95054" lon="2.22989">
        <ele>573.08</ele>
        <time>2021-08-16T09:10:28Z</time>
      </trkpt>
      <trkpt lat="44.95053" lon="2.2298">
        <ele>573.08</ele>
        <time>2021-08-16T09:10:29Z</time>
      </trkpt>
      <trkpt lat="44.95052" lon="2.22971">
        <ele>572.6</ele>
        <time>2021-08-16T09:10:30Z</time>
      </trkpt>
      <trkpt lat="44.95049" lon="2.22943">
        <ele>571.16</ele>
        <time>2021-08-16T09:10:33Z</time>
      </trkpt>
      <trkpt lat="44.95049" lon="2.22933">
        <ele>571.16</ele>
        <time>2021-08-16T09:10:34Z</time>
      </trkpt>
      <trkpt lat="44.9505" lon="2.22923">
        <ele>570.2</ele>
        <time>2021-08-16T09:10:35Z</time>
      </trkpt>
      <trkpt lat="44.95052" lon="2.22914">
        <ele>569.24</ele>
        <time>2021-08-16T09:10:36Z</time>
      </trkpt>
      <trkpt lat="44.95055" lon="2.22905">
        <ele>569.24</ele>
        <time>2021-08-16T09:10:37Z</time>
      </trkpt>
      <trkpt lat="44.95059" lon="2.22897">
        <ele>569.24</ele>
        <time>2021-08-16T09:10:38Z</time>
      </trkpt>
      <trkpt lat="44.95064" lon="2.2289">
        <ele>568.28</ele>
        <time>2021-08-16T09:10:39Z</time>
      </trkpt>
      <trkpt lat="44.95071" lon="2.22884">
        <ele>567.8</ele>
        <time>2021-08-16T09:10:40Z</time>
      </trkpt>
      <trkpt lat="44.95078" lon="2.22879">
        <ele>566.83</ele>
        <time>2021-08-16T09:10:41Z</time>
      </trkpt>
      <trkpt lat="44.95098" lon="2.22863">
        <ele>563.95</ele>
        <time>2021-08-16T09:10:44Z</time>
      </trkpt>
      <trkpt lat="44.95103" lon="2.22855">
        <ele>563.95</ele>
        <time>2021-08-16T09:10:45Z</time>
      </trkpt>
      <trkpt lat="44.95107" lon="2.22847">
        <ele>563.95</ele>
        <time>2021-08-16T09:10:46Z</time>
      </trkpt>
      <trkpt lat="44.9511" lon="2.22837">
        <ele>562.99</ele>
        <time>2021-08-16T09:10:47Z</time>
      </trkpt>
      <trkpt lat="44.95112" lon="2.22826">
        <ele>562.03</ele>
        <time>2021-08-16T09:10:48Z</time>
      </trkpt>
      <trkpt lat="44.95113" lon="2.22816">
        <ele>562.03</ele>
        <time>2021-08-16T09:10:49Z</time>
      </trkpt>
      <trkpt lat="44.95114" lon="2.22805">
        <ele>561.55</ele>
        <time>2021-08-16T09:10:50Z</time>
      </trkpt>
      <trkpt lat="44.95114" lon="2.22794">
        <ele>561.07</ele>
        <time>2021-08-16T09:10:51Z</time>
      </trkpt>
      <trkpt lat="44.95113" lon="2.22784">
        <ele>561.07</ele>
        <time>2021-08-16T09:10:52Z</time>
      </trkpt>
      <trkpt lat="44.95112" lon="2.22773">
        <ele>560.11</ele>
        <time>2021-08-16T09:10:53Z</time>
      </trkpt>
      <trkpt lat="44.9511" lon="2.22762">
        <ele>560.11</ele>
        <time>2021-08-16T09:10:54Z</time>
      </trkpt>
      <trkpt lat="44.95107" lon="2.22753">
        <ele>559.62</ele>
        <time>2021-08-16T09:10:55Z</time>
      </trkpt>
      <trkpt lat="44.95103" lon="2.22743">
        <ele>559.62</ele>
        <time>2021-08-16T09:10:56Z</time>
      </trkpt>
      <trkpt lat="44.95099" lon="2.22735">
        <ele>559.62</ele>
        <time>2021-08-16T09:10:57Z</time>
      </trkpt>
      <trkpt lat="44.95093" lon="2.22726">
        <ele>559.14</ele>
        <time>2021-08-16T09:10:58Z</time>
      </trkpt>
      <trkpt lat="44.95088" lon="2.22718">
        <ele>558.66</ele>
        <time>2021-08-16T09:10:59Z</time>
      </trkpt>
      <trkpt lat="44.95044" lon="2.2265">
        <ele>556.26</ele>
        <time>2021-08-16T09:11:08Z</time>
      </trkpt>
      <trkpt lat="44.95009" lon="2.22602">
        <ele>554.34</ele>
        <time>2021-08-16T09:11:14Z</time>
      </trkpt>
      <trkpt lat="44.95003" lon="2.22596">
        <ele>553.86</ele>
        <time>2021-08-16T09:11:15Z</time>
      </trkpt>
      <trkpt lat="44.94988" lon="2.22584">
        <ele>552.9</ele>
        <time>2021-08-16T09:11:17Z</time>
      </trkpt>
      <trkpt lat="44.9498" lon="2.22581">
        <ele>552.41</ele>
        <time>2021-08-16T09:11:18Z</time>
      </trkpt>
      <trkpt lat="44.94972" lon="2.22579">
        <ele>552.41</ele>
        <time>2021-08-16T09:11:19Z</time>
      </trkpt>
      <trkpt lat="44.94964" lon="2.2258">
        <ele>551.93</ele>
        <time>2021-08-16T09:11:20Z</time>
      </trkpt>
      <trkpt lat="44.94955" lon="2.22582">
        <ele>551.45</ele>
        <time>2021-08-16T09:11:21Z</time>
      </trkpt>
      <trkpt lat="44.94948" lon="2.22584">
        <ele>551.45</ele>
        <time>2021-08-16T09:11:22Z</time>
      </trkpt>
      <trkpt lat="44.9494" lon="2.22584">
        <ele>550.97</ele>
        <time>2021-08-16T09:11:23Z</time>
      </trkpt>
      <trkpt lat="44.94932" lon="2.22583">
        <ele>550.97</ele>
        <time>2021-08-16T09:11:24Z</time>
      </trkpt>
      <trkpt lat="44.94925" lon="2.22579">
        <ele>550.97</ele>
        <time>2021-08-16T09:11:25Z</time>
      </trkpt>
      <trkpt lat="44.94919" lon="2.22574">
        <ele>550.97</ele>
        <time>2021-08-16T09:11:26Z</time>
      </trkpt>
      <trkpt lat="44.94915" lon="2.22567">
        <ele>550.97</ele>
        <time>2021-08-16T09:11:27Z</time>
      </trkpt>
      <trkpt lat="44.94911" lon="2.22559">
        <ele>550.97</ele>
        <time>2021-08-16T09:11:28Z</time>
      </trkpt>
      <trkpt lat="44.94909" lon="2.22552">
        <ele>550.97</ele>
        <time>2021-08-16T09:11:29Z</time>
      </trkpt>
      <trkpt lat="44.94902" lon="2.22535">
        <ele>550.97</ele>
        <time>2021-08-16T09:11:32Z</time>
      </trkpt>
      <trkpt lat="44.94899" lon="2.2253">
        <ele>550.97</ele>
        <time>2021-08-16T09:11:33Z</time>
      </trkpt>
      <trkpt lat="44.94895" lon="2.22527">
        <ele>550.97</ele>
        <time>2021-08-16T09:11:34Z</time>
      </trkpt>
      <trkpt lat="44.94876" lon="2.22512">
        <ele>550.97</ele>
        <time>2021-08-16T09:11:40Z</time>
      </trkpt>
      <trkpt lat="44.94873" lon="2.22513">
        <ele>550.97</ele>
        <time>2021-08-16T09:11:41Z</time>
      </trkpt>
      <trkpt lat="44.9487" lon="2.22519">
        <ele>552.9</ele>
        <time>2021-08-16T09:11:43Z</time>
      </trkpt>
      <trkpt lat="44.94871" lon="2.22522">
        <ele>552.9</ele>
        <time>2021-08-16T09:11:44Z</time>
      </trkpt>
      <trkpt lat="44.94872" lon="2.22524">
        <ele>552.9</ele>
        <time>2021-08-16T09:11:45Z</time>
      </trkpt>
      <trkpt lat="44.94873" lon="2.22526">
        <ele>552.9</ele>
        <time>2021-08-16T09:11:46Z</time>
      </trkpt>
      <trkpt lat="44.94876" lon="2.2253">
        <ele>553.38</ele>
        <time>2021-08-16T09:11:53Z</time>
      </trkpt>
      <trkpt lat="44.94877" lon="2.22531">
        <ele>553.86</ele>
        <time>2021-08-16T09:12:07Z</time>
      </trkpt>
      <trkpt lat="44.94877" lon="2.22532">
        <ele>553.86</ele>
        <time>2021-08-16T09:12:28Z</time>
      </trkpt>
      <trkpt lat="44.94877" lon="2.22533">
        <ele>553.86</ele>
        <time>2021-08-16T09:12:47Z</time>
      </trkpt>
      <trkpt lat="44.94878" lon="2.22534">
        <ele>553.86</ele>
        <time>2021-08-16T09:13:05Z</time>
      </trkpt>
      <trkpt lat="44.94877" lon="2.22534">
        <ele>553.86</ele>
        <time>2021-08-16T09:13:22Z</time>
      </trkpt>
      <trkpt lat="44.94876" lon="2.22533">
        <ele>553.86</ele>
        <time>2021-08-16T09:13:37Z</time>
      </trkpt>
      <trkpt lat="44.94876" lon="2.22533">
        <ele>553.86</ele>
        <time>2021-08-16T09:13:52Z</time>
      </trkpt>
      <trkpt lat="44.94876" lon="2.22533">
        <ele>553.86</ele>
        <time>2021-08-16T09:14:05Z</time>
      </trkpt>
      <trkpt lat="44.94875" lon="2.22529">
        <ele>553.86</ele>
        <time>2021-08-16T09:14:11Z</time>
      </trkpt>
      <trkpt lat="44.94872" lon="2.22514">
        <ele>553.86</ele>
        <time>2021-08-16T09:14:17Z</time>
      </trkpt>
      <trkpt lat="44.94864" lon="2.22492">
        <ele>552.9</ele>
        <time>2021-08-16T09:14:22Z</time>
      </trkpt>
      <trkpt lat="44.94848" lon="2.22464">
        <ele>552.9</ele>
        <time>2021-08-16T09:14:29Z</time>
      </trkpt>
      <trkpt lat="44.94842" lon="2.22454">
        <ele>552.41</ele>
        <time>2021-08-16T09:14:31Z</time>
      </trkpt>
      <trkpt lat="44.94838" lon="2.22449">
        <ele>552.41</ele>
        <time>2021-08-16T09:14:32Z</time>
      </trkpt>
      <trkpt lat="44.94834" lon="2.22445">
        <ele>552.41</ele>
        <time>2021-08-16T09:14:33Z</time>
      </trkpt>
      <trkpt lat="44.94816" lon="2.22427">
        <ele>553.86</ele>
        <time>2021-08-16T09:14:38Z</time>
      </trkpt>
      <trkpt lat="44.94785" lon="2.22416">
        <ele>553.86</ele>
        <time>2021-08-16T09:14:47Z</time>
      </trkpt>
      <trkpt lat="44.94775" lon="2.22415">
        <ele>552.9</ele>
        <time>2021-08-16T09:14:49Z</time>
      </trkpt>
      <trkpt lat="44.94769" lon="2.22413">
        <ele>552.41</ele>
        <time>2021-08-16T09:14:50Z</time>
      </trkpt>
      <trkpt lat="44.94763" lon="2.2241">
        <ele>551.45</ele>
        <time>2021-08-16T09:14:51Z</time>
      </trkpt>
      <trkpt lat="44.94757" lon="2.22405">
        <ele>550.97</ele>
        <time>2021-08-16T09:14:52Z</time>
      </trkpt>
      <trkpt lat="44.94751" lon="2.224">
        <ele>550.01</ele>
        <time>2021-08-16T09:14:53Z</time>
      </trkpt>
      <trkpt lat="44.94746" lon="2.22394">
        <ele>549.05</ele>
        <time>2021-08-16T09:14:54Z</time>
      </trkpt>
      <trkpt lat="44.94726" lon="2.22379">
        <ele>546.17</ele>
        <time>2021-08-16T09:14:58Z</time>
      </trkpt>
      <trkpt lat="44.9471" lon="2.22364">
        <ele>544.72</ele>
        <time>2021-08-16T09:15:03Z</time>
      </trkpt>
      <trkpt lat="44.94702" lon="2.22359">
        <ele>544.24</ele>
        <time>2021-08-16T09:15:05Z</time>
      </trkpt>
      <trkpt lat="44.94697" lon="2.22358">
        <ele>544.24</ele>
        <time>2021-08-16T09:15:06Z</time>
      </trkpt>
      <trkpt lat="44.94651" lon="2.22357">
        <ele>543.28</ele>
        <time>2021-08-16T09:15:14Z</time>
      </trkpt>
      <trkpt lat="44.94639" lon="2.22357">
        <ele>543.28</ele>
        <time>2021-08-16T09:15:17Z</time>
      </trkpt>
      <trkpt lat="44.94638" lon="2.22366">
        <ele>542.8</ele>
        <time>2021-08-16T09:15:22Z</time>
      </trkpt>
      <trkpt lat="44.94642" lon="2.22368">
        <ele>542.32</ele>
        <time>2021-08-16T09:15:28Z</time>
      </trkpt>
      <trkpt lat="44.94643" lon="2.22369">
        <ele>541.84</ele>
        <time>2021-08-16T09:15:34Z</time>
      </trkpt>
      <trkpt lat="44.94644" lon="2.22368">
        <ele>541.84</ele>
        <time>2021-08-16T09:15:36Z</time>
      </trkpt>
      <trkpt lat="44.94643" lon="2.22367">
        <ele>541.84</ele>
        <time>2021-08-16T09:15:38Z</time>
      </trkpt>
      <trkpt lat="44.94638" lon="2.22367">
        <ele>541.84</ele>
        <time>2021-08-16T09:15:42Z</time>
      </trkpt>
      <trkpt lat="44.94632" lon="2.2236">
        <ele>542.8</ele>
        <time>2021-08-16T09:15:52Z</time>
      </trkpt>
      <trkpt lat="44.94626" lon="2.2236">
        <ele>542.8</ele>
        <time>2021-08-16T09:15:56Z</time>
      </trkpt>
      <trkpt lat="44.94606" lon="2.22364">
        <ele>543.76</ele>
        <time>2021-08-16T09:16:04Z</time>
      </trkpt>
      <trkpt lat="44.94579" lon="2.2237">
        <ele>543.76</ele>
        <time>2021-08-16T09:16:12Z</time>
      </trkpt>
      <trkpt lat="44.94557" lon="2.22375">
        <ele>543.76</ele>
        <time>2021-08-16T09:16:17Z</time>
      </trkpt>
      <trkpt lat="44.94553" lon="2.22375">
        <ele>543.76</ele>
        <time>2021-08-16T09:16:18Z</time>
      </trkpt>
      <trkpt lat="44.94549" lon="2.22375">
        <ele>543.76</ele>
        <time>2021-08-16T09:16:19Z</time>
      </trkpt>
      <trkpt lat="44.94545" lon="2.22374">
        <ele>543.76</ele>
        <time>2021-08-16T09:16:20Z</time>
      </trkpt>
      <trkpt lat="44.9454" lon="2.22373">
        <ele>543.76</ele>
        <time>2021-08-16T09:16:21Z</time>
      </trkpt>
      <trkpt lat="44.94536" lon="2.22372">
        <ele>543.76</ele>
        <time>2021-08-16T09:16:22Z</time>
      </trkpt>
      <trkpt lat="44.94533" lon="2.22369">
        <ele>543.76</ele>
        <time>2021-08-16T09:16:23Z</time>
      </trkpt>
      <trkpt lat="44.94529" lon="2.22367">
        <ele>543.76</ele>
        <time>2021-08-16T09:16:24Z</time>
      </trkpt>
      <trkpt lat="44.94526" lon="2.22363">
        <ele>543.76</ele>
        <time>2021-08-16T09:16:25Z</time>
      </trkpt>
      <trkpt lat="44.94523" lon="2.2236">
        <ele>543.76</ele>
        <time>2021-08-16T09:16:26Z</time>
      </trkpt>
      <trkpt lat="44.94515" lon="2.22347">
        <ele>543.76</ele>
        <time>2021-08-16T09:16:29Z</time>
      </trkpt>
      <trkpt lat="44.94511" lon="2.22338">
        <ele>543.76</ele>
        <time>2021-08-16T09:16:31Z</time>
      </trkpt>
      <trkpt lat="44.9451" lon="2.22332">
        <ele>542.32</ele>
        <time>2021-08-16T09:16:32Z</time>
      </trkpt>
      <trkpt lat="44.94503" lon="2.22281">
        <ele>539.92</ele>
        <time>2021-08-16T09:16:39Z</time>
      </trkpt>
      <trkpt lat="44.9449" lon="2.22194">
        <ele>538.48</ele>
        <time>2021-08-16T09:16:49Z</time>
      </trkpt>
      <trkpt lat="44.9449" lon="2.22141">
        <ele>537.99</ele>
        <time>2021-08-16T09:16:56Z</time>
      </trkpt>
      <trkpt lat="44.94491" lon="2.22133">
        <ele>537.99</ele>
        <time>2021-08-16T09:16:57Z</time>
      </trkpt>
      <trkpt lat="44.94493" lon="2.22126">
        <ele>537.99</ele>
        <time>2021-08-16T09:16:58Z</time>
      </trkpt>
      <trkpt lat="44.94504" lon="2.22093">
        <ele>537.99</ele>
        <time>2021-08-16T09:17:03Z</time>
      </trkpt>
      <trkpt lat="44.94507" lon="2.22088">
        <ele>537.99</ele>
        <time>2021-08-16T09:17:04Z</time>
      </trkpt>
      <trkpt lat="44.94511" lon="2.22084">
        <ele>537.51</ele>
        <time>2021-08-16T09:17:05Z</time>
      </trkpt>
      <trkpt lat="44.94515" lon="2.22082">
        <ele>537.51</ele>
        <time>2021-08-16T09:17:06Z</time>
      </trkpt>
      <trkpt lat="44.94519" lon="2.2208">
        <ele>537.51</ele>
        <time>2021-08-16T09:17:07Z</time>
      </trkpt>
      <trkpt lat="44.94525" lon="2.22076">
        <ele>537.51</ele>
        <time>2021-08-16T09:17:09Z</time>
      </trkpt>
      <trkpt lat="44.9456" lon="2.22065">
        <ele>537.51</ele>
        <time>2021-08-16T09:17:18Z</time>
      </trkpt>
      <trkpt lat="44.94591" lon="2.2205">
        <ele>537.51</ele>
        <time>2021-08-16T09:17:26Z</time>
      </trkpt>
      <trkpt lat="44.94613" lon="2.2204">
        <ele>537.51</ele>
        <time>2021-08-16T09:17:31Z</time>
      </trkpt>
      <trkpt lat="44.94618" lon="2.22039">
        <ele>537.51</ele>
        <time>2021-08-16T09:17:32Z</time>
      </trkpt>
      <trkpt lat="44.94626" lon="2.22035">
        <ele>537.51</ele>
        <time>2021-08-16T09:17:34Z</time>
      </trkpt>
      <trkpt lat="44.94635" lon="2.2203">
        <ele>537.51</ele>
        <time>2021-08-16T09:17:36Z</time>
      </trkpt>
      <trkpt lat="44.94639" lon="2.22029">
        <ele>537.51</ele>
        <time>2021-08-16T09:17:37Z</time>
      </trkpt>
      <trkpt lat="44.94669" lon="2.22029">
        <ele>535.11</ele>
        <time>2021-08-16T09:17:44Z</time>
      </trkpt>
      <trkpt lat="44.94674" lon="2.22031">
        <ele>535.11</ele>
        <time>2021-08-16T09:17:45Z</time>
      </trkpt>
      <trkpt lat="44.94677" lon="2.22033">
        <ele>534.63</ele>
        <time>2021-08-16T09:17:46Z</time>
      </trkpt>
      <trkpt lat="44.94682" lon="2.22036">
        <ele>534.15</ele>
        <time>2021-08-16T09:17:47Z</time>
      </trkpt>
      <trkpt lat="44.94687" lon="2.2204">
        <ele>534.15</ele>
        <time>2021-08-16T09:17:48Z</time>
      </trkpt>
      <trkpt lat="44.94691" lon="2.22044">
        <ele>533.67</ele>
        <time>2021-08-16T09:17:49Z</time>
      </trkpt>
      <trkpt lat="44.94695" lon="2.22049">
        <ele>533.19</ele>
        <time>2021-08-16T09:17:50Z</time>
      </trkpt>
      <trkpt lat="44.94707" lon="2.22062">
        <ele>532.71</ele>
        <time>2021-08-16T09:17:54Z</time>
      </trkpt>
      <trkpt lat="44.9471" lon="2.2205">
        <ele>532.23</ele>
        <time>2021-08-16T09:17:59Z</time>
      </trkpt>
      <trkpt lat="44.94708" lon="2.22046">
        <ele>532.23</ele>
        <time>2021-08-16T09:18:00Z</time>
      </trkpt>
      <trkpt lat="44.94698" lon="2.22028">
        <ele>530.79</ele>
        <time>2021-08-16T09:18:04Z</time>
      </trkpt>
      <trkpt lat="44.94671" lon="2.21993">
        <ele>528.38</ele>
        <time>2021-08-16T09:18:11Z</time>
      </trkpt>
      <trkpt lat="44.94664" lon="2.21984">
        <ele>527.9</ele>
        <time>2021-08-16T09:18:13Z</time>
      </trkpt>
      <trkpt lat="44.94661" lon="2.21981">
        <ele>527.9</ele>
        <time>2021-08-16T09:18:14Z</time>
      </trkpt>
      <trkpt lat="44.94656" lon="2.21978">
        <ele>527.42</ele>
        <time>2021-08-16T09:18:15Z</time>
      </trkpt>
      <trkpt lat="44.94648" lon="2.21974">
        <ele>527.42</ele>
        <time>2021-08-16T09:18:17Z</time>
      </trkpt>
      <trkpt lat="44.94643" lon="2.21973">
        <ele>527.42</ele>
        <time>2021-08-16T09:18:18Z</time>
      </trkpt>
      <trkpt lat="44.94624" lon="2.21969">
        <ele>526.46</ele>
        <time>2021-08-16T09:18:22Z</time>
      </trkpt>
      <trkpt lat="44.94619" lon="2.21969">
        <ele>525.98</ele>
        <time>2021-08-16T09:18:23Z</time>
      </trkpt>
      <trkpt lat="44.94613" lon="2.21969">
        <ele>525.5</ele>
        <time>2021-08-16T09:18:24Z</time>
      </trkpt>
      <trkpt lat="44.94608" lon="2.21971">
        <ele>525.02</ele>
        <time>2021-08-16T09:18:25Z</time>
      </trkpt>
      <trkpt lat="44.94604" lon="2.21973">
        <ele>525.02</ele>
        <time>2021-08-16T09:18:26Z</time>
      </trkpt>
      <trkpt lat="44.94587" lon="2.21976">
        <ele>523.58</ele>
        <time>2021-08-16T09:18:30Z</time>
      </trkpt>
      <trkpt lat="44.94583" lon="2.21975">
        <ele>523.58</ele>
        <time>2021-08-16T09:18:31Z</time>
      </trkpt>
      <trkpt lat="44.94569" lon="2.21965">
        <ele>523.58</ele>
        <time>2021-08-16T09:18:34Z</time>
      </trkpt>
      <trkpt lat="44.94559" lon="2.21956">
        <ele>523.58</ele>
        <time>2021-08-16T09:18:37Z</time>
      </trkpt>
      <trkpt lat="44.94555" lon="2.21952">
        <ele>523.58</ele>
        <time>2021-08-16T09:18:38Z</time>
      </trkpt>
      <trkpt lat="44.94523" lon="2.2191">
        <ele>523.58</ele>
        <time>2021-08-16T09:18:47Z</time>
      </trkpt>
      <trkpt lat="44.9452" lon="2.21904">
        <ele>523.58</ele>
        <time>2021-08-16T09:18:48Z</time>
      </trkpt>
      <trkpt lat="44.94503" lon="2.21849">
        <ele>523.58</ele>
        <time>2021-08-16T09:18:57Z</time>
      </trkpt>
      <trkpt lat="44.94497" lon="2.21783">
        <ele>523.58</ele>
        <time>2021-08-16T09:19:07Z</time>
      </trkpt>
      <trkpt lat="44.94504" lon="2.21736">
        <ele>523.58</ele>
        <time>2021-08-16T09:19:14Z</time>
      </trkpt>
      <trkpt lat="44.9452" lon="2.21696">
        <ele>523.58</ele>
        <time>2021-08-16T09:19:21Z</time>
      </trkpt>
      <trkpt lat="44.94523" lon="2.21691">
        <ele>523.58</ele>
        <time>2021-08-16T09:19:22Z</time>
      </trkpt>
      <trkpt lat="44.94527" lon="2.21687">
        <ele>523.58</ele>
        <time>2021-08-16T09:19:23Z</time>
      </trkpt>
      <trkpt lat="44.9453" lon="2.21684">
        <ele>523.58</ele>
        <time>2021-08-16T09:19:24Z</time>
      </trkpt>
      <trkpt lat="44.94534" lon="2.21682">
        <ele>523.09</ele>
        <time>2021-08-16T09:19:25Z</time>
      </trkpt>
      <trkpt lat="44.94554" lon="2.21668">
        <ele>523.09</ele>
        <time>2021-08-16T09:19:30Z</time>
      </trkpt>
      <trkpt lat="44.94559" lon="2.21665">
        <ele>522.61</ele>
        <time>2021-08-16T09:19:31Z</time>
      </trkpt>
      <trkpt lat="44.94592" lon="2.21641">
        <ele>522.13</ele>
        <time>2021-08-16T09:19:40Z</time>
      </trkpt>
      <trkpt lat="44.94621" lon="2.21624">
        <ele>522.13</ele>
        <time>2021-08-16T09:19:48Z</time>
      </trkpt>
      <trkpt lat="44.94632" lon="2.21619">
        <ele>523.58</ele>
        <time>2021-08-16T09:19:52Z</time>
      </trkpt>
      <trkpt lat="44.94653" lon="2.21602">
        <ele>524.06</ele>
        <time>2021-08-16T09:20:01Z</time>
      </trkpt>
      <trkpt lat="44.94664" lon="2.21578">
        <ele>525.02</ele>
        <time>2021-08-16T09:20:08Z</time>
      </trkpt>
      <trkpt lat="44.94673" lon="2.21549">
        <ele>525.98</ele>
        <time>2021-08-16T09:20:16Z</time>
      </trkpt>
      <trkpt lat="44.94677" lon="2.21527">
        <ele>526.46</ele>
        <time>2021-08-16T09:20:23Z</time>
      </trkpt>
      <trkpt lat="44.94676" lon="2.2152">
        <ele>526.94</ele>
        <time>2021-08-16T09:20:26Z</time>
      </trkpt>
      <trkpt lat="44.94675" lon="2.21518">
        <ele>527.42</ele>
        <time>2021-08-16T09:20:27Z</time>
      </trkpt>
      <trkpt lat="44.94674" lon="2.21518">
        <ele>527.42</ele>
        <time>2021-08-16T09:20:28Z</time>
      </trkpt>
      <trkpt lat="44.94673" lon="2.21517">
        <ele>527.42</ele>
        <time>2021-08-16T09:20:29Z</time>
      </trkpt>
      <trkpt lat="44.94672" lon="2.21517">
        <ele>527.42</ele>
        <time>2021-08-16T09:20:30Z</time>
      </trkpt>
      <trkpt lat="44.94668" lon="2.21516">
        <ele>528.38</ele>
        <time>2021-08-16T09:20:34Z</time>
      </trkpt>
      <trkpt lat="44.94666" lon="2.21516">
        <ele>528.38</ele>
        <time>2021-08-16T09:20:35Z</time>
      </trkpt>
      <trkpt lat="44.94665" lon="2.21515">
        <ele>528.38</ele>
        <time>2021-08-16T09:20:36Z</time>
      </trkpt>
      <trkpt lat="44.94654" lon="2.21509">
        <ele>530.3</ele>
        <time>2021-08-16T09:20:45Z</time>
      </trkpt>
      <trkpt lat="44.94652" lon="2.21507">
        <ele>530.79</ele>
        <time>2021-08-16T09:20:48Z</time>
      </trkpt>
      <trkpt lat="44.94651" lon="2.21506">
        <ele>531.27</ele>
        <time>2021-08-16T09:20:49Z</time>
      </trkpt>
      <trkpt lat="44.94642" lon="2.215">
        <ele>532.23</ele>
        <time>2021-08-16T09:20:57Z</time>
      </trkpt>
      <trkpt lat="44.94631" lon="2.21496">
        <ele>534.15</ele>
        <time>2021-08-16T09:21:07Z</time>
      </trkpt>
      <trkpt lat="44.94621" lon="2.21492">
        <ele>535.59</ele>
        <time>2021-08-16T09:21:16Z</time>
      </trkpt>
      <trkpt lat="44.94607" lon="2.21489">
        <ele>536.55</ele>
        <time>2021-08-16T09:21:28Z</time>
      </trkpt>
      <trkpt lat="44.94598" lon="2.21486">
        <ele>538.48</ele>
        <time>2021-08-16T09:21:38Z</time>
      </trkpt>
      <trkpt lat="44.94597" lon="2.21486">
        <ele>538.48</ele>
        <time>2021-08-16T09:21:46Z</time>
      </trkpt>
      <trkpt lat="44.94592" lon="2.21485">
        <ele>538.48</ele>
        <time>2021-08-16T09:21:52Z</time>
      </trkpt>
      <trkpt lat="44.94591" lon="2.21485">
        <ele>538.96</ele>
        <time>2021-08-16T09:21:53Z</time>
      </trkpt>
      <trkpt lat="44.94589" lon="2.21485">
        <ele>539.44</ele>
        <time>2021-08-16T09:21:54Z</time>
      </trkpt>
      <trkpt lat="44.94588" lon="2.21485">
        <ele>539.44</ele>
        <time>2021-08-16T09:21:55Z</time>
      </trkpt>
      <trkpt lat="44.94587" lon="2.21485">
        <ele>539.44</ele>
        <time>2021-08-16T09:21:56Z</time>
      </trkpt>
      <trkpt lat="44.94586" lon="2.21485">
        <ele>539.92</ele>
        <time>2021-08-16T09:21:57Z</time>
      </trkpt>
      <trkpt lat="44.94585" lon="2.21484">
        <ele>539.92</ele>
        <time>2021-08-16T09:21:58Z</time>
      </trkpt>
      <trkpt lat="44.94584" lon="2.21483">
        <ele>539.92</ele>
        <time>2021-08-16T09:21:59Z</time>
      </trkpt>
      <trkpt lat="44.94582" lon="2.21483">
        <ele>539.92</ele>
        <time>2021-08-16T09:22:00Z</time>
      </trkpt>
      <trkpt lat="44.94581" lon="2.21482">
        <ele>540.4</ele>
        <time>2021-08-16T09:22:01Z</time>
      </trkpt>
      <trkpt lat="44.9458" lon="2.21482">
        <ele>540.4</ele>
        <time>2021-08-16T09:22:02Z</time>
      </trkpt>
      <trkpt lat="44.94579" lon="2.21481">
        <ele>540.88</ele>
        <time>2021-08-16T09:22:03Z</time>
      </trkpt>
      <trkpt lat="44.94577" lon="2.21481">
        <ele>540.88</ele>
        <time>2021-08-16T09:22:04Z</time>
      </trkpt>
      <trkpt lat="44.94564" lon="2.21476">
        <ele>542.8</ele>
        <time>2021-08-16T09:22:14Z</time>
      </trkpt>
      <trkpt lat="44.94551" lon="2.21466">
        <ele>544.24</ele>
        <time>2021-08-16T09:22:24Z</time>
      </trkpt>
      <trkpt lat="44.94536" lon="2.21451">
        <ele>546.17</ele>
        <time>2021-08-16T09:22:34Z</time>
      </trkpt>
      <trkpt lat="44.94522" lon="2.21436">
        <ele>547.61</ele>
        <time>2021-08-16T09:22:43Z</time>
      </trkpt>
      <trkpt lat="44.94509" lon="2.21421">
        <ele>548.57</ele>
        <time>2021-08-16T09:22:51Z</time>
      </trkpt>
      <trkpt lat="44.9449" lon="2.21395">
        <ele>549.05</ele>
        <time>2021-08-16T09:23:01Z</time>
      </trkpt>
      <trkpt lat="44.94472" lon="2.2137">
        <ele>550.01</ele>
        <time>2021-08-16T09:23:09Z</time>
      </trkpt>
      <trkpt lat="44.94448" lon="2.21333">
        <ele>550.01</ele>
        <time>2021-08-16T09:23:19Z</time>
      </trkpt>
      <trkpt lat="44.94422" lon="2.21307">
        <ele>548.57</ele>
        <time>2021-08-16T09:23:27Z</time>
      </trkpt>
      <trkpt lat="44.94418" lon="2.21306">
        <ele>548.09</ele>
        <time>2021-08-16T09:23:28Z</time>
      </trkpt>
      <trkpt lat="44.94414" lon="2.21304">
        <ele>548.09</ele>
        <time>2021-08-16T09:23:29Z</time>
      </trkpt>
      <trkpt lat="44.94378" lon="2.21297">
        <ele>547.61</ele>
        <time>2021-08-16T09:23:36Z</time>
      </trkpt>
      <trkpt lat="44.9431" lon="2.21277">
        <ele>547.13</ele>
        <time>2021-08-16T09:23:48Z</time>
      </trkpt>
      <trkpt lat="44.94283" lon="2.21263">
        <ele>548.57</ele>
        <time>2021-08-16T09:23:54Z</time>
      </trkpt>
      <trkpt lat="44.94262" lon="2.21245">
        <ele>550.49</ele>
        <time>2021-08-16T09:24:01Z</time>
      </trkpt>
      <trkpt lat="44.94244" lon="2.21221">
        <ele>551.93</ele>
        <time>2021-08-16T09:24:09Z</time>
      </trkpt>
      <trkpt lat="44.94232" lon="2.21194">
        <ele>552.9</ele>
        <time>2021-08-16T09:24:18Z</time>
      </trkpt>
      <trkpt lat="44.94214" lon="2.21152">
        <ele>554.34</ele>
        <time>2021-08-16T09:24:30Z</time>
      </trkpt>
      <trkpt lat="44.94201" lon="2.2112">
        <ele>554.82</ele>
        <time>2021-08-16T09:24:39Z</time>
      </trkpt>
      <trkpt lat="44.94188" lon="2.2109">
        <ele>555.3</ele>
        <time>2021-08-16T09:24:47Z</time>
      </trkpt>
      <trkpt lat="44.94171" lon="2.21056">
        <ele>557.22</ele>
        <time>2021-08-16T09:24:57Z</time>
      </trkpt>
      <trkpt lat="44.94155" lon="2.21028">
        <ele>558.66</ele>
        <time>2021-08-16T09:25:07Z</time>
      </trkpt>
      <trkpt lat="44.9415" lon="2.21004">
        <ele>559.14</ele>
        <time>2021-08-16T09:25:14Z</time>
      </trkpt>
      <trkpt lat="44.94148" lon="2.20969">
        <ele>559.14</ele>
        <time>2021-08-16T09:25:22Z</time>
      </trkpt>
      <trkpt lat="44.94148" lon="2.20941">
        <ele>559.14</ele>
        <time>2021-08-16T09:25:28Z</time>
      </trkpt>
      <trkpt lat="44.94161" lon="2.20902">
        <ele>559.62</ele>
        <time>2021-08-16T09:25:36Z</time>
      </trkpt>
      <trkpt lat="44.94187" lon="2.20867">
        <ele>561.55</ele>
        <time>2021-08-16T09:25:45Z</time>
      </trkpt>
      <trkpt lat="44.94206" lon="2.20842">
        <ele>562.03</ele>
        <time>2021-08-16T09:25:52Z</time>
      </trkpt>
      <trkpt lat="44.9423" lon="2.20811">
        <ele>561.55</ele>
        <time>2021-08-16T09:26:01Z</time>
      </trkpt>
      <trkpt lat="44.94255" lon="2.20776">
        <ele>559.14</ele>
        <time>2021-08-16T09:26:09Z</time>
      </trkpt>
      <trkpt lat="44.94274" lon="2.20746">
        <ele>555.3</ele>
        <time>2021-08-16T09:26:13Z</time>
      </trkpt>
      <trkpt lat="44.94299" lon="2.20705">
        <ele>550.97</ele>
        <time>2021-08-16T09:26:17Z</time>
      </trkpt>
      <trkpt lat="44.94313" lon="2.20682">
        <ele>547.61</ele>
        <time>2021-08-16T09:26:19Z</time>
      </trkpt>
      <trkpt lat="44.94338" lon="2.20646">
        <ele>543.76</ele>
        <time>2021-08-16T09:26:22Z</time>
      </trkpt>
      <trkpt lat="44.94346" lon="2.20635">
        <ele>543.76</ele>
        <time>2021-08-16T09:26:23Z</time>
      </trkpt>
      <trkpt lat="44.94366" lon="2.20613">
        <ele>542.32</ele>
        <time>2021-08-16T09:26:25Z</time>
      </trkpt>
      <trkpt lat="44.94376" lon="2.20604">
        <ele>540.4</ele>
        <time>2021-08-16T09:26:26Z</time>
      </trkpt>
      <trkpt lat="44.94387" lon="2.20596">
        <ele>539.92</ele>
        <time>2021-08-16T09:26:27Z</time>
      </trkpt>
      <trkpt lat="44.9445" lon="2.20555">
        <ele>538.96</ele>
        <time>2021-08-16T09:26:33Z</time>
      </trkpt>
      <trkpt lat="44.94544" lon="2.20495">
        <ele>536.07</ele>
        <time>2021-08-16T09:26:43Z</time>
      </trkpt>
      <trkpt lat="44.94613" lon="2.20461">
        <ele>533.19</ele>
        <time>2021-08-16T09:26:50Z</time>
      </trkpt>
      <trkpt lat="44.94657" lon="2.20454">
        <ele>532.71</ele>
        <time>2021-08-16T09:26:55Z</time>
      </trkpt>
      <trkpt lat="44.94695" lon="2.20433">
        <ele>532.71</ele>
        <time>2021-08-16T09:27:00Z</time>
      </trkpt>
      <trkpt lat="44.94701" lon="2.20427">
        <ele>532.71</ele>
        <time>2021-08-16T09:27:01Z</time>
      </trkpt>
      <trkpt lat="44.94707" lon="2.2042">
        <ele>532.71</ele>
        <time>2021-08-16T09:27:02Z</time>
      </trkpt>
      <trkpt lat="44.94746" lon="2.20364">
        <ele>530.3</ele>
        <time>2021-08-16T09:27:09Z</time>
      </trkpt>
      <trkpt lat="44.94767" lon="2.20335">
        <ele>527.42</ele>
        <time>2021-08-16T09:27:12Z</time>
      </trkpt>
      <trkpt lat="44.94791" lon="2.20301">
        <ele>523.58</ele>
        <time>2021-08-16T09:27:15Z</time>
      </trkpt>
      <trkpt lat="44.94808" lon="2.20276">
        <ele>520.21</ele>
        <time>2021-08-16T09:27:17Z</time>
      </trkpt>
      <trkpt lat="44.94833" lon="2.20241">
        <ele>517.33</ele>
        <time>2021-08-16T09:27:20Z</time>
      </trkpt>
      <trkpt lat="44.94844" lon="2.20227">
        <ele>517.81</ele>
        <time>2021-08-16T09:27:22Z</time>
      </trkpt>
      <trkpt lat="44.94846" lon="2.20221">
        <ele>517.33</ele>
        <time>2021-08-16T09:27:23Z</time>
      </trkpt>
      <trkpt lat="44.94845" lon="2.20215">
        <ele>517.33</ele>
        <time>2021-08-16T09:27:24Z</time>
      </trkpt>
      <trkpt lat="44.94843" lon="2.20208">
        <ele>517.33</ele>
        <time>2021-08-16T09:27:25Z</time>
      </trkpt>
      <trkpt lat="44.94842" lon="2.20205">
        <ele>517.33</ele>
        <time>2021-08-16T09:27:26Z</time>
      </trkpt>
      <trkpt lat="44.94836" lon="2.20186">
        <ele>517.33</ele>
        <time>2021-08-16T09:27:32Z</time>
      </trkpt>
      <trkpt lat="44.94835" lon="2.20183">
        <ele>518.77</ele>
        <time>2021-08-16T09:27:35Z</time>
      </trkpt>
      <trkpt lat="44.94832" lon="2.20175">
        <ele>519.73</ele>
        <time>2021-08-16T09:27:42Z</time>
      </trkpt>
      <trkpt lat="44.94831" lon="2.20166">
        <ele>521.65</ele>
        <time>2021-08-16T09:27:49Z</time>
      </trkpt>
      <trkpt lat="44.94828" lon="2.20157">
        <ele>522.61</ele>
        <time>2021-08-16T09:27:55Z</time>
      </trkpt>
      <trkpt lat="44.94821" lon="2.20144">
        <ele>523.58</ele>
        <time>2021-08-16T09:28:03Z</time>
      </trkpt>
      <trkpt lat="44.94817" lon="2.20129">
        <ele>524.06</ele>
        <time>2021-08-16T09:28:11Z</time>
      </trkpt>
      <trkpt lat="44.94813" lon="2.20113">
        <ele>525.02</ele>
        <time>2021-08-16T09:28:19Z</time>
      </trkpt>
      <trkpt lat="44.94809" lon="2.20098">
        <ele>526.46</ele>
        <time>2021-08-16T09:28:27Z</time>
      </trkpt>
      <trkpt lat="44.94807" lon="2.20088">
        <ele>527.9</ele>
        <time>2021-08-16T09:28:36Z</time>
      </trkpt>
      <trkpt lat="44.94805" lon="2.20077">
        <ele>529.34</ele>
        <time>2021-08-16T09:28:45Z</time>
      </trkpt>
      <trkpt lat="44.94803" lon="2.20067">
        <ele>530.3</ele>
        <time>2021-08-16T09:28:54Z</time>
      </trkpt>
      <trkpt lat="44.94802" lon="2.20061">
        <ele>530.79</ele>
        <time>2021-08-16T09:28:58Z</time>
      </trkpt>
      <trkpt lat="44.94801" lon="2.2006">
        <ele>530.79</ele>
        <time>2021-08-16T09:28:59Z</time>
      </trkpt>
      <trkpt lat="44.94801" lon="2.20058">
        <ele>530.79</ele>
        <time>2021-08-16T09:29:00Z</time>
      </trkpt>
      <trkpt lat="44.94801" lon="2.20055">
        <ele>530.79</ele>
        <time>2021-08-16T09:29:01Z</time>
      </trkpt>
      <trkpt lat="44.94801" lon="2.20052">
        <ele>530.79</ele>
        <time>2021-08-16T09:29:02Z</time>
      </trkpt>
      <trkpt lat="44.94801" lon="2.20049">
        <ele>530.79</ele>
        <time>2021-08-16T09:29:03Z</time>
      </trkpt>
      <trkpt lat="44.94802" lon="2.20045">
        <ele>530.79</ele>
        <time>2021-08-16T09:29:04Z</time>
      </trkpt>
      <trkpt lat="44.94802" lon="2.20041">
        <ele>530.79</ele>
        <time>2021-08-16T09:29:05Z</time>
      </trkpt>
      <trkpt lat="44.94802" lon="2.20038">
        <ele>530.79</ele>
        <time>2021-08-16T09:29:06Z</time>
      </trkpt>
      <trkpt lat="44.94801" lon="2.20006">
        <ele>531.75</ele>
        <time>2021-08-16T09:29:16Z</time>
      </trkpt>
      <trkpt lat="44.94802" lon="2.1997">
        <ele>532.23</ele>
        <time>2021-08-16T09:29:27Z</time>
      </trkpt>
      <trkpt lat="44.94801" lon="2.19951">
        <ele>533.19</ele>
        <time>2021-08-16T09:29:36Z</time>
      </trkpt>
      <trkpt lat="44.948" lon="2.1995">
        <ele>533.19</ele>
        <time>2021-08-16T09:29:37Z</time>
      </trkpt>
      <trkpt lat="44.948" lon="2.19948">
        <ele>533.67</ele>
        <time>2021-08-16T09:29:38Z</time>
      </trkpt>
      <trkpt lat="44.948" lon="2.19946">
        <ele>533.67</ele>
        <time>2021-08-16T09:29:39Z</time>
      </trkpt>
      <trkpt lat="44.948" lon="2.19945">
        <ele>533.67</ele>
        <time>2021-08-16T09:29:40Z</time>
      </trkpt>
      <trkpt lat="44.948" lon="2.19943">
        <ele>533.67</ele>
        <time>2021-08-16T09:29:41Z</time>
      </trkpt>
      <trkpt lat="44.948" lon="2.19942">
        <ele>533.67</ele>
        <time>2021-08-16T09:29:42Z</time>
      </trkpt>
      <trkpt lat="44.948" lon="2.1994">
        <ele>534.15</ele>
        <time>2021-08-16T09:29:43Z</time>
      </trkpt>
      <trkpt lat="44.948" lon="2.19939">
        <ele>534.15</ele>
        <time>2021-08-16T09:29:44Z</time>
      </trkpt>
      <trkpt lat="44.948" lon="2.19937">
        <ele>534.15</ele>
        <time>2021-08-16T09:29:45Z</time>
      </trkpt>
      <trkpt lat="44.94799" lon="2.19936">
        <ele>534.15</ele>
        <time>2021-08-16T09:29:46Z</time>
      </trkpt>
      <trkpt lat="44.94799" lon="2.19934">
        <ele>535.11</ele>
        <time>2021-08-16T09:29:47Z</time>
      </trkpt>
      <trkpt lat="44.94799" lon="2.19932">
        <ele>534.63</ele>
        <time>2021-08-16T09:29:48Z</time>
      </trkpt>
      <trkpt lat="44.94797" lon="2.19919">
        <ele>535.59</ele>
        <time>2021-08-16T09:29:55Z</time>
      </trkpt>
      <trkpt lat="44.94795" lon="2.19898">
        <ele>536.55</ele>
        <time>2021-08-16T09:30:06Z</time>
      </trkpt>
      <trkpt lat="44.94793" lon="2.19887">
        <ele>537.51</ele>
        <time>2021-08-16T09:30:11Z</time>
      </trkpt>
      <trkpt lat="44.94793" lon="2.19885">
        <ele>537.51</ele>
        <time>2021-08-16T09:30:12Z</time>
      </trkpt>
      <trkpt lat="44.94791" lon="2.19873">
        <ele>538.48</ele>
        <time>2021-08-16T09:30:19Z</time>
      </trkpt>
      <trkpt lat="44.9479" lon="2.1987">
        <ele>538.96</ele>
        <time>2021-08-16T09:30:21Z</time>
      </trkpt>
      <trkpt lat="44.9479" lon="2.19868">
        <ele>539.44</ele>
        <time>2021-08-16T09:30:22Z</time>
      </trkpt>
      <trkpt lat="44.94788" lon="2.19858">
        <ele>539.92</ele>
        <time>2021-08-16T09:30:27Z</time>
      </trkpt>
      <trkpt lat="44.94787" lon="2.19857">
        <ele>539.92</ele>
        <time>2021-08-16T09:30:28Z</time>
      </trkpt>
      <trkpt lat="44.94786" lon="2.19855">
        <ele>540.4</ele>
        <time>2021-08-16T09:30:29Z</time>
      </trkpt>
      <trkpt lat="44.94785" lon="2.19854">
        <ele>540.4</ele>
        <time>2021-08-16T09:30:30Z</time>
      </trkpt>
      <trkpt lat="44.94784" lon="2.19852">
        <ele>540.4</ele>
        <time>2021-08-16T09:30:31Z</time>
      </trkpt>
      <trkpt lat="44.94783" lon="2.1985">
        <ele>540.4</ele>
        <time>2021-08-16T09:30:32Z</time>
      </trkpt>
      <trkpt lat="44.94778" lon="2.19839">
        <ele>542.32</ele>
        <time>2021-08-16T09:30:40Z</time>
      </trkpt>
      <trkpt lat="44.94773" lon="2.19833">
        <ele>542.8</ele>
        <time>2021-08-16T09:30:47Z</time>
      </trkpt>
      <trkpt lat="44.94771" lon="2.19831">
        <ele>543.28</ele>
        <time>2021-08-16T09:30:49Z</time>
      </trkpt>
      <trkpt lat="44.9477" lon="2.1983">
        <ele>543.28</ele>
        <time>2021-08-16T09:30:50Z</time>
      </trkpt>
      <trkpt lat="44.94768" lon="2.19827">
        <ele>543.76</ele>
        <time>2021-08-16T09:30:52Z</time>
      </trkpt>
      <trkpt lat="44.94765" lon="2.1982">
        <ele>544.72</ele>
        <time>2021-08-16T09:30:57Z</time>
      </trkpt>
      <trkpt lat="44.94764" lon="2.19819">
        <ele>544.72</ele>
        <time>2021-08-16T09:30:58Z</time>
      </trkpt>
      <trkpt lat="44.94763" lon="2.19817">
        <ele>544.72</ele>
        <time>2021-08-16T09:30:59Z</time>
      </trkpt>
      <trkpt lat="44.94762" lon="2.19816">
        <ele>545.2</ele>
        <time>2021-08-16T09:31:00Z</time>
      </trkpt>
      <trkpt lat="44.94762" lon="2.19814">
        <ele>545.2</ele>
        <time>2021-08-16T09:31:01Z</time>
      </trkpt>
      <trkpt lat="44.94756" lon="2.19804">
        <ele>546.17</ele>
        <time>2021-08-16T09:31:09Z</time>
      </trkpt>
      <trkpt lat="44.94749" lon="2.19797">
        <ele>547.61</ele>
        <time>2021-08-16T09:31:17Z</time>
      </trkpt>
      <trkpt lat="44.94745" lon="2.1979">
        <ele>548.57</ele>
        <time>2021-08-16T09:31:25Z</time>
      </trkpt>
      <trkpt lat="44.94744" lon="2.19789">
        <ele>548.57</ele>
        <time>2021-08-16T09:31:26Z</time>
      </trkpt>
      <trkpt lat="44.94737" lon="2.19781">
        <ele>550.01</ele>
        <time>2021-08-16T09:31:35Z</time>
      </trkpt>
      <trkpt lat="44.94731" lon="2.19777">
        <ele>551.45</ele>
        <time>2021-08-16T09:31:43Z</time>
      </trkpt>
      <trkpt lat="44.94723" lon="2.19773">
        <ele>552.41</ele>
        <time>2021-08-16T09:31:52Z</time>
      </trkpt>
      <trkpt lat="44.94715" lon="2.19767">
        <ele>553.86</ele>
        <time>2021-08-16T09:32:02Z</time>
      </trkpt>
      <trkpt lat="44.94707" lon="2.19762">
        <ele>554.82</ele>
        <time>2021-08-16T09:32:10Z</time>
      </trkpt>
      <trkpt lat="44.94699" lon="2.19757">
        <ele>555.78</ele>
        <time>2021-08-16T09:32:19Z</time>
      </trkpt>
      <trkpt lat="44.94693" lon="2.19754">
        <ele>556.74</ele>
        <time>2021-08-16T09:32:26Z</time>
      </trkpt>
      <trkpt lat="44.94688" lon="2.19751">
        <ele>557.22</ele>
        <time>2021-08-16T09:32:30Z</time>
      </trkpt>
      <trkpt lat="44.94678" lon="2.19746">
        <ele>558.66</ele>
        <time>2021-08-16T09:32:39Z</time>
      </trkpt>
      <trkpt lat="44.9467" lon="2.19741">
        <ele>559.62</ele>
        <time>2021-08-16T09:32:48Z</time>
      </trkpt>
      <trkpt lat="44.94661" lon="2.19735">
        <ele>561.55</ele>
        <time>2021-08-16T09:32:58Z</time>
      </trkpt>
      <trkpt lat="44.94658" lon="2.19732">
        <ele>562.03</ele>
        <time>2021-08-16T09:33:06Z</time>
      </trkpt>
      <trkpt lat="44.94658" lon="2.19727">
        <ele>562.03</ele>
        <time>2021-08-16T09:33:19Z</time>
      </trkpt>
      <trkpt lat="44.94655" lon="2.19727">
        <ele>562.03</ele>
        <time>2021-08-16T09:33:29Z</time>
      </trkpt>
      <trkpt lat="44.94649" lon="2.19727">
        <ele>562.03</ele>
        <time>2021-08-16T09:33:47Z</time>
      </trkpt>
      <trkpt lat="44.9465" lon="2.19727">
        <ele>562.03</ele>
        <time>2021-08-16T09:33:56Z</time>
      </trkpt>
      <trkpt lat="44.94651" lon="2.19727">
        <ele>562.03</ele>
        <time>2021-08-16T09:34:06Z</time>
      </trkpt>
      <trkpt lat="44.9465" lon="2.19728">
        <ele>562.03</ele>
        <time>2021-08-16T09:34:12Z</time>
      </trkpt>
      <trkpt lat="44.94651" lon="2.19733">
        <ele>562.03</ele>
        <time>2021-08-16T09:34:28Z</time>
      </trkpt>
      <trkpt lat="44.94649" lon="2.19732">
        <ele>562.03</ele>
        <time>2021-08-16T09:34:46Z</time>
      </trkpt>
      <trkpt lat="44.9465" lon="2.19733">
        <ele>562.03</ele>
        <time>2021-08-16T09:35:00Z</time>
      </trkpt>
      <trkpt lat="44.94652" lon="2.19734">
        <ele>562.03</ele>
        <time>2021-08-16T09:35:03Z</time>
      </trkpt>
      <trkpt lat="44.94654" lon="2.19732">
        <ele>562.03</ele>
        <time>2021-08-16T09:35:08Z</time>
      </trkpt>
      <trkpt lat="44.94651" lon="2.19729">
        <ele>562.99</ele>
        <time>2021-08-16T09:35:14Z</time>
      </trkpt>
      <trkpt lat="44.94643" lon="2.19726">
        <ele>563.95</ele>
        <time>2021-08-16T09:35:23Z</time>
      </trkpt>
      <trkpt lat="44.94636" lon="2.19725">
        <ele>565.39</ele>
        <time>2021-08-16T09:35:30Z</time>
      </trkpt>
      <trkpt lat="44.94629" lon="2.19725">
        <ele>566.35</ele>
        <time>2021-08-16T09:35:37Z</time>
      </trkpt>
      <trkpt lat="44.94622" lon="2.19723">
        <ele>567.32</ele>
        <time>2021-08-16T09:35:45Z</time>
      </trkpt>
      <trkpt lat="44.94617" lon="2.19721">
        <ele>568.76</ele>
        <time>2021-08-16T09:35:53Z</time>
      </trkpt>
      <trkpt lat="44.9461" lon="2.19717">
        <ele>570.2</ele>
        <time>2021-08-16T09:36:03Z</time>
      </trkpt>
      <trkpt lat="44.94604" lon="2.19711">
        <ele>571.16</ele>
        <time>2021-08-16T09:36:12Z</time>
      </trkpt>
      <trkpt lat="44.94597" lon="2.19707">
        <ele>572.12</ele>
        <time>2021-08-16T09:36:20Z</time>
      </trkpt>
      <trkpt lat="44.9459" lon="2.19705">
        <ele>574.04</ele>
        <time>2021-08-16T09:36:29Z</time>
      </trkpt>
      <trkpt lat="44.94583" lon="2.19701">
        <ele>575.97</ele>
        <time>2021-08-16T09:36:39Z</time>
      </trkpt>
      <trkpt lat="44.94577" lon="2.19697">
        <ele>577.41</ele>
        <time>2021-08-16T09:36:48Z</time>
      </trkpt>
      <trkpt lat="44.94571" lon="2.19692">
        <ele>578.85</ele>
        <time>2021-08-16T09:36:58Z</time>
      </trkpt>
      <trkpt lat="44.94562" lon="2.19691">
        <ele>580.29</ele>
        <time>2021-08-16T09:37:06Z</time>
      </trkpt>
      <trkpt lat="44.94554" lon="2.1969">
        <ele>581.25</ele>
        <time>2021-08-16T09:37:15Z</time>
      </trkpt>
      <trkpt lat="44.94545" lon="2.19687">
        <ele>582.7</ele>
        <time>2021-08-16T09:37:25Z</time>
      </trkpt>
      <trkpt lat="44.94537" lon="2.19684">
        <ele>584.14</ele>
        <time>2021-08-16T09:37:33Z</time>
      </trkpt>
      <trkpt lat="44.94529" lon="2.1968">
        <ele>585.58</ele>
        <time>2021-08-16T09:37:41Z</time>
      </trkpt>
      <trkpt lat="44.9452" lon="2.19674">
        <ele>587.02</ele>
        <time>2021-08-16T09:37:50Z</time>
      </trkpt>
      <trkpt lat="44.94519" lon="2.19673">
        <ele>587.02</ele>
        <time>2021-08-16T09:37:51Z</time>
      </trkpt>
      <trkpt lat="44.94509" lon="2.19666">
        <ele>587.5</ele>
        <time>2021-08-16T09:37:58Z</time>
      </trkpt>
      <trkpt lat="44.94502" lon="2.19659">
        <ele>588.95</ele>
        <time>2021-08-16T09:38:04Z</time>
      </trkpt>
      <trkpt lat="44.945" lon="2.19656">
        <ele>589.43</ele>
        <time>2021-08-16T09:38:12Z</time>
      </trkpt>
      <trkpt lat="44.94498" lon="2.19649">
        <ele>589.43</ele>
        <time>2021-08-16T09:38:19Z</time>
      </trkpt>
      <trkpt lat="44.94489" lon="2.19632">
        <ele>590.39</ele>
        <time>2021-08-16T09:38:27Z</time>
      </trkpt>
      <trkpt lat="44.94483" lon="2.19615">
        <ele>590.87</ele>
        <time>2021-08-16T09:38:34Z</time>
      </trkpt>
      <trkpt lat="44.94472" lon="2.1959">
        <ele>591.35</ele>
        <time>2021-08-16T09:38:44Z</time>
      </trkpt>
      <trkpt lat="44.94467" lon="2.19572">
        <ele>592.79</ele>
        <time>2021-08-16T09:38:52Z</time>
      </trkpt>
      <trkpt lat="44.94465" lon="2.19556">
        <ele>594.23</ele>
        <time>2021-08-16T09:39:00Z</time>
      </trkpt>
      <trkpt lat="44.94464" lon="2.19552">
        <ele>594.23</ele>
        <time>2021-08-16T09:39:02Z</time>
      </trkpt>
      <trkpt lat="44.94464" lon="2.19551">
        <ele>594.71</ele>
        <time>2021-08-16T09:39:03Z</time>
      </trkpt>
      <trkpt lat="44.94463" lon="2.19549">
        <ele>594.71</ele>
        <time>2021-08-16T09:39:04Z</time>
      </trkpt>
      <trkpt lat="44.9446" lon="2.19529">
        <ele>595.67</ele>
        <time>2021-08-16T09:39:14Z</time>
      </trkpt>
      <trkpt lat="44.94457" lon="2.19509">
        <ele>597.12</ele>
        <time>2021-08-16T09:39:23Z</time>
      </trkpt>
      <trkpt lat="44.94457" lon="2.19507">
        <ele>597.12</ele>
        <time>2021-08-16T09:39:24Z</time>
      </trkpt>
      <trkpt lat="44.94456" lon="2.19505">
        <ele>597.12</ele>
        <time>2021-08-16T09:39:25Z</time>
      </trkpt>
      <trkpt lat="44.94456" lon="2.19504">
        <ele>597.12</ele>
        <time>2021-08-16T09:39:26Z</time>
      </trkpt>
      <trkpt lat="44.94455" lon="2.19501">
        <ele>597.12</ele>
        <time>2021-08-16T09:39:27Z</time>
      </trkpt>
      <trkpt lat="44.94452" lon="2.19491">
        <ele>598.56</ele>
        <time>2021-08-16T09:39:32Z</time>
      </trkpt>
      <trkpt lat="44.94445" lon="2.19478">
        <ele>599.52</ele>
        <time>2021-08-16T09:39:41Z</time>
      </trkpt>
      <trkpt lat="44.94445" lon="2.19477">
        <ele>599.52</ele>
        <time>2021-08-16T09:39:42Z</time>
      </trkpt>
      <trkpt lat="44.9444" lon="2.19472">
        <ele>600.48</ele>
        <time>2021-08-16T09:39:47Z</time>
      </trkpt>
      <trkpt lat="44.94439" lon="2.19471">
        <ele>600.48</ele>
        <time>2021-08-16T09:39:48Z</time>
      </trkpt>
      <trkpt lat="44.94438" lon="2.19469">
        <ele>600.96</ele>
        <time>2021-08-16T09:39:49Z</time>
      </trkpt>
      <trkpt lat="44.94429" lon="2.1946">
        <ele>602.4</ele>
        <time>2021-08-16T09:39:58Z</time>
      </trkpt>
      <trkpt lat="44.9442" lon="2.19454">
        <ele>602.88</ele>
        <time>2021-08-16T09:40:05Z</time>
      </trkpt>
      <trkpt lat="44.94419" lon="2.19454">
        <ele>602.88</ele>
        <time>2021-08-16T09:40:06Z</time>
      </trkpt>
      <trkpt lat="44.94417" lon="2.19453">
        <ele>602.88</ele>
        <time>2021-08-16T09:40:07Z</time>
      </trkpt>
      <trkpt lat="44.94416" lon="2.19452">
        <ele>602.88</ele>
        <time>2021-08-16T09:40:08Z</time>
      </trkpt>
      <trkpt lat="44.94415" lon="2.19451">
        <ele>602.88</ele>
        <time>2021-08-16T09:40:09Z</time>
      </trkpt>
      <trkpt lat="44.94414" lon="2.1945">
        <ele>602.88</ele>
        <time>2021-08-16T09:40:10Z</time>
      </trkpt>
      <trkpt lat="44.94409" lon="2.19447">
        <ele>603.85</ele>
        <time>2021-08-16T09:40:14Z</time>
      </trkpt>
      <trkpt lat="44.94408" lon="2.19446">
        <ele>603.85</ele>
        <time>2021-08-16T09:40:15Z</time>
      </trkpt>
      <trkpt lat="44.94407" lon="2.19445">
        <ele>604.33</ele>
        <time>2021-08-16T09:40:16Z</time>
      </trkpt>
      <trkpt lat="44.94405" lon="2.19445">
        <ele>604.33</ele>
        <time>2021-08-16T09:40:17Z</time>
      </trkpt>
      <trkpt lat="44.94404" lon="2.19444">
        <ele>604.33</ele>
        <time>2021-08-16T09:40:18Z</time>
      </trkpt>
      <trkpt lat="44.94403" lon="2.19444">
        <ele>604.81</ele>
        <time>2021-08-16T09:40:19Z</time>
      </trkpt>
      <trkpt lat="44.94401" lon="2.19443">
        <ele>604.81</ele>
        <time>2021-08-16T09:40:20Z</time>
      </trkpt>
      <trkpt lat="44.944" lon="2.19443">
        <ele>605.29</ele>
        <time>2021-08-16T09:40:21Z</time>
      </trkpt>
      <trkpt lat="44.94399" lon="2.19442">
        <ele>605.29</ele>
        <time>2021-08-16T09:40:22Z</time>
      </trkpt>
      <trkpt lat="44.94398" lon="2.19441">
        <ele>605.77</ele>
        <time>2021-08-16T09:40:23Z</time>
      </trkpt>
      <trkpt lat="44.94397" lon="2.1944">
        <ele>605.77</ele>
        <time>2021-08-16T09:40:24Z</time>
      </trkpt>
      <trkpt lat="44.94396" lon="2.19439">
        <ele>605.77</ele>
        <time>2021-08-16T09:40:25Z</time>
      </trkpt>
      <trkpt lat="44.94395" lon="2.19438">
        <ele>606.25</ele>
        <time>2021-08-16T09:40:26Z</time>
      </trkpt>
      <trkpt lat="44.94394" lon="2.19438">
        <ele>606.25</ele>
        <time>2021-08-16T09:40:27Z</time>
      </trkpt>
      <trkpt lat="44.94386" lon="2.19432">
        <ele>608.17</ele>
        <time>2021-08-16T09:40:35Z</time>
      </trkpt>
      <trkpt lat="44.94377" lon="2.19423">
        <ele>609.61</ele>
        <time>2021-08-16T09:40:43Z</time>
      </trkpt>
      <trkpt lat="44.94372" lon="2.19408">
        <ele>610.09</ele>
        <time>2021-08-16T09:40:49Z</time>
      </trkpt>
      <trkpt lat="44.94367" lon="2.19386">
        <ele>610.09</ele>
        <time>2021-08-16T09:40:56Z</time>
      </trkpt>
      <trkpt lat="44.94367" lon="2.19363">
        <ele>610.09</ele>
        <time>2021-08-16T09:41:00Z</time>
      </trkpt>
      <trkpt lat="44.94367" lon="2.19357">
        <ele>608.65</ele>
        <time>2021-08-16T09:41:01Z</time>
      </trkpt>
      <trkpt lat="44.94369" lon="2.19352">
        <ele>608.65</ele>
        <time>2021-08-16T09:41:02Z</time>
      </trkpt>
      <trkpt lat="44.9437" lon="2.19346">
        <ele>608.65</ele>
        <time>2021-08-16T09:41:03Z</time>
      </trkpt>
      <trkpt lat="44.94378" lon="2.19309">
        <ele>607.21</ele>
        <time>2021-08-16T09:41:10Z</time>
      </trkpt>
      <trkpt lat="44.94376" lon="2.19277">
        <ele>605.77</ele>
        <time>2021-08-16T09:41:15Z</time>
      </trkpt>
      <trkpt lat="44.94375" lon="2.1927">
        <ele>605.77</ele>
        <time>2021-08-16T09:41:16Z</time>
      </trkpt>
      <trkpt lat="44.94374" lon="2.19263">
        <ele>605.77</ele>
        <time>2021-08-16T09:41:17Z</time>
      </trkpt>
      <trkpt lat="44.94372" lon="2.19258">
        <ele>605.77</ele>
        <time>2021-08-16T09:41:18Z</time>
      </trkpt>
      <trkpt lat="44.9437" lon="2.19252">
        <ele>605.77</ele>
        <time>2021-08-16T09:41:19Z</time>
      </trkpt>
      <trkpt lat="44.94368" lon="2.19248">
        <ele>605.77</ele>
        <time>2021-08-16T09:41:20Z</time>
      </trkpt>
      <trkpt lat="44.94365" lon="2.19243">
        <ele>605.77</ele>
        <time>2021-08-16T09:41:21Z</time>
      </trkpt>
      <trkpt lat="44.94363" lon="2.1924">
        <ele>605.77</ele>
        <time>2021-08-16T09:41:22Z</time>
      </trkpt>
      <trkpt lat="44.94359" lon="2.19237">
        <ele>606.25</ele>
        <time>2021-08-16T09:41:23Z</time>
      </trkpt>
      <trkpt lat="44.94357" lon="2.19234">
        <ele>606.25</ele>
        <time>2021-08-16T09:41:24Z</time>
      </trkpt>
      <trkpt lat="44.94345" lon="2.19221">
        <ele>606.25</ele>
        <time>2021-08-16T09:41:30Z</time>
      </trkpt>
      <trkpt lat="44.94345" lon="2.19219">
        <ele>607.21</ele>
        <time>2021-08-16T09:41:31Z</time>
      </trkpt>
      <trkpt lat="44.94345" lon="2.19218">
        <ele>607.21</ele>
        <time>2021-08-16T09:41:32Z</time>
      </trkpt>
      <trkpt lat="44.9434" lon="2.19206">
        <ele>609.13</ele>
        <time>2021-08-16T09:41:40Z</time>
      </trkpt>
      <trkpt lat="44.9434" lon="2.19204">
        <ele>609.13</ele>
        <time>2021-08-16T09:41:41Z</time>
      </trkpt>
      <trkpt lat="44.94339" lon="2.19203">
        <ele>609.13</ele>
        <time>2021-08-16T09:41:42Z</time>
      </trkpt>
      <trkpt lat="44.94339" lon="2.19201">
        <ele>609.13</ele>
        <time>2021-08-16T09:41:43Z</time>
      </trkpt>
      <trkpt lat="44.94339" lon="2.192">
        <ele>609.61</ele>
        <time>2021-08-16T09:41:44Z</time>
      </trkpt>
      <trkpt lat="44.94338" lon="2.19198">
        <ele>609.61</ele>
        <time>2021-08-16T09:41:45Z</time>
      </trkpt>
      <trkpt lat="44.94337" lon="2.19197">
        <ele>609.61</ele>
        <time>2021-08-16T09:41:46Z</time>
      </trkpt>
      <trkpt lat="44.94336" lon="2.19195">
        <ele>610.09</ele>
        <time>2021-08-16T09:41:47Z</time>
      </trkpt>
      <trkpt lat="44.94336" lon="2.19193">
        <ele>610.09</ele>
        <time>2021-08-16T09:41:48Z</time>
      </trkpt>
      <trkpt lat="44.9433" lon="2.19186">
        <ele>612.02</ele>
        <time>2021-08-16T09:41:55Z</time>
      </trkpt>
      <trkpt lat="44.94326" lon="2.19179">
        <ele>612.98</ele>
        <time>2021-08-16T09:42:02Z</time>
      </trkpt>
      <trkpt lat="44.94321" lon="2.19165">
        <ele>614.9</ele>
        <time>2021-08-16T09:42:10Z</time>
      </trkpt>
      <trkpt lat="44.94314" lon="2.19145">
        <ele>616.34</ele>
        <time>2021-08-16T09:42:19Z</time>
      </trkpt>
      <trkpt lat="44.94307" lon="2.19119">
        <ele>616.82</ele>
        <time>2021-08-16T09:42:27Z</time>
      </trkpt>
      <trkpt lat="44.94305" lon="2.19109">
        <ele>615.38</ele>
        <time>2021-08-16T09:42:29Z</time>
      </trkpt>
      <trkpt lat="44.94304" lon="2.19081">
        <ele>613.94</ele>
        <time>2021-08-16T09:42:34Z</time>
      </trkpt>
      <trkpt lat="44.94304" lon="2.19075">
        <ele>612.98</ele>
        <time>2021-08-16T09:42:35Z</time>
      </trkpt>
      <trkpt lat="44.94305" lon="2.19066">
        <ele>612.98</ele>
        <time>2021-08-16T09:42:36Z</time>
      </trkpt>
      <trkpt lat="44.94308" lon="2.1903">
        <ele>610.57</ele>
        <time>2021-08-16T09:42:40Z</time>
      </trkpt>
      <trkpt lat="44.94307" lon="2.19021">
        <ele>610.57</ele>
        <time>2021-08-16T09:42:41Z</time>
      </trkpt>
      <trkpt lat="44.94306" lon="2.19013">
        <ele>610.09</ele>
        <time>2021-08-16T09:42:42Z</time>
      </trkpt>
      <trkpt lat="44.94305" lon="2.19005">
        <ele>610.09</ele>
        <time>2021-08-16T09:42:43Z</time>
      </trkpt>
      <trkpt lat="44.94305" lon="2.18997">
        <ele>610.09</ele>
        <time>2021-08-16T09:42:44Z</time>
      </trkpt>
      <trkpt lat="44.94306" lon="2.18991">
        <ele>610.09</ele>
        <time>2021-08-16T09:42:45Z</time>
      </trkpt>
      <trkpt lat="44.94307" lon="2.18986">
        <ele>611.54</ele>
        <time>2021-08-16T09:42:46Z</time>
      </trkpt>
      <trkpt lat="44.9431" lon="2.18972">
        <ele>612.98</ele>
        <time>2021-08-16T09:42:52Z</time>
      </trkpt>
      <trkpt lat="44.94315" lon="2.18958">
        <ele>614.9</ele>
        <time>2021-08-16T09:42:59Z</time>
      </trkpt>
      <trkpt lat="44.94316" lon="2.18956">
        <ele>614.9</ele>
        <time>2021-08-16T09:43:00Z</time>
      </trkpt>
      <trkpt lat="44.94321" lon="2.18934">
        <ele>616.82</ele>
        <time>2021-08-16T09:43:10Z</time>
      </trkpt>
      <trkpt lat="44.9433" lon="2.18913">
        <ele>618.26</ele>
        <time>2021-08-16T09:43:21Z</time>
      </trkpt>
      <trkpt lat="44.94338" lon="2.18901">
        <ele>619.71</ele>
        <time>2021-08-16T09:43:29Z</time>
      </trkpt>
      <trkpt lat="44.94353" lon="2.18887">
        <ele>621.15</ele>
        <time>2021-08-16T09:43:39Z</time>
      </trkpt>
      <trkpt lat="44.94368" lon="2.18873">
        <ele>622.59</ele>
        <time>2021-08-16T09:43:49Z</time>
      </trkpt>
      <trkpt lat="44.94381" lon="2.18857">
        <ele>623.55</ele>
        <time>2021-08-16T09:43:58Z</time>
      </trkpt>
      <trkpt lat="44.94397" lon="2.18838">
        <ele>624.51</ele>
        <time>2021-08-16T09:44:08Z</time>
      </trkpt>
      <trkpt lat="44.94414" lon="2.18823">
        <ele>625.47</ele>
        <time>2021-08-16T09:44:18Z</time>
      </trkpt>
      <trkpt lat="44.94416" lon="2.1882">
        <ele>625.96</ele>
        <time>2021-08-16T09:44:20Z</time>
      </trkpt>
      <trkpt lat="44.94418" lon="2.18819">
        <ele>625.96</ele>
        <time>2021-08-16T09:44:21Z</time>
      </trkpt>
      <trkpt lat="44.94419" lon="2.18817">
        <ele>626.92</ele>
        <time>2021-08-16T09:44:22Z</time>
      </trkpt>
      <trkpt lat="44.94434" lon="2.18801">
        <ele>628.84</ele>
        <time>2021-08-16T09:44:31Z</time>
      </trkpt>
      <trkpt lat="44.94448" lon="2.18786">
        <ele>630.28</ele>
        <time>2021-08-16T09:44:39Z</time>
      </trkpt>
      <trkpt lat="44.94463" lon="2.1877">
        <ele>631.24</ele>
        <time>2021-08-16T09:44:48Z</time>
      </trkpt>
      <trkpt lat="44.94475" lon="2.18752">
        <ele>632.2</ele>
        <time>2021-08-16T09:44:56Z</time>
      </trkpt>
      <trkpt lat="44.94489" lon="2.18729">
        <ele>632.68</ele>
        <time>2021-08-16T09:45:04Z</time>
      </trkpt>
      <trkpt lat="44.94498" lon="2.187">
        <ele>632.68</ele>
        <time>2021-08-16T09:45:12Z</time>
      </trkpt>
      <trkpt lat="44.945" lon="2.18663">
        <ele>632.68</ele>
        <time>2021-08-16T09:45:21Z</time>
      </trkpt>
      <trkpt lat="44.94502" lon="2.18636">
        <ele>632.68</ele>
        <time>2021-08-16T09:45:28Z</time>
      </trkpt>
      <trkpt lat="44.94505" lon="2.186">
        <ele>632.68</ele>
        <time>2021-08-16T09:45:37Z</time>
      </trkpt>
      <trkpt lat="44.945" lon="2.18559">
        <ele>633.65</ele>
        <time>2021-08-16T09:45:45Z</time>
      </trkpt>
      <trkpt lat="44.94494" lon="2.18506">
        <ele>633.65</ele>
        <time>2021-08-16T09:45:55Z</time>
      </trkpt>
      <trkpt lat="44.94488" lon="2.18456">
        <ele>633.65</ele>
        <time>2021-08-16T09:46:04Z</time>
      </trkpt>
      <trkpt lat="44.94482" lon="2.18395">
        <ele>634.13</ele>
        <time>2021-08-16T09:46:15Z</time>
      </trkpt>
      <trkpt lat="44.94483" lon="2.18349">
        <ele>635.09</ele>
        <time>2021-08-16T09:46:24Z</time>
      </trkpt>
      <trkpt lat="44.94488" lon="2.1832">
        <ele>635.57</ele>
        <time>2021-08-16T09:46:31Z</time>
      </trkpt>
      <trkpt lat="44.94493" lon="2.18288">
        <ele>636.53</ele>
        <time>2021-08-16T09:46:38Z</time>
      </trkpt>
      <trkpt lat="44.94507" lon="2.18242">
        <ele>636.53</ele>
        <time>2021-08-16T09:46:46Z</time>
      </trkpt>
      <trkpt lat="44.94511" lon="2.1823">
        <ele>635.09</ele>
        <time>2021-08-16T09:46:48Z</time>
      </trkpt>
      <trkpt lat="44.94527" lon="2.18178">
        <ele>635.09</ele>
        <time>2021-08-16T09:46:57Z</time>
      </trkpt>
      <trkpt lat="44.94528" lon="2.18172">
        <ele>635.09</ele>
        <time>2021-08-16T09:46:58Z</time>
      </trkpt>
      <trkpt lat="44.94533" lon="2.18135">
        <ele>635.09</ele>
        <time>2021-08-16T09:47:04Z</time>
      </trkpt>
      <trkpt lat="44.94534" lon="2.18129">
        <ele>635.09</ele>
        <time>2021-08-16T09:47:05Z</time>
      </trkpt>
      <trkpt lat="44.94539" lon="2.18094">
        <ele>636.53</ele>
        <time>2021-08-16T09:47:11Z</time>
      </trkpt>
      <trkpt lat="44.94544" lon="2.18072">
        <ele>636.05</ele>
        <time>2021-08-16T09:47:15Z</time>
      </trkpt>
      <trkpt lat="44.94555" lon="2.18039">
        <ele>637.49</ele>
        <time>2021-08-16T09:47:22Z</time>
      </trkpt>
      <trkpt lat="44.94569" lon="2.17999">
        <ele>638.45</ele>
        <time>2021-08-16T09:47:31Z</time>
      </trkpt>
      <trkpt lat="44.94575" lon="2.17966">
        <ele>639.89</ele>
        <time>2021-08-16T09:47:39Z</time>
      </trkpt>
      <trkpt lat="44.9458" lon="2.17927">
        <ele>640.86</ele>
        <time>2021-08-16T09:47:48Z</time>
      </trkpt>
      <trkpt lat="44.94595" lon="2.1789">
        <ele>640.86</ele>
        <time>2021-08-16T09:47:56Z</time>
      </trkpt>
      <trkpt lat="44.94615" lon="2.17864">
        <ele>643.26</ele>
        <time>2021-08-16T09:48:05Z</time>
      </trkpt>
      <trkpt lat="44.94643" lon="2.17843">
        <ele>645.18</ele>
        <time>2021-08-16T09:48:16Z</time>
      </trkpt>
      <trkpt lat="44.9467" lon="2.17828">
        <ele>646.62</ele>
        <time>2021-08-16T09:48:26Z</time>
      </trkpt>
      <trkpt lat="44.94694" lon="2.17812">
        <ele>648.07</ele>
        <time>2021-08-16T09:48:35Z</time>
      </trkpt>
      <trkpt lat="44.94714" lon="2.17793">
        <ele>649.03</ele>
        <time>2021-08-16T09:48:43Z</time>
      </trkpt>
      <trkpt lat="44.94739" lon="2.17771">
        <ele>650.47</ele>
        <time>2021-08-16T09:48:53Z</time>
      </trkpt>
      <trkpt lat="44.94768" lon="2.17752">
        <ele>651.91</ele>
        <time>2021-08-16T09:49:04Z</time>
      </trkpt>
      <trkpt lat="44.94794" lon="2.17746">
        <ele>653.83</ele>
        <time>2021-08-16T09:49:13Z</time>
      </trkpt>
      <trkpt lat="44.94815" lon="2.17748">
        <ele>653.83</ele>
        <time>2021-08-16T09:49:19Z</time>
      </trkpt>
      <trkpt lat="44.94845" lon="2.17755">
        <ele>653.83</ele>
        <time>2021-08-16T09:49:26Z</time>
      </trkpt>
      <trkpt lat="44.94894" lon="2.17767">
        <ele>653.83</ele>
        <time>2021-08-16T09:49:36Z</time>
      </trkpt>
      <trkpt lat="44.94946" lon="2.17781">
        <ele>652.39</ele>
        <time>2021-08-16T09:49:46Z</time>
      </trkpt>
      <trkpt lat="44.94994" lon="2.17798">
        <ele>649.51</ele>
        <time>2021-08-16T09:49:54Z</time>
      </trkpt>
      <trkpt lat="44.95007" lon="2.17806">
        <ele>648.55</ele>
        <time>2021-08-16T09:49:56Z</time>
      </trkpt>
      <trkpt lat="44.95013" lon="2.17812">
        <ele>648.55</ele>
        <time>2021-08-16T09:49:57Z</time>
      </trkpt>
      <trkpt lat="44.95019" lon="2.17818">
        <ele>648.55</ele>
        <time>2021-08-16T09:49:58Z</time>
      </trkpt>
      <trkpt lat="44.95026" lon="2.17822">
        <ele>647.59</ele>
        <time>2021-08-16T09:49:59Z</time>
      </trkpt>
      <trkpt lat="44.95034" lon="2.17825">
        <ele>646.62</ele>
        <time>2021-08-16T09:50:00Z</time>
      </trkpt>
      <trkpt lat="44.95041" lon="2.17827">
        <ele>645.66</ele>
        <time>2021-08-16T09:50:01Z</time>
      </trkpt>
      <trkpt lat="44.95093" lon="2.17844">
        <ele>642.78</ele>
        <time>2021-08-16T09:50:08Z</time>
      </trkpt>
      <trkpt lat="44.95098" lon="2.17848">
        <ele>642.3</ele>
        <time>2021-08-16T09:50:09Z</time>
      </trkpt>
      <trkpt lat="44.95103" lon="2.17853">
        <ele>641.34</ele>
        <time>2021-08-16T09:50:10Z</time>
      </trkpt>
      <trkpt lat="44.95106" lon="2.17859">
        <ele>641.34</ele>
        <time>2021-08-16T09:50:11Z</time>
      </trkpt>
      <trkpt lat="44.95107" lon="2.17864">
        <ele>640.86</ele>
        <time>2021-08-16T09:50:12Z</time>
      </trkpt>
      <trkpt lat="44.95109" lon="2.17871">
        <ele>639.89</ele>
        <time>2021-08-16T09:50:13Z</time>
      </trkpt>
      <trkpt lat="44.9511" lon="2.17878">
        <ele>639.41</ele>
        <time>2021-08-16T09:50:14Z</time>
      </trkpt>
      <trkpt lat="44.95112" lon="2.17884">
        <ele>638.93</ele>
        <time>2021-08-16T09:50:15Z</time>
      </trkpt>
      <trkpt lat="44.95115" lon="2.1789">
        <ele>637.97</ele>
        <time>2021-08-16T09:50:16Z</time>
      </trkpt>
      <trkpt lat="44.95118" lon="2.17896">
        <ele>637.97</ele>
        <time>2021-08-16T09:50:17Z</time>
      </trkpt>
      <trkpt lat="44.95127" lon="2.17908">
        <ele>637.01</ele>
        <time>2021-08-16T09:50:19Z</time>
      </trkpt>
      <trkpt lat="44.95132" lon="2.17912">
        <ele>637.01</ele>
        <time>2021-08-16T09:50:20Z</time>
      </trkpt>
      <trkpt lat="44.95144" lon="2.17919">
        <ele>636.05</ele>
        <time>2021-08-16T09:50:22Z</time>
      </trkpt>
      <trkpt lat="44.95171" lon="2.17937">
        <ele>635.09</ele>
        <time>2021-08-16T09:50:27Z</time>
      </trkpt>
      <trkpt lat="44.95203" lon="2.17968">
        <ele>633.17</ele>
        <time>2021-08-16T09:50:33Z</time>
      </trkpt>
      <trkpt lat="44.95245" lon="2.17995">
        <ele>632.68</ele>
        <time>2021-08-16T09:50:40Z</time>
      </trkpt>
      <trkpt lat="44.9527" lon="2.18012">
        <ele>632.2</ele>
        <time>2021-08-16T09:50:44Z</time>
      </trkpt>
      <trkpt lat="44.95301" lon="2.18051">
        <ele>630.76</ele>
        <time>2021-08-16T09:50:51Z</time>
      </trkpt>
      <trkpt lat="44.95308" lon="2.18063">
        <ele>630.76</ele>
        <time>2021-08-16T09:50:53Z</time>
      </trkpt>
      <trkpt lat="44.95313" lon="2.18068">
        <ele>630.28</ele>
        <time>2021-08-16T09:50:54Z</time>
      </trkpt>
      <trkpt lat="44.95317" lon="2.18071">
        <ele>629.32</ele>
        <time>2021-08-16T09:50:55Z</time>
      </trkpt>
      <trkpt lat="44.95333" lon="2.18083">
        <ele>626.44</ele>
        <time>2021-08-16T09:50:58Z</time>
      </trkpt>
      <trkpt lat="44.95345" lon="2.18093">
        <ele>624.03</ele>
        <time>2021-08-16T09:51:00Z</time>
      </trkpt>
      <trkpt lat="44.95351" lon="2.18098">
        <ele>623.55</ele>
        <time>2021-08-16T09:51:01Z</time>
      </trkpt>
      <trkpt lat="44.95358" lon="2.18102">
        <ele>623.55</ele>
        <time>2021-08-16T09:51:02Z</time>
      </trkpt>
      <trkpt lat="44.95364" lon="2.18104">
        <ele>623.07</ele>
        <time>2021-08-16T09:51:03Z</time>
      </trkpt>
      <trkpt lat="44.95372" lon="2.18106">
        <ele>622.11</ele>
        <time>2021-08-16T09:51:04Z</time>
      </trkpt>
      <trkpt lat="44.95387" lon="2.1811">
        <ele>621.63</ele>
        <time>2021-08-16T09:51:06Z</time>
      </trkpt>
      <trkpt lat="44.95392" lon="2.18114">
        <ele>621.15</ele>
        <time>2021-08-16T09:51:07Z</time>
      </trkpt>
      <trkpt lat="44.95399" lon="2.18119">
        <ele>620.19</ele>
        <time>2021-08-16T09:51:08Z</time>
      </trkpt>
      <trkpt lat="44.95404" lon="2.18124">
        <ele>620.19</ele>
        <time>2021-08-16T09:51:09Z</time>
      </trkpt>
      <trkpt lat="44.9541" lon="2.1813">
        <ele>619.71</ele>
        <time>2021-08-16T09:51:10Z</time>
      </trkpt>
      <trkpt lat="44.95415" lon="2.18137">
        <ele>619.71</ele>
        <time>2021-08-16T09:51:11Z</time>
      </trkpt>
      <trkpt lat="44.95421" lon="2.18143">
        <ele>618.75</ele>
        <time>2021-08-16T09:51:12Z</time>
      </trkpt>
      <trkpt lat="44.95427" lon="2.18148">
        <ele>618.75</ele>
        <time>2021-08-16T09:51:13Z</time>
      </trkpt>
      <trkpt lat="44.95434" lon="2.18152">
        <ele>617.78</ele>
        <time>2021-08-16T09:51:14Z</time>
      </trkpt>
      <trkpt lat="44.95441" lon="2.18155">
        <ele>616.82</ele>
        <time>2021-08-16T09:51:15Z</time>
      </trkpt>
      <trkpt lat="44.95448" lon="2.18158">
        <ele>616.82</ele>
        <time>2021-08-16T09:51:16Z</time>
      </trkpt>
      <trkpt lat="44.95495" lon="2.18186">
        <ele>615.38</ele>
        <time>2021-08-16T09:51:23Z</time>
      </trkpt>
      <trkpt lat="44.95502" lon="2.18188">
        <ele>615.86</ele>
        <time>2021-08-16T09:51:24Z</time>
      </trkpt>
      <trkpt lat="44.95509" lon="2.18189">
        <ele>614.9</ele>
        <time>2021-08-16T09:51:25Z</time>
      </trkpt>
      <trkpt lat="44.9555" lon="2.18195">
        <ele>614.42</ele>
        <time>2021-08-16T09:51:31Z</time>
      </trkpt>
      <trkpt lat="44.95564" lon="2.18192">
        <ele>612.98</ele>
        <time>2021-08-16T09:51:33Z</time>
      </trkpt>
      <trkpt lat="44.95571" lon="2.1819">
        <ele>612.5</ele>
        <time>2021-08-16T09:51:34Z</time>
      </trkpt>
      <trkpt lat="44.95578" lon="2.18187">
        <ele>612.02</ele>
        <time>2021-08-16T09:51:35Z</time>
      </trkpt>
      <trkpt lat="44.95618" lon="2.18164">
        <ele>610.09</ele>
        <time>2021-08-16T09:51:41Z</time>
      </trkpt>
      <trkpt lat="44.95645" lon="2.18145">
        <ele>608.17</ele>
        <time>2021-08-16T09:51:45Z</time>
      </trkpt>
      <trkpt lat="44.95653" lon="2.18141">
        <ele>606.73</ele>
        <time>2021-08-16T09:51:46Z</time>
      </trkpt>
      <trkpt lat="44.95659" lon="2.18139">
        <ele>606.25</ele>
        <time>2021-08-16T09:51:47Z</time>
      </trkpt>
      <trkpt lat="44.95677" lon="2.18133">
        <ele>602.88</ele>
        <time>2021-08-16T09:51:50Z</time>
      </trkpt>
      <trkpt lat="44.95682" lon="2.18129">
        <ele>601.44</ele>
        <time>2021-08-16T09:51:51Z</time>
      </trkpt>
      <trkpt lat="44.95688" lon="2.18124">
        <ele>600</ele>
        <time>2021-08-16T09:51:52Z</time>
      </trkpt>
      <trkpt lat="44.95694" lon="2.1812">
        <ele>598.56</ele>
        <time>2021-08-16T09:51:53Z</time>
      </trkpt>
      <trkpt lat="44.95701" lon="2.18117">
        <ele>597.6</ele>
        <time>2021-08-16T09:51:54Z</time>
      </trkpt>
      <trkpt lat="44.95708" lon="2.18116">
        <ele>596.64</ele>
        <time>2021-08-16T09:51:55Z</time>
      </trkpt>
      <trkpt lat="44.95715" lon="2.18115">
        <ele>595.19</ele>
        <time>2021-08-16T09:51:56Z</time>
      </trkpt>
      <trkpt lat="44.95729" lon="2.18116">
        <ele>593.27</ele>
        <time>2021-08-16T09:51:58Z</time>
      </trkpt>
      <trkpt lat="44.95749" lon="2.18121">
        <ele>589.91</ele>
        <time>2021-08-16T09:52:01Z</time>
      </trkpt>
      <trkpt lat="44.95763" lon="2.18126">
        <ele>587.5</ele>
        <time>2021-08-16T09:52:03Z</time>
      </trkpt>
      <trkpt lat="44.9577" lon="2.18129">
        <ele>586.54</ele>
        <time>2021-08-16T09:52:04Z</time>
      </trkpt>
      <trkpt lat="44.9579" lon="2.18139">
        <ele>583.66</ele>
        <time>2021-08-16T09:52:07Z</time>
      </trkpt>
      <trkpt lat="44.95807" lon="2.18144">
        <ele>582.7</ele>
        <time>2021-08-16T09:52:09Z</time>
      </trkpt>
      <trkpt lat="44.95815" lon="2.18145">
        <ele>581.73</ele>
        <time>2021-08-16T09:52:10Z</time>
      </trkpt>
      <trkpt lat="44.95834" lon="2.18144">
        <ele>581.25</ele>
        <time>2021-08-16T09:52:12Z</time>
      </trkpt>
      <trkpt lat="44.95843" lon="2.18145">
        <ele>580.77</ele>
        <time>2021-08-16T09:52:13Z</time>
      </trkpt>
      <trkpt lat="44.95851" lon="2.18148">
        <ele>580.77</ele>
        <time>2021-08-16T09:52:14Z</time>
      </trkpt>
      <trkpt lat="44.9586" lon="2.18154">
        <ele>580.29</ele>
        <time>2021-08-16T09:52:15Z</time>
      </trkpt>
      <trkpt lat="44.95869" lon="2.1816">
        <ele>579.33</ele>
        <time>2021-08-16T09:52:16Z</time>
      </trkpt>
      <trkpt lat="44.95876" lon="2.18164">
        <ele>579.33</ele>
        <time>2021-08-16T09:52:17Z</time>
      </trkpt>
      <trkpt lat="44.95885" lon="2.18169">
        <ele>578.85</ele>
        <time>2021-08-16T09:52:18Z</time>
      </trkpt>
      <trkpt lat="44.95893" lon="2.18173">
        <ele>578.37</ele>
        <time>2021-08-16T09:52:19Z</time>
      </trkpt>
      <trkpt lat="44.959" lon="2.18177">
        <ele>577.89</ele>
        <time>2021-08-16T09:52:20Z</time>
      </trkpt>
      <trkpt lat="44.95915" lon="2.18185">
        <ele>575.97</ele>
        <time>2021-08-16T09:52:22Z</time>
      </trkpt>
      <trkpt lat="44.95921" lon="2.1819">
        <ele>575.01</ele>
        <time>2021-08-16T09:52:23Z</time>
      </trkpt>
      <trkpt lat="44.95946" lon="2.18219">
        <ele>571.64</ele>
        <time>2021-08-16T09:52:27Z</time>
      </trkpt>
      <trkpt lat="44.95968" lon="2.18247">
        <ele>567.8</ele>
        <time>2021-08-16T09:52:30Z</time>
      </trkpt>
      <trkpt lat="44.95976" lon="2.18254">
        <ele>566.83</ele>
        <time>2021-08-16T09:52:31Z</time>
      </trkpt>
      <trkpt lat="44.95982" lon="2.18259">
        <ele>565.39</ele>
        <time>2021-08-16T09:52:32Z</time>
      </trkpt>
      <trkpt lat="44.95992" lon="2.18264">
        <ele>563.95</ele>
        <time>2021-08-16T09:52:33Z</time>
      </trkpt>
      <trkpt lat="44.96001" lon="2.18268">
        <ele>562.99</ele>
        <time>2021-08-16T09:52:34Z</time>
      </trkpt>
      <trkpt lat="44.96008" lon="2.18272">
        <ele>561.55</ele>
        <time>2021-08-16T09:52:35Z</time>
      </trkpt>
      <trkpt lat="44.96017" lon="2.18278">
        <ele>560.11</ele>
        <time>2021-08-16T09:52:36Z</time>
      </trkpt>
      <trkpt lat="44.96036" lon="2.18289">
        <ele>556.74</ele>
        <time>2021-08-16T09:52:39Z</time>
      </trkpt>
      <trkpt lat="44.96041" lon="2.18293">
        <ele>555.3</ele>
        <time>2021-08-16T09:52:40Z</time>
      </trkpt>
      <trkpt lat="44.96046" lon="2.18299">
        <ele>553.86</ele>
        <time>2021-08-16T09:52:41Z</time>
      </trkpt>
      <trkpt lat="44.96052" lon="2.18307">
        <ele>552.41</ele>
        <time>2021-08-16T09:52:42Z</time>
      </trkpt>
      <trkpt lat="44.96071" lon="2.18334">
        <ele>548.09</ele>
        <time>2021-08-16T09:52:45Z</time>
      </trkpt>
      <trkpt lat="44.96077" lon="2.18341">
        <ele>548.09</ele>
        <time>2021-08-16T09:52:46Z</time>
      </trkpt>
      <trkpt lat="44.96084" lon="2.18347">
        <ele>546.65</ele>
        <time>2021-08-16T09:52:47Z</time>
      </trkpt>
      <trkpt lat="44.96092" lon="2.18352">
        <ele>546.17</ele>
        <time>2021-08-16T09:52:48Z</time>
      </trkpt>
      <trkpt lat="44.961" lon="2.18355">
        <ele>545.69</ele>
        <time>2021-08-16T09:52:49Z</time>
      </trkpt>
      <trkpt lat="44.9611" lon="2.18359">
        <ele>545.2</ele>
        <time>2021-08-16T09:52:50Z</time>
      </trkpt>
      <trkpt lat="44.96136" lon="2.18369">
        <ele>541.36</ele>
        <time>2021-08-16T09:52:53Z</time>
      </trkpt>
      <trkpt lat="44.9616" lon="2.18384">
        <ele>537.51</ele>
        <time>2021-08-16T09:52:56Z</time>
      </trkpt>
      <trkpt lat="44.96178" lon="2.18399">
        <ele>534.15</ele>
        <time>2021-08-16T09:52:58Z</time>
      </trkpt>
      <trkpt lat="44.96198" lon="2.18413">
        <ele>531.27</ele>
        <time>2021-08-16T09:53:00Z</time>
      </trkpt>
      <trkpt lat="44.96227" lon="2.18432">
        <ele>529.82</ele>
        <time>2021-08-16T09:53:03Z</time>
      </trkpt>
      <trkpt lat="44.96284" lon="2.18469">
        <ele>528.38</ele>
        <time>2021-08-16T09:53:09Z</time>
      </trkpt>
      <trkpt lat="44.96309" lon="2.18486">
        <ele>528.38</ele>
        <time>2021-08-16T09:53:12Z</time>
      </trkpt>
      <trkpt lat="44.96316" lon="2.18493">
        <ele>528.38</ele>
        <time>2021-08-16T09:53:13Z</time>
      </trkpt>
      <trkpt lat="44.96323" lon="2.18501">
        <ele>527.9</ele>
        <time>2021-08-16T09:53:14Z</time>
      </trkpt>
      <trkpt lat="44.96329" lon="2.1851">
        <ele>527.9</ele>
        <time>2021-08-16T09:53:15Z</time>
      </trkpt>
      <trkpt lat="44.96334" lon="2.18519">
        <ele>527.9</ele>
        <time>2021-08-16T09:53:16Z</time>
      </trkpt>
      <trkpt lat="44.96338" lon="2.18529">
        <ele>527.42</ele>
        <time>2021-08-16T09:53:17Z</time>
      </trkpt>
      <trkpt lat="44.96348" lon="2.18545">
        <ele>527.42</ele>
        <time>2021-08-16T09:53:19Z</time>
      </trkpt>
      <trkpt lat="44.96358" lon="2.18559">
        <ele>527.42</ele>
        <time>2021-08-16T09:53:21Z</time>
      </trkpt>
      <trkpt lat="44.96384" lon="2.18581">
        <ele>527.42</ele>
        <time>2021-08-16T09:53:26Z</time>
      </trkpt>
      <trkpt lat="44.96389" lon="2.18583">
        <ele>527.42</ele>
        <time>2021-08-16T09:53:27Z</time>
      </trkpt>
      <trkpt lat="44.964" lon="2.18586">
        <ele>527.42</ele>
        <time>2021-08-16T09:53:29Z</time>
      </trkpt>
      <trkpt lat="44.96435" lon="2.18595">
        <ele>528.38</ele>
        <time>2021-08-16T09:53:36Z</time>
      </trkpt>
      <trkpt lat="44.96448" lon="2.186">
        <ele>528.38</ele>
        <time>2021-08-16T09:53:39Z</time>
      </trkpt>
      <trkpt lat="44.96453" lon="2.18603">
        <ele>528.38</ele>
        <time>2021-08-16T09:53:40Z</time>
      </trkpt>
      <trkpt lat="44.96463" lon="2.1861">
        <ele>528.38</ele>
        <time>2021-08-16T09:53:42Z</time>
      </trkpt>
      <trkpt lat="44.96494" lon="2.18629">
        <ele>525.02</ele>
        <time>2021-08-16T09:53:47Z</time>
      </trkpt>
      <trkpt lat="44.96524" lon="2.18649">
        <ele>522.13</ele>
        <time>2021-08-16T09:53:51Z</time>
      </trkpt>
      <trkpt lat="44.96538" lon="2.18661">
        <ele>520.21</ele>
        <time>2021-08-16T09:53:53Z</time>
      </trkpt>
      <trkpt lat="44.96544" lon="2.18668">
        <ele>519.25</ele>
        <time>2021-08-16T09:53:54Z</time>
      </trkpt>
      <trkpt lat="44.96569" lon="2.18697">
        <ele>517.81</ele>
        <time>2021-08-16T09:53:58Z</time>
      </trkpt>
      <trkpt lat="44.96573" lon="2.18704">
        <ele>516.85</ele>
        <time>2021-08-16T09:53:59Z</time>
      </trkpt>
      <trkpt lat="44.96577" lon="2.18711">
        <ele>516.37</ele>
        <time>2021-08-16T09:54:00Z</time>
      </trkpt>
      <trkpt lat="44.96581" lon="2.18719">
        <ele>515.88</ele>
        <time>2021-08-16T09:54:01Z</time>
      </trkpt>
      <trkpt lat="44.96583" lon="2.18728">
        <ele>515.4</ele>
        <time>2021-08-16T09:54:02Z</time>
      </trkpt>
      <trkpt lat="44.96585" lon="2.18735">
        <ele>515.4</ele>
        <time>2021-08-16T09:54:03Z</time>
      </trkpt>
      <trkpt lat="44.96586" lon="2.18743">
        <ele>514.92</ele>
        <time>2021-08-16T09:54:04Z</time>
      </trkpt>
      <trkpt lat="44.96586" lon="2.18752">
        <ele>514.44</ele>
        <time>2021-08-16T09:54:05Z</time>
      </trkpt>
      <trkpt lat="44.96586" lon="2.1876">
        <ele>513.96</ele>
        <time>2021-08-16T09:54:06Z</time>
      </trkpt>
      <trkpt lat="44.96584" lon="2.18769">
        <ele>513</ele>
        <time>2021-08-16T09:54:07Z</time>
      </trkpt>
      <trkpt lat="44.96582" lon="2.18778">
        <ele>512.04</ele>
        <time>2021-08-16T09:54:08Z</time>
      </trkpt>
      <trkpt lat="44.96578" lon="2.18788">
        <ele>510.6</ele>
        <time>2021-08-16T09:54:09Z</time>
      </trkpt>
      <trkpt lat="44.96572" lon="2.18808">
        <ele>509.16</ele>
        <time>2021-08-16T09:54:11Z</time>
      </trkpt>
      <trkpt lat="44.96562" lon="2.18829">
        <ele>507.71</ele>
        <time>2021-08-16T09:54:13Z</time>
      </trkpt>
      <trkpt lat="44.96559" lon="2.18837">
        <ele>507.71</ele>
        <time>2021-08-16T09:54:14Z</time>
      </trkpt>
      <trkpt lat="44.96549" lon="2.18862">
        <ele>506.27</ele>
        <time>2021-08-16T09:54:18Z</time>
      </trkpt>
      <trkpt lat="44.96546" lon="2.1887">
        <ele>505.79</ele>
        <time>2021-08-16T09:54:19Z</time>
      </trkpt>
      <trkpt lat="44.96541" lon="2.18888">
        <ele>504.83</ele>
        <time>2021-08-16T09:54:21Z</time>
      </trkpt>
      <trkpt lat="44.96537" lon="2.18929">
        <ele>502.91</ele>
        <time>2021-08-16T09:54:26Z</time>
      </trkpt>
      <trkpt lat="44.96532" lon="2.18954">
        <ele>499.06</ele>
        <time>2021-08-16T09:54:30Z</time>
      </trkpt>
      <trkpt lat="44.96531" lon="2.18962">
        <ele>498.1</ele>
        <time>2021-08-16T09:54:31Z</time>
      </trkpt>
      <trkpt lat="44.96532" lon="2.18969">
        <ele>497.14</ele>
        <time>2021-08-16T09:54:32Z</time>
      </trkpt>
      <trkpt lat="44.96533" lon="2.18976">
        <ele>496.18</ele>
        <time>2021-08-16T09:54:33Z</time>
      </trkpt>
      <trkpt lat="44.96535" lon="2.18993">
        <ele>494.26</ele>
        <time>2021-08-16T09:54:36Z</time>
      </trkpt>
      <trkpt lat="44.96534" lon="2.18998">
        <ele>493.29</ele>
        <time>2021-08-16T09:54:37Z</time>
      </trkpt>
      <trkpt lat="44.96531" lon="2.19">
        <ele>493.29</ele>
        <time>2021-08-16T09:54:38Z</time>
      </trkpt>
      <trkpt lat="44.96528" lon="2.19002">
        <ele>491.85</ele>
        <time>2021-08-16T09:54:39Z</time>
      </trkpt>
      <trkpt lat="44.96511" lon="2.19007">
        <ele>489.93</ele>
        <time>2021-08-16T09:54:42Z</time>
      </trkpt>
      <trkpt lat="44.96507" lon="2.1901">
        <ele>489.45</ele>
        <time>2021-08-16T09:54:43Z</time>
      </trkpt>
      <trkpt lat="44.96497" lon="2.19016">
        <ele>488.49</ele>
        <time>2021-08-16T09:54:45Z</time>
      </trkpt>
      <trkpt lat="44.96493" lon="2.19022">
        <ele>487.05</ele>
        <time>2021-08-16T09:54:46Z</time>
      </trkpt>
      <trkpt lat="44.96489" lon="2.19029">
        <ele>486.56</ele>
        <time>2021-08-16T09:54:47Z</time>
      </trkpt>
      <trkpt lat="44.96488" lon="2.19036">
        <ele>485.6</ele>
        <time>2021-08-16T09:54:48Z</time>
      </trkpt>
      <trkpt lat="44.96489" lon="2.19044">
        <ele>484.64</ele>
        <time>2021-08-16T09:54:49Z</time>
      </trkpt>
      <trkpt lat="44.9649" lon="2.19052">
        <ele>483.68</ele>
        <time>2021-08-16T09:54:50Z</time>
      </trkpt>
      <trkpt lat="44.96491" lon="2.1906">
        <ele>482.72</ele>
        <time>2021-08-16T09:54:51Z</time>
      </trkpt>
      <trkpt lat="44.96492" lon="2.19067">
        <ele>482.24</ele>
        <time>2021-08-16T09:54:52Z</time>
      </trkpt>
      <trkpt lat="44.96495" lon="2.19072">
        <ele>481.28</ele>
        <time>2021-08-16T09:54:53Z</time>
      </trkpt>
      <trkpt lat="44.96498" lon="2.19077">
        <ele>480.8</ele>
        <time>2021-08-16T09:54:54Z</time>
      </trkpt>
      <trkpt lat="44.96501" lon="2.19079">
        <ele>480.32</ele>
        <time>2021-08-16T09:54:55Z</time>
      </trkpt>
      <trkpt lat="44.96505" lon="2.1908">
        <ele>479.35</ele>
        <time>2021-08-16T09:54:56Z</time>
      </trkpt>
      <trkpt lat="44.96508" lon="2.1908">
        <ele>478.87</ele>
        <time>2021-08-16T09:54:57Z</time>
      </trkpt>
      <trkpt lat="44.96513" lon="2.19079">
        <ele>478.39</ele>
        <time>2021-08-16T09:54:58Z</time>
      </trkpt>
      <trkpt lat="44.96518" lon="2.19077">
        <ele>477.91</ele>
        <time>2021-08-16T09:54:59Z</time>
      </trkpt>
      <trkpt lat="44.96523" lon="2.19073">
        <ele>476.95</ele>
        <time>2021-08-16T09:55:00Z</time>
      </trkpt>
      <trkpt lat="44.96534" lon="2.19066">
        <ele>476.47</ele>
        <time>2021-08-16T09:55:02Z</time>
      </trkpt>
      <trkpt lat="44.9657" lon="2.19043">
        <ele>474.07</ele>
        <time>2021-08-16T09:55:08Z</time>
      </trkpt>
      <trkpt lat="44.96611" lon="2.19007">
        <ele>473.11</ele>
        <time>2021-08-16T09:55:15Z</time>
      </trkpt>
      <trkpt lat="44.9663" lon="2.18992">
        <ele>471.66</ele>
        <time>2021-08-16T09:55:18Z</time>
      </trkpt>
      <trkpt lat="44.96645" lon="2.18981">
        <ele>469.74</ele>
        <time>2021-08-16T09:55:20Z</time>
      </trkpt>
      <trkpt lat="44.96653" lon="2.18973">
        <ele>468.78</ele>
        <time>2021-08-16T09:55:21Z</time>
      </trkpt>
      <trkpt lat="44.9666" lon="2.18965">
        <ele>468.3</ele>
        <time>2021-08-16T09:55:22Z</time>
      </trkpt>
      <trkpt lat="44.96666" lon="2.18956">
        <ele>467.34</ele>
        <time>2021-08-16T09:55:23Z</time>
      </trkpt>
      <trkpt lat="44.96672" lon="2.18946">
        <ele>466.86</ele>
        <time>2021-08-16T09:55:24Z</time>
      </trkpt>
      <trkpt lat="44.96677" lon="2.18935">
        <ele>466.38</ele>
        <time>2021-08-16T09:55:25Z</time>
      </trkpt>
      <trkpt lat="44.96682" lon="2.18923">
        <ele>465.9</ele>
        <time>2021-08-16T09:55:26Z</time>
      </trkpt>
      <trkpt lat="44.96686" lon="2.18912">
        <ele>465.9</ele>
        <time>2021-08-16T09:55:27Z</time>
      </trkpt>
      <trkpt lat="44.96714" lon="2.18828">
        <ele>463.97</ele>
        <time>2021-08-16T09:55:35Z</time>
      </trkpt>
      <trkpt lat="44.96716" lon="2.18818">
        <ele>463.49</ele>
        <time>2021-08-16T09:55:36Z</time>
      </trkpt>
      <trkpt lat="44.96718" lon="2.18806">
        <ele>462.53</ele>
        <time>2021-08-16T09:55:37Z</time>
      </trkpt>
      <trkpt lat="44.96719" lon="2.18794">
        <ele>461.57</ele>
        <time>2021-08-16T09:55:38Z</time>
      </trkpt>
      <trkpt lat="44.9672" lon="2.18782">
        <ele>461.57</ele>
        <time>2021-08-16T09:55:39Z</time>
      </trkpt>
      <trkpt lat="44.96722" lon="2.18772">
        <ele>460.13</ele>
        <time>2021-08-16T09:55:40Z</time>
      </trkpt>
      <trkpt lat="44.96725" lon="2.18762">
        <ele>460.13</ele>
        <time>2021-08-16T09:55:41Z</time>
      </trkpt>
      <trkpt lat="44.9673" lon="2.18754">
        <ele>459.65</ele>
        <time>2021-08-16T09:55:42Z</time>
      </trkpt>
      <trkpt lat="44.96736" lon="2.18746">
        <ele>459.17</ele>
        <time>2021-08-16T09:55:43Z</time>
      </trkpt>
      <trkpt lat="44.9674" lon="2.18737">
        <ele>459.17</ele>
        <time>2021-08-16T09:55:44Z</time>
      </trkpt>
      <trkpt lat="44.96744" lon="2.18726">
        <ele>457.72</ele>
        <time>2021-08-16T09:55:45Z</time>
      </trkpt>
      <trkpt lat="44.96762" lon="2.18661">
        <ele>454.36</ele>
        <time>2021-08-16T09:55:51Z</time>
      </trkpt>
      <trkpt lat="44.96766" lon="2.18649">
        <ele>453.4</ele>
        <time>2021-08-16T09:55:53Z</time>
      </trkpt>
      <trkpt lat="44.96768" lon="2.18645">
        <ele>452.92</ele>
        <time>2021-08-16T09:55:54Z</time>
      </trkpt>
      <trkpt lat="44.96772" lon="2.18645">
        <ele>452.92</ele>
        <time>2021-08-16T09:55:55Z</time>
      </trkpt>
      <trkpt lat="44.96775" lon="2.18649">
        <ele>452.92</ele>
        <time>2021-08-16T09:55:56Z</time>
      </trkpt>
      <trkpt lat="44.96776" lon="2.18651">
        <ele>452.92</ele>
        <time>2021-08-16T09:55:57Z</time>
      </trkpt>
      <trkpt lat="44.96776" lon="2.18656">
        <ele>452.92</ele>
        <time>2021-08-16T09:55:58Z</time>
      </trkpt>
      <trkpt lat="44.96775" lon="2.18667">
        <ele>451.96</ele>
        <time>2021-08-16T09:56:00Z</time>
      </trkpt>
      <trkpt lat="44.96763" lon="2.18712">
        <ele>450.03</ele>
        <time>2021-08-16T09:56:06Z</time>
      </trkpt>
      <trkpt lat="44.96755" lon="2.18771">
        <ele>447.63</ele>
        <time>2021-08-16T09:56:12Z</time>
      </trkpt>
      <trkpt lat="44.96751" lon="2.18806">
        <ele>446.19</ele>
        <time>2021-08-16T09:56:15Z</time>
      </trkpt>
      <trkpt lat="44.9674" lon="2.18875">
        <ele>444.27</ele>
        <time>2021-08-16T09:56:21Z</time>
      </trkpt>
      <trkpt lat="44.96732" lon="2.189">
        <ele>445.71</ele>
        <time>2021-08-16T09:56:24Z</time>
      </trkpt>
      <trkpt lat="44.96722" lon="2.18931">
        <ele>447.63</ele>
        <time>2021-08-16T09:56:30Z</time>
      </trkpt>
      <trkpt lat="44.96721" lon="2.18942">
        <ele>448.11</ele>
        <time>2021-08-16T09:56:33Z</time>
      </trkpt>
      <trkpt lat="44.96723" lon="2.18947">
        <ele>448.11</ele>
        <time>2021-08-16T09:56:34Z</time>
      </trkpt>
      <trkpt lat="44.96725" lon="2.18951">
        <ele>448.59</ele>
        <time>2021-08-16T09:56:35Z</time>
      </trkpt>
      <trkpt lat="44.96728" lon="2.18954">
        <ele>448.59</ele>
        <time>2021-08-16T09:56:36Z</time>
      </trkpt>
      <trkpt lat="44.96731" lon="2.18957">
        <ele>449.07</ele>
        <time>2021-08-16T09:56:37Z</time>
      </trkpt>
      <trkpt lat="44.96734" lon="2.1896">
        <ele>449.07</ele>
        <time>2021-08-16T09:56:38Z</time>
      </trkpt>
      <trkpt lat="44.96768" lon="2.1899">
        <ele>449.07</ele>
        <time>2021-08-16T09:56:47Z</time>
      </trkpt>
      <trkpt lat="44.96792" lon="2.19012">
        <ele>447.15</ele>
        <time>2021-08-16T09:56:53Z</time>
      </trkpt>
      <trkpt lat="44.96795" lon="2.19017">
        <ele>447.15</ele>
        <time>2021-08-16T09:56:55Z</time>
      </trkpt>
      <trkpt lat="44.96797" lon="2.19017">
        <ele>447.15</ele>
        <time>2021-08-16T09:56:56Z</time>
      </trkpt>
      <trkpt lat="44.96799" lon="2.19015">
        <ele>447.15</ele>
        <time>2021-08-16T09:56:57Z</time>
      </trkpt>
      <trkpt lat="44.96801" lon="2.19013">
        <ele>447.15</ele>
        <time>2021-08-16T09:56:58Z</time>
      </trkpt>
      <trkpt lat="44.96802" lon="2.1901">
        <ele>447.15</ele>
        <time>2021-08-16T09:56:59Z</time>
      </trkpt>
      <trkpt lat="44.96803" lon="2.19007">
        <ele>447.15</ele>
        <time>2021-08-16T09:57:00Z</time>
      </trkpt>
      <trkpt lat="44.96805" lon="2.19004">
        <ele>447.15</ele>
        <time>2021-08-16T09:57:01Z</time>
      </trkpt>
      <trkpt lat="44.96806" lon="2.19001">
        <ele>447.15</ele>
        <time>2021-08-16T09:57:02Z</time>
      </trkpt>
      <trkpt lat="44.96808" lon="2.18997">
        <ele>447.15</ele>
        <time>2021-08-16T09:57:03Z</time>
      </trkpt>
      <trkpt lat="44.96818" lon="2.18973">
        <ele>447.15</ele>
        <time>2021-08-16T09:57:11Z</time>
      </trkpt>
      <trkpt lat="44.96824" lon="2.18947">
        <ele>449.07</ele>
        <time>2021-08-16T09:57:19Z</time>
      </trkpt>
      <trkpt lat="44.96834" lon="2.18919">
        <ele>450.03</ele>
        <time>2021-08-16T09:57:28Z</time>
      </trkpt>
      <trkpt lat="44.96839" lon="2.18892">
        <ele>450.52</ele>
        <time>2021-08-16T09:57:36Z</time>
      </trkpt>
      <trkpt lat="44.96844" lon="2.18859">
        <ele>451</ele>
        <time>2021-08-16T09:57:45Z</time>
      </trkpt>
      <trkpt lat="44.96857" lon="2.18833">
        <ele>452.44</ele>
        <time>2021-08-16T09:57:53Z</time>
      </trkpt>
      <trkpt lat="44.96876" lon="2.18808">
        <ele>453.4</ele>
        <time>2021-08-16T09:58:03Z</time>
      </trkpt>
      <trkpt lat="44.96891" lon="2.18784">
        <ele>454.36</ele>
        <time>2021-08-16T09:58:13Z</time>
      </trkpt>
      <trkpt lat="44.96902" lon="2.18761">
        <ele>454.84</ele>
        <time>2021-08-16T09:58:21Z</time>
      </trkpt>
      <trkpt lat="44.96913" lon="2.18739">
        <ele>455.32</ele>
        <time>2021-08-16T09:58:28Z</time>
      </trkpt>
      <trkpt lat="44.96922" lon="2.18711">
        <ele>456.28</ele>
        <time>2021-08-16T09:58:38Z</time>
      </trkpt>
      <trkpt lat="44.96923" lon="2.18708">
        <ele>456.28</ele>
        <time>2021-08-16T09:58:40Z</time>
      </trkpt>
      <trkpt lat="44.96924" lon="2.18705">
        <ele>456.28</ele>
        <time>2021-08-16T09:58:46Z</time>
      </trkpt>
      <trkpt lat="44.96925" lon="2.18704">
        <ele>456.28</ele>
        <time>2021-08-16T09:58:50Z</time>
      </trkpt>
      <trkpt lat="44.96926" lon="2.18703">
        <ele>456.28</ele>
        <time>2021-08-16T09:58:52Z</time>
      </trkpt>
      <trkpt lat="44.96927" lon="2.187">
        <ele>456.76</ele>
        <time>2021-08-16T09:58:54Z</time>
      </trkpt>
      <trkpt lat="44.96929" lon="2.18698">
        <ele>456.76</ele>
        <time>2021-08-16T09:58:55Z</time>
      </trkpt>
      <trkpt lat="44.9693" lon="2.18696">
        <ele>456.76</ele>
        <time>2021-08-16T09:58:56Z</time>
      </trkpt>
      <trkpt lat="44.96935" lon="2.18673">
        <ele>457.72</ele>
        <time>2021-08-16T09:59:03Z</time>
      </trkpt>
      <trkpt lat="44.96938" lon="2.18643">
        <ele>458.69</ele>
        <time>2021-08-16T09:59:12Z</time>
      </trkpt>
      <trkpt lat="44.96937" lon="2.18623">
        <ele>459.17</ele>
        <time>2021-08-16T09:59:18Z</time>
      </trkpt>
      <trkpt lat="44.96937" lon="2.1862">
        <ele>459.17</ele>
        <time>2021-08-16T09:59:19Z</time>
      </trkpt>
      <trkpt lat="44.96937" lon="2.18616">
        <ele>459.17</ele>
        <time>2021-08-16T09:59:20Z</time>
      </trkpt>
      <trkpt lat="44.96936" lon="2.18613">
        <ele>459.17</ele>
        <time>2021-08-16T09:59:21Z</time>
      </trkpt>
      <trkpt lat="44.96936" lon="2.18609">
        <ele>459.17</ele>
        <time>2021-08-16T09:59:22Z</time>
      </trkpt>
      <trkpt lat="44.96935" lon="2.18605">
        <ele>459.65</ele>
        <time>2021-08-16T09:59:23Z</time>
      </trkpt>
      <trkpt lat="44.96932" lon="2.18577">
        <ele>460.61</ele>
        <time>2021-08-16T09:59:31Z</time>
      </trkpt>
      <trkpt lat="44.96931" lon="2.18541">
        <ele>461.09</ele>
        <time>2021-08-16T09:59:40Z</time>
      </trkpt>
      <trkpt lat="44.96933" lon="2.1851">
        <ele>462.05</ele>
        <time>2021-08-16T09:59:48Z</time>
      </trkpt>
      <trkpt lat="44.96936" lon="2.18481">
        <ele>462.53</ele>
        <time>2021-08-16T09:59:56Z</time>
      </trkpt>
      <trkpt lat="44.96938" lon="2.18452">
        <ele>463.01</ele>
        <time>2021-08-16T10:00:03Z</time>
      </trkpt>
      <trkpt lat="44.96941" lon="2.18425">
        <ele>463.97</ele>
        <time>2021-08-16T10:00:11Z</time>
      </trkpt>
      <trkpt lat="44.96948" lon="2.18387">
        <ele>464.93</ele>
        <time>2021-08-16T10:00:21Z</time>
      </trkpt>
      <trkpt lat="44.96943" lon="2.18363">
        <ele>465.42</ele>
        <time>2021-08-16T10:00:27Z</time>
      </trkpt>
      <trkpt lat="44.9693" lon="2.18336">
        <ele>465.9</ele>
        <time>2021-08-16T10:00:35Z</time>
      </trkpt>
      <trkpt lat="44.96926" lon="2.18315">
        <ele>466.38</ele>
        <time>2021-08-16T10:00:41Z</time>
      </trkpt>
      <trkpt lat="44.96929" lon="2.18291">
        <ele>467.34</ele>
        <time>2021-08-16T10:00:48Z</time>
      </trkpt>
      <trkpt lat="44.9693" lon="2.18271">
        <ele>468.3</ele>
        <time>2021-08-16T10:00:54Z</time>
      </trkpt>
      <trkpt lat="44.96926" lon="2.18237">
        <ele>468.78</ele>
        <time>2021-08-16T10:01:03Z</time>
      </trkpt>
      <trkpt lat="44.96921" lon="2.18205">
        <ele>469.74</ele>
        <time>2021-08-16T10:01:11Z</time>
      </trkpt>
      <trkpt lat="44.9692" lon="2.18178">
        <ele>470.22</ele>
        <time>2021-08-16T10:01:18Z</time>
      </trkpt>
      <trkpt lat="44.96915" lon="2.18152">
        <ele>470.7</ele>
        <time>2021-08-16T10:01:25Z</time>
      </trkpt>
      <trkpt lat="44.96904" lon="2.18122">
        <ele>471.18</ele>
        <time>2021-08-16T10:01:33Z</time>
      </trkpt>
      <trkpt lat="44.96892" lon="2.18098">
        <ele>471.66</ele>
        <time>2021-08-16T10:01:40Z</time>
      </trkpt>
      <trkpt lat="44.96882" lon="2.18073">
        <ele>472.63</ele>
        <time>2021-08-16T10:01:47Z</time>
      </trkpt>
      <trkpt lat="44.9687" lon="2.18047">
        <ele>473.11</ele>
        <time>2021-08-16T10:01:54Z</time>
      </trkpt>
      <trkpt lat="44.96858" lon="2.18015">
        <ele>474.07</ele>
        <time>2021-08-16T10:02:02Z</time>
      </trkpt>
      <trkpt lat="44.96842" lon="2.17984">
        <ele>474.55</ele>
        <time>2021-08-16T10:02:11Z</time>
      </trkpt>
      <trkpt lat="44.96822" lon="2.17951">
        <ele>475.51</ele>
        <time>2021-08-16T10:02:21Z</time>
      </trkpt>
      <trkpt lat="44.96816" lon="2.17919">
        <ele>475.51</ele>
        <time>2021-08-16T10:02:28Z</time>
      </trkpt>
      <trkpt lat="44.96817" lon="2.17881">
        <ele>475.51</ele>
        <time>2021-08-16T10:02:36Z</time>
      </trkpt>
      <trkpt lat="44.96819" lon="2.17842">
        <ele>475.51</ele>
        <time>2021-08-16T10:02:44Z</time>
      </trkpt>
      <trkpt lat="44.96811" lon="2.17818">
        <ele>475.51</ele>
        <time>2021-08-16T10:02:49Z</time>
      </trkpt>
      <trkpt lat="44.96808" lon="2.17814">
        <ele>475.51</ele>
        <time>2021-08-16T10:02:50Z</time>
      </trkpt>
      <trkpt lat="44.96787" lon="2.17792">
        <ele>475.51</ele>
        <time>2021-08-16T10:02:56Z</time>
      </trkpt>
      <trkpt lat="44.96777" lon="2.17776">
        <ele>475.51</ele>
        <time>2021-08-16T10:02:59Z</time>
      </trkpt>
      <trkpt lat="44.96774" lon="2.1777">
        <ele>475.51</ele>
        <time>2021-08-16T10:03:00Z</time>
      </trkpt>
      <trkpt lat="44.96758" lon="2.17727">
        <ele>475.51</ele>
        <time>2021-08-16T10:03:07Z</time>
      </trkpt>
      <trkpt lat="44.96756" lon="2.1772">
        <ele>475.51</ele>
        <time>2021-08-16T10:03:08Z</time>
      </trkpt>
      <trkpt lat="44.96755" lon="2.17713">
        <ele>475.51</ele>
        <time>2021-08-16T10:03:09Z</time>
      </trkpt>
      <trkpt lat="44.96749" lon="2.17669">
        <ele>475.51</ele>
        <time>2021-08-16T10:03:15Z</time>
      </trkpt>
      <trkpt lat="44.9675" lon="2.17662">
        <ele>475.51</ele>
        <time>2021-08-16T10:03:16Z</time>
      </trkpt>
      <trkpt lat="44.96751" lon="2.17655">
        <ele>475.51</ele>
        <time>2021-08-16T10:03:17Z</time>
      </trkpt>
      <trkpt lat="44.96752" lon="2.17648">
        <ele>474.55</ele>
        <time>2021-08-16T10:03:18Z</time>
      </trkpt>
      <trkpt lat="44.96753" lon="2.17641">
        <ele>474.55</ele>
        <time>2021-08-16T10:03:19Z</time>
      </trkpt>
      <trkpt lat="44.96769" lon="2.17591">
        <ele>474.55</ele>
        <time>2021-08-16T10:03:26Z</time>
      </trkpt>
      <trkpt lat="44.96788" lon="2.17549">
        <ele>474.55</ele>
        <time>2021-08-16T10:03:33Z</time>
      </trkpt>
      <trkpt lat="44.96809" lon="2.17501">
        <ele>474.55</ele>
        <time>2021-08-16T10:03:41Z</time>
      </trkpt>
      <trkpt lat="44.96834" lon="2.17448">
        <ele>474.55</ele>
        <time>2021-08-16T10:03:50Z</time>
      </trkpt>
      <trkpt lat="44.96842" lon="2.1743">
        <ele>473.59</ele>
        <time>2021-08-16T10:03:53Z</time>
      </trkpt>
      <trkpt lat="44.96846" lon="2.17425">
        <ele>473.59</ele>
        <time>2021-08-16T10:03:54Z</time>
      </trkpt>
      <trkpt lat="44.96849" lon="2.1742">
        <ele>473.59</ele>
        <time>2021-08-16T10:03:55Z</time>
      </trkpt>
      <trkpt lat="44.96857" lon="2.17412">
        <ele>473.59</ele>
        <time>2021-08-16T10:03:57Z</time>
      </trkpt>
      <trkpt lat="44.96894" lon="2.17388">
        <ele>473.59</ele>
        <time>2021-08-16T10:04:05Z</time>
      </trkpt>
      <trkpt lat="44.96932" lon="2.17374">
        <ele>473.11</ele>
        <time>2021-08-16T10:04:13Z</time>
      </trkpt>
      <trkpt lat="44.96957" lon="2.17363">
        <ele>473.11</ele>
        <time>2021-08-16T10:04:18Z</time>
      </trkpt>
      <trkpt lat="44.96966" lon="2.17358">
        <ele>472.63</ele>
        <time>2021-08-16T10:04:20Z</time>
      </trkpt>
      <trkpt lat="44.97018" lon="2.17341">
        <ele>471.18</ele>
        <time>2021-08-16T10:04:30Z</time>
      </trkpt>
      <trkpt lat="44.97061" lon="2.17319">
        <ele>471.18</ele>
        <time>2021-08-16T10:04:38Z</time>
      </trkpt>
      <trkpt lat="44.97098" lon="2.17301">
        <ele>471.18</ele>
        <time>2021-08-16T10:04:45Z</time>
      </trkpt>
      <trkpt lat="44.97146" lon="2.17278">
        <ele>471.18</ele>
        <time>2021-08-16T10:04:54Z</time>
      </trkpt>
      <trkpt lat="44.97186" lon="2.17259">
        <ele>470.7</ele>
        <time>2021-08-16T10:05:02Z</time>
      </trkpt>
      <trkpt lat="44.97191" lon="2.17257">
        <ele>470.7</ele>
        <time>2021-08-16T10:05:03Z</time>
      </trkpt>
      <trkpt lat="44.97196" lon="2.17256">
        <ele>470.7</ele>
        <time>2021-08-16T10:05:04Z</time>
      </trkpt>
      <trkpt lat="44.97202" lon="2.17256">
        <ele>470.7</ele>
        <time>2021-08-16T10:05:05Z</time>
      </trkpt>
      <trkpt lat="44.97207" lon="2.17256">
        <ele>470.7</ele>
        <time>2021-08-16T10:05:06Z</time>
      </trkpt>
      <trkpt lat="44.97212" lon="2.17257">
        <ele>470.22</ele>
        <time>2021-08-16T10:05:07Z</time>
      </trkpt>
      <trkpt lat="44.97217" lon="2.17258">
        <ele>470.22</ele>
        <time>2021-08-16T10:05:08Z</time>
      </trkpt>
      <trkpt lat="44.97223" lon="2.1726">
        <ele>470.22</ele>
        <time>2021-08-16T10:05:09Z</time>
      </trkpt>
      <trkpt lat="44.97257" lon="2.17276">
        <ele>470.22</ele>
        <time>2021-08-16T10:05:16Z</time>
      </trkpt>
      <trkpt lat="44.97267" lon="2.17283">
        <ele>470.22</ele>
        <time>2021-08-16T10:05:18Z</time>
      </trkpt>
      <trkpt lat="44.97272" lon="2.17288">
        <ele>470.22</ele>
        <time>2021-08-16T10:05:19Z</time>
      </trkpt>
      <trkpt lat="44.97286" lon="2.17303">
        <ele>470.22</ele>
        <time>2021-08-16T10:05:22Z</time>
      </trkpt>
      <trkpt lat="44.97292" lon="2.17306">
        <ele>470.22</ele>
        <time>2021-08-16T10:05:23Z</time>
      </trkpt>
      <trkpt lat="44.97298" lon="2.17308">
        <ele>470.22</ele>
        <time>2021-08-16T10:05:24Z</time>
      </trkpt>
      <trkpt lat="44.97304" lon="2.17308">
        <ele>470.22</ele>
        <time>2021-08-16T10:05:25Z</time>
      </trkpt>
      <trkpt lat="44.9731" lon="2.17304">
        <ele>469.74</ele>
        <time>2021-08-16T10:05:26Z</time>
      </trkpt>
      <trkpt lat="44.97315" lon="2.173">
        <ele>469.74</ele>
        <time>2021-08-16T10:05:27Z</time>
      </trkpt>
      <trkpt lat="44.97319" lon="2.17295">
        <ele>469.74</ele>
        <time>2021-08-16T10:05:28Z</time>
      </trkpt>
      <trkpt lat="44.97322" lon="2.17288">
        <ele>469.74</ele>
        <time>2021-08-16T10:05:29Z</time>
      </trkpt>
      <trkpt lat="44.97324" lon="2.17281">
        <ele>469.74</ele>
        <time>2021-08-16T10:05:30Z</time>
      </trkpt>
      <trkpt lat="44.97324" lon="2.17273">
        <ele>469.74</ele>
        <time>2021-08-16T10:05:31Z</time>
      </trkpt>
      <trkpt lat="44.97324" lon="2.17265">
        <ele>469.74</ele>
        <time>2021-08-16T10:05:32Z</time>
      </trkpt>
      <trkpt lat="44.97322" lon="2.17257">
        <ele>469.74</ele>
        <time>2021-08-16T10:05:33Z</time>
      </trkpt>
      <trkpt lat="44.97321" lon="2.17251">
        <ele>469.74</ele>
        <time>2021-08-16T10:05:34Z</time>
      </trkpt>
      <trkpt lat="44.97319" lon="2.17243">
        <ele>469.74</ele>
        <time>2021-08-16T10:05:35Z</time>
      </trkpt>
      <trkpt lat="44.97317" lon="2.17236">
        <ele>469.74</ele>
        <time>2021-08-16T10:05:36Z</time>
      </trkpt>
      <trkpt lat="44.97313" lon="2.17222">
        <ele>469.74</ele>
        <time>2021-08-16T10:05:38Z</time>
      </trkpt>
      <trkpt lat="44.9731" lon="2.17214">
        <ele>469.74</ele>
        <time>2021-08-16T10:05:39Z</time>
      </trkpt>
      <trkpt lat="44.97307" lon="2.17207">
        <ele>469.74</ele>
        <time>2021-08-16T10:05:40Z</time>
      </trkpt>
      <trkpt lat="44.97304" lon="2.17199">
        <ele>469.74</ele>
        <time>2021-08-16T10:05:41Z</time>
      </trkpt>
      <trkpt lat="44.97301" lon="2.17191">
        <ele>469.74</ele>
        <time>2021-08-16T10:05:42Z</time>
      </trkpt>
      <trkpt lat="44.97293" lon="2.17169">
        <ele>469.26</ele>
        <time>2021-08-16T10:05:45Z</time>
      </trkpt>
      <trkpt lat="44.97288" lon="2.17154">
        <ele>469.26</ele>
        <time>2021-08-16T10:05:47Z</time>
      </trkpt>
      <trkpt lat="44.97287" lon="2.17145">
        <ele>469.26</ele>
        <time>2021-08-16T10:05:48Z</time>
      </trkpt>
      <trkpt lat="44.97287" lon="2.17136">
        <ele>468.78</ele>
        <time>2021-08-16T10:05:49Z</time>
      </trkpt>
      <trkpt lat="44.97288" lon="2.17128">
        <ele>468.78</ele>
        <time>2021-08-16T10:05:50Z</time>
      </trkpt>
      <trkpt lat="44.97292" lon="2.17121">
        <ele>468.78</ele>
        <time>2021-08-16T10:05:51Z</time>
      </trkpt>
      <trkpt lat="44.97297" lon="2.17117">
        <ele>468.78</ele>
        <time>2021-08-16T10:05:52Z</time>
      </trkpt>
      <trkpt lat="44.97302" lon="2.17115">
        <ele>468.78</ele>
        <time>2021-08-16T10:05:53Z</time>
      </trkpt>
      <trkpt lat="44.97308" lon="2.17115">
        <ele>468.78</ele>
        <time>2021-08-16T10:05:54Z</time>
      </trkpt>
      <trkpt lat="44.97313" lon="2.17117">
        <ele>468.78</ele>
        <time>2021-08-16T10:05:55Z</time>
      </trkpt>
      <trkpt lat="44.97319" lon="2.17119">
        <ele>469.26</ele>
        <time>2021-08-16T10:05:56Z</time>
      </trkpt>
      <trkpt lat="44.97358" lon="2.17135">
        <ele>469.26</ele>
        <time>2021-08-16T10:06:03Z</time>
      </trkpt>
      <trkpt lat="44.97381" lon="2.17138">
        <ele>469.26</ele>
        <time>2021-08-16T10:06:07Z</time>
      </trkpt>
      <trkpt lat="44.97387" lon="2.17138">
        <ele>469.26</ele>
        <time>2021-08-16T10:06:08Z</time>
      </trkpt>
      <trkpt lat="44.97434" lon="2.17122">
        <ele>468.78</ele>
        <time>2021-08-16T10:06:16Z</time>
      </trkpt>
      <trkpt lat="44.97468" lon="2.17101">
        <ele>468.3</ele>
        <time>2021-08-16T10:06:22Z</time>
      </trkpt>
      <trkpt lat="44.97474" lon="2.17097">
        <ele>468.3</ele>
        <time>2021-08-16T10:06:23Z</time>
      </trkpt>
      <trkpt lat="44.97505" lon="2.1707">
        <ele>467.82</ele>
        <time>2021-08-16T10:06:29Z</time>
      </trkpt>
      <trkpt lat="44.9751" lon="2.17064">
        <ele>467.82</ele>
        <time>2021-08-16T10:06:30Z</time>
      </trkpt>
      <trkpt lat="44.97538" lon="2.17024">
        <ele>466.86</ele>
        <time>2021-08-16T10:06:36Z</time>
      </trkpt>
      <trkpt lat="44.97544" lon="2.17019">
        <ele>466.86</ele>
        <time>2021-08-16T10:06:37Z</time>
      </trkpt>
      <trkpt lat="44.97555" lon="2.17012">
        <ele>466.38</ele>
        <time>2021-08-16T10:06:39Z</time>
      </trkpt>
      <trkpt lat="44.97561" lon="2.1701">
        <ele>466.38</ele>
        <time>2021-08-16T10:06:40Z</time>
      </trkpt>
      <trkpt lat="44.97567" lon="2.17009">
        <ele>466.38</ele>
        <time>2021-08-16T10:06:41Z</time>
      </trkpt>
      <trkpt lat="44.97572" lon="2.17008">
        <ele>466.38</ele>
        <time>2021-08-16T10:06:42Z</time>
      </trkpt>
      <trkpt lat="44.9759" lon="2.17003">
        <ele>466.38</ele>
        <time>2021-08-16T10:06:45Z</time>
      </trkpt>
      <trkpt lat="44.97596" lon="2.16999">
        <ele>466.38</ele>
        <time>2021-08-16T10:06:46Z</time>
      </trkpt>
      <trkpt lat="44.97602" lon="2.16993">
        <ele>466.38</ele>
        <time>2021-08-16T10:06:47Z</time>
      </trkpt>
      <trkpt lat="44.97606" lon="2.16988">
        <ele>466.38</ele>
        <time>2021-08-16T10:06:48Z</time>
      </trkpt>
      <trkpt lat="44.97611" lon="2.1698">
        <ele>466.38</ele>
        <time>2021-08-16T10:06:49Z</time>
      </trkpt>
      <trkpt lat="44.97613" lon="2.16973">
        <ele>466.38</ele>
        <time>2021-08-16T10:06:50Z</time>
      </trkpt>
      <trkpt lat="44.97613" lon="2.16964">
        <ele>466.38</ele>
        <time>2021-08-16T10:06:51Z</time>
      </trkpt>
      <trkpt lat="44.97612" lon="2.16957">
        <ele>466.38</ele>
        <time>2021-08-16T10:06:52Z</time>
      </trkpt>
      <trkpt lat="44.97611" lon="2.1695">
        <ele>466.38</ele>
        <time>2021-08-16T10:06:53Z</time>
      </trkpt>
      <trkpt lat="44.97609" lon="2.16943">
        <ele>467.82</ele>
        <time>2021-08-16T10:06:54Z</time>
      </trkpt>
      <trkpt lat="44.97607" lon="2.16936">
        <ele>467.82</ele>
        <time>2021-08-16T10:06:55Z</time>
      </trkpt>
      <trkpt lat="44.97605" lon="2.1693">
        <ele>467.82</ele>
        <time>2021-08-16T10:06:56Z</time>
      </trkpt>
      <trkpt lat="44.97602" lon="2.16925">
        <ele>467.82</ele>
        <time>2021-08-16T10:06:57Z</time>
      </trkpt>
      <trkpt lat="44.97599" lon="2.16921">
        <ele>468.3</ele>
        <time>2021-08-16T10:06:58Z</time>
      </trkpt>
      <trkpt lat="44.97596" lon="2.16918">
        <ele>468.3</ele>
        <time>2021-08-16T10:06:59Z</time>
      </trkpt>
      <trkpt lat="44.97592" lon="2.16915">
        <ele>468.3</ele>
        <time>2021-08-16T10:07:00Z</time>
      </trkpt>
      <trkpt lat="44.97589" lon="2.16913">
        <ele>468.78</ele>
        <time>2021-08-16T10:07:01Z</time>
      </trkpt>
      <trkpt lat="44.97585" lon="2.16911">
        <ele>468.78</ele>
        <time>2021-08-16T10:07:02Z</time>
      </trkpt>
      <trkpt lat="44.97581" lon="2.1691">
        <ele>469.26</ele>
        <time>2021-08-16T10:07:03Z</time>
      </trkpt>
      <trkpt lat="44.97578" lon="2.16909">
        <ele>469.26</ele>
        <time>2021-08-16T10:07:04Z</time>
      </trkpt>
      <trkpt lat="44.97574" lon="2.16908">
        <ele>469.26</ele>
        <time>2021-08-16T10:07:05Z</time>
      </trkpt>
      <trkpt lat="44.97556" lon="2.16904">
        <ele>470.22</ele>
        <time>2021-08-16T10:07:11Z</time>
      </trkpt>
      <trkpt lat="44.97529" lon="2.16903">
        <ele>471.66</ele>
        <time>2021-08-16T10:07:20Z</time>
      </trkpt>
      <trkpt lat="44.97512" lon="2.1691">
        <ele>472.63</ele>
        <time>2021-08-16T10:07:26Z</time>
      </trkpt>
      <trkpt lat="44.97498" lon="2.16919">
        <ele>473.59</ele>
        <time>2021-08-16T10:07:32Z</time>
      </trkpt>
      <trkpt lat="44.97477" lon="2.16941">
        <ele>475.03</ele>
        <time>2021-08-16T10:07:42Z</time>
      </trkpt>
      <trkpt lat="44.97457" lon="2.1696">
        <ele>475.99</ele>
        <time>2021-08-16T10:07:51Z</time>
      </trkpt>
      <trkpt lat="44.97437" lon="2.16973">
        <ele>476.47</ele>
        <time>2021-08-16T10:07:59Z</time>
      </trkpt>
      <trkpt lat="44.97412" lon="2.16976">
        <ele>477.43</ele>
        <time>2021-08-16T10:08:08Z</time>
      </trkpt>
      <trkpt lat="44.97393" lon="2.16965">
        <ele>478.39</ele>
        <time>2021-08-16T10:08:15Z</time>
      </trkpt>
      <trkpt lat="44.97377" lon="2.1695">
        <ele>479.35</ele>
        <time>2021-08-16T10:08:22Z</time>
      </trkpt>
      <trkpt lat="44.9736" lon="2.16924">
        <ele>479.84</ele>
        <time>2021-08-16T10:08:31Z</time>
      </trkpt>
      <trkpt lat="44.97363" lon="2.16899">
        <ele>481.28</ele>
        <time>2021-08-16T10:08:38Z</time>
      </trkpt>
      <trkpt lat="44.97378" lon="2.16884">
        <ele>482.72</ele>
        <time>2021-08-16T10:08:47Z</time>
      </trkpt>
      <trkpt lat="44.97394" lon="2.16876">
        <ele>483.2</ele>
        <time>2021-08-16T10:08:55Z</time>
      </trkpt>
      <trkpt lat="44.97423" lon="2.16862">
        <ele>484.64</ele>
        <time>2021-08-16T10:09:06Z</time>
      </trkpt>
      <trkpt lat="44.9744" lon="2.16852">
        <ele>485.12</ele>
        <time>2021-08-16T10:09:13Z</time>
      </trkpt>
      <trkpt lat="44.97456" lon="2.16842">
        <ele>485.6</ele>
        <time>2021-08-16T10:09:19Z</time>
      </trkpt>
      <trkpt lat="44.97475" lon="2.16825">
        <ele>487.05</ele>
        <time>2021-08-16T10:09:26Z</time>
      </trkpt>
      <trkpt lat="44.97498" lon="2.16804">
        <ele>488.01</ele>
        <time>2021-08-16T10:09:34Z</time>
      </trkpt>
      <trkpt lat="44.97517" lon="2.16789">
        <ele>488.97</ele>
        <time>2021-08-16T10:09:41Z</time>
      </trkpt>
      <trkpt lat="44.97536" lon="2.16766">
        <ele>489.93</ele>
        <time>2021-08-16T10:09:49Z</time>
      </trkpt>
      <trkpt lat="44.97555" lon="2.16737">
        <ele>490.41</ele>
        <time>2021-08-16T10:09:58Z</time>
      </trkpt>
      <trkpt lat="44.97574" lon="2.16711">
        <ele>491.85</ele>
        <time>2021-08-16T10:10:07Z</time>
      </trkpt>
      <trkpt lat="44.97597" lon="2.16688">
        <ele>492.81</ele>
        <time>2021-08-16T10:10:16Z</time>
      </trkpt>
      <trkpt lat="44.97614" lon="2.16667">
        <ele>493.77</ele>
        <time>2021-08-16T10:10:23Z</time>
      </trkpt>
      <trkpt lat="44.97628" lon="2.16629">
        <ele>495.22</ele>
        <time>2021-08-16T10:10:32Z</time>
      </trkpt>
      <trkpt lat="44.97642" lon="2.16605">
        <ele>496.18</ele>
        <time>2021-08-16T10:10:39Z</time>
      </trkpt>
      <trkpt lat="44.97657" lon="2.16584">
        <ele>496.66</ele>
        <time>2021-08-16T10:10:46Z</time>
      </trkpt>
      <trkpt lat="44.97661" lon="2.16553">
        <ele>498.1</ele>
        <time>2021-08-16T10:10:53Z</time>
      </trkpt>
      <trkpt lat="44.97662" lon="2.16517">
        <ele>498.58</ele>
        <time>2021-08-16T10:11:01Z</time>
      </trkpt>
      <trkpt lat="44.97673" lon="2.16491">
        <ele>499.54</ele>
        <time>2021-08-16T10:11:07Z</time>
      </trkpt>
      <trkpt lat="44.97694" lon="2.16474">
        <ele>500.5</ele>
        <time>2021-08-16T10:11:16Z</time>
      </trkpt>
      <trkpt lat="44.97714" lon="2.16467">
        <ele>501.46</ele>
        <time>2021-08-16T10:11:24Z</time>
      </trkpt>
      <trkpt lat="44.97736" lon="2.16454">
        <ele>502.91</ele>
        <time>2021-08-16T10:11:33Z</time>
      </trkpt>
      <trkpt lat="44.97757" lon="2.16437">
        <ele>502.91</ele>
        <time>2021-08-16T10:11:41Z</time>
      </trkpt>
      <trkpt lat="44.97781" lon="2.16415">
        <ele>504.35</ele>
        <time>2021-08-16T10:11:51Z</time>
      </trkpt>
      <trkpt lat="44.97802" lon="2.164">
        <ele>505.31</ele>
        <time>2021-08-16T10:11:59Z</time>
      </trkpt>
      <trkpt lat="44.97823" lon="2.16393">
        <ele>506.27</ele>
        <time>2021-08-16T10:12:07Z</time>
      </trkpt>
      <trkpt lat="44.97838" lon="2.16399">
        <ele>507.23</ele>
        <time>2021-08-16T10:12:14Z</time>
      </trkpt>
      <trkpt lat="44.97852" lon="2.1641">
        <ele>508.19</ele>
        <time>2021-08-16T10:12:22Z</time>
      </trkpt>
      <trkpt lat="44.97869" lon="2.16412">
        <ele>509.16</ele>
        <time>2021-08-16T10:12:29Z</time>
      </trkpt>
      <trkpt lat="44.97881" lon="2.16403">
        <ele>509.64</ele>
        <time>2021-08-16T10:12:35Z</time>
      </trkpt>
      <trkpt lat="44.97894" lon="2.16391">
        <ele>510.12</ele>
        <time>2021-08-16T10:12:41Z</time>
      </trkpt>
      <trkpt lat="44.97897" lon="2.1639">
        <ele>510.12</ele>
        <time>2021-08-16T10:12:42Z</time>
      </trkpt>
      <trkpt lat="44.97914" lon="2.16391">
        <ele>511.08</ele>
        <time>2021-08-16T10:12:49Z</time>
      </trkpt>
      <trkpt lat="44.97931" lon="2.16401">
        <ele>512.04</ele>
        <time>2021-08-16T10:12:56Z</time>
      </trkpt>
      <trkpt lat="44.97948" lon="2.1642">
        <ele>513.48</ele>
        <time>2021-08-16T10:13:04Z</time>
      </trkpt>
      <trkpt lat="44.97963" lon="2.16429">
        <ele>513.96</ele>
        <time>2021-08-16T10:13:10Z</time>
      </trkpt>
      <trkpt lat="44.97977" lon="2.16423">
        <ele>514.92</ele>
        <time>2021-08-16T10:13:16Z</time>
      </trkpt>
      <trkpt lat="44.97985" lon="2.16408">
        <ele>515.88</ele>
        <time>2021-08-16T10:13:22Z</time>
      </trkpt>
      <trkpt lat="44.97995" lon="2.1638">
        <ele>516.37</ele>
        <time>2021-08-16T10:13:31Z</time>
      </trkpt>
      <trkpt lat="44.9801" lon="2.16372">
        <ele>517.33</ele>
        <time>2021-08-16T10:13:37Z</time>
      </trkpt>
      <trkpt lat="44.98025" lon="2.16385">
        <ele>518.77</ele>
        <time>2021-08-16T10:13:44Z</time>
      </trkpt>
      <trkpt lat="44.98031" lon="2.16396">
        <ele>519.25</ele>
        <time>2021-08-16T10:13:50Z</time>
      </trkpt>
      <trkpt lat="44.98032" lon="2.16398">
        <ele>519.73</ele>
        <time>2021-08-16T10:13:51Z</time>
      </trkpt>
      <trkpt lat="44.98034" lon="2.164">
        <ele>519.73</ele>
        <time>2021-08-16T10:13:52Z</time>
      </trkpt>
      <trkpt lat="44.98046" lon="2.1641">
        <ele>520.21</ele>
        <time>2021-08-16T10:13:59Z</time>
      </trkpt>
      <trkpt lat="44.98065" lon="2.16409">
        <ele>521.17</ele>
        <time>2021-08-16T10:14:06Z</time>
      </trkpt>
      <trkpt lat="44.98081" lon="2.16391">
        <ele>522.13</ele>
        <time>2021-08-16T10:14:14Z</time>
      </trkpt>
      <trkpt lat="44.98096" lon="2.16373">
        <ele>523.09</ele>
        <time>2021-08-16T10:14:21Z</time>
      </trkpt>
      <trkpt lat="44.98115" lon="2.16365">
        <ele>524.06</ele>
        <time>2021-08-16T10:14:28Z</time>
      </trkpt>
      <trkpt lat="44.9813" lon="2.16357">
        <ele>524.54</ele>
        <time>2021-08-16T10:14:34Z</time>
      </trkpt>
      <trkpt lat="44.98149" lon="2.16344">
        <ele>525.98</ele>
        <time>2021-08-16T10:14:42Z</time>
      </trkpt>
      <trkpt lat="44.98164" lon="2.16332">
        <ele>526.46</ele>
        <time>2021-08-16T10:14:48Z</time>
      </trkpt>
      <trkpt lat="44.98182" lon="2.16319">
        <ele>526.94</ele>
        <time>2021-08-16T10:14:55Z</time>
      </trkpt>
      <trkpt lat="44.98204" lon="2.16307">
        <ele>527.9</ele>
        <time>2021-08-16T10:15:03Z</time>
      </trkpt>
      <trkpt lat="44.98227" lon="2.16296">
        <ele>529.34</ele>
        <time>2021-08-16T10:15:11Z</time>
      </trkpt>
      <trkpt lat="44.98248" lon="2.16293">
        <ele>530.3</ele>
        <time>2021-08-16T10:15:18Z</time>
      </trkpt>
      <trkpt lat="44.98268" lon="2.16295">
        <ele>531.27</ele>
        <time>2021-08-16T10:15:26Z</time>
      </trkpt>
      <trkpt lat="44.98285" lon="2.16305">
        <ele>532.71</ele>
        <time>2021-08-16T10:15:34Z</time>
      </trkpt>
      <trkpt lat="44.98296" lon="2.16323">
        <ele>533.19</ele>
        <time>2021-08-16T10:15:40Z</time>
      </trkpt>
      <trkpt lat="44.98313" lon="2.16342">
        <ele>534.15</ele>
        <time>2021-08-16T10:15:48Z</time>
      </trkpt>
      <trkpt lat="44.98318" lon="2.16344">
        <ele>534.63</ele>
        <time>2021-08-16T10:15:50Z</time>
      </trkpt>
      <trkpt lat="44.98321" lon="2.16342">
        <ele>534.63</ele>
        <time>2021-08-16T10:15:51Z</time>
      </trkpt>
      <trkpt lat="44.98335" lon="2.16323">
        <ele>535.59</ele>
        <time>2021-08-16T10:15:59Z</time>
      </trkpt>
      <trkpt lat="44.98346" lon="2.16302">
        <ele>536.07</ele>
        <time>2021-08-16T10:16:06Z</time>
      </trkpt>
      <trkpt lat="44.98362" lon="2.16285">
        <ele>536.55</ele>
        <time>2021-08-16T10:16:13Z</time>
      </trkpt>
      <trkpt lat="44.98384" lon="2.16274">
        <ele>537.99</ele>
        <time>2021-08-16T10:16:21Z</time>
      </trkpt>
      <trkpt lat="44.98412" lon="2.16264">
        <ele>539.44</ele>
        <time>2021-08-16T10:16:31Z</time>
      </trkpt>
      <trkpt lat="44.98433" lon="2.16244">
        <ele>540.88</ele>
        <time>2021-08-16T10:16:39Z</time>
      </trkpt>
      <trkpt lat="44.98447" lon="2.16212">
        <ele>541.84</ele>
        <time>2021-08-16T10:16:48Z</time>
      </trkpt>
      <trkpt lat="44.98456" lon="2.1619">
        <ele>542.8</ele>
        <time>2021-08-16T10:16:55Z</time>
      </trkpt>
      <trkpt lat="44.98469" lon="2.16169">
        <ele>543.76</ele>
        <time>2021-08-16T10:17:03Z</time>
      </trkpt>
      <trkpt lat="44.98484" lon="2.16156">
        <ele>545.2</ele>
        <time>2021-08-16T10:17:11Z</time>
      </trkpt>
      <trkpt lat="44.98499" lon="2.16147">
        <ele>546.17</ele>
        <time>2021-08-16T10:17:18Z</time>
      </trkpt>
      <trkpt lat="44.98514" lon="2.16137">
        <ele>546.65</ele>
        <time>2021-08-16T10:17:24Z</time>
      </trkpt>
      <trkpt lat="44.98537" lon="2.1612">
        <ele>547.13</ele>
        <time>2021-08-16T10:17:32Z</time>
      </trkpt>
      <trkpt lat="44.98563" lon="2.16105">
        <ele>548.09</ele>
        <time>2021-08-16T10:17:41Z</time>
      </trkpt>
      <trkpt lat="44.98588" lon="2.16103">
        <ele>549.53</ele>
        <time>2021-08-16T10:17:50Z</time>
      </trkpt>
      <trkpt lat="44.98612" lon="2.16102">
        <ele>551.45</ele>
        <time>2021-08-16T10:18:00Z</time>
      </trkpt>
      <trkpt lat="44.98632" lon="2.16095">
        <ele>552.9</ele>
        <time>2021-08-16T10:18:10Z</time>
      </trkpt>
      <trkpt lat="44.98648" lon="2.16077">
        <ele>554.34</ele>
        <time>2021-08-16T10:18:20Z</time>
      </trkpt>
      <trkpt lat="44.98662" lon="2.16055">
        <ele>555.3</ele>
        <time>2021-08-16T10:18:30Z</time>
      </trkpt>
      <trkpt lat="44.98674" lon="2.16034">
        <ele>556.74</ele>
        <time>2021-08-16T10:18:40Z</time>
      </trkpt>
      <trkpt lat="44.98691" lon="2.16011">
        <ele>558.18</ele>
        <time>2021-08-16T10:18:51Z</time>
      </trkpt>
      <trkpt lat="44.98706" lon="2.15994">
        <ele>559.14</ele>
        <time>2021-08-16T10:19:00Z</time>
      </trkpt>
      <trkpt lat="44.98719" lon="2.1598">
        <ele>560.11</ele>
        <time>2021-08-16T10:19:08Z</time>
      </trkpt>
      <trkpt lat="44.98728" lon="2.15971">
        <ele>560.59</ele>
        <time>2021-08-16T10:19:13Z</time>
      </trkpt>
      <trkpt lat="44.9873" lon="2.15969">
        <ele>560.59</ele>
        <time>2021-08-16T10:19:14Z</time>
      </trkpt>
      <trkpt lat="44.98731" lon="2.15967">
        <ele>561.07</ele>
        <time>2021-08-16T10:19:15Z</time>
      </trkpt>
      <trkpt lat="44.98733" lon="2.15965">
        <ele>561.07</ele>
        <time>2021-08-16T10:19:16Z</time>
      </trkpt>
      <trkpt lat="44.98735" lon="2.15963">
        <ele>561.07</ele>
        <time>2021-08-16T10:19:17Z</time>
      </trkpt>
      <trkpt lat="44.98737" lon="2.15962">
        <ele>561.07</ele>
        <time>2021-08-16T10:19:18Z</time>
      </trkpt>
      <trkpt lat="44.98749" lon="2.15949">
        <ele>562.03</ele>
        <time>2021-08-16T10:19:25Z</time>
      </trkpt>
      <trkpt lat="44.98767" lon="2.1593">
        <ele>563.47</ele>
        <time>2021-08-16T10:19:35Z</time>
      </trkpt>
      <trkpt lat="44.98784" lon="2.15913">
        <ele>563.95</ele>
        <time>2021-08-16T10:19:44Z</time>
      </trkpt>
      <trkpt lat="44.98799" lon="2.15895">
        <ele>565.39</ele>
        <time>2021-08-16T10:19:52Z</time>
      </trkpt>
      <trkpt lat="44.98812" lon="2.15871">
        <ele>566.35</ele>
        <time>2021-08-16T10:20:01Z</time>
      </trkpt>
      <trkpt lat="44.98822" lon="2.15845">
        <ele>567.32</ele>
        <time>2021-08-16T10:20:10Z</time>
      </trkpt>
      <trkpt lat="44.98833" lon="2.15819">
        <ele>567.8</ele>
        <time>2021-08-16T10:20:19Z</time>
      </trkpt>
      <trkpt lat="44.98846" lon="2.15786">
        <ele>569.72</ele>
        <time>2021-08-16T10:20:30Z</time>
      </trkpt>
      <trkpt lat="44.98857" lon="2.15759">
        <ele>570.2</ele>
        <time>2021-08-16T10:20:40Z</time>
      </trkpt>
      <trkpt lat="44.98865" lon="2.15742">
        <ele>571.16</ele>
        <time>2021-08-16T10:20:47Z</time>
      </trkpt>
      <trkpt lat="44.9888" lon="2.15722">
        <ele>572.6</ele>
        <time>2021-08-16T10:20:56Z</time>
      </trkpt>
      <trkpt lat="44.98896" lon="2.15704">
        <ele>574.53</ele>
        <time>2021-08-16T10:21:06Z</time>
      </trkpt>
      <trkpt lat="44.98916" lon="2.15687">
        <ele>575.97</ele>
        <time>2021-08-16T10:21:17Z</time>
      </trkpt>
      <trkpt lat="44.98933" lon="2.15673">
        <ele>577.89</ele>
        <time>2021-08-16T10:21:28Z</time>
      </trkpt>
      <trkpt lat="44.98949" lon="2.1566">
        <ele>579.33</ele>
        <time>2021-08-16T10:21:38Z</time>
      </trkpt>
      <trkpt lat="44.98968" lon="2.15641">
        <ele>581.25</ele>
        <time>2021-08-16T10:21:50Z</time>
      </trkpt>
      <trkpt lat="44.98982" lon="2.1562">
        <ele>583.18</ele>
        <time>2021-08-16T10:22:01Z</time>
      </trkpt>
      <trkpt lat="44.98994" lon="2.15595">
        <ele>584.62</ele>
        <time>2021-08-16T10:22:12Z</time>
      </trkpt>
      <trkpt lat="44.99" lon="2.15574">
        <ele>585.58</ele>
        <time>2021-08-16T10:22:20Z</time>
      </trkpt>
      <trkpt lat="44.99006" lon="2.15547">
        <ele>587.5</ele>
        <time>2021-08-16T10:22:30Z</time>
      </trkpt>
      <trkpt lat="44.9901" lon="2.15522">
        <ele>588.46</ele>
        <time>2021-08-16T10:22:39Z</time>
      </trkpt>
      <trkpt lat="44.99011" lon="2.15492">
        <ele>589.43</ele>
        <time>2021-08-16T10:22:49Z</time>
      </trkpt>
      <trkpt lat="44.99012" lon="2.15471">
        <ele>590.87</ele>
        <time>2021-08-16T10:22:56Z</time>
      </trkpt>
      <trkpt lat="44.99012" lon="2.15443">
        <ele>591.35</ele>
        <time>2021-08-16T10:23:04Z</time>
      </trkpt>
      <trkpt lat="44.99012" lon="2.15406">
        <ele>592.79</ele>
        <time>2021-08-16T10:23:14Z</time>
      </trkpt>
      <trkpt lat="44.99011" lon="2.15367">
        <ele>593.75</ele>
        <time>2021-08-16T10:23:24Z</time>
      </trkpt>
      <trkpt lat="44.99017" lon="2.15332">
        <ele>594.71</ele>
        <time>2021-08-16T10:23:33Z</time>
      </trkpt>
      <trkpt lat="44.99027" lon="2.15296">
        <ele>595.67</ele>
        <time>2021-08-16T10:23:42Z</time>
      </trkpt>
      <trkpt lat="44.9904" lon="2.15267">
        <ele>596.64</ele>
        <time>2021-08-16T10:23:51Z</time>
      </trkpt>
      <trkpt lat="44.99042" lon="2.15264">
        <ele>597.12</ele>
        <time>2021-08-16T10:23:52Z</time>
      </trkpt>
      <trkpt lat="44.99043" lon="2.15262">
        <ele>597.12</ele>
        <time>2021-08-16T10:23:53Z</time>
      </trkpt>
      <trkpt lat="44.99045" lon="2.15258">
        <ele>597.12</ele>
        <time>2021-08-16T10:23:54Z</time>
      </trkpt>
      <trkpt lat="44.99046" lon="2.15255">
        <ele>597.6</ele>
        <time>2021-08-16T10:23:55Z</time>
      </trkpt>
      <trkpt lat="44.99058" lon="2.15231">
        <ele>598.56</ele>
        <time>2021-08-16T10:24:03Z</time>
      </trkpt>
      <trkpt lat="44.9907" lon="2.15213">
        <ele>599.52</ele>
        <time>2021-08-16T10:24:09Z</time>
      </trkpt>
      <trkpt lat="44.99086" lon="2.15185">
        <ele>600.48</ele>
        <time>2021-08-16T10:24:18Z</time>
      </trkpt>
      <trkpt lat="44.99101" lon="2.15154">
        <ele>601.92</ele>
        <time>2021-08-16T10:24:27Z</time>
      </trkpt>
      <trkpt lat="44.99115" lon="2.15128">
        <ele>602.88</ele>
        <time>2021-08-16T10:24:36Z</time>
      </trkpt>
      <trkpt lat="44.9913" lon="2.15099">
        <ele>604.33</ele>
        <time>2021-08-16T10:24:45Z</time>
      </trkpt>
      <trkpt lat="44.99145" lon="2.1507">
        <ele>605.29</ele>
        <time>2021-08-16T10:24:54Z</time>
      </trkpt>
      <trkpt lat="44.99156" lon="2.15047">
        <ele>606.25</ele>
        <time>2021-08-16T10:25:02Z</time>
      </trkpt>
      <trkpt lat="44.9917" lon="2.15021">
        <ele>607.21</ele>
        <time>2021-08-16T10:25:11Z</time>
      </trkpt>
      <trkpt lat="44.99187" lon="2.1499">
        <ele>608.65</ele>
        <time>2021-08-16T10:25:22Z</time>
      </trkpt>
      <trkpt lat="44.99201" lon="2.14965">
        <ele>609.61</ele>
        <time>2021-08-16T10:25:31Z</time>
      </trkpt>
      <trkpt lat="44.99221" lon="2.14928">
        <ele>611.54</ele>
        <time>2021-08-16T10:25:43Z</time>
      </trkpt>
      <trkpt lat="44.9924" lon="2.14891">
        <ele>612.02</ele>
        <time>2021-08-16T10:25:55Z</time>
      </trkpt>
      <trkpt lat="44.99254" lon="2.14865">
        <ele>612.98</ele>
        <time>2021-08-16T10:26:04Z</time>
      </trkpt>
      <trkpt lat="44.99268" lon="2.1484">
        <ele>614.42</ele>
        <time>2021-08-16T10:26:13Z</time>
      </trkpt>
      <trkpt lat="44.99285" lon="2.14808">
        <ele>615.86</ele>
        <time>2021-08-16T10:26:24Z</time>
      </trkpt>
      <trkpt lat="44.99301" lon="2.14777">
        <ele>617.3</ele>
        <time>2021-08-16T10:26:34Z</time>
      </trkpt>
      <trkpt lat="44.99318" lon="2.14743">
        <ele>618.26</ele>
        <time>2021-08-16T10:26:44Z</time>
      </trkpt>
      <trkpt lat="44.99333" lon="2.14718">
        <ele>619.71</ele>
        <time>2021-08-16T10:26:52Z</time>
      </trkpt>
      <trkpt lat="44.99349" lon="2.14693">
        <ele>620.67</ele>
        <time>2021-08-16T10:27:00Z</time>
      </trkpt>
      <trkpt lat="44.99364" lon="2.14668">
        <ele>621.15</ele>
        <time>2021-08-16T10:27:08Z</time>
      </trkpt>
      <trkpt lat="44.99369" lon="2.14648">
        <ele>621.15</ele>
        <time>2021-08-16T10:27:12Z</time>
      </trkpt>
      <trkpt lat="44.99375" lon="2.14632">
        <ele>619.71</ele>
        <time>2021-08-16T10:27:15Z</time>
      </trkpt>
      <trkpt lat="44.9938" lon="2.14621">
        <ele>619.71</ele>
        <time>2021-08-16T10:27:17Z</time>
      </trkpt>
      <trkpt lat="44.99383" lon="2.14616">
        <ele>619.71</ele>
        <time>2021-08-16T10:27:18Z</time>
      </trkpt>
      <trkpt lat="44.99386" lon="2.14611">
        <ele>619.71</ele>
        <time>2021-08-16T10:27:19Z</time>
      </trkpt>
      <trkpt lat="44.99388" lon="2.14606">
        <ele>619.23</ele>
        <time>2021-08-16T10:27:20Z</time>
      </trkpt>
      <trkpt lat="44.99391" lon="2.14602">
        <ele>619.23</ele>
        <time>2021-08-16T10:27:21Z</time>
      </trkpt>
      <trkpt lat="44.99394" lon="2.14599">
        <ele>619.23</ele>
        <time>2021-08-16T10:27:22Z</time>
      </trkpt>
      <trkpt lat="44.99395" lon="2.14597">
        <ele>619.23</ele>
        <time>2021-08-16T10:27:23Z</time>
      </trkpt>
      <trkpt lat="44.99395" lon="2.14596">
        <ele>619.23</ele>
        <time>2021-08-16T10:27:28Z</time>
      </trkpt>
      <trkpt lat="44.99395" lon="2.14595">
        <ele>619.23</ele>
        <time>2021-08-16T10:27:42Z</time>
      </trkpt>
      <trkpt lat="44.99396" lon="2.14596">
        <ele>619.23</ele>
        <time>2021-08-16T10:27:50Z</time>
      </trkpt>
      <trkpt lat="44.99396" lon="2.14596">
        <ele>619.23</ele>
        <time>2021-08-16T10:28:01Z</time>
      </trkpt>
      <trkpt lat="44.99395" lon="2.14592">
        <ele>619.23</ele>
        <time>2021-08-16T10:28:05Z</time>
      </trkpt>
      <trkpt lat="44.99395" lon="2.1459">
        <ele>619.23</ele>
        <time>2021-08-16T10:28:06Z</time>
      </trkpt>
      <trkpt lat="44.99396" lon="2.14588">
        <ele>619.23</ele>
        <time>2021-08-16T10:28:07Z</time>
      </trkpt>
      <trkpt lat="44.99396" lon="2.14586">
        <ele>619.23</ele>
        <time>2021-08-16T10:28:08Z</time>
      </trkpt>
      <trkpt lat="44.99397" lon="2.14584">
        <ele>619.23</ele>
        <time>2021-08-16T10:28:09Z</time>
      </trkpt>
      <trkpt lat="44.9941" lon="2.14558">
        <ele>618.26</ele>
        <time>2021-08-16T10:28:15Z</time>
      </trkpt>
      <trkpt lat="44.9942" lon="2.14541">
        <ele>617.78</ele>
        <time>2021-08-16T10:28:18Z</time>
      </trkpt>
      <trkpt lat="44.99454" lon="2.14483">
        <ele>616.34</ele>
        <time>2021-08-16T10:28:27Z</time>
      </trkpt>
      <trkpt lat="44.99488" lon="2.14425">
        <ele>616.34</ele>
        <time>2021-08-16T10:28:37Z</time>
      </trkpt>
      <trkpt lat="44.99524" lon="2.14367">
        <ele>615.86</ele>
        <time>2021-08-16T10:28:47Z</time>
      </trkpt>
      <trkpt lat="44.99562" lon="2.14302">
        <ele>613.46</ele>
        <time>2021-08-16T10:28:56Z</time>
      </trkpt>
      <trkpt lat="44.99607" lon="2.14223">
        <ele>611.06</ele>
        <time>2021-08-16T10:29:06Z</time>
      </trkpt>
      <trkpt lat="44.99638" lon="2.14152">
        <ele>610.57</ele>
        <time>2021-08-16T10:29:15Z</time>
      </trkpt>
      <trkpt lat="44.99654" lon="2.14103">
        <ele>610.57</ele>
        <time>2021-08-16T10:29:21Z</time>
      </trkpt>
      <trkpt lat="44.99659" lon="2.14088">
        <ele>610.57</ele>
        <time>2021-08-16T10:29:23Z</time>
      </trkpt>
      <trkpt lat="44.99669" lon="2.14039">
        <ele>610.57</ele>
        <time>2021-08-16T10:29:29Z</time>
      </trkpt>
      <trkpt lat="44.9967" lon="2.14032">
        <ele>610.57</ele>
        <time>2021-08-16T10:29:30Z</time>
      </trkpt>
      <trkpt lat="44.99672" lon="2.14025">
        <ele>610.57</ele>
        <time>2021-08-16T10:29:31Z</time>
      </trkpt>
      <trkpt lat="44.99684" lon="2.13989">
        <ele>610.09</ele>
        <time>2021-08-16T10:29:38Z</time>
      </trkpt>
      <trkpt lat="44.99696" lon="2.1394">
        <ele>608.65</ele>
        <time>2021-08-16T10:29:46Z</time>
      </trkpt>
      <trkpt lat="44.99697" lon="2.13933">
        <ele>608.65</ele>
        <time>2021-08-16T10:29:47Z</time>
      </trkpt>
      <trkpt lat="44.99698" lon="2.13928">
        <ele>608.17</ele>
        <time>2021-08-16T10:29:48Z</time>
      </trkpt>
      <trkpt lat="44.99699" lon="2.13923">
        <ele>608.17</ele>
        <time>2021-08-16T10:29:49Z</time>
      </trkpt>
      <trkpt lat="44.997" lon="2.13919">
        <ele>608.17</ele>
        <time>2021-08-16T10:29:50Z</time>
      </trkpt>
      <trkpt lat="44.997" lon="2.13915">
        <ele>607.69</ele>
        <time>2021-08-16T10:29:51Z</time>
      </trkpt>
      <trkpt lat="44.997" lon="2.13907">
        <ele>607.69</ele>
        <time>2021-08-16T10:29:57Z</time>
      </trkpt>
      <trkpt lat="44.99699" lon="2.13906">
        <ele>607.69</ele>
        <time>2021-08-16T10:29:58Z</time>
      </trkpt>
      <trkpt lat="44.99692" lon="2.13908">
        <ele>607.69</ele>
        <time>2021-08-16T10:30:00Z</time>
      </trkpt>
      <trkpt lat="44.99691" lon="2.13911">
        <ele>607.69</ele>
        <time>2021-08-16T10:30:01Z</time>
      </trkpt>
      <trkpt lat="44.9969" lon="2.13914">
        <ele>607.69</ele>
        <time>2021-08-16T10:30:02Z</time>
      </trkpt>
      <trkpt lat="44.99689" lon="2.13918">
        <ele>607.69</ele>
        <time>2021-08-16T10:30:03Z</time>
      </trkpt>
      <trkpt lat="44.99678" lon="2.1394">
        <ele>607.21</ele>
        <time>2021-08-16T10:30:10Z</time>
      </trkpt>
      <trkpt lat="44.99676" lon="2.13941">
        <ele>607.21</ele>
        <time>2021-08-16T10:30:14Z</time>
      </trkpt>
      <trkpt lat="44.99675" lon="2.13941">
        <ele>607.21</ele>
        <time>2021-08-16T10:30:33Z</time>
      </trkpt>
      <trkpt lat="44.99676" lon="2.13941">
        <ele>607.21</ele>
        <time>2021-08-16T10:30:38Z</time>
      </trkpt>
      <trkpt lat="44.99677" lon="2.13942">
        <ele>607.21</ele>
        <time>2021-08-16T10:30:39Z</time>
      </trkpt>
      <trkpt lat="44.99678" lon="2.13941">
        <ele>607.21</ele>
        <time>2021-08-16T10:30:40Z</time>
      </trkpt>
      <trkpt lat="44.99685" lon="2.13927">
        <ele>607.21</ele>
        <time>2021-08-16T10:30:46Z</time>
      </trkpt>
      <trkpt lat="44.99696" lon="2.13901">
        <ele>607.21</ele>
        <time>2021-08-16T10:30:52Z</time>
      </trkpt>
      <trkpt lat="44.99698" lon="2.13896">
        <ele>607.21</ele>
        <time>2021-08-16T10:30:53Z</time>
      </trkpt>
      <trkpt lat="44.997" lon="2.13889">
        <ele>606.73</ele>
        <time>2021-08-16T10:30:54Z</time>
      </trkpt>
      <trkpt lat="44.99701" lon="2.13882">
        <ele>606.73</ele>
        <time>2021-08-16T10:30:55Z</time>
      </trkpt>
      <trkpt lat="44.99701" lon="2.13875">
        <ele>606.25</ele>
        <time>2021-08-16T10:30:56Z</time>
      </trkpt>
      <trkpt lat="44.99702" lon="2.13867">
        <ele>606.25</ele>
        <time>2021-08-16T10:30:57Z</time>
      </trkpt>
      <trkpt lat="44.99702" lon="2.13859">
        <ele>605.29</ele>
        <time>2021-08-16T10:30:58Z</time>
      </trkpt>
      <trkpt lat="44.99698" lon="2.13803">
        <ele>602.88</ele>
        <time>2021-08-16T10:31:04Z</time>
      </trkpt>
      <trkpt lat="44.99693" lon="2.13742">
        <ele>600</ele>
        <time>2021-08-16T10:31:10Z</time>
      </trkpt>
      <trkpt lat="44.99688" lon="2.13683">
        <ele>598.08</ele>
        <time>2021-08-16T10:31:15Z</time>
      </trkpt>
      <trkpt lat="44.99685" lon="2.13645">
        <ele>596.64</ele>
        <time>2021-08-16T10:31:18Z</time>
      </trkpt>
      <trkpt lat="44.99683" lon="2.13617">
        <ele>595.19</ele>
        <time>2021-08-16T10:31:20Z</time>
      </trkpt>
      <trkpt lat="44.99673" lon="2.13499">
        <ele>592.31</ele>
        <time>2021-08-16T10:31:29Z</time>
      </trkpt>
      <trkpt lat="44.99667" lon="2.13418">
        <ele>591.83</ele>
        <time>2021-08-16T10:31:36Z</time>
      </trkpt>
      <trkpt lat="44.99664" lon="2.13399">
        <ele>591.83</ele>
        <time>2021-08-16T10:31:38Z</time>
      </trkpt>
      <trkpt lat="44.99661" lon="2.13392">
        <ele>591.83</ele>
        <time>2021-08-16T10:31:39Z</time>
      </trkpt>
      <trkpt lat="44.99656" lon="2.13386">
        <ele>591.35</ele>
        <time>2021-08-16T10:31:40Z</time>
      </trkpt>
      <trkpt lat="44.99651" lon="2.13382">
        <ele>591.35</ele>
        <time>2021-08-16T10:31:41Z</time>
      </trkpt>
      <trkpt lat="44.99645" lon="2.13378">
        <ele>590.87</ele>
        <time>2021-08-16T10:31:42Z</time>
      </trkpt>
      <trkpt lat="44.99639" lon="2.13376">
        <ele>590.87</ele>
        <time>2021-08-16T10:31:43Z</time>
      </trkpt>
      <trkpt lat="44.99633" lon="2.13373">
        <ele>590.39</ele>
        <time>2021-08-16T10:31:44Z</time>
      </trkpt>
      <trkpt lat="44.99613" lon="2.13365">
        <ele>589.43</ele>
        <time>2021-08-16T10:31:49Z</time>
      </trkpt>
      <trkpt lat="44.99605" lon="2.13353">
        <ele>588.46</ele>
        <time>2021-08-16T10:31:54Z</time>
      </trkpt>
      <trkpt lat="44.99589" lon="2.13325">
        <ele>587.02</ele>
        <time>2021-08-16T10:32:00Z</time>
      </trkpt>
      <trkpt lat="44.99576" lon="2.13304">
        <ele>586.06</ele>
        <time>2021-08-16T10:32:04Z</time>
      </trkpt>
      <trkpt lat="44.99572" lon="2.133">
        <ele>586.06</ele>
        <time>2021-08-16T10:32:05Z</time>
      </trkpt>
      <trkpt lat="44.99567" lon="2.13297">
        <ele>585.58</ele>
        <time>2021-08-16T10:32:06Z</time>
      </trkpt>
      <trkpt lat="44.99549" lon="2.13287">
        <ele>584.14</ele>
        <time>2021-08-16T10:32:09Z</time>
      </trkpt>
      <trkpt lat="44.99537" lon="2.13277">
        <ele>583.18</ele>
        <time>2021-08-16T10:32:11Z</time>
      </trkpt>
      <trkpt lat="44.99526" lon="2.13269">
        <ele>582.7</ele>
        <time>2021-08-16T10:32:13Z</time>
      </trkpt>
      <trkpt lat="44.99519" lon="2.13267">
        <ele>581.73</ele>
        <time>2021-08-16T10:32:14Z</time>
      </trkpt>
      <trkpt lat="44.99512" lon="2.13266">
        <ele>581.73</ele>
        <time>2021-08-16T10:32:15Z</time>
      </trkpt>
      <trkpt lat="44.99506" lon="2.13266">
        <ele>581.73</ele>
        <time>2021-08-16T10:32:16Z</time>
      </trkpt>
      <trkpt lat="44.995" lon="2.13267">
        <ele>581.25</ele>
        <time>2021-08-16T10:32:17Z</time>
      </trkpt>
      <trkpt lat="44.99494" lon="2.13269">
        <ele>581.25</ele>
        <time>2021-08-16T10:32:18Z</time>
      </trkpt>
      <trkpt lat="44.99488" lon="2.13272">
        <ele>580.77</ele>
        <time>2021-08-16T10:32:19Z</time>
      </trkpt>
      <trkpt lat="44.99483" lon="2.13275">
        <ele>580.29</ele>
        <time>2021-08-16T10:32:20Z</time>
      </trkpt>
      <trkpt lat="44.99468" lon="2.13286">
        <ele>579.81</ele>
        <time>2021-08-16T10:32:23Z</time>
      </trkpt>
      <trkpt lat="44.99462" lon="2.13287">
        <ele>579.81</ele>
        <time>2021-08-16T10:32:24Z</time>
      </trkpt>
      <trkpt lat="44.99457" lon="2.13287">
        <ele>579.33</ele>
        <time>2021-08-16T10:32:25Z</time>
      </trkpt>
      <trkpt lat="44.99452" lon="2.13285">
        <ele>579.33</ele>
        <time>2021-08-16T10:32:26Z</time>
      </trkpt>
      <trkpt lat="44.99448" lon="2.13282">
        <ele>579.33</ele>
        <time>2021-08-16T10:32:27Z</time>
      </trkpt>
      <trkpt lat="44.99444" lon="2.13278">
        <ele>578.85</ele>
        <time>2021-08-16T10:32:28Z</time>
      </trkpt>
      <trkpt lat="44.99441" lon="2.13273">
        <ele>578.85</ele>
        <time>2021-08-16T10:32:29Z</time>
      </trkpt>
      <trkpt lat="44.99438" lon="2.13268">
        <ele>578.85</ele>
        <time>2021-08-16T10:32:30Z</time>
      </trkpt>
      <trkpt lat="44.99427" lon="2.13255">
        <ele>577.89</ele>
        <time>2021-08-16T10:32:33Z</time>
      </trkpt>
      <trkpt lat="44.99424" lon="2.13248">
        <ele>577.41</ele>
        <time>2021-08-16T10:32:34Z</time>
      </trkpt>
      <trkpt lat="44.99422" lon="2.13241">
        <ele>577.41</ele>
        <time>2021-08-16T10:32:35Z</time>
      </trkpt>
      <trkpt lat="44.99416" lon="2.13208">
        <ele>575.97</ele>
        <time>2021-08-16T10:32:39Z</time>
      </trkpt>
      <trkpt lat="44.99417" lon="2.13199">
        <ele>575.97</ele>
        <time>2021-08-16T10:32:40Z</time>
      </trkpt>
      <trkpt lat="44.99417" lon="2.13191">
        <ele>575.97</ele>
        <time>2021-08-16T10:32:41Z</time>
      </trkpt>
      <trkpt lat="44.99419" lon="2.13175">
        <ele>575.49</ele>
        <time>2021-08-16T10:32:43Z</time>
      </trkpt>
      <trkpt lat="44.99419" lon="2.13167">
        <ele>575.49</ele>
        <time>2021-08-16T10:32:44Z</time>
      </trkpt>
      <trkpt lat="44.99418" lon="2.1316">
        <ele>575.49</ele>
        <time>2021-08-16T10:32:45Z</time>
      </trkpt>
      <trkpt lat="44.99416" lon="2.13153">
        <ele>575.49</ele>
        <time>2021-08-16T10:32:46Z</time>
      </trkpt>
      <trkpt lat="44.99414" lon="2.13146">
        <ele>575.49</ele>
        <time>2021-08-16T10:32:47Z</time>
      </trkpt>
      <trkpt lat="44.99399" lon="2.13102">
        <ele>575.49</ele>
        <time>2021-08-16T10:32:55Z</time>
      </trkpt>
      <trkpt lat="44.99387" lon="2.13074">
        <ele>577.41</ele>
        <time>2021-08-16T10:33:02Z</time>
      </trkpt>
      <trkpt lat="44.99376" lon="2.13038">
        <ele>578.37</ele>
        <time>2021-08-16T10:33:10Z</time>
      </trkpt>
      <trkpt lat="44.99363" lon="2.13035">
        <ele>578.85</ele>
        <time>2021-08-16T10:33:15Z</time>
      </trkpt>
      <trkpt lat="44.99347" lon="2.13042">
        <ele>579.33</ele>
        <time>2021-08-16T10:33:21Z</time>
      </trkpt>
      <trkpt lat="44.99327" lon="2.13048">
        <ele>579.81</ele>
        <time>2021-08-16T10:33:28Z</time>
      </trkpt>
      <trkpt lat="44.99304" lon="2.13044">
        <ele>579.81</ele>
        <time>2021-08-16T10:33:35Z</time>
      </trkpt>
      <trkpt lat="44.99286" lon="2.13028">
        <ele>580.29</ele>
        <time>2021-08-16T10:33:41Z</time>
      </trkpt>
      <trkpt lat="44.99267" lon="2.13025">
        <ele>580.29</ele>
        <time>2021-08-16T10:33:47Z</time>
      </trkpt>
      <trkpt lat="44.99258" lon="2.1303">
        <ele>578.85</ele>
        <time>2021-08-16T10:33:50Z</time>
      </trkpt>
      <trkpt lat="44.99247" lon="2.13042">
        <ele>577.89</ele>
        <time>2021-08-16T10:33:54Z</time>
      </trkpt>
      <trkpt lat="44.99243" lon="2.13046">
        <ele>577.41</ele>
        <time>2021-08-16T10:33:55Z</time>
      </trkpt>
      <trkpt lat="44.9924" lon="2.13051">
        <ele>577.41</ele>
        <time>2021-08-16T10:33:56Z</time>
      </trkpt>
      <trkpt lat="44.99224" lon="2.13074">
        <ele>573.56</ele>
        <time>2021-08-16T10:34:00Z</time>
      </trkpt>
      <trkpt lat="44.99219" lon="2.13079">
        <ele>572.6</ele>
        <time>2021-08-16T10:34:01Z</time>
      </trkpt>
      <trkpt lat="44.99214" lon="2.13083">
        <ele>571.64</ele>
        <time>2021-08-16T10:34:02Z</time>
      </trkpt>
      <trkpt lat="44.99209" lon="2.13087">
        <ele>571.16</ele>
        <time>2021-08-16T10:34:03Z</time>
      </trkpt>
      <trkpt lat="44.99203" lon="2.13089">
        <ele>570.68</ele>
        <time>2021-08-16T10:34:04Z</time>
      </trkpt>
      <trkpt lat="44.99197" lon="2.1309">
        <ele>569.72</ele>
        <time>2021-08-16T10:34:05Z</time>
      </trkpt>
      <trkpt lat="44.99191" lon="2.1309">
        <ele>569.24</ele>
        <time>2021-08-16T10:34:06Z</time>
      </trkpt>
      <trkpt lat="44.99184" lon="2.1309">
        <ele>568.76</ele>
        <time>2021-08-16T10:34:07Z</time>
      </trkpt>
      <trkpt lat="44.99177" lon="2.1309">
        <ele>568.28</ele>
        <time>2021-08-16T10:34:08Z</time>
      </trkpt>
      <trkpt lat="44.99139" lon="2.13085">
        <ele>567.32</ele>
        <time>2021-08-16T10:34:14Z</time>
      </trkpt>
      <trkpt lat="44.99133" lon="2.13083">
        <ele>566.35</ele>
        <time>2021-08-16T10:34:15Z</time>
      </trkpt>
      <trkpt lat="44.99128" lon="2.1308">
        <ele>566.35</ele>
        <time>2021-08-16T10:34:16Z</time>
      </trkpt>
      <trkpt lat="44.99122" lon="2.13077">
        <ele>566.35</ele>
        <time>2021-08-16T10:34:17Z</time>
      </trkpt>
      <trkpt lat="44.99116" lon="2.13072">
        <ele>565.39</ele>
        <time>2021-08-16T10:34:18Z</time>
      </trkpt>
      <trkpt lat="44.99099" lon="2.13057">
        <ele>563.47</ele>
        <time>2021-08-16T10:34:21Z</time>
      </trkpt>
      <trkpt lat="44.99088" lon="2.13043">
        <ele>562.03</ele>
        <time>2021-08-16T10:34:23Z</time>
      </trkpt>
      <trkpt lat="44.99065" lon="2.13011">
        <ele>558.66</ele>
        <time>2021-08-16T10:34:28Z</time>
      </trkpt>
      <trkpt lat="44.99061" lon="2.13007">
        <ele>558.18</ele>
        <time>2021-08-16T10:34:29Z</time>
      </trkpt>
      <trkpt lat="44.99056" lon="2.13004">
        <ele>557.7</ele>
        <time>2021-08-16T10:34:30Z</time>
      </trkpt>
      <trkpt lat="44.99051" lon="2.13003">
        <ele>556.74</ele>
        <time>2021-08-16T10:34:31Z</time>
      </trkpt>
      <trkpt lat="44.99045" lon="2.13004">
        <ele>556.26</ele>
        <time>2021-08-16T10:34:32Z</time>
      </trkpt>
      <trkpt lat="44.9904" lon="2.13007">
        <ele>555.78</ele>
        <time>2021-08-16T10:34:33Z</time>
      </trkpt>
      <trkpt lat="44.99035" lon="2.13012">
        <ele>555.3</ele>
        <time>2021-08-16T10:34:34Z</time>
      </trkpt>
      <trkpt lat="44.99029" lon="2.13017">
        <ele>554.34</ele>
        <time>2021-08-16T10:34:35Z</time>
      </trkpt>
      <trkpt lat="44.99024" lon="2.13023">
        <ele>553.86</ele>
        <time>2021-08-16T10:34:36Z</time>
      </trkpt>
      <trkpt lat="44.99018" lon="2.13028">
        <ele>552.9</ele>
        <time>2021-08-16T10:34:37Z</time>
      </trkpt>
      <trkpt lat="44.99011" lon="2.13035">
        <ele>552.41</ele>
        <time>2021-08-16T10:34:38Z</time>
      </trkpt>
      <trkpt lat="44.98978" lon="2.13063">
        <ele>549.53</ele>
        <time>2021-08-16T10:34:43Z</time>
      </trkpt>
      <trkpt lat="44.9895" lon="2.13083">
        <ele>548.09</ele>
        <time>2021-08-16T10:34:47Z</time>
      </trkpt>
      <trkpt lat="44.98895" lon="2.13104">
        <ele>547.61</ele>
        <time>2021-08-16T10:34:55Z</time>
      </trkpt>
      <trkpt lat="44.9888" lon="2.13106">
        <ele>549.05</ele>
        <time>2021-08-16T10:34:58Z</time>
      </trkpt>
      <trkpt lat="44.98868" lon="2.13105">
        <ele>550.01</ele>
        <time>2021-08-16T10:35:03Z</time>
      </trkpt>
      <trkpt lat="44.98857" lon="2.13107">
        <ele>551.45</ele>
        <time>2021-08-16T10:35:10Z</time>
      </trkpt>
      <trkpt lat="44.98852" lon="2.13109">
        <ele>551.93</ele>
        <time>2021-08-16T10:35:13Z</time>
      </trkpt>
      <trkpt lat="44.98851" lon="2.1311">
        <ele>552.41</ele>
        <time>2021-08-16T10:35:14Z</time>
      </trkpt>
      <trkpt lat="44.98849" lon="2.1311">
        <ele>552.41</ele>
        <time>2021-08-16T10:35:15Z</time>
      </trkpt>
      <trkpt lat="44.98834" lon="2.13116">
        <ele>552.9</ele>
        <time>2021-08-16T10:35:23Z</time>
      </trkpt>
      <trkpt lat="44.98819" lon="2.13125">
        <ele>552.9</ele>
        <time>2021-08-16T10:35:30Z</time>
      </trkpt>
      <trkpt lat="44.98802" lon="2.13131">
        <ele>552.9</ele>
        <time>2021-08-16T10:35:36Z</time>
      </trkpt>
      <trkpt lat="44.98778" lon="2.13133">
        <ele>550.49</ele>
        <time>2021-08-16T10:35:42Z</time>
      </trkpt>
      <trkpt lat="44.98768" lon="2.13132">
        <ele>550.01</ele>
        <time>2021-08-16T10:35:44Z</time>
      </trkpt>
      <trkpt lat="44.98737" lon="2.13126">
        <ele>546.65</ele>
        <time>2021-08-16T10:35:51Z</time>
      </trkpt>
      <trkpt lat="44.98724" lon="2.13122">
        <ele>544.72</ele>
        <time>2021-08-16T10:35:54Z</time>
      </trkpt>
      <trkpt lat="44.98719" lon="2.13119">
        <ele>543.76</ele>
        <time>2021-08-16T10:35:55Z</time>
      </trkpt>
      <trkpt lat="44.98705" lon="2.13096">
        <ele>539.92</ele>
        <time>2021-08-16T10:36:00Z</time>
      </trkpt>
      <trkpt lat="44.98704" lon="2.1309">
        <ele>539.92</ele>
        <time>2021-08-16T10:36:01Z</time>
      </trkpt>
      <trkpt lat="44.98705" lon="2.13077">
        <ele>537.99</ele>
        <time>2021-08-16T10:36:03Z</time>
      </trkpt>
      <trkpt lat="44.98706" lon="2.13047">
        <ele>534.15</ele>
        <time>2021-08-16T10:36:07Z</time>
      </trkpt>
      <trkpt lat="44.98708" lon="2.13022">
        <ele>532.23</ele>
        <time>2021-08-16T10:36:10Z</time>
      </trkpt>
      <trkpt lat="44.98702" lon="2.12984">
        <ele>528.38</ele>
        <time>2021-08-16T10:36:15Z</time>
      </trkpt>
      <trkpt lat="44.987" lon="2.12967">
        <ele>526.46</ele>
        <time>2021-08-16T10:36:17Z</time>
      </trkpt>
      <trkpt lat="44.98704" lon="2.12936">
        <ele>522.13</ele>
        <time>2021-08-16T10:36:21Z</time>
      </trkpt>
      <trkpt lat="44.98709" lon="2.12922">
        <ele>519.25</ele>
        <time>2021-08-16T10:36:23Z</time>
      </trkpt>
      <trkpt lat="44.98716" lon="2.12899">
        <ele>515.4</ele>
        <time>2021-08-16T10:36:26Z</time>
      </trkpt>
      <trkpt lat="44.9873" lon="2.12872">
        <ele>510.6</ele>
        <time>2021-08-16T10:36:30Z</time>
      </trkpt>
      <trkpt lat="44.98748" lon="2.12848">
        <ele>505.31</ele>
        <time>2021-08-16T10:36:34Z</time>
      </trkpt>
      <trkpt lat="44.98763" lon="2.12832">
        <ele>502.43</ele>
        <time>2021-08-16T10:36:37Z</time>
      </trkpt>
      <trkpt lat="44.98788" lon="2.12816">
        <ele>497.14</ele>
        <time>2021-08-16T10:36:41Z</time>
      </trkpt>
      <trkpt lat="44.98794" lon="2.12813">
        <ele>496.18</ele>
        <time>2021-08-16T10:36:42Z</time>
      </trkpt>
      <trkpt lat="44.98809" lon="2.12809">
        <ele>495.22</ele>
        <time>2021-08-16T10:36:44Z</time>
      </trkpt>
      <trkpt lat="44.98818" lon="2.12799">
        <ele>493.77</ele>
        <time>2021-08-16T10:36:47Z</time>
      </trkpt>
      <trkpt lat="44.98811" lon="2.12796">
        <ele>491.85</ele>
        <time>2021-08-16T10:36:50Z</time>
      </trkpt>
      <trkpt lat="44.98801" lon="2.12796">
        <ele>487.53</ele>
        <time>2021-08-16T10:36:53Z</time>
      </trkpt>
      <trkpt lat="44.98789" lon="2.1279">
        <ele>484.16</ele>
        <time>2021-08-16T10:36:55Z</time>
      </trkpt>
      <trkpt lat="44.98758" lon="2.1278">
        <ele>478.39</ele>
        <time>2021-08-16T10:37:00Z</time>
      </trkpt>
      <trkpt lat="44.98736" lon="2.12784">
        <ele>474.07</ele>
        <time>2021-08-16T10:37:03Z</time>
      </trkpt>
      <trkpt lat="44.98712" lon="2.1279">
        <ele>469.74</ele>
        <time>2021-08-16T10:37:06Z</time>
      </trkpt>
      <trkpt lat="44.98692" lon="2.12797">
        <ele>466.38</ele>
        <time>2021-08-16T10:37:09Z</time>
      </trkpt>
      <trkpt lat="44.98677" lon="2.12799">
        <ele>462.53</ele>
        <time>2021-08-16T10:37:11Z</time>
      </trkpt>
      <trkpt lat="44.9867" lon="2.12799">
        <ele>461.09</ele>
        <time>2021-08-16T10:37:12Z</time>
      </trkpt>
      <trkpt lat="44.98648" lon="2.12793">
        <ele>456.28</ele>
        <time>2021-08-16T10:37:16Z</time>
      </trkpt>
      <trkpt lat="44.98633" lon="2.12794">
        <ele>453.4</ele>
        <time>2021-08-16T10:37:20Z</time>
      </trkpt>
      <trkpt lat="44.9862" lon="2.12807">
        <ele>449.55</ele>
        <time>2021-08-16T10:37:25Z</time>
      </trkpt>
      <trkpt lat="44.98617" lon="2.12798">
        <ele>447.63</ele>
        <time>2021-08-16T10:37:28Z</time>
      </trkpt>
      <trkpt lat="44.98618" lon="2.12787">
        <ele>446.19</ele>
        <time>2021-08-16T10:37:30Z</time>
      </trkpt>
      <trkpt lat="44.98632" lon="2.12763">
        <ele>440.9</ele>
        <time>2021-08-16T10:37:35Z</time>
      </trkpt>
      <trkpt lat="44.98657" lon="2.12749">
        <ele>438.02</ele>
        <time>2021-08-16T10:37:39Z</time>
      </trkpt>
      <trkpt lat="44.98689" lon="2.12739">
        <ele>438.5</ele>
        <time>2021-08-16T10:37:45Z</time>
      </trkpt>
      <trkpt lat="44.98695" lon="2.12734">
        <ele>438.5</ele>
        <time>2021-08-16T10:37:46Z</time>
      </trkpt>
      <trkpt lat="44.98698" lon="2.12731">
        <ele>438.5</ele>
        <time>2021-08-16T10:37:47Z</time>
      </trkpt>
      <trkpt lat="44.98702" lon="2.12727">
        <ele>438.5</ele>
        <time>2021-08-16T10:37:48Z</time>
      </trkpt>
      <trkpt lat="44.98706" lon="2.12722">
        <ele>438.5</ele>
        <time>2021-08-16T10:37:49Z</time>
      </trkpt>
      <trkpt lat="44.9871" lon="2.12717">
        <ele>437.54</ele>
        <time>2021-08-16T10:37:50Z</time>
      </trkpt>
      <trkpt lat="44.98712" lon="2.12713">
        <ele>436.58</ele>
        <time>2021-08-16T10:37:51Z</time>
      </trkpt>
      <trkpt lat="44.98714" lon="2.12708">
        <ele>435.61</ele>
        <time>2021-08-16T10:37:52Z</time>
      </trkpt>
      <trkpt lat="44.98714" lon="2.12703">
        <ele>435.13</ele>
        <time>2021-08-16T10:37:53Z</time>
      </trkpt>
      <trkpt lat="44.98712" lon="2.127">
        <ele>434.17</ele>
        <time>2021-08-16T10:37:54Z</time>
      </trkpt>
      <trkpt lat="44.98709" lon="2.12698">
        <ele>433.69</ele>
        <time>2021-08-16T10:37:55Z</time>
      </trkpt>
      <trkpt lat="44.98704" lon="2.12696">
        <ele>433.69</ele>
        <time>2021-08-16T10:37:56Z</time>
      </trkpt>
      <trkpt lat="44.98684" lon="2.12693">
        <ele>430.33</ele>
        <time>2021-08-16T10:38:00Z</time>
      </trkpt>
      <trkpt lat="44.9868" lon="2.12694">
        <ele>429.85</ele>
        <time>2021-08-16T10:38:01Z</time>
      </trkpt>
      <trkpt lat="44.98675" lon="2.12698">
        <ele>428.89</ele>
        <time>2021-08-16T10:38:02Z</time>
      </trkpt>
      <trkpt lat="44.98671" lon="2.12704">
        <ele>427.92</ele>
        <time>2021-08-16T10:38:03Z</time>
      </trkpt>
      <trkpt lat="44.98668" lon="2.12709">
        <ele>426.96</ele>
        <time>2021-08-16T10:38:04Z</time>
      </trkpt>
      <trkpt lat="44.98664" lon="2.12712">
        <ele>426.48</ele>
        <time>2021-08-16T10:38:05Z</time>
      </trkpt>
      <trkpt lat="44.9866" lon="2.12713">
        <ele>426.48</ele>
        <time>2021-08-16T10:38:06Z</time>
      </trkpt>
      <trkpt lat="44.98655" lon="2.12712">
        <ele>426.48</ele>
        <time>2021-08-16T10:38:07Z</time>
      </trkpt>
      <trkpt lat="44.98642" lon="2.12713">
        <ele>426.48</ele>
        <time>2021-08-16T10:38:12Z</time>
      </trkpt>
      <trkpt lat="44.98637" lon="2.12707">
        <ele>426.48</ele>
        <time>2021-08-16T10:38:16Z</time>
      </trkpt>
      <trkpt lat="44.98637" lon="2.12705">
        <ele>426.48</ele>
        <time>2021-08-16T10:38:17Z</time>
      </trkpt>
      <trkpt lat="44.98637" lon="2.12702">
        <ele>426.48</ele>
        <time>2021-08-16T10:38:18Z</time>
      </trkpt>
      <trkpt lat="44.98637" lon="2.12678">
        <ele>425.52</ele>
        <time>2021-08-16T10:38:24Z</time>
      </trkpt>
      <trkpt lat="44.98636" lon="2.12676">
        <ele>425.52</ele>
        <time>2021-08-16T10:38:25Z</time>
      </trkpt>
      <trkpt lat="44.98624" lon="2.12657">
        <ele>426.96</ele>
        <time>2021-08-16T10:38:35Z</time>
      </trkpt>
      <trkpt lat="44.98619" lon="2.12637">
        <ele>426.96</ele>
        <time>2021-08-16T10:38:43Z</time>
      </trkpt>
      <trkpt lat="44.98618" lon="2.12612">
        <ele>426.96</ele>
        <time>2021-08-16T10:38:49Z</time>
      </trkpt>
      <trkpt lat="44.9861" lon="2.12588">
        <ele>426.96</ele>
        <time>2021-08-16T10:38:55Z</time>
      </trkpt>
      <trkpt lat="44.98604" lon="2.12563">
        <ele>426.96</ele>
        <time>2021-08-16T10:39:01Z</time>
      </trkpt>
      <trkpt lat="44.98605" lon="2.12561">
        <ele>426.96</ele>
        <time>2021-08-16T10:39:02Z</time>
      </trkpt>
      <trkpt lat="44.98604" lon="2.12558">
        <ele>426.96</ele>
        <time>2021-08-16T10:39:07Z</time>
      </trkpt>
      <trkpt lat="44.98604" lon="2.12555">
        <ele>426.96</ele>
        <time>2021-08-16T10:39:24Z</time>
      </trkpt>
      <trkpt lat="44.98602" lon="2.12554">
        <ele>426.96</ele>
        <time>2021-08-16T10:39:46Z</time>
      </trkpt>
      <trkpt lat="44.98603" lon="2.12552">
        <ele>426.96</ele>
        <time>2021-08-16T10:39:54Z</time>
      </trkpt>
      <trkpt lat="44.98602" lon="2.1255">
        <ele>426.96</ele>
        <time>2021-08-16T10:40:09Z</time>
      </trkpt>
      <trkpt lat="44.98608" lon="2.12534">
        <ele>426.96</ele>
        <time>2021-08-16T10:40:14Z</time>
      </trkpt>
      <trkpt lat="44.98615" lon="2.12519">
        <ele>426.96</ele>
        <time>2021-08-16T10:40:20Z</time>
      </trkpt>
      <trkpt lat="44.98626" lon="2.12503">
        <ele>426.96</ele>
        <time>2021-08-16T10:40:26Z</time>
      </trkpt>
      <trkpt lat="44.98642" lon="2.1248">
        <ele>426.96</ele>
        <time>2021-08-16T10:40:33Z</time>
      </trkpt>
      <trkpt lat="44.98652" lon="2.1245">
        <ele>426.96</ele>
        <time>2021-08-16T10:40:40Z</time>
      </trkpt>
      <trkpt lat="44.98651" lon="2.12427">
        <ele>426.48</ele>
        <time>2021-08-16T10:40:45Z</time>
      </trkpt>
      <trkpt lat="44.98652" lon="2.124">
        <ele>426.48</ele>
        <time>2021-08-16T10:40:51Z</time>
      </trkpt>
      <trkpt lat="44.98653" lon="2.12375">
        <ele>426.48</ele>
        <time>2021-08-16T10:40:57Z</time>
      </trkpt>
      <trkpt lat="44.98651" lon="2.12343">
        <ele>426.48</ele>
        <time>2021-08-16T10:41:04Z</time>
      </trkpt>
      <trkpt lat="44.98651" lon="2.12334">
        <ele>426.48</ele>
        <time>2021-08-16T10:41:06Z</time>
      </trkpt>
      <trkpt lat="44.98658" lon="2.12304">
        <ele>426.48</ele>
        <time>2021-08-16T10:41:13Z</time>
      </trkpt>
      <trkpt lat="44.98654" lon="2.12278">
        <ele>426.48</ele>
        <time>2021-08-16T10:41:19Z</time>
      </trkpt>
      <trkpt lat="44.98651" lon="2.12244">
        <ele>426.48</ele>
        <time>2021-08-16T10:41:26Z</time>
      </trkpt>
      <trkpt lat="44.98648" lon="2.12203">
        <ele>426.48</ele>
        <time>2021-08-16T10:41:34Z</time>
      </trkpt>
      <trkpt lat="44.98646" lon="2.12176">
        <ele>426.48</ele>
        <time>2021-08-16T10:41:40Z</time>
      </trkpt>
      <trkpt lat="44.98646" lon="2.12149">
        <ele>426.48</ele>
        <time>2021-08-16T10:41:45Z</time>
      </trkpt>
      <trkpt lat="44.98647" lon="2.12144">
        <ele>426.48</ele>
        <time>2021-08-16T10:41:46Z</time>
      </trkpt>
      <trkpt lat="44.98649" lon="2.1214">
        <ele>426.48</ele>
        <time>2021-08-16T10:41:47Z</time>
      </trkpt>
      <trkpt lat="44.98652" lon="2.12137">
        <ele>426.48</ele>
        <time>2021-08-16T10:41:48Z</time>
      </trkpt>
      <trkpt lat="44.98655" lon="2.12135">
        <ele>426.48</ele>
        <time>2021-08-16T10:41:49Z</time>
      </trkpt>
      <trkpt lat="44.98678" lon="2.12121">
        <ele>426.48</ele>
        <time>2021-08-16T10:41:57Z</time>
      </trkpt>
      <trkpt lat="44.98704" lon="2.12117">
        <ele>426.48</ele>
        <time>2021-08-16T10:42:05Z</time>
      </trkpt>
      <trkpt lat="44.98713" lon="2.12112">
        <ele>426.48</ele>
        <time>2021-08-16T10:42:09Z</time>
      </trkpt>
      <trkpt lat="44.98714" lon="2.1211">
        <ele>426.48</ele>
        <time>2021-08-16T10:42:10Z</time>
      </trkpt>
      <trkpt lat="44.98714" lon="2.12107">
        <ele>426.48</ele>
        <time>2021-08-16T10:42:11Z</time>
      </trkpt>
      <trkpt lat="44.98713" lon="2.12106">
        <ele>426.48</ele>
        <time>2021-08-16T10:42:12Z</time>
      </trkpt>
      <trkpt lat="44.98711" lon="2.12104">
        <ele>426.48</ele>
        <time>2021-08-16T10:42:13Z</time>
      </trkpt>
      <trkpt lat="44.9871" lon="2.12103">
        <ele>426.48</ele>
        <time>2021-08-16T10:42:14Z</time>
      </trkpt>
      <trkpt lat="44.98698" lon="2.12094">
        <ele>426.48</ele>
        <time>2021-08-16T10:42:20Z</time>
      </trkpt>
      <trkpt lat="44.98683" lon="2.12069">
        <ele>426.48</ele>
        <time>2021-08-16T10:42:27Z</time>
      </trkpt>
      <trkpt lat="44.9867" lon="2.12045">
        <ele>426.48</ele>
        <time>2021-08-16T10:42:33Z</time>
      </trkpt>
      <trkpt lat="44.98657" lon="2.12018">
        <ele>426.48</ele>
        <time>2021-08-16T10:42:40Z</time>
      </trkpt>
      <trkpt lat="44.98655" lon="2.11985">
        <ele>426.48</ele>
        <time>2021-08-16T10:42:47Z</time>
      </trkpt>
      <trkpt lat="44.98656" lon="2.11971">
        <ele>426.48</ele>
        <time>2021-08-16T10:42:50Z</time>
      </trkpt>
      <trkpt lat="44.98656" lon="2.11968">
        <ele>426.48</ele>
        <time>2021-08-16T10:42:51Z</time>
      </trkpt>
      <trkpt lat="44.98655" lon="2.11965">
        <ele>426.48</ele>
        <time>2021-08-16T10:42:52Z</time>
      </trkpt>
      <trkpt lat="44.98654" lon="2.11963">
        <ele>426.48</ele>
        <time>2021-08-16T10:42:53Z</time>
      </trkpt>
      <trkpt lat="44.98653" lon="2.1196">
        <ele>426.48</ele>
        <time>2021-08-16T10:42:54Z</time>
      </trkpt>
      <trkpt lat="44.98652" lon="2.11957">
        <ele>426.48</ele>
        <time>2021-08-16T10:42:55Z</time>
      </trkpt>
      <trkpt lat="44.98646" lon="2.11947">
        <ele>426.48</ele>
        <time>2021-08-16T10:43:00Z</time>
      </trkpt>
      <trkpt lat="44.98638" lon="2.11936">
        <ele>426.48</ele>
        <time>2021-08-16T10:43:06Z</time>
      </trkpt>
      <trkpt lat="44.9863" lon="2.1192">
        <ele>426.48</ele>
        <time>2021-08-16T10:43:12Z</time>
      </trkpt>
      <trkpt lat="44.98628" lon="2.11917">
        <ele>426.48</ele>
        <time>2021-08-16T10:43:14Z</time>
      </trkpt>
      <trkpt lat="44.98627" lon="2.11915">
        <ele>426.48</ele>
        <time>2021-08-16T10:43:15Z</time>
      </trkpt>
      <trkpt lat="44.98627" lon="2.11913">
        <ele>426.48</ele>
        <time>2021-08-16T10:43:16Z</time>
      </trkpt>
      <trkpt lat="44.98621" lon="2.11904">
        <ele>426.48</ele>
        <time>2021-08-16T10:43:21Z</time>
      </trkpt>
      <trkpt lat="44.98619" lon="2.119">
        <ele>426.48</ele>
        <time>2021-08-16T10:43:26Z</time>
      </trkpt>
      <trkpt lat="44.98615" lon="2.11896">
        <ele>426.48</ele>
        <time>2021-08-16T10:43:33Z</time>
      </trkpt>
      <trkpt lat="44.98615" lon="2.11897">
        <ele>426.48</ele>
        <time>2021-08-16T10:43:46Z</time>
      </trkpt>
      <trkpt lat="44.98615" lon="2.11895">
        <ele>426.48</ele>
        <time>2021-08-16T10:43:58Z</time>
      </trkpt>
      <trkpt lat="44.98615" lon="2.11896">
        <ele>426.48</ele>
        <time>2021-08-16T10:44:05Z</time>
      </trkpt>
      <trkpt lat="44.98614" lon="2.11898">
        <ele>426.48</ele>
        <time>2021-08-16T10:44:14Z</time>
      </trkpt>
      <trkpt lat="44.98611" lon="2.11899">
        <ele>426.48</ele>
        <time>2021-08-16T10:44:29Z</time>
      </trkpt>
      <trkpt lat="44.98609" lon="2.11897">
        <ele>426.48</ele>
        <time>2021-08-16T10:44:46Z</time>
      </trkpt>
      <trkpt lat="44.9861" lon="2.11896">
        <ele>426.48</ele>
        <time>2021-08-16T10:44:54Z</time>
      </trkpt>
      <trkpt lat="44.986" lon="2.11888">
        <ele>426.48</ele>
        <time>2021-08-16T10:45:01Z</time>
      </trkpt>
      <trkpt lat="44.98586" lon="2.11881">
        <ele>426.48</ele>
        <time>2021-08-16T10:45:07Z</time>
      </trkpt>
      <trkpt lat="44.98567" lon="2.11875">
        <ele>426.48</ele>
        <time>2021-08-16T10:45:14Z</time>
      </trkpt>
      <trkpt lat="44.98549" lon="2.11872">
        <ele>426.48</ele>
        <time>2021-08-16T10:45:21Z</time>
      </trkpt>
      <trkpt lat="44.9853" lon="2.11866">
        <ele>426.48</ele>
        <time>2021-08-16T10:45:28Z</time>
      </trkpt>
      <trkpt lat="44.98513" lon="2.11867">
        <ele>426.48</ele>
        <time>2021-08-16T10:45:34Z</time>
      </trkpt>
      <trkpt lat="44.98499" lon="2.11874">
        <ele>426.48</ele>
        <time>2021-08-16T10:45:40Z</time>
      </trkpt>
      <trkpt lat="44.98482" lon="2.11874">
        <ele>426.96</ele>
        <time>2021-08-16T10:45:47Z</time>
      </trkpt>
      <trkpt lat="44.98466" lon="2.11861">
        <ele>426.96</ele>
        <time>2021-08-16T10:45:53Z</time>
      </trkpt>
      <trkpt lat="44.98465" lon="2.11857">
        <ele>426.96</ele>
        <time>2021-08-16T10:45:54Z</time>
      </trkpt>
      <trkpt lat="44.98464" lon="2.11854">
        <ele>426.96</ele>
        <time>2021-08-16T10:45:55Z</time>
      </trkpt>
      <trkpt lat="44.98464" lon="2.11851">
        <ele>426.96</ele>
        <time>2021-08-16T10:45:56Z</time>
      </trkpt>
      <trkpt lat="44.98465" lon="2.11848">
        <ele>426.96</ele>
        <time>2021-08-16T10:45:57Z</time>
      </trkpt>
      <trkpt lat="44.98466" lon="2.11846">
        <ele>426.96</ele>
        <time>2021-08-16T10:45:58Z</time>
      </trkpt>
      <trkpt lat="44.98467" lon="2.11843">
        <ele>426.96</ele>
        <time>2021-08-16T10:45:59Z</time>
      </trkpt>
      <trkpt lat="44.98468" lon="2.11841">
        <ele>426.96</ele>
        <time>2021-08-16T10:46:00Z</time>
      </trkpt>
      <trkpt lat="44.98469" lon="2.11838">
        <ele>426.96</ele>
        <time>2021-08-16T10:46:01Z</time>
      </trkpt>
      <trkpt lat="44.9847" lon="2.11836">
        <ele>426.96</ele>
        <time>2021-08-16T10:46:02Z</time>
      </trkpt>
      <trkpt lat="44.9847" lon="2.11833">
        <ele>426.96</ele>
        <time>2021-08-16T10:46:03Z</time>
      </trkpt>
      <trkpt lat="44.98473" lon="2.11809">
        <ele>425.52</ele>
        <time>2021-08-16T10:46:10Z</time>
      </trkpt>
      <trkpt lat="44.98474" lon="2.11795">
        <ele>425.52</ele>
        <time>2021-08-16T10:46:15Z</time>
      </trkpt>
      <trkpt lat="44.98476" lon="2.11792">
        <ele>425.52</ele>
        <time>2021-08-16T10:46:16Z</time>
      </trkpt>
      <trkpt lat="44.98478" lon="2.1179">
        <ele>425.52</ele>
        <time>2021-08-16T10:46:17Z</time>
      </trkpt>
      <trkpt lat="44.9848" lon="2.11787">
        <ele>425.52</ele>
        <time>2021-08-16T10:46:18Z</time>
      </trkpt>
      <trkpt lat="44.98482" lon="2.11785">
        <ele>425.52</ele>
        <time>2021-08-16T10:46:19Z</time>
      </trkpt>
      <trkpt lat="44.98483" lon="2.11783">
        <ele>425.52</ele>
        <time>2021-08-16T10:46:20Z</time>
      </trkpt>
      <trkpt lat="44.98484" lon="2.1178">
        <ele>425.52</ele>
        <time>2021-08-16T10:46:21Z</time>
      </trkpt>
      <trkpt lat="44.98485" lon="2.11778">
        <ele>425.52</ele>
        <time>2021-08-16T10:46:22Z</time>
      </trkpt>
      <trkpt lat="44.98486" lon="2.11774">
        <ele>425.52</ele>
        <time>2021-08-16T10:46:23Z</time>
      </trkpt>
      <trkpt lat="44.98495" lon="2.11749">
        <ele>425.52</ele>
        <time>2021-08-16T10:46:29Z</time>
      </trkpt>
      <trkpt lat="44.98501" lon="2.1173">
        <ele>425.52</ele>
        <time>2021-08-16T10:46:34Z</time>
      </trkpt>
      <trkpt lat="44.98507" lon="2.11706">
        <ele>425.52</ele>
        <time>2021-08-16T10:46:40Z</time>
      </trkpt>
      <trkpt lat="44.98515" lon="2.11684">
        <ele>425.52</ele>
        <time>2021-08-16T10:46:46Z</time>
      </trkpt>
      <trkpt lat="44.98525" lon="2.11664">
        <ele>425.52</ele>
        <time>2021-08-16T10:46:52Z</time>
      </trkpt>
      <trkpt lat="44.98538" lon="2.11645">
        <ele>425.52</ele>
        <time>2021-08-16T10:46:58Z</time>
      </trkpt>
      <trkpt lat="44.98548" lon="2.11625">
        <ele>425.52</ele>
        <time>2021-08-16T10:47:03Z</time>
      </trkpt>
      <trkpt lat="44.98558" lon="2.11597">
        <ele>425.04</ele>
        <time>2021-08-16T10:47:10Z</time>
      </trkpt>
      <trkpt lat="44.98561" lon="2.11581">
        <ele>425.04</ele>
        <time>2021-08-16T10:47:13Z</time>
      </trkpt>
      <trkpt lat="44.98562" lon="2.11575">
        <ele>425.04</ele>
        <time>2021-08-16T10:47:14Z</time>
      </trkpt>
      <trkpt lat="44.98563" lon="2.11571">
        <ele>425.04</ele>
        <time>2021-08-16T10:47:15Z</time>
      </trkpt>
      <trkpt lat="44.98565" lon="2.11566">
        <ele>425.04</ele>
        <time>2021-08-16T10:47:16Z</time>
      </trkpt>
      <trkpt lat="44.98567" lon="2.1156">
        <ele>425.04</ele>
        <time>2021-08-16T10:47:17Z</time>
      </trkpt>
      <trkpt lat="44.9857" lon="2.11555">
        <ele>425.04</ele>
        <time>2021-08-16T10:47:18Z</time>
      </trkpt>
      <trkpt lat="44.9859" lon="2.11529">
        <ele>425.04</ele>
        <time>2021-08-16T10:47:25Z</time>
      </trkpt>
      <trkpt lat="44.98596" lon="2.1152">
        <ele>425.04</ele>
        <time>2021-08-16T10:47:28Z</time>
      </trkpt>
      <trkpt lat="44.98597" lon="2.11516">
        <ele>425.04</ele>
        <time>2021-08-16T10:47:29Z</time>
      </trkpt>
      <trkpt lat="44.98599" lon="2.11512">
        <ele>425.04</ele>
        <time>2021-08-16T10:47:30Z</time>
      </trkpt>
      <trkpt lat="44.98616" lon="2.11479">
        <ele>425.04</ele>
        <time>2021-08-16T10:47:38Z</time>
      </trkpt>
      <trkpt lat="44.98627" lon="2.11467">
        <ele>425.04</ele>
        <time>2021-08-16T10:47:44Z</time>
      </trkpt>
      <trkpt lat="44.98643" lon="2.11457">
        <ele>425.04</ele>
        <time>2021-08-16T10:47:50Z</time>
      </trkpt>
      <trkpt lat="44.98649" lon="2.11451">
        <ele>425.04</ele>
        <time>2021-08-16T10:47:55Z</time>
      </trkpt>
      <trkpt lat="44.98651" lon="2.11444">
        <ele>425.04</ele>
        <time>2021-08-16T10:48:03Z</time>
      </trkpt>
      <trkpt lat="44.98653" lon="2.11441">
        <ele>425.04</ele>
        <time>2021-08-16T10:48:11Z</time>
      </trkpt>
      <trkpt lat="44.98654" lon="2.11436">
        <ele>425.04</ele>
        <time>2021-08-16T10:48:18Z</time>
      </trkpt>
      <trkpt lat="44.98654" lon="2.11434">
        <ele>425.04</ele>
        <time>2021-08-16T10:48:19Z</time>
      </trkpt>
      <trkpt lat="44.98654" lon="2.11432">
        <ele>425.04</ele>
        <time>2021-08-16T10:48:20Z</time>
      </trkpt>
      <trkpt lat="44.98661" lon="2.11412">
        <ele>425.04</ele>
        <time>2021-08-16T10:48:26Z</time>
      </trkpt>
      <trkpt lat="44.98667" lon="2.11397">
        <ele>424.56</ele>
        <time>2021-08-16T10:48:30Z</time>
      </trkpt>
      <trkpt lat="44.98669" lon="2.11394">
        <ele>424.56</ele>
        <time>2021-08-16T10:48:31Z</time>
      </trkpt>
      <trkpt lat="44.98675" lon="2.11388">
        <ele>424.56</ele>
        <time>2021-08-16T10:48:34Z</time>
      </trkpt>
      <trkpt lat="44.98677" lon="2.11385">
        <ele>424.56</ele>
        <time>2021-08-16T10:48:35Z</time>
      </trkpt>
      <trkpt lat="44.98679" lon="2.11382">
        <ele>424.56</ele>
        <time>2021-08-16T10:48:36Z</time>
      </trkpt>
      <trkpt lat="44.98689" lon="2.11362">
        <ele>424.56</ele>
        <time>2021-08-16T10:48:43Z</time>
      </trkpt>
      <trkpt lat="44.98695" lon="2.11352">
        <ele>424.56</ele>
        <time>2021-08-16T10:48:48Z</time>
      </trkpt>
      <trkpt lat="44.98697" lon="2.11351">
        <ele>424.56</ele>
        <time>2021-08-16T10:48:49Z</time>
      </trkpt>
      <trkpt lat="44.98698" lon="2.1135">
        <ele>424.56</ele>
        <time>2021-08-16T10:48:50Z</time>
      </trkpt>
      <trkpt lat="44.98699" lon="2.11348">
        <ele>424.56</ele>
        <time>2021-08-16T10:48:51Z</time>
      </trkpt>
      <trkpt lat="44.98701" lon="2.11345">
        <ele>424.56</ele>
        <time>2021-08-16T10:48:52Z</time>
      </trkpt>
      <trkpt lat="44.98701" lon="2.11343">
        <ele>424.56</ele>
        <time>2021-08-16T10:48:53Z</time>
      </trkpt>
      <trkpt lat="44.98699" lon="2.11342">
        <ele>424.56</ele>
        <time>2021-08-16T10:48:56Z</time>
      </trkpt>
      <trkpt lat="44.98693" lon="2.11343">
        <ele>424.56</ele>
        <time>2021-08-16T10:49:01Z</time>
      </trkpt>
      <trkpt lat="44.98675" lon="2.11348">
        <ele>424.08</ele>
        <time>2021-08-16T10:49:10Z</time>
      </trkpt>
      <trkpt lat="44.98659" lon="2.11352">
        <ele>424.08</ele>
        <time>2021-08-16T10:49:16Z</time>
      </trkpt>
      <trkpt lat="44.98641" lon="2.1135">
        <ele>424.08</ele>
        <time>2021-08-16T10:49:22Z</time>
      </trkpt>
      <trkpt lat="44.9863" lon="2.11344">
        <ele>424.08</ele>
        <time>2021-08-16T10:49:25Z</time>
      </trkpt>
      <trkpt lat="44.98628" lon="2.1134">
        <ele>424.08</ele>
        <time>2021-08-16T10:49:26Z</time>
      </trkpt>
      <trkpt lat="44.98612" lon="2.11318">
        <ele>424.08</ele>
        <time>2021-08-16T10:49:33Z</time>
      </trkpt>
      <trkpt lat="44.98603" lon="2.113">
        <ele>424.08</ele>
        <time>2021-08-16T10:49:39Z</time>
      </trkpt>
      <trkpt lat="44.98596" lon="2.11282">
        <ele>424.08</ele>
        <time>2021-08-16T10:49:44Z</time>
      </trkpt>
      <trkpt lat="44.98589" lon="2.11259">
        <ele>424.08</ele>
        <time>2021-08-16T10:49:50Z</time>
      </trkpt>
      <trkpt lat="44.98582" lon="2.11245">
        <ele>425.04</ele>
        <time>2021-08-16T10:49:55Z</time>
      </trkpt>
      <trkpt lat="44.98579" lon="2.11244">
        <ele>425.04</ele>
        <time>2021-08-16T10:49:56Z</time>
      </trkpt>
      <trkpt lat="44.98561" lon="2.11235">
        <ele>425.04</ele>
        <time>2021-08-16T10:50:01Z</time>
      </trkpt>
      <trkpt lat="44.98541" lon="2.1122">
        <ele>425.04</ele>
        <time>2021-08-16T10:50:08Z</time>
      </trkpt>
      <trkpt lat="44.98519" lon="2.11204">
        <ele>425.04</ele>
        <time>2021-08-16T10:50:15Z</time>
      </trkpt>
      <trkpt lat="44.98515" lon="2.11201">
        <ele>425.04</ele>
        <time>2021-08-16T10:50:17Z</time>
      </trkpt>
      <trkpt lat="44.98513" lon="2.11199">
        <ele>425.04</ele>
        <time>2021-08-16T10:50:18Z</time>
      </trkpt>
      <trkpt lat="44.98509" lon="2.11182">
        <ele>425.04</ele>
        <time>2021-08-16T10:50:23Z</time>
      </trkpt>
      <trkpt lat="44.98509" lon="2.11171">
        <ele>425.04</ele>
        <time>2021-08-16T10:50:26Z</time>
      </trkpt>
      <trkpt lat="44.98508" lon="2.11167">
        <ele>425.04</ele>
        <time>2021-08-16T10:50:27Z</time>
      </trkpt>
      <trkpt lat="44.98496" lon="2.11149">
        <ele>425.04</ele>
        <time>2021-08-16T10:50:34Z</time>
      </trkpt>
      <trkpt lat="44.98479" lon="2.11133">
        <ele>425.04</ele>
        <time>2021-08-16T10:50:40Z</time>
      </trkpt>
      <trkpt lat="44.98472" lon="2.11117">
        <ele>425.04</ele>
        <time>2021-08-16T10:50:45Z</time>
      </trkpt>
      <trkpt lat="44.98469" lon="2.11106">
        <ele>425.04</ele>
        <time>2021-08-16T10:50:48Z</time>
      </trkpt>
      <trkpt lat="44.98453" lon="2.11089">
        <ele>425.04</ele>
        <time>2021-08-16T10:50:55Z</time>
      </trkpt>
      <trkpt lat="44.98438" lon="2.11082">
        <ele>425.04</ele>
        <time>2021-08-16T10:51:00Z</time>
      </trkpt>
      <trkpt lat="44.98431" lon="2.11061">
        <ele>425.04</ele>
        <time>2021-08-16T10:51:06Z</time>
      </trkpt>
      <trkpt lat="44.98428" lon="2.11045">
        <ele>425.04</ele>
        <time>2021-08-16T10:51:10Z</time>
      </trkpt>
      <trkpt lat="44.98428" lon="2.11042">
        <ele>425.04</ele>
        <time>2021-08-16T10:51:11Z</time>
      </trkpt>
      <trkpt lat="44.98429" lon="2.11039">
        <ele>425.04</ele>
        <time>2021-08-16T10:51:12Z</time>
      </trkpt>
      <trkpt lat="44.98427" lon="2.11018">
        <ele>425.04</ele>
        <time>2021-08-16T10:51:18Z</time>
      </trkpt>
      <trkpt lat="44.98421" lon="2.10993">
        <ele>425.04</ele>
        <time>2021-08-16T10:51:24Z</time>
      </trkpt>
      <trkpt lat="44.98418" lon="2.10985">
        <ele>425.04</ele>
        <time>2021-08-16T10:51:27Z</time>
      </trkpt>
      <trkpt lat="44.98417" lon="2.10983">
        <ele>425.04</ele>
        <time>2021-08-16T10:51:28Z</time>
      </trkpt>
      <trkpt lat="44.98406" lon="2.10962">
        <ele>425.04</ele>
        <time>2021-08-16T10:51:34Z</time>
      </trkpt>
      <trkpt lat="44.98393" lon="2.10944">
        <ele>425.04</ele>
        <time>2021-08-16T10:51:40Z</time>
      </trkpt>
      <trkpt lat="44.98379" lon="2.10922">
        <ele>425.04</ele>
        <time>2021-08-16T10:51:46Z</time>
      </trkpt>
      <trkpt lat="44.98364" lon="2.10899">
        <ele>425.04</ele>
        <time>2021-08-16T10:51:52Z</time>
      </trkpt>
      <trkpt lat="44.98353" lon="2.10879">
        <ele>425.04</ele>
        <time>2021-08-16T10:51:58Z</time>
      </trkpt>
      <trkpt lat="44.98335" lon="2.10864">
        <ele>425.04</ele>
        <time>2021-08-16T10:52:03Z</time>
      </trkpt>
      <trkpt lat="44.9832" lon="2.10847">
        <ele>425.04</ele>
        <time>2021-08-16T10:52:08Z</time>
      </trkpt>
      <trkpt lat="44.98312" lon="2.10828">
        <ele>425.04</ele>
        <time>2021-08-16T10:52:13Z</time>
      </trkpt>
      <trkpt lat="44.98299" lon="2.10816">
        <ele>425.04</ele>
        <time>2021-08-16T10:52:19Z</time>
      </trkpt>
      <trkpt lat="44.9828" lon="2.10798">
        <ele>425.04</ele>
        <time>2021-08-16T10:52:26Z</time>
      </trkpt>
      <trkpt lat="44.98266" lon="2.10775">
        <ele>425.04</ele>
        <time>2021-08-16T10:52:32Z</time>
      </trkpt>
      <trkpt lat="44.98259" lon="2.10751">
        <ele>425.52</ele>
        <time>2021-08-16T10:52:39Z</time>
      </trkpt>
      <trkpt lat="44.98262" lon="2.10726">
        <ele>425.52</ele>
        <time>2021-08-16T10:52:45Z</time>
      </trkpt>
      <trkpt lat="44.9826" lon="2.10718">
        <ele>425.52</ele>
        <time>2021-08-16T10:52:47Z</time>
      </trkpt>
      <trkpt lat="44.98258" lon="2.10715">
        <ele>425.52</ele>
        <time>2021-08-16T10:52:48Z</time>
      </trkpt>
      <trkpt lat="44.98255" lon="2.10713">
        <ele>425.52</ele>
        <time>2021-08-16T10:52:49Z</time>
      </trkpt>
      <trkpt lat="44.98253" lon="2.10711">
        <ele>425.52</ele>
        <time>2021-08-16T10:52:50Z</time>
      </trkpt>
      <trkpt lat="44.9825" lon="2.10709">
        <ele>425.52</ele>
        <time>2021-08-16T10:52:51Z</time>
      </trkpt>
      <trkpt lat="44.98247" lon="2.10706">
        <ele>425.52</ele>
        <time>2021-08-16T10:52:52Z</time>
      </trkpt>
      <trkpt lat="44.98245" lon="2.10702">
        <ele>425.52</ele>
        <time>2021-08-16T10:52:53Z</time>
      </trkpt>
      <trkpt lat="44.98243" lon="2.10698">
        <ele>425.52</ele>
        <time>2021-08-16T10:52:54Z</time>
      </trkpt>
      <trkpt lat="44.98241" lon="2.10694">
        <ele>425.52</ele>
        <time>2021-08-16T10:52:55Z</time>
      </trkpt>
      <trkpt lat="44.98239" lon="2.1069">
        <ele>425.52</ele>
        <time>2021-08-16T10:52:56Z</time>
      </trkpt>
      <trkpt lat="44.98231" lon="2.10662">
        <ele>425.52</ele>
        <time>2021-08-16T10:53:03Z</time>
      </trkpt>
      <trkpt lat="44.98223" lon="2.10634">
        <ele>425.52</ele>
        <time>2021-08-16T10:53:09Z</time>
      </trkpt>
      <trkpt lat="44.9822" lon="2.10628">
        <ele>425.52</ele>
        <time>2021-08-16T10:53:10Z</time>
      </trkpt>
      <trkpt lat="44.98219" lon="2.10623">
        <ele>425.52</ele>
        <time>2021-08-16T10:53:11Z</time>
      </trkpt>
      <trkpt lat="44.98217" lon="2.10618">
        <ele>425.52</ele>
        <time>2021-08-16T10:53:12Z</time>
      </trkpt>
      <trkpt lat="44.98216" lon="2.10614">
        <ele>425.52</ele>
        <time>2021-08-16T10:53:13Z</time>
      </trkpt>
      <trkpt lat="44.98215" lon="2.1061">
        <ele>425.52</ele>
        <time>2021-08-16T10:53:14Z</time>
      </trkpt>
      <trkpt lat="44.9821" lon="2.10601">
        <ele>425.52</ele>
        <time>2021-08-16T10:53:16Z</time>
      </trkpt>
      <trkpt lat="44.98208" lon="2.10597">
        <ele>425.52</ele>
        <time>2021-08-16T10:53:17Z</time>
      </trkpt>
      <trkpt lat="44.98206" lon="2.10593">
        <ele>425.52</ele>
        <time>2021-08-16T10:53:18Z</time>
      </trkpt>
      <trkpt lat="44.98197" lon="2.1056">
        <ele>425.52</ele>
        <time>2021-08-16T10:53:24Z</time>
      </trkpt>
      <trkpt lat="44.98187" lon="2.10534">
        <ele>425.52</ele>
        <time>2021-08-16T10:53:29Z</time>
      </trkpt>
      <trkpt lat="44.98183" lon="2.1053">
        <ele>425.52</ele>
        <time>2021-08-16T10:53:30Z</time>
      </trkpt>
      <trkpt lat="44.98171" lon="2.10504">
        <ele>425.52</ele>
        <time>2021-08-16T10:53:35Z</time>
      </trkpt>
      <trkpt lat="44.9816" lon="2.10482">
        <ele>425.52</ele>
        <time>2021-08-16T10:53:40Z</time>
      </trkpt>
      <trkpt lat="44.98156" lon="2.10455">
        <ele>426</ele>
        <time>2021-08-16T10:53:46Z</time>
      </trkpt>
      <trkpt lat="44.98153" lon="2.10449">
        <ele>426</ele>
        <time>2021-08-16T10:53:47Z</time>
      </trkpt>
      <trkpt lat="44.98142" lon="2.10417">
        <ele>426</ele>
        <time>2021-08-16T10:53:53Z</time>
      </trkpt>
      <trkpt lat="44.9814" lon="2.1041">
        <ele>426</ele>
        <time>2021-08-16T10:53:54Z</time>
      </trkpt>
      <trkpt lat="44.98139" lon="2.10405">
        <ele>426</ele>
        <time>2021-08-16T10:53:55Z</time>
      </trkpt>
      <trkpt lat="44.98138" lon="2.10398">
        <ele>426</ele>
        <time>2021-08-16T10:53:56Z</time>
      </trkpt>
      <trkpt lat="44.98136" lon="2.10388">
        <ele>426</ele>
        <time>2021-08-16T10:53:58Z</time>
      </trkpt>
      <trkpt lat="44.98135" lon="2.10381">
        <ele>426</ele>
        <time>2021-08-16T10:53:59Z</time>
      </trkpt>
      <trkpt lat="44.98126" lon="2.10345">
        <ele>426</ele>
        <time>2021-08-16T10:54:05Z</time>
      </trkpt>
      <trkpt lat="44.98129" lon="2.1031">
        <ele>426</ele>
        <time>2021-08-16T10:54:10Z</time>
      </trkpt>
      <trkpt lat="44.98146" lon="2.10275">
        <ele>426</ele>
        <time>2021-08-16T10:54:17Z</time>
      </trkpt>
      <trkpt lat="44.98174" lon="2.10248">
        <ele>426.48</ele>
        <time>2021-08-16T10:54:24Z</time>
      </trkpt>
      <trkpt lat="44.98188" lon="2.10231">
        <ele>426.48</ele>
        <time>2021-08-16T10:54:29Z</time>
      </trkpt>
      <trkpt lat="44.9821" lon="2.10214">
        <ele>426.48</ele>
        <time>2021-08-16T10:54:35Z</time>
      </trkpt>
      <trkpt lat="44.98232" lon="2.10199">
        <ele>426.48</ele>
        <time>2021-08-16T10:54:41Z</time>
      </trkpt>
      <trkpt lat="44.98254" lon="2.10194">
        <ele>426.48</ele>
        <time>2021-08-16T10:54:48Z</time>
      </trkpt>
      <trkpt lat="44.98273" lon="2.10195">
        <ele>426.48</ele>
        <time>2021-08-16T10:54:53Z</time>
      </trkpt>
      <trkpt lat="44.98299" lon="2.10196">
        <ele>425.52</ele>
        <time>2021-08-16T10:54:59Z</time>
      </trkpt>
      <trkpt lat="44.98324" lon="2.10194">
        <ele>425.52</ele>
        <time>2021-08-16T10:55:05Z</time>
      </trkpt>
      <trkpt lat="44.98337" lon="2.10189">
        <ele>425.52</ele>
        <time>2021-08-16T10:55:08Z</time>
      </trkpt>
      <trkpt lat="44.98347" lon="2.10182">
        <ele>425.52</ele>
        <time>2021-08-16T10:55:10Z</time>
      </trkpt>
      <trkpt lat="44.98351" lon="2.10178">
        <ele>425.52</ele>
        <time>2021-08-16T10:55:11Z</time>
      </trkpt>
      <trkpt lat="44.9836" lon="2.10171">
        <ele>425.04</ele>
        <time>2021-08-16T10:55:13Z</time>
      </trkpt>
      <trkpt lat="44.98384" lon="2.10148">
        <ele>425.04</ele>
        <time>2021-08-16T10:55:20Z</time>
      </trkpt>
      <trkpt lat="44.98406" lon="2.10129">
        <ele>425.04</ele>
        <time>2021-08-16T10:55:27Z</time>
      </trkpt>
      <trkpt lat="44.98423" lon="2.10109">
        <ele>425.04</ele>
        <time>2021-08-16T10:55:34Z</time>
      </trkpt>
      <trkpt lat="44.98427" lon="2.10105">
        <ele>425.04</ele>
        <time>2021-08-16T10:55:41Z</time>
      </trkpt>
      <trkpt lat="44.98431" lon="2.10101">
        <ele>425.04</ele>
        <time>2021-08-16T10:55:47Z</time>
      </trkpt>
      <trkpt lat="44.98434" lon="2.10099">
        <ele>425.04</ele>
        <time>2021-08-16T10:55:53Z</time>
      </trkpt>
      <trkpt lat="44.9844" lon="2.10096">
        <ele>425.04</ele>
        <time>2021-08-16T10:55:59Z</time>
      </trkpt>
      <trkpt lat="44.98442" lon="2.10096">
        <ele>425.04</ele>
        <time>2021-08-16T10:56:00Z</time>
      </trkpt>
      <trkpt lat="44.98444" lon="2.10095">
        <ele>425.04</ele>
        <time>2021-08-16T10:56:01Z</time>
      </trkpt>
      <trkpt lat="44.98446" lon="2.10094">
        <ele>425.04</ele>
        <time>2021-08-16T10:56:02Z</time>
      </trkpt>
      <trkpt lat="44.98448" lon="2.10094">
        <ele>425.04</ele>
        <time>2021-08-16T10:56:03Z</time>
      </trkpt>
      <trkpt lat="44.98451" lon="2.10094">
        <ele>425.04</ele>
        <time>2021-08-16T10:56:04Z</time>
      </trkpt>
      <trkpt lat="44.98454" lon="2.10094">
        <ele>425.04</ele>
        <time>2021-08-16T10:56:05Z</time>
      </trkpt>
      <trkpt lat="44.98457" lon="2.10094">
        <ele>425.04</ele>
        <time>2021-08-16T10:56:06Z</time>
      </trkpt>
      <trkpt lat="44.98473" lon="2.10087">
        <ele>425.04</ele>
        <time>2021-08-16T10:56:12Z</time>
      </trkpt>
      <trkpt lat="44.98483" lon="2.10071">
        <ele>425.52</ele>
        <time>2021-08-16T10:56:17Z</time>
      </trkpt>
      <trkpt lat="44.98486" lon="2.1005">
        <ele>425.52</ele>
        <time>2021-08-16T10:56:22Z</time>
      </trkpt>
      <trkpt lat="44.98486" lon="2.10046">
        <ele>425.52</ele>
        <time>2021-08-16T10:56:23Z</time>
      </trkpt>
      <trkpt lat="44.98488" lon="2.10042">
        <ele>425.52</ele>
        <time>2021-08-16T10:56:24Z</time>
      </trkpt>
      <trkpt lat="44.98489" lon="2.10039">
        <ele>425.52</ele>
        <time>2021-08-16T10:56:25Z</time>
      </trkpt>
      <trkpt lat="44.98491" lon="2.10036">
        <ele>425.52</ele>
        <time>2021-08-16T10:56:26Z</time>
      </trkpt>
      <trkpt lat="44.98493" lon="2.10033">
        <ele>425.52</ele>
        <time>2021-08-16T10:56:27Z</time>
      </trkpt>
      <trkpt lat="44.98495" lon="2.10031">
        <ele>425.52</ele>
        <time>2021-08-16T10:56:28Z</time>
      </trkpt>
      <trkpt lat="44.98508" lon="2.10007">
        <ele>425.52</ele>
        <time>2021-08-16T10:56:35Z</time>
      </trkpt>
      <trkpt lat="44.98518" lon="2.09986">
        <ele>425.52</ele>
        <time>2021-08-16T10:56:41Z</time>
      </trkpt>
      <trkpt lat="44.98527" lon="2.09961">
        <ele>425.52</ele>
        <time>2021-08-16T10:56:47Z</time>
      </trkpt>
      <trkpt lat="44.98536" lon="2.09938">
        <ele>425.52</ele>
        <time>2021-08-16T10:56:53Z</time>
      </trkpt>
      <trkpt lat="44.98542" lon="2.09912">
        <ele>425.52</ele>
        <time>2021-08-16T10:56:59Z</time>
      </trkpt>
      <trkpt lat="44.98554" lon="2.09876">
        <ele>425.52</ele>
        <time>2021-08-16T10:57:06Z</time>
      </trkpt>
      <trkpt lat="44.98558" lon="2.0985">
        <ele>425.52</ele>
        <time>2021-08-16T10:57:11Z</time>
      </trkpt>
      <trkpt lat="44.98557" lon="2.09843">
        <ele>425.52</ele>
        <time>2021-08-16T10:57:12Z</time>
      </trkpt>
      <trkpt lat="44.98556" lon="2.09836">
        <ele>425.52</ele>
        <time>2021-08-16T10:57:13Z</time>
      </trkpt>
      <trkpt lat="44.98555" lon="2.09831">
        <ele>425.52</ele>
        <time>2021-08-16T10:57:14Z</time>
      </trkpt>
      <trkpt lat="44.98554" lon="2.09826">
        <ele>425.52</ele>
        <time>2021-08-16T10:57:15Z</time>
      </trkpt>
      <trkpt lat="44.98554" lon="2.09821">
        <ele>425.52</ele>
        <time>2021-08-16T10:57:16Z</time>
      </trkpt>
      <trkpt lat="44.98554" lon="2.09817">
        <ele>425.52</ele>
        <time>2021-08-16T10:57:17Z</time>
      </trkpt>
      <trkpt lat="44.98553" lon="2.09813">
        <ele>425.52</ele>
        <time>2021-08-16T10:57:18Z</time>
      </trkpt>
      <trkpt lat="44.98553" lon="2.09809">
        <ele>425.52</ele>
        <time>2021-08-16T10:57:19Z</time>
      </trkpt>
      <trkpt lat="44.98551" lon="2.09806">
        <ele>425.52</ele>
        <time>2021-08-16T10:57:20Z</time>
      </trkpt>
      <trkpt lat="44.9855" lon="2.09803">
        <ele>425.52</ele>
        <time>2021-08-16T10:57:21Z</time>
      </trkpt>
      <trkpt lat="44.98548" lon="2.09799">
        <ele>425.52</ele>
        <time>2021-08-16T10:57:22Z</time>
      </trkpt>
      <trkpt lat="44.98548" lon="2.09794">
        <ele>425.52</ele>
        <time>2021-08-16T10:57:23Z</time>
      </trkpt>
      <trkpt lat="44.98548" lon="2.09789">
        <ele>425.52</ele>
        <time>2021-08-16T10:57:24Z</time>
      </trkpt>
      <trkpt lat="44.98549" lon="2.09785">
        <ele>425.52</ele>
        <time>2021-08-16T10:57:25Z</time>
      </trkpt>
      <trkpt lat="44.98551" lon="2.0978">
        <ele>425.52</ele>
        <time>2021-08-16T10:57:26Z</time>
      </trkpt>
      <trkpt lat="44.98553" lon="2.09776">
        <ele>425.52</ele>
        <time>2021-08-16T10:57:27Z</time>
      </trkpt>
      <trkpt lat="44.98565" lon="2.09755">
        <ele>425.52</ele>
        <time>2021-08-16T10:57:33Z</time>
      </trkpt>
      <trkpt lat="44.98567" lon="2.09733">
        <ele>425.52</ele>
        <time>2021-08-16T10:57:38Z</time>
      </trkpt>
      <trkpt lat="44.98565" lon="2.09702">
        <ele>425.52</ele>
        <time>2021-08-16T10:57:45Z</time>
      </trkpt>
      <trkpt lat="44.98565" lon="2.0968">
        <ele>425.52</ele>
        <time>2021-08-16T10:57:50Z</time>
      </trkpt>
      <trkpt lat="44.98564" lon="2.09658">
        <ele>425.52</ele>
        <time>2021-08-16T10:57:56Z</time>
      </trkpt>
      <trkpt lat="44.98563" lon="2.09634">
        <ele>425.52</ele>
        <time>2021-08-16T10:58:01Z</time>
      </trkpt>
      <trkpt lat="44.98554" lon="2.09604">
        <ele>425.52</ele>
        <time>2021-08-16T10:58:08Z</time>
      </trkpt>
      <trkpt lat="44.98554" lon="2.09579">
        <ele>425.52</ele>
        <time>2021-08-16T10:58:13Z</time>
      </trkpt>
      <trkpt lat="44.98554" lon="2.09552">
        <ele>425.52</ele>
        <time>2021-08-16T10:58:19Z</time>
      </trkpt>
      <trkpt lat="44.98556" lon="2.09548">
        <ele>425.52</ele>
        <time>2021-08-16T10:58:20Z</time>
      </trkpt>
      <trkpt lat="44.98559" lon="2.09544">
        <ele>425.52</ele>
        <time>2021-08-16T10:58:21Z</time>
      </trkpt>
      <trkpt lat="44.98561" lon="2.09541">
        <ele>425.52</ele>
        <time>2021-08-16T10:58:22Z</time>
      </trkpt>
      <trkpt lat="44.98564" lon="2.09539">
        <ele>425.52</ele>
        <time>2021-08-16T10:58:23Z</time>
      </trkpt>
      <trkpt lat="44.98567" lon="2.09538">
        <ele>425.52</ele>
        <time>2021-08-16T10:58:24Z</time>
      </trkpt>
      <trkpt lat="44.98569" lon="2.09537">
        <ele>425.52</ele>
        <time>2021-08-16T10:58:25Z</time>
      </trkpt>
      <trkpt lat="44.98592" lon="2.09532">
        <ele>425.52</ele>
        <time>2021-08-16T10:58:32Z</time>
      </trkpt>
      <trkpt lat="44.98607" lon="2.09536">
        <ele>425.52</ele>
        <time>2021-08-16T10:58:37Z</time>
      </trkpt>
      <trkpt lat="44.98626" lon="2.09549">
        <ele>425.52</ele>
        <time>2021-08-16T10:58:43Z</time>
      </trkpt>
      <trkpt lat="44.98646" lon="2.09545">
        <ele>426</ele>
        <time>2021-08-16T10:58:49Z</time>
      </trkpt>
      <trkpt lat="44.98651" lon="2.09529">
        <ele>426</ele>
        <time>2021-08-16T10:58:55Z</time>
      </trkpt>
      <trkpt lat="44.98651" lon="2.09526">
        <ele>426</ele>
        <time>2021-08-16T10:58:56Z</time>
      </trkpt>
      <trkpt lat="44.9865" lon="2.09522">
        <ele>426</ele>
        <time>2021-08-16T10:58:57Z</time>
      </trkpt>
      <trkpt lat="44.98649" lon="2.09519">
        <ele>426</ele>
        <time>2021-08-16T10:58:58Z</time>
      </trkpt>
      <trkpt lat="44.98647" lon="2.09509">
        <ele>426</ele>
        <time>2021-08-16T10:59:01Z</time>
      </trkpt>
      <trkpt lat="44.98649" lon="2.09505">
        <ele>426</ele>
        <time>2021-08-16T10:59:02Z</time>
      </trkpt>
      <trkpt lat="44.98662" lon="2.0947">
        <ele>426</ele>
        <time>2021-08-16T10:59:09Z</time>
      </trkpt>
      <trkpt lat="44.98677" lon="2.09434">
        <ele>426</ele>
        <time>2021-08-16T10:59:16Z</time>
      </trkpt>
      <trkpt lat="44.98687" lon="2.09406">
        <ele>426</ele>
        <time>2021-08-16T10:59:22Z</time>
      </trkpt>
      <trkpt lat="44.98691" lon="2.09374">
        <ele>426</ele>
        <time>2021-08-16T10:59:28Z</time>
      </trkpt>
      <trkpt lat="44.98691" lon="2.09352">
        <ele>426</ele>
        <time>2021-08-16T10:59:33Z</time>
      </trkpt>
      <trkpt lat="44.98686" lon="2.09315">
        <ele>426</ele>
        <time>2021-08-16T10:59:40Z</time>
      </trkpt>
      <trkpt lat="44.98684" lon="2.093">
        <ele>426</ele>
        <time>2021-08-16T10:59:43Z</time>
      </trkpt>
      <trkpt lat="44.98686" lon="2.09296">
        <ele>426</ele>
        <time>2021-08-16T10:59:44Z</time>
      </trkpt>
      <trkpt lat="44.98687" lon="2.09293">
        <ele>426</ele>
        <time>2021-08-16T10:59:45Z</time>
      </trkpt>
      <trkpt lat="44.98689" lon="2.09291">
        <ele>426</ele>
        <time>2021-08-16T10:59:46Z</time>
      </trkpt>
      <trkpt lat="44.9869" lon="2.09289">
        <ele>426</ele>
        <time>2021-08-16T10:59:47Z</time>
      </trkpt>
      <trkpt lat="44.9869" lon="2.09287">
        <ele>426</ele>
        <time>2021-08-16T10:59:48Z</time>
      </trkpt>
      <trkpt lat="44.9869" lon="2.09279">
        <ele>426</ele>
        <time>2021-08-16T10:59:54Z</time>
      </trkpt>
      <trkpt lat="44.98689" lon="2.09274">
        <ele>426</ele>
        <time>2021-08-16T11:00:02Z</time>
      </trkpt>
      <trkpt lat="44.98686" lon="2.09268">
        <ele>426</ele>
        <time>2021-08-16T11:00:08Z</time>
      </trkpt>
      <trkpt lat="44.98684" lon="2.0926">
        <ele>426</ele>
        <time>2021-08-16T11:00:14Z</time>
      </trkpt>
      <trkpt lat="44.98681" lon="2.09256">
        <ele>426.96</ele>
        <time>2021-08-16T11:00:19Z</time>
      </trkpt>
      <trkpt lat="44.98678" lon="2.09252">
        <ele>426.96</ele>
        <time>2021-08-16T11:00:26Z</time>
      </trkpt>
      <trkpt lat="44.98678" lon="2.09251">
        <ele>426.96</ele>
        <time>2021-08-16T11:00:28Z</time>
      </trkpt>
      <trkpt lat="44.98676" lon="2.0925">
        <ele>427.44</ele>
        <time>2021-08-16T11:00:29Z</time>
      </trkpt>
      <trkpt lat="44.98676" lon="2.09248">
        <ele>427.44</ele>
        <time>2021-08-16T11:00:30Z</time>
      </trkpt>
      <trkpt lat="44.98673" lon="2.09244">
        <ele>427.44</ele>
        <time>2021-08-16T11:00:37Z</time>
      </trkpt>
      <trkpt lat="44.98669" lon="2.09238">
        <ele>427.44</ele>
        <time>2021-08-16T11:00:44Z</time>
      </trkpt>
      <trkpt lat="44.98667" lon="2.09237">
        <ele>427.44</ele>
        <time>2021-08-16T11:00:45Z</time>
      </trkpt>
      <trkpt lat="44.98648" lon="2.09231">
        <ele>427.44</ele>
        <time>2021-08-16T11:00:52Z</time>
      </trkpt>
      <trkpt lat="44.98641" lon="2.09219">
        <ele>427.44</ele>
        <time>2021-08-16T11:00:59Z</time>
      </trkpt>
      <trkpt lat="44.98638" lon="2.09196">
        <ele>427.44</ele>
        <time>2021-08-16T11:01:05Z</time>
      </trkpt>
      <trkpt lat="44.98629" lon="2.0918">
        <ele>427.44</ele>
        <time>2021-08-16T11:01:11Z</time>
      </trkpt>
      <trkpt lat="44.98609" lon="2.09166">
        <ele>427.44</ele>
        <time>2021-08-16T11:01:18Z</time>
      </trkpt>
      <trkpt lat="44.98589" lon="2.09147">
        <ele>427.44</ele>
        <time>2021-08-16T11:01:24Z</time>
      </trkpt>
      <trkpt lat="44.98587" lon="2.09142">
        <ele>427.44</ele>
        <time>2021-08-16T11:01:25Z</time>
      </trkpt>
      <trkpt lat="44.98587" lon="2.09139">
        <ele>427.44</ele>
        <time>2021-08-16T11:01:26Z</time>
      </trkpt>
      <trkpt lat="44.98586" lon="2.09135">
        <ele>427.44</ele>
        <time>2021-08-16T11:01:27Z</time>
      </trkpt>
      <trkpt lat="44.98586" lon="2.09131">
        <ele>427.44</ele>
        <time>2021-08-16T11:01:28Z</time>
      </trkpt>
      <trkpt lat="44.98586" lon="2.09126">
        <ele>427.44</ele>
        <time>2021-08-16T11:01:29Z</time>
      </trkpt>
      <trkpt lat="44.98588" lon="2.09098">
        <ele>427.44</ele>
        <time>2021-08-16T11:01:35Z</time>
      </trkpt>
      <trkpt lat="44.98588" lon="2.09095">
        <ele>427.44</ele>
        <time>2021-08-16T11:01:36Z</time>
      </trkpt>
      <trkpt lat="44.98587" lon="2.09093">
        <ele>427.44</ele>
        <time>2021-08-16T11:01:37Z</time>
      </trkpt>
      <trkpt lat="44.98586" lon="2.09089">
        <ele>426.48</ele>
        <time>2021-08-16T11:01:43Z</time>
      </trkpt>
      <trkpt lat="44.98583" lon="2.09079">
        <ele>426.48</ele>
        <time>2021-08-16T11:01:50Z</time>
      </trkpt>
      <trkpt lat="44.98581" lon="2.09074">
        <ele>426.48</ele>
        <time>2021-08-16T11:01:55Z</time>
      </trkpt>
      <trkpt lat="44.98579" lon="2.09072">
        <ele>426.48</ele>
        <time>2021-08-16T11:01:56Z</time>
      </trkpt>
      <trkpt lat="44.98569" lon="2.09062">
        <ele>426.48</ele>
        <time>2021-08-16T11:02:01Z</time>
      </trkpt>
      <trkpt lat="44.98568" lon="2.09059">
        <ele>426.48</ele>
        <time>2021-08-16T11:02:02Z</time>
      </trkpt>
      <trkpt lat="44.98568" lon="2.09056">
        <ele>426.48</ele>
        <time>2021-08-16T11:02:03Z</time>
      </trkpt>
      <trkpt lat="44.98568" lon="2.09053">
        <ele>426.48</ele>
        <time>2021-08-16T11:02:04Z</time>
      </trkpt>
      <trkpt lat="44.98569" lon="2.09049">
        <ele>426.48</ele>
        <time>2021-08-16T11:02:05Z</time>
      </trkpt>
      <trkpt lat="44.98568" lon="2.09027">
        <ele>426.48</ele>
        <time>2021-08-16T11:02:11Z</time>
      </trkpt>
      <trkpt lat="44.98568" lon="2.08998">
        <ele>426.48</ele>
        <time>2021-08-16T11:02:18Z</time>
      </trkpt>
      <trkpt lat="44.98568" lon="2.08973">
        <ele>426.48</ele>
        <time>2021-08-16T11:02:24Z</time>
      </trkpt>
      <trkpt lat="44.98575" lon="2.0895">
        <ele>426.48</ele>
        <time>2021-08-16T11:02:30Z</time>
      </trkpt>
      <trkpt lat="44.98578" lon="2.0893">
        <ele>426.48</ele>
        <time>2021-08-16T11:02:35Z</time>
      </trkpt>
      <trkpt lat="44.98575" lon="2.08909">
        <ele>426.48</ele>
        <time>2021-08-16T11:02:41Z</time>
      </trkpt>
      <trkpt lat="44.98573" lon="2.089">
        <ele>426.48</ele>
        <time>2021-08-16T11:02:49Z</time>
      </trkpt>
      <trkpt lat="44.98576" lon="2.0889">
        <ele>426.48</ele>
        <time>2021-08-16T11:03:05Z</time>
      </trkpt>
      <trkpt lat="44.98574" lon="2.08885">
        <ele>426.48</ele>
        <time>2021-08-16T11:03:20Z</time>
      </trkpt>
      <trkpt lat="44.98575" lon="2.08883">
        <ele>426.48</ele>
        <time>2021-08-16T11:03:37Z</time>
      </trkpt>
      <trkpt lat="44.98577" lon="2.08884">
        <ele>426.48</ele>
        <time>2021-08-16T11:03:55Z</time>
      </trkpt>
      <trkpt lat="44.98577" lon="2.08886">
        <ele>426.48</ele>
        <time>2021-08-16T11:04:03Z</time>
      </trkpt>
      <trkpt lat="44.98572" lon="2.08891">
        <ele>426.48</ele>
        <time>2021-08-16T11:04:15Z</time>
      </trkpt>
      <trkpt lat="44.98571" lon="2.0889">
        <ele>426.48</ele>
        <time>2021-08-16T11:04:16Z</time>
      </trkpt>
      <trkpt lat="44.98569" lon="2.0889">
        <ele>426.48</ele>
        <time>2021-08-16T11:04:17Z</time>
      </trkpt>
      <trkpt lat="44.98567" lon="2.08889">
        <ele>426.48</ele>
        <time>2021-08-16T11:04:18Z</time>
      </trkpt>
      <trkpt lat="44.98565" lon="2.08889">
        <ele>426.48</ele>
        <time>2021-08-16T11:04:19Z</time>
      </trkpt>
      <trkpt lat="44.98562" lon="2.08888">
        <ele>426.48</ele>
        <time>2021-08-16T11:04:20Z</time>
      </trkpt>
      <trkpt lat="44.9856" lon="2.08887">
        <ele>426.48</ele>
        <time>2021-08-16T11:04:21Z</time>
      </trkpt>
      <trkpt lat="44.98558" lon="2.08884">
        <ele>426.48</ele>
        <time>2021-08-16T11:04:22Z</time>
      </trkpt>
      <trkpt lat="44.98556" lon="2.08881">
        <ele>426.48</ele>
        <time>2021-08-16T11:04:23Z</time>
      </trkpt>
      <trkpt lat="44.98554" lon="2.08878">
        <ele>426.48</ele>
        <time>2021-08-16T11:04:24Z</time>
      </trkpt>
      <trkpt lat="44.98553" lon="2.08874">
        <ele>426.48</ele>
        <time>2021-08-16T11:04:25Z</time>
      </trkpt>
      <trkpt lat="44.98554" lon="2.08858">
        <ele>426.48</ele>
        <time>2021-08-16T11:04:30Z</time>
      </trkpt>
      <trkpt lat="44.98557" lon="2.08832">
        <ele>426.48</ele>
        <time>2021-08-16T11:04:36Z</time>
      </trkpt>
      <trkpt lat="44.9856" lon="2.088">
        <ele>426.48</ele>
        <time>2021-08-16T11:04:44Z</time>
      </trkpt>
      <trkpt lat="44.98559" lon="2.08777">
        <ele>426.48</ele>
        <time>2021-08-16T11:04:49Z</time>
      </trkpt>
      <trkpt lat="44.98556" lon="2.08753">
        <ele>426.48</ele>
        <time>2021-08-16T11:04:55Z</time>
      </trkpt>
      <trkpt lat="44.98553" lon="2.08719">
        <ele>426.48</ele>
        <time>2021-08-16T11:05:02Z</time>
      </trkpt>
      <trkpt lat="44.98546" lon="2.08699">
        <ele>426.48</ele>
        <time>2021-08-16T11:05:06Z</time>
      </trkpt>
      <trkpt lat="44.98544" lon="2.08694">
        <ele>426.48</ele>
        <time>2021-08-16T11:05:07Z</time>
      </trkpt>
      <trkpt lat="44.98542" lon="2.08688">
        <ele>426.48</ele>
        <time>2021-08-16T11:05:08Z</time>
      </trkpt>
      <trkpt lat="44.98529" lon="2.08661">
        <ele>426.48</ele>
        <time>2021-08-16T11:05:14Z</time>
      </trkpt>
      <trkpt lat="44.98532" lon="2.08638">
        <ele>426.48</ele>
        <time>2021-08-16T11:05:19Z</time>
      </trkpt>
      <trkpt lat="44.9853" lon="2.08613">
        <ele>426.48</ele>
        <time>2021-08-16T11:05:25Z</time>
      </trkpt>
      <trkpt lat="44.98525" lon="2.08589">
        <ele>426.48</ele>
        <time>2021-08-16T11:05:31Z</time>
      </trkpt>
      <trkpt lat="44.98528" lon="2.08566">
        <ele>426.48</ele>
        <time>2021-08-16T11:05:36Z</time>
      </trkpt>
      <trkpt lat="44.98524" lon="2.08549">
        <ele>426.48</ele>
        <time>2021-08-16T11:05:40Z</time>
      </trkpt>
      <trkpt lat="44.98511" lon="2.0852">
        <ele>426.48</ele>
        <time>2021-08-16T11:05:47Z</time>
      </trkpt>
      <trkpt lat="44.98506" lon="2.08501">
        <ele>426.96</ele>
        <time>2021-08-16T11:05:52Z</time>
      </trkpt>
      <trkpt lat="44.98498" lon="2.08482">
        <ele>426.96</ele>
        <time>2021-08-16T11:05:58Z</time>
      </trkpt>
      <trkpt lat="44.98488" lon="2.08455">
        <ele>426.96</ele>
        <time>2021-08-16T11:06:05Z</time>
      </trkpt>
      <trkpt lat="44.98478" lon="2.08432">
        <ele>426.96</ele>
        <time>2021-08-16T11:06:11Z</time>
      </trkpt>
      <trkpt lat="44.98466" lon="2.08416">
        <ele>426.96</ele>
        <time>2021-08-16T11:06:16Z</time>
      </trkpt>
      <trkpt lat="44.9846" lon="2.084">
        <ele>426.96</ele>
        <time>2021-08-16T11:06:23Z</time>
      </trkpt>
      <trkpt lat="44.98459" lon="2.08398">
        <ele>426.96</ele>
        <time>2021-08-16T11:06:25Z</time>
      </trkpt>
      <trkpt lat="44.98457" lon="2.08397">
        <ele>426.96</ele>
        <time>2021-08-16T11:06:26Z</time>
      </trkpt>
      <trkpt lat="44.98441" lon="2.08382">
        <ele>426.96</ele>
        <time>2021-08-16T11:06:34Z</time>
      </trkpt>
      <trkpt lat="44.98422" lon="2.08371">
        <ele>426.96</ele>
        <time>2021-08-16T11:06:40Z</time>
      </trkpt>
      <trkpt lat="44.98399" lon="2.08366">
        <ele>426.96</ele>
        <time>2021-08-16T11:06:47Z</time>
      </trkpt>
      <trkpt lat="44.98381" lon="2.08365">
        <ele>428.4</ele>
        <time>2021-08-16T11:06:53Z</time>
      </trkpt>
      <trkpt lat="44.98362" lon="2.0836">
        <ele>428.4</ele>
        <time>2021-08-16T11:07:00Z</time>
      </trkpt>
      <trkpt lat="44.98346" lon="2.08359">
        <ele>428.4</ele>
        <time>2021-08-16T11:07:05Z</time>
      </trkpt>
      <trkpt lat="44.98329" lon="2.0837">
        <ele>428.4</ele>
        <time>2021-08-16T11:07:11Z</time>
      </trkpt>
      <trkpt lat="44.98317" lon="2.08375">
        <ele>428.4</ele>
        <time>2021-08-16T11:07:15Z</time>
      </trkpt>
      <trkpt lat="44.98301" lon="2.08372">
        <ele>428.4</ele>
        <time>2021-08-16T11:07:21Z</time>
      </trkpt>
      <trkpt lat="44.98279" lon="2.08378">
        <ele>428.4</ele>
        <time>2021-08-16T11:07:28Z</time>
      </trkpt>
      <trkpt lat="44.98262" lon="2.08369">
        <ele>428.4</ele>
        <time>2021-08-16T11:07:34Z</time>
      </trkpt>
      <trkpt lat="44.98252" lon="2.08357">
        <ele>428.89</ele>
        <time>2021-08-16T11:07:40Z</time>
      </trkpt>
      <trkpt lat="44.9824" lon="2.08342">
        <ele>428.89</ele>
        <time>2021-08-16T11:07:46Z</time>
      </trkpt>
      <trkpt lat="44.98223" lon="2.08327">
        <ele>428.89</ele>
        <time>2021-08-16T11:07:53Z</time>
      </trkpt>
      <trkpt lat="44.98221" lon="2.08303">
        <ele>428.89</ele>
        <time>2021-08-16T11:08:00Z</time>
      </trkpt>
      <trkpt lat="44.98211" lon="2.08288">
        <ele>428.89</ele>
        <time>2021-08-16T11:08:06Z</time>
      </trkpt>
      <trkpt lat="44.982" lon="2.08271">
        <ele>428.89</ele>
        <time>2021-08-16T11:08:12Z</time>
      </trkpt>
      <trkpt lat="44.9819" lon="2.08248">
        <ele>428.89</ele>
        <time>2021-08-16T11:08:18Z</time>
      </trkpt>
      <trkpt lat="44.98187" lon="2.08243">
        <ele>428.89</ele>
        <time>2021-08-16T11:08:20Z</time>
      </trkpt>
      <trkpt lat="44.98178" lon="2.08235">
        <ele>427.44</ele>
        <time>2021-08-16T11:08:23Z</time>
      </trkpt>
      <trkpt lat="44.98171" lon="2.0823">
        <ele>427.44</ele>
        <time>2021-08-16T11:08:30Z</time>
      </trkpt>
      <trkpt lat="44.98165" lon="2.08229">
        <ele>427.44</ele>
        <time>2021-08-16T11:08:43Z</time>
      </trkpt>
      <trkpt lat="44.98162" lon="2.08222">
        <ele>427.44</ele>
        <time>2021-08-16T11:08:51Z</time>
      </trkpt>
      <trkpt lat="44.98161" lon="2.08221">
        <ele>427.44</ele>
        <time>2021-08-16T11:08:55Z</time>
      </trkpt>
      <trkpt lat="44.98156" lon="2.08219">
        <ele>427.44</ele>
        <time>2021-08-16T11:09:02Z</time>
      </trkpt>
      <trkpt lat="44.98156" lon="2.08212">
        <ele>427.44</ele>
        <time>2021-08-16T11:09:09Z</time>
      </trkpt>
      <trkpt lat="44.98153" lon="2.08193">
        <ele>427.92</ele>
        <time>2021-08-16T11:09:16Z</time>
      </trkpt>
      <trkpt lat="44.98151" lon="2.08187">
        <ele>427.92</ele>
        <time>2021-08-16T11:09:18Z</time>
      </trkpt>
      <trkpt lat="44.98139" lon="2.08175">
        <ele>427.92</ele>
        <time>2021-08-16T11:09:25Z</time>
      </trkpt>
      <trkpt lat="44.98138" lon="2.08152">
        <ele>427.92</ele>
        <time>2021-08-16T11:09:31Z</time>
      </trkpt>
      <trkpt lat="44.9814" lon="2.0814">
        <ele>427.92</ele>
        <time>2021-08-16T11:09:34Z</time>
      </trkpt>
      <trkpt lat="44.98138" lon="2.0811">
        <ele>427.92</ele>
        <time>2021-08-16T11:09:41Z</time>
      </trkpt>
      <trkpt lat="44.98136" lon="2.08081">
        <ele>427.92</ele>
        <time>2021-08-16T11:09:47Z</time>
      </trkpt>
      <trkpt lat="44.98129" lon="2.08055">
        <ele>427.92</ele>
        <time>2021-08-16T11:09:53Z</time>
      </trkpt>
      <trkpt lat="44.98127" lon="2.08029">
        <ele>427.92</ele>
        <time>2021-08-16T11:09:59Z</time>
      </trkpt>
      <trkpt lat="44.98134" lon="2.07993">
        <ele>427.92</ele>
        <time>2021-08-16T11:10:06Z</time>
      </trkpt>
      <trkpt lat="44.98134" lon="2.07977">
        <ele>427.92</ele>
        <time>2021-08-16T11:10:09Z</time>
      </trkpt>
      <trkpt lat="44.98137" lon="2.07966">
        <ele>428.89</ele>
        <time>2021-08-16T11:10:14Z</time>
      </trkpt>
      <trkpt lat="44.98136" lon="2.07962">
        <ele>428.89</ele>
        <time>2021-08-16T11:10:23Z</time>
      </trkpt>
      <trkpt lat="44.98136" lon="2.0796">
        <ele>428.89</ele>
        <time>2021-08-16T11:10:26Z</time>
      </trkpt>
      <trkpt lat="44.98132" lon="2.07953">
        <ele>428.89</ele>
        <time>2021-08-16T11:10:33Z</time>
      </trkpt>
      <trkpt lat="44.98131" lon="2.07948">
        <ele>428.89</ele>
        <time>2021-08-16T11:10:39Z</time>
      </trkpt>
      <trkpt lat="44.9813" lon="2.07945">
        <ele>428.89</ele>
        <time>2021-08-16T11:10:44Z</time>
      </trkpt>
      <trkpt lat="44.98128" lon="2.07938">
        <ele>428.89</ele>
        <time>2021-08-16T11:10:48Z</time>
      </trkpt>
      <trkpt lat="44.98115" lon="2.0791">
        <ele>428.89</ele>
        <time>2021-08-16T11:10:56Z</time>
      </trkpt>
      <trkpt lat="44.98103" lon="2.07892">
        <ele>428.89</ele>
        <time>2021-08-16T11:11:02Z</time>
      </trkpt>
      <trkpt lat="44.98092" lon="2.07868">
        <ele>428.89</ele>
        <time>2021-08-16T11:11:09Z</time>
      </trkpt>
      <trkpt lat="44.98084" lon="2.07854">
        <ele>428.4</ele>
        <time>2021-08-16T11:11:14Z</time>
      </trkpt>
      <trkpt lat="44.98083" lon="2.07852">
        <ele>428.4</ele>
        <time>2021-08-16T11:11:15Z</time>
      </trkpt>
      <trkpt lat="44.98074" lon="2.07831">
        <ele>428.4</ele>
        <time>2021-08-16T11:11:22Z</time>
      </trkpt>
      <trkpt lat="44.98063" lon="2.0781">
        <ele>427.44</ele>
        <time>2021-08-16T11:11:29Z</time>
      </trkpt>
      <trkpt lat="44.98057" lon="2.07787">
        <ele>427.44</ele>
        <time>2021-08-16T11:11:36Z</time>
      </trkpt>
      <trkpt lat="44.98054" lon="2.07762">
        <ele>427.44</ele>
        <time>2021-08-16T11:11:43Z</time>
      </trkpt>
      <trkpt lat="44.98049" lon="2.0774">
        <ele>427.44</ele>
        <time>2021-08-16T11:11:48Z</time>
      </trkpt>
      <trkpt lat="44.98047" lon="2.07716">
        <ele>427.44</ele>
        <time>2021-08-16T11:11:54Z</time>
      </trkpt>
      <trkpt lat="44.98046" lon="2.07711">
        <ele>427.44</ele>
        <time>2021-08-16T11:11:56Z</time>
      </trkpt>
      <trkpt lat="44.98046" lon="2.07709">
        <ele>427.44</ele>
        <time>2021-08-16T11:11:57Z</time>
      </trkpt>
      <trkpt lat="44.98045" lon="2.07707">
        <ele>427.44</ele>
        <time>2021-08-16T11:11:58Z</time>
      </trkpt>
      <trkpt lat="44.98037" lon="2.07687">
        <ele>427.44</ele>
        <time>2021-08-16T11:12:04Z</time>
      </trkpt>
      <trkpt lat="44.98015" lon="2.07659">
        <ele>426.96</ele>
        <time>2021-08-16T11:12:12Z</time>
      </trkpt>
      <trkpt lat="44.97996" lon="2.07641">
        <ele>426.96</ele>
        <time>2021-08-16T11:12:19Z</time>
      </trkpt>
      <trkpt lat="44.97984" lon="2.07634">
        <ele>426.96</ele>
        <time>2021-08-16T11:12:23Z</time>
      </trkpt>
      <trkpt lat="44.97983" lon="2.07633">
        <ele>426.96</ele>
        <time>2021-08-16T11:12:24Z</time>
      </trkpt>
      <trkpt lat="44.97981" lon="2.0763">
        <ele>426.96</ele>
        <time>2021-08-16T11:12:25Z</time>
      </trkpt>
      <trkpt lat="44.97981" lon="2.07627">
        <ele>426.96</ele>
        <time>2021-08-16T11:12:26Z</time>
      </trkpt>
      <trkpt lat="44.9798" lon="2.07624">
        <ele>426.96</ele>
        <time>2021-08-16T11:12:27Z</time>
      </trkpt>
      <trkpt lat="44.9798" lon="2.07621">
        <ele>426.96</ele>
        <time>2021-08-16T11:12:28Z</time>
      </trkpt>
      <trkpt lat="44.97978" lon="2.07592">
        <ele>427.44</ele>
        <time>2021-08-16T11:12:34Z</time>
      </trkpt>
      <trkpt lat="44.97963" lon="2.07565">
        <ele>427.44</ele>
        <time>2021-08-16T11:12:40Z</time>
      </trkpt>
      <trkpt lat="44.97944" lon="2.07544">
        <ele>427.44</ele>
        <time>2021-08-16T11:12:46Z</time>
      </trkpt>
      <trkpt lat="44.97928" lon="2.07531">
        <ele>427.44</ele>
        <time>2021-08-16T11:12:52Z</time>
      </trkpt>
      <trkpt lat="44.97916" lon="2.07521">
        <ele>427.44</ele>
        <time>2021-08-16T11:12:58Z</time>
      </trkpt>
      <trkpt lat="44.97903" lon="2.07502">
        <ele>427.44</ele>
        <time>2021-08-16T11:13:04Z</time>
      </trkpt>
      <trkpt lat="44.97897" lon="2.07492">
        <ele>427.44</ele>
        <time>2021-08-16T11:13:07Z</time>
      </trkpt>
      <trkpt lat="44.97896" lon="2.07487">
        <ele>427.44</ele>
        <time>2021-08-16T11:13:08Z</time>
      </trkpt>
      <trkpt lat="44.97896" lon="2.07484">
        <ele>427.44</ele>
        <time>2021-08-16T11:13:09Z</time>
      </trkpt>
      <trkpt lat="44.97894" lon="2.07452">
        <ele>427.44</ele>
        <time>2021-08-16T11:13:15Z</time>
      </trkpt>
      <trkpt lat="44.97896" lon="2.07411">
        <ele>427.44</ele>
        <time>2021-08-16T11:13:22Z</time>
      </trkpt>
      <trkpt lat="44.97896" lon="2.074">
        <ele>427.44</ele>
        <time>2021-08-16T11:13:24Z</time>
      </trkpt>
      <trkpt lat="44.97901" lon="2.07358">
        <ele>427.44</ele>
        <time>2021-08-16T11:13:31Z</time>
      </trkpt>
      <trkpt lat="44.97916" lon="2.07326">
        <ele>427.44</ele>
        <time>2021-08-16T11:13:38Z</time>
      </trkpt>
      <trkpt lat="44.97932" lon="2.07298">
        <ele>427.44</ele>
        <time>2021-08-16T11:13:44Z</time>
      </trkpt>
      <trkpt lat="44.97952" lon="2.07274">
        <ele>427.44</ele>
        <time>2021-08-16T11:13:51Z</time>
      </trkpt>
      <trkpt lat="44.9797" lon="2.07263">
        <ele>427.44</ele>
        <time>2021-08-16T11:13:57Z</time>
      </trkpt>
      <trkpt lat="44.97972" lon="2.07256">
        <ele>427.44</ele>
        <time>2021-08-16T11:14:01Z</time>
      </trkpt>
      <trkpt lat="44.97972" lon="2.07253">
        <ele>427.44</ele>
        <time>2021-08-16T11:14:02Z</time>
      </trkpt>
      <trkpt lat="44.97972" lon="2.07251">
        <ele>427.44</ele>
        <time>2021-08-16T11:14:03Z</time>
      </trkpt>
      <trkpt lat="44.97972" lon="2.07249">
        <ele>427.44</ele>
        <time>2021-08-16T11:14:04Z</time>
      </trkpt>
      <trkpt lat="44.9797" lon="2.07247">
        <ele>427.44</ele>
        <time>2021-08-16T11:14:05Z</time>
      </trkpt>
      <trkpt lat="44.97969" lon="2.07246">
        <ele>427.44</ele>
        <time>2021-08-16T11:14:06Z</time>
      </trkpt>
      <trkpt lat="44.97958" lon="2.07232">
        <ele>427.44</ele>
        <time>2021-08-16T11:14:12Z</time>
      </trkpt>
      <trkpt lat="44.97941" lon="2.07213">
        <ele>427.44</ele>
        <time>2021-08-16T11:14:19Z</time>
      </trkpt>
      <trkpt lat="44.9794" lon="2.0721">
        <ele>427.44</ele>
        <time>2021-08-16T11:14:20Z</time>
      </trkpt>
      <trkpt lat="44.9794" lon="2.07206">
        <ele>427.44</ele>
        <time>2021-08-16T11:14:21Z</time>
      </trkpt>
      <trkpt lat="44.9794" lon="2.07203">
        <ele>427.44</ele>
        <time>2021-08-16T11:14:22Z</time>
      </trkpt>
      <trkpt lat="44.9794" lon="2.07198">
        <ele>427.44</ele>
        <time>2021-08-16T11:14:23Z</time>
      </trkpt>
      <trkpt lat="44.97941" lon="2.07194">
        <ele>427.44</ele>
        <time>2021-08-16T11:14:24Z</time>
      </trkpt>
      <trkpt lat="44.97942" lon="2.07189">
        <ele>427.44</ele>
        <time>2021-08-16T11:14:25Z</time>
      </trkpt>
      <trkpt lat="44.97946" lon="2.07151">
        <ele>427.44</ele>
        <time>2021-08-16T11:14:32Z</time>
      </trkpt>
      <trkpt lat="44.97947" lon="2.07113">
        <ele>427.44</ele>
        <time>2021-08-16T11:14:39Z</time>
      </trkpt>
      <trkpt lat="44.97943" lon="2.07096">
        <ele>427.44</ele>
        <time>2021-08-16T11:14:42Z</time>
      </trkpt>
      <trkpt lat="44.97942" lon="2.0709">
        <ele>427.44</ele>
        <time>2021-08-16T11:14:43Z</time>
      </trkpt>
      <trkpt lat="44.97942" lon="2.07086">
        <ele>427.44</ele>
        <time>2021-08-16T11:14:44Z</time>
      </trkpt>
      <trkpt lat="44.97943" lon="2.07082">
        <ele>427.44</ele>
        <time>2021-08-16T11:14:45Z</time>
      </trkpt>
      <trkpt lat="44.97944" lon="2.07078">
        <ele>427.44</ele>
        <time>2021-08-16T11:14:46Z</time>
      </trkpt>
      <trkpt lat="44.97949" lon="2.07049">
        <ele>426.96</ele>
        <time>2021-08-16T11:14:53Z</time>
      </trkpt>
      <trkpt lat="44.9795" lon="2.07017">
        <ele>426.96</ele>
        <time>2021-08-16T11:15:00Z</time>
      </trkpt>
      <trkpt lat="44.97951" lon="2.07012">
        <ele>426.96</ele>
        <time>2021-08-16T11:15:02Z</time>
      </trkpt>
      <trkpt lat="44.97951" lon="2.0701">
        <ele>426.96</ele>
        <time>2021-08-16T11:15:03Z</time>
      </trkpt>
      <trkpt lat="44.97947" lon="2.06988">
        <ele>426.96</ele>
        <time>2021-08-16T11:15:10Z</time>
      </trkpt>
      <trkpt lat="44.9794" lon="2.06955">
        <ele>426.96</ele>
        <time>2021-08-16T11:15:17Z</time>
      </trkpt>
      <trkpt lat="44.97931" lon="2.06919">
        <ele>426.96</ele>
        <time>2021-08-16T11:15:24Z</time>
      </trkpt>
      <trkpt lat="44.97918" lon="2.06881">
        <ele>426.96</ele>
        <time>2021-08-16T11:15:32Z</time>
      </trkpt>
      <trkpt lat="44.97905" lon="2.06834">
        <ele>426.96</ele>
        <time>2021-08-16T11:15:40Z</time>
      </trkpt>
      <trkpt lat="44.97897" lon="2.06795">
        <ele>426.96</ele>
        <time>2021-08-16T11:15:47Z</time>
      </trkpt>
      <trkpt lat="44.97893" lon="2.06749">
        <ele>426.96</ele>
        <time>2021-08-16T11:15:55Z</time>
      </trkpt>
      <trkpt lat="44.97894" lon="2.0673">
        <ele>426.48</ele>
        <time>2021-08-16T11:15:58Z</time>
      </trkpt>
      <trkpt lat="44.97902" lon="2.06678">
        <ele>426.48</ele>
        <time>2021-08-16T11:16:06Z</time>
      </trkpt>
      <trkpt lat="44.97905" lon="2.06665">
        <ele>426.48</ele>
        <time>2021-08-16T11:16:08Z</time>
      </trkpt>
      <trkpt lat="44.97912" lon="2.06625">
        <ele>426.48</ele>
        <time>2021-08-16T11:16:15Z</time>
      </trkpt>
      <trkpt lat="44.97917" lon="2.06593">
        <ele>426.48</ele>
        <time>2021-08-16T11:16:21Z</time>
      </trkpt>
      <trkpt lat="44.97921" lon="2.0656">
        <ele>426.48</ele>
        <time>2021-08-16T11:16:27Z</time>
      </trkpt>
      <trkpt lat="44.9792" lon="2.06515">
        <ele>426.48</ele>
        <time>2021-08-16T11:16:35Z</time>
      </trkpt>
      <trkpt lat="44.97912" lon="2.06491">
        <ele>426.48</ele>
        <time>2021-08-16T11:16:40Z</time>
      </trkpt>
      <trkpt lat="44.97904" lon="2.06481">
        <ele>426.48</ele>
        <time>2021-08-16T11:16:42Z</time>
      </trkpt>
      <trkpt lat="44.97901" lon="2.06477">
        <ele>426.48</ele>
        <time>2021-08-16T11:16:43Z</time>
      </trkpt>
      <trkpt lat="44.97897" lon="2.06474">
        <ele>426.48</ele>
        <time>2021-08-16T11:16:44Z</time>
      </trkpt>
      <trkpt lat="44.97873" lon="2.06464">
        <ele>426</ele>
        <time>2021-08-16T11:16:50Z</time>
      </trkpt>
      <trkpt lat="44.97852" lon="2.06461">
        <ele>426</ele>
        <time>2021-08-16T11:16:55Z</time>
      </trkpt>
      <trkpt lat="44.97848" lon="2.06463">
        <ele>426</ele>
        <time>2021-08-16T11:16:56Z</time>
      </trkpt>
      <trkpt lat="44.97828" lon="2.06464">
        <ele>426</ele>
        <time>2021-08-16T11:17:01Z</time>
      </trkpt>
      <trkpt lat="44.97825" lon="2.06458">
        <ele>426</ele>
        <time>2021-08-16T11:17:03Z</time>
      </trkpt>
      <trkpt lat="44.97826" lon="2.06452">
        <ele>426</ele>
        <time>2021-08-16T11:17:04Z</time>
      </trkpt>
      <trkpt lat="44.97827" lon="2.06449">
        <ele>426</ele>
        <time>2021-08-16T11:17:05Z</time>
      </trkpt>
      <trkpt lat="44.97828" lon="2.06445">
        <ele>426</ele>
        <time>2021-08-16T11:17:06Z</time>
      </trkpt>
      <trkpt lat="44.9783" lon="2.06441">
        <ele>426</ele>
        <time>2021-08-16T11:17:07Z</time>
      </trkpt>
      <trkpt lat="44.97831" lon="2.06437">
        <ele>426</ele>
        <time>2021-08-16T11:17:08Z</time>
      </trkpt>
      <trkpt lat="44.97834" lon="2.06435">
        <ele>426</ele>
        <time>2021-08-16T11:17:09Z</time>
      </trkpt>
      <trkpt lat="44.97836" lon="2.06432">
        <ele>426</ele>
        <time>2021-08-16T11:17:10Z</time>
      </trkpt>
      <trkpt lat="44.97838" lon="2.0643">
        <ele>426</ele>
        <time>2021-08-16T11:17:11Z</time>
      </trkpt>
      <trkpt lat="44.97851" lon="2.06413">
        <ele>426</ele>
        <time>2021-08-16T11:17:17Z</time>
      </trkpt>
      <trkpt lat="44.9786" lon="2.06389">
        <ele>426</ele>
        <time>2021-08-16T11:17:24Z</time>
      </trkpt>
      <trkpt lat="44.97866" lon="2.06362">
        <ele>426</ele>
        <time>2021-08-16T11:17:31Z</time>
      </trkpt>
      <trkpt lat="44.97866" lon="2.06356">
        <ele>426</ele>
        <time>2021-08-16T11:17:37Z</time>
      </trkpt>
      <trkpt lat="44.97863" lon="2.06351">
        <ele>426</ele>
        <time>2021-08-16T11:17:46Z</time>
      </trkpt>
      <trkpt lat="44.97858" lon="2.06355">
        <ele>426</ele>
        <time>2021-08-16T11:17:55Z</time>
      </trkpt>
      <trkpt lat="44.97859" lon="2.06355">
        <ele>426</ele>
        <time>2021-08-16T11:18:04Z</time>
      </trkpt>
      <trkpt lat="44.97861" lon="2.06355">
        <ele>426</ele>
        <time>2021-08-16T11:18:17Z</time>
      </trkpt>
      <trkpt lat="44.97863" lon="2.06353">
        <ele>426</ele>
        <time>2021-08-16T11:18:28Z</time>
      </trkpt>
      <trkpt lat="44.97865" lon="2.06355">
        <ele>426</ele>
        <time>2021-08-16T11:18:47Z</time>
      </trkpt>
      <trkpt lat="44.97869" lon="2.06358">
        <ele>426</ele>
        <time>2021-08-16T11:18:48Z</time>
      </trkpt>
      <trkpt lat="44.9787" lon="2.0636">
        <ele>426</ele>
        <time>2021-08-16T11:18:51Z</time>
      </trkpt>
      <trkpt lat="44.97869" lon="2.06361">
        <ele>426</ele>
        <time>2021-08-16T11:18:53Z</time>
      </trkpt>
      <trkpt lat="44.97868" lon="2.06362">
        <ele>426</ele>
        <time>2021-08-16T11:18:58Z</time>
      </trkpt>
      <trkpt lat="44.97865" lon="2.06356">
        <ele>426</ele>
        <time>2021-08-16T11:19:21Z</time>
      </trkpt>
      <trkpt lat="44.97865" lon="2.06356">
        <ele>426</ele>
        <time>2021-08-16T11:19:39Z</time>
      </trkpt>
      <trkpt lat="44.97865" lon="2.06347">
        <ele>426</ele>
        <time>2021-08-16T11:19:55Z</time>
      </trkpt>
      <trkpt lat="44.97865" lon="2.0634">
        <ele>426</ele>
        <time>2021-08-16T11:20:16Z</time>
      </trkpt>
      <trkpt lat="44.97863" lon="2.06338">
        <ele>426</ele>
        <time>2021-08-16T11:20:32Z</time>
      </trkpt>
      <trkpt lat="44.97863" lon="2.06337">
        <ele>426</ele>
        <time>2021-08-16T11:20:44Z</time>
      </trkpt>
      <trkpt lat="44.97861" lon="2.06343">
        <ele>426</ele>
        <time>2021-08-16T11:21:07Z</time>
      </trkpt>
      <trkpt lat="44.97861" lon="2.06343">
        <ele>426.48</ele>
        <time>2021-08-16T11:21:16Z</time>
      </trkpt>
      <trkpt lat="44.97861" lon="2.06343">
        <ele>426.48</ele>
        <time>2021-08-16T11:21:33Z</time>
      </trkpt>
      <trkpt lat="44.97864" lon="2.06342">
        <ele>426.48</ele>
        <time>2021-08-16T11:21:51Z</time>
      </trkpt>
      <trkpt lat="44.97863" lon="2.06347">
        <ele>426.96</ele>
        <time>2021-08-16T11:22:07Z</time>
      </trkpt>
      <trkpt lat="44.97868" lon="2.0635">
        <ele>426.96</ele>
        <time>2021-08-16T11:22:29Z</time>
      </trkpt>
      <trkpt lat="44.97869" lon="2.06349">
        <ele>427.44</ele>
        <time>2021-08-16T11:22:48Z</time>
      </trkpt>
      <trkpt lat="44.97867" lon="2.06352">
        <ele>427.44</ele>
        <time>2021-08-16T11:23:01Z</time>
      </trkpt>
      <trkpt lat="44.97865" lon="2.06351">
        <ele>427.44</ele>
        <time>2021-08-16T11:23:17Z</time>
      </trkpt>
      <trkpt lat="44.97866" lon="2.06345">
        <ele>427.92</ele>
        <time>2021-08-16T11:23:37Z</time>
      </trkpt>
      <trkpt lat="44.9786" lon="2.06347">
        <ele>427.92</ele>
        <time>2021-08-16T11:23:48Z</time>
      </trkpt>
      <trkpt lat="44.9786" lon="2.0635">
        <ele>427.92</ele>
        <time>2021-08-16T11:23:55Z</time>
      </trkpt>
      <trkpt lat="44.97864" lon="2.06346">
        <ele>427.92</ele>
        <time>2021-08-16T11:24:07Z</time>
      </trkpt>
      <trkpt lat="44.9786" lon="2.06347">
        <ele>427.92</ele>
        <time>2021-08-16T11:24:20Z</time>
      </trkpt>
      <trkpt lat="44.97861" lon="2.06346">
        <ele>428.4</ele>
        <time>2021-08-16T11:24:29Z</time>
      </trkpt>
      <trkpt lat="44.97862" lon="2.06344">
        <ele>428.4</ele>
        <time>2021-08-16T11:24:46Z</time>
      </trkpt>
      <trkpt lat="44.97861" lon="2.06346">
        <ele>428.4</ele>
        <time>2021-08-16T11:25:07Z</time>
      </trkpt>
      <trkpt lat="44.97862" lon="2.06342">
        <ele>428.4</ele>
        <time>2021-08-16T11:25:20Z</time>
      </trkpt>
      <trkpt lat="44.97862" lon="2.06342">
        <ele>428.4</ele>
        <time>2021-08-16T11:25:33Z</time>
      </trkpt>
      <trkpt lat="44.97862" lon="2.06343">
        <ele>428.89</ele>
        <time>2021-08-16T11:25:50Z</time>
      </trkpt>
      <trkpt lat="44.97857" lon="2.0634">
        <ele>428.89</ele>
        <time>2021-08-16T11:26:03Z</time>
      </trkpt>
      <trkpt lat="44.97856" lon="2.06339">
        <ele>428.89</ele>
        <time>2021-08-16T11:26:20Z</time>
      </trkpt>
      <trkpt lat="44.97861" lon="2.06337">
        <ele>429.37</ele>
        <time>2021-08-16T11:26:38Z</time>
      </trkpt>
      <trkpt lat="44.97862" lon="2.06333">
        <ele>429.85</ele>
        <time>2021-08-16T11:26:55Z</time>
      </trkpt>
      <trkpt lat="44.97863" lon="2.06336">
        <ele>429.85</ele>
        <time>2021-08-16T11:27:14Z</time>
      </trkpt>
      <trkpt lat="44.97861" lon="2.06335">
        <ele>430.33</ele>
        <time>2021-08-16T11:27:25Z</time>
      </trkpt>
      <trkpt lat="44.97864" lon="2.06342">
        <ele>430.33</ele>
        <time>2021-08-16T11:27:40Z</time>
      </trkpt>
      <trkpt lat="44.97867" lon="2.06342">
        <ele>430.81</ele>
        <time>2021-08-16T11:27:55Z</time>
      </trkpt>
      <trkpt lat="44.97871" lon="2.06344">
        <ele>431.29</ele>
        <time>2021-08-16T11:28:12Z</time>
      </trkpt>
      <trkpt lat="44.97872" lon="2.06347">
        <ele>431.29</ele>
        <time>2021-08-16T11:28:21Z</time>
      </trkpt>
      <trkpt lat="44.97872" lon="2.0635">
        <ele>431.77</ele>
        <time>2021-08-16T11:28:29Z</time>
      </trkpt>
      <trkpt lat="44.97872" lon="2.06356">
        <ele>431.77</ele>
        <time>2021-08-16T11:28:42Z</time>
      </trkpt>
      <trkpt lat="44.97872" lon="2.06351">
        <ele>431.77</ele>
        <time>2021-08-16T11:28:45Z</time>
      </trkpt>
      <trkpt lat="44.97872" lon="2.06348">
        <ele>432.25</ele>
        <time>2021-08-16T11:28:49Z</time>
      </trkpt>
      <trkpt lat="44.97873" lon="2.06347">
        <ele>432.25</ele>
        <time>2021-08-16T11:28:51Z</time>
      </trkpt>
      <trkpt lat="44.97872" lon="2.06348">
        <ele>432.25</ele>
        <time>2021-08-16T11:28:56Z</time>
      </trkpt>
      <trkpt lat="44.9787" lon="2.06352">
        <ele>432.25</ele>
        <time>2021-08-16T11:29:15Z</time>
      </trkpt>
      <trkpt lat="44.97867" lon="2.06356">
        <ele>432.73</ele>
        <time>2021-08-16T11:29:28Z</time>
      </trkpt>
      <trkpt lat="44.97868" lon="2.06356">
        <ele>434.17</ele>
        <time>2021-08-16T11:29:32Z</time>
      </trkpt>
      <trkpt lat="44.97868" lon="2.06356">
        <ele>432.73</ele>
        <time>2021-08-16T11:29:36Z</time>
      </trkpt>
      <trkpt lat="44.97869" lon="2.06356">
        <ele>432.73</ele>
        <time>2021-08-16T11:29:48Z</time>
      </trkpt>
      <trkpt lat="44.97867" lon="2.06353">
        <ele>433.21</ele>
        <time>2021-08-16T11:29:58Z</time>
      </trkpt>
      <trkpt lat="44.97867" lon="2.06354">
        <ele>433.21</ele>
        <time>2021-08-16T11:30:12Z</time>
      </trkpt>
      <trkpt lat="44.97866" lon="2.06356">
        <ele>433.21</ele>
        <time>2021-08-16T11:30:23Z</time>
      </trkpt>
      <trkpt lat="44.97869" lon="2.06357">
        <ele>435.13</ele>
        <time>2021-08-16T11:30:32Z</time>
      </trkpt>
      <trkpt lat="44.97873" lon="2.06355">
        <ele>434.17</ele>
        <time>2021-08-16T11:30:55Z</time>
      </trkpt>
      <trkpt lat="44.97871" lon="2.06354">
        <ele>434.65</ele>
        <time>2021-08-16T11:31:09Z</time>
      </trkpt>
      <trkpt lat="44.97871" lon="2.06353">
        <ele>434.65</ele>
        <time>2021-08-16T11:31:25Z</time>
      </trkpt>
      <trkpt lat="44.9787" lon="2.06353">
        <ele>434.65</ele>
        <time>2021-08-16T11:31:32Z</time>
      </trkpt>
      <trkpt lat="44.97872" lon="2.0635">
        <ele>435.13</ele>
        <time>2021-08-16T11:31:45Z</time>
      </trkpt>
      <trkpt lat="44.97869" lon="2.06346">
        <ele>435.13</ele>
        <time>2021-08-16T11:32:00Z</time>
      </trkpt>
      <trkpt lat="44.97869" lon="2.06344">
        <ele>435.61</ele>
        <time>2021-08-16T11:32:11Z</time>
      </trkpt>
      <trkpt lat="44.97868" lon="2.06344">
        <ele>435.61</ele>
        <time>2021-08-16T11:32:24Z</time>
      </trkpt>
      <trkpt lat="44.97868" lon="2.06342">
        <ele>436.1</ele>
        <time>2021-08-16T11:32:37Z</time>
      </trkpt>
      <trkpt lat="44.97869" lon="2.0634">
        <ele>436.1</ele>
        <time>2021-08-16T11:32:52Z</time>
      </trkpt>
      <trkpt lat="44.97868" lon="2.06338">
        <ele>436.1</ele>
        <time>2021-08-16T11:33:03Z</time>
      </trkpt>
      <trkpt lat="44.97864" lon="2.06339">
        <ele>436.58</ele>
        <time>2021-08-16T11:33:14Z</time>
      </trkpt>
      <trkpt lat="44.97866" lon="2.06339">
        <ele>436.58</ele>
        <time>2021-08-16T11:33:24Z</time>
      </trkpt>
      <trkpt lat="44.97873" lon="2.06343">
        <ele>436.58</ele>
        <time>2021-08-16T11:33:36Z</time>
      </trkpt>
      <trkpt lat="44.97876" lon="2.06338">
        <ele>437.06</ele>
        <time>2021-08-16T11:33:45Z</time>
      </trkpt>
      <trkpt lat="44.97877" lon="2.06337">
        <ele>437.06</ele>
        <time>2021-08-16T11:33:57Z</time>
      </trkpt>
      <trkpt lat="44.97875" lon="2.0634">
        <ele>437.06</ele>
        <time>2021-08-16T11:34:05Z</time>
      </trkpt>
      <trkpt lat="44.97873" lon="2.06343">
        <ele>437.06</ele>
        <time>2021-08-16T11:34:11Z</time>
      </trkpt>
      <trkpt lat="44.97872" lon="2.06348">
        <ele>437.54</ele>
        <time>2021-08-16T11:34:20Z</time>
      </trkpt>
      <trkpt lat="44.97874" lon="2.06343">
        <ele>437.54</ele>
        <time>2021-08-16T11:34:36Z</time>
      </trkpt>
      <trkpt lat="44.97873" lon="2.06343">
        <ele>437.54</ele>
        <time>2021-08-16T11:34:48Z</time>
      </trkpt>
      <trkpt lat="44.97867" lon="2.06347">
        <ele>438.02</ele>
        <time>2021-08-16T11:35:02Z</time>
      </trkpt>
      <trkpt lat="44.97865" lon="2.06349">
        <ele>438.02</ele>
        <time>2021-08-16T11:35:13Z</time>
      </trkpt>
      <trkpt lat="44.97866" lon="2.06347">
        <ele>438.5</ele>
        <time>2021-08-16T11:35:23Z</time>
      </trkpt>
      <trkpt lat="44.97868" lon="2.06344">
        <ele>438.5</ele>
        <time>2021-08-16T11:35:39Z</time>
      </trkpt>
      <trkpt lat="44.9787" lon="2.06343">
        <ele>438.5</ele>
        <time>2021-08-16T11:35:51Z</time>
      </trkpt>
      <trkpt lat="44.97872" lon="2.0634">
        <ele>438.98</ele>
        <time>2021-08-16T11:36:02Z</time>
      </trkpt>
      <trkpt lat="44.97873" lon="2.06337">
        <ele>438.98</ele>
        <time>2021-08-16T11:36:10Z</time>
      </trkpt>
      <trkpt lat="44.97872" lon="2.06338">
        <ele>438.98</ele>
        <time>2021-08-16T11:36:20Z</time>
      </trkpt>
      <trkpt lat="44.97868" lon="2.06343">
        <ele>439.46</ele>
        <time>2021-08-16T11:36:33Z</time>
      </trkpt>
      <trkpt lat="44.97865" lon="2.06345">
        <ele>439.46</ele>
        <time>2021-08-16T11:36:42Z</time>
      </trkpt>
      <trkpt lat="44.97867" lon="2.06345">
        <ele>439.94</ele>
        <time>2021-08-16T11:36:53Z</time>
      </trkpt>
      <trkpt lat="44.97867" lon="2.06346">
        <ele>439.94</ele>
        <time>2021-08-16T11:37:02Z</time>
      </trkpt>
      <trkpt lat="44.97863" lon="2.06348">
        <ele>439.94</ele>
        <time>2021-08-16T11:37:20Z</time>
      </trkpt>
      <trkpt lat="44.97862" lon="2.06349">
        <ele>440.42</ele>
        <time>2021-08-16T11:37:25Z</time>
      </trkpt>
      <trkpt lat="44.97864" lon="2.06349">
        <ele>440.42</ele>
        <time>2021-08-16T11:37:34Z</time>
      </trkpt>
      <trkpt lat="44.97863" lon="2.06347">
        <ele>440.42</ele>
        <time>2021-08-16T11:37:47Z</time>
      </trkpt>
      <trkpt lat="44.97864" lon="2.06349">
        <ele>440.42</ele>
        <time>2021-08-16T11:37:55Z</time>
      </trkpt>
      <trkpt lat="44.97865" lon="2.0635">
        <ele>440.42</ele>
        <time>2021-08-16T11:38:06Z</time>
      </trkpt>
      <trkpt lat="44.97862" lon="2.06349">
        <ele>440.42</ele>
        <time>2021-08-16T11:38:20Z</time>
      </trkpt>
      <trkpt lat="44.97862" lon="2.06349">
        <ele>440.9</ele>
        <time>2021-08-16T11:38:36Z</time>
      </trkpt>
      <trkpt lat="44.9786" lon="2.06352">
        <ele>440.9</ele>
        <time>2021-08-16T11:38:53Z</time>
      </trkpt>
      <trkpt lat="44.97861" lon="2.06348">
        <ele>440.9</ele>
        <time>2021-08-16T11:39:03Z</time>
      </trkpt>
      <trkpt lat="44.97864" lon="2.06345">
        <ele>440.9</ele>
        <time>2021-08-16T11:39:15Z</time>
      </trkpt>
      <trkpt lat="44.97868" lon="2.06341">
        <ele>440.9</ele>
        <time>2021-08-16T11:39:27Z</time>
      </trkpt>
      <trkpt lat="44.9787" lon="2.06342">
        <ele>440.9</ele>
        <time>2021-08-16T11:39:40Z</time>
      </trkpt>
      <trkpt lat="44.97869" lon="2.06346">
        <ele>441.38</ele>
        <time>2021-08-16T11:39:57Z</time>
      </trkpt>
      <trkpt lat="44.97867" lon="2.06349">
        <ele>441.38</ele>
        <time>2021-08-16T11:40:05Z</time>
      </trkpt>
      <trkpt lat="44.9787" lon="2.0635">
        <ele>441.38</ele>
        <time>2021-08-16T11:40:17Z</time>
      </trkpt>
      <trkpt lat="44.97872" lon="2.0635">
        <ele>441.38</ele>
        <time>2021-08-16T11:40:29Z</time>
      </trkpt>
      <trkpt lat="44.97866" lon="2.06348">
        <ele>441.38</ele>
        <time>2021-08-16T11:40:43Z</time>
      </trkpt>
      <trkpt lat="44.97866" lon="2.06349">
        <ele>441.38</ele>
        <time>2021-08-16T11:40:58Z</time>
      </trkpt>
      <trkpt lat="44.97865" lon="2.06345">
        <ele>441.38</ele>
        <time>2021-08-16T11:41:11Z</time>
      </trkpt>
      <trkpt lat="44.97864" lon="2.06349">
        <ele>441.86</ele>
        <time>2021-08-16T11:41:26Z</time>
      </trkpt>
      <trkpt lat="44.97866" lon="2.06348">
        <ele>441.86</ele>
        <time>2021-08-16T11:41:35Z</time>
      </trkpt>
      <trkpt lat="44.97868" lon="2.06346">
        <ele>441.86</ele>
        <time>2021-08-16T11:41:44Z</time>
      </trkpt>
      <trkpt lat="44.97868" lon="2.06344">
        <ele>441.86</ele>
        <time>2021-08-16T11:41:56Z</time>
      </trkpt>
      <trkpt lat="44.97866" lon="2.06346">
        <ele>441.86</ele>
        <time>2021-08-16T11:42:11Z</time>
      </trkpt>
      <trkpt lat="44.9787" lon="2.06349">
        <ele>441.86</ele>
        <time>2021-08-16T11:42:25Z</time>
      </trkpt>
      <trkpt lat="44.97873" lon="2.0635">
        <ele>442.34</ele>
        <time>2021-08-16T11:42:37Z</time>
      </trkpt>
      <trkpt lat="44.97872" lon="2.06347">
        <ele>442.34</ele>
        <time>2021-08-16T11:42:52Z</time>
      </trkpt>
      <trkpt lat="44.97873" lon="2.06347">
        <ele>442.34</ele>
        <time>2021-08-16T11:43:08Z</time>
      </trkpt>
      <trkpt lat="44.97875" lon="2.06345">
        <ele>442.82</ele>
        <time>2021-08-16T11:43:21Z</time>
      </trkpt>
      <trkpt lat="44.97869" lon="2.06343">
        <ele>442.82</ele>
        <time>2021-08-16T11:43:32Z</time>
      </trkpt>
      <trkpt lat="44.97866" lon="2.06338">
        <ele>442.82</ele>
        <time>2021-08-16T11:43:46Z</time>
      </trkpt>
      <trkpt lat="44.97863" lon="2.06336">
        <ele>442.82</ele>
        <time>2021-08-16T11:44:00Z</time>
      </trkpt>
      <trkpt lat="44.9786" lon="2.06341">
        <ele>442.82</ele>
        <time>2021-08-16T11:44:21Z</time>
      </trkpt>
      <trkpt lat="44.97858" lon="2.06343">
        <ele>442.82</ele>
        <time>2021-08-16T11:44:39Z</time>
      </trkpt>
      <trkpt lat="44.97858" lon="2.06344">
        <ele>442.82</ele>
        <time>2021-08-16T11:44:53Z</time>
      </trkpt>
      <trkpt lat="44.97859" lon="2.06352">
        <ele>442.82</ele>
        <time>2021-08-16T11:45:01Z</time>
      </trkpt>
      <trkpt lat="44.97858" lon="2.06354">
        <ele>442.82</ele>
        <time>2021-08-16T11:45:02Z</time>
      </trkpt>
      <trkpt lat="44.97858" lon="2.06355">
        <ele>442.82</ele>
        <time>2021-08-16T11:45:03Z</time>
      </trkpt>
      <trkpt lat="44.97856" lon="2.06358">
        <ele>442.82</ele>
        <time>2021-08-16T11:45:04Z</time>
      </trkpt>
      <trkpt lat="44.97855" lon="2.0636">
        <ele>442.82</ele>
        <time>2021-08-16T11:45:05Z</time>
      </trkpt>
      <trkpt lat="44.97853" lon="2.06361">
        <ele>442.82</ele>
        <time>2021-08-16T11:45:06Z</time>
      </trkpt>
      <trkpt lat="44.97851" lon="2.06363">
        <ele>442.82</ele>
        <time>2021-08-16T11:45:07Z</time>
      </trkpt>
      <trkpt lat="44.97848" lon="2.06364">
        <ele>442.82</ele>
        <time>2021-08-16T11:45:08Z</time>
      </trkpt>
      <trkpt lat="44.97846" lon="2.06365">
        <ele>442.82</ele>
        <time>2021-08-16T11:45:09Z</time>
      </trkpt>
      <trkpt lat="44.97843" lon="2.06366">
        <ele>442.82</ele>
        <time>2021-08-16T11:45:10Z</time>
      </trkpt>
      <trkpt lat="44.9784" lon="2.06366">
        <ele>442.82</ele>
        <time>2021-08-16T11:45:11Z</time>
      </trkpt>
      <trkpt lat="44.97837" lon="2.06366">
        <ele>442.82</ele>
        <time>2021-08-16T11:45:12Z</time>
      </trkpt>
      <trkpt lat="44.97833" lon="2.06365">
        <ele>442.82</ele>
        <time>2021-08-16T11:45:13Z</time>
      </trkpt>
      <trkpt lat="44.97814" lon="2.06374">
        <ele>442.82</ele>
        <time>2021-08-16T11:45:20Z</time>
      </trkpt>
      <trkpt lat="44.97796" lon="2.06384">
        <ele>442.34</ele>
        <time>2021-08-16T11:45:26Z</time>
      </trkpt>
      <trkpt lat="44.97793" lon="2.06383">
        <ele>442.34</ele>
        <time>2021-08-16T11:45:27Z</time>
      </trkpt>
      <trkpt lat="44.9779" lon="2.06381">
        <ele>442.34</ele>
        <time>2021-08-16T11:45:28Z</time>
      </trkpt>
      <trkpt lat="44.97782" lon="2.06372">
        <ele>442.34</ele>
        <time>2021-08-16T11:45:31Z</time>
      </trkpt>
      <trkpt lat="44.97781" lon="2.06369">
        <ele>442.34</ele>
        <time>2021-08-16T11:45:32Z</time>
      </trkpt>
      <trkpt lat="44.97779" lon="2.06367">
        <ele>442.34</ele>
        <time>2021-08-16T11:45:33Z</time>
      </trkpt>
      <trkpt lat="44.97778" lon="2.06365">
        <ele>442.34</ele>
        <time>2021-08-16T11:45:34Z</time>
      </trkpt>
      <trkpt lat="44.97778" lon="2.06362">
        <ele>442.34</ele>
        <time>2021-08-16T11:45:35Z</time>
      </trkpt>
      <trkpt lat="44.9778" lon="2.06359">
        <ele>442.34</ele>
        <time>2021-08-16T11:45:36Z</time>
      </trkpt>
      <trkpt lat="44.97782" lon="2.06354">
        <ele>442.34</ele>
        <time>2021-08-16T11:45:37Z</time>
      </trkpt>
      <trkpt lat="44.97783" lon="2.06348">
        <ele>442.34</ele>
        <time>2021-08-16T11:45:38Z</time>
      </trkpt>
      <trkpt lat="44.97783" lon="2.06345">
        <ele>442.34</ele>
        <time>2021-08-16T11:45:39Z</time>
      </trkpt>
      <trkpt lat="44.97778" lon="2.06331">
        <ele>442.34</ele>
        <time>2021-08-16T11:45:43Z</time>
      </trkpt>
      <trkpt lat="44.97778" lon="2.06326">
        <ele>442.34</ele>
        <time>2021-08-16T11:45:44Z</time>
      </trkpt>
      <trkpt lat="44.97778" lon="2.06323">
        <ele>442.34</ele>
        <time>2021-08-16T11:45:45Z</time>
      </trkpt>
      <trkpt lat="44.97782" lon="2.06287">
        <ele>442.34</ele>
        <time>2021-08-16T11:45:53Z</time>
      </trkpt>
      <trkpt lat="44.97776" lon="2.06264">
        <ele>442.34</ele>
        <time>2021-08-16T11:45:58Z</time>
      </trkpt>
      <trkpt lat="44.97763" lon="2.06253">
        <ele>442.34</ele>
        <time>2021-08-16T11:46:03Z</time>
      </trkpt>
      <trkpt lat="44.97762" lon="2.0625">
        <ele>442.34</ele>
        <time>2021-08-16T11:46:04Z</time>
      </trkpt>
      <trkpt lat="44.97762" lon="2.06247">
        <ele>442.34</ele>
        <time>2021-08-16T11:46:05Z</time>
      </trkpt>
      <trkpt lat="44.97761" lon="2.06244">
        <ele>442.34</ele>
        <time>2021-08-16T11:46:06Z</time>
      </trkpt>
      <trkpt lat="44.9776" lon="2.06241">
        <ele>442.34</ele>
        <time>2021-08-16T11:46:07Z</time>
      </trkpt>
      <trkpt lat="44.9776" lon="2.06237">
        <ele>442.34</ele>
        <time>2021-08-16T11:46:08Z</time>
      </trkpt>
      <trkpt lat="44.97766" lon="2.06216">
        <ele>441.86</ele>
        <time>2021-08-16T11:46:13Z</time>
      </trkpt>
      <trkpt lat="44.97764" lon="2.06209">
        <ele>441.86</ele>
        <time>2021-08-16T11:46:15Z</time>
      </trkpt>
      <trkpt lat="44.97762" lon="2.06206">
        <ele>441.86</ele>
        <time>2021-08-16T11:46:16Z</time>
      </trkpt>
      <trkpt lat="44.97761" lon="2.06203">
        <ele>441.86</ele>
        <time>2021-08-16T11:46:17Z</time>
      </trkpt>
      <trkpt lat="44.9776" lon="2.062">
        <ele>441.86</ele>
        <time>2021-08-16T11:46:18Z</time>
      </trkpt>
      <trkpt lat="44.97759" lon="2.06196">
        <ele>441.86</ele>
        <time>2021-08-16T11:46:19Z</time>
      </trkpt>
      <trkpt lat="44.97758" lon="2.06191">
        <ele>441.86</ele>
        <time>2021-08-16T11:46:20Z</time>
      </trkpt>
      <trkpt lat="44.97756" lon="2.06182">
        <ele>441.86</ele>
        <time>2021-08-16T11:46:22Z</time>
      </trkpt>
      <trkpt lat="44.97741" lon="2.06169">
        <ele>441.86</ele>
        <time>2021-08-16T11:46:27Z</time>
      </trkpt>
      <trkpt lat="44.97737" lon="2.06169">
        <ele>441.86</ele>
        <time>2021-08-16T11:46:28Z</time>
      </trkpt>
      <trkpt lat="44.97731" lon="2.06166">
        <ele>441.86</ele>
        <time>2021-08-16T11:46:30Z</time>
      </trkpt>
      <trkpt lat="44.97729" lon="2.06162">
        <ele>441.86</ele>
        <time>2021-08-16T11:46:31Z</time>
      </trkpt>
      <trkpt lat="44.97728" lon="2.06158">
        <ele>441.86</ele>
        <time>2021-08-16T11:46:32Z</time>
      </trkpt>
      <trkpt lat="44.97727" lon="2.0615">
        <ele>441.38</ele>
        <time>2021-08-16T11:46:34Z</time>
      </trkpt>
      <trkpt lat="44.97731" lon="2.06134">
        <ele>440.9</ele>
        <time>2021-08-16T11:46:38Z</time>
      </trkpt>
      <trkpt lat="44.97733" lon="2.06133">
        <ele>440.9</ele>
        <time>2021-08-16T11:46:39Z</time>
      </trkpt>
      <trkpt lat="44.97735" lon="2.06133">
        <ele>440.9</ele>
        <time>2021-08-16T11:46:40Z</time>
      </trkpt>
      <trkpt lat="44.97736" lon="2.06134">
        <ele>440.9</ele>
        <time>2021-08-16T11:46:41Z</time>
      </trkpt>
      <trkpt lat="44.97738" lon="2.06135">
        <ele>440.9</ele>
        <time>2021-08-16T11:46:42Z</time>
      </trkpt>
      <trkpt lat="44.97739" lon="2.06136">
        <ele>440.9</ele>
        <time>2021-08-16T11:46:43Z</time>
      </trkpt>
      <trkpt lat="44.97753" lon="2.06142">
        <ele>440.9</ele>
        <time>2021-08-16T11:46:50Z</time>
      </trkpt>
      <trkpt lat="44.97755" lon="2.06142">
        <ele>440.9</ele>
        <time>2021-08-16T11:46:58Z</time>
      </trkpt>
      <trkpt lat="44.97757" lon="2.06143">
        <ele>440.42</ele>
        <time>2021-08-16T11:47:15Z</time>
      </trkpt>
      <trkpt lat="44.97761" lon="2.06143">
        <ele>440.42</ele>
        <time>2021-08-16T11:47:18Z</time>
      </trkpt>
      <trkpt lat="44.97764" lon="2.06143">
        <ele>440.42</ele>
        <time>2021-08-16T11:47:19Z</time>
      </trkpt>
      <trkpt lat="44.97781" lon="2.06139">
        <ele>440.42</ele>
        <time>2021-08-16T11:47:26Z</time>
      </trkpt>
      <trkpt lat="44.97802" lon="2.06132">
        <ele>440.42</ele>
        <time>2021-08-16T11:47:33Z</time>
      </trkpt>
      <trkpt lat="44.97827" lon="2.06122">
        <ele>440.42</ele>
        <time>2021-08-16T11:47:41Z</time>
      </trkpt>
      <trkpt lat="44.97841" lon="2.06111">
        <ele>440.42</ele>
        <time>2021-08-16T11:47:46Z</time>
      </trkpt>
      <trkpt lat="44.97858" lon="2.06088">
        <ele>440.42</ele>
        <time>2021-08-16T11:47:52Z</time>
      </trkpt>
      <trkpt lat="44.9786" lon="2.06084">
        <ele>440.42</ele>
        <time>2021-08-16T11:47:53Z</time>
      </trkpt>
      <trkpt lat="44.97863" lon="2.06082">
        <ele>440.42</ele>
        <time>2021-08-16T11:47:54Z</time>
      </trkpt>
      <trkpt lat="44.97866" lon="2.06079">
        <ele>440.42</ele>
        <time>2021-08-16T11:47:55Z</time>
      </trkpt>
      <trkpt lat="44.97885" lon="2.06051">
        <ele>440.42</ele>
        <time>2021-08-16T11:48:02Z</time>
      </trkpt>
      <trkpt lat="44.97897" lon="2.0602">
        <ele>440.42</ele>
        <time>2021-08-16T11:48:08Z</time>
      </trkpt>
      <trkpt lat="44.97899" lon="2.05997">
        <ele>440.42</ele>
        <time>2021-08-16T11:48:12Z</time>
      </trkpt>
      <trkpt lat="44.979" lon="2.05992">
        <ele>440.42</ele>
        <time>2021-08-16T11:48:13Z</time>
      </trkpt>
      <trkpt lat="44.97907" lon="2.05956">
        <ele>440.42</ele>
        <time>2021-08-16T11:48:20Z</time>
      </trkpt>
      <trkpt lat="44.97909" lon="2.05926">
        <ele>440.42</ele>
        <time>2021-08-16T11:48:27Z</time>
      </trkpt>
      <trkpt lat="44.97913" lon="2.05902">
        <ele>440.42</ele>
        <time>2021-08-16T11:48:33Z</time>
      </trkpt>
      <trkpt lat="44.97919" lon="2.05874">
        <ele>440.42</ele>
        <time>2021-08-16T11:48:40Z</time>
      </trkpt>
      <trkpt lat="44.9792" lon="2.05863">
        <ele>440.42</ele>
        <time>2021-08-16T11:48:42Z</time>
      </trkpt>
      <trkpt lat="44.9792" lon="2.05858">
        <ele>440.42</ele>
        <time>2021-08-16T11:48:43Z</time>
      </trkpt>
      <trkpt lat="44.97919" lon="2.05854">
        <ele>440.42</ele>
        <time>2021-08-16T11:48:44Z</time>
      </trkpt>
      <trkpt lat="44.97918" lon="2.0585">
        <ele>440.42</ele>
        <time>2021-08-16T11:48:45Z</time>
      </trkpt>
      <trkpt lat="44.97916" lon="2.05846">
        <ele>440.42</ele>
        <time>2021-08-16T11:48:46Z</time>
      </trkpt>
      <trkpt lat="44.97913" lon="2.05843">
        <ele>440.42</ele>
        <time>2021-08-16T11:48:47Z</time>
      </trkpt>
      <trkpt lat="44.97899" lon="2.05823">
        <ele>439.94</ele>
        <time>2021-08-16T11:48:53Z</time>
      </trkpt>
      <trkpt lat="44.97894" lon="2.05815">
        <ele>439.94</ele>
        <time>2021-08-16T11:48:57Z</time>
      </trkpt>
      <trkpt lat="44.97891" lon="2.05805">
        <ele>441.38</ele>
        <time>2021-08-16T11:49:00Z</time>
      </trkpt>
      <trkpt lat="44.9789" lon="2.05797">
        <ele>441.38</ele>
        <time>2021-08-16T11:49:02Z</time>
      </trkpt>
      <trkpt lat="44.9789" lon="2.05793">
        <ele>441.38</ele>
        <time>2021-08-16T11:49:03Z</time>
      </trkpt>
      <trkpt lat="44.9789" lon="2.05789">
        <ele>441.38</ele>
        <time>2021-08-16T11:49:04Z</time>
      </trkpt>
      <trkpt lat="44.9789" lon="2.05785">
        <ele>441.38</ele>
        <time>2021-08-16T11:49:05Z</time>
      </trkpt>
      <trkpt lat="44.9789" lon="2.0578">
        <ele>441.38</ele>
        <time>2021-08-16T11:49:06Z</time>
      </trkpt>
      <trkpt lat="44.97889" lon="2.05775">
        <ele>441.38</ele>
        <time>2021-08-16T11:49:07Z</time>
      </trkpt>
      <trkpt lat="44.97889" lon="2.05771">
        <ele>441.38</ele>
        <time>2021-08-16T11:49:08Z</time>
      </trkpt>
      <trkpt lat="44.97889" lon="2.05767">
        <ele>441.38</ele>
        <time>2021-08-16T11:49:09Z</time>
      </trkpt>
      <trkpt lat="44.97889" lon="2.05763">
        <ele>441.38</ele>
        <time>2021-08-16T11:49:10Z</time>
      </trkpt>
      <trkpt lat="44.97888" lon="2.05759">
        <ele>441.38</ele>
        <time>2021-08-16T11:49:11Z</time>
      </trkpt>
      <trkpt lat="44.97887" lon="2.05757">
        <ele>441.38</ele>
        <time>2021-08-16T11:49:12Z</time>
      </trkpt>
      <trkpt lat="44.97879" lon="2.05744">
        <ele>441.38</ele>
        <time>2021-08-16T11:49:19Z</time>
      </trkpt>
      <trkpt lat="44.97871" lon="2.05725">
        <ele>441.38</ele>
        <time>2021-08-16T11:49:25Z</time>
      </trkpt>
      <trkpt lat="44.9787" lon="2.05708">
        <ele>441.38</ele>
        <time>2021-08-16T11:49:30Z</time>
      </trkpt>
      <trkpt lat="44.9787" lon="2.05699">
        <ele>440.9</ele>
        <time>2021-08-16T11:49:35Z</time>
      </trkpt>
      <trkpt lat="44.9787" lon="2.05698">
        <ele>440.9</ele>
        <time>2021-08-16T11:49:36Z</time>
      </trkpt>
      <trkpt lat="44.9787" lon="2.05694">
        <ele>440.9</ele>
        <time>2021-08-16T11:49:38Z</time>
      </trkpt>
      <trkpt lat="44.97869" lon="2.05692">
        <ele>440.9</ele>
        <time>2021-08-16T11:49:39Z</time>
      </trkpt>
      <trkpt lat="44.97867" lon="2.0569">
        <ele>440.9</ele>
        <time>2021-08-16T11:49:40Z</time>
      </trkpt>
      <trkpt lat="44.97852" lon="2.05675">
        <ele>440.9</ele>
        <time>2021-08-16T11:49:47Z</time>
      </trkpt>
      <trkpt lat="44.97834" lon="2.05673">
        <ele>440.9</ele>
        <time>2021-08-16T11:49:53Z</time>
      </trkpt>
      <trkpt lat="44.97813" lon="2.05655">
        <ele>440.9</ele>
        <time>2021-08-16T11:50:01Z</time>
      </trkpt>
      <trkpt lat="44.97799" lon="2.0564">
        <ele>440.9</ele>
        <time>2021-08-16T11:50:07Z</time>
      </trkpt>
      <trkpt lat="44.97782" lon="2.05619">
        <ele>440.9</ele>
        <time>2021-08-16T11:50:14Z</time>
      </trkpt>
      <trkpt lat="44.97772" lon="2.05605">
        <ele>440.42</ele>
        <time>2021-08-16T11:50:19Z</time>
      </trkpt>
      <trkpt lat="44.97754" lon="2.05585">
        <ele>440.42</ele>
        <time>2021-08-16T11:50:26Z</time>
      </trkpt>
      <trkpt lat="44.97744" lon="2.0556">
        <ele>440.42</ele>
        <time>2021-08-16T11:50:31Z</time>
      </trkpt>
      <trkpt lat="44.9773" lon="2.05518">
        <ele>440.42</ele>
        <time>2021-08-16T11:50:40Z</time>
      </trkpt>
      <trkpt lat="44.97716" lon="2.05491">
        <ele>439.94</ele>
        <time>2021-08-16T11:50:48Z</time>
      </trkpt>
      <trkpt lat="44.97705" lon="2.05477">
        <ele>439.94</ele>
        <time>2021-08-16T11:50:53Z</time>
      </trkpt>
      <trkpt lat="44.97687" lon="2.05462">
        <ele>439.94</ele>
        <time>2021-08-16T11:51:00Z</time>
      </trkpt>
      <trkpt lat="44.97684" lon="2.05459">
        <ele>439.94</ele>
        <time>2021-08-16T11:51:01Z</time>
      </trkpt>
      <trkpt lat="44.97681" lon="2.05456">
        <ele>439.94</ele>
        <time>2021-08-16T11:51:02Z</time>
      </trkpt>
      <trkpt lat="44.9768" lon="2.05453">
        <ele>439.94</ele>
        <time>2021-08-16T11:51:03Z</time>
      </trkpt>
      <trkpt lat="44.97678" lon="2.0545">
        <ele>439.94</ele>
        <time>2021-08-16T11:51:04Z</time>
      </trkpt>
      <trkpt lat="44.97677" lon="2.05447">
        <ele>439.46</ele>
        <time>2021-08-16T11:51:05Z</time>
      </trkpt>
      <trkpt lat="44.97677" lon="2.05444">
        <ele>439.46</ele>
        <time>2021-08-16T11:51:06Z</time>
      </trkpt>
      <trkpt lat="44.97678" lon="2.05441">
        <ele>439.46</ele>
        <time>2021-08-16T11:51:07Z</time>
      </trkpt>
      <trkpt lat="44.97679" lon="2.05438">
        <ele>439.46</ele>
        <time>2021-08-16T11:51:08Z</time>
      </trkpt>
      <trkpt lat="44.9768" lon="2.05436">
        <ele>439.46</ele>
        <time>2021-08-16T11:51:09Z</time>
      </trkpt>
      <trkpt lat="44.97682" lon="2.05434">
        <ele>439.46</ele>
        <time>2021-08-16T11:51:10Z</time>
      </trkpt>
      <trkpt lat="44.97694" lon="2.05417">
        <ele>439.46</ele>
        <time>2021-08-16T11:51:17Z</time>
      </trkpt>
      <trkpt lat="44.97703" lon="2.05406">
        <ele>439.46</ele>
        <time>2021-08-16T11:51:22Z</time>
      </trkpt>
      <trkpt lat="44.97705" lon="2.05406">
        <ele>439.46</ele>
        <time>2021-08-16T11:51:23Z</time>
      </trkpt>
      <trkpt lat="44.97717" lon="2.05408">
        <ele>439.46</ele>
        <time>2021-08-16T11:51:28Z</time>
      </trkpt>
      <trkpt lat="44.97732" lon="2.05405">
        <ele>438.98</ele>
        <time>2021-08-16T11:51:33Z</time>
      </trkpt>
      <trkpt lat="44.9775" lon="2.05395">
        <ele>438.98</ele>
        <time>2021-08-16T11:51:40Z</time>
      </trkpt>
      <trkpt lat="44.97766" lon="2.05393">
        <ele>438.98</ele>
        <time>2021-08-16T11:51:45Z</time>
      </trkpt>
      <trkpt lat="44.97768" lon="2.05394">
        <ele>438.98</ele>
        <time>2021-08-16T11:51:46Z</time>
      </trkpt>
      <trkpt lat="44.97779" lon="2.05396">
        <ele>438.98</ele>
        <time>2021-08-16T11:51:50Z</time>
      </trkpt>
      <trkpt lat="44.97782" lon="2.05393">
        <ele>438.98</ele>
        <time>2021-08-16T11:51:51Z</time>
      </trkpt>
      <trkpt lat="44.97785" lon="2.0539">
        <ele>438.98</ele>
        <time>2021-08-16T11:51:52Z</time>
      </trkpt>
      <trkpt lat="44.97787" lon="2.05386">
        <ele>438.98</ele>
        <time>2021-08-16T11:51:53Z</time>
      </trkpt>
      <trkpt lat="44.97789" lon="2.05382">
        <ele>437.54</ele>
        <time>2021-08-16T11:51:54Z</time>
      </trkpt>
      <trkpt lat="44.97792" lon="2.05378">
        <ele>437.54</ele>
        <time>2021-08-16T11:51:55Z</time>
      </trkpt>
      <trkpt lat="44.97808" lon="2.05363">
        <ele>437.54</ele>
        <time>2021-08-16T11:52:01Z</time>
      </trkpt>
      <trkpt lat="44.97829" lon="2.05339">
        <ele>437.06</ele>
        <time>2021-08-16T11:52:08Z</time>
      </trkpt>
      <trkpt lat="44.97843" lon="2.05319">
        <ele>437.06</ele>
        <time>2021-08-16T11:52:14Z</time>
      </trkpt>
      <trkpt lat="44.9786" lon="2.05309">
        <ele>437.06</ele>
        <time>2021-08-16T11:52:20Z</time>
      </trkpt>
      <trkpt lat="44.97876" lon="2.05295">
        <ele>437.06</ele>
        <time>2021-08-16T11:52:26Z</time>
      </trkpt>
      <trkpt lat="44.97892" lon="2.05272">
        <ele>436.58</ele>
        <time>2021-08-16T11:52:33Z</time>
      </trkpt>
      <trkpt lat="44.97898" lon="2.05249">
        <ele>436.58</ele>
        <time>2021-08-16T11:52:38Z</time>
      </trkpt>
      <trkpt lat="44.97909" lon="2.05227">
        <ele>436.58</ele>
        <time>2021-08-16T11:52:43Z</time>
      </trkpt>
      <trkpt lat="44.9792" lon="2.05203">
        <ele>436.58</ele>
        <time>2021-08-16T11:52:49Z</time>
      </trkpt>
      <trkpt lat="44.97925" lon="2.05183">
        <ele>436.58</ele>
        <time>2021-08-16T11:52:54Z</time>
      </trkpt>
      <trkpt lat="44.97932" lon="2.0516">
        <ele>436.58</ele>
        <time>2021-08-16T11:53:00Z</time>
      </trkpt>
      <trkpt lat="44.97935" lon="2.05159">
        <ele>436.58</ele>
        <time>2021-08-16T11:53:01Z</time>
      </trkpt>
      <trkpt lat="44.97937" lon="2.05158">
        <ele>436.58</ele>
        <time>2021-08-16T11:53:02Z</time>
      </trkpt>
      <trkpt lat="44.9794" lon="2.05157">
        <ele>436.58</ele>
        <time>2021-08-16T11:53:03Z</time>
      </trkpt>
      <trkpt lat="44.97943" lon="2.05156">
        <ele>436.58</ele>
        <time>2021-08-16T11:53:04Z</time>
      </trkpt>
      <trkpt lat="44.97946" lon="2.05154">
        <ele>436.58</ele>
        <time>2021-08-16T11:53:05Z</time>
      </trkpt>
      <trkpt lat="44.97949" lon="2.05151">
        <ele>436.58</ele>
        <time>2021-08-16T11:53:06Z</time>
      </trkpt>
      <trkpt lat="44.97951" lon="2.05148">
        <ele>436.58</ele>
        <time>2021-08-16T11:53:07Z</time>
      </trkpt>
      <trkpt lat="44.97954" lon="2.05145">
        <ele>436.58</ele>
        <time>2021-08-16T11:53:08Z</time>
      </trkpt>
      <trkpt lat="44.97956" lon="2.05142">
        <ele>436.58</ele>
        <time>2021-08-16T11:53:09Z</time>
      </trkpt>
      <trkpt lat="44.97957" lon="2.05139">
        <ele>436.58</ele>
        <time>2021-08-16T11:53:10Z</time>
      </trkpt>
      <trkpt lat="44.97959" lon="2.05136">
        <ele>436.58</ele>
        <time>2021-08-16T11:53:11Z</time>
      </trkpt>
      <trkpt lat="44.97962" lon="2.05132">
        <ele>436.58</ele>
        <time>2021-08-16T11:53:12Z</time>
      </trkpt>
      <trkpt lat="44.97975" lon="2.05106">
        <ele>436.58</ele>
        <time>2021-08-16T11:53:19Z</time>
      </trkpt>
      <trkpt lat="44.97988" lon="2.05089">
        <ele>436.58</ele>
        <time>2021-08-16T11:53:25Z</time>
      </trkpt>
      <trkpt lat="44.98013" lon="2.05069">
        <ele>436.58</ele>
        <time>2021-08-16T11:53:33Z</time>
      </trkpt>
      <trkpt lat="44.98031" lon="2.05041">
        <ele>436.58</ele>
        <time>2021-08-16T11:53:40Z</time>
      </trkpt>
      <trkpt lat="44.9804" lon="2.05019">
        <ele>436.1</ele>
        <time>2021-08-16T11:53:45Z</time>
      </trkpt>
      <trkpt lat="44.9805" lon="2.05007">
        <ele>436.1</ele>
        <time>2021-08-16T11:53:50Z</time>
      </trkpt>
      <trkpt lat="44.98053" lon="2.05006">
        <ele>436.1</ele>
        <time>2021-08-16T11:53:51Z</time>
      </trkpt>
      <trkpt lat="44.98056" lon="2.05006">
        <ele>436.1</ele>
        <time>2021-08-16T11:53:52Z</time>
      </trkpt>
      <trkpt lat="44.98059" lon="2.05006">
        <ele>436.1</ele>
        <time>2021-08-16T11:53:53Z</time>
      </trkpt>
      <trkpt lat="44.98071" lon="2.04999">
        <ele>436.1</ele>
        <time>2021-08-16T11:53:58Z</time>
      </trkpt>
      <trkpt lat="44.98077" lon="2.04985">
        <ele>436.1</ele>
        <time>2021-08-16T11:54:03Z</time>
      </trkpt>
      <trkpt lat="44.98086" lon="2.04966">
        <ele>436.1</ele>
        <time>2021-08-16T11:54:08Z</time>
      </trkpt>
      <trkpt lat="44.98105" lon="2.04942">
        <ele>436.1</ele>
        <time>2021-08-16T11:54:15Z</time>
      </trkpt>
      <trkpt lat="44.98126" lon="2.04917">
        <ele>436.1</ele>
        <time>2021-08-16T11:54:22Z</time>
      </trkpt>
      <trkpt lat="44.9815" lon="2.04903">
        <ele>436.1</ele>
        <time>2021-08-16T11:54:29Z</time>
      </trkpt>
      <trkpt lat="44.98175" lon="2.04883">
        <ele>436.1</ele>
        <time>2021-08-16T11:54:37Z</time>
      </trkpt>
      <trkpt lat="44.98205" lon="2.04865">
        <ele>436.1</ele>
        <time>2021-08-16T11:54:47Z</time>
      </trkpt>
      <trkpt lat="44.98232" lon="2.04853">
        <ele>436.58</ele>
        <time>2021-08-16T11:54:55Z</time>
      </trkpt>
      <trkpt lat="44.98254" lon="2.04835">
        <ele>436.58</ele>
        <time>2021-08-16T11:55:01Z</time>
      </trkpt>
      <trkpt lat="44.98258" lon="2.04833">
        <ele>436.58</ele>
        <time>2021-08-16T11:55:02Z</time>
      </trkpt>
      <trkpt lat="44.98261" lon="2.04832">
        <ele>436.58</ele>
        <time>2021-08-16T11:55:03Z</time>
      </trkpt>
      <trkpt lat="44.98266" lon="2.04831">
        <ele>436.58</ele>
        <time>2021-08-16T11:55:04Z</time>
      </trkpt>
      <trkpt lat="44.9827" lon="2.04831">
        <ele>436.58</ele>
        <time>2021-08-16T11:55:05Z</time>
      </trkpt>
      <trkpt lat="44.98289" lon="2.04826">
        <ele>436.58</ele>
        <time>2021-08-16T11:55:10Z</time>
      </trkpt>
      <trkpt lat="44.98295" lon="2.04818">
        <ele>436.58</ele>
        <time>2021-08-16T11:55:12Z</time>
      </trkpt>
      <trkpt lat="44.98298" lon="2.04812">
        <ele>436.58</ele>
        <time>2021-08-16T11:55:13Z</time>
      </trkpt>
      <trkpt lat="44.98311" lon="2.04796">
        <ele>436.58</ele>
        <time>2021-08-16T11:55:18Z</time>
      </trkpt>
      <trkpt lat="44.98326" lon="2.0478">
        <ele>436.58</ele>
        <time>2021-08-16T11:55:23Z</time>
      </trkpt>
      <trkpt lat="44.98332" lon="2.04774">
        <ele>436.58</ele>
        <time>2021-08-16T11:55:25Z</time>
      </trkpt>
      <trkpt lat="44.98335" lon="2.04773">
        <ele>436.58</ele>
        <time>2021-08-16T11:55:26Z</time>
      </trkpt>
      <trkpt lat="44.98355" lon="2.04767">
        <ele>438.02</ele>
        <time>2021-08-16T11:55:33Z</time>
      </trkpt>
      <trkpt lat="44.98357" lon="2.04767">
        <ele>438.02</ele>
        <time>2021-08-16T11:55:34Z</time>
      </trkpt>
      <trkpt lat="44.98365" lon="2.04763">
        <ele>438.02</ele>
        <time>2021-08-16T11:55:41Z</time>
      </trkpt>
      <trkpt lat="44.98377" lon="2.04768">
        <ele>438.02</ele>
        <time>2021-08-16T11:55:46Z</time>
      </trkpt>
      <trkpt lat="44.98382" lon="2.04769">
        <ele>438.02</ele>
        <time>2021-08-16T11:55:48Z</time>
      </trkpt>
      <trkpt lat="44.98384" lon="2.04769">
        <ele>438.02</ele>
        <time>2021-08-16T11:55:49Z</time>
      </trkpt>
      <trkpt lat="44.98387" lon="2.0477">
        <ele>438.02</ele>
        <time>2021-08-16T11:55:50Z</time>
      </trkpt>
      <trkpt lat="44.9839" lon="2.04769">
        <ele>438.02</ele>
        <time>2021-08-16T11:55:51Z</time>
      </trkpt>
      <trkpt lat="44.98392" lon="2.0477">
        <ele>438.02</ele>
        <time>2021-08-16T11:55:52Z</time>
      </trkpt>
      <trkpt lat="44.98394" lon="2.0477">
        <ele>438.02</ele>
        <time>2021-08-16T11:55:53Z</time>
      </trkpt>
      <trkpt lat="44.98396" lon="2.0477">
        <ele>438.02</ele>
        <time>2021-08-16T11:55:54Z</time>
      </trkpt>
      <trkpt lat="44.98398" lon="2.04769">
        <ele>438.02</ele>
        <time>2021-08-16T11:55:55Z</time>
      </trkpt>
      <trkpt lat="44.98405" lon="2.04765">
        <ele>438.02</ele>
        <time>2021-08-16T11:55:58Z</time>
      </trkpt>
      <trkpt lat="44.98406" lon="2.04763">
        <ele>438.02</ele>
        <time>2021-08-16T11:55:59Z</time>
      </trkpt>
      <trkpt lat="44.98407" lon="2.04756">
        <ele>438.02</ele>
        <time>2021-08-16T11:56:01Z</time>
      </trkpt>
      <trkpt lat="44.98408" lon="2.04754">
        <ele>438.02</ele>
        <time>2021-08-16T11:56:02Z</time>
      </trkpt>
      <trkpt lat="44.9841" lon="2.04752">
        <ele>438.02</ele>
        <time>2021-08-16T11:56:03Z</time>
      </trkpt>
      <trkpt lat="44.98412" lon="2.04751">
        <ele>438.02</ele>
        <time>2021-08-16T11:56:04Z</time>
      </trkpt>
      <trkpt lat="44.98413" lon="2.0475">
        <ele>438.02</ele>
        <time>2021-08-16T11:56:05Z</time>
      </trkpt>
      <trkpt lat="44.98415" lon="2.04748">
        <ele>438.02</ele>
        <time>2021-08-16T11:56:06Z</time>
      </trkpt>
      <trkpt lat="44.98416" lon="2.04745">
        <ele>438.02</ele>
        <time>2021-08-16T11:56:07Z</time>
      </trkpt>
      <trkpt lat="44.98417" lon="2.04743">
        <ele>438.02</ele>
        <time>2021-08-16T11:56:08Z</time>
      </trkpt>
      <trkpt lat="44.98419" lon="2.0474">
        <ele>438.02</ele>
        <time>2021-08-16T11:56:09Z</time>
      </trkpt>
      <trkpt lat="44.9842" lon="2.04737">
        <ele>438.02</ele>
        <time>2021-08-16T11:56:10Z</time>
      </trkpt>
      <trkpt lat="44.98421" lon="2.04733">
        <ele>438.02</ele>
        <time>2021-08-16T11:56:11Z</time>
      </trkpt>
      <trkpt lat="44.98422" lon="2.0473">
        <ele>438.02</ele>
        <time>2021-08-16T11:56:12Z</time>
      </trkpt>
      <trkpt lat="44.98428" lon="2.04709">
        <ele>438.5</ele>
        <time>2021-08-16T11:56:17Z</time>
      </trkpt>
      <trkpt lat="44.9843" lon="2.04707">
        <ele>438.5</ele>
        <time>2021-08-16T11:56:18Z</time>
      </trkpt>
      <trkpt lat="44.98431" lon="2.04705">
        <ele>438.5</ele>
        <time>2021-08-16T11:56:19Z</time>
      </trkpt>
      <trkpt lat="44.98433" lon="2.04703">
        <ele>438.5</ele>
        <time>2021-08-16T11:56:20Z</time>
      </trkpt>
      <trkpt lat="44.98434" lon="2.04701">
        <ele>438.5</ele>
        <time>2021-08-16T11:56:21Z</time>
      </trkpt>
      <trkpt lat="44.98434" lon="2.04698">
        <ele>438.5</ele>
        <time>2021-08-16T11:56:22Z</time>
      </trkpt>
      <trkpt lat="44.98434" lon="2.04696">
        <ele>438.5</ele>
        <time>2021-08-16T11:56:23Z</time>
      </trkpt>
      <trkpt lat="44.98435" lon="2.04692">
        <ele>438.5</ele>
        <time>2021-08-16T11:56:24Z</time>
      </trkpt>
      <trkpt lat="44.98435" lon="2.04689">
        <ele>438.5</ele>
        <time>2021-08-16T11:56:25Z</time>
      </trkpt>
      <trkpt lat="44.98437" lon="2.04687">
        <ele>438.5</ele>
        <time>2021-08-16T11:56:26Z</time>
      </trkpt>
      <trkpt lat="44.98439" lon="2.04683">
        <ele>438.5</ele>
        <time>2021-08-16T11:56:27Z</time>
      </trkpt>
      <trkpt lat="44.98441" lon="2.0468">
        <ele>438.5</ele>
        <time>2021-08-16T11:56:28Z</time>
      </trkpt>
      <trkpt lat="44.98443" lon="2.04677">
        <ele>438.5</ele>
        <time>2021-08-16T11:56:29Z</time>
      </trkpt>
      <trkpt lat="44.98445" lon="2.04673">
        <ele>438.5</ele>
        <time>2021-08-16T11:56:30Z</time>
      </trkpt>
      <trkpt lat="44.98457" lon="2.04654">
        <ele>438.5</ele>
        <time>2021-08-16T11:56:36Z</time>
      </trkpt>
      <trkpt lat="44.98461" lon="2.04649">
        <ele>438.5</ele>
        <time>2021-08-16T11:56:38Z</time>
      </trkpt>
      <trkpt lat="44.98462" lon="2.04647">
        <ele>438.5</ele>
        <time>2021-08-16T11:56:39Z</time>
      </trkpt>
      <trkpt lat="44.98468" lon="2.04643">
        <ele>438.5</ele>
        <time>2021-08-16T11:56:48Z</time>
      </trkpt>
      <trkpt lat="44.98474" lon="2.04639">
        <ele>438.5</ele>
        <time>2021-08-16T11:57:05Z</time>
      </trkpt>
      <trkpt lat="44.98478" lon="2.04637">
        <ele>438.5</ele>
        <time>2021-08-16T11:57:13Z</time>
      </trkpt>
      <trkpt lat="44.98491" lon="2.04634">
        <ele>438.5</ele>
        <time>2021-08-16T11:57:19Z</time>
      </trkpt>
      <trkpt lat="44.98493" lon="2.04631">
        <ele>438.5</ele>
        <time>2021-08-16T11:57:20Z</time>
      </trkpt>
      <trkpt lat="44.98495" lon="2.04626">
        <ele>438.5</ele>
        <time>2021-08-16T11:57:21Z</time>
      </trkpt>
      <trkpt lat="44.98496" lon="2.0462">
        <ele>438.5</ele>
        <time>2021-08-16T11:57:22Z</time>
      </trkpt>
      <trkpt lat="44.98496" lon="2.04615">
        <ele>437.54</ele>
        <time>2021-08-16T11:57:23Z</time>
      </trkpt>
      <trkpt lat="44.98498" lon="2.04597">
        <ele>437.54</ele>
        <time>2021-08-16T11:57:28Z</time>
      </trkpt>
      <trkpt lat="44.98508" lon="2.0458">
        <ele>437.54</ele>
        <time>2021-08-16T11:57:35Z</time>
      </trkpt>
      <trkpt lat="44.98519" lon="2.04569">
        <ele>437.54</ele>
        <time>2021-08-16T11:57:40Z</time>
      </trkpt>
      <trkpt lat="44.98535" lon="2.04543">
        <ele>437.54</ele>
        <time>2021-08-16T11:57:47Z</time>
      </trkpt>
      <trkpt lat="44.98549" lon="2.0452">
        <ele>437.54</ele>
        <time>2021-08-16T11:57:53Z</time>
      </trkpt>
      <trkpt lat="44.98565" lon="2.04493">
        <ele>437.06</ele>
        <time>2021-08-16T11:58:01Z</time>
      </trkpt>
      <trkpt lat="44.98577" lon="2.04477">
        <ele>436.58</ele>
        <time>2021-08-16T11:58:07Z</time>
      </trkpt>
      <trkpt lat="44.98579" lon="2.04475">
        <ele>436.58</ele>
        <time>2021-08-16T11:58:08Z</time>
      </trkpt>
      <trkpt lat="44.98581" lon="2.04473">
        <ele>437.54</ele>
        <time>2021-08-16T11:58:09Z</time>
      </trkpt>
      <trkpt lat="44.98583" lon="2.0447">
        <ele>437.54</ele>
        <time>2021-08-16T11:58:10Z</time>
      </trkpt>
      <trkpt lat="44.98585" lon="2.04467">
        <ele>437.54</ele>
        <time>2021-08-16T11:58:11Z</time>
      </trkpt>
      <trkpt lat="44.98587" lon="2.04464">
        <ele>437.54</ele>
        <time>2021-08-16T11:58:12Z</time>
      </trkpt>
      <trkpt lat="44.98588" lon="2.04462">
        <ele>437.54</ele>
        <time>2021-08-16T11:58:13Z</time>
      </trkpt>
      <trkpt lat="44.9859" lon="2.04461">
        <ele>437.54</ele>
        <time>2021-08-16T11:58:14Z</time>
      </trkpt>
      <trkpt lat="44.98592" lon="2.04459">
        <ele>437.54</ele>
        <time>2021-08-16T11:58:15Z</time>
      </trkpt>
      <trkpt lat="44.98607" lon="2.04445">
        <ele>437.54</ele>
        <time>2021-08-16T11:58:22Z</time>
      </trkpt>
      <trkpt lat="44.98621" lon="2.04429">
        <ele>438.02</ele>
        <time>2021-08-16T11:58:29Z</time>
      </trkpt>
      <trkpt lat="44.98633" lon="2.04411">
        <ele>438.5</ele>
        <time>2021-08-16T11:58:35Z</time>
      </trkpt>
      <trkpt lat="44.98634" lon="2.0439">
        <ele>438.5</ele>
        <time>2021-08-16T11:58:40Z</time>
      </trkpt>
      <trkpt lat="44.98633" lon="2.04385">
        <ele>438.5</ele>
        <time>2021-08-16T11:58:42Z</time>
      </trkpt>
      <trkpt lat="44.98631" lon="2.04383">
        <ele>438.5</ele>
        <time>2021-08-16T11:58:43Z</time>
      </trkpt>
      <trkpt lat="44.9863" lon="2.04383">
        <ele>438.5</ele>
        <time>2021-08-16T11:58:44Z</time>
      </trkpt>
      <trkpt lat="44.98627" lon="2.04383">
        <ele>438.5</ele>
        <time>2021-08-16T11:58:45Z</time>
      </trkpt>
      <trkpt lat="44.98625" lon="2.04384">
        <ele>438.5</ele>
        <time>2021-08-16T11:58:46Z</time>
      </trkpt>
      <trkpt lat="44.98622" lon="2.04385">
        <ele>438.5</ele>
        <time>2021-08-16T11:58:47Z</time>
      </trkpt>
      <trkpt lat="44.98608" lon="2.04391">
        <ele>438.5</ele>
        <time>2021-08-16T11:58:52Z</time>
      </trkpt>
      <trkpt lat="44.98586" lon="2.04396">
        <ele>438.5</ele>
        <time>2021-08-16T11:58:59Z</time>
      </trkpt>
      <trkpt lat="44.98564" lon="2.04394">
        <ele>438.5</ele>
        <time>2021-08-16T11:59:06Z</time>
      </trkpt>
      <trkpt lat="44.98545" lon="2.04398">
        <ele>438.5</ele>
        <time>2021-08-16T11:59:12Z</time>
      </trkpt>
      <trkpt lat="44.98534" lon="2.04403">
        <ele>438.5</ele>
        <time>2021-08-16T11:59:16Z</time>
      </trkpt>
      <trkpt lat="44.98531" lon="2.04401">
        <ele>438.5</ele>
        <time>2021-08-16T11:59:17Z</time>
      </trkpt>
      <trkpt lat="44.98529" lon="2.044">
        <ele>438.5</ele>
        <time>2021-08-16T11:59:18Z</time>
      </trkpt>
      <trkpt lat="44.98527" lon="2.04397">
        <ele>438.02</ele>
        <time>2021-08-16T11:59:19Z</time>
      </trkpt>
      <trkpt lat="44.98524" lon="2.04394">
        <ele>438.02</ele>
        <time>2021-08-16T11:59:20Z</time>
      </trkpt>
      <trkpt lat="44.98506" lon="2.04377">
        <ele>437.06</ele>
        <time>2021-08-16T11:59:27Z</time>
      </trkpt>
      <trkpt lat="44.98487" lon="2.04361">
        <ele>437.06</ele>
        <time>2021-08-16T11:59:34Z</time>
      </trkpt>
      <trkpt lat="44.98473" lon="2.04331">
        <ele>437.06</ele>
        <time>2021-08-16T11:59:41Z</time>
      </trkpt>
      <trkpt lat="44.9846" lon="2.04301">
        <ele>436.58</ele>
        <time>2021-08-16T11:59:48Z</time>
      </trkpt>
      <trkpt lat="44.98453" lon="2.04287">
        <ele>436.58</ele>
        <time>2021-08-16T11:59:51Z</time>
      </trkpt>
      <trkpt lat="44.98452" lon="2.04281">
        <ele>436.58</ele>
        <time>2021-08-16T11:59:52Z</time>
      </trkpt>
      <trkpt lat="44.98445" lon="2.04251">
        <ele>436.58</ele>
        <time>2021-08-16T11:59:58Z</time>
      </trkpt>
      <trkpt lat="44.98432" lon="2.04234">
        <ele>436.58</ele>
        <time>2021-08-16T12:00:03Z</time>
      </trkpt>
      <trkpt lat="44.98423" lon="2.04212">
        <ele>436.58</ele>
        <time>2021-08-16T12:00:08Z</time>
      </trkpt>
      <trkpt lat="44.98419" lon="2.04183">
        <ele>436.58</ele>
        <time>2021-08-16T12:00:14Z</time>
      </trkpt>
      <trkpt lat="44.98425" lon="2.04153">
        <ele>436.1</ele>
        <time>2021-08-16T12:00:20Z</time>
      </trkpt>
      <trkpt lat="44.98422" lon="2.04127">
        <ele>436.1</ele>
        <time>2021-08-16T12:00:25Z</time>
      </trkpt>
      <trkpt lat="44.9842" lon="2.04124">
        <ele>436.1</ele>
        <time>2021-08-16T12:00:26Z</time>
      </trkpt>
      <trkpt lat="44.98418" lon="2.04122">
        <ele>436.1</ele>
        <time>2021-08-16T12:00:27Z</time>
      </trkpt>
      <trkpt lat="44.98415" lon="2.0412">
        <ele>436.1</ele>
        <time>2021-08-16T12:00:28Z</time>
      </trkpt>
      <trkpt lat="44.98413" lon="2.04119">
        <ele>436.1</ele>
        <time>2021-08-16T12:00:29Z</time>
      </trkpt>
      <trkpt lat="44.9841" lon="2.04117">
        <ele>436.1</ele>
        <time>2021-08-16T12:00:30Z</time>
      </trkpt>
      <trkpt lat="44.98408" lon="2.04116">
        <ele>436.1</ele>
        <time>2021-08-16T12:00:31Z</time>
      </trkpt>
      <trkpt lat="44.98406" lon="2.04113">
        <ele>436.1</ele>
        <time>2021-08-16T12:00:32Z</time>
      </trkpt>
      <trkpt lat="44.98404" lon="2.04109">
        <ele>436.1</ele>
        <time>2021-08-16T12:00:33Z</time>
      </trkpt>
      <trkpt lat="44.98402" lon="2.04104">
        <ele>436.1</ele>
        <time>2021-08-16T12:00:34Z</time>
      </trkpt>
      <trkpt lat="44.984" lon="2.04099">
        <ele>436.1</ele>
        <time>2021-08-16T12:00:35Z</time>
      </trkpt>
      <trkpt lat="44.98383" lon="2.04077">
        <ele>435.61</ele>
        <time>2021-08-16T12:00:41Z</time>
      </trkpt>
      <trkpt lat="44.98365" lon="2.04052">
        <ele>435.61</ele>
        <time>2021-08-16T12:00:47Z</time>
      </trkpt>
      <trkpt lat="44.9836" lon="2.0402">
        <ele>435.61</ele>
        <time>2021-08-16T12:00:53Z</time>
      </trkpt>
      <trkpt lat="44.98369" lon="2.03989">
        <ele>435.61</ele>
        <time>2021-08-16T12:00:59Z</time>
      </trkpt>
      <trkpt lat="44.98383" lon="2.0396">
        <ele>435.13</ele>
        <time>2021-08-16T12:01:06Z</time>
      </trkpt>
      <trkpt lat="44.98398" lon="2.03941">
        <ele>435.13</ele>
        <time>2021-08-16T12:01:12Z</time>
      </trkpt>
      <trkpt lat="44.98418" lon="2.03918">
        <ele>435.13</ele>
        <time>2021-08-16T12:01:19Z</time>
      </trkpt>
      <trkpt lat="44.98437" lon="2.03885">
        <ele>435.13</ele>
        <time>2021-08-16T12:01:27Z</time>
      </trkpt>
      <trkpt lat="44.98445" lon="2.03868">
        <ele>435.13</ele>
        <time>2021-08-16T12:01:32Z</time>
      </trkpt>
      <trkpt lat="44.9845" lon="2.03842">
        <ele>435.13</ele>
        <time>2021-08-16T12:01:37Z</time>
      </trkpt>
      <trkpt lat="44.98446" lon="2.03804">
        <ele>434.65</ele>
        <time>2021-08-16T12:01:44Z</time>
      </trkpt>
      <trkpt lat="44.98434" lon="2.03795">
        <ele>434.65</ele>
        <time>2021-08-16T12:01:48Z</time>
      </trkpt>
      <trkpt lat="44.98415" lon="2.03786">
        <ele>434.65</ele>
        <time>2021-08-16T12:01:54Z</time>
      </trkpt>
      <trkpt lat="44.98395" lon="2.03781">
        <ele>434.65</ele>
        <time>2021-08-16T12:02:00Z</time>
      </trkpt>
      <trkpt lat="44.98372" lon="2.03764">
        <ele>434.17</ele>
        <time>2021-08-16T12:02:07Z</time>
      </trkpt>
      <trkpt lat="44.98366" lon="2.0374">
        <ele>434.17</ele>
        <time>2021-08-16T12:02:12Z</time>
      </trkpt>
      <trkpt lat="44.98364" lon="2.03698">
        <ele>434.17</ele>
        <time>2021-08-16T12:02:19Z</time>
      </trkpt>
      <trkpt lat="44.98368" lon="2.03663">
        <ele>434.17</ele>
        <time>2021-08-16T12:02:25Z</time>
      </trkpt>
      <trkpt lat="44.98369" lon="2.03657">
        <ele>434.17</ele>
        <time>2021-08-16T12:02:26Z</time>
      </trkpt>
      <trkpt lat="44.9837" lon="2.0365">
        <ele>434.17</ele>
        <time>2021-08-16T12:02:27Z</time>
      </trkpt>
      <trkpt lat="44.98382" lon="2.03608">
        <ele>433.69</ele>
        <time>2021-08-16T12:02:35Z</time>
      </trkpt>
      <trkpt lat="44.9839" lon="2.03586">
        <ele>433.69</ele>
        <time>2021-08-16T12:02:40Z</time>
      </trkpt>
      <trkpt lat="44.98393" lon="2.03584">
        <ele>433.69</ele>
        <time>2021-08-16T12:02:41Z</time>
      </trkpt>
      <trkpt lat="44.98396" lon="2.03582">
        <ele>433.69</ele>
        <time>2021-08-16T12:02:42Z</time>
      </trkpt>
      <trkpt lat="44.98398" lon="2.0358">
        <ele>433.69</ele>
        <time>2021-08-16T12:02:43Z</time>
      </trkpt>
      <trkpt lat="44.984" lon="2.03578">
        <ele>433.69</ele>
        <time>2021-08-16T12:02:48Z</time>
      </trkpt>
      <trkpt lat="44.98401" lon="2.03574">
        <ele>433.69</ele>
        <time>2021-08-16T12:03:07Z</time>
      </trkpt>
      <trkpt lat="44.984" lon="2.03575">
        <ele>433.21</ele>
        <time>2021-08-16T12:03:30Z</time>
      </trkpt>
      <trkpt lat="44.98404" lon="2.03569">
        <ele>433.21</ele>
        <time>2021-08-16T12:03:38Z</time>
      </trkpt>
      <trkpt lat="44.98405" lon="2.03566">
        <ele>433.21</ele>
        <time>2021-08-16T12:03:39Z</time>
      </trkpt>
      <trkpt lat="44.98407" lon="2.03564">
        <ele>433.21</ele>
        <time>2021-08-16T12:03:40Z</time>
      </trkpt>
      <trkpt lat="44.98408" lon="2.03561">
        <ele>433.21</ele>
        <time>2021-08-16T12:03:41Z</time>
      </trkpt>
      <trkpt lat="44.9841" lon="2.03557">
        <ele>433.21</ele>
        <time>2021-08-16T12:03:42Z</time>
      </trkpt>
      <trkpt lat="44.98411" lon="2.03553">
        <ele>433.21</ele>
        <time>2021-08-16T12:03:43Z</time>
      </trkpt>
      <trkpt lat="44.98416" lon="2.03529">
        <ele>433.21</ele>
        <time>2021-08-16T12:03:48Z</time>
      </trkpt>
      <trkpt lat="44.98431" lon="2.03511">
        <ele>433.21</ele>
        <time>2021-08-16T12:03:54Z</time>
      </trkpt>
      <trkpt lat="44.98446" lon="2.03494">
        <ele>434.17</ele>
        <time>2021-08-16T12:04:01Z</time>
      </trkpt>
      <trkpt lat="44.98455" lon="2.03477">
        <ele>434.17</ele>
        <time>2021-08-16T12:04:07Z</time>
      </trkpt>
      <trkpt lat="44.98458" lon="2.03438">
        <ele>434.17</ele>
        <time>2021-08-16T12:04:16Z</time>
      </trkpt>
      <trkpt lat="44.98457" lon="2.03426">
        <ele>432.25</ele>
        <time>2021-08-16T12:04:18Z</time>
      </trkpt>
      <trkpt lat="44.98457" lon="2.03419">
        <ele>431.77</ele>
        <time>2021-08-16T12:04:19Z</time>
      </trkpt>
      <trkpt lat="44.98458" lon="2.03411">
        <ele>430.81</ele>
        <time>2021-08-16T12:04:20Z</time>
      </trkpt>
      <trkpt lat="44.98461" lon="2.03404">
        <ele>430.33</ele>
        <time>2021-08-16T12:04:21Z</time>
      </trkpt>
      <trkpt lat="44.98465" lon="2.03396">
        <ele>430.33</ele>
        <time>2021-08-16T12:04:22Z</time>
      </trkpt>
      <trkpt lat="44.9847" lon="2.03388">
        <ele>429.37</ele>
        <time>2021-08-16T12:04:23Z</time>
      </trkpt>
      <trkpt lat="44.98475" lon="2.0338">
        <ele>428.4</ele>
        <time>2021-08-16T12:04:24Z</time>
      </trkpt>
      <trkpt lat="44.98491" lon="2.03352">
        <ele>424.56</ele>
        <time>2021-08-16T12:04:27Z</time>
      </trkpt>
      <trkpt lat="44.98507" lon="2.03319">
        <ele>421.19</ele>
        <time>2021-08-16T12:04:30Z</time>
      </trkpt>
      <trkpt lat="44.98526" lon="2.03287">
        <ele>418.31</ele>
        <time>2021-08-16T12:04:33Z</time>
      </trkpt>
      <trkpt lat="44.98549" lon="2.03258">
        <ele>414.95</ele>
        <time>2021-08-16T12:04:36Z</time>
      </trkpt>
      <trkpt lat="44.98574" lon="2.03229">
        <ele>412.06</ele>
        <time>2021-08-16T12:04:39Z</time>
      </trkpt>
      <trkpt lat="44.98598" lon="2.03198">
        <ele>408.7</ele>
        <time>2021-08-16T12:04:42Z</time>
      </trkpt>
      <trkpt lat="44.98631" lon="2.03157">
        <ele>404.85</ele>
        <time>2021-08-16T12:04:46Z</time>
      </trkpt>
      <trkpt lat="44.98664" lon="2.03118">
        <ele>401.97</ele>
        <time>2021-08-16T12:04:50Z</time>
      </trkpt>
      <trkpt lat="44.98672" lon="2.0311">
        <ele>401.97</ele>
        <time>2021-08-16T12:04:51Z</time>
      </trkpt>
      <trkpt lat="44.98733" lon="2.03063">
        <ele>399.57</ele>
        <time>2021-08-16T12:04:58Z</time>
      </trkpt>
      <trkpt lat="44.98757" lon="2.03043">
        <ele>398.12</ele>
        <time>2021-08-16T12:05:01Z</time>
      </trkpt>
      <trkpt lat="44.98773" lon="2.03033">
        <ele>396.68</ele>
        <time>2021-08-16T12:05:03Z</time>
      </trkpt>
      <trkpt lat="44.9878" lon="2.03025">
        <ele>395.72</ele>
        <time>2021-08-16T12:05:04Z</time>
      </trkpt>
      <trkpt lat="44.98803" lon="2.02996">
        <ele>392.36</ele>
        <time>2021-08-16T12:05:07Z</time>
      </trkpt>
      <trkpt lat="44.98824" lon="2.02969">
        <ele>389.47</ele>
        <time>2021-08-16T12:05:10Z</time>
      </trkpt>
      <trkpt lat="44.98849" lon="2.02936">
        <ele>385.15</ele>
        <time>2021-08-16T12:05:14Z</time>
      </trkpt>
      <trkpt lat="44.98868" lon="2.02911">
        <ele>383.22</ele>
        <time>2021-08-16T12:05:18Z</time>
      </trkpt>
      <trkpt lat="44.98871" lon="2.02905">
        <ele>382.26</ele>
        <time>2021-08-16T12:05:19Z</time>
      </trkpt>
      <trkpt lat="44.98871" lon="2.02899">
        <ele>382.26</ele>
        <time>2021-08-16T12:05:20Z</time>
      </trkpt>
      <trkpt lat="44.98869" lon="2.02894">
        <ele>381.78</ele>
        <time>2021-08-16T12:05:21Z</time>
      </trkpt>
      <trkpt lat="44.98865" lon="2.02893">
        <ele>381.3</ele>
        <time>2021-08-16T12:05:22Z</time>
      </trkpt>
      <trkpt lat="44.98861" lon="2.02894">
        <ele>380.34</ele>
        <time>2021-08-16T12:05:23Z</time>
      </trkpt>
      <trkpt lat="44.98858" lon="2.02898">
        <ele>379.86</ele>
        <time>2021-08-16T12:05:24Z</time>
      </trkpt>
      <trkpt lat="44.98854" lon="2.02904">
        <ele>379.38</ele>
        <time>2021-08-16T12:05:25Z</time>
      </trkpt>
      <trkpt lat="44.98847" lon="2.02916">
        <ele>377.94</ele>
        <time>2021-08-16T12:05:27Z</time>
      </trkpt>
      <trkpt lat="44.98842" lon="2.02921">
        <ele>377.45</ele>
        <time>2021-08-16T12:05:28Z</time>
      </trkpt>
      <trkpt lat="44.98838" lon="2.02925">
        <ele>376.97</ele>
        <time>2021-08-16T12:05:29Z</time>
      </trkpt>
      <trkpt lat="44.98833" lon="2.02929">
        <ele>376.01</ele>
        <time>2021-08-16T12:05:30Z</time>
      </trkpt>
      <trkpt lat="44.98828" lon="2.02932">
        <ele>375.05</ele>
        <time>2021-08-16T12:05:31Z</time>
      </trkpt>
      <trkpt lat="44.98822" lon="2.02935">
        <ele>374.57</ele>
        <time>2021-08-16T12:05:32Z</time>
      </trkpt>
      <trkpt lat="44.98816" lon="2.02936">
        <ele>373.61</ele>
        <time>2021-08-16T12:05:33Z</time>
      </trkpt>
      <trkpt lat="44.98811" lon="2.02936">
        <ele>373.13</ele>
        <time>2021-08-16T12:05:34Z</time>
      </trkpt>
      <trkpt lat="44.98805" lon="2.02936">
        <ele>372.17</ele>
        <time>2021-08-16T12:05:35Z</time>
      </trkpt>
      <trkpt lat="44.98799" lon="2.02935">
        <ele>371.69</ele>
        <time>2021-08-16T12:05:36Z</time>
      </trkpt>
      <trkpt lat="44.98793" lon="2.02933">
        <ele>371.21</ele>
        <time>2021-08-16T12:05:37Z</time>
      </trkpt>
      <trkpt lat="44.98783" lon="2.0293">
        <ele>369.28</ele>
        <time>2021-08-16T12:05:39Z</time>
      </trkpt>
      <trkpt lat="44.98778" lon="2.02931">
        <ele>369.28</ele>
        <time>2021-08-16T12:05:40Z</time>
      </trkpt>
      <trkpt lat="44.98761" lon="2.02929">
        <ele>369.28</ele>
        <time>2021-08-16T12:05:45Z</time>
      </trkpt>
      <trkpt lat="44.98749" lon="2.02923">
        <ele>368.32</ele>
        <time>2021-08-16T12:05:49Z</time>
      </trkpt>
      <trkpt lat="44.98746" lon="2.02921">
        <ele>368.32</ele>
        <time>2021-08-16T12:05:50Z</time>
      </trkpt>
      <trkpt lat="44.98744" lon="2.02919">
        <ele>368.32</ele>
        <time>2021-08-16T12:05:51Z</time>
      </trkpt>
      <trkpt lat="44.98742" lon="2.02918">
        <ele>368.32</ele>
        <time>2021-08-16T12:05:52Z</time>
      </trkpt>
      <trkpt lat="44.9874" lon="2.02917">
        <ele>369.76</ele>
        <time>2021-08-16T12:05:53Z</time>
      </trkpt>
      <trkpt lat="44.98738" lon="2.02917">
        <ele>369.76</ele>
        <time>2021-08-16T12:05:54Z</time>
      </trkpt>
      <trkpt lat="44.98737" lon="2.02917">
        <ele>369.76</ele>
        <time>2021-08-16T12:05:55Z</time>
      </trkpt>
      <trkpt lat="44.98726" lon="2.02919">
        <ele>370.24</ele>
        <time>2021-08-16T12:06:01Z</time>
      </trkpt>
      <trkpt lat="44.98724" lon="2.0292">
        <ele>370.24</ele>
        <time>2021-08-16T12:06:02Z</time>
      </trkpt>
      <trkpt lat="44.98722" lon="2.02921">
        <ele>370.24</ele>
        <time>2021-08-16T12:06:03Z</time>
      </trkpt>
      <trkpt lat="44.98711" lon="2.02925">
        <ele>370.73</ele>
        <time>2021-08-16T12:06:10Z</time>
      </trkpt>
      <trkpt lat="44.98697" lon="2.02931">
        <ele>371.69</ele>
        <time>2021-08-16T12:06:18Z</time>
      </trkpt>
      <trkpt lat="44.98685" lon="2.02935">
        <ele>372.65</ele>
        <time>2021-08-16T12:06:25Z</time>
      </trkpt>
      <trkpt lat="44.98669" lon="2.02941">
        <ele>373.13</ele>
        <time>2021-08-16T12:06:34Z</time>
      </trkpt>
      <trkpt lat="44.9866" lon="2.02944">
        <ele>373.61</ele>
        <time>2021-08-16T12:06:40Z</time>
      </trkpt>
      <trkpt lat="44.98659" lon="2.02944">
        <ele>374.09</ele>
        <time>2021-08-16T12:06:41Z</time>
      </trkpt>
      <trkpt lat="44.98658" lon="2.02944">
        <ele>374.09</ele>
        <time>2021-08-16T12:06:42Z</time>
      </trkpt>
      <trkpt lat="44.98656" lon="2.02944">
        <ele>374.09</ele>
        <time>2021-08-16T12:06:43Z</time>
      </trkpt>
      <trkpt lat="44.98655" lon="2.02945">
        <ele>374.09</ele>
        <time>2021-08-16T12:06:44Z</time>
      </trkpt>
      <trkpt lat="44.98654" lon="2.02945">
        <ele>374.57</ele>
        <time>2021-08-16T12:06:45Z</time>
      </trkpt>
      <trkpt lat="44.98653" lon="2.02945">
        <ele>374.57</ele>
        <time>2021-08-16T12:06:46Z</time>
      </trkpt>
      <trkpt lat="44.98651" lon="2.02946">
        <ele>374.57</ele>
        <time>2021-08-16T12:06:47Z</time>
      </trkpt>
      <trkpt lat="44.9865" lon="2.02946">
        <ele>374.57</ele>
        <time>2021-08-16T12:06:48Z</time>
      </trkpt>
      <trkpt lat="44.98636" lon="2.02949">
        <ele>376.01</ele>
        <time>2021-08-16T12:06:57Z</time>
      </trkpt>
      <trkpt lat="44.9863" lon="2.02949">
        <ele>376.01</ele>
        <time>2021-08-16T12:07:01Z</time>
      </trkpt>
      <trkpt lat="44.98628" lon="2.0295">
        <ele>376.49</ele>
        <time>2021-08-16T12:07:02Z</time>
      </trkpt>
      <trkpt lat="44.98626" lon="2.02951">
        <ele>376.49</ele>
        <time>2021-08-16T12:07:03Z</time>
      </trkpt>
      <trkpt lat="44.98625" lon="2.02952">
        <ele>376.49</ele>
        <time>2021-08-16T12:07:04Z</time>
      </trkpt>
      <trkpt lat="44.98623" lon="2.02953">
        <ele>376.49</ele>
        <time>2021-08-16T12:07:05Z</time>
      </trkpt>
      <trkpt lat="44.98621" lon="2.02953">
        <ele>376.49</ele>
        <time>2021-08-16T12:07:06Z</time>
      </trkpt>
      <trkpt lat="44.9862" lon="2.02954">
        <ele>376.49</ele>
        <time>2021-08-16T12:07:07Z</time>
      </trkpt>
      <trkpt lat="44.98618" lon="2.02955">
        <ele>376.97</ele>
        <time>2021-08-16T12:07:08Z</time>
      </trkpt>
      <trkpt lat="44.98617" lon="2.02954">
        <ele>376.97</ele>
        <time>2021-08-16T12:07:09Z</time>
      </trkpt>
      <trkpt lat="44.98615" lon="2.02954">
        <ele>376.97</ele>
        <time>2021-08-16T12:07:10Z</time>
      </trkpt>
      <trkpt lat="44.98613" lon="2.02955">
        <ele>376.97</ele>
        <time>2021-08-16T12:07:11Z</time>
      </trkpt>
      <trkpt lat="44.98597" lon="2.02958">
        <ele>378.42</ele>
        <time>2021-08-16T12:07:20Z</time>
      </trkpt>
      <trkpt lat="44.98583" lon="2.02964">
        <ele>378.9</ele>
        <time>2021-08-16T12:07:29Z</time>
      </trkpt>
      <trkpt lat="44.98569" lon="2.02967">
        <ele>380.34</ele>
        <time>2021-08-16T12:07:38Z</time>
      </trkpt>
      <trkpt lat="44.98553" lon="2.02971">
        <ele>381.3</ele>
        <time>2021-08-16T12:07:47Z</time>
      </trkpt>
      <trkpt lat="44.98539" lon="2.02974">
        <ele>382.26</ele>
        <time>2021-08-16T12:07:55Z</time>
      </trkpt>
      <trkpt lat="44.98525" lon="2.02977">
        <ele>382.74</ele>
        <time>2021-08-16T12:08:03Z</time>
      </trkpt>
      <trkpt lat="44.98522" lon="2.02978">
        <ele>383.22</ele>
        <time>2021-08-16T12:08:05Z</time>
      </trkpt>
      <trkpt lat="44.9852" lon="2.02979">
        <ele>383.22</ele>
        <time>2021-08-16T12:08:06Z</time>
      </trkpt>
      <trkpt lat="44.98519" lon="2.0298">
        <ele>383.22</ele>
        <time>2021-08-16T12:08:07Z</time>
      </trkpt>
      <trkpt lat="44.98517" lon="2.02981">
        <ele>383.22</ele>
        <time>2021-08-16T12:08:08Z</time>
      </trkpt>
      <trkpt lat="44.98515" lon="2.02982">
        <ele>384.18</ele>
        <time>2021-08-16T12:08:09Z</time>
      </trkpt>
      <trkpt lat="44.98504" lon="2.02988">
        <ele>384.66</ele>
        <time>2021-08-16T12:08:16Z</time>
      </trkpt>
      <trkpt lat="44.9849" lon="2.02993">
        <ele>385.63</ele>
        <time>2021-08-16T12:08:24Z</time>
      </trkpt>
      <trkpt lat="44.98487" lon="2.02995">
        <ele>386.11</ele>
        <time>2021-08-16T12:08:26Z</time>
      </trkpt>
      <trkpt lat="44.98485" lon="2.02997">
        <ele>386.11</ele>
        <time>2021-08-16T12:08:27Z</time>
      </trkpt>
      <trkpt lat="44.98484" lon="2.02998">
        <ele>386.11</ele>
        <time>2021-08-16T12:08:28Z</time>
      </trkpt>
      <trkpt lat="44.98482" lon="2.02998">
        <ele>386.11</ele>
        <time>2021-08-16T12:08:29Z</time>
      </trkpt>
      <trkpt lat="44.9848" lon="2.02999">
        <ele>386.59</ele>
        <time>2021-08-16T12:08:30Z</time>
      </trkpt>
      <trkpt lat="44.98479" lon="2.03">
        <ele>386.59</ele>
        <time>2021-08-16T12:08:31Z</time>
      </trkpt>
      <trkpt lat="44.98466" lon="2.03006">
        <ele>388.03</ele>
        <time>2021-08-16T12:08:39Z</time>
      </trkpt>
      <trkpt lat="44.98453" lon="2.03011">
        <ele>388.51</ele>
        <time>2021-08-16T12:08:46Z</time>
      </trkpt>
      <trkpt lat="44.9844" lon="2.03015">
        <ele>389.47</ele>
        <time>2021-08-16T12:08:54Z</time>
      </trkpt>
      <trkpt lat="44.98425" lon="2.0301">
        <ele>390.43</ele>
        <time>2021-08-16T12:09:02Z</time>
      </trkpt>
      <trkpt lat="44.98421" lon="2.03006">
        <ele>391.39</ele>
        <time>2021-08-16T12:09:04Z</time>
      </trkpt>
      <trkpt lat="44.98419" lon="2.03004">
        <ele>391.39</ele>
        <time>2021-08-16T12:09:05Z</time>
      </trkpt>
      <trkpt lat="44.98408" lon="2.02995">
        <ele>391.87</ele>
        <time>2021-08-16T12:09:10Z</time>
      </trkpt>
      <trkpt lat="44.98406" lon="2.02994">
        <ele>391.87</ele>
        <time>2021-08-16T12:09:11Z</time>
      </trkpt>
      <trkpt lat="44.98405" lon="2.02992">
        <ele>392.36</ele>
        <time>2021-08-16T12:09:12Z</time>
      </trkpt>
      <trkpt lat="44.98404" lon="2.02991">
        <ele>392.36</ele>
        <time>2021-08-16T12:09:13Z</time>
      </trkpt>
      <trkpt lat="44.98402" lon="2.02987">
        <ele>392.36</ele>
        <time>2021-08-16T12:09:15Z</time>
      </trkpt>
      <trkpt lat="44.98389" lon="2.02971">
        <ele>393.8</ele>
        <time>2021-08-16T12:09:24Z</time>
      </trkpt>
      <trkpt lat="44.98377" lon="2.02964">
        <ele>395.24</ele>
        <time>2021-08-16T12:09:32Z</time>
      </trkpt>
      <trkpt lat="44.98371" lon="2.02965">
        <ele>395.24</ele>
        <time>2021-08-16T12:09:40Z</time>
      </trkpt>
      <trkpt lat="44.98367" lon="2.02964">
        <ele>395.24</ele>
        <time>2021-08-16T12:09:53Z</time>
      </trkpt>
      <trkpt lat="44.98366" lon="2.02964">
        <ele>395.24</ele>
        <time>2021-08-16T12:10:04Z</time>
      </trkpt>
      <trkpt lat="44.98365" lon="2.02963">
        <ele>394.76</ele>
        <time>2021-08-16T12:10:14Z</time>
      </trkpt>
      <trkpt lat="44.98361" lon="2.02962">
        <ele>394.76</ele>
        <time>2021-08-16T12:10:18Z</time>
      </trkpt>
      <trkpt lat="44.98352" lon="2.02958">
        <ele>395.72</ele>
        <time>2021-08-16T12:10:25Z</time>
      </trkpt>
      <trkpt lat="44.9835" lon="2.02956">
        <ele>395.72</ele>
        <time>2021-08-16T12:10:27Z</time>
      </trkpt>
      <trkpt lat="44.98344" lon="2.02954">
        <ele>396.2</ele>
        <time>2021-08-16T12:10:31Z</time>
      </trkpt>
      <trkpt lat="44.9833" lon="2.02946">
        <ele>397.64</ele>
        <time>2021-08-16T12:10:40Z</time>
      </trkpt>
      <trkpt lat="44.98312" lon="2.02942">
        <ele>398.6</ele>
        <time>2021-08-16T12:10:49Z</time>
      </trkpt>
      <trkpt lat="44.98311" lon="2.02941">
        <ele>399.08</ele>
        <time>2021-08-16T12:10:50Z</time>
      </trkpt>
      <trkpt lat="44.98305" lon="2.02935">
        <ele>399.57</ele>
        <time>2021-08-16T12:10:54Z</time>
      </trkpt>
      <trkpt lat="44.98291" lon="2.02917">
        <ele>400.53</ele>
        <time>2021-08-16T12:11:03Z</time>
      </trkpt>
      <trkpt lat="44.9828" lon="2.02891">
        <ele>402.45</ele>
        <time>2021-08-16T12:11:14Z</time>
      </trkpt>
      <trkpt lat="44.98276" lon="2.02873">
        <ele>403.41</ele>
        <time>2021-08-16T12:11:21Z</time>
      </trkpt>
      <trkpt lat="44.9827" lon="2.02854">
        <ele>403.89</ele>
        <time>2021-08-16T12:11:29Z</time>
      </trkpt>
      <trkpt lat="44.98266" lon="2.02836">
        <ele>404.85</ele>
        <time>2021-08-16T12:11:37Z</time>
      </trkpt>
      <trkpt lat="44.98265" lon="2.02818">
        <ele>406.29</ele>
        <time>2021-08-16T12:11:46Z</time>
      </trkpt>
      <trkpt lat="44.98266" lon="2.02816">
        <ele>406.29</ele>
        <time>2021-08-16T12:11:47Z</time>
      </trkpt>
      <trkpt lat="44.98272" lon="2.02799">
        <ele>407.26</ele>
        <time>2021-08-16T12:11:55Z</time>
      </trkpt>
      <trkpt lat="44.98274" lon="2.02795">
        <ele>407.74</ele>
        <time>2021-08-16T12:11:57Z</time>
      </trkpt>
      <trkpt lat="44.98279" lon="2.0278">
        <ele>408.22</ele>
        <time>2021-08-16T12:12:04Z</time>
      </trkpt>
      <trkpt lat="44.98287" lon="2.02763">
        <ele>409.18</ele>
        <time>2021-08-16T12:12:11Z</time>
      </trkpt>
      <trkpt lat="44.9829" lon="2.02758">
        <ele>409.66</ele>
        <time>2021-08-16T12:12:14Z</time>
      </trkpt>
      <trkpt lat="44.98302" lon="2.02746">
        <ele>411.1</ele>
        <time>2021-08-16T12:12:23Z</time>
      </trkpt>
      <trkpt lat="44.9831" lon="2.02737">
        <ele>411.58</ele>
        <time>2021-08-16T12:12:30Z</time>
      </trkpt>
      <trkpt lat="44.98315" lon="2.02727">
        <ele>412.54</ele>
        <time>2021-08-16T12:12:35Z</time>
      </trkpt>
      <trkpt lat="44.98318" lon="2.02707">
        <ele>413.98</ele>
        <time>2021-08-16T12:12:44Z</time>
      </trkpt>
      <trkpt lat="44.98316" lon="2.02689">
        <ele>414.95</ele>
        <time>2021-08-16T12:12:52Z</time>
      </trkpt>
      <trkpt lat="44.98316" lon="2.02675">
        <ele>415.91</ele>
        <time>2021-08-16T12:12:58Z</time>
      </trkpt>
      <trkpt lat="44.98314" lon="2.02659">
        <ele>416.39</ele>
        <time>2021-08-16T12:13:05Z</time>
      </trkpt>
      <trkpt lat="44.98314" lon="2.0264">
        <ele>417.35</ele>
        <time>2021-08-16T12:13:13Z</time>
      </trkpt>
      <trkpt lat="44.98316" lon="2.02618">
        <ele>418.79</ele>
        <time>2021-08-16T12:13:21Z</time>
      </trkpt>
      <trkpt lat="44.98317" lon="2.0261">
        <ele>418.79</ele>
        <time>2021-08-16T12:13:24Z</time>
      </trkpt>
      <trkpt lat="44.9832" lon="2.02599">
        <ele>419.27</ele>
        <time>2021-08-16T12:13:28Z</time>
      </trkpt>
      <trkpt lat="44.98322" lon="2.02595">
        <ele>420.23</ele>
        <time>2021-08-16T12:13:31Z</time>
      </trkpt>
      <trkpt lat="44.98326" lon="2.02589">
        <ele>420.71</ele>
        <time>2021-08-16T12:13:35Z</time>
      </trkpt>
      <trkpt lat="44.98331" lon="2.02568">
        <ele>422.16</ele>
        <time>2021-08-16T12:13:45Z</time>
      </trkpt>
      <trkpt lat="44.98336" lon="2.02555">
        <ele>424.08</ele>
        <time>2021-08-16T12:13:54Z</time>
      </trkpt>
      <trkpt lat="44.98341" lon="2.0254">
        <ele>426</ele>
        <time>2021-08-16T12:14:04Z</time>
      </trkpt>
      <trkpt lat="44.98342" lon="2.02538">
        <ele>426</ele>
        <time>2021-08-16T12:14:05Z</time>
      </trkpt>
      <trkpt lat="44.98344" lon="2.02514">
        <ele>428.4</ele>
        <time>2021-08-16T12:14:16Z</time>
      </trkpt>
      <trkpt lat="44.98342" lon="2.02491">
        <ele>429.37</ele>
        <time>2021-08-16T12:14:25Z</time>
      </trkpt>
      <trkpt lat="44.98339" lon="2.02467">
        <ele>429.85</ele>
        <time>2021-08-16T12:14:34Z</time>
      </trkpt>
      <trkpt lat="44.98338" lon="2.02445">
        <ele>430.33</ele>
        <time>2021-08-16T12:14:42Z</time>
      </trkpt>
      <trkpt lat="44.98338" lon="2.02426">
        <ele>431.29</ele>
        <time>2021-08-16T12:14:49Z</time>
      </trkpt>
      <trkpt lat="44.9834" lon="2.02405">
        <ele>433.21</ele>
        <time>2021-08-16T12:14:57Z</time>
      </trkpt>
      <trkpt lat="44.98342" lon="2.02394">
        <ele>434.17</ele>
        <time>2021-08-16T12:15:02Z</time>
      </trkpt>
      <trkpt lat="44.98343" lon="2.0239">
        <ele>434.65</ele>
        <time>2021-08-16T12:15:04Z</time>
      </trkpt>
      <trkpt lat="44.98346" lon="2.02369">
        <ele>436.1</ele>
        <time>2021-08-16T12:15:12Z</time>
      </trkpt>
      <trkpt lat="44.98349" lon="2.02345">
        <ele>437.06</ele>
        <time>2021-08-16T12:15:20Z</time>
      </trkpt>
      <trkpt lat="44.98355" lon="2.02328">
        <ele>438.5</ele>
        <time>2021-08-16T12:15:28Z</time>
      </trkpt>
      <trkpt lat="44.98361" lon="2.02314">
        <ele>439.94</ele>
        <time>2021-08-16T12:15:36Z</time>
      </trkpt>
      <trkpt lat="44.98374" lon="2.02298">
        <ele>441.86</ele>
        <time>2021-08-16T12:15:47Z</time>
      </trkpt>
      <trkpt lat="44.98386" lon="2.02279">
        <ele>443.31</ele>
        <time>2021-08-16T12:15:56Z</time>
      </trkpt>
      <trkpt lat="44.98395" lon="2.02263">
        <ele>443.79</ele>
        <time>2021-08-16T12:16:02Z</time>
      </trkpt>
      <trkpt lat="44.98404" lon="2.0224">
        <ele>445.23</ele>
        <time>2021-08-16T12:16:10Z</time>
      </trkpt>
      <trkpt lat="44.98413" lon="2.02222">
        <ele>445.23</ele>
        <time>2021-08-16T12:16:16Z</time>
      </trkpt>
      <trkpt lat="44.9842" lon="2.02202">
        <ele>445.71</ele>
        <time>2021-08-16T12:16:23Z</time>
      </trkpt>
      <trkpt lat="44.98431" lon="2.02178">
        <ele>446.19</ele>
        <time>2021-08-16T12:16:31Z</time>
      </trkpt>
      <trkpt lat="44.98435" lon="2.02165">
        <ele>446.19</ele>
        <time>2021-08-16T12:16:35Z</time>
      </trkpt>
      <trkpt lat="44.98435" lon="2.0216">
        <ele>446.67</ele>
        <time>2021-08-16T12:16:36Z</time>
      </trkpt>
      <trkpt lat="44.98436" lon="2.02155">
        <ele>446.67</ele>
        <time>2021-08-16T12:16:37Z</time>
      </trkpt>
      <trkpt lat="44.98435" lon="2.02151">
        <ele>446.67</ele>
        <time>2021-08-16T12:16:38Z</time>
      </trkpt>
      <trkpt lat="44.98435" lon="2.02148">
        <ele>446.67</ele>
        <time>2021-08-16T12:16:39Z</time>
      </trkpt>
      <trkpt lat="44.98433" lon="2.02146">
        <ele>446.67</ele>
        <time>2021-08-16T12:16:40Z</time>
      </trkpt>
      <trkpt lat="44.98431" lon="2.02146">
        <ele>446.67</ele>
        <time>2021-08-16T12:16:41Z</time>
      </trkpt>
      <trkpt lat="44.9843" lon="2.02146">
        <ele>446.67</ele>
        <time>2021-08-16T12:16:42Z</time>
      </trkpt>
      <trkpt lat="44.98428" lon="2.02146">
        <ele>446.67</ele>
        <time>2021-08-16T12:16:43Z</time>
      </trkpt>
      <trkpt lat="44.98426" lon="2.02148">
        <ele>446.67</ele>
        <time>2021-08-16T12:16:44Z</time>
      </trkpt>
      <trkpt lat="44.98424" lon="2.02149">
        <ele>446.67</ele>
        <time>2021-08-16T12:16:45Z</time>
      </trkpt>
      <trkpt lat="44.98413" lon="2.02158">
        <ele>447.15</ele>
        <time>2021-08-16T12:16:53Z</time>
      </trkpt>
      <trkpt lat="44.98403" lon="2.02165">
        <ele>448.59</ele>
        <time>2021-08-16T12:16:59Z</time>
      </trkpt>
      <trkpt lat="44.984" lon="2.02165">
        <ele>449.55</ele>
        <time>2021-08-16T12:17:03Z</time>
      </trkpt>
      <trkpt lat="44.98402" lon="2.02165">
        <ele>450.03</ele>
        <time>2021-08-16T12:17:08Z</time>
      </trkpt>
      <trkpt lat="44.98397" lon="2.02169">
        <ele>451.48</ele>
        <time>2021-08-16T12:17:16Z</time>
      </trkpt>
      <trkpt lat="44.98391" lon="2.02172">
        <ele>452.44</ele>
        <time>2021-08-16T12:17:23Z</time>
      </trkpt>
      <trkpt lat="44.9839" lon="2.02173">
        <ele>452.92</ele>
        <time>2021-08-16T12:17:24Z</time>
      </trkpt>
      <trkpt lat="44.98378" lon="2.02177">
        <ele>453.88</ele>
        <time>2021-08-16T12:17:33Z</time>
      </trkpt>
      <trkpt lat="44.98364" lon="2.0218">
        <ele>454.84</ele>
        <time>2021-08-16T12:17:42Z</time>
      </trkpt>
      <trkpt lat="44.98348" lon="2.02178">
        <ele>455.32</ele>
        <time>2021-08-16T12:17:50Z</time>
      </trkpt>
      <trkpt lat="44.98332" lon="2.02173">
        <ele>456.28</ele>
        <time>2021-08-16T12:17:58Z</time>
      </trkpt>
      <trkpt lat="44.98319" lon="2.02167">
        <ele>456.76</ele>
        <time>2021-08-16T12:18:04Z</time>
      </trkpt>
      <trkpt lat="44.98302" lon="2.02163">
        <ele>457.24</ele>
        <time>2021-08-16T12:18:11Z</time>
      </trkpt>
      <trkpt lat="44.98287" lon="2.02165">
        <ele>457.24</ele>
        <time>2021-08-16T12:18:18Z</time>
      </trkpt>
      <trkpt lat="44.98284" lon="2.02169">
        <ele>455.8</ele>
        <time>2021-08-16T12:18:19Z</time>
      </trkpt>
      <trkpt lat="44.9828" lon="2.02173">
        <ele>455.8</ele>
        <time>2021-08-16T12:18:20Z</time>
      </trkpt>
      <trkpt lat="44.98265" lon="2.02196">
        <ele>455.32</ele>
        <time>2021-08-16T12:18:26Z</time>
      </trkpt>
      <trkpt lat="44.98253" lon="2.02198">
        <ele>458.21</ele>
        <time>2021-08-16T12:18:33Z</time>
      </trkpt>
      <trkpt lat="44.98241" lon="2.02198">
        <ele>460.13</ele>
        <time>2021-08-16T12:18:40Z</time>
      </trkpt>
      <trkpt lat="44.98232" lon="2.02196">
        <ele>461.09</ele>
        <time>2021-08-16T12:18:44Z</time>
      </trkpt>
      <trkpt lat="44.98231" lon="2.02195">
        <ele>461.09</ele>
        <time>2021-08-16T12:18:45Z</time>
      </trkpt>
      <trkpt lat="44.98228" lon="2.02195">
        <ele>461.09</ele>
        <time>2021-08-16T12:18:46Z</time>
      </trkpt>
      <trkpt lat="44.98223" lon="2.02188">
        <ele>462.05</ele>
        <time>2021-08-16T12:18:51Z</time>
      </trkpt>
      <trkpt lat="44.98223" lon="2.02187">
        <ele>462.53</ele>
        <time>2021-08-16T12:18:56Z</time>
      </trkpt>
      <trkpt lat="44.98227" lon="2.02184">
        <ele>463.97</ele>
        <time>2021-08-16T12:19:05Z</time>
      </trkpt>
      <trkpt lat="44.9823" lon="2.02181">
        <ele>465.42</ele>
        <time>2021-08-16T12:19:14Z</time>
      </trkpt>
      <trkpt lat="44.98234" lon="2.02174">
        <ele>466.38</ele>
        <time>2021-08-16T12:19:24Z</time>
      </trkpt>
      <trkpt lat="44.98236" lon="2.02166">
        <ele>468.3</ele>
        <time>2021-08-16T12:19:33Z</time>
      </trkpt>
      <trkpt lat="44.98238" lon="2.02154">
        <ele>469.74</ele>
        <time>2021-08-16T12:19:43Z</time>
      </trkpt>
      <trkpt lat="44.98239" lon="2.02146">
        <ele>471.18</ele>
        <time>2021-08-16T12:19:51Z</time>
      </trkpt>
      <trkpt lat="44.9824" lon="2.02137">
        <ele>472.14</ele>
        <time>2021-08-16T12:19:59Z</time>
      </trkpt>
      <trkpt lat="44.98239" lon="2.02131">
        <ele>472.63</ele>
        <time>2021-08-16T12:20:06Z</time>
      </trkpt>
      <trkpt lat="44.98239" lon="2.02129">
        <ele>472.63</ele>
        <time>2021-08-16T12:20:08Z</time>
      </trkpt>
      <trkpt lat="44.98237" lon="2.02111">
        <ele>473.59</ele>
        <time>2021-08-16T12:20:17Z</time>
      </trkpt>
      <trkpt lat="44.98239" lon="2.02094">
        <ele>474.55</ele>
        <time>2021-08-16T12:20:26Z</time>
      </trkpt>
      <trkpt lat="44.98242" lon="2.02086">
        <ele>475.51</ele>
        <time>2021-08-16T12:20:33Z</time>
      </trkpt>
      <trkpt lat="44.98245" lon="2.02076">
        <ele>476.95</ele>
        <time>2021-08-16T12:20:41Z</time>
      </trkpt>
      <trkpt lat="44.98245" lon="2.02065">
        <ele>477.91</ele>
        <time>2021-08-16T12:20:49Z</time>
      </trkpt>
      <trkpt lat="44.98244" lon="2.02063">
        <ele>477.91</ele>
        <time>2021-08-16T12:20:52Z</time>
      </trkpt>
      <trkpt lat="44.98235" lon="2.02051">
        <ele>478.39</ele>
        <time>2021-08-16T12:21:00Z</time>
      </trkpt>
      <trkpt lat="44.98213" lon="2.02029">
        <ele>479.84</ele>
        <time>2021-08-16T12:21:10Z</time>
      </trkpt>
      <trkpt lat="44.98208" lon="2.0201">
        <ele>480.32</ele>
        <time>2021-08-16T12:21:17Z</time>
      </trkpt>
      <trkpt lat="44.98206" lon="2.01978">
        <ele>481.28</ele>
        <time>2021-08-16T12:21:26Z</time>
      </trkpt>
      <trkpt lat="44.98205" lon="2.01945">
        <ele>481.76</ele>
        <time>2021-08-16T12:21:36Z</time>
      </trkpt>
      <trkpt lat="44.98211" lon="2.01916">
        <ele>483.2</ele>
        <time>2021-08-16T12:21:47Z</time>
      </trkpt>
      <trkpt lat="44.98218" lon="2.01893">
        <ele>484.64</ele>
        <time>2021-08-16T12:21:57Z</time>
      </trkpt>
      <trkpt lat="44.9822" lon="2.01871">
        <ele>485.6</ele>
        <time>2021-08-16T12:22:05Z</time>
      </trkpt>
      <trkpt lat="44.98213" lon="2.01847">
        <ele>485.6</ele>
        <time>2021-08-16T12:22:12Z</time>
      </trkpt>
      <trkpt lat="44.98198" lon="2.01815">
        <ele>485.6</ele>
        <time>2021-08-16T12:22:21Z</time>
      </trkpt>
      <trkpt lat="44.9818" lon="2.01788">
        <ele>486.08</ele>
        <time>2021-08-16T12:22:30Z</time>
      </trkpt>
      <trkpt lat="44.98178" lon="2.01764">
        <ele>486.56</ele>
        <time>2021-08-16T12:22:36Z</time>
      </trkpt>
      <trkpt lat="44.98183" lon="2.01731">
        <ele>486.56</ele>
        <time>2021-08-16T12:22:43Z</time>
      </trkpt>
      <trkpt lat="44.98188" lon="2.01691">
        <ele>486.56</ele>
        <time>2021-08-16T12:22:51Z</time>
      </trkpt>
      <trkpt lat="44.98178" lon="2.01664">
        <ele>486.56</ele>
        <time>2021-08-16T12:22:57Z</time>
      </trkpt>
      <trkpt lat="44.98163" lon="2.01639">
        <ele>487.05</ele>
        <time>2021-08-16T12:23:04Z</time>
      </trkpt>
      <trkpt lat="44.98146" lon="2.01615">
        <ele>487.53</ele>
        <time>2021-08-16T12:23:11Z</time>
      </trkpt>
      <trkpt lat="44.98122" lon="2.01594">
        <ele>487.53</ele>
        <time>2021-08-16T12:23:19Z</time>
      </trkpt>
      <trkpt lat="44.98115" lon="2.0157">
        <ele>488.49</ele>
        <time>2021-08-16T12:23:25Z</time>
      </trkpt>
      <trkpt lat="44.98119" lon="2.01549">
        <ele>489.93</ele>
        <time>2021-08-16T12:23:32Z</time>
      </trkpt>
      <trkpt lat="44.98121" lon="2.01525">
        <ele>489.93</ele>
        <time>2021-08-16T12:23:38Z</time>
      </trkpt>
      <trkpt lat="44.98119" lon="2.01489">
        <ele>487.53</ele>
        <time>2021-08-16T12:23:45Z</time>
      </trkpt>
      <trkpt lat="44.98117" lon="2.01482">
        <ele>486.56</ele>
        <time>2021-08-16T12:23:46Z</time>
      </trkpt>
      <trkpt lat="44.98115" lon="2.01475">
        <ele>485.6</ele>
        <time>2021-08-16T12:23:47Z</time>
      </trkpt>
      <trkpt lat="44.98111" lon="2.01468">
        <ele>485.6</ele>
        <time>2021-08-16T12:23:48Z</time>
      </trkpt>
      <trkpt lat="44.98107" lon="2.01462">
        <ele>485.12</ele>
        <time>2021-08-16T12:23:49Z</time>
      </trkpt>
      <trkpt lat="44.98102" lon="2.01458">
        <ele>485.12</ele>
        <time>2021-08-16T12:23:50Z</time>
      </trkpt>
      <trkpt lat="44.98098" lon="2.01454">
        <ele>485.12</ele>
        <time>2021-08-16T12:23:51Z</time>
      </trkpt>
      <trkpt lat="44.98094" lon="2.01449">
        <ele>485.12</ele>
        <time>2021-08-16T12:23:52Z</time>
      </trkpt>
      <trkpt lat="44.98092" lon="2.01445">
        <ele>486.08</ele>
        <time>2021-08-16T12:23:53Z</time>
      </trkpt>
      <trkpt lat="44.98088" lon="2.01432">
        <ele>487.05</ele>
        <time>2021-08-16T12:23:57Z</time>
      </trkpt>
      <trkpt lat="44.98093" lon="2.01408">
        <ele>488.01</ele>
        <time>2021-08-16T12:24:04Z</time>
      </trkpt>
      <trkpt lat="44.98105" lon="2.01377">
        <ele>488.49</ele>
        <time>2021-08-16T12:24:12Z</time>
      </trkpt>
      <trkpt lat="44.98116" lon="2.01347">
        <ele>488.49</ele>
        <time>2021-08-16T12:24:18Z</time>
      </trkpt>
      <trkpt lat="44.98119" lon="2.01341">
        <ele>486.56</ele>
        <time>2021-08-16T12:24:19Z</time>
      </trkpt>
      <trkpt lat="44.98122" lon="2.01334">
        <ele>486.56</ele>
        <time>2021-08-16T12:24:20Z</time>
      </trkpt>
      <trkpt lat="44.98126" lon="2.01327">
        <ele>485.6</ele>
        <time>2021-08-16T12:24:21Z</time>
      </trkpt>
      <trkpt lat="44.98131" lon="2.01321">
        <ele>485.6</ele>
        <time>2021-08-16T12:24:22Z</time>
      </trkpt>
      <trkpt lat="44.98135" lon="2.01316">
        <ele>485.6</ele>
        <time>2021-08-16T12:24:23Z</time>
      </trkpt>
      <trkpt lat="44.98138" lon="2.01312">
        <ele>485.6</ele>
        <time>2021-08-16T12:24:24Z</time>
      </trkpt>
      <trkpt lat="44.98155" lon="2.01297">
        <ele>486.56</ele>
        <time>2021-08-16T12:24:30Z</time>
      </trkpt>
      <trkpt lat="44.98173" lon="2.01281">
        <ele>488.01</ele>
        <time>2021-08-16T12:24:38Z</time>
      </trkpt>
      <trkpt lat="44.98186" lon="2.01266">
        <ele>488.49</ele>
        <time>2021-08-16T12:24:45Z</time>
      </trkpt>
      <trkpt lat="44.98198" lon="2.01248">
        <ele>488.97</ele>
        <time>2021-08-16T12:24:53Z</time>
      </trkpt>
      <trkpt lat="44.98207" lon="2.01227">
        <ele>489.45</ele>
        <time>2021-08-16T12:25:01Z</time>
      </trkpt>
      <trkpt lat="44.98207" lon="2.01223">
        <ele>489.45</ele>
        <time>2021-08-16T12:25:02Z</time>
      </trkpt>
      <trkpt lat="44.98206" lon="2.01219">
        <ele>489.45</ele>
        <time>2021-08-16T12:25:03Z</time>
      </trkpt>
      <trkpt lat="44.98205" lon="2.01215">
        <ele>489.45</ele>
        <time>2021-08-16T12:25:04Z</time>
      </trkpt>
      <trkpt lat="44.98196" lon="2.01206">
        <ele>490.41</ele>
        <time>2021-08-16T12:25:12Z</time>
      </trkpt>
      <trkpt lat="44.98192" lon="2.01201">
        <ele>491.85</ele>
        <time>2021-08-16T12:25:22Z</time>
      </trkpt>
      <trkpt lat="44.98189" lon="2.012">
        <ele>491.85</ele>
        <time>2021-08-16T12:25:28Z</time>
      </trkpt>
      <trkpt lat="44.98187" lon="2.01199">
        <ele>492.33</ele>
        <time>2021-08-16T12:25:30Z</time>
      </trkpt>
      <trkpt lat="44.9818" lon="2.012">
        <ele>493.77</ele>
        <time>2021-08-16T12:25:38Z</time>
      </trkpt>
      <trkpt lat="44.9817" lon="2.01199">
        <ele>494.74</ele>
        <time>2021-08-16T12:25:48Z</time>
      </trkpt>
      <trkpt lat="44.98163" lon="2.01195">
        <ele>496.66</ele>
        <time>2021-08-16T12:25:57Z</time>
      </trkpt>
      <trkpt lat="44.98158" lon="2.01191">
        <ele>497.62</ele>
        <time>2021-08-16T12:26:04Z</time>
      </trkpt>
      <trkpt lat="44.98153" lon="2.0119">
        <ele>499.06</ele>
        <time>2021-08-16T12:26:12Z</time>
      </trkpt>
      <trkpt lat="44.98146" lon="2.01182">
        <ele>500.02</ele>
        <time>2021-08-16T12:26:21Z</time>
      </trkpt>
      <trkpt lat="44.98141" lon="2.01173">
        <ele>501.46</ele>
        <time>2021-08-16T12:26:31Z</time>
      </trkpt>
      <trkpt lat="44.98138" lon="2.01163">
        <ele>502.43</ele>
        <time>2021-08-16T12:26:39Z</time>
      </trkpt>
      <trkpt lat="44.98137" lon="2.01155">
        <ele>502.43</ele>
        <time>2021-08-16T12:26:48Z</time>
      </trkpt>
      <trkpt lat="44.98135" lon="2.01149">
        <ele>502.91</ele>
        <time>2021-08-16T12:26:54Z</time>
      </trkpt>
      <trkpt lat="44.98133" lon="2.01139">
        <ele>504.35</ele>
        <time>2021-08-16T12:27:01Z</time>
      </trkpt>
      <trkpt lat="44.98128" lon="2.01126">
        <ele>505.79</ele>
        <time>2021-08-16T12:27:10Z</time>
      </trkpt>
      <trkpt lat="44.98122" lon="2.01111">
        <ele>507.71</ele>
        <time>2021-08-16T12:27:19Z</time>
      </trkpt>
      <trkpt lat="44.9812" lon="2.01108">
        <ele>508.19</ele>
        <time>2021-08-16T12:27:21Z</time>
      </trkpt>
      <trkpt lat="44.98113" lon="2.0109">
        <ele>509.64</ele>
        <time>2021-08-16T12:27:32Z</time>
      </trkpt>
      <trkpt lat="44.98108" lon="2.01076">
        <ele>511.56</ele>
        <time>2021-08-16T12:27:42Z</time>
      </trkpt>
      <trkpt lat="44.98105" lon="2.01066">
        <ele>513</ele>
        <time>2021-08-16T12:27:50Z</time>
      </trkpt>
      <trkpt lat="44.98102" lon="2.01056">
        <ele>514.44</ele>
        <time>2021-08-16T12:27:59Z</time>
      </trkpt>
      <trkpt lat="44.981" lon="2.01046">
        <ele>515.88</ele>
        <time>2021-08-16T12:28:07Z</time>
      </trkpt>
      <trkpt lat="44.98098" lon="2.01037">
        <ele>516.85</ele>
        <time>2021-08-16T12:28:16Z</time>
      </trkpt>
      <trkpt lat="44.98097" lon="2.01025">
        <ele>518.29</ele>
        <time>2021-08-16T12:28:24Z</time>
      </trkpt>
      <trkpt lat="44.98095" lon="2.01014">
        <ele>519.73</ele>
        <time>2021-08-16T12:28:32Z</time>
      </trkpt>
      <trkpt lat="44.98094" lon="2.00999">
        <ele>521.17</ele>
        <time>2021-08-16T12:28:42Z</time>
      </trkpt>
      <trkpt lat="44.98092" lon="2.0099">
        <ele>522.13</ele>
        <time>2021-08-16T12:28:51Z</time>
      </trkpt>
      <trkpt lat="44.98092" lon="2.00968">
        <ele>523.58</ele>
        <time>2021-08-16T12:29:02Z</time>
      </trkpt>
      <trkpt lat="44.9809" lon="2.0095">
        <ele>525.5</ele>
        <time>2021-08-16T12:29:12Z</time>
      </trkpt>
      <trkpt lat="44.98089" lon="2.0094">
        <ele>526.94</ele>
        <time>2021-08-16T12:29:19Z</time>
      </trkpt>
      <trkpt lat="44.9809" lon="2.00935">
        <ele>527.42</ele>
        <time>2021-08-16T12:29:22Z</time>
      </trkpt>
      <trkpt lat="44.9809" lon="2.00918">
        <ele>528.86</ele>
        <time>2021-08-16T12:29:31Z</time>
      </trkpt>
      <trkpt lat="44.98093" lon="2.00908">
        <ele>529.82</ele>
        <time>2021-08-16T12:29:36Z</time>
      </trkpt>
      <trkpt lat="44.98098" lon="2.00904">
        <ele>530.3</ele>
        <time>2021-08-16T12:29:40Z</time>
      </trkpt>
      <trkpt lat="44.98109" lon="2.00901">
        <ele>532.23</ele>
        <time>2021-08-16T12:29:49Z</time>
      </trkpt>
      <trkpt lat="44.98114" lon="2.00897">
        <ele>533.19</ele>
        <time>2021-08-16T12:29:55Z</time>
      </trkpt>
      <trkpt lat="44.9812" lon="2.00897">
        <ele>534.15</ele>
        <time>2021-08-16T12:30:01Z</time>
      </trkpt>
      <trkpt lat="44.9813" lon="2.00899">
        <ele>535.59</ele>
        <time>2021-08-16T12:30:10Z</time>
      </trkpt>
      <trkpt lat="44.98143" lon="2.00905">
        <ele>537.03</ele>
        <time>2021-08-16T12:30:21Z</time>
      </trkpt>
      <trkpt lat="44.98155" lon="2.00907">
        <ele>538.48</ele>
        <time>2021-08-16T12:30:30Z</time>
      </trkpt>
      <trkpt lat="44.98165" lon="2.00909">
        <ele>539.44</ele>
        <time>2021-08-16T12:30:38Z</time>
      </trkpt>
      <trkpt lat="44.98178" lon="2.00912">
        <ele>539.92</ele>
        <time>2021-08-16T12:30:47Z</time>
      </trkpt>
      <trkpt lat="44.98195" lon="2.00911">
        <ele>541.84</ele>
        <time>2021-08-16T12:30:57Z</time>
      </trkpt>
      <trkpt lat="44.98202" lon="2.00908">
        <ele>542.32</ele>
        <time>2021-08-16T12:31:03Z</time>
      </trkpt>
      <trkpt lat="44.98204" lon="2.009">
        <ele>543.28</ele>
        <time>2021-08-16T12:31:08Z</time>
      </trkpt>
      <trkpt lat="44.98203" lon="2.00884">
        <ele>543.76</ele>
        <time>2021-08-16T12:31:17Z</time>
      </trkpt>
      <trkpt lat="44.98198" lon="2.00872">
        <ele>545.2</ele>
        <time>2021-08-16T12:31:25Z</time>
      </trkpt>
      <trkpt lat="44.98189" lon="2.00857">
        <ele>546.65</ele>
        <time>2021-08-16T12:31:34Z</time>
      </trkpt>
      <trkpt lat="44.98184" lon="2.00838">
        <ele>548.09</ele>
        <time>2021-08-16T12:31:42Z</time>
      </trkpt>
      <trkpt lat="44.98183" lon="2.00822">
        <ele>549.53</ele>
        <time>2021-08-16T12:31:50Z</time>
      </trkpt>
      <trkpt lat="44.98181" lon="2.00803">
        <ele>551.45</ele>
        <time>2021-08-16T12:31:59Z</time>
      </trkpt>
      <trkpt lat="44.98181" lon="2.0078">
        <ele>552.9</ele>
        <time>2021-08-16T12:32:08Z</time>
      </trkpt>
      <trkpt lat="44.98185" lon="2.00766">
        <ele>554.34</ele>
        <time>2021-08-16T12:32:15Z</time>
      </trkpt>
      <trkpt lat="44.98191" lon="2.00759">
        <ele>555.3</ele>
        <time>2021-08-16T12:32:21Z</time>
      </trkpt>
      <trkpt lat="44.98199" lon="2.00755">
        <ele>556.74</ele>
        <time>2021-08-16T12:32:28Z</time>
      </trkpt>
      <trkpt lat="44.98209" lon="2.00747">
        <ele>557.7</ele>
        <time>2021-08-16T12:32:37Z</time>
      </trkpt>
      <trkpt lat="44.98215" lon="2.00744">
        <ele>558.66</ele>
        <time>2021-08-16T12:32:42Z</time>
      </trkpt>
      <trkpt lat="44.98227" lon="2.00746">
        <ele>560.11</ele>
        <time>2021-08-16T12:32:51Z</time>
      </trkpt>
      <trkpt lat="44.98232" lon="2.00746">
        <ele>560.59</ele>
        <time>2021-08-16T12:32:55Z</time>
      </trkpt>
      <trkpt lat="44.98236" lon="2.00746">
        <ele>560.59</ele>
        <time>2021-08-16T12:32:57Z</time>
      </trkpt>
      <trkpt lat="44.98242" lon="2.00745">
        <ele>561.07</ele>
        <time>2021-08-16T12:33:01Z</time>
      </trkpt>
      <trkpt lat="44.98258" lon="2.00745">
        <ele>562.03</ele>
        <time>2021-08-16T12:33:10Z</time>
      </trkpt>
      <trkpt lat="44.98275" lon="2.00742">
        <ele>562.99</ele>
        <time>2021-08-16T12:33:18Z</time>
      </trkpt>
      <trkpt lat="44.98291" lon="2.00735">
        <ele>563.47</ele>
        <time>2021-08-16T12:33:25Z</time>
      </trkpt>
      <trkpt lat="44.98303" lon="2.00716">
        <ele>564.43</ele>
        <time>2021-08-16T12:33:32Z</time>
      </trkpt>
      <trkpt lat="44.98312" lon="2.00696">
        <ele>564.91</ele>
        <time>2021-08-16T12:33:38Z</time>
      </trkpt>
      <trkpt lat="44.98324" lon="2.00673">
        <ele>565.87</ele>
        <time>2021-08-16T12:33:45Z</time>
      </trkpt>
      <trkpt lat="44.98336" lon="2.00654">
        <ele>566.35</ele>
        <time>2021-08-16T12:33:51Z</time>
      </trkpt>
      <trkpt lat="44.98349" lon="2.00634">
        <ele>566.35</ele>
        <time>2021-08-16T12:33:57Z</time>
      </trkpt>
      <trkpt lat="44.98361" lon="2.00609">
        <ele>563.47</ele>
        <time>2021-08-16T12:34:03Z</time>
      </trkpt>
      <trkpt lat="44.98375" lon="2.00577">
        <ele>562.51</ele>
        <time>2021-08-16T12:34:07Z</time>
      </trkpt>
      <trkpt lat="44.98404" lon="2.0053">
        <ele>562.51</ele>
        <time>2021-08-16T12:34:13Z</time>
      </trkpt>
      <trkpt lat="44.98423" lon="2.005">
        <ele>563.95</ele>
        <time>2021-08-16T12:34:20Z</time>
      </trkpt>
      <trkpt lat="44.9843" lon="2.00459">
        <ele>565.87</ele>
        <time>2021-08-16T12:34:27Z</time>
      </trkpt>
      <trkpt lat="44.98424" lon="2.00423">
        <ele>566.83</ele>
        <time>2021-08-16T12:34:34Z</time>
      </trkpt>
      <trkpt lat="44.98407" lon="2.00379">
        <ele>565.39</ele>
        <time>2021-08-16T12:34:43Z</time>
      </trkpt>
      <trkpt lat="44.98406" lon="2.00373">
        <ele>564.91</ele>
        <time>2021-08-16T12:34:44Z</time>
      </trkpt>
      <trkpt lat="44.98405" lon="2.00366">
        <ele>564.43</ele>
        <time>2021-08-16T12:34:45Z</time>
      </trkpt>
      <trkpt lat="44.98404" lon="2.0036">
        <ele>563.95</ele>
        <time>2021-08-16T12:34:46Z</time>
      </trkpt>
      <trkpt lat="44.98405" lon="2.00354">
        <ele>563.95</ele>
        <time>2021-08-16T12:34:47Z</time>
      </trkpt>
      <trkpt lat="44.98405" lon="2.00348">
        <ele>563.95</ele>
        <time>2021-08-16T12:34:48Z</time>
      </trkpt>
      <trkpt lat="44.98407" lon="2.00341">
        <ele>563.47</ele>
        <time>2021-08-16T12:34:49Z</time>
      </trkpt>
      <trkpt lat="44.98409" lon="2.00335">
        <ele>563.47</ele>
        <time>2021-08-16T12:34:50Z</time>
      </trkpt>
      <trkpt lat="44.98412" lon="2.00329">
        <ele>562.99</ele>
        <time>2021-08-16T12:34:51Z</time>
      </trkpt>
      <trkpt lat="44.98415" lon="2.00323">
        <ele>562.99</ele>
        <time>2021-08-16T12:34:52Z</time>
      </trkpt>
      <trkpt lat="44.9842" lon="2.00318">
        <ele>562.03</ele>
        <time>2021-08-16T12:34:53Z</time>
      </trkpt>
      <trkpt lat="44.98426" lon="2.00315">
        <ele>562.03</ele>
        <time>2021-08-16T12:34:54Z</time>
      </trkpt>
      <trkpt lat="44.98432" lon="2.00312">
        <ele>560.59</ele>
        <time>2021-08-16T12:34:55Z</time>
      </trkpt>
      <trkpt lat="44.98438" lon="2.0031">
        <ele>560.11</ele>
        <time>2021-08-16T12:34:56Z</time>
      </trkpt>
      <trkpt lat="44.98444" lon="2.00309">
        <ele>559.62</ele>
        <time>2021-08-16T12:34:57Z</time>
      </trkpt>
      <trkpt lat="44.98452" lon="2.00309">
        <ele>559.14</ele>
        <time>2021-08-16T12:34:58Z</time>
      </trkpt>
      <trkpt lat="44.98478" lon="2.00305">
        <ele>559.14</ele>
        <time>2021-08-16T12:35:02Z</time>
      </trkpt>
      <trkpt lat="44.98483" lon="2.00301">
        <ele>560.59</ele>
        <time>2021-08-16T12:35:03Z</time>
      </trkpt>
      <trkpt lat="44.98486" lon="2.00297">
        <ele>561.07</ele>
        <time>2021-08-16T12:35:04Z</time>
      </trkpt>
      <trkpt lat="44.98496" lon="2.0028">
        <ele>562.99</ele>
        <time>2021-08-16T12:35:10Z</time>
      </trkpt>
      <trkpt lat="44.98506" lon="2.00251">
        <ele>562.51</ele>
        <time>2021-08-16T12:35:17Z</time>
      </trkpt>
      <trkpt lat="44.98513" lon="2.00235">
        <ele>562.51</ele>
        <time>2021-08-16T12:35:20Z</time>
      </trkpt>
      <trkpt lat="44.98542" lon="2.00204">
        <ele>562.51</ele>
        <time>2021-08-16T12:35:28Z</time>
      </trkpt>
      <trkpt lat="44.9855" lon="2.0018">
        <ele>562.51</ele>
        <time>2021-08-16T12:35:34Z</time>
      </trkpt>
      <trkpt lat="44.98553" lon="2.0016">
        <ele>562.51</ele>
        <time>2021-08-16T12:35:39Z</time>
      </trkpt>
      <trkpt lat="44.98555" lon="2.00131">
        <ele>563.95</ele>
        <time>2021-08-16T12:35:48Z</time>
      </trkpt>
      <trkpt lat="44.98556" lon="2.00115">
        <ele>565.39</ele>
        <time>2021-08-16T12:35:58Z</time>
      </trkpt>
      <trkpt lat="44.98555" lon="2.00105">
        <ele>566.35</ele>
        <time>2021-08-16T12:36:06Z</time>
      </trkpt>
      <trkpt lat="44.98557" lon="2.001">
        <ele>566.35</ele>
        <time>2021-08-16T12:36:22Z</time>
      </trkpt>
      <trkpt lat="44.98556" lon="2.00097">
        <ele>566.35</ele>
        <time>2021-08-16T12:36:48Z</time>
      </trkpt>
      <trkpt lat="44.98555" lon="2.00095">
        <ele>566.35</ele>
        <time>2021-08-16T12:37:03Z</time>
      </trkpt>
      <trkpt lat="44.98554" lon="2.00088">
        <ele>567.32</ele>
        <time>2021-08-16T12:37:10Z</time>
      </trkpt>
      <trkpt lat="44.98553" lon="2.00078">
        <ele>568.76</ele>
        <time>2021-08-16T12:37:19Z</time>
      </trkpt>
      <trkpt lat="44.98553" lon="2.00072">
        <ele>568.76</ele>
        <time>2021-08-16T12:37:26Z</time>
      </trkpt>
      <trkpt lat="44.98552" lon="2.00057">
        <ele>569.24</ele>
        <time>2021-08-16T12:37:33Z</time>
      </trkpt>
      <trkpt lat="44.98548" lon="2.00033">
        <ele>570.68</ele>
        <time>2021-08-16T12:37:41Z</time>
      </trkpt>
      <trkpt lat="44.98545" lon="2.00014">
        <ele>571.16</ele>
        <time>2021-08-16T12:37:48Z</time>
      </trkpt>
      <trkpt lat="44.98543" lon="1.9999">
        <ele>572.12</ele>
        <time>2021-08-16T12:37:55Z</time>
      </trkpt>
      <trkpt lat="44.98544" lon="1.99969">
        <ele>570.68</ele>
        <time>2021-08-16T12:37:59Z</time>
      </trkpt>
      <trkpt lat="44.98544" lon="1.99962">
        <ele>570.2</ele>
        <time>2021-08-16T12:38:00Z</time>
      </trkpt>
      <trkpt lat="44.98543" lon="1.99956">
        <ele>569.72</ele>
        <time>2021-08-16T12:38:01Z</time>
      </trkpt>
      <trkpt lat="44.98544" lon="1.9994">
        <ele>568.76</ele>
        <time>2021-08-16T12:38:03Z</time>
      </trkpt>
      <trkpt lat="44.98555" lon="1.99895">
        <ele>565.39</ele>
        <time>2021-08-16T12:38:08Z</time>
      </trkpt>
      <trkpt lat="44.98573" lon="1.99842">
        <ele>562.51</ele>
        <time>2021-08-16T12:38:13Z</time>
      </trkpt>
      <trkpt lat="44.9859" lon="1.99759">
        <ele>559.14</ele>
        <time>2021-08-16T12:38:20Z</time>
      </trkpt>
      <trkpt lat="44.98594" lon="1.99723">
        <ele>558.66</ele>
        <time>2021-08-16T12:38:23Z</time>
      </trkpt>
      <trkpt lat="44.98593" lon="1.99711">
        <ele>558.18</ele>
        <time>2021-08-16T12:38:24Z</time>
      </trkpt>
      <trkpt lat="44.98592" lon="1.997">
        <ele>557.7</ele>
        <time>2021-08-16T12:38:25Z</time>
      </trkpt>
      <trkpt lat="44.98588" lon="1.99688">
        <ele>557.22</ele>
        <time>2021-08-16T12:38:26Z</time>
      </trkpt>
      <trkpt lat="44.98584" lon="1.99678">
        <ele>556.26</ele>
        <time>2021-08-16T12:38:27Z</time>
      </trkpt>
      <trkpt lat="44.98579" lon="1.99667">
        <ele>555.78</ele>
        <time>2021-08-16T12:38:28Z</time>
      </trkpt>
      <trkpt lat="44.98572" lon="1.99644">
        <ele>555.3</ele>
        <time>2021-08-16T12:38:30Z</time>
      </trkpt>
      <trkpt lat="44.9857" lon="1.99633">
        <ele>555.3</ele>
        <time>2021-08-16T12:38:31Z</time>
      </trkpt>
      <trkpt lat="44.98568" lon="1.99622">
        <ele>555.3</ele>
        <time>2021-08-16T12:38:32Z</time>
      </trkpt>
      <trkpt lat="44.98567" lon="1.99609">
        <ele>554.34</ele>
        <time>2021-08-16T12:38:33Z</time>
      </trkpt>
      <trkpt lat="44.98567" lon="1.99599">
        <ele>554.34</ele>
        <time>2021-08-16T12:38:34Z</time>
      </trkpt>
      <trkpt lat="44.98568" lon="1.99588">
        <ele>554.34</ele>
        <time>2021-08-16T12:38:35Z</time>
      </trkpt>
      <trkpt lat="44.98577" lon="1.99527">
        <ele>553.38</ele>
        <time>2021-08-16T12:38:41Z</time>
      </trkpt>
      <trkpt lat="44.9858" lon="1.99507">
        <ele>553.38</ele>
        <time>2021-08-16T12:38:43Z</time>
      </trkpt>
      <trkpt lat="44.98582" lon="1.995">
        <ele>553.38</ele>
        <time>2021-08-16T12:38:44Z</time>
      </trkpt>
      <trkpt lat="44.98585" lon="1.99493">
        <ele>553.38</ele>
        <time>2021-08-16T12:38:45Z</time>
      </trkpt>
      <trkpt lat="44.98589" lon="1.99485">
        <ele>553.38</ele>
        <time>2021-08-16T12:38:46Z</time>
      </trkpt>
      <trkpt lat="44.98593" lon="1.99479">
        <ele>553.38</ele>
        <time>2021-08-16T12:38:47Z</time>
      </trkpt>
      <trkpt lat="44.98597" lon="1.99472">
        <ele>553.38</ele>
        <time>2021-08-16T12:38:48Z</time>
      </trkpt>
      <trkpt lat="44.98621" lon="1.99436">
        <ele>552.9</ele>
        <time>2021-08-16T12:38:54Z</time>
      </trkpt>
      <trkpt lat="44.98623" lon="1.99429">
        <ele>553.38</ele>
        <time>2021-08-16T12:38:55Z</time>
      </trkpt>
      <trkpt lat="44.98625" lon="1.99421">
        <ele>553.38</ele>
        <time>2021-08-16T12:38:56Z</time>
      </trkpt>
      <trkpt lat="44.98626" lon="1.99413">
        <ele>553.38</ele>
        <time>2021-08-16T12:38:57Z</time>
      </trkpt>
      <trkpt lat="44.98625" lon="1.99406">
        <ele>553.38</ele>
        <time>2021-08-16T12:38:58Z</time>
      </trkpt>
      <trkpt lat="44.98623" lon="1.99399">
        <ele>553.38</ele>
        <time>2021-08-16T12:38:59Z</time>
      </trkpt>
      <trkpt lat="44.98621" lon="1.99393">
        <ele>552.9</ele>
        <time>2021-08-16T12:39:00Z</time>
      </trkpt>
      <trkpt lat="44.98619" lon="1.99388">
        <ele>552.9</ele>
        <time>2021-08-16T12:39:01Z</time>
      </trkpt>
      <trkpt lat="44.98617" lon="1.99383">
        <ele>552.9</ele>
        <time>2021-08-16T12:39:02Z</time>
      </trkpt>
      <trkpt lat="44.98611" lon="1.99373">
        <ele>554.34</ele>
        <time>2021-08-16T12:39:05Z</time>
      </trkpt>
      <trkpt lat="44.98604" lon="1.99359">
        <ele>555.3</ele>
        <time>2021-08-16T12:39:11Z</time>
      </trkpt>
      <trkpt lat="44.98597" lon="1.99345">
        <ele>557.22</ele>
        <time>2021-08-16T12:39:19Z</time>
      </trkpt>
      <trkpt lat="44.98586" lon="1.99327">
        <ele>558.66</ele>
        <time>2021-08-16T12:39:27Z</time>
      </trkpt>
      <trkpt lat="44.98576" lon="1.99306">
        <ele>560.11</ele>
        <time>2021-08-16T12:39:36Z</time>
      </trkpt>
      <trkpt lat="44.98567" lon="1.99294">
        <ele>562.03</ele>
        <time>2021-08-16T12:39:43Z</time>
      </trkpt>
      <trkpt lat="44.98558" lon="1.99276">
        <ele>562.99</ele>
        <time>2021-08-16T12:39:51Z</time>
      </trkpt>
      <trkpt lat="44.98556" lon="1.99272">
        <ele>562.99</ele>
        <time>2021-08-16T12:39:52Z</time>
      </trkpt>
      <trkpt lat="44.98555" lon="1.99268">
        <ele>563.47</ele>
        <time>2021-08-16T12:39:53Z</time>
      </trkpt>
      <trkpt lat="44.98551" lon="1.99248">
        <ele>563.47</ele>
        <time>2021-08-16T12:39:59Z</time>
      </trkpt>
      <trkpt lat="44.9855" lon="1.9922">
        <ele>563.47</ele>
        <time>2021-08-16T12:40:05Z</time>
      </trkpt>
      <trkpt lat="44.98549" lon="1.99207">
        <ele>562.03</ele>
        <time>2021-08-16T12:40:07Z</time>
      </trkpt>
      <trkpt lat="44.98549" lon="1.99199">
        <ele>562.03</ele>
        <time>2021-08-16T12:40:08Z</time>
      </trkpt>
      <trkpt lat="44.98545" lon="1.99174">
        <ele>560.11</ele>
        <time>2021-08-16T12:40:13Z</time>
      </trkpt>
      <trkpt lat="44.98542" lon="1.99171">
        <ele>559.62</ele>
        <time>2021-08-16T12:40:14Z</time>
      </trkpt>
      <trkpt lat="44.98539" lon="1.99169">
        <ele>559.62</ele>
        <time>2021-08-16T12:40:15Z</time>
      </trkpt>
      <trkpt lat="44.98536" lon="1.99167">
        <ele>559.62</ele>
        <time>2021-08-16T12:40:16Z</time>
      </trkpt>
      <trkpt lat="44.98531" lon="1.99164">
        <ele>558.66</ele>
        <time>2021-08-16T12:40:17Z</time>
      </trkpt>
      <trkpt lat="44.98527" lon="1.9916">
        <ele>558.66</ele>
        <time>2021-08-16T12:40:18Z</time>
      </trkpt>
      <trkpt lat="44.9849" lon="1.99137">
        <ele>556.26</ele>
        <time>2021-08-16T12:40:25Z</time>
      </trkpt>
      <trkpt lat="44.98461" lon="1.99128">
        <ele>554.34</ele>
        <time>2021-08-16T12:40:29Z</time>
      </trkpt>
      <trkpt lat="44.98416" lon="1.99112">
        <ele>551.45</ele>
        <time>2021-08-16T12:40:35Z</time>
      </trkpt>
      <trkpt lat="44.98397" lon="1.99105">
        <ele>551.45</ele>
        <time>2021-08-16T12:40:38Z</time>
      </trkpt>
      <trkpt lat="44.98393" lon="1.99101">
        <ele>551.45</ele>
        <time>2021-08-16T12:40:39Z</time>
      </trkpt>
      <trkpt lat="44.98389" lon="1.99097">
        <ele>550.97</ele>
        <time>2021-08-16T12:40:40Z</time>
      </trkpt>
      <trkpt lat="44.98387" lon="1.99092">
        <ele>550.97</ele>
        <time>2021-08-16T12:40:41Z</time>
      </trkpt>
      <trkpt lat="44.98384" lon="1.99086">
        <ele>550.01</ele>
        <time>2021-08-16T12:40:42Z</time>
      </trkpt>
      <trkpt lat="44.98382" lon="1.99081">
        <ele>550.01</ele>
        <time>2021-08-16T12:40:43Z</time>
      </trkpt>
      <trkpt lat="44.9838" lon="1.99076">
        <ele>550.01</ele>
        <time>2021-08-16T12:40:44Z</time>
      </trkpt>
      <trkpt lat="44.9836" lon="1.99037">
        <ele>550.01</ele>
        <time>2021-08-16T12:40:52Z</time>
      </trkpt>
      <trkpt lat="44.98341" lon="1.99013">
        <ele>549.05</ele>
        <time>2021-08-16T12:40:59Z</time>
      </trkpt>
      <trkpt lat="44.98338" lon="1.99014">
        <ele>549.05</ele>
        <time>2021-08-16T12:41:00Z</time>
      </trkpt>
      <trkpt lat="44.98337" lon="1.99015">
        <ele>549.05</ele>
        <time>2021-08-16T12:41:01Z</time>
      </trkpt>
      <trkpt lat="44.98335" lon="1.99016">
        <ele>549.05</ele>
        <time>2021-08-16T12:41:02Z</time>
      </trkpt>
      <trkpt lat="44.98334" lon="1.99017">
        <ele>549.05</ele>
        <time>2021-08-16T12:41:03Z</time>
      </trkpt>
      <trkpt lat="44.98334" lon="1.99019">
        <ele>549.05</ele>
        <time>2021-08-16T12:41:09Z</time>
      </trkpt>
      <trkpt lat="44.98333" lon="1.9902">
        <ele>549.05</ele>
        <time>2021-08-16T12:41:25Z</time>
      </trkpt>
      <trkpt lat="44.98332" lon="1.99019">
        <ele>549.05</ele>
        <time>2021-08-16T12:41:27Z</time>
      </trkpt>
      <trkpt lat="44.98331" lon="1.99017">
        <ele>549.05</ele>
        <time>2021-08-16T12:41:28Z</time>
      </trkpt>
      <trkpt lat="44.98325" lon="1.99002">
        <ele>548.57</ele>
        <time>2021-08-16T12:41:33Z</time>
      </trkpt>
      <trkpt lat="44.98318" lon="1.98982">
        <ele>548.09</ele>
        <time>2021-08-16T12:41:38Z</time>
      </trkpt>
      <trkpt lat="44.98302" lon="1.98947">
        <ele>545.2</ele>
        <time>2021-08-16T12:41:44Z</time>
      </trkpt>
      <trkpt lat="44.98299" lon="1.98941">
        <ele>545.2</ele>
        <time>2021-08-16T12:41:45Z</time>
      </trkpt>
      <trkpt lat="44.98286" lon="1.98915">
        <ele>543.76</ele>
        <time>2021-08-16T12:41:51Z</time>
      </trkpt>
      <trkpt lat="44.98284" lon="1.98909">
        <ele>543.28</ele>
        <time>2021-08-16T12:41:56Z</time>
      </trkpt>
      <trkpt lat="44.98283" lon="1.9891">
        <ele>543.28</ele>
        <time>2021-08-16T12:42:00Z</time>
      </trkpt>
      <trkpt lat="44.98287" lon="1.98912">
        <ele>543.28</ele>
        <time>2021-08-16T12:42:07Z</time>
      </trkpt>
      <trkpt lat="44.98286" lon="1.98913">
        <ele>543.28</ele>
        <time>2021-08-16T12:42:11Z</time>
      </trkpt>
      <trkpt lat="44.98281" lon="1.98911">
        <ele>542.8</ele>
        <time>2021-08-16T12:42:14Z</time>
      </trkpt>
      <trkpt lat="44.98279" lon="1.98909">
        <ele>542.8</ele>
        <time>2021-08-16T12:42:15Z</time>
      </trkpt>
      <trkpt lat="44.98279" lon="1.98907">
        <ele>542.8</ele>
        <time>2021-08-16T12:42:16Z</time>
      </trkpt>
      <trkpt lat="44.98279" lon="1.98905">
        <ele>542.8</ele>
        <time>2021-08-16T12:42:17Z</time>
      </trkpt>
      <trkpt lat="44.9828" lon="1.98906">
        <ele>542.8</ele>
        <time>2021-08-16T12:42:18Z</time>
      </trkpt>
      <trkpt lat="44.98281" lon="1.98907">
        <ele>542.8</ele>
        <time>2021-08-16T12:42:19Z</time>
      </trkpt>
      <trkpt lat="44.98282" lon="1.98908">
        <ele>542.8</ele>
        <time>2021-08-16T12:42:20Z</time>
      </trkpt>
      <trkpt lat="44.98283" lon="1.9891">
        <ele>542.8</ele>
        <time>2021-08-16T12:42:21Z</time>
      </trkpt>
      <trkpt lat="44.98283" lon="1.98911">
        <ele>542.8</ele>
        <time>2021-08-16T12:42:22Z</time>
      </trkpt>
      <trkpt lat="44.98285" lon="1.98913">
        <ele>542.8</ele>
        <time>2021-08-16T12:42:23Z</time>
      </trkpt>
      <trkpt lat="44.98291" lon="1.98924">
        <ele>542.8</ele>
        <time>2021-08-16T12:42:28Z</time>
      </trkpt>
      <trkpt lat="44.98294" lon="1.98934">
        <ele>544.24</ele>
        <time>2021-08-16T12:42:31Z</time>
      </trkpt>
      <trkpt lat="44.98302" lon="1.98949">
        <ele>545.69</ele>
        <time>2021-08-16T12:42:37Z</time>
      </trkpt>
      <trkpt lat="44.98304" lon="1.9895">
        <ele>545.69</ele>
        <time>2021-08-16T12:42:38Z</time>
      </trkpt>
      <trkpt lat="44.98307" lon="1.9895">
        <ele>545.69</ele>
        <time>2021-08-16T12:42:40Z</time>
      </trkpt>
      <trkpt lat="44.98308" lon="1.98947">
        <ele>545.69</ele>
        <time>2021-08-16T12:42:41Z</time>
      </trkpt>
      <trkpt lat="44.98309" lon="1.98943">
        <ele>545.69</ele>
        <time>2021-08-16T12:42:42Z</time>
      </trkpt>
      <trkpt lat="44.98309" lon="1.98937">
        <ele>544.24</ele>
        <time>2021-08-16T12:42:43Z</time>
      </trkpt>
      <trkpt lat="44.98309" lon="1.9893">
        <ele>543.76</ele>
        <time>2021-08-16T12:42:44Z</time>
      </trkpt>
      <trkpt lat="44.98309" lon="1.98923">
        <ele>542.8</ele>
        <time>2021-08-16T12:42:45Z</time>
      </trkpt>
      <trkpt lat="44.9831" lon="1.98915">
        <ele>542.32</ele>
        <time>2021-08-16T12:42:46Z</time>
      </trkpt>
      <trkpt lat="44.98311" lon="1.98882">
        <ele>538.96</ele>
        <time>2021-08-16T12:42:50Z</time>
      </trkpt>
      <trkpt lat="44.98314" lon="1.98838">
        <ele>535.59</ele>
        <time>2021-08-16T12:42:55Z</time>
      </trkpt>
      <trkpt lat="44.98316" lon="1.98802">
        <ele>533.19</ele>
        <time>2021-08-16T12:42:59Z</time>
      </trkpt>
      <trkpt lat="44.98317" lon="1.98773">
        <ele>530.3</ele>
        <time>2021-08-16T12:43:02Z</time>
      </trkpt>
      <trkpt lat="44.98316" lon="1.98763">
        <ele>529.82</ele>
        <time>2021-08-16T12:43:03Z</time>
      </trkpt>
      <trkpt lat="44.98312" lon="1.98732">
        <ele>527.9</ele>
        <time>2021-08-16T12:43:08Z</time>
      </trkpt>
      <trkpt lat="44.98309" lon="1.98721">
        <ele>526.94</ele>
        <time>2021-08-16T12:43:13Z</time>
      </trkpt>
      <trkpt lat="44.98309" lon="1.98717">
        <ele>526.94</ele>
        <time>2021-08-16T12:43:14Z</time>
      </trkpt>
      <trkpt lat="44.9831" lon="1.98714">
        <ele>526.46</ele>
        <time>2021-08-16T12:43:15Z</time>
      </trkpt>
      <trkpt lat="44.98312" lon="1.98712">
        <ele>526.46</ele>
        <time>2021-08-16T12:43:16Z</time>
      </trkpt>
      <trkpt lat="44.98314" lon="1.98712">
        <ele>526.46</ele>
        <time>2021-08-16T12:43:17Z</time>
      </trkpt>
      <trkpt lat="44.98316" lon="1.98712">
        <ele>526.46</ele>
        <time>2021-08-16T12:43:18Z</time>
      </trkpt>
      <trkpt lat="44.98318" lon="1.98713">
        <ele>526.46</ele>
        <time>2021-08-16T12:43:19Z</time>
      </trkpt>
      <trkpt lat="44.9832" lon="1.98714">
        <ele>526.46</ele>
        <time>2021-08-16T12:43:20Z</time>
      </trkpt>
      <trkpt lat="44.98321" lon="1.98716">
        <ele>526.46</ele>
        <time>2021-08-16T12:43:21Z</time>
      </trkpt>
      <trkpt lat="44.98321" lon="1.98718">
        <ele>526.46</ele>
        <time>2021-08-16T12:43:22Z</time>
      </trkpt>
      <trkpt lat="44.98322" lon="1.9872">
        <ele>526.46</ele>
        <time>2021-08-16T12:43:23Z</time>
      </trkpt>
      <trkpt lat="44.98321" lon="1.98722">
        <ele>526.46</ele>
        <time>2021-08-16T12:43:29Z</time>
      </trkpt>
      <trkpt lat="44.9832" lon="1.9872">
        <ele>526.46</ele>
        <time>2021-08-16T12:43:39Z</time>
      </trkpt>
      <trkpt lat="44.98318" lon="1.98718">
        <ele>526.46</ele>
        <time>2021-08-16T12:43:56Z</time>
      </trkpt>
      <trkpt lat="44.98318" lon="1.98717">
        <ele>526.46</ele>
        <time>2021-08-16T12:44:10Z</time>
      </trkpt>
      <trkpt lat="44.98317" lon="1.98717">
        <ele>525.98</ele>
        <time>2021-08-16T12:44:22Z</time>
      </trkpt>
      <trkpt lat="44.98317" lon="1.98716">
        <ele>525.98</ele>
        <time>2021-08-16T12:44:34Z</time>
      </trkpt>
      <trkpt lat="44.98318" lon="1.98715">
        <ele>525.98</ele>
        <time>2021-08-16T12:44:48Z</time>
      </trkpt>
      <trkpt lat="44.98318" lon="1.98715">
        <ele>525.98</ele>
        <time>2021-08-16T12:45:02Z</time>
      </trkpt>
      <trkpt lat="44.98317" lon="1.98715">
        <ele>526.94</ele>
        <time>2021-08-16T12:45:11Z</time>
      </trkpt>
      <trkpt lat="44.98316" lon="1.98715">
        <ele>526.94</ele>
        <time>2021-08-16T12:45:14Z</time>
      </trkpt>
      <trkpt lat="44.98314" lon="1.98715">
        <ele>526.94</ele>
        <time>2021-08-16T12:45:18Z</time>
      </trkpt>
      <trkpt lat="44.98316" lon="1.98714">
        <ele>526.94</ele>
        <time>2021-08-16T12:45:32Z</time>
      </trkpt>
      <trkpt lat="44.98316" lon="1.98714">
        <ele>526.94</ele>
        <time>2021-08-16T12:45:47Z</time>
      </trkpt>
      <trkpt lat="44.98317" lon="1.98714">
        <ele>526.94</ele>
        <time>2021-08-16T12:45:59Z</time>
      </trkpt>
      <trkpt lat="44.98317" lon="1.98715">
        <ele>526.94</ele>
        <time>2021-08-16T12:46:15Z</time>
      </trkpt>
      <trkpt lat="44.98317" lon="1.98717">
        <ele>526.94</ele>
        <time>2021-08-16T12:46:32Z</time>
      </trkpt>
      <trkpt lat="44.98317" lon="1.98716">
        <ele>526.94</ele>
        <time>2021-08-16T12:46:46Z</time>
      </trkpt>
      <trkpt lat="44.98317" lon="1.98716">
        <ele>526.94</ele>
        <time>2021-08-16T12:46:56Z</time>
      </trkpt>
      <trkpt lat="44.98318" lon="1.98716">
        <ele>526.94</ele>
        <time>2021-08-16T12:47:07Z</time>
      </trkpt>
      <trkpt lat="44.98319" lon="1.98716">
        <ele>526.46</ele>
        <time>2021-08-16T12:47:15Z</time>
      </trkpt>
      <trkpt lat="44.98321" lon="1.98718">
        <ele>526.46</ele>
        <time>2021-08-16T12:47:26Z</time>
      </trkpt>
      <trkpt lat="44.98322" lon="1.98718">
        <ele>526.46</ele>
        <time>2021-08-16T12:47:27Z</time>
      </trkpt>
      <trkpt lat="44.98323" lon="1.98716">
        <ele>526.46</ele>
        <time>2021-08-16T12:47:33Z</time>
      </trkpt>
      <trkpt lat="44.98323" lon="1.98714">
        <ele>526.46</ele>
        <time>2021-08-16T12:47:34Z</time>
      </trkpt>
      <trkpt lat="44.98322" lon="1.98712">
        <ele>526.46</ele>
        <time>2021-08-16T12:47:35Z</time>
      </trkpt>
      <trkpt lat="44.98321" lon="1.98711">
        <ele>526.46</ele>
        <time>2021-08-16T12:47:36Z</time>
      </trkpt>
      <trkpt lat="44.98318" lon="1.98709">
        <ele>526.46</ele>
        <time>2021-08-16T12:47:37Z</time>
      </trkpt>
      <trkpt lat="44.98316" lon="1.98708">
        <ele>526.46</ele>
        <time>2021-08-16T12:47:38Z</time>
      </trkpt>
      <trkpt lat="44.98313" lon="1.98707">
        <ele>526.46</ele>
        <time>2021-08-16T12:47:39Z</time>
      </trkpt>
      <trkpt lat="44.9831" lon="1.98708">
        <ele>526.46</ele>
        <time>2021-08-16T12:47:40Z</time>
      </trkpt>
      <trkpt lat="44.98305" lon="1.98706">
        <ele>526.46</ele>
        <time>2021-08-16T12:47:42Z</time>
      </trkpt>
      <trkpt lat="44.98303" lon="1.98704">
        <ele>526.46</ele>
        <time>2021-08-16T12:47:43Z</time>
      </trkpt>
      <trkpt lat="44.98301" lon="1.98699">
        <ele>526.46</ele>
        <time>2021-08-16T12:47:44Z</time>
      </trkpt>
      <trkpt lat="44.98299" lon="1.98666">
        <ele>525.02</ele>
        <time>2021-08-16T12:47:51Z</time>
      </trkpt>
      <trkpt lat="44.98298" lon="1.98633">
        <ele>525.02</ele>
        <time>2021-08-16T12:47:59Z</time>
      </trkpt>
      <trkpt lat="44.98297" lon="1.98609">
        <ele>526.46</ele>
        <time>2021-08-16T12:48:07Z</time>
      </trkpt>
      <trkpt lat="44.98297" lon="1.98599">
        <ele>527.42</ele>
        <time>2021-08-16T12:48:11Z</time>
      </trkpt>
      <trkpt lat="44.98297" lon="1.98596">
        <ele>527.42</ele>
        <time>2021-08-16T12:48:12Z</time>
      </trkpt>
      <trkpt lat="44.98297" lon="1.98593">
        <ele>527.42</ele>
        <time>2021-08-16T12:48:13Z</time>
      </trkpt>
      <trkpt lat="44.98296" lon="1.98591">
        <ele>527.9</ele>
        <time>2021-08-16T12:48:14Z</time>
      </trkpt>
      <trkpt lat="44.98296" lon="1.98589">
        <ele>527.9</ele>
        <time>2021-08-16T12:48:15Z</time>
      </trkpt>
      <trkpt lat="44.98296" lon="1.98586">
        <ele>527.9</ele>
        <time>2021-08-16T12:48:16Z</time>
      </trkpt>
      <trkpt lat="44.98296" lon="1.98584">
        <ele>528.38</ele>
        <time>2021-08-16T12:48:17Z</time>
      </trkpt>
      <trkpt lat="44.98297" lon="1.98582">
        <ele>528.38</ele>
        <time>2021-08-16T12:48:18Z</time>
      </trkpt>
      <trkpt lat="44.98297" lon="1.9858">
        <ele>528.38</ele>
        <time>2021-08-16T12:48:19Z</time>
      </trkpt>
      <trkpt lat="44.98297" lon="1.98577">
        <ele>528.38</ele>
        <time>2021-08-16T12:48:20Z</time>
      </trkpt>
      <trkpt lat="44.98295" lon="1.98554">
        <ele>529.82</ele>
        <time>2021-08-16T12:48:30Z</time>
      </trkpt>
      <trkpt lat="44.98294" lon="1.98531">
        <ele>530.79</ele>
        <time>2021-08-16T12:48:40Z</time>
      </trkpt>
      <trkpt lat="44.98293" lon="1.98508">
        <ele>532.23</ele>
        <time>2021-08-16T12:48:50Z</time>
      </trkpt>
      <trkpt lat="44.98293" lon="1.98487">
        <ele>533.19</ele>
        <time>2021-08-16T12:48:59Z</time>
      </trkpt>
      <trkpt lat="44.98292" lon="1.98465">
        <ele>534.15</ele>
        <time>2021-08-16T12:49:08Z</time>
      </trkpt>
      <trkpt lat="44.98292" lon="1.98439">
        <ele>535.11</ele>
        <time>2021-08-16T12:49:17Z</time>
      </trkpt>
      <trkpt lat="44.98292" lon="1.98413">
        <ele>535.59</ele>
        <time>2021-08-16T12:49:25Z</time>
      </trkpt>
      <trkpt lat="44.98292" lon="1.98389">
        <ele>536.07</ele>
        <time>2021-08-16T12:49:33Z</time>
      </trkpt>
      <trkpt lat="44.98295" lon="1.9836">
        <ele>535.59</ele>
        <time>2021-08-16T12:49:42Z</time>
      </trkpt>
      <trkpt lat="44.98295" lon="1.98357">
        <ele>535.59</ele>
        <time>2021-08-16T12:49:43Z</time>
      </trkpt>
      <trkpt lat="44.98295" lon="1.98354">
        <ele>535.59</ele>
        <time>2021-08-16T12:49:44Z</time>
      </trkpt>
      <trkpt lat="44.98296" lon="1.98339">
        <ele>535.59</ele>
        <time>2021-08-16T12:49:48Z</time>
      </trkpt>
      <trkpt lat="44.98296" lon="1.98335">
        <ele>535.59</ele>
        <time>2021-08-16T12:49:49Z</time>
      </trkpt>
      <trkpt lat="44.98297" lon="1.98331">
        <ele>535.59</ele>
        <time>2021-08-16T12:49:50Z</time>
      </trkpt>
      <trkpt lat="44.98297" lon="1.98328">
        <ele>535.59</ele>
        <time>2021-08-16T12:49:51Z</time>
      </trkpt>
      <trkpt lat="44.98298" lon="1.98325">
        <ele>535.59</ele>
        <time>2021-08-16T12:49:52Z</time>
      </trkpt>
      <trkpt lat="44.98299" lon="1.98321">
        <ele>535.59</ele>
        <time>2021-08-16T12:49:53Z</time>
      </trkpt>
      <trkpt lat="44.98304" lon="1.9829">
        <ele>535.59</ele>
        <time>2021-08-16T12:50:00Z</time>
      </trkpt>
      <trkpt lat="44.98309" lon="1.98265">
        <ele>534.15</ele>
        <time>2021-08-16T12:50:05Z</time>
      </trkpt>
      <trkpt lat="44.9831" lon="1.98225">
        <ele>533.67</ele>
        <time>2021-08-16T12:50:12Z</time>
      </trkpt>
      <trkpt lat="44.98299" lon="1.98162">
        <ele>530.3</ele>
        <time>2021-08-16T12:50:19Z</time>
      </trkpt>
      <trkpt lat="44.98297" lon="1.98153">
        <ele>530.3</ele>
        <time>2021-08-16T12:50:20Z</time>
      </trkpt>
      <trkpt lat="44.98291" lon="1.98133">
        <ele>529.82</ele>
        <time>2021-08-16T12:50:22Z</time>
      </trkpt>
      <trkpt lat="44.98287" lon="1.98125">
        <ele>529.82</ele>
        <time>2021-08-16T12:50:23Z</time>
      </trkpt>
      <trkpt lat="44.98283" lon="1.98119">
        <ele>529.82</ele>
        <time>2021-08-16T12:50:24Z</time>
      </trkpt>
      <trkpt lat="44.98278" lon="1.98114">
        <ele>530.79</ele>
        <time>2021-08-16T12:50:25Z</time>
      </trkpt>
      <trkpt lat="44.98274" lon="1.9811">
        <ele>531.27</ele>
        <time>2021-08-16T12:50:26Z</time>
      </trkpt>
      <trkpt lat="44.98269" lon="1.98107">
        <ele>531.75</ele>
        <time>2021-08-16T12:50:27Z</time>
      </trkpt>
      <trkpt lat="44.98265" lon="1.98105">
        <ele>532.71</ele>
        <time>2021-08-16T12:50:28Z</time>
      </trkpt>
      <trkpt lat="44.98249" lon="1.981">
        <ele>534.15</ele>
        <time>2021-08-16T12:50:34Z</time>
      </trkpt>
      <trkpt lat="44.98227" lon="1.98099">
        <ele>535.59</ele>
        <time>2021-08-16T12:50:44Z</time>
      </trkpt>
      <trkpt lat="44.98206" lon="1.98098">
        <ele>537.03</ele>
        <time>2021-08-16T12:50:52Z</time>
      </trkpt>
      <trkpt lat="44.98183" lon="1.98096">
        <ele>538.48</ele>
        <time>2021-08-16T12:51:01Z</time>
      </trkpt>
      <trkpt lat="44.98166" lon="1.98093">
        <ele>539.44</ele>
        <time>2021-08-16T12:51:09Z</time>
      </trkpt>
      <trkpt lat="44.98149" lon="1.98081">
        <ele>540.88</ele>
        <time>2021-08-16T12:51:19Z</time>
      </trkpt>
      <trkpt lat="44.9814" lon="1.98067">
        <ele>541.84</ele>
        <time>2021-08-16T12:51:26Z</time>
      </trkpt>
      <trkpt lat="44.98134" lon="1.98044">
        <ele>542.8</ele>
        <time>2021-08-16T12:51:35Z</time>
      </trkpt>
      <trkpt lat="44.98127" lon="1.98008">
        <ele>544.24</ele>
        <time>2021-08-16T12:51:47Z</time>
      </trkpt>
      <trkpt lat="44.98122" lon="1.9797">
        <ele>545.69</ele>
        <time>2021-08-16T12:51:59Z</time>
      </trkpt>
      <trkpt lat="44.98116" lon="1.9794">
        <ele>546.17</ele>
        <time>2021-08-16T12:52:08Z</time>
      </trkpt>
      <trkpt lat="44.98114" lon="1.97916">
        <ele>546.17</ele>
        <time>2021-08-16T12:52:14Z</time>
      </trkpt>
      <trkpt lat="44.98109" lon="1.97893">
        <ele>547.13</ele>
        <time>2021-08-16T12:52:21Z</time>
      </trkpt>
      <trkpt lat="44.98105" lon="1.97859">
        <ele>547.61</ele>
        <time>2021-08-16T12:52:30Z</time>
      </trkpt>
      <trkpt lat="44.981" lon="1.97826">
        <ele>548.09</ele>
        <time>2021-08-16T12:52:39Z</time>
      </trkpt>
      <trkpt lat="44.98095" lon="1.97799">
        <ele>548.57</ele>
        <time>2021-08-16T12:52:47Z</time>
      </trkpt>
      <trkpt lat="44.98091" lon="1.97775">
        <ele>549.53</ele>
        <time>2021-08-16T12:52:55Z</time>
      </trkpt>
      <trkpt lat="44.98083" lon="1.97751">
        <ele>550.97</ele>
        <time>2021-08-16T12:53:03Z</time>
      </trkpt>
      <trkpt lat="44.98072" lon="1.97732">
        <ele>551.45</ele>
        <time>2021-08-16T12:53:10Z</time>
      </trkpt>
      <trkpt lat="44.98056" lon="1.97721">
        <ele>552.9</ele>
        <time>2021-08-16T12:53:17Z</time>
      </trkpt>
      <trkpt lat="44.98034" lon="1.97708">
        <ele>554.34</ele>
        <time>2021-08-16T12:53:26Z</time>
      </trkpt>
      <trkpt lat="44.98012" lon="1.97697">
        <ele>555.78</ele>
        <time>2021-08-16T12:53:36Z</time>
      </trkpt>
      <trkpt lat="44.97988" lon="1.97686">
        <ele>558.18</ele>
        <time>2021-08-16T12:53:46Z</time>
      </trkpt>
      <trkpt lat="44.97968" lon="1.97671">
        <ele>558.66</ele>
        <time>2021-08-16T12:53:55Z</time>
      </trkpt>
      <trkpt lat="44.97945" lon="1.9765">
        <ele>559.14</ele>
        <time>2021-08-16T12:54:03Z</time>
      </trkpt>
      <trkpt lat="44.97926" lon="1.97633">
        <ele>558.18</ele>
        <time>2021-08-16T12:54:08Z</time>
      </trkpt>
      <trkpt lat="44.97878" lon="1.97589">
        <ele>556.26</ele>
        <time>2021-08-16T12:54:19Z</time>
      </trkpt>
      <trkpt lat="44.97837" lon="1.97553">
        <ele>555.78</ele>
        <time>2021-08-16T12:54:28Z</time>
      </trkpt>
      <trkpt lat="44.97801" lon="1.97518">
        <ele>555.78</ele>
        <time>2021-08-16T12:54:37Z</time>
      </trkpt>
      <trkpt lat="44.97768" lon="1.97488">
        <ele>556.74</ele>
        <time>2021-08-16T12:54:45Z</time>
      </trkpt>
      <trkpt lat="44.97747" lon="1.97468">
        <ele>556.74</ele>
        <time>2021-08-16T12:54:50Z</time>
      </trkpt>
      <trkpt lat="44.97743" lon="1.97464">
        <ele>556.74</ele>
        <time>2021-08-16T12:54:51Z</time>
      </trkpt>
      <trkpt lat="44.97703" lon="1.97424">
        <ele>558.18</ele>
        <time>2021-08-16T12:55:01Z</time>
      </trkpt>
      <trkpt lat="44.97699" lon="1.97419">
        <ele>558.18</ele>
        <time>2021-08-16T12:55:02Z</time>
      </trkpt>
      <trkpt lat="44.97696" lon="1.97414">
        <ele>558.18</ele>
        <time>2021-08-16T12:55:03Z</time>
      </trkpt>
      <trkpt lat="44.97688" lon="1.97397">
        <ele>558.18</ele>
        <time>2021-08-16T12:55:06Z</time>
      </trkpt>
      <trkpt lat="44.97686" lon="1.97392">
        <ele>558.18</ele>
        <time>2021-08-16T12:55:07Z</time>
      </trkpt>
      <trkpt lat="44.9768" lon="1.97368">
        <ele>557.7</ele>
        <time>2021-08-16T12:55:11Z</time>
      </trkpt>
      <trkpt lat="44.97674" lon="1.97322">
        <ele>557.7</ele>
        <time>2021-08-16T12:55:18Z</time>
      </trkpt>
      <trkpt lat="44.9767" lon="1.97291">
        <ele>556.74</ele>
        <time>2021-08-16T12:55:22Z</time>
      </trkpt>
      <trkpt lat="44.97658" lon="1.97212">
        <ele>554.34</ele>
        <time>2021-08-16T12:55:31Z</time>
      </trkpt>
      <trkpt lat="44.97651" lon="1.97156">
        <ele>554.34</ele>
        <time>2021-08-16T12:55:38Z</time>
      </trkpt>
      <trkpt lat="44.97641" lon="1.97098">
        <ele>554.34</ele>
        <time>2021-08-16T12:55:46Z</time>
      </trkpt>
      <trkpt lat="44.97635" lon="1.97034">
        <ele>555.3</ele>
        <time>2021-08-16T12:55:55Z</time>
      </trkpt>
      <trkpt lat="44.97639" lon="1.96977">
        <ele>555.78</ele>
        <time>2021-08-16T12:56:04Z</time>
      </trkpt>
      <trkpt lat="44.9764" lon="1.96963">
        <ele>555.78</ele>
        <time>2021-08-16T12:56:06Z</time>
      </trkpt>
      <trkpt lat="44.97647" lon="1.96895">
        <ele>554.82</ele>
        <time>2021-08-16T12:56:15Z</time>
      </trkpt>
      <trkpt lat="44.97648" lon="1.96887">
        <ele>554.34</ele>
        <time>2021-08-16T12:56:16Z</time>
      </trkpt>
      <trkpt lat="44.97655" lon="1.96817">
        <ele>553.38</ele>
        <time>2021-08-16T12:56:25Z</time>
      </trkpt>
      <trkpt lat="44.97656" lon="1.9681">
        <ele>553.38</ele>
        <time>2021-08-16T12:56:26Z</time>
      </trkpt>
      <trkpt lat="44.97664" lon="1.96737">
        <ele>552.41</ele>
        <time>2021-08-16T12:56:35Z</time>
      </trkpt>
      <trkpt lat="44.97671" lon="1.96666">
        <ele>551.45</ele>
        <time>2021-08-16T12:56:43Z</time>
      </trkpt>
      <trkpt lat="44.97671" lon="1.96639">
        <ele>550.97</ele>
        <time>2021-08-16T12:56:46Z</time>
      </trkpt>
      <trkpt lat="44.97669" lon="1.9663">
        <ele>550.97</ele>
        <time>2021-08-16T12:56:47Z</time>
      </trkpt>
      <trkpt lat="44.97667" lon="1.96623">
        <ele>550.97</ele>
        <time>2021-08-16T12:56:48Z</time>
      </trkpt>
      <trkpt lat="44.9765" lon="1.96583">
        <ele>550.97</ele>
        <time>2021-08-16T12:56:55Z</time>
      </trkpt>
      <trkpt lat="44.97641" lon="1.96563">
        <ele>552.41</ele>
        <time>2021-08-16T12:56:59Z</time>
      </trkpt>
      <trkpt lat="44.97622" lon="1.96518">
        <ele>552.9</ele>
        <time>2021-08-16T12:57:08Z</time>
      </trkpt>
      <trkpt lat="44.97609" lon="1.96489">
        <ele>554.34</ele>
        <time>2021-08-16T12:57:16Z</time>
      </trkpt>
      <trkpt lat="44.97598" lon="1.96465">
        <ele>556.26</ele>
        <time>2021-08-16T12:57:24Z</time>
      </trkpt>
      <trkpt lat="44.97581" lon="1.96429">
        <ele>557.7</ele>
        <time>2021-08-16T12:57:34Z</time>
      </trkpt>
      <trkpt lat="44.97557" lon="1.96374">
        <ele>558.18</ele>
        <time>2021-08-16T12:57:46Z</time>
      </trkpt>
      <trkpt lat="44.97546" lon="1.96335">
        <ele>557.22</ele>
        <time>2021-08-16T12:57:52Z</time>
      </trkpt>
      <trkpt lat="44.97543" lon="1.96321">
        <ele>557.22</ele>
        <time>2021-08-16T12:57:54Z</time>
      </trkpt>
      <trkpt lat="44.97533" lon="1.96256">
        <ele>554.82</ele>
        <time>2021-08-16T12:58:03Z</time>
      </trkpt>
      <trkpt lat="44.97523" lon="1.96197">
        <ele>553.38</ele>
        <time>2021-08-16T12:58:10Z</time>
      </trkpt>
      <trkpt lat="44.97509" lon="1.96115">
        <ele>551.45</ele>
        <time>2021-08-16T12:58:19Z</time>
      </trkpt>
      <trkpt lat="44.97493" lon="1.96056">
        <ele>550.97</ele>
        <time>2021-08-16T12:58:26Z</time>
      </trkpt>
      <trkpt lat="44.97477" lon="1.96028">
        <ele>550.97</ele>
        <time>2021-08-16T12:58:30Z</time>
      </trkpt>
      <trkpt lat="44.9743" lon="1.95977">
        <ele>550.97</ele>
        <time>2021-08-16T12:58:40Z</time>
      </trkpt>
      <trkpt lat="44.97425" lon="1.95972">
        <ele>550.97</ele>
        <time>2021-08-16T12:58:41Z</time>
      </trkpt>
      <trkpt lat="44.97371" lon="1.95924">
        <ele>550.97</ele>
        <time>2021-08-16T12:58:52Z</time>
      </trkpt>
      <trkpt lat="44.97323" lon="1.95881">
        <ele>550.49</ele>
        <time>2021-08-16T12:59:01Z</time>
      </trkpt>
      <trkpt lat="44.97272" lon="1.9584">
        <ele>549.53</ele>
        <time>2021-08-16T12:59:10Z</time>
      </trkpt>
      <trkpt lat="44.97214" lon="1.95813">
        <ele>548.57</ele>
        <time>2021-08-16T12:59:19Z</time>
      </trkpt>
      <trkpt lat="44.97142" lon="1.9578">
        <ele>547.61</ele>
        <time>2021-08-16T12:59:31Z</time>
      </trkpt>
      <trkpt lat="44.97103" lon="1.95761">
        <ele>547.61</ele>
        <time>2021-08-16T12:59:38Z</time>
      </trkpt>
      <trkpt lat="44.97087" lon="1.95754">
        <ele>547.13</ele>
        <time>2021-08-16T12:59:41Z</time>
      </trkpt>
      <trkpt lat="44.97072" lon="1.95746">
        <ele>546.65</ele>
        <time>2021-08-16T12:59:44Z</time>
      </trkpt>
      <trkpt lat="44.97028" lon="1.95724">
        <ele>544.72</ele>
        <time>2021-08-16T12:59:52Z</time>
      </trkpt>
      <trkpt lat="44.97023" lon="1.9572">
        <ele>543.76</ele>
        <time>2021-08-16T12:59:53Z</time>
      </trkpt>
      <trkpt lat="44.96976" lon="1.95688">
        <ele>541.36</ele>
        <time>2021-08-16T13:00:00Z</time>
      </trkpt>
      <trkpt lat="44.96939" lon="1.95655">
        <ele>538.48</ele>
        <time>2021-08-16T13:00:05Z</time>
      </trkpt>
      <trkpt lat="44.96932" lon="1.95646">
        <ele>537.99</ele>
        <time>2021-08-16T13:00:06Z</time>
      </trkpt>
      <trkpt lat="44.96926" lon="1.95636">
        <ele>537.51</ele>
        <time>2021-08-16T13:00:07Z</time>
      </trkpt>
      <trkpt lat="44.96922" lon="1.95625">
        <ele>537.51</ele>
        <time>2021-08-16T13:00:08Z</time>
      </trkpt>
      <trkpt lat="44.96918" lon="1.95612">
        <ele>537.03</ele>
        <time>2021-08-16T13:00:09Z</time>
      </trkpt>
      <trkpt lat="44.96917" lon="1.956">
        <ele>536.55</ele>
        <time>2021-08-16T13:00:10Z</time>
      </trkpt>
      <trkpt lat="44.96917" lon="1.95586">
        <ele>536.07</ele>
        <time>2021-08-16T13:00:11Z</time>
      </trkpt>
      <trkpt lat="44.96918" lon="1.95573">
        <ele>536.07</ele>
        <time>2021-08-16T13:00:12Z</time>
      </trkpt>
      <trkpt lat="44.96921" lon="1.9556">
        <ele>535.11</ele>
        <time>2021-08-16T13:00:13Z</time>
      </trkpt>
      <trkpt lat="44.96923" lon="1.95548">
        <ele>534.63</ele>
        <time>2021-08-16T13:00:14Z</time>
      </trkpt>
      <trkpt lat="44.96933" lon="1.95511">
        <ele>533.19</ele>
        <time>2021-08-16T13:00:17Z</time>
      </trkpt>
      <trkpt lat="44.96945" lon="1.95476">
        <ele>531.75</ele>
        <time>2021-08-16T13:00:20Z</time>
      </trkpt>
      <trkpt lat="44.96956" lon="1.95455">
        <ele>530.79</ele>
        <time>2021-08-16T13:00:22Z</time>
      </trkpt>
      <trkpt lat="44.96996" lon="1.95401">
        <ele>527.9</ele>
        <time>2021-08-16T13:00:28Z</time>
      </trkpt>
      <trkpt lat="44.97007" lon="1.95381">
        <ele>526.94</ele>
        <time>2021-08-16T13:00:30Z</time>
      </trkpt>
      <trkpt lat="44.9701" lon="1.95369">
        <ele>526.46</ele>
        <time>2021-08-16T13:00:31Z</time>
      </trkpt>
      <trkpt lat="44.97013" lon="1.95356">
        <ele>525.5</ele>
        <time>2021-08-16T13:00:32Z</time>
      </trkpt>
      <trkpt lat="44.97014" lon="1.95344">
        <ele>525.5</ele>
        <time>2021-08-16T13:00:33Z</time>
      </trkpt>
      <trkpt lat="44.97015" lon="1.95331">
        <ele>524.54</ele>
        <time>2021-08-16T13:00:34Z</time>
      </trkpt>
      <trkpt lat="44.97022" lon="1.9525">
        <ele>521.65</ele>
        <time>2021-08-16T13:00:40Z</time>
      </trkpt>
      <trkpt lat="44.97022" lon="1.95182">
        <ele>518.29</ele>
        <time>2021-08-16T13:00:45Z</time>
      </trkpt>
      <trkpt lat="44.97023" lon="1.95155">
        <ele>516.85</ele>
        <time>2021-08-16T13:00:47Z</time>
      </trkpt>
      <trkpt lat="44.97025" lon="1.95141">
        <ele>516.85</ele>
        <time>2021-08-16T13:00:48Z</time>
      </trkpt>
      <trkpt lat="44.97027" lon="1.95127">
        <ele>515.88</ele>
        <time>2021-08-16T13:00:49Z</time>
      </trkpt>
      <trkpt lat="44.9703" lon="1.95113">
        <ele>514.92</ele>
        <time>2021-08-16T13:00:50Z</time>
      </trkpt>
      <trkpt lat="44.97034" lon="1.95102">
        <ele>514.92</ele>
        <time>2021-08-16T13:00:51Z</time>
      </trkpt>
      <trkpt lat="44.9704" lon="1.95089">
        <ele>513.96</ele>
        <time>2021-08-16T13:00:52Z</time>
      </trkpt>
      <trkpt lat="44.97046" lon="1.95075">
        <ele>513.48</ele>
        <time>2021-08-16T13:00:53Z</time>
      </trkpt>
      <trkpt lat="44.97081" lon="1.95007">
        <ele>510.12</ele>
        <time>2021-08-16T13:00:59Z</time>
      </trkpt>
      <trkpt lat="44.97101" lon="1.94953">
        <ele>506.75</ele>
        <time>2021-08-16T13:01:03Z</time>
      </trkpt>
      <trkpt lat="44.97115" lon="1.9491">
        <ele>503.39</ele>
        <time>2021-08-16T13:01:06Z</time>
      </trkpt>
      <trkpt lat="44.97128" lon="1.94883">
        <ele>501.95</ele>
        <time>2021-08-16T13:01:08Z</time>
      </trkpt>
      <trkpt lat="44.97136" lon="1.94872">
        <ele>500.98</ele>
        <time>2021-08-16T13:01:09Z</time>
      </trkpt>
      <trkpt lat="44.97144" lon="1.94863">
        <ele>500.5</ele>
        <time>2021-08-16T13:01:10Z</time>
      </trkpt>
      <trkpt lat="44.97164" lon="1.94847">
        <ele>498.58</ele>
        <time>2021-08-16T13:01:12Z</time>
      </trkpt>
      <trkpt lat="44.97174" lon="1.9484">
        <ele>498.1</ele>
        <time>2021-08-16T13:01:13Z</time>
      </trkpt>
      <trkpt lat="44.97183" lon="1.94832">
        <ele>497.62</ele>
        <time>2021-08-16T13:01:14Z</time>
      </trkpt>
      <trkpt lat="44.97192" lon="1.94823">
        <ele>496.66</ele>
        <time>2021-08-16T13:01:15Z</time>
      </trkpt>
      <trkpt lat="44.97201" lon="1.94813">
        <ele>496.18</ele>
        <time>2021-08-16T13:01:16Z</time>
      </trkpt>
      <trkpt lat="44.97208" lon="1.94801">
        <ele>494.74</ele>
        <time>2021-08-16T13:01:17Z</time>
      </trkpt>
      <trkpt lat="44.97214" lon="1.94788">
        <ele>494.26</ele>
        <time>2021-08-16T13:01:18Z</time>
      </trkpt>
      <trkpt lat="44.97219" lon="1.94773">
        <ele>493.29</ele>
        <time>2021-08-16T13:01:19Z</time>
      </trkpt>
      <trkpt lat="44.97223" lon="1.94759">
        <ele>492.33</ele>
        <time>2021-08-16T13:01:20Z</time>
      </trkpt>
      <trkpt lat="44.97227" lon="1.94743">
        <ele>490.89</ele>
        <time>2021-08-16T13:01:21Z</time>
      </trkpt>
      <trkpt lat="44.9723" lon="1.94728">
        <ele>491.37</ele>
        <time>2021-08-16T13:01:22Z</time>
      </trkpt>
      <trkpt lat="44.97241" lon="1.94664">
        <ele>488.01</ele>
        <time>2021-08-16T13:01:26Z</time>
      </trkpt>
      <trkpt lat="44.97252" lon="1.94599">
        <ele>484.64</ele>
        <time>2021-08-16T13:01:30Z</time>
      </trkpt>
      <trkpt lat="44.97263" lon="1.94531">
        <ele>481.28</ele>
        <time>2021-08-16T13:01:34Z</time>
      </trkpt>
      <trkpt lat="44.97274" lon="1.94465">
        <ele>477.91</ele>
        <time>2021-08-16T13:01:38Z</time>
      </trkpt>
      <trkpt lat="44.9728" lon="1.94412">
        <ele>475.03</ele>
        <time>2021-08-16T13:01:41Z</time>
      </trkpt>
      <trkpt lat="44.97284" lon="1.94342">
        <ele>471.66</ele>
        <time>2021-08-16T13:01:45Z</time>
      </trkpt>
      <trkpt lat="44.97286" lon="1.94275">
        <ele>467.82</ele>
        <time>2021-08-16T13:01:49Z</time>
      </trkpt>
      <trkpt lat="44.97284" lon="1.9426">
        <ele>467.34</ele>
        <time>2021-08-16T13:01:50Z</time>
      </trkpt>
      <trkpt lat="44.97279" lon="1.94245">
        <ele>465.9</ele>
        <time>2021-08-16T13:01:51Z</time>
      </trkpt>
      <trkpt lat="44.97273" lon="1.94232">
        <ele>464.93</ele>
        <time>2021-08-16T13:01:52Z</time>
      </trkpt>
      <trkpt lat="44.97266" lon="1.94218">
        <ele>463.49</ele>
        <time>2021-08-16T13:01:53Z</time>
      </trkpt>
      <trkpt lat="44.97258" lon="1.94206">
        <ele>462.53</ele>
        <time>2021-08-16T13:01:54Z</time>
      </trkpt>
      <trkpt lat="44.97249" lon="1.94197">
        <ele>461.57</ele>
        <time>2021-08-16T13:01:55Z</time>
      </trkpt>
      <trkpt lat="44.97238" lon="1.94186">
        <ele>460.61</ele>
        <time>2021-08-16T13:01:56Z</time>
      </trkpt>
      <trkpt lat="44.97209" lon="1.94161">
        <ele>457.24</ele>
        <time>2021-08-16T13:01:59Z</time>
      </trkpt>
      <trkpt lat="44.97169" lon="1.94125">
        <ele>453.4</ele>
        <time>2021-08-16T13:02:03Z</time>
      </trkpt>
      <trkpt lat="44.97154" lon="1.94109">
        <ele>451.48</ele>
        <time>2021-08-16T13:02:05Z</time>
      </trkpt>
      <trkpt lat="44.97148" lon="1.941">
        <ele>451</ele>
        <time>2021-08-16T13:02:06Z</time>
      </trkpt>
      <trkpt lat="44.97145" lon="1.94092">
        <ele>450.52</ele>
        <time>2021-08-16T13:02:07Z</time>
      </trkpt>
      <trkpt lat="44.97142" lon="1.94083">
        <ele>450.03</ele>
        <time>2021-08-16T13:02:08Z</time>
      </trkpt>
      <trkpt lat="44.9714" lon="1.94073">
        <ele>449.07</ele>
        <time>2021-08-16T13:02:09Z</time>
      </trkpt>
      <trkpt lat="44.9714" lon="1.94064">
        <ele>448.59</ele>
        <time>2021-08-16T13:02:10Z</time>
      </trkpt>
      <trkpt lat="44.97138" lon="1.94042">
        <ele>447.63</ele>
        <time>2021-08-16T13:02:12Z</time>
      </trkpt>
      <trkpt lat="44.97136" lon="1.94033">
        <ele>447.63</ele>
        <time>2021-08-16T13:02:13Z</time>
      </trkpt>
      <trkpt lat="44.97133" lon="1.94024">
        <ele>447.63</ele>
        <time>2021-08-16T13:02:14Z</time>
      </trkpt>
      <trkpt lat="44.9713" lon="1.94015">
        <ele>447.15</ele>
        <time>2021-08-16T13:02:15Z</time>
      </trkpt>
      <trkpt lat="44.97126" lon="1.94005">
        <ele>447.15</ele>
        <time>2021-08-16T13:02:16Z</time>
      </trkpt>
      <trkpt lat="44.97122" lon="1.93998">
        <ele>447.15</ele>
        <time>2021-08-16T13:02:17Z</time>
      </trkpt>
      <trkpt lat="44.97099" lon="1.93961">
        <ele>445.71</ele>
        <time>2021-08-16T13:02:22Z</time>
      </trkpt>
      <trkpt lat="44.97062" lon="1.93906">
        <ele>443.79</ele>
        <time>2021-08-16T13:02:29Z</time>
      </trkpt>
      <trkpt lat="44.97055" lon="1.939">
        <ele>442.82</ele>
        <time>2021-08-16T13:02:30Z</time>
      </trkpt>
      <trkpt lat="44.97048" lon="1.93896">
        <ele>442.82</ele>
        <time>2021-08-16T13:02:31Z</time>
      </trkpt>
      <trkpt lat="44.97039" lon="1.93894">
        <ele>442.34</ele>
        <time>2021-08-16T13:02:32Z</time>
      </trkpt>
      <trkpt lat="44.9703" lon="1.93895">
        <ele>442.34</ele>
        <time>2021-08-16T13:02:33Z</time>
      </trkpt>
      <trkpt lat="44.97022" lon="1.93897">
        <ele>441.86</ele>
        <time>2021-08-16T13:02:34Z</time>
      </trkpt>
      <trkpt lat="44.96969" lon="1.93901">
        <ele>439.94</ele>
        <time>2021-08-16T13:02:40Z</time>
      </trkpt>
      <trkpt lat="44.96952" lon="1.93897">
        <ele>438.98</ele>
        <time>2021-08-16T13:02:42Z</time>
      </trkpt>
      <trkpt lat="44.96945" lon="1.93894">
        <ele>438.98</ele>
        <time>2021-08-16T13:02:43Z</time>
      </trkpt>
      <trkpt lat="44.96929" lon="1.93888">
        <ele>438.98</ele>
        <time>2021-08-16T13:02:45Z</time>
      </trkpt>
      <trkpt lat="44.9692" lon="1.93888">
        <ele>438.5</ele>
        <time>2021-08-16T13:02:46Z</time>
      </trkpt>
      <trkpt lat="44.96914" lon="1.93893">
        <ele>438.5</ele>
        <time>2021-08-16T13:02:47Z</time>
      </trkpt>
      <trkpt lat="44.96909" lon="1.93901">
        <ele>437.54</ele>
        <time>2021-08-16T13:02:48Z</time>
      </trkpt>
      <trkpt lat="44.96904" lon="1.93911">
        <ele>437.54</ele>
        <time>2021-08-16T13:02:49Z</time>
      </trkpt>
      <trkpt lat="44.96901" lon="1.93921">
        <ele>437.06</ele>
        <time>2021-08-16T13:02:50Z</time>
      </trkpt>
      <trkpt lat="44.96897" lon="1.93931">
        <ele>437.06</ele>
        <time>2021-08-16T13:02:51Z</time>
      </trkpt>
      <trkpt lat="44.96893" lon="1.93942">
        <ele>436.1</ele>
        <time>2021-08-16T13:02:52Z</time>
      </trkpt>
      <trkpt lat="44.96887" lon="1.9395">
        <ele>435.61</ele>
        <time>2021-08-16T13:02:53Z</time>
      </trkpt>
      <trkpt lat="44.96881" lon="1.93957">
        <ele>435.13</ele>
        <time>2021-08-16T13:02:54Z</time>
      </trkpt>
      <trkpt lat="44.96875" lon="1.93963">
        <ele>435.13</ele>
        <time>2021-08-16T13:02:55Z</time>
      </trkpt>
      <trkpt lat="44.96867" lon="1.9397">
        <ele>434.65</ele>
        <time>2021-08-16T13:02:56Z</time>
      </trkpt>
      <trkpt lat="44.96838" lon="1.93992">
        <ele>433.21</ele>
        <time>2021-08-16T13:03:00Z</time>
      </trkpt>
      <trkpt lat="44.96822" lon="1.94002">
        <ele>432.25</ele>
        <time>2021-08-16T13:03:02Z</time>
      </trkpt>
      <trkpt lat="44.96813" lon="1.94005">
        <ele>431.77</ele>
        <time>2021-08-16T13:03:03Z</time>
      </trkpt>
      <trkpt lat="44.96805" lon="1.94008">
        <ele>431.77</ele>
        <time>2021-08-16T13:03:04Z</time>
      </trkpt>
      <trkpt lat="44.96736" lon="1.9402">
        <ele>429.37</ele>
        <time>2021-08-16T13:03:12Z</time>
      </trkpt>
      <trkpt lat="44.96681" lon="1.94015">
        <ele>427.44</ele>
        <time>2021-08-16T13:03:18Z</time>
      </trkpt>
      <trkpt lat="44.96645" lon="1.94014">
        <ele>426</ele>
        <time>2021-08-16T13:03:22Z</time>
      </trkpt>
      <trkpt lat="44.96579" lon="1.94023">
        <ele>423.6</ele>
        <time>2021-08-16T13:03:29Z</time>
      </trkpt>
      <trkpt lat="44.96505" lon="1.94015">
        <ele>420.23</ele>
        <time>2021-08-16T13:03:37Z</time>
      </trkpt>
      <trkpt lat="44.96432" lon="1.93998">
        <ele>417.83</ele>
        <time>2021-08-16T13:03:45Z</time>
      </trkpt>
      <trkpt lat="44.96424" lon="1.93993">
        <ele>417.83</ele>
        <time>2021-08-16T13:03:46Z</time>
      </trkpt>
      <trkpt lat="44.96416" lon="1.93986">
        <ele>416.87</ele>
        <time>2021-08-16T13:03:47Z</time>
      </trkpt>
      <trkpt lat="44.96409" lon="1.93978">
        <ele>416.39</ele>
        <time>2021-08-16T13:03:48Z</time>
      </trkpt>
      <trkpt lat="44.96403" lon="1.93967">
        <ele>416.39</ele>
        <time>2021-08-16T13:03:49Z</time>
      </trkpt>
      <trkpt lat="44.96399" lon="1.93956">
        <ele>415.91</ele>
        <time>2021-08-16T13:03:50Z</time>
      </trkpt>
      <trkpt lat="44.96396" lon="1.93945">
        <ele>415.43</ele>
        <time>2021-08-16T13:03:51Z</time>
      </trkpt>
      <trkpt lat="44.96388" lon="1.93923">
        <ele>414.95</ele>
        <time>2021-08-16T13:03:53Z</time>
      </trkpt>
      <trkpt lat="44.96383" lon="1.93914">
        <ele>414.47</ele>
        <time>2021-08-16T13:03:54Z</time>
      </trkpt>
      <trkpt lat="44.96355" lon="1.93857">
        <ele>412.54</ele>
        <time>2021-08-16T13:04:00Z</time>
      </trkpt>
      <trkpt lat="44.96352" lon="1.93847">
        <ele>412.54</ele>
        <time>2021-08-16T13:04:01Z</time>
      </trkpt>
      <trkpt lat="44.96352" lon="1.93836">
        <ele>411.58</ele>
        <time>2021-08-16T13:04:02Z</time>
      </trkpt>
      <trkpt lat="44.96354" lon="1.93824">
        <ele>411.58</ele>
        <time>2021-08-16T13:04:03Z</time>
      </trkpt>
      <trkpt lat="44.96358" lon="1.93815">
        <ele>411.1</ele>
        <time>2021-08-16T13:04:04Z</time>
      </trkpt>
      <trkpt lat="44.96363" lon="1.93806">
        <ele>411.1</ele>
        <time>2021-08-16T13:04:05Z</time>
      </trkpt>
      <trkpt lat="44.9637" lon="1.93799">
        <ele>410.62</ele>
        <time>2021-08-16T13:04:06Z</time>
      </trkpt>
      <trkpt lat="44.96376" lon="1.93793">
        <ele>410.62</ele>
        <time>2021-08-16T13:04:07Z</time>
      </trkpt>
      <trkpt lat="44.96383" lon="1.93786">
        <ele>410.14</ele>
        <time>2021-08-16T13:04:08Z</time>
      </trkpt>
      <trkpt lat="44.96389" lon="1.93779">
        <ele>409.66</ele>
        <time>2021-08-16T13:04:09Z</time>
      </trkpt>
      <trkpt lat="44.96395" lon="1.9377">
        <ele>409.66</ele>
        <time>2021-08-16T13:04:10Z</time>
      </trkpt>
      <trkpt lat="44.964" lon="1.93761">
        <ele>409.18</ele>
        <time>2021-08-16T13:04:11Z</time>
      </trkpt>
      <trkpt lat="44.96405" lon="1.93751">
        <ele>409.18</ele>
        <time>2021-08-16T13:04:12Z</time>
      </trkpt>
      <trkpt lat="44.96443" lon="1.93685">
        <ele>406.77</ele>
        <time>2021-08-16T13:04:19Z</time>
      </trkpt>
      <trkpt lat="44.96461" lon="1.93655">
        <ele>405.33</ele>
        <time>2021-08-16T13:04:22Z</time>
      </trkpt>
      <trkpt lat="44.96501" lon="1.93585">
        <ele>403.41</ele>
        <time>2021-08-16T13:04:29Z</time>
      </trkpt>
      <trkpt lat="44.96506" lon="1.93573">
        <ele>402.93</ele>
        <time>2021-08-16T13:04:30Z</time>
      </trkpt>
      <trkpt lat="44.96507" lon="1.93562">
        <ele>402.45</ele>
        <time>2021-08-16T13:04:31Z</time>
      </trkpt>
      <trkpt lat="44.96505" lon="1.9355">
        <ele>401.49</ele>
        <time>2021-08-16T13:04:32Z</time>
      </trkpt>
      <trkpt lat="44.965" lon="1.93541">
        <ele>401.49</ele>
        <time>2021-08-16T13:04:33Z</time>
      </trkpt>
      <trkpt lat="44.96491" lon="1.93536">
        <ele>401.01</ele>
        <time>2021-08-16T13:04:34Z</time>
      </trkpt>
      <trkpt lat="44.96483" lon="1.93535">
        <ele>401.01</ele>
        <time>2021-08-16T13:04:35Z</time>
      </trkpt>
      <trkpt lat="44.96474" lon="1.93537">
        <ele>401.01</ele>
        <time>2021-08-16T13:04:36Z</time>
      </trkpt>
      <trkpt lat="44.96465" lon="1.9354">
        <ele>400.05</ele>
        <time>2021-08-16T13:04:37Z</time>
      </trkpt>
      <trkpt lat="44.9643" lon="1.93548">
        <ele>398.12</ele>
        <time>2021-08-16T13:04:41Z</time>
      </trkpt>
      <trkpt lat="44.96356" lon="1.93561">
        <ele>395.72</ele>
        <time>2021-08-16T13:04:49Z</time>
      </trkpt>
      <trkpt lat="44.9629" lon="1.93575">
        <ele>393.32</ele>
        <time>2021-08-16T13:04:56Z</time>
      </trkpt>
      <trkpt lat="44.96207" lon="1.93602">
        <ele>390.43</ele>
        <time>2021-08-16T13:05:05Z</time>
      </trkpt>
      <trkpt lat="44.96189" lon="1.93608">
        <ele>389.47</ele>
        <time>2021-08-16T13:05:07Z</time>
      </trkpt>
      <trkpt lat="44.9618" lon="1.93608">
        <ele>388.99</ele>
        <time>2021-08-16T13:05:08Z</time>
      </trkpt>
      <trkpt lat="44.96171" lon="1.93605">
        <ele>388.51</ele>
        <time>2021-08-16T13:05:09Z</time>
      </trkpt>
      <trkpt lat="44.96164" lon="1.936">
        <ele>388.51</ele>
        <time>2021-08-16T13:05:10Z</time>
      </trkpt>
      <trkpt lat="44.96157" lon="1.93594">
        <ele>388.51</ele>
        <time>2021-08-16T13:05:11Z</time>
      </trkpt>
      <trkpt lat="44.96151" lon="1.93587">
        <ele>388.51</ele>
        <time>2021-08-16T13:05:12Z</time>
      </trkpt>
      <trkpt lat="44.96144" lon="1.93582">
        <ele>388.51</ele>
        <time>2021-08-16T13:05:13Z</time>
      </trkpt>
      <trkpt lat="44.96137" lon="1.93579">
        <ele>388.03</ele>
        <time>2021-08-16T13:05:14Z</time>
      </trkpt>
      <trkpt lat="44.96131" lon="1.93581">
        <ele>387.55</ele>
        <time>2021-08-16T13:05:15Z</time>
      </trkpt>
      <trkpt lat="44.96124" lon="1.93586">
        <ele>387.55</ele>
        <time>2021-08-16T13:05:16Z</time>
      </trkpt>
      <trkpt lat="44.96118" lon="1.93594">
        <ele>387.07</ele>
        <time>2021-08-16T13:05:17Z</time>
      </trkpt>
      <trkpt lat="44.96114" lon="1.93603">
        <ele>386.59</ele>
        <time>2021-08-16T13:05:18Z</time>
      </trkpt>
      <trkpt lat="44.96109" lon="1.93613">
        <ele>386.11</ele>
        <time>2021-08-16T13:05:19Z</time>
      </trkpt>
      <trkpt lat="44.96074" lon="1.93676">
        <ele>383.22</ele>
        <time>2021-08-16T13:05:26Z</time>
      </trkpt>
      <trkpt lat="44.96059" lon="1.93703">
        <ele>382.26</ele>
        <time>2021-08-16T13:05:29Z</time>
      </trkpt>
      <trkpt lat="44.96053" lon="1.9371">
        <ele>381.78</ele>
        <time>2021-08-16T13:05:30Z</time>
      </trkpt>
      <trkpt lat="44.96046" lon="1.93716">
        <ele>381.78</ele>
        <time>2021-08-16T13:05:31Z</time>
      </trkpt>
      <trkpt lat="44.9604" lon="1.9372">
        <ele>381.78</ele>
        <time>2021-08-16T13:05:32Z</time>
      </trkpt>
      <trkpt lat="44.96035" lon="1.93721">
        <ele>381.78</ele>
        <time>2021-08-16T13:05:33Z</time>
      </trkpt>
      <trkpt lat="44.96033" lon="1.93721">
        <ele>381.78</ele>
        <time>2021-08-16T13:05:34Z</time>
      </trkpt>
      <trkpt lat="44.96032" lon="1.9372">
        <ele>381.78</ele>
        <time>2021-08-16T13:05:40Z</time>
      </trkpt>
      <trkpt lat="44.96033" lon="1.93721">
        <ele>381.78</ele>
        <time>2021-08-16T13:05:59Z</time>
      </trkpt>
      <trkpt lat="44.96031" lon="1.93722">
        <ele>381.78</ele>
        <time>2021-08-16T13:06:06Z</time>
      </trkpt>
      <trkpt lat="44.96029" lon="1.93723">
        <ele>381.78</ele>
        <time>2021-08-16T13:06:07Z</time>
      </trkpt>
      <trkpt lat="44.96027" lon="1.93724">
        <ele>381.78</ele>
        <time>2021-08-16T13:06:08Z</time>
      </trkpt>
      <trkpt lat="44.96007" lon="1.93729">
        <ele>380.82</ele>
        <time>2021-08-16T13:06:14Z</time>
      </trkpt>
      <trkpt lat="44.96003" lon="1.93728">
        <ele>380.82</ele>
        <time>2021-08-16T13:06:15Z</time>
      </trkpt>
      <trkpt lat="44.95999" lon="1.93727">
        <ele>380.34</ele>
        <time>2021-08-16T13:06:16Z</time>
      </trkpt>
      <trkpt lat="44.95993" lon="1.93724">
        <ele>379.86</ele>
        <time>2021-08-16T13:06:17Z</time>
      </trkpt>
      <trkpt lat="44.95988" lon="1.93721">
        <ele>379.86</ele>
        <time>2021-08-16T13:06:18Z</time>
      </trkpt>
      <trkpt lat="44.95983" lon="1.93717">
        <ele>379.86</ele>
        <time>2021-08-16T13:06:19Z</time>
      </trkpt>
      <trkpt lat="44.95979" lon="1.93713">
        <ele>379.38</ele>
        <time>2021-08-16T13:06:20Z</time>
      </trkpt>
      <trkpt lat="44.95974" lon="1.93708">
        <ele>378.9</ele>
        <time>2021-08-16T13:06:21Z</time>
      </trkpt>
      <trkpt lat="44.95968" lon="1.93703">
        <ele>378.42</ele>
        <time>2021-08-16T13:06:22Z</time>
      </trkpt>
      <trkpt lat="44.95964" lon="1.93699">
        <ele>378.42</ele>
        <time>2021-08-16T13:06:23Z</time>
      </trkpt>
      <trkpt lat="44.95919" lon="1.93659">
        <ele>376.49</ele>
        <time>2021-08-16T13:06:31Z</time>
      </trkpt>
      <trkpt lat="44.95871" lon="1.93635">
        <ele>374.09</ele>
        <time>2021-08-16T13:06:38Z</time>
      </trkpt>
      <trkpt lat="44.9585" lon="1.93621">
        <ele>372.65</ele>
        <time>2021-08-16T13:06:41Z</time>
      </trkpt>
      <trkpt lat="44.95844" lon="1.93615">
        <ele>372.65</ele>
        <time>2021-08-16T13:06:42Z</time>
      </trkpt>
      <trkpt lat="44.95802" lon="1.9356">
        <ele>370.73</ele>
        <time>2021-08-16T13:06:49Z</time>
      </trkpt>
      <trkpt lat="44.95768" lon="1.93496">
        <ele>367.84</ele>
        <time>2021-08-16T13:06:56Z</time>
      </trkpt>
      <trkpt lat="44.95726" lon="1.93424">
        <ele>365.44</ele>
        <time>2021-08-16T13:07:04Z</time>
      </trkpt>
      <trkpt lat="44.95718" lon="1.93417">
        <ele>365.44</ele>
        <time>2021-08-16T13:07:05Z</time>
      </trkpt>
      <trkpt lat="44.9571" lon="1.93412">
        <ele>364.48</ele>
        <time>2021-08-16T13:07:06Z</time>
      </trkpt>
      <trkpt lat="44.95702" lon="1.93407">
        <ele>364</ele>
        <time>2021-08-16T13:07:07Z</time>
      </trkpt>
      <trkpt lat="44.95693" lon="1.93403">
        <ele>364</ele>
        <time>2021-08-16T13:07:08Z</time>
      </trkpt>
      <trkpt lat="44.95661" lon="1.93385">
        <ele>362.55</ele>
        <time>2021-08-16T13:07:12Z</time>
      </trkpt>
      <trkpt lat="44.95656" lon="1.93379">
        <ele>362.55</ele>
        <time>2021-08-16T13:07:13Z</time>
      </trkpt>
      <trkpt lat="44.95651" lon="1.93369">
        <ele>362.07</ele>
        <time>2021-08-16T13:07:14Z</time>
      </trkpt>
      <trkpt lat="44.95647" lon="1.9336">
        <ele>361.59</ele>
        <time>2021-08-16T13:07:15Z</time>
      </trkpt>
      <trkpt lat="44.95645" lon="1.93351">
        <ele>361.59</ele>
        <time>2021-08-16T13:07:16Z</time>
      </trkpt>
      <trkpt lat="44.95644" lon="1.93341">
        <ele>361.11</ele>
        <time>2021-08-16T13:07:17Z</time>
      </trkpt>
      <trkpt lat="44.95644" lon="1.93328">
        <ele>361.11</ele>
        <time>2021-08-16T13:07:18Z</time>
      </trkpt>
      <trkpt lat="44.95645" lon="1.93319">
        <ele>361.11</ele>
        <time>2021-08-16T13:07:19Z</time>
      </trkpt>
      <trkpt lat="44.95647" lon="1.93308">
        <ele>360.15</ele>
        <time>2021-08-16T13:07:20Z</time>
      </trkpt>
      <trkpt lat="44.9565" lon="1.93299">
        <ele>360.15</ele>
        <time>2021-08-16T13:07:21Z</time>
      </trkpt>
      <trkpt lat="44.95653" lon="1.9329">
        <ele>359.67</ele>
        <time>2021-08-16T13:07:22Z</time>
      </trkpt>
      <trkpt lat="44.95658" lon="1.93282">
        <ele>359.67</ele>
        <time>2021-08-16T13:07:23Z</time>
      </trkpt>
      <trkpt lat="44.95663" lon="1.93275">
        <ele>359.67</ele>
        <time>2021-08-16T13:07:24Z</time>
      </trkpt>
      <trkpt lat="44.95669" lon="1.93268">
        <ele>359.19</ele>
        <time>2021-08-16T13:07:25Z</time>
      </trkpt>
      <trkpt lat="44.95675" lon="1.93262">
        <ele>358.71</ele>
        <time>2021-08-16T13:07:26Z</time>
      </trkpt>
      <trkpt lat="44.95681" lon="1.93256">
        <ele>358.71</ele>
        <time>2021-08-16T13:07:27Z</time>
      </trkpt>
      <trkpt lat="44.9573" lon="1.93207">
        <ele>356.31</ele>
        <time>2021-08-16T13:07:35Z</time>
      </trkpt>
      <trkpt lat="44.95779" lon="1.93145">
        <ele>354.38</ele>
        <time>2021-08-16T13:07:43Z</time>
      </trkpt>
      <trkpt lat="44.95784" lon="1.93137">
        <ele>353.9</ele>
        <time>2021-08-16T13:07:44Z</time>
      </trkpt>
      <trkpt lat="44.9579" lon="1.93129">
        <ele>353.42</ele>
        <time>2021-08-16T13:07:45Z</time>
      </trkpt>
      <trkpt lat="44.95793" lon="1.93118">
        <ele>352.94</ele>
        <time>2021-08-16T13:07:46Z</time>
      </trkpt>
      <trkpt lat="44.95793" lon="1.93107">
        <ele>352.94</ele>
        <time>2021-08-16T13:07:47Z</time>
      </trkpt>
      <trkpt lat="44.95791" lon="1.93098">
        <ele>352.46</ele>
        <time>2021-08-16T13:07:48Z</time>
      </trkpt>
      <trkpt lat="44.95785" lon="1.93089">
        <ele>352.46</ele>
        <time>2021-08-16T13:07:49Z</time>
      </trkpt>
      <trkpt lat="44.95779" lon="1.93083">
        <ele>351.98</ele>
        <time>2021-08-16T13:07:50Z</time>
      </trkpt>
      <trkpt lat="44.95771" lon="1.93078">
        <ele>351.98</ele>
        <time>2021-08-16T13:07:51Z</time>
      </trkpt>
      <trkpt lat="44.95764" lon="1.93074">
        <ele>351.02</ele>
        <time>2021-08-16T13:07:52Z</time>
      </trkpt>
      <trkpt lat="44.95691" lon="1.93031">
        <ele>348.13</ele>
        <time>2021-08-16T13:08:01Z</time>
      </trkpt>
      <trkpt lat="44.95642" lon="1.93004">
        <ele>345.73</ele>
        <time>2021-08-16T13:08:07Z</time>
      </trkpt>
      <trkpt lat="44.95617" lon="1.92993">
        <ele>344.29</ele>
        <time>2021-08-16T13:08:10Z</time>
      </trkpt>
      <trkpt lat="44.95583" lon="1.92984">
        <ele>343.81</ele>
        <time>2021-08-16T13:08:14Z</time>
      </trkpt>
      <trkpt lat="44.95574" lon="1.92978">
        <ele>343.81</ele>
        <time>2021-08-16T13:08:15Z</time>
      </trkpt>
      <trkpt lat="44.95567" lon="1.92972">
        <ele>342.85</ele>
        <time>2021-08-16T13:08:16Z</time>
      </trkpt>
      <trkpt lat="44.95553" lon="1.9296">
        <ele>342.85</ele>
        <time>2021-08-16T13:08:18Z</time>
      </trkpt>
      <trkpt lat="44.95543" lon="1.92958">
        <ele>342.37</ele>
        <time>2021-08-16T13:08:19Z</time>
      </trkpt>
      <trkpt lat="44.95535" lon="1.92958">
        <ele>341.89</ele>
        <time>2021-08-16T13:08:20Z</time>
      </trkpt>
      <trkpt lat="44.95527" lon="1.92961">
        <ele>341.89</ele>
        <time>2021-08-16T13:08:21Z</time>
      </trkpt>
      <trkpt lat="44.95518" lon="1.92964">
        <ele>340.92</ele>
        <time>2021-08-16T13:08:22Z</time>
      </trkpt>
      <trkpt lat="44.9551" lon="1.92965">
        <ele>340.44</ele>
        <time>2021-08-16T13:08:23Z</time>
      </trkpt>
      <trkpt lat="44.95502" lon="1.92966">
        <ele>340.44</ele>
        <time>2021-08-16T13:08:24Z</time>
      </trkpt>
      <trkpt lat="44.95493" lon="1.92966">
        <ele>339.48</ele>
        <time>2021-08-16T13:08:25Z</time>
      </trkpt>
      <trkpt lat="44.95474" lon="1.92964">
        <ele>338.52</ele>
        <time>2021-08-16T13:08:27Z</time>
      </trkpt>
      <trkpt lat="44.95458" lon="1.92959">
        <ele>338.04</ele>
        <time>2021-08-16T13:08:29Z</time>
      </trkpt>
      <trkpt lat="44.9545" lon="1.92955">
        <ele>337.08</ele>
        <time>2021-08-16T13:08:30Z</time>
      </trkpt>
      <trkpt lat="44.95443" lon="1.9295">
        <ele>337.08</ele>
        <time>2021-08-16T13:08:31Z</time>
      </trkpt>
      <trkpt lat="44.95435" lon="1.92944">
        <ele>337.08</ele>
        <time>2021-08-16T13:08:32Z</time>
      </trkpt>
      <trkpt lat="44.95429" lon="1.92937">
        <ele>337.08</ele>
        <time>2021-08-16T13:08:33Z</time>
      </trkpt>
      <trkpt lat="44.95422" lon="1.92927">
        <ele>336.6</ele>
        <time>2021-08-16T13:08:34Z</time>
      </trkpt>
      <trkpt lat="44.95417" lon="1.92918">
        <ele>336.6</ele>
        <time>2021-08-16T13:08:35Z</time>
      </trkpt>
      <trkpt lat="44.95413" lon="1.92908">
        <ele>336.12</ele>
        <time>2021-08-16T13:08:36Z</time>
      </trkpt>
      <trkpt lat="44.95403" lon="1.9289">
        <ele>335.64</ele>
        <time>2021-08-16T13:08:38Z</time>
      </trkpt>
      <trkpt lat="44.95398" lon="1.92882">
        <ele>335.64</ele>
        <time>2021-08-16T13:08:39Z</time>
      </trkpt>
      <trkpt lat="44.95393" lon="1.92875">
        <ele>334.68</ele>
        <time>2021-08-16T13:08:40Z</time>
      </trkpt>
      <trkpt lat="44.95386" lon="1.92869">
        <ele>334.68</ele>
        <time>2021-08-16T13:08:41Z</time>
      </trkpt>
      <trkpt lat="44.95379" lon="1.92864">
        <ele>334.2</ele>
        <time>2021-08-16T13:08:42Z</time>
      </trkpt>
      <trkpt lat="44.95372" lon="1.9286">
        <ele>334.2</ele>
        <time>2021-08-16T13:08:43Z</time>
      </trkpt>
      <trkpt lat="44.95322" lon="1.92819">
        <ele>331.31</ele>
        <time>2021-08-16T13:08:50Z</time>
      </trkpt>
      <trkpt lat="44.95273" lon="1.92769">
        <ele>329.39</ele>
        <time>2021-08-16T13:08:57Z</time>
      </trkpt>
      <trkpt lat="44.95267" lon="1.9276">
        <ele>328.91</ele>
        <time>2021-08-16T13:08:58Z</time>
      </trkpt>
      <trkpt lat="44.95263" lon="1.9275">
        <ele>328.91</ele>
        <time>2021-08-16T13:08:59Z</time>
      </trkpt>
      <trkpt lat="44.9526" lon="1.92738">
        <ele>328.43</ele>
        <time>2021-08-16T13:09:00Z</time>
      </trkpt>
      <trkpt lat="44.95254" lon="1.92717">
        <ele>327.95</ele>
        <time>2021-08-16T13:09:02Z</time>
      </trkpt>
      <trkpt lat="44.95249" lon="1.92709">
        <ele>326.99</ele>
        <time>2021-08-16T13:09:03Z</time>
      </trkpt>
      <trkpt lat="44.95243" lon="1.92703">
        <ele>326.99</ele>
        <time>2021-08-16T13:09:04Z</time>
      </trkpt>
      <trkpt lat="44.95235" lon="1.92699">
        <ele>326.5</ele>
        <time>2021-08-16T13:09:05Z</time>
      </trkpt>
      <trkpt lat="44.95228" lon="1.92696">
        <ele>326.02</ele>
        <time>2021-08-16T13:09:06Z</time>
      </trkpt>
      <trkpt lat="44.95212" lon="1.92689">
        <ele>325.54</ele>
        <time>2021-08-16T13:09:08Z</time>
      </trkpt>
      <trkpt lat="44.95205" lon="1.92684">
        <ele>325.06</ele>
        <time>2021-08-16T13:09:09Z</time>
      </trkpt>
      <trkpt lat="44.95191" lon="1.92672">
        <ele>325.06</ele>
        <time>2021-08-16T13:09:11Z</time>
      </trkpt>
      <trkpt lat="44.95185" lon="1.92664">
        <ele>324.1</ele>
        <time>2021-08-16T13:09:12Z</time>
      </trkpt>
      <trkpt lat="44.95179" lon="1.92654">
        <ele>324.1</ele>
        <time>2021-08-16T13:09:13Z</time>
      </trkpt>
      <trkpt lat="44.95175" lon="1.92644">
        <ele>323.62</ele>
        <time>2021-08-16T13:09:14Z</time>
      </trkpt>
      <trkpt lat="44.95172" lon="1.92633">
        <ele>323.62</ele>
        <time>2021-08-16T13:09:15Z</time>
      </trkpt>
      <trkpt lat="44.9517" lon="1.92621">
        <ele>323.14</ele>
        <time>2021-08-16T13:09:16Z</time>
      </trkpt>
      <trkpt lat="44.95168" lon="1.92609">
        <ele>323.14</ele>
        <time>2021-08-16T13:09:17Z</time>
      </trkpt>
      <trkpt lat="44.95161" lon="1.92554">
        <ele>322.18</ele>
        <time>2021-08-16T13:09:22Z</time>
      </trkpt>
      <trkpt lat="44.95157" lon="1.92546">
        <ele>321.22</ele>
        <time>2021-08-16T13:09:23Z</time>
      </trkpt>
      <trkpt lat="44.95151" lon="1.9254">
        <ele>321.22</ele>
        <time>2021-08-16T13:09:24Z</time>
      </trkpt>
      <trkpt lat="44.95145" lon="1.92536">
        <ele>321.22</ele>
        <time>2021-08-16T13:09:25Z</time>
      </trkpt>
      <trkpt lat="44.95137" lon="1.92534">
        <ele>321.22</ele>
        <time>2021-08-16T13:09:26Z</time>
      </trkpt>
      <trkpt lat="44.9513" lon="1.92532">
        <ele>320.26</ele>
        <time>2021-08-16T13:09:27Z</time>
      </trkpt>
      <trkpt lat="44.95122" lon="1.92529">
        <ele>320.26</ele>
        <time>2021-08-16T13:09:28Z</time>
      </trkpt>
      <trkpt lat="44.95116" lon="1.92525">
        <ele>319.78</ele>
        <time>2021-08-16T13:09:29Z</time>
      </trkpt>
      <trkpt lat="44.95109" lon="1.9252">
        <ele>319.78</ele>
        <time>2021-08-16T13:09:30Z</time>
      </trkpt>
      <trkpt lat="44.95103" lon="1.92516">
        <ele>319.78</ele>
        <time>2021-08-16T13:09:31Z</time>
      </trkpt>
      <trkpt lat="44.95096" lon="1.92513">
        <ele>319.3</ele>
        <time>2021-08-16T13:09:32Z</time>
      </trkpt>
      <trkpt lat="44.95089" lon="1.92514">
        <ele>318.81</ele>
        <time>2021-08-16T13:09:33Z</time>
      </trkpt>
      <trkpt lat="44.95082" lon="1.92517">
        <ele>318.81</ele>
        <time>2021-08-16T13:09:34Z</time>
      </trkpt>
      <trkpt lat="44.95074" lon="1.92522">
        <ele>318.81</ele>
        <time>2021-08-16T13:09:35Z</time>
      </trkpt>
      <trkpt lat="44.95069" lon="1.92527">
        <ele>317.85</ele>
        <time>2021-08-16T13:09:36Z</time>
      </trkpt>
      <trkpt lat="44.95063" lon="1.92533">
        <ele>317.85</ele>
        <time>2021-08-16T13:09:37Z</time>
      </trkpt>
      <trkpt lat="44.9504" lon="1.92557">
        <ele>316.41</ele>
        <time>2021-08-16T13:09:41Z</time>
      </trkpt>
      <trkpt lat="44.95032" lon="1.92563">
        <ele>316.41</ele>
        <time>2021-08-16T13:09:42Z</time>
      </trkpt>
      <trkpt lat="44.95026" lon="1.92566">
        <ele>315.93</ele>
        <time>2021-08-16T13:09:43Z</time>
      </trkpt>
      <trkpt lat="44.9501" lon="1.9257">
        <ele>315.45</ele>
        <time>2021-08-16T13:09:45Z</time>
      </trkpt>
      <trkpt lat="44.95002" lon="1.92571">
        <ele>314.97</ele>
        <time>2021-08-16T13:09:46Z</time>
      </trkpt>
      <trkpt lat="44.94994" lon="1.92571">
        <ele>314.97</ele>
        <time>2021-08-16T13:09:47Z</time>
      </trkpt>
      <trkpt lat="44.94987" lon="1.92569">
        <ele>314.49</ele>
        <time>2021-08-16T13:09:48Z</time>
      </trkpt>
      <trkpt lat="44.9498" lon="1.92566">
        <ele>314.49</ele>
        <time>2021-08-16T13:09:49Z</time>
      </trkpt>
      <trkpt lat="44.94972" lon="1.9256">
        <ele>314.01</ele>
        <time>2021-08-16T13:09:50Z</time>
      </trkpt>
      <trkpt lat="44.94967" lon="1.92555">
        <ele>313.53</ele>
        <time>2021-08-16T13:09:51Z</time>
      </trkpt>
      <trkpt lat="44.94961" lon="1.92547">
        <ele>313.53</ele>
        <time>2021-08-16T13:09:52Z</time>
      </trkpt>
      <trkpt lat="44.94956" lon="1.9254">
        <ele>313.53</ele>
        <time>2021-08-16T13:09:53Z</time>
      </trkpt>
      <trkpt lat="44.94928" lon="1.92495">
        <ele>312.09</ele>
        <time>2021-08-16T13:09:59Z</time>
      </trkpt>
      <trkpt lat="44.94922" lon="1.9249">
        <ele>312.09</ele>
        <time>2021-08-16T13:10:00Z</time>
      </trkpt>
      <trkpt lat="44.94917" lon="1.92487">
        <ele>311.12</ele>
        <time>2021-08-16T13:10:01Z</time>
      </trkpt>
      <trkpt lat="44.94912" lon="1.92486">
        <ele>311.12</ele>
        <time>2021-08-16T13:10:02Z</time>
      </trkpt>
      <trkpt lat="44.94906" lon="1.92487">
        <ele>311.12</ele>
        <time>2021-08-16T13:10:03Z</time>
      </trkpt>
      <trkpt lat="44.94901" lon="1.92489">
        <ele>310.64</ele>
        <time>2021-08-16T13:10:04Z</time>
      </trkpt>
      <trkpt lat="44.94896" lon="1.92494">
        <ele>310.64</ele>
        <time>2021-08-16T13:10:05Z</time>
      </trkpt>
      <trkpt lat="44.94891" lon="1.92499">
        <ele>310.64</ele>
        <time>2021-08-16T13:10:06Z</time>
      </trkpt>
      <trkpt lat="44.94887" lon="1.92504">
        <ele>310.64</ele>
        <time>2021-08-16T13:10:07Z</time>
      </trkpt>
      <trkpt lat="44.94883" lon="1.92508">
        <ele>310.64</ele>
        <time>2021-08-16T13:10:08Z</time>
      </trkpt>
      <trkpt lat="44.94878" lon="1.92513">
        <ele>309.68</ele>
        <time>2021-08-16T13:10:09Z</time>
      </trkpt>
      <trkpt lat="44.94873" lon="1.92516">
        <ele>309.68</ele>
        <time>2021-08-16T13:10:10Z</time>
      </trkpt>
      <trkpt lat="44.94866" lon="1.92519">
        <ele>309.2</ele>
        <time>2021-08-16T13:10:11Z</time>
      </trkpt>
      <trkpt lat="44.9486" lon="1.92521">
        <ele>309.2</ele>
        <time>2021-08-16T13:10:12Z</time>
      </trkpt>
      <trkpt lat="44.94854" lon="1.92523">
        <ele>309.2</ele>
        <time>2021-08-16T13:10:13Z</time>
      </trkpt>
      <trkpt lat="44.94828" lon="1.9253">
        <ele>307.76</ele>
        <time>2021-08-16T13:10:17Z</time>
      </trkpt>
      <trkpt lat="44.94822" lon="1.92529">
        <ele>307.28</ele>
        <time>2021-08-16T13:10:18Z</time>
      </trkpt>
      <trkpt lat="44.94815" lon="1.92527">
        <ele>307.28</ele>
        <time>2021-08-16T13:10:19Z</time>
      </trkpt>
      <trkpt lat="44.94793" lon="1.92523">
        <ele>306.8</ele>
        <time>2021-08-16T13:10:22Z</time>
      </trkpt>
      <trkpt lat="44.94786" lon="1.92523">
        <ele>305.84</ele>
        <time>2021-08-16T13:10:23Z</time>
      </trkpt>
      <trkpt lat="44.94779" lon="1.92525">
        <ele>305.84</ele>
        <time>2021-08-16T13:10:24Z</time>
      </trkpt>
      <trkpt lat="44.94772" lon="1.92529">
        <ele>305.36</ele>
        <time>2021-08-16T13:10:25Z</time>
      </trkpt>
      <trkpt lat="44.94765" lon="1.92533">
        <ele>304.88</ele>
        <time>2021-08-16T13:10:26Z</time>
      </trkpt>
      <trkpt lat="44.94759" lon="1.92539">
        <ele>304.39</ele>
        <time>2021-08-16T13:10:27Z</time>
      </trkpt>
      <trkpt lat="44.94752" lon="1.92545">
        <ele>304.39</ele>
        <time>2021-08-16T13:10:28Z</time>
      </trkpt>
      <trkpt lat="44.94746" lon="1.92552">
        <ele>304.39</ele>
        <time>2021-08-16T13:10:29Z</time>
      </trkpt>
      <trkpt lat="44.94741" lon="1.9256">
        <ele>303.91</ele>
        <time>2021-08-16T13:10:30Z</time>
      </trkpt>
      <trkpt lat="44.94736" lon="1.92568">
        <ele>303.43</ele>
        <time>2021-08-16T13:10:31Z</time>
      </trkpt>
      <trkpt lat="44.94731" lon="1.92576">
        <ele>303.43</ele>
        <time>2021-08-16T13:10:32Z</time>
      </trkpt>
      <trkpt lat="44.94722" lon="1.9259">
        <ele>302.95</ele>
        <time>2021-08-16T13:10:34Z</time>
      </trkpt>
      <trkpt lat="44.94716" lon="1.92595">
        <ele>302.47</ele>
        <time>2021-08-16T13:10:35Z</time>
      </trkpt>
      <trkpt lat="44.9471" lon="1.92599">
        <ele>301.99</ele>
        <time>2021-08-16T13:10:36Z</time>
      </trkpt>
      <trkpt lat="44.94704" lon="1.92602">
        <ele>301.99</ele>
        <time>2021-08-16T13:10:37Z</time>
      </trkpt>
      <trkpt lat="44.94697" lon="1.92605">
        <ele>301.51</ele>
        <time>2021-08-16T13:10:38Z</time>
      </trkpt>
      <trkpt lat="44.94627" lon="1.92625">
        <ele>298.63</ele>
        <time>2021-08-16T13:10:48Z</time>
      </trkpt>
      <trkpt lat="44.94614" lon="1.92628">
        <ele>298.15</ele>
        <time>2021-08-16T13:10:50Z</time>
      </trkpt>
      <trkpt lat="44.94607" lon="1.92627">
        <ele>298.15</ele>
        <time>2021-08-16T13:10:51Z</time>
      </trkpt>
      <trkpt lat="44.94601" lon="1.92625">
        <ele>297.67</ele>
        <time>2021-08-16T13:10:52Z</time>
      </trkpt>
      <trkpt lat="44.94595" lon="1.92622">
        <ele>297.67</ele>
        <time>2021-08-16T13:10:53Z</time>
      </trkpt>
      <trkpt lat="44.9459" lon="1.92617">
        <ele>297.67</ele>
        <time>2021-08-16T13:10:54Z</time>
      </trkpt>
      <trkpt lat="44.94586" lon="1.92612">
        <ele>297.18</ele>
        <time>2021-08-16T13:10:55Z</time>
      </trkpt>
      <trkpt lat="44.94582" lon="1.92605">
        <ele>296.7</ele>
        <time>2021-08-16T13:10:56Z</time>
      </trkpt>
      <trkpt lat="44.94578" lon="1.92597">
        <ele>296.7</ele>
        <time>2021-08-16T13:10:57Z</time>
      </trkpt>
      <trkpt lat="44.94571" lon="1.92582">
        <ele>295.74</ele>
        <time>2021-08-16T13:10:59Z</time>
      </trkpt>
      <trkpt lat="44.94567" lon="1.92575">
        <ele>295.74</ele>
        <time>2021-08-16T13:11:00Z</time>
      </trkpt>
      <trkpt lat="44.94557" lon="1.92563">
        <ele>295.26</ele>
        <time>2021-08-16T13:11:02Z</time>
      </trkpt>
      <trkpt lat="44.94521" lon="1.92531">
        <ele>293.82</ele>
        <time>2021-08-16T13:11:08Z</time>
      </trkpt>
      <trkpt lat="44.94515" lon="1.92525">
        <ele>292.86</ele>
        <time>2021-08-16T13:11:09Z</time>
      </trkpt>
      <trkpt lat="44.94512" lon="1.92518">
        <ele>292.86</ele>
        <time>2021-08-16T13:11:10Z</time>
      </trkpt>
      <trkpt lat="44.94507" lon="1.92509">
        <ele>292.38</ele>
        <time>2021-08-16T13:11:11Z</time>
      </trkpt>
      <trkpt lat="44.94503" lon="1.92502">
        <ele>292.38</ele>
        <time>2021-08-16T13:11:12Z</time>
      </trkpt>
      <trkpt lat="44.945" lon="1.92492">
        <ele>292.38</ele>
        <time>2021-08-16T13:11:13Z</time>
      </trkpt>
      <trkpt lat="44.94497" lon="1.92481">
        <ele>291.42</ele>
        <time>2021-08-16T13:11:14Z</time>
      </trkpt>
      <trkpt lat="44.94495" lon="1.92473">
        <ele>290.94</ele>
        <time>2021-08-16T13:11:15Z</time>
      </trkpt>
      <trkpt lat="44.94493" lon="1.92461">
        <ele>290.94</ele>
        <time>2021-08-16T13:11:16Z</time>
      </trkpt>
      <trkpt lat="44.94493" lon="1.92453">
        <ele>290.94</ele>
        <time>2021-08-16T13:11:17Z</time>
      </trkpt>
      <trkpt lat="44.94493" lon="1.92441">
        <ele>290.46</ele>
        <time>2021-08-16T13:11:18Z</time>
      </trkpt>
      <trkpt lat="44.94493" lon="1.9243">
        <ele>289.97</ele>
        <time>2021-08-16T13:11:19Z</time>
      </trkpt>
      <trkpt lat="44.94494" lon="1.92422">
        <ele>289.49</ele>
        <time>2021-08-16T13:11:20Z</time>
      </trkpt>
      <trkpt lat="44.94495" lon="1.92411">
        <ele>289.49</ele>
        <time>2021-08-16T13:11:21Z</time>
      </trkpt>
      <trkpt lat="44.94497" lon="1.924">
        <ele>289.49</ele>
        <time>2021-08-16T13:11:22Z</time>
      </trkpt>
      <trkpt lat="44.94499" lon="1.92392">
        <ele>289.01</ele>
        <time>2021-08-16T13:11:23Z</time>
      </trkpt>
      <trkpt lat="44.94525" lon="1.9231">
        <ele>286.61</ele>
        <time>2021-08-16T13:11:32Z</time>
      </trkpt>
      <trkpt lat="44.94555" lon="1.92244">
        <ele>283.73</ele>
        <time>2021-08-16T13:11:40Z</time>
      </trkpt>
      <trkpt lat="44.9456" lon="1.92237">
        <ele>283.73</ele>
        <time>2021-08-16T13:11:41Z</time>
      </trkpt>
      <trkpt lat="44.94566" lon="1.92231">
        <ele>283.25</ele>
        <time>2021-08-16T13:11:42Z</time>
      </trkpt>
      <trkpt lat="44.94597" lon="1.92204">
        <ele>282.28</ele>
        <time>2021-08-16T13:11:47Z</time>
      </trkpt>
      <trkpt lat="44.94602" lon="1.92197">
        <ele>282.28</ele>
        <time>2021-08-16T13:11:48Z</time>
      </trkpt>
      <trkpt lat="44.94606" lon="1.92189">
        <ele>281.8</ele>
        <time>2021-08-16T13:11:49Z</time>
      </trkpt>
      <trkpt lat="44.94608" lon="1.9218">
        <ele>281.8</ele>
        <time>2021-08-16T13:11:50Z</time>
      </trkpt>
      <trkpt lat="44.94609" lon="1.9217">
        <ele>281.8</ele>
        <time>2021-08-16T13:11:51Z</time>
      </trkpt>
      <trkpt lat="44.94608" lon="1.9216">
        <ele>280.84</ele>
        <time>2021-08-16T13:11:52Z</time>
      </trkpt>
      <trkpt lat="44.94606" lon="1.92151">
        <ele>280.84</ele>
        <time>2021-08-16T13:11:53Z</time>
      </trkpt>
      <trkpt lat="44.94603" lon="1.92142">
        <ele>279.88</ele>
        <time>2021-08-16T13:11:54Z</time>
      </trkpt>
      <trkpt lat="44.946" lon="1.92133">
        <ele>279.88</ele>
        <time>2021-08-16T13:11:55Z</time>
      </trkpt>
      <trkpt lat="44.94588" lon="1.92075">
        <ele>277.48</ele>
        <time>2021-08-16T13:12:01Z</time>
      </trkpt>
      <trkpt lat="44.94587" lon="1.92064">
        <ele>277.48</ele>
        <time>2021-08-16T13:12:02Z</time>
      </trkpt>
      <trkpt lat="44.94588" lon="1.92054">
        <ele>277</ele>
        <time>2021-08-16T13:12:03Z</time>
      </trkpt>
      <trkpt lat="44.9459" lon="1.92045">
        <ele>277</ele>
        <time>2021-08-16T13:12:04Z</time>
      </trkpt>
      <trkpt lat="44.94593" lon="1.92035">
        <ele>276.52</ele>
        <time>2021-08-16T13:12:05Z</time>
      </trkpt>
      <trkpt lat="44.94597" lon="1.92026">
        <ele>276.04</ele>
        <time>2021-08-16T13:12:06Z</time>
      </trkpt>
      <trkpt lat="44.94602" lon="1.92019">
        <ele>275.56</ele>
        <time>2021-08-16T13:12:07Z</time>
      </trkpt>
      <trkpt lat="44.94608" lon="1.92013">
        <ele>275.56</ele>
        <time>2021-08-16T13:12:08Z</time>
      </trkpt>
      <trkpt lat="44.94615" lon="1.92007">
        <ele>275.07</ele>
        <time>2021-08-16T13:12:09Z</time>
      </trkpt>
      <trkpt lat="44.94621" lon="1.92004">
        <ele>275.07</ele>
        <time>2021-08-16T13:12:10Z</time>
      </trkpt>
      <trkpt lat="44.94628" lon="1.92001">
        <ele>275.07</ele>
        <time>2021-08-16T13:12:11Z</time>
      </trkpt>
      <trkpt lat="44.94682" lon="1.91976">
        <ele>273.15</ele>
        <time>2021-08-16T13:12:19Z</time>
      </trkpt>
      <trkpt lat="44.947" lon="1.91962">
        <ele>271.71</ele>
        <time>2021-08-16T13:12:22Z</time>
      </trkpt>
      <trkpt lat="44.94706" lon="1.91955">
        <ele>271.71</ele>
        <time>2021-08-16T13:12:23Z</time>
      </trkpt>
      <trkpt lat="44.94711" lon="1.91947">
        <ele>271.23</ele>
        <time>2021-08-16T13:12:24Z</time>
      </trkpt>
      <trkpt lat="44.94715" lon="1.91937">
        <ele>271.23</ele>
        <time>2021-08-16T13:12:25Z</time>
      </trkpt>
      <trkpt lat="44.94717" lon="1.91927">
        <ele>270.27</ele>
        <time>2021-08-16T13:12:26Z</time>
      </trkpt>
      <trkpt lat="44.94718" lon="1.91916">
        <ele>270.27</ele>
        <time>2021-08-16T13:12:27Z</time>
      </trkpt>
      <trkpt lat="44.94718" lon="1.91905">
        <ele>269.79</ele>
        <time>2021-08-16T13:12:28Z</time>
      </trkpt>
      <trkpt lat="44.94716" lon="1.91893">
        <ele>269.79</ele>
        <time>2021-08-16T13:12:29Z</time>
      </trkpt>
      <trkpt lat="44.94714" lon="1.91884">
        <ele>269.31</ele>
        <time>2021-08-16T13:12:30Z</time>
      </trkpt>
      <trkpt lat="44.9471" lon="1.91874">
        <ele>269.31</ele>
        <time>2021-08-16T13:12:31Z</time>
      </trkpt>
      <trkpt lat="44.94706" lon="1.91866">
        <ele>268.83</ele>
        <time>2021-08-16T13:12:32Z</time>
      </trkpt>
      <trkpt lat="44.947" lon="1.91857">
        <ele>268.35</ele>
        <time>2021-08-16T13:12:33Z</time>
      </trkpt>
      <trkpt lat="44.94695" lon="1.91851">
        <ele>268.35</ele>
        <time>2021-08-16T13:12:34Z</time>
      </trkpt>
      <trkpt lat="44.94688" lon="1.91843">
        <ele>267.86</ele>
        <time>2021-08-16T13:12:35Z</time>
      </trkpt>
      <trkpt lat="44.94639" lon="1.91782">
        <ele>264.5</ele>
        <time>2021-08-16T13:12:43Z</time>
      </trkpt>
      <trkpt lat="44.94634" lon="1.91772">
        <ele>264.5</ele>
        <time>2021-08-16T13:12:44Z</time>
      </trkpt>
      <trkpt lat="44.94631" lon="1.91761">
        <ele>264.02</ele>
        <time>2021-08-16T13:12:45Z</time>
      </trkpt>
      <trkpt lat="44.94628" lon="1.9175">
        <ele>264.02</ele>
        <time>2021-08-16T13:12:46Z</time>
      </trkpt>
      <trkpt lat="44.94627" lon="1.91738">
        <ele>263.54</ele>
        <time>2021-08-16T13:12:47Z</time>
      </trkpt>
      <trkpt lat="44.94626" lon="1.91727">
        <ele>263.54</ele>
        <time>2021-08-16T13:12:48Z</time>
      </trkpt>
      <trkpt lat="44.94626" lon="1.91716">
        <ele>263.54</ele>
        <time>2021-08-16T13:12:49Z</time>
      </trkpt>
      <trkpt lat="44.94627" lon="1.91704">
        <ele>262.58</ele>
        <time>2021-08-16T13:12:50Z</time>
      </trkpt>
      <trkpt lat="44.94629" lon="1.91624">
        <ele>260.17</ele>
        <time>2021-08-16T13:12:57Z</time>
      </trkpt>
      <trkpt lat="44.94633" lon="1.91601">
        <ele>259.69</ele>
        <time>2021-08-16T13:12:59Z</time>
      </trkpt>
      <trkpt lat="44.94635" lon="1.9159">
        <ele>258.73</ele>
        <time>2021-08-16T13:13:00Z</time>
      </trkpt>
      <trkpt lat="44.94639" lon="1.91579">
        <ele>258.25</ele>
        <time>2021-08-16T13:13:01Z</time>
      </trkpt>
      <trkpt lat="44.94643" lon="1.91569">
        <ele>257.29</ele>
        <time>2021-08-16T13:13:02Z</time>
      </trkpt>
      <trkpt lat="44.94648" lon="1.91559">
        <ele>257.29</ele>
        <time>2021-08-16T13:13:03Z</time>
      </trkpt>
      <trkpt lat="44.94654" lon="1.9155">
        <ele>257.29</ele>
        <time>2021-08-16T13:13:04Z</time>
      </trkpt>
      <trkpt lat="44.94659" lon="1.91543">
        <ele>256.81</ele>
        <time>2021-08-16T13:13:05Z</time>
      </trkpt>
      <trkpt lat="44.94701" lon="1.9149">
        <ele>253.93</ele>
        <time>2021-08-16T13:13:12Z</time>
      </trkpt>
      <trkpt lat="44.94708" lon="1.91485">
        <ele>253.93</ele>
        <time>2021-08-16T13:13:13Z</time>
      </trkpt>
      <trkpt lat="44.94715" lon="1.9148">
        <ele>253.93</ele>
        <time>2021-08-16T13:13:14Z</time>
      </trkpt>
      <trkpt lat="44.94723" lon="1.91477">
        <ele>253.93</ele>
        <time>2021-08-16T13:13:15Z</time>
      </trkpt>
      <trkpt lat="44.9473" lon="1.91475">
        <ele>252.96</ele>
        <time>2021-08-16T13:13:16Z</time>
      </trkpt>
      <trkpt lat="44.94738" lon="1.91475">
        <ele>252.48</ele>
        <time>2021-08-16T13:13:17Z</time>
      </trkpt>
      <trkpt lat="44.94746" lon="1.91476">
        <ele>252.48</ele>
        <time>2021-08-16T13:13:18Z</time>
      </trkpt>
      <trkpt lat="44.94755" lon="1.91479">
        <ele>252.48</ele>
        <time>2021-08-16T13:13:19Z</time>
      </trkpt>
      <trkpt lat="44.94761" lon="1.91483">
        <ele>252</ele>
        <time>2021-08-16T13:13:20Z</time>
      </trkpt>
      <trkpt lat="44.9477" lon="1.91489">
        <ele>251.04</ele>
        <time>2021-08-16T13:13:21Z</time>
      </trkpt>
      <trkpt lat="44.94777" lon="1.91496">
        <ele>251.04</ele>
        <time>2021-08-16T13:13:22Z</time>
      </trkpt>
      <trkpt lat="44.94783" lon="1.91503">
        <ele>251.04</ele>
        <time>2021-08-16T13:13:23Z</time>
      </trkpt>
      <trkpt lat="44.94788" lon="1.91511">
        <ele>250.56</ele>
        <time>2021-08-16T13:13:24Z</time>
      </trkpt>
      <trkpt lat="44.94794" lon="1.91519">
        <ele>250.56</ele>
        <time>2021-08-16T13:13:25Z</time>
      </trkpt>
      <trkpt lat="44.94816" lon="1.9155">
        <ele>249.6</ele>
        <time>2021-08-16T13:13:29Z</time>
      </trkpt>
      <trkpt lat="44.94823" lon="1.91556">
        <ele>249.12</ele>
        <time>2021-08-16T13:13:30Z</time>
      </trkpt>
      <trkpt lat="44.94829" lon="1.91561">
        <ele>249.12</ele>
        <time>2021-08-16T13:13:31Z</time>
      </trkpt>
      <trkpt lat="44.94836" lon="1.91564">
        <ele>248.64</ele>
        <time>2021-08-16T13:13:32Z</time>
      </trkpt>
      <trkpt lat="44.94844" lon="1.91567">
        <ele>248.64</ele>
        <time>2021-08-16T13:13:33Z</time>
      </trkpt>
      <trkpt lat="44.94851" lon="1.91568">
        <ele>248.16</ele>
        <time>2021-08-16T13:13:34Z</time>
      </trkpt>
      <trkpt lat="44.94859" lon="1.91569">
        <ele>247.68</ele>
        <time>2021-08-16T13:13:35Z</time>
      </trkpt>
      <trkpt lat="44.94867" lon="1.91569">
        <ele>247.2</ele>
        <time>2021-08-16T13:13:36Z</time>
      </trkpt>
      <trkpt lat="44.94934" lon="1.91571">
        <ele>243.83</ele>
        <time>2021-08-16T13:13:44Z</time>
      </trkpt>
      <trkpt lat="44.94951" lon="1.9157">
        <ele>243.35</ele>
        <time>2021-08-16T13:13:46Z</time>
      </trkpt>
      <trkpt lat="44.94959" lon="1.91568">
        <ele>242.87</ele>
        <time>2021-08-16T13:13:47Z</time>
      </trkpt>
      <trkpt lat="44.94968" lon="1.91562">
        <ele>242.39</ele>
        <time>2021-08-16T13:13:48Z</time>
      </trkpt>
      <trkpt lat="44.94974" lon="1.91557">
        <ele>241.91</ele>
        <time>2021-08-16T13:13:49Z</time>
      </trkpt>
      <trkpt lat="44.9498" lon="1.91547">
        <ele>241.91</ele>
        <time>2021-08-16T13:13:50Z</time>
      </trkpt>
      <trkpt lat="44.94983" lon="1.91538">
        <ele>241.43</ele>
        <time>2021-08-16T13:13:51Z</time>
      </trkpt>
      <trkpt lat="44.94985" lon="1.91526">
        <ele>241.43</ele>
        <time>2021-08-16T13:13:52Z</time>
      </trkpt>
      <trkpt lat="44.94985" lon="1.91517">
        <ele>240.95</ele>
        <time>2021-08-16T13:13:53Z</time>
      </trkpt>
      <trkpt lat="44.94982" lon="1.91504">
        <ele>240.47</ele>
        <time>2021-08-16T13:13:54Z</time>
      </trkpt>
      <trkpt lat="44.94979" lon="1.91496">
        <ele>239.99</ele>
        <time>2021-08-16T13:13:55Z</time>
      </trkpt>
      <trkpt lat="44.94975" lon="1.91486">
        <ele>239.99</ele>
        <time>2021-08-16T13:13:56Z</time>
      </trkpt>
      <trkpt lat="44.9497" lon="1.9148">
        <ele>239.51</ele>
        <time>2021-08-16T13:13:57Z</time>
      </trkpt>
      <trkpt lat="44.94964" lon="1.91472">
        <ele>239.02</ele>
        <time>2021-08-16T13:13:58Z</time>
      </trkpt>
      <trkpt lat="44.94917" lon="1.91403">
        <ele>236.14</ele>
        <time>2021-08-16T13:14:06Z</time>
      </trkpt>
      <trkpt lat="44.94901" lon="1.91372">
        <ele>234.7</ele>
        <time>2021-08-16T13:14:09Z</time>
      </trkpt>
      <trkpt lat="44.94869" lon="1.91295">
        <ele>232.3</ele>
        <time>2021-08-16T13:14:16Z</time>
      </trkpt>
      <trkpt lat="44.94852" lon="1.91238">
        <ele>230.37</ele>
        <time>2021-08-16T13:14:21Z</time>
      </trkpt>
      <trkpt lat="44.94845" lon="1.91165">
        <ele>227.97</ele>
        <time>2021-08-16T13:14:27Z</time>
      </trkpt>
      <trkpt lat="44.94846" lon="1.91141">
        <ele>227.49</ele>
        <time>2021-08-16T13:14:29Z</time>
      </trkpt>
      <trkpt lat="44.94852" lon="1.91093">
        <ele>226.05</ele>
        <time>2021-08-16T13:14:33Z</time>
      </trkpt>
      <trkpt lat="44.94854" lon="1.91082">
        <ele>225.57</ele>
        <time>2021-08-16T13:14:34Z</time>
      </trkpt>
      <trkpt lat="44.9487" lon="1.91017">
        <ele>224.61</ele>
        <time>2021-08-16T13:14:40Z</time>
      </trkpt>
      <trkpt lat="44.94872" lon="1.91011">
        <ele>224.61</ele>
        <time>2021-08-16T13:14:41Z</time>
      </trkpt>
      <trkpt lat="44.94874" lon="1.91005">
        <ele>224.61</ele>
        <time>2021-08-16T13:14:42Z</time>
      </trkpt>
      <trkpt lat="44.94877" lon="1.91">
        <ele>224.61</ele>
        <time>2021-08-16T13:14:43Z</time>
      </trkpt>
      <trkpt lat="44.9488" lon="1.90994">
        <ele>224.61</ele>
        <time>2021-08-16T13:14:45Z</time>
      </trkpt>
      <trkpt lat="44.9488" lon="1.90991">
        <ele>224.61</ele>
        <time>2021-08-16T13:14:51Z</time>
      </trkpt>
      <trkpt lat="44.94881" lon="1.9099">
        <ele>224.61</ele>
        <time>2021-08-16T13:15:07Z</time>
      </trkpt>
      <trkpt lat="44.94883" lon="1.90987">
        <ele>224.61</ele>
        <time>2021-08-16T13:15:23Z</time>
      </trkpt>
      <trkpt lat="44.94885" lon="1.90981">
        <ele>224.61</ele>
        <time>2021-08-16T13:15:38Z</time>
      </trkpt>
      <trkpt lat="44.94884" lon="1.9098">
        <ele>224.61</ele>
        <time>2021-08-16T13:15:39Z</time>
      </trkpt>
      <trkpt lat="44.94881" lon="1.9098">
        <ele>224.61</ele>
        <time>2021-08-16T13:15:40Z</time>
      </trkpt>
      <trkpt lat="44.9488" lon="1.9098">
        <ele>224.61</ele>
        <time>2021-08-16T13:15:41Z</time>
      </trkpt>
      <trkpt lat="44.94877" lon="1.90977">
        <ele>224.61</ele>
        <time>2021-08-16T13:15:42Z</time>
      </trkpt>
      <trkpt lat="44.94875" lon="1.9097">
        <ele>223.64</ele>
        <time>2021-08-16T13:15:44Z</time>
      </trkpt>
      <trkpt lat="44.94875" lon="1.90964">
        <ele>223.64</ele>
        <time>2021-08-16T13:15:45Z</time>
      </trkpt>
      <trkpt lat="44.94874" lon="1.90958">
        <ele>223.64</ele>
        <time>2021-08-16T13:15:46Z</time>
      </trkpt>
      <trkpt lat="44.94874" lon="1.90951">
        <ele>222.68</ele>
        <time>2021-08-16T13:15:47Z</time>
      </trkpt>
      <trkpt lat="44.94874" lon="1.90944">
        <ele>222.68</ele>
        <time>2021-08-16T13:15:48Z</time>
      </trkpt>
      <trkpt lat="44.94873" lon="1.9093">
        <ele>222.2</ele>
        <time>2021-08-16T13:15:50Z</time>
      </trkpt>
      <trkpt lat="44.94872" lon="1.90923">
        <ele>222.2</ele>
        <time>2021-08-16T13:15:51Z</time>
      </trkpt>
      <trkpt lat="44.94871" lon="1.90915">
        <ele>222.2</ele>
        <time>2021-08-16T13:15:52Z</time>
      </trkpt>
      <trkpt lat="44.94871" lon="1.90908">
        <ele>221.24</ele>
        <time>2021-08-16T13:15:53Z</time>
      </trkpt>
      <trkpt lat="44.94871" lon="1.909">
        <ele>221.24</ele>
        <time>2021-08-16T13:15:54Z</time>
      </trkpt>
      <trkpt lat="44.94869" lon="1.90828">
        <ele>218.36</ele>
        <time>2021-08-16T13:16:02Z</time>
      </trkpt>
      <trkpt lat="44.94867" lon="1.90753">
        <ele>216.43</ele>
        <time>2021-08-16T13:16:09Z</time>
      </trkpt>
      <trkpt lat="44.94863" lon="1.90657">
        <ele>214.03</ele>
        <time>2021-08-16T13:16:17Z</time>
      </trkpt>
      <trkpt lat="44.94864" lon="1.90551">
        <ele>211.15</ele>
        <time>2021-08-16T13:16:25Z</time>
      </trkpt>
      <trkpt lat="44.94867" lon="1.90539">
        <ele>210.67</ele>
        <time>2021-08-16T13:16:26Z</time>
      </trkpt>
      <trkpt lat="44.94871" lon="1.90526">
        <ele>210.19</ele>
        <time>2021-08-16T13:16:27Z</time>
      </trkpt>
      <trkpt lat="44.94877" lon="1.90514">
        <ele>210.19</ele>
        <time>2021-08-16T13:16:28Z</time>
      </trkpt>
      <trkpt lat="44.94882" lon="1.90504">
        <ele>209.22</ele>
        <time>2021-08-16T13:16:29Z</time>
      </trkpt>
      <trkpt lat="44.94889" lon="1.90495">
        <ele>208.74</ele>
        <time>2021-08-16T13:16:30Z</time>
      </trkpt>
      <trkpt lat="44.94897" lon="1.90486">
        <ele>208.74</ele>
        <time>2021-08-16T13:16:31Z</time>
      </trkpt>
      <trkpt lat="44.94904" lon="1.90478">
        <ele>207.78</ele>
        <time>2021-08-16T13:16:32Z</time>
      </trkpt>
      <trkpt lat="44.94912" lon="1.90472">
        <ele>207.3</ele>
        <time>2021-08-16T13:16:33Z</time>
      </trkpt>
      <trkpt lat="44.94921" lon="1.90467">
        <ele>206.82</ele>
        <time>2021-08-16T13:16:34Z</time>
      </trkpt>
      <trkpt lat="44.9493" lon="1.90463">
        <ele>206.34</ele>
        <time>2021-08-16T13:16:35Z</time>
      </trkpt>
      <trkpt lat="44.94939" lon="1.9046">
        <ele>206.34</ele>
        <time>2021-08-16T13:16:36Z</time>
      </trkpt>
      <trkpt lat="44.94964" lon="1.90456">
        <ele>204.9</ele>
        <time>2021-08-16T13:16:39Z</time>
      </trkpt>
      <trkpt lat="44.95051" lon="1.90444">
        <ele>201.53</ele>
        <time>2021-08-16T13:16:49Z</time>
      </trkpt>
      <trkpt lat="44.9513" lon="1.90431">
        <ele>198.65</ele>
        <time>2021-08-16T13:16:58Z</time>
      </trkpt>
      <trkpt lat="44.95139" lon="1.90427">
        <ele>197.69</ele>
        <time>2021-08-16T13:16:59Z</time>
      </trkpt>
      <trkpt lat="44.95148" lon="1.90421">
        <ele>197.69</ele>
        <time>2021-08-16T13:17:00Z</time>
      </trkpt>
      <trkpt lat="44.95155" lon="1.90415">
        <ele>197.21</ele>
        <time>2021-08-16T13:17:01Z</time>
      </trkpt>
      <trkpt lat="44.95163" lon="1.90408">
        <ele>196.73</ele>
        <time>2021-08-16T13:17:02Z</time>
      </trkpt>
      <trkpt lat="44.9517" lon="1.90399">
        <ele>196.73</ele>
        <time>2021-08-16T13:17:03Z</time>
      </trkpt>
      <trkpt lat="44.95176" lon="1.90389">
        <ele>196.73</ele>
        <time>2021-08-16T13:17:04Z</time>
      </trkpt>
      <trkpt lat="44.95182" lon="1.90379">
        <ele>196.25</ele>
        <time>2021-08-16T13:17:05Z</time>
      </trkpt>
      <trkpt lat="44.95188" lon="1.90368">
        <ele>195.77</ele>
        <time>2021-08-16T13:17:06Z</time>
      </trkpt>
      <trkpt lat="44.95229" lon="1.90311">
        <ele>192.88</ele>
        <time>2021-08-16T13:17:12Z</time>
      </trkpt>
      <trkpt lat="44.95267" lon="1.90271">
        <ele>190.96</ele>
        <time>2021-08-16T13:17:17Z</time>
      </trkpt>
      <trkpt lat="44.95273" lon="1.90261">
        <ele>190</ele>
        <time>2021-08-16T13:17:18Z</time>
      </trkpt>
      <trkpt lat="44.95278" lon="1.9025">
        <ele>189.52</ele>
        <time>2021-08-16T13:17:19Z</time>
      </trkpt>
      <trkpt lat="44.95282" lon="1.90238">
        <ele>189.04</ele>
        <time>2021-08-16T13:17:20Z</time>
      </trkpt>
      <trkpt lat="44.95284" lon="1.90225">
        <ele>188.56</ele>
        <time>2021-08-16T13:17:21Z</time>
      </trkpt>
      <trkpt lat="44.95284" lon="1.90214">
        <ele>188.56</ele>
        <time>2021-08-16T13:17:22Z</time>
      </trkpt>
      <trkpt lat="44.95283" lon="1.902">
        <ele>187.59</ele>
        <time>2021-08-16T13:17:23Z</time>
      </trkpt>
      <trkpt lat="44.9528" lon="1.9019">
        <ele>187.59</ele>
        <time>2021-08-16T13:17:24Z</time>
      </trkpt>
      <trkpt lat="44.95276" lon="1.90178">
        <ele>186.63</ele>
        <time>2021-08-16T13:17:25Z</time>
      </trkpt>
      <trkpt lat="44.9527" lon="1.90168">
        <ele>186.63</ele>
        <time>2021-08-16T13:17:26Z</time>
      </trkpt>
      <trkpt lat="44.95265" lon="1.90159">
        <ele>186.15</ele>
        <time>2021-08-16T13:17:27Z</time>
      </trkpt>
      <trkpt lat="44.95254" lon="1.90139">
        <ele>185.67</ele>
        <time>2021-08-16T13:17:29Z</time>
      </trkpt>
      <trkpt lat="44.9525" lon="1.90127">
        <ele>184.71</ele>
        <time>2021-08-16T13:17:30Z</time>
      </trkpt>
      <trkpt lat="44.95248" lon="1.90113">
        <ele>184.23</ele>
        <time>2021-08-16T13:17:31Z</time>
      </trkpt>
      <trkpt lat="44.95247" lon="1.90102">
        <ele>184.23</ele>
        <time>2021-08-16T13:17:32Z</time>
      </trkpt>
      <trkpt lat="44.95247" lon="1.90089">
        <ele>183.27</ele>
        <time>2021-08-16T13:17:33Z</time>
      </trkpt>
      <trkpt lat="44.95249" lon="1.90076">
        <ele>182.79</ele>
        <time>2021-08-16T13:17:34Z</time>
      </trkpt>
      <trkpt lat="44.95252" lon="1.90064">
        <ele>182.79</ele>
        <time>2021-08-16T13:17:35Z</time>
      </trkpt>
      <trkpt lat="44.95255" lon="1.90053">
        <ele>182.79</ele>
        <time>2021-08-16T13:17:36Z</time>
      </trkpt>
      <trkpt lat="44.95281" lon="1.89979">
        <ele>180.87</ele>
        <time>2021-08-16T13:17:43Z</time>
      </trkpt>
      <trkpt lat="44.95317" lon="1.89889">
        <ele>178.94</ele>
        <time>2021-08-16T13:17:52Z</time>
      </trkpt>
      <trkpt lat="44.95348" lon="1.89794">
        <ele>176.06</ele>
        <time>2021-08-16T13:18:01Z</time>
      </trkpt>
      <trkpt lat="44.95362" lon="1.89748">
        <ele>174.14</ele>
        <time>2021-08-16T13:18:05Z</time>
      </trkpt>
      <trkpt lat="44.95365" lon="1.89725">
        <ele>172.69</ele>
        <time>2021-08-16T13:18:07Z</time>
      </trkpt>
      <trkpt lat="44.95365" lon="1.89713">
        <ele>172.21</ele>
        <time>2021-08-16T13:18:08Z</time>
      </trkpt>
      <trkpt lat="44.95366" lon="1.897">
        <ele>172.21</ele>
        <time>2021-08-16T13:18:09Z</time>
      </trkpt>
      <trkpt lat="44.95365" lon="1.89688">
        <ele>171.73</ele>
        <time>2021-08-16T13:18:10Z</time>
      </trkpt>
      <trkpt lat="44.95363" lon="1.89675">
        <ele>171.25</ele>
        <time>2021-08-16T13:18:11Z</time>
      </trkpt>
      <trkpt lat="44.9536" lon="1.89663">
        <ele>170.29</ele>
        <time>2021-08-16T13:18:12Z</time>
      </trkpt>
      <trkpt lat="44.95357" lon="1.89652">
        <ele>169.81</ele>
        <time>2021-08-16T13:18:13Z</time>
      </trkpt>
      <trkpt lat="44.95352" lon="1.8964">
        <ele>169.81</ele>
        <time>2021-08-16T13:18:14Z</time>
      </trkpt>
      <trkpt lat="44.95346" lon="1.89628">
        <ele>168.85</ele>
        <time>2021-08-16T13:18:15Z</time>
      </trkpt>
      <trkpt lat="44.95341" lon="1.89619">
        <ele>168.37</ele>
        <time>2021-08-16T13:18:16Z</time>
      </trkpt>
      <trkpt lat="44.95334" lon="1.89611">
        <ele>167.89</ele>
        <time>2021-08-16T13:18:17Z</time>
      </trkpt>
      <trkpt lat="44.95326" lon="1.89602">
        <ele>167.41</ele>
        <time>2021-08-16T13:18:18Z</time>
      </trkpt>
      <trkpt lat="44.9532" lon="1.89596">
        <ele>166.93</ele>
        <time>2021-08-16T13:18:19Z</time>
      </trkpt>
      <trkpt lat="44.95311" lon="1.89589">
        <ele>166.93</ele>
        <time>2021-08-16T13:18:20Z</time>
      </trkpt>
      <trkpt lat="44.95302" lon="1.89584">
        <ele>167.41</ele>
        <time>2021-08-16T13:18:21Z</time>
      </trkpt>
      <trkpt lat="44.9528" lon="1.89572">
        <ele>167.41</ele>
        <time>2021-08-16T13:18:24Z</time>
      </trkpt>
      <trkpt lat="44.95274" lon="1.89568">
        <ele>166.93</ele>
        <time>2021-08-16T13:18:25Z</time>
      </trkpt>
      <trkpt lat="44.95268" lon="1.89561">
        <ele>166.93</ele>
        <time>2021-08-16T13:18:26Z</time>
      </trkpt>
      <trkpt lat="44.95262" lon="1.89554">
        <ele>166.93</ele>
        <time>2021-08-16T13:18:27Z</time>
      </trkpt>
      <trkpt lat="44.95258" lon="1.89549">
        <ele>166.93</ele>
        <time>2021-08-16T13:18:28Z</time>
      </trkpt>
      <trkpt lat="44.95253" lon="1.89542">
        <ele>166.93</ele>
        <time>2021-08-16T13:18:29Z</time>
      </trkpt>
      <trkpt lat="44.95248" lon="1.89534">
        <ele>166.93</ele>
        <time>2021-08-16T13:18:30Z</time>
      </trkpt>
      <trkpt lat="44.95245" lon="1.89526">
        <ele>166.93</ele>
        <time>2021-08-16T13:18:31Z</time>
      </trkpt>
      <trkpt lat="44.95242" lon="1.89519">
        <ele>166.93</ele>
        <time>2021-08-16T13:18:32Z</time>
      </trkpt>
      <trkpt lat="44.95221" lon="1.89467">
        <ele>166.93</ele>
        <time>2021-08-16T13:18:39Z</time>
      </trkpt>
      <trkpt lat="44.95216" lon="1.89455">
        <ele>166.93</ele>
        <time>2021-08-16T13:18:41Z</time>
      </trkpt>
      <trkpt lat="44.95212" lon="1.89444">
        <ele>167.89</ele>
        <time>2021-08-16T13:18:43Z</time>
      </trkpt>
      <trkpt lat="44.95211" lon="1.89439">
        <ele>167.89</ele>
        <time>2021-08-16T13:18:44Z</time>
      </trkpt>
      <trkpt lat="44.95209" lon="1.89433">
        <ele>167.89</ele>
        <time>2021-08-16T13:18:45Z</time>
      </trkpt>
      <trkpt lat="44.95195" lon="1.89389">
        <ele>168.37</ele>
        <time>2021-08-16T13:18:54Z</time>
      </trkpt>
      <trkpt lat="44.95193" lon="1.89384">
        <ele>168.37</ele>
        <time>2021-08-16T13:18:55Z</time>
      </trkpt>
      <trkpt lat="44.95192" lon="1.89378">
        <ele>168.37</ele>
        <time>2021-08-16T13:18:56Z</time>
      </trkpt>
      <trkpt lat="44.9519" lon="1.89372">
        <ele>168.37</ele>
        <time>2021-08-16T13:18:57Z</time>
      </trkpt>
      <trkpt lat="44.95183" lon="1.8931">
        <ele>168.37</ele>
        <time>2021-08-16T13:19:06Z</time>
      </trkpt>
      <trkpt lat="44.95183" lon="1.89272">
        <ele>168.37</ele>
        <time>2021-08-16T13:19:11Z</time>
      </trkpt>
      <trkpt lat="44.95188" lon="1.89202">
        <ele>166.93</ele>
        <time>2021-08-16T13:19:21Z</time>
      </trkpt>
      <trkpt lat="44.95188" lon="1.89195">
        <ele>166.93</ele>
        <time>2021-08-16T13:19:22Z</time>
      </trkpt>
      <trkpt lat="44.95189" lon="1.89187">
        <ele>166.93</ele>
        <time>2021-08-16T13:19:23Z</time>
      </trkpt>
      <trkpt lat="44.95196" lon="1.89119">
        <ele>166.93</ele>
        <time>2021-08-16T13:19:32Z</time>
      </trkpt>
      <trkpt lat="44.95197" lon="1.89112">
        <ele>166.93</ele>
        <time>2021-08-16T13:19:33Z</time>
      </trkpt>
      <trkpt lat="44.95197" lon="1.89072">
        <ele>166.45</ele>
        <time>2021-08-16T13:19:38Z</time>
      </trkpt>
      <trkpt lat="44.95197" lon="1.89065">
        <ele>166.45</ele>
        <time>2021-08-16T13:19:39Z</time>
      </trkpt>
      <trkpt lat="44.95194" lon="1.89009">
        <ele>165.48</ele>
        <time>2021-08-16T13:19:46Z</time>
      </trkpt>
      <trkpt lat="44.95193" lon="1.89002">
        <ele>165.48</ele>
        <time>2021-08-16T13:19:47Z</time>
      </trkpt>
      <trkpt lat="44.9519" lon="1.88969">
        <ele>165.48</ele>
        <time>2021-08-16T13:19:52Z</time>
      </trkpt>
      <trkpt lat="44.95191" lon="1.88967">
        <ele>165.48</ele>
        <time>2021-08-16T13:19:53Z</time>
      </trkpt>
      <trkpt lat="44.95193" lon="1.88967">
        <ele>165.48</ele>
        <time>2021-08-16T13:19:54Z</time>
      </trkpt>
      <trkpt lat="44.95197" lon="1.88967">
        <ele>165.48</ele>
        <time>2021-08-16T13:20:01Z</time>
      </trkpt>
      <trkpt lat="44.95197" lon="1.88965">
        <ele>165.48</ele>
        <time>2021-08-16T13:20:17Z</time>
      </trkpt>
      <trkpt lat="44.95197" lon="1.88965">
        <ele>165</ele>
        <time>2021-08-16T13:20:40Z</time>
      </trkpt>
      <trkpt lat="44.95197" lon="1.88966">
        <ele>165</ele>
        <time>2021-08-16T13:20:57Z</time>
      </trkpt>
      <trkpt lat="44.95197" lon="1.88966">
        <ele>165</ele>
        <time>2021-08-16T13:21:11Z</time>
      </trkpt>
      <trkpt lat="44.95198" lon="1.88967">
        <ele>165</ele>
        <time>2021-08-16T13:21:23Z</time>
      </trkpt>
      <trkpt lat="44.95199" lon="1.88967">
        <ele>165</ele>
        <time>2021-08-16T13:21:44Z</time>
      </trkpt>
      <trkpt lat="44.95197" lon="1.88967">
        <ele>164.52</ele>
        <time>2021-08-16T13:22:03Z</time>
      </trkpt>
      <trkpt lat="44.95197" lon="1.88967">
        <ele>164.52</ele>
        <time>2021-08-16T13:22:14Z</time>
      </trkpt>
      <trkpt lat="44.95197" lon="1.88966">
        <ele>164.52</ele>
        <time>2021-08-16T13:22:33Z</time>
      </trkpt>
      <trkpt lat="44.95197" lon="1.88965">
        <ele>164.52</ele>
        <time>2021-08-16T13:22:52Z</time>
      </trkpt>
      <trkpt lat="44.95197" lon="1.88966">
        <ele>164.52</ele>
        <time>2021-08-16T13:23:11Z</time>
      </trkpt>
      <trkpt lat="44.95196" lon="1.88966">
        <ele>164.52</ele>
        <time>2021-08-16T13:23:19Z</time>
      </trkpt>
      <trkpt lat="44.95194" lon="1.88967">
        <ele>164.52</ele>
        <time>2021-08-16T13:23:21Z</time>
      </trkpt>
      <trkpt lat="44.95194" lon="1.88967">
        <ele>164.52</ele>
        <time>2021-08-16T13:23:27Z</time>
      </trkpt>
      <trkpt lat="44.95193" lon="1.88965">
        <ele>164.52</ele>
        <time>2021-08-16T13:23:41Z</time>
      </trkpt>
      <trkpt lat="44.9519" lon="1.88962">
        <ele>164.52</ele>
        <time>2021-08-16T13:23:47Z</time>
      </trkpt>
      <trkpt lat="44.95183" lon="1.88946">
        <ele>164.52</ele>
        <time>2021-08-16T13:23:52Z</time>
      </trkpt>
      <trkpt lat="44.95175" lon="1.88924">
        <ele>164.52</ele>
        <time>2021-08-16T13:23:57Z</time>
      </trkpt>
      <trkpt lat="44.95156" lon="1.88874">
        <ele>163.56</ele>
        <time>2021-08-16T13:24:06Z</time>
      </trkpt>
      <trkpt lat="44.95154" lon="1.88868">
        <ele>163.56</ele>
        <time>2021-08-16T13:24:07Z</time>
      </trkpt>
      <trkpt lat="44.95132" lon="1.88821">
        <ele>163.56</ele>
        <time>2021-08-16T13:24:16Z</time>
      </trkpt>
      <trkpt lat="44.9513" lon="1.88817">
        <ele>163.56</ele>
        <time>2021-08-16T13:24:17Z</time>
      </trkpt>
      <trkpt lat="44.95114" lon="1.88781">
        <ele>163.08</ele>
        <time>2021-08-16T13:24:24Z</time>
      </trkpt>
      <trkpt lat="44.95097" lon="1.88742">
        <ele>163.08</ele>
        <time>2021-08-16T13:24:31Z</time>
      </trkpt>
      <trkpt lat="44.95077" lon="1.88697">
        <ele>162.6</ele>
        <time>2021-08-16T13:24:38Z</time>
      </trkpt>
      <trkpt lat="44.95066" lon="1.88674">
        <ele>162.6</ele>
        <time>2021-08-16T13:24:42Z</time>
      </trkpt>
      <trkpt lat="44.9506" lon="1.88661">
        <ele>162.12</ele>
        <time>2021-08-16T13:24:44Z</time>
      </trkpt>
      <trkpt lat="44.95028" lon="1.88589">
        <ele>162.12</ele>
        <time>2021-08-16T13:24:55Z</time>
      </trkpt>
      <trkpt lat="44.95003" lon="1.8853">
        <ele>161.64</ele>
        <time>2021-08-16T13:25:04Z</time>
      </trkpt>
      <trkpt lat="44.94974" lon="1.88464">
        <ele>161.16</ele>
        <time>2021-08-16T13:25:14Z</time>
      </trkpt>
      <trkpt lat="44.94939" lon="1.88383">
        <ele>161.16</ele>
        <time>2021-08-16T13:25:26Z</time>
      </trkpt>
      <trkpt lat="44.94916" lon="1.88329">
        <ele>161.16</ele>
        <time>2021-08-16T13:25:34Z</time>
      </trkpt>
      <trkpt lat="44.94886" lon="1.88262">
        <ele>161.16</ele>
        <time>2021-08-16T13:25:44Z</time>
      </trkpt>
      <trkpt lat="44.9486" lon="1.88202">
        <ele>160.68</ele>
        <time>2021-08-16T13:25:53Z</time>
      </trkpt>
      <trkpt lat="44.94836" lon="1.88149">
        <ele>160.68</ele>
        <time>2021-08-16T13:26:01Z</time>
      </trkpt>
      <trkpt lat="44.94811" lon="1.88094">
        <ele>160.2</ele>
        <time>2021-08-16T13:26:09Z</time>
      </trkpt>
      <trkpt lat="44.94784" lon="1.88034">
        <ele>160.2</ele>
        <time>2021-08-16T13:26:18Z</time>
      </trkpt>
      <trkpt lat="44.94752" lon="1.87958">
        <ele>159.72</ele>
        <time>2021-08-16T13:26:29Z</time>
      </trkpt>
      <trkpt lat="44.94727" lon="1.87906">
        <ele>159.72</ele>
        <time>2021-08-16T13:26:37Z</time>
      </trkpt>
      <trkpt lat="44.94693" lon="1.8784">
        <ele>159.24</ele>
        <time>2021-08-16T13:26:47Z</time>
      </trkpt>
      <trkpt lat="44.94649" lon="1.87773">
        <ele>159.24</ele>
        <time>2021-08-16T13:26:58Z</time>
      </trkpt>
      <trkpt lat="44.9462" lon="1.87724">
        <ele>158.75</ele>
        <time>2021-08-16T13:27:06Z</time>
      </trkpt>
      <trkpt lat="44.94592" lon="1.87673">
        <ele>158.75</ele>
        <time>2021-08-16T13:27:14Z</time>
      </trkpt>
      <trkpt lat="44.94559" lon="1.87609">
        <ele>158.27</ele>
        <time>2021-08-16T13:27:24Z</time>
      </trkpt>
      <trkpt lat="44.94538" lon="1.87568">
        <ele>158.27</ele>
        <time>2021-08-16T13:27:31Z</time>
      </trkpt>
      <trkpt lat="44.94534" lon="1.87564">
        <ele>158.27</ele>
        <time>2021-08-16T13:27:32Z</time>
      </trkpt>
      <trkpt lat="44.94531" lon="1.87558">
        <ele>158.27</ele>
        <time>2021-08-16T13:27:33Z</time>
      </trkpt>
      <trkpt lat="44.94528" lon="1.87553">
        <ele>158.27</ele>
        <time>2021-08-16T13:27:34Z</time>
      </trkpt>
      <trkpt lat="44.94525" lon="1.87548">
        <ele>158.27</ele>
        <time>2021-08-16T13:27:35Z</time>
      </trkpt>
      <trkpt lat="44.94509" lon="1.87521">
        <ele>158.27</ele>
        <time>2021-08-16T13:27:40Z</time>
      </trkpt>
      <trkpt lat="44.94503" lon="1.87512">
        <ele>158.27</ele>
        <time>2021-08-16T13:27:42Z</time>
      </trkpt>
      <trkpt lat="44.94499" lon="1.87508">
        <ele>158.27</ele>
        <time>2021-08-16T13:27:43Z</time>
      </trkpt>
      <trkpt lat="44.94496" lon="1.87503">
        <ele>158.27</ele>
        <time>2021-08-16T13:27:44Z</time>
      </trkpt>
      <trkpt lat="44.94489" lon="1.87494">
        <ele>158.27</ele>
        <time>2021-08-16T13:27:46Z</time>
      </trkpt>
      <trkpt lat="44.9447" lon="1.87473">
        <ele>158.27</ele>
        <time>2021-08-16T13:27:51Z</time>
      </trkpt>
      <trkpt lat="44.94465" lon="1.87468">
        <ele>158.27</ele>
        <time>2021-08-16T13:27:52Z</time>
      </trkpt>
      <trkpt lat="44.94428" lon="1.87439">
        <ele>157.79</ele>
        <time>2021-08-16T13:28:00Z</time>
      </trkpt>
      <trkpt lat="44.94393" lon="1.8741">
        <ele>157.79</ele>
        <time>2021-08-16T13:28:08Z</time>
      </trkpt>
      <trkpt lat="44.94384" lon="1.87402">
        <ele>157.79</ele>
        <time>2021-08-16T13:28:10Z</time>
      </trkpt>
      <trkpt lat="44.94357" lon="1.8737">
        <ele>157.79</ele>
        <time>2021-08-16T13:28:17Z</time>
      </trkpt>
      <trkpt lat="44.94354" lon="1.87365">
        <ele>157.79</ele>
        <time>2021-08-16T13:28:18Z</time>
      </trkpt>
      <trkpt lat="44.94338" lon="1.8734">
        <ele>159.24</ele>
        <time>2021-08-16T13:28:23Z</time>
      </trkpt>
      <trkpt lat="44.94336" lon="1.87334">
        <ele>159.24</ele>
        <time>2021-08-16T13:28:24Z</time>
      </trkpt>
      <trkpt lat="44.94313" lon="1.87288">
        <ele>159.24</ele>
        <time>2021-08-16T13:28:33Z</time>
      </trkpt>
      <trkpt lat="44.9431" lon="1.87284">
        <ele>159.72</ele>
        <time>2021-08-16T13:28:34Z</time>
      </trkpt>
      <trkpt lat="44.94307" lon="1.8728">
        <ele>159.72</ele>
        <time>2021-08-16T13:28:35Z</time>
      </trkpt>
      <trkpt lat="44.9428" lon="1.8725">
        <ele>160.68</ele>
        <time>2021-08-16T13:28:44Z</time>
      </trkpt>
      <trkpt lat="44.94257" lon="1.87238">
        <ele>161.16</ele>
        <time>2021-08-16T13:28:51Z</time>
      </trkpt>
      <trkpt lat="44.94252" lon="1.87244">
        <ele>161.16</ele>
        <time>2021-08-16T13:28:53Z</time>
      </trkpt>
      <trkpt lat="44.94249" lon="1.87249">
        <ele>161.16</ele>
        <time>2021-08-16T13:28:54Z</time>
      </trkpt>
      <trkpt lat="44.94232" lon="1.87302">
        <ele>161.16</ele>
        <time>2021-08-16T13:29:04Z</time>
      </trkpt>
      <trkpt lat="44.94217" lon="1.87353">
        <ele>160.68</ele>
        <time>2021-08-16T13:29:13Z</time>
      </trkpt>
      <trkpt lat="44.94196" lon="1.8742">
        <ele>160.68</ele>
        <time>2021-08-16T13:29:24Z</time>
      </trkpt>
      <trkpt lat="44.94191" lon="1.87437">
        <ele>160.68</ele>
        <time>2021-08-16T13:29:27Z</time>
      </trkpt>
      <trkpt lat="44.94184" lon="1.87454">
        <ele>160.68</ele>
        <time>2021-08-16T13:29:30Z</time>
      </trkpt>
      <trkpt lat="44.9418" lon="1.8746">
        <ele>160.68</ele>
        <time>2021-08-16T13:29:31Z</time>
      </trkpt>
      <trkpt lat="44.94153" lon="1.87497">
        <ele>160.68</ele>
        <time>2021-08-16T13:29:38Z</time>
      </trkpt>
      <trkpt lat="44.94111" lon="1.87554">
        <ele>159.72</ele>
        <time>2021-08-16T13:29:49Z</time>
      </trkpt>
      <trkpt lat="44.9408" lon="1.87597">
        <ele>160.68</ele>
        <time>2021-08-16T13:29:59Z</time>
      </trkpt>
      <trkpt lat="44.94065" lon="1.87618">
        <ele>162.12</ele>
        <time>2021-08-16T13:30:06Z</time>
      </trkpt>
      <trkpt lat="44.94049" lon="1.87641">
        <ele>163.08</ele>
        <time>2021-08-16T13:30:15Z</time>
      </trkpt>
      <trkpt lat="44.94034" lon="1.87658">
        <ele>164.52</ele>
        <time>2021-08-16T13:30:23Z</time>
      </trkpt>
      <trkpt lat="44.94019" lon="1.87679">
        <ele>165.96</ele>
        <time>2021-08-16T13:30:33Z</time>
      </trkpt>
      <trkpt lat="44.94003" lon="1.87693">
        <ele>166.45</ele>
        <time>2021-08-16T13:30:42Z</time>
      </trkpt>
      <trkpt lat="44.93998" lon="1.87692">
        <ele>166.93</ele>
        <time>2021-08-16T13:30:45Z</time>
      </trkpt>
      <trkpt lat="44.93997" lon="1.87694">
        <ele>166.45</ele>
        <time>2021-08-16T13:30:46Z</time>
      </trkpt>
      <trkpt lat="44.93997" lon="1.87697">
        <ele>166.45</ele>
        <time>2021-08-16T13:30:47Z</time>
      </trkpt>
      <trkpt lat="44.93997" lon="1.877">
        <ele>166.45</ele>
        <time>2021-08-16T13:30:48Z</time>
      </trkpt>
      <trkpt lat="44.93998" lon="1.87702">
        <ele>166.45</ele>
        <time>2021-08-16T13:30:49Z</time>
      </trkpt>
      <trkpt lat="44.94001" lon="1.8772">
        <ele>166.93</ele>
        <time>2021-08-16T13:30:55Z</time>
      </trkpt>
      <trkpt lat="44.93993" lon="1.87739">
        <ele>167.41</ele>
        <time>2021-08-16T13:31:02Z</time>
      </trkpt>
      <trkpt lat="44.93981" lon="1.87752">
        <ele>168.37</ele>
        <time>2021-08-16T13:31:09Z</time>
      </trkpt>
      <trkpt lat="44.93965" lon="1.87763">
        <ele>169.33</ele>
        <time>2021-08-16T13:31:17Z</time>
      </trkpt>
      <trkpt lat="44.93947" lon="1.87762">
        <ele>169.81</ele>
        <time>2021-08-16T13:31:25Z</time>
      </trkpt>
      <trkpt lat="44.93941" lon="1.87769">
        <ele>170.29</ele>
        <time>2021-08-16T13:31:30Z</time>
      </trkpt>
      <trkpt lat="44.93941" lon="1.8777">
        <ele>170.29</ele>
        <time>2021-08-16T13:31:31Z</time>
      </trkpt>
      <trkpt lat="44.93939" lon="1.87769">
        <ele>170.29</ele>
        <time>2021-08-16T13:31:34Z</time>
      </trkpt>
      <trkpt lat="44.93941" lon="1.87766">
        <ele>170.29</ele>
        <time>2021-08-16T13:31:36Z</time>
      </trkpt>
      <trkpt lat="44.93942" lon="1.87763">
        <ele>170.29</ele>
        <time>2021-08-16T13:31:37Z</time>
      </trkpt>
      <trkpt lat="44.93942" lon="1.87761">
        <ele>170.29</ele>
        <time>2021-08-16T13:31:38Z</time>
      </trkpt>
      <trkpt lat="44.93942" lon="1.87759">
        <ele>170.29</ele>
        <time>2021-08-16T13:31:39Z</time>
      </trkpt>
      <trkpt lat="44.93941" lon="1.87757">
        <ele>170.29</ele>
        <time>2021-08-16T13:31:40Z</time>
      </trkpt>
      <trkpt lat="44.93939" lon="1.87755">
        <ele>168.85</ele>
        <time>2021-08-16T13:31:41Z</time>
      </trkpt>
      <trkpt lat="44.93936" lon="1.87754">
        <ele>168.85</ele>
        <time>2021-08-16T13:31:42Z</time>
      </trkpt>
      <trkpt lat="44.93927" lon="1.87743">
        <ele>167.41</ele>
        <time>2021-08-16T13:31:48Z</time>
      </trkpt>
      <trkpt lat="44.93926" lon="1.87742">
        <ele>167.41</ele>
        <time>2021-08-16T13:31:49Z</time>
      </trkpt>
      <trkpt lat="44.93925" lon="1.87742">
        <ele>166.93</ele>
        <time>2021-08-16T13:31:50Z</time>
      </trkpt>
      <trkpt lat="44.93922" lon="1.87742">
        <ele>166.45</ele>
        <time>2021-08-16T13:31:51Z</time>
      </trkpt>
      <trkpt lat="44.9392" lon="1.87743">
        <ele>166.45</ele>
        <time>2021-08-16T13:31:52Z</time>
      </trkpt>
      <trkpt lat="44.93918" lon="1.87745">
        <ele>166.45</ele>
        <time>2021-08-16T13:31:53Z</time>
      </trkpt>
      <trkpt lat="44.93915" lon="1.87746">
        <ele>166.45</ele>
        <time>2021-08-16T13:31:54Z</time>
      </trkpt>
      <trkpt lat="44.93893" lon="1.87766">
        <ele>165.96</ele>
        <time>2021-08-16T13:32:02Z</time>
      </trkpt>
      <trkpt lat="44.93872" lon="1.87785">
        <ele>165.96</ele>
        <time>2021-08-16T13:32:10Z</time>
      </trkpt>
      <trkpt lat="44.9385" lon="1.87811">
        <ele>165.96</ele>
        <time>2021-08-16T13:32:18Z</time>
      </trkpt>
      <trkpt lat="44.93839" lon="1.87844">
        <ele>165.96</ele>
        <time>2021-08-16T13:32:25Z</time>
      </trkpt>
      <trkpt lat="44.93827" lon="1.87898">
        <ele>165.96</ele>
        <time>2021-08-16T13:32:35Z</time>
      </trkpt>
      <trkpt lat="44.93823" lon="1.87914">
        <ele>165.96</ele>
        <time>2021-08-16T13:32:38Z</time>
      </trkpt>
      <trkpt lat="44.93819" lon="1.87925">
        <ele>165.96</ele>
        <time>2021-08-16T13:32:40Z</time>
      </trkpt>
      <trkpt lat="44.93817" lon="1.87929">
        <ele>165.96</ele>
        <time>2021-08-16T13:32:41Z</time>
      </trkpt>
      <trkpt lat="44.93813" lon="1.87933">
        <ele>165.96</ele>
        <time>2021-08-16T13:32:42Z</time>
      </trkpt>
      <trkpt lat="44.9381" lon="1.87937">
        <ele>165.96</ele>
        <time>2021-08-16T13:32:43Z</time>
      </trkpt>
      <trkpt lat="44.93807" lon="1.87941">
        <ele>165.96</ele>
        <time>2021-08-16T13:32:44Z</time>
      </trkpt>
      <trkpt lat="44.93803" lon="1.87945">
        <ele>165.96</ele>
        <time>2021-08-16T13:32:45Z</time>
      </trkpt>
      <trkpt lat="44.93799" lon="1.87949">
        <ele>165.96</ele>
        <time>2021-08-16T13:32:46Z</time>
      </trkpt>
      <trkpt lat="44.93771" lon="1.87977">
        <ele>165.96</ele>
        <time>2021-08-16T13:32:54Z</time>
      </trkpt>
      <trkpt lat="44.93754" lon="1.88013">
        <ele>165.96</ele>
        <time>2021-08-16T13:33:02Z</time>
      </trkpt>
      <trkpt lat="44.9374" lon="1.88044">
        <ele>165.96</ele>
        <time>2021-08-16T13:33:08Z</time>
      </trkpt>
      <trkpt lat="44.93737" lon="1.88049">
        <ele>165.96</ele>
        <time>2021-08-16T13:33:09Z</time>
      </trkpt>
      <trkpt lat="44.93726" lon="1.88067">
        <ele>165.96</ele>
        <time>2021-08-16T13:33:13Z</time>
      </trkpt>
      <trkpt lat="44.93724" lon="1.88071">
        <ele>165.96</ele>
        <time>2021-08-16T13:33:14Z</time>
      </trkpt>
      <trkpt lat="44.93711" lon="1.88089">
        <ele>165.48</ele>
        <time>2021-08-16T13:33:18Z</time>
      </trkpt>
      <trkpt lat="44.93708" lon="1.88093">
        <ele>165.48</ele>
        <time>2021-08-16T13:33:19Z</time>
      </trkpt>
      <trkpt lat="44.93704" lon="1.88097">
        <ele>165.48</ele>
        <time>2021-08-16T13:33:20Z</time>
      </trkpt>
      <trkpt lat="44.93699" lon="1.881">
        <ele>165.48</ele>
        <time>2021-08-16T13:33:21Z</time>
      </trkpt>
      <trkpt lat="44.93695" lon="1.88103">
        <ele>165.48</ele>
        <time>2021-08-16T13:33:22Z</time>
      </trkpt>
      <trkpt lat="44.93689" lon="1.88104">
        <ele>165.48</ele>
        <time>2021-08-16T13:33:23Z</time>
      </trkpt>
      <trkpt lat="44.93686" lon="1.88104">
        <ele>165.48</ele>
        <time>2021-08-16T13:33:24Z</time>
      </trkpt>
      <trkpt lat="44.9368" lon="1.88102">
        <ele>165.48</ele>
        <time>2021-08-16T13:33:25Z</time>
      </trkpt>
      <trkpt lat="44.93676" lon="1.88101">
        <ele>165</ele>
        <time>2021-08-16T13:33:26Z</time>
      </trkpt>
      <trkpt lat="44.9367" lon="1.881">
        <ele>164.52</ele>
        <time>2021-08-16T13:33:27Z</time>
      </trkpt>
      <trkpt lat="44.93665" lon="1.88098">
        <ele>164.52</ele>
        <time>2021-08-16T13:33:28Z</time>
      </trkpt>
      <trkpt lat="44.93659" lon="1.88095">
        <ele>163.56</ele>
        <time>2021-08-16T13:33:29Z</time>
      </trkpt>
      <trkpt lat="44.93653" lon="1.88092">
        <ele>163.08</ele>
        <time>2021-08-16T13:33:30Z</time>
      </trkpt>
      <trkpt lat="44.93648" lon="1.88087">
        <ele>163.08</ele>
        <time>2021-08-16T13:33:31Z</time>
      </trkpt>
      <trkpt lat="44.93644" lon="1.88082">
        <ele>162.6</ele>
        <time>2021-08-16T13:33:32Z</time>
      </trkpt>
      <trkpt lat="44.93641" lon="1.88076">
        <ele>162.12</ele>
        <time>2021-08-16T13:33:33Z</time>
      </trkpt>
      <trkpt lat="44.9364" lon="1.88069">
        <ele>162.12</ele>
        <time>2021-08-16T13:33:34Z</time>
      </trkpt>
      <trkpt lat="44.9364" lon="1.88061">
        <ele>161.64</ele>
        <time>2021-08-16T13:33:35Z</time>
      </trkpt>
      <trkpt lat="44.93643" lon="1.88055">
        <ele>161.64</ele>
        <time>2021-08-16T13:33:36Z</time>
      </trkpt>
      <trkpt lat="44.93646" lon="1.88049">
        <ele>161.64</ele>
        <time>2021-08-16T13:33:37Z</time>
      </trkpt>
      <trkpt lat="44.9365" lon="1.88043">
        <ele>161.64</ele>
        <time>2021-08-16T13:33:38Z</time>
      </trkpt>
      <trkpt lat="44.93674" lon="1.88001">
        <ele>160.68</ele>
        <time>2021-08-16T13:33:46Z</time>
      </trkpt>
      <trkpt lat="44.93673" lon="1.87999">
        <ele>160.68</ele>
        <time>2021-08-16T13:33:47Z</time>
      </trkpt>
      <trkpt lat="44.93669" lon="1.88006">
        <ele>160.68</ele>
        <time>2021-08-16T13:33:51Z</time>
      </trkpt>
      <trkpt lat="44.93656" lon="1.88032">
        <ele>160.68</ele>
        <time>2021-08-16T13:33:58Z</time>
      </trkpt>
      <trkpt lat="44.93639" lon="1.88063">
        <ele>161.64</ele>
        <time>2021-08-16T13:34:04Z</time>
      </trkpt>
      <trkpt lat="44.93639" lon="1.88067">
        <ele>162.12</ele>
        <time>2021-08-16T13:34:05Z</time>
      </trkpt>
      <trkpt lat="44.93639" lon="1.88073">
        <ele>161.64</ele>
        <time>2021-08-16T13:34:06Z</time>
      </trkpt>
      <trkpt lat="44.93641" lon="1.88078">
        <ele>161.64</ele>
        <time>2021-08-16T13:34:07Z</time>
      </trkpt>
      <trkpt lat="44.93643" lon="1.88082">
        <ele>161.64</ele>
        <time>2021-08-16T13:34:08Z</time>
      </trkpt>
      <trkpt lat="44.93646" lon="1.88087">
        <ele>162.12</ele>
        <time>2021-08-16T13:34:09Z</time>
      </trkpt>
      <trkpt lat="44.93649" lon="1.8809">
        <ele>162.6</ele>
        <time>2021-08-16T13:34:10Z</time>
      </trkpt>
      <trkpt lat="44.93652" lon="1.88092">
        <ele>162.6</ele>
        <time>2021-08-16T13:34:11Z</time>
      </trkpt>
      <trkpt lat="44.93655" lon="1.88094">
        <ele>163.08</ele>
        <time>2021-08-16T13:34:12Z</time>
      </trkpt>
      <trkpt lat="44.93668" lon="1.88099">
        <ele>164.04</ele>
        <time>2021-08-16T13:34:18Z</time>
      </trkpt>
      <trkpt lat="44.93676" lon="1.88103">
        <ele>164.52</ele>
        <time>2021-08-16T13:34:22Z</time>
      </trkpt>
      <trkpt lat="44.93674" lon="1.8811">
        <ele>165</ele>
        <time>2021-08-16T13:34:26Z</time>
      </trkpt>
      <trkpt lat="44.93672" lon="1.8811">
        <ele>165</ele>
        <time>2021-08-16T13:34:27Z</time>
      </trkpt>
      <trkpt lat="44.93671" lon="1.8811">
        <ele>165</ele>
        <time>2021-08-16T13:34:28Z</time>
      </trkpt>
      <trkpt lat="44.93668" lon="1.88109">
        <ele>165</ele>
        <time>2021-08-16T13:34:29Z</time>
      </trkpt>
      <trkpt lat="44.93665" lon="1.88108">
        <ele>165</ele>
        <time>2021-08-16T13:34:30Z</time>
      </trkpt>
      <trkpt lat="44.93662" lon="1.88107">
        <ele>165</ele>
        <time>2021-08-16T13:34:31Z</time>
      </trkpt>
      <trkpt lat="44.93655" lon="1.88104">
        <ele>165</ele>
        <time>2021-08-16T13:34:33Z</time>
      </trkpt>
      <trkpt lat="44.93637" lon="1.88089">
        <ele>165</ele>
        <time>2021-08-16T13:34:38Z</time>
      </trkpt>
      <trkpt lat="44.93617" lon="1.8806">
        <ele>165</ele>
        <time>2021-08-16T13:34:46Z</time>
      </trkpt>
      <trkpt lat="44.93611" lon="1.88041">
        <ele>165.96</ele>
        <time>2021-08-16T13:34:52Z</time>
      </trkpt>
      <trkpt lat="44.93608" lon="1.88021">
        <ele>167.41</ele>
        <time>2021-08-16T13:35:00Z</time>
      </trkpt>
      <trkpt lat="44.93605" lon="1.87996">
        <ele>168.37</ele>
        <time>2021-08-16T13:35:09Z</time>
      </trkpt>
      <trkpt lat="44.93602" lon="1.87974">
        <ele>169.33</ele>
        <time>2021-08-16T13:35:17Z</time>
      </trkpt>
      <trkpt lat="44.93599" lon="1.87957">
        <ele>170.77</ele>
        <time>2021-08-16T13:35:24Z</time>
      </trkpt>
      <trkpt lat="44.93594" lon="1.87934">
        <ele>171.73</ele>
        <time>2021-08-16T13:35:32Z</time>
      </trkpt>
      <trkpt lat="44.93586" lon="1.87907">
        <ele>173.17</ele>
        <time>2021-08-16T13:35:42Z</time>
      </trkpt>
      <trkpt lat="44.93579" lon="1.8789">
        <ele>174.14</ele>
        <time>2021-08-16T13:35:49Z</time>
      </trkpt>
      <trkpt lat="44.93568" lon="1.87869">
        <ele>175.1</ele>
        <time>2021-08-16T13:35:58Z</time>
      </trkpt>
      <trkpt lat="44.93552" lon="1.87853">
        <ele>176.06</ele>
        <time>2021-08-16T13:36:06Z</time>
      </trkpt>
      <trkpt lat="44.93537" lon="1.8784">
        <ele>177.02</ele>
        <time>2021-08-16T13:36:14Z</time>
      </trkpt>
      <trkpt lat="44.93522" lon="1.87832">
        <ele>178.46</ele>
        <time>2021-08-16T13:36:23Z</time>
      </trkpt>
      <trkpt lat="44.93519" lon="1.8783">
        <ele>178.94</ele>
        <time>2021-08-16T13:36:31Z</time>
      </trkpt>
      <trkpt lat="44.93517" lon="1.8783">
        <ele>178.94</ele>
        <time>2021-08-16T13:36:52Z</time>
      </trkpt>
      <trkpt lat="44.93519" lon="1.87834">
        <ele>178.94</ele>
        <time>2021-08-16T13:37:11Z</time>
      </trkpt>
      <trkpt lat="44.93518" lon="1.87837">
        <ele>179.42</ele>
        <time>2021-08-16T13:37:29Z</time>
      </trkpt>
      <trkpt lat="44.93517" lon="1.87831">
        <ele>179.42</ele>
        <time>2021-08-16T13:37:46Z</time>
      </trkpt>
      <trkpt lat="44.93517" lon="1.87828">
        <ele>179.42</ele>
        <time>2021-08-16T13:38:10Z</time>
      </trkpt>
      <trkpt lat="44.93517" lon="1.87826">
        <ele>179.42</ele>
        <time>2021-08-16T13:38:35Z</time>
      </trkpt>
      <trkpt lat="44.93513" lon="1.87829">
        <ele>179.42</ele>
        <time>2021-08-16T13:39:00Z</time>
      </trkpt>
      <trkpt lat="44.93514" lon="1.87829">
        <ele>179.42</ele>
        <time>2021-08-16T13:39:19Z</time>
      </trkpt>
      <trkpt lat="44.93514" lon="1.87829">
        <ele>179.42</ele>
        <time>2021-08-16T13:39:30Z</time>
      </trkpt>
      <trkpt lat="44.93514" lon="1.8783">
        <ele>179.42</ele>
        <time>2021-08-16T13:39:38Z</time>
      </trkpt>
      <trkpt lat="44.93512" lon="1.8783">
        <ele>179.9</ele>
        <time>2021-08-16T13:39:58Z</time>
      </trkpt>
      <trkpt lat="44.93513" lon="1.87828">
        <ele>179.9</ele>
        <time>2021-08-16T13:40:16Z</time>
      </trkpt>
      <trkpt lat="44.93515" lon="1.87822">
        <ele>179.9</ele>
        <time>2021-08-16T13:40:39Z</time>
      </trkpt>
      <trkpt lat="44.93517" lon="1.87825">
        <ele>179.9</ele>
        <time>2021-08-16T13:41:03Z</time>
      </trkpt>
      <trkpt lat="44.93518" lon="1.87832">
        <ele>179.9</ele>
        <time>2021-08-16T13:41:28Z</time>
      </trkpt>
      <trkpt lat="44.93516" lon="1.87834">
        <ele>180.38</ele>
        <time>2021-08-16T13:41:57Z</time>
      </trkpt>
      <trkpt lat="44.93517" lon="1.87834">
        <ele>180.38</ele>
        <time>2021-08-16T13:42:24Z</time>
      </trkpt>
      <trkpt lat="44.93519" lon="1.87834">
        <ele>179.9</ele>
        <time>2021-08-16T13:42:49Z</time>
      </trkpt>
      <trkpt lat="44.9352" lon="1.87832">
        <ele>179.9</ele>
        <time>2021-08-16T13:43:08Z</time>
      </trkpt>
      <trkpt lat="44.93517" lon="1.8783">
        <ele>179.9</ele>
        <time>2021-08-16T13:43:27Z</time>
      </trkpt>
      <trkpt lat="44.93516" lon="1.8783">
        <ele>179.9</ele>
        <time>2021-08-16T13:43:53Z</time>
      </trkpt>
      <trkpt lat="44.93518" lon="1.87829">
        <ele>179.9</ele>
        <time>2021-08-16T13:44:16Z</time>
      </trkpt>
      <trkpt lat="44.9352" lon="1.87828">
        <ele>179.9</ele>
        <time>2021-08-16T13:44:41Z</time>
      </trkpt>
      <trkpt lat="44.9352" lon="1.87828">
        <ele>179.9</ele>
        <time>2021-08-16T13:44:50Z</time>
      </trkpt>
      <trkpt lat="44.93519" lon="1.87828">
        <ele>179.9</ele>
        <time>2021-08-16T13:45:03Z</time>
      </trkpt>
      <trkpt lat="44.93519" lon="1.8783">
        <ele>179.42</ele>
        <time>2021-08-16T13:45:27Z</time>
      </trkpt>
      <trkpt lat="44.93518" lon="1.8783">
        <ele>179.42</ele>
        <time>2021-08-16T13:45:51Z</time>
      </trkpt>
      <trkpt lat="44.93518" lon="1.87831">
        <ele>179.42</ele>
        <time>2021-08-16T13:46:11Z</time>
      </trkpt>
      <trkpt lat="44.93516" lon="1.87832">
        <ele>179.42</ele>
        <time>2021-08-16T13:46:37Z</time>
      </trkpt>
      <trkpt lat="44.93516" lon="1.87833">
        <ele>179.42</ele>
        <time>2021-08-16T13:46:59Z</time>
      </trkpt>
      <trkpt lat="44.93515" lon="1.8783">
        <ele>179.42</ele>
        <time>2021-08-16T13:47:20Z</time>
      </trkpt>
      <trkpt lat="44.93517" lon="1.87827">
        <ele>179.42</ele>
        <time>2021-08-16T13:47:39Z</time>
      </trkpt>
      <trkpt lat="44.93515" lon="1.87831">
        <ele>179.42</ele>
        <time>2021-08-16T13:48:01Z</time>
      </trkpt>
      <trkpt lat="44.93516" lon="1.87829">
        <ele>178.94</ele>
        <time>2021-08-16T13:48:19Z</time>
      </trkpt>
      <trkpt lat="44.93516" lon="1.87827">
        <ele>178.94</ele>
        <time>2021-08-16T13:48:37Z</time>
      </trkpt>
      <trkpt lat="44.93517" lon="1.87829">
        <ele>179.42</ele>
        <time>2021-08-16T13:48:58Z</time>
      </trkpt>
      <trkpt lat="44.93517" lon="1.87828">
        <ele>179.42</ele>
        <time>2021-08-16T13:49:16Z</time>
      </trkpt>
      <trkpt lat="44.93515" lon="1.87826">
        <ele>179.42</ele>
        <time>2021-08-16T13:49:23Z</time>
      </trkpt>
      <trkpt lat="44.93519" lon="1.87833">
        <ele>179.42</ele>
        <time>2021-08-16T13:49:40Z</time>
      </trkpt>
      <trkpt lat="44.9352" lon="1.87831">
        <ele>179.42</ele>
        <time>2021-08-16T13:49:57Z</time>
      </trkpt>
      <trkpt lat="44.93523" lon="1.87836">
        <ele>179.42</ele>
        <time>2021-08-16T13:50:14Z</time>
      </trkpt>
      <trkpt lat="44.93518" lon="1.87833">
        <ele>179.42</ele>
        <time>2021-08-16T13:50:35Z</time>
      </trkpt>
      <trkpt lat="44.93514" lon="1.87835">
        <ele>179.42</ele>
        <time>2021-08-16T13:50:43Z</time>
      </trkpt>
      <trkpt lat="44.93506" lon="1.87836">
        <ele>179.42</ele>
        <time>2021-08-16T13:50:49Z</time>
      </trkpt>
      <trkpt lat="44.93493" lon="1.87839">
        <ele>180.38</ele>
        <time>2021-08-16T13:50:56Z</time>
      </trkpt>
      <trkpt lat="44.93491" lon="1.8784">
        <ele>180.38</ele>
        <time>2021-08-16T13:50:57Z</time>
      </trkpt>
      <trkpt lat="44.9349" lon="1.87841">
        <ele>180.87</ele>
        <time>2021-08-16T13:50:58Z</time>
      </trkpt>
      <trkpt lat="44.93488" lon="1.87842">
        <ele>180.87</ele>
        <time>2021-08-16T13:50:59Z</time>
      </trkpt>
      <trkpt lat="44.93486" lon="1.87843">
        <ele>180.87</ele>
        <time>2021-08-16T13:51:00Z</time>
      </trkpt>
      <trkpt lat="44.93485" lon="1.87844">
        <ele>181.35</ele>
        <time>2021-08-16T13:51:01Z</time>
      </trkpt>
      <trkpt lat="44.93471" lon="1.87851">
        <ele>182.31</ele>
        <time>2021-08-16T13:51:09Z</time>
      </trkpt>
      <trkpt lat="44.93459" lon="1.87858">
        <ele>183.27</ele>
        <time>2021-08-16T13:51:18Z</time>
      </trkpt>
      <trkpt lat="44.93454" lon="1.8786">
        <ele>183.75</ele>
        <time>2021-08-16T13:51:22Z</time>
      </trkpt>
      <trkpt lat="44.93454" lon="1.87862">
        <ele>183.75</ele>
        <time>2021-08-16T13:51:23Z</time>
      </trkpt>
      <trkpt lat="44.93452" lon="1.87862">
        <ele>183.75</ele>
        <time>2021-08-16T13:51:24Z</time>
      </trkpt>
      <trkpt lat="44.93451" lon="1.87863">
        <ele>183.75</ele>
        <time>2021-08-16T13:51:25Z</time>
      </trkpt>
      <trkpt lat="44.9345" lon="1.87863">
        <ele>184.23</ele>
        <time>2021-08-16T13:51:26Z</time>
      </trkpt>
      <trkpt lat="44.93448" lon="1.87863">
        <ele>184.23</ele>
        <time>2021-08-16T13:51:27Z</time>
      </trkpt>
      <trkpt lat="44.93447" lon="1.87863">
        <ele>184.23</ele>
        <time>2021-08-16T13:51:28Z</time>
      </trkpt>
      <trkpt lat="44.93445" lon="1.87863">
        <ele>184.23</ele>
        <time>2021-08-16T13:51:29Z</time>
      </trkpt>
      <trkpt lat="44.9344" lon="1.87861">
        <ele>184.71</ele>
        <time>2021-08-16T13:51:32Z</time>
      </trkpt>
      <trkpt lat="44.93439" lon="1.8786">
        <ele>184.71</ele>
        <time>2021-08-16T13:51:33Z</time>
      </trkpt>
      <trkpt lat="44.93438" lon="1.87859">
        <ele>184.71</ele>
        <time>2021-08-16T13:51:34Z</time>
      </trkpt>
      <trkpt lat="44.93436" lon="1.87857">
        <ele>184.71</ele>
        <time>2021-08-16T13:51:35Z</time>
      </trkpt>
      <trkpt lat="44.93435" lon="1.87856">
        <ele>185.19</ele>
        <time>2021-08-16T13:51:36Z</time>
      </trkpt>
      <trkpt lat="44.93434" lon="1.87854">
        <ele>185.19</ele>
        <time>2021-08-16T13:51:37Z</time>
      </trkpt>
      <trkpt lat="44.93433" lon="1.87852">
        <ele>185.19</ele>
        <time>2021-08-16T13:51:38Z</time>
      </trkpt>
      <trkpt lat="44.93432" lon="1.8785">
        <ele>185.19</ele>
        <time>2021-08-16T13:51:39Z</time>
      </trkpt>
      <trkpt lat="44.93428" lon="1.8783">
        <ele>187.11</ele>
        <time>2021-08-16T13:51:48Z</time>
      </trkpt>
      <trkpt lat="44.93427" lon="1.87808">
        <ele>187.59</ele>
        <time>2021-08-16T13:51:56Z</time>
      </trkpt>
      <trkpt lat="44.93428" lon="1.87786">
        <ele>188.56</ele>
        <time>2021-08-16T13:52:05Z</time>
      </trkpt>
      <trkpt lat="44.93423" lon="1.87761">
        <ele>189.52</ele>
        <time>2021-08-16T13:52:15Z</time>
      </trkpt>
      <trkpt lat="44.93414" lon="1.87744">
        <ele>190.96</ele>
        <time>2021-08-16T13:52:24Z</time>
      </trkpt>
      <trkpt lat="44.93403" lon="1.87725">
        <ele>191.92</ele>
        <time>2021-08-16T13:52:34Z</time>
      </trkpt>
      <trkpt lat="44.9339" lon="1.87708">
        <ele>193.36</ele>
        <time>2021-08-16T13:52:45Z</time>
      </trkpt>
      <trkpt lat="44.93374" lon="1.87699">
        <ele>194.32</ele>
        <time>2021-08-16T13:52:55Z</time>
      </trkpt>
      <trkpt lat="44.93362" lon="1.87695">
        <ele>195.28</ele>
        <time>2021-08-16T13:53:02Z</time>
      </trkpt>
      <trkpt lat="44.9335" lon="1.87691">
        <ele>196.25</ele>
        <time>2021-08-16T13:53:09Z</time>
      </trkpt>
      <trkpt lat="44.93333" lon="1.87686">
        <ele>197.21</ele>
        <time>2021-08-16T13:53:19Z</time>
      </trkpt>
      <trkpt lat="44.93314" lon="1.87681">
        <ele>198.17</ele>
        <time>2021-08-16T13:53:29Z</time>
      </trkpt>
      <trkpt lat="44.93297" lon="1.87678">
        <ele>199.61</ele>
        <time>2021-08-16T13:53:38Z</time>
      </trkpt>
      <trkpt lat="44.93284" lon="1.87676">
        <ele>200.09</ele>
        <time>2021-08-16T13:53:45Z</time>
      </trkpt>
      <trkpt lat="44.93269" lon="1.87674">
        <ele>201.05</ele>
        <time>2021-08-16T13:53:52Z</time>
      </trkpt>
      <trkpt lat="44.9325" lon="1.87671">
        <ele>202.49</ele>
        <time>2021-08-16T13:54:02Z</time>
      </trkpt>
      <trkpt lat="44.93231" lon="1.87669">
        <ele>203.94</ele>
        <time>2021-08-16T13:54:12Z</time>
      </trkpt>
      <trkpt lat="44.93225" lon="1.87668">
        <ele>204.42</ele>
        <time>2021-08-16T13:54:15Z</time>
      </trkpt>
      <trkpt lat="44.93224" lon="1.87666">
        <ele>204.42</ele>
        <time>2021-08-16T13:54:16Z</time>
      </trkpt>
      <trkpt lat="44.93222" lon="1.87665">
        <ele>204.42</ele>
        <time>2021-08-16T13:54:17Z</time>
      </trkpt>
      <trkpt lat="44.9322" lon="1.87665">
        <ele>204.42</ele>
        <time>2021-08-16T13:54:18Z</time>
      </trkpt>
      <trkpt lat="44.93218" lon="1.87664">
        <ele>204.42</ele>
        <time>2021-08-16T13:54:19Z</time>
      </trkpt>
      <trkpt lat="44.93217" lon="1.87664">
        <ele>204.9</ele>
        <time>2021-08-16T13:54:20Z</time>
      </trkpt>
      <trkpt lat="44.93215" lon="1.87664">
        <ele>204.9</ele>
        <time>2021-08-16T13:54:21Z</time>
      </trkpt>
      <trkpt lat="44.93213" lon="1.87664">
        <ele>204.9</ele>
        <time>2021-08-16T13:54:22Z</time>
      </trkpt>
      <trkpt lat="44.93211" lon="1.87663">
        <ele>204.9</ele>
        <time>2021-08-16T13:54:23Z</time>
      </trkpt>
      <trkpt lat="44.93209" lon="1.87662">
        <ele>205.38</ele>
        <time>2021-08-16T13:54:24Z</time>
      </trkpt>
      <trkpt lat="44.93192" lon="1.87648">
        <ele>206.82</ele>
        <time>2021-08-16T13:54:34Z</time>
      </trkpt>
      <trkpt lat="44.93178" lon="1.87639">
        <ele>207.78</ele>
        <time>2021-08-16T13:54:42Z</time>
      </trkpt>
      <trkpt lat="44.9316" lon="1.87633">
        <ele>209.22</ele>
        <time>2021-08-16T13:54:50Z</time>
      </trkpt>
      <trkpt lat="44.93136" lon="1.87636">
        <ele>210.67</ele>
        <time>2021-08-16T13:55:00Z</time>
      </trkpt>
      <trkpt lat="44.93118" lon="1.87646">
        <ele>212.11</ele>
        <time>2021-08-16T13:55:09Z</time>
      </trkpt>
      <trkpt lat="44.93101" lon="1.8766">
        <ele>213.55</ele>
        <time>2021-08-16T13:55:19Z</time>
      </trkpt>
      <trkpt lat="44.93087" lon="1.87671">
        <ele>214.99</ele>
        <time>2021-08-16T13:55:27Z</time>
      </trkpt>
      <trkpt lat="44.93072" lon="1.87685">
        <ele>216.43</ele>
        <time>2021-08-16T13:55:36Z</time>
      </trkpt>
      <trkpt lat="44.93058" lon="1.87697">
        <ele>217.4</ele>
        <time>2021-08-16T13:55:44Z</time>
      </trkpt>
      <trkpt lat="44.93039" lon="1.87716">
        <ele>219.8</ele>
        <time>2021-08-16T13:55:55Z</time>
      </trkpt>
      <trkpt lat="44.93023" lon="1.8773">
        <ele>221.24</ele>
        <time>2021-08-16T13:56:04Z</time>
      </trkpt>
      <trkpt lat="44.93006" lon="1.87742">
        <ele>222.2</ele>
        <time>2021-08-16T13:56:14Z</time>
      </trkpt>
      <trkpt lat="44.92989" lon="1.87746">
        <ele>223.64</ele>
        <time>2021-08-16T13:56:22Z</time>
      </trkpt>
      <trkpt lat="44.92977" lon="1.87736">
        <ele>225.09</ele>
        <time>2021-08-16T13:56:29Z</time>
      </trkpt>
      <trkpt lat="44.92969" lon="1.87716">
        <ele>226.05</ele>
        <time>2021-08-16T13:56:36Z</time>
      </trkpt>
      <trkpt lat="44.92962" lon="1.87694">
        <ele>227.97</ele>
        <time>2021-08-16T13:56:45Z</time>
      </trkpt>
      <trkpt lat="44.92955" lon="1.87672">
        <ele>229.41</ele>
        <time>2021-08-16T13:56:54Z</time>
      </trkpt>
      <trkpt lat="44.92942" lon="1.87663">
        <ele>230.85</ele>
        <time>2021-08-16T13:57:02Z</time>
      </trkpt>
      <trkpt lat="44.92919" lon="1.8767">
        <ele>232.3</ele>
        <time>2021-08-16T13:57:13Z</time>
      </trkpt>
      <trkpt lat="44.92903" lon="1.8768">
        <ele>233.26</ele>
        <time>2021-08-16T13:57:23Z</time>
      </trkpt>
      <trkpt lat="44.92901" lon="1.87681">
        <ele>233.74</ele>
        <time>2021-08-16T13:57:24Z</time>
      </trkpt>
      <trkpt lat="44.92886" lon="1.87691">
        <ele>234.7</ele>
        <time>2021-08-16T13:57:33Z</time>
      </trkpt>
      <trkpt lat="44.9287" lon="1.87706">
        <ele>236.14</ele>
        <time>2021-08-16T13:57:42Z</time>
      </trkpt>
      <trkpt lat="44.92859" lon="1.87724">
        <ele>237.1</ele>
        <time>2021-08-16T13:57:51Z</time>
      </trkpt>
      <trkpt lat="44.92854" lon="1.87745">
        <ele>239.02</ele>
        <time>2021-08-16T13:57:59Z</time>
      </trkpt>
      <trkpt lat="44.92855" lon="1.87773">
        <ele>239.51</ele>
        <time>2021-08-16T13:58:09Z</time>
      </trkpt>
      <trkpt lat="44.92852" lon="1.87796">
        <ele>241.43</ele>
        <time>2021-08-16T13:58:18Z</time>
      </trkpt>
      <trkpt lat="44.92845" lon="1.87819">
        <ele>242.39</ele>
        <time>2021-08-16T13:58:27Z</time>
      </trkpt>
      <trkpt lat="44.92835" lon="1.87831">
        <ele>242.87</ele>
        <time>2021-08-16T13:58:33Z</time>
      </trkpt>
      <trkpt lat="44.9282" lon="1.8784">
        <ele>244.79</ele>
        <time>2021-08-16T13:58:42Z</time>
      </trkpt>
      <trkpt lat="44.92803" lon="1.87847">
        <ele>245.75</ele>
        <time>2021-08-16T13:58:52Z</time>
      </trkpt>
      <trkpt lat="44.92801" lon="1.87848">
        <ele>245.75</ele>
        <time>2021-08-16T13:58:53Z</time>
      </trkpt>
      <trkpt lat="44.92799" lon="1.8785">
        <ele>246.23</ele>
        <time>2021-08-16T13:58:54Z</time>
      </trkpt>
      <trkpt lat="44.92797" lon="1.8785">
        <ele>246.23</ele>
        <time>2021-08-16T13:58:55Z</time>
      </trkpt>
      <trkpt lat="44.92796" lon="1.87851">
        <ele>246.23</ele>
        <time>2021-08-16T13:58:56Z</time>
      </trkpt>
      <trkpt lat="44.92794" lon="1.87853">
        <ele>246.72</ele>
        <time>2021-08-16T13:58:57Z</time>
      </trkpt>
      <trkpt lat="44.92793" lon="1.87854">
        <ele>246.72</ele>
        <time>2021-08-16T13:58:58Z</time>
      </trkpt>
      <trkpt lat="44.92779" lon="1.87867">
        <ele>247.2</ele>
        <time>2021-08-16T13:59:07Z</time>
      </trkpt>
      <trkpt lat="44.92763" lon="1.87884">
        <ele>249.12</ele>
        <time>2021-08-16T13:59:17Z</time>
      </trkpt>
      <trkpt lat="44.92754" lon="1.87895">
        <ele>249.6</ele>
        <time>2021-08-16T13:59:22Z</time>
      </trkpt>
      <trkpt lat="44.92742" lon="1.87917">
        <ele>251.04</ele>
        <time>2021-08-16T13:59:32Z</time>
      </trkpt>
      <trkpt lat="44.9273" lon="1.8793">
        <ele>251.52</ele>
        <time>2021-08-16T13:59:40Z</time>
      </trkpt>
      <trkpt lat="44.92719" lon="1.87934">
        <ele>252.48</ele>
        <time>2021-08-16T13:59:46Z</time>
      </trkpt>
      <trkpt lat="44.92717" lon="1.87933">
        <ele>252.96</ele>
        <time>2021-08-16T13:59:47Z</time>
      </trkpt>
      <trkpt lat="44.92716" lon="1.87933">
        <ele>252.96</ele>
        <time>2021-08-16T13:59:48Z</time>
      </trkpt>
      <trkpt lat="44.92698" lon="1.87934">
        <ele>254.41</ele>
        <time>2021-08-16T13:59:57Z</time>
      </trkpt>
      <trkpt lat="44.92683" lon="1.87939">
        <ele>254.89</ele>
        <time>2021-08-16T14:00:05Z</time>
      </trkpt>
      <trkpt lat="44.92659" lon="1.87944">
        <ele>256.81</ele>
        <time>2021-08-16T14:00:17Z</time>
      </trkpt>
      <trkpt lat="44.92642" lon="1.87947">
        <ele>257.77</ele>
        <time>2021-08-16T14:00:26Z</time>
      </trkpt>
      <trkpt lat="44.9262" lon="1.8795">
        <ele>259.21</ele>
        <time>2021-08-16T14:00:35Z</time>
      </trkpt>
      <trkpt lat="44.92603" lon="1.87949">
        <ele>260.65</ele>
        <time>2021-08-16T14:00:43Z</time>
      </trkpt>
      <trkpt lat="44.92587" lon="1.87936">
        <ele>261.62</ele>
        <time>2021-08-16T14:00:51Z</time>
      </trkpt>
      <trkpt lat="44.92578" lon="1.87918">
        <ele>263.06</ele>
        <time>2021-08-16T14:00:59Z</time>
      </trkpt>
      <trkpt lat="44.92568" lon="1.87894">
        <ele>264.02</ele>
        <time>2021-08-16T14:01:08Z</time>
      </trkpt>
      <trkpt lat="44.92557" lon="1.87872">
        <ele>265.46</ele>
        <time>2021-08-16T14:01:17Z</time>
      </trkpt>
      <trkpt lat="44.92545" lon="1.87833">
        <ele>266.9</ele>
        <time>2021-08-16T14:01:31Z</time>
      </trkpt>
      <trkpt lat="44.92535" lon="1.87809">
        <ele>268.35</ele>
        <time>2021-08-16T14:01:40Z</time>
      </trkpt>
      <trkpt lat="44.92524" lon="1.87785">
        <ele>270.27</ele>
        <time>2021-08-16T14:01:50Z</time>
      </trkpt>
      <trkpt lat="44.92505" lon="1.87772">
        <ele>271.71</ele>
        <time>2021-08-16T14:02:00Z</time>
      </trkpt>
      <trkpt lat="44.92485" lon="1.8777">
        <ele>273.15</ele>
        <time>2021-08-16T14:02:09Z</time>
      </trkpt>
      <trkpt lat="44.92466" lon="1.87773">
        <ele>274.11</ele>
        <time>2021-08-16T14:02:17Z</time>
      </trkpt>
      <trkpt lat="44.92448" lon="1.87786">
        <ele>274.59</ele>
        <time>2021-08-16T14:02:24Z</time>
      </trkpt>
      <trkpt lat="44.92427" lon="1.87806">
        <ele>274.11</ele>
        <time>2021-08-16T14:02:32Z</time>
      </trkpt>
      <trkpt lat="44.92415" lon="1.87818">
        <ele>274.11</ele>
        <time>2021-08-16T14:02:36Z</time>
      </trkpt>
      <trkpt lat="44.92408" lon="1.87825">
        <ele>272.67</ele>
        <time>2021-08-16T14:02:38Z</time>
      </trkpt>
      <trkpt lat="44.92397" lon="1.87837">
        <ele>272.19</ele>
        <time>2021-08-16T14:02:41Z</time>
      </trkpt>
      <trkpt lat="44.92374" lon="1.8786">
        <ele>271.71</ele>
        <time>2021-08-16T14:02:47Z</time>
      </trkpt>
      <trkpt lat="44.92343" lon="1.87893">
        <ele>270.75</ele>
        <time>2021-08-16T14:02:55Z</time>
      </trkpt>
      <trkpt lat="44.92308" lon="1.87925">
        <ele>270.27</ele>
        <time>2021-08-16T14:03:04Z</time>
      </trkpt>
      <trkpt lat="44.92305" lon="1.87927">
        <ele>270.27</ele>
        <time>2021-08-16T14:03:05Z</time>
      </trkpt>
      <trkpt lat="44.92282" lon="1.87929">
        <ele>269.79</ele>
        <time>2021-08-16T14:03:11Z</time>
      </trkpt>
      <trkpt lat="44.92258" lon="1.87931">
        <ele>269.31</ele>
        <time>2021-08-16T14:03:17Z</time>
      </trkpt>
      <trkpt lat="44.92245" lon="1.87928">
        <ele>269.31</ele>
        <time>2021-08-16T14:03:20Z</time>
      </trkpt>
      <trkpt lat="44.92225" lon="1.87921">
        <ele>267.86</ele>
        <time>2021-08-16T14:03:25Z</time>
      </trkpt>
      <trkpt lat="44.92221" lon="1.87919">
        <ele>267.86</ele>
        <time>2021-08-16T14:03:26Z</time>
      </trkpt>
      <trkpt lat="44.92191" lon="1.87913">
        <ele>266.42</ele>
        <time>2021-08-16T14:03:34Z</time>
      </trkpt>
      <trkpt lat="44.92184" lon="1.87912">
        <ele>265.46</ele>
        <time>2021-08-16T14:03:40Z</time>
      </trkpt>
      <trkpt lat="44.92183" lon="1.87909">
        <ele>265.46</ele>
        <time>2021-08-16T14:03:48Z</time>
      </trkpt>
      <trkpt lat="44.92183" lon="1.87906">
        <ele>265.46</ele>
        <time>2021-08-16T14:03:49Z</time>
      </trkpt>
      <trkpt lat="44.92186" lon="1.87897">
        <ele>264.5</ele>
        <time>2021-08-16T14:03:53Z</time>
      </trkpt>
      <trkpt lat="44.92187" lon="1.87896">
        <ele>264.5</ele>
        <time>2021-08-16T14:03:54Z</time>
      </trkpt>
      <trkpt lat="44.92188" lon="1.87895">
        <ele>264.02</ele>
        <time>2021-08-16T14:03:55Z</time>
      </trkpt>
      <trkpt lat="44.92189" lon="1.87895">
        <ele>264.02</ele>
        <time>2021-08-16T14:03:56Z</time>
      </trkpt>
      <trkpt lat="44.92191" lon="1.87895">
        <ele>264.02</ele>
        <time>2021-08-16T14:04:02Z</time>
      </trkpt>
      <trkpt lat="44.92192" lon="1.87889">
        <ele>264.02</ele>
        <time>2021-08-16T14:04:16Z</time>
      </trkpt>
      <trkpt lat="44.92191" lon="1.87887">
        <ele>264.02</ele>
        <time>2021-08-16T14:04:20Z</time>
      </trkpt>
      <trkpt lat="44.9219" lon="1.87885">
        <ele>264.02</ele>
        <time>2021-08-16T14:04:21Z</time>
      </trkpt>
      <trkpt lat="44.92187" lon="1.87881">
        <ele>264.02</ele>
        <time>2021-08-16T14:04:29Z</time>
      </trkpt>
      <trkpt lat="44.92185" lon="1.8788">
        <ele>264.02</ele>
        <time>2021-08-16T14:04:43Z</time>
      </trkpt>
      <trkpt lat="44.92184" lon="1.8788">
        <ele>264.02</ele>
        <time>2021-08-16T14:04:59Z</time>
      </trkpt>
      <trkpt lat="44.92185" lon="1.87881">
        <ele>264.02</ele>
        <time>2021-08-16T14:05:14Z</time>
      </trkpt>
      <trkpt lat="44.92185" lon="1.87882">
        <ele>264.02</ele>
        <time>2021-08-16T14:05:24Z</time>
      </trkpt>
      <trkpt lat="44.92185" lon="1.87883">
        <ele>264.02</ele>
        <time>2021-08-16T14:05:25Z</time>
      </trkpt>
      <trkpt lat="44.92182" lon="1.87891">
        <ele>264.02</ele>
        <time>2021-08-16T14:05:31Z</time>
      </trkpt>
      <trkpt lat="44.9218" lon="1.87897">
        <ele>264.02</ele>
        <time>2021-08-16T14:05:34Z</time>
      </trkpt>
      <trkpt lat="44.9218" lon="1.87899">
        <ele>264.02</ele>
        <time>2021-08-16T14:05:35Z</time>
      </trkpt>
      <trkpt lat="44.92179" lon="1.87908">
        <ele>265.46</ele>
        <time>2021-08-16T14:05:43Z</time>
      </trkpt>
      <trkpt lat="44.92178" lon="1.87908">
        <ele>265.46</ele>
        <time>2021-08-16T14:05:44Z</time>
      </trkpt>
      <trkpt lat="44.92177" lon="1.87909">
        <ele>265.46</ele>
        <time>2021-08-16T14:05:45Z</time>
      </trkpt>
      <trkpt lat="44.92175" lon="1.87909">
        <ele>265.46</ele>
        <time>2021-08-16T14:05:46Z</time>
      </trkpt>
      <trkpt lat="44.92173" lon="1.8791">
        <ele>265.46</ele>
        <time>2021-08-16T14:05:47Z</time>
      </trkpt>
      <trkpt lat="44.92171" lon="1.8791">
        <ele>265.46</ele>
        <time>2021-08-16T14:05:48Z</time>
      </trkpt>
      <trkpt lat="44.92169" lon="1.8791">
        <ele>265.46</ele>
        <time>2021-08-16T14:05:49Z</time>
      </trkpt>
      <trkpt lat="44.92166" lon="1.87911">
        <ele>265.46</ele>
        <time>2021-08-16T14:05:50Z</time>
      </trkpt>
      <trkpt lat="44.92144" lon="1.87918">
        <ele>264.98</ele>
        <time>2021-08-16T14:05:58Z</time>
      </trkpt>
      <trkpt lat="44.92128" lon="1.87925">
        <ele>264.02</ele>
        <time>2021-08-16T14:06:03Z</time>
      </trkpt>
      <trkpt lat="44.92097" lon="1.87934">
        <ele>263.54</ele>
        <time>2021-08-16T14:06:12Z</time>
      </trkpt>
      <trkpt lat="44.92066" lon="1.87935">
        <ele>262.58</ele>
        <time>2021-08-16T14:06:20Z</time>
      </trkpt>
      <trkpt lat="44.92024" lon="1.87934">
        <ele>261.14</ele>
        <time>2021-08-16T14:06:28Z</time>
      </trkpt>
      <trkpt lat="44.91967" lon="1.87929">
        <ele>259.69</ele>
        <time>2021-08-16T14:06:37Z</time>
      </trkpt>
      <trkpt lat="44.9194" lon="1.8793">
        <ele>258.73</ele>
        <time>2021-08-16T14:06:41Z</time>
      </trkpt>
      <trkpt lat="44.9188" lon="1.87944">
        <ele>257.77</ele>
        <time>2021-08-16T14:06:50Z</time>
      </trkpt>
      <trkpt lat="44.91868" lon="1.87949">
        <ele>257.77</ele>
        <time>2021-08-16T14:06:52Z</time>
      </trkpt>
      <trkpt lat="44.91861" lon="1.87953">
        <ele>257.77</ele>
        <time>2021-08-16T14:06:53Z</time>
      </trkpt>
      <trkpt lat="44.91856" lon="1.87958">
        <ele>257.29</ele>
        <time>2021-08-16T14:06:54Z</time>
      </trkpt>
      <trkpt lat="44.91851" lon="1.87963">
        <ele>257.29</ele>
        <time>2021-08-16T14:06:55Z</time>
      </trkpt>
      <trkpt lat="44.91846" lon="1.87969">
        <ele>257.29</ele>
        <time>2021-08-16T14:06:56Z</time>
      </trkpt>
      <trkpt lat="44.91828" lon="1.87987">
        <ele>255.85</ele>
        <time>2021-08-16T14:06:59Z</time>
      </trkpt>
      <trkpt lat="44.91819" lon="1.87993">
        <ele>254.41</ele>
        <time>2021-08-16T14:07:00Z</time>
      </trkpt>
      <trkpt lat="44.91813" lon="1.87997">
        <ele>253.93</ele>
        <time>2021-08-16T14:07:01Z</time>
      </trkpt>
      <trkpt lat="44.91804" lon="1.88001">
        <ele>252.96</ele>
        <time>2021-08-16T14:07:02Z</time>
      </trkpt>
      <trkpt lat="44.91795" lon="1.88005">
        <ele>252.48</ele>
        <time>2021-08-16T14:07:03Z</time>
      </trkpt>
      <trkpt lat="44.91766" lon="1.88017">
        <ele>249.12</ele>
        <time>2021-08-16T14:07:06Z</time>
      </trkpt>
      <trkpt lat="44.91737" lon="1.88035">
        <ele>245.75</ele>
        <time>2021-08-16T14:07:09Z</time>
      </trkpt>
      <trkpt lat="44.91706" lon="1.88059">
        <ele>241.91</ele>
        <time>2021-08-16T14:07:12Z</time>
      </trkpt>
      <trkpt lat="44.91675" lon="1.88087">
        <ele>237.58</ele>
        <time>2021-08-16T14:07:15Z</time>
      </trkpt>
      <trkpt lat="44.91643" lon="1.88114">
        <ele>234.7</ele>
        <time>2021-08-16T14:07:18Z</time>
      </trkpt>
      <trkpt lat="44.91597" lon="1.8814">
        <ele>231.33</ele>
        <time>2021-08-16T14:07:22Z</time>
      </trkpt>
      <trkpt lat="44.91562" lon="1.88157">
        <ele>227.97</ele>
        <time>2021-08-16T14:07:25Z</time>
      </trkpt>
      <trkpt lat="44.91525" lon="1.88175">
        <ele>224.12</ele>
        <time>2021-08-16T14:07:28Z</time>
      </trkpt>
      <trkpt lat="44.91491" lon="1.88191">
        <ele>220.28</ele>
        <time>2021-08-16T14:07:31Z</time>
      </trkpt>
      <trkpt lat="44.91455" lon="1.88202">
        <ele>216.43</ele>
        <time>2021-08-16T14:07:34Z</time>
      </trkpt>
      <trkpt lat="44.91442" lon="1.88202">
        <ele>215.47</ele>
        <time>2021-08-16T14:07:35Z</time>
      </trkpt>
      <trkpt lat="44.91407" lon="1.88198">
        <ele>212.11</ele>
        <time>2021-08-16T14:07:38Z</time>
      </trkpt>
      <trkpt lat="44.91396" lon="1.88193">
        <ele>210.67</ele>
        <time>2021-08-16T14:07:39Z</time>
      </trkpt>
      <trkpt lat="44.91386" lon="1.88186">
        <ele>209.7</ele>
        <time>2021-08-16T14:07:40Z</time>
      </trkpt>
      <trkpt lat="44.91377" lon="1.88176">
        <ele>208.74</ele>
        <time>2021-08-16T14:07:41Z</time>
      </trkpt>
      <trkpt lat="44.91368" lon="1.88166">
        <ele>207.78</ele>
        <time>2021-08-16T14:07:42Z</time>
      </trkpt>
      <trkpt lat="44.91358" lon="1.88153">
        <ele>206.82</ele>
        <time>2021-08-16T14:07:43Z</time>
      </trkpt>
      <trkpt lat="44.91333" lon="1.88115">
        <ele>202.98</ele>
        <time>2021-08-16T14:07:46Z</time>
      </trkpt>
      <trkpt lat="44.91309" lon="1.88072">
        <ele>199.13</ele>
        <time>2021-08-16T14:07:49Z</time>
      </trkpt>
      <trkpt lat="44.91286" lon="1.88027">
        <ele>194.8</ele>
        <time>2021-08-16T14:07:52Z</time>
      </trkpt>
      <trkpt lat="44.91263" lon="1.87981">
        <ele>190.96</ele>
        <time>2021-08-16T14:07:55Z</time>
      </trkpt>
      <trkpt lat="44.91251" lon="1.87952">
        <ele>188.56</ele>
        <time>2021-08-16T14:07:57Z</time>
      </trkpt>
      <trkpt lat="44.91247" lon="1.87939">
        <ele>187.59</ele>
        <time>2021-08-16T14:07:58Z</time>
      </trkpt>
      <trkpt lat="44.91246" lon="1.87928">
        <ele>186.63</ele>
        <time>2021-08-16T14:07:59Z</time>
      </trkpt>
      <trkpt lat="44.91245" lon="1.87918">
        <ele>186.15</ele>
        <time>2021-08-16T14:08:00Z</time>
      </trkpt>
      <trkpt lat="44.91243" lon="1.87912">
        <ele>186.15</ele>
        <time>2021-08-16T14:08:01Z</time>
      </trkpt>
      <trkpt lat="44.91238" lon="1.8791">
        <ele>185.67</ele>
        <time>2021-08-16T14:08:02Z</time>
      </trkpt>
      <trkpt lat="44.91235" lon="1.87913">
        <ele>185.19</ele>
        <time>2021-08-16T14:08:03Z</time>
      </trkpt>
      <trkpt lat="44.91233" lon="1.8792">
        <ele>184.71</ele>
        <time>2021-08-16T14:08:04Z</time>
      </trkpt>
      <trkpt lat="44.91234" lon="1.8793">
        <ele>184.23</ele>
        <time>2021-08-16T14:08:05Z</time>
      </trkpt>
      <trkpt lat="44.91235" lon="1.87939">
        <ele>183.27</ele>
        <time>2021-08-16T14:08:06Z</time>
      </trkpt>
      <trkpt lat="44.91245" lon="1.87983">
        <ele>179.9</ele>
        <time>2021-08-16T14:08:10Z</time>
      </trkpt>
      <trkpt lat="44.91258" lon="1.88035">
        <ele>176.06</ele>
        <time>2021-08-16T14:08:14Z</time>
      </trkpt>
      <trkpt lat="44.91264" lon="1.88064">
        <ele>174.62</ele>
        <time>2021-08-16T14:08:17Z</time>
      </trkpt>
      <trkpt lat="44.91264" lon="1.88072">
        <ele>173.66</ele>
        <time>2021-08-16T14:08:18Z</time>
      </trkpt>
      <trkpt lat="44.91262" lon="1.8808">
        <ele>172.69</ele>
        <time>2021-08-16T14:08:19Z</time>
      </trkpt>
      <trkpt lat="44.91258" lon="1.88083">
        <ele>171.73</ele>
        <time>2021-08-16T14:08:20Z</time>
      </trkpt>
      <trkpt lat="44.91251" lon="1.88083">
        <ele>170.77</ele>
        <time>2021-08-16T14:08:21Z</time>
      </trkpt>
      <trkpt lat="44.91244" lon="1.8808">
        <ele>170.29</ele>
        <time>2021-08-16T14:08:22Z</time>
      </trkpt>
      <trkpt lat="44.91238" lon="1.88077">
        <ele>169.81</ele>
        <time>2021-08-16T14:08:23Z</time>
      </trkpt>
      <trkpt lat="44.91231" lon="1.88074">
        <ele>168.85</ele>
        <time>2021-08-16T14:08:24Z</time>
      </trkpt>
      <trkpt lat="44.91222" lon="1.88074">
        <ele>169.33</ele>
        <time>2021-08-16T14:08:25Z</time>
      </trkpt>
      <trkpt lat="44.91216" lon="1.88076">
        <ele>168.85</ele>
        <time>2021-08-16T14:08:26Z</time>
      </trkpt>
      <trkpt lat="44.91208" lon="1.8808">
        <ele>169.33</ele>
        <time>2021-08-16T14:08:27Z</time>
      </trkpt>
      <trkpt lat="44.91201" lon="1.88084">
        <ele>168.85</ele>
        <time>2021-08-16T14:08:28Z</time>
      </trkpt>
      <trkpt lat="44.91195" lon="1.88087">
        <ele>168.85</ele>
        <time>2021-08-16T14:08:29Z</time>
      </trkpt>
      <trkpt lat="44.91147" lon="1.88118">
        <ele>169.33</ele>
        <time>2021-08-16T14:08:38Z</time>
      </trkpt>
      <trkpt lat="44.9112" lon="1.88136">
        <ele>170.77</ele>
        <time>2021-08-16T14:08:45Z</time>
      </trkpt>
      <trkpt lat="44.91098" lon="1.88149">
        <ele>170.77</ele>
        <time>2021-08-16T14:08:51Z</time>
      </trkpt>
      <trkpt lat="44.9108" lon="1.8816">
        <ele>170.77</ele>
        <time>2021-08-16T14:08:55Z</time>
      </trkpt>
      <trkpt lat="44.91076" lon="1.8816">
        <ele>170.77</ele>
        <time>2021-08-16T14:08:56Z</time>
      </trkpt>
      <trkpt lat="44.91071" lon="1.88159">
        <ele>170.77</ele>
        <time>2021-08-16T14:08:57Z</time>
      </trkpt>
      <trkpt lat="44.91067" lon="1.88156">
        <ele>170.77</ele>
        <time>2021-08-16T14:08:58Z</time>
      </trkpt>
      <trkpt lat="44.91064" lon="1.88151">
        <ele>169.81</ele>
        <time>2021-08-16T14:08:59Z</time>
      </trkpt>
      <trkpt lat="44.9106" lon="1.88145">
        <ele>169.81</ele>
        <time>2021-08-16T14:09:00Z</time>
      </trkpt>
      <trkpt lat="44.91045" lon="1.88126">
        <ele>169.33</ele>
        <time>2021-08-16T14:09:04Z</time>
      </trkpt>
      <trkpt lat="44.91041" lon="1.88122">
        <ele>168.85</ele>
        <time>2021-08-16T14:09:05Z</time>
      </trkpt>
      <trkpt lat="44.91036" lon="1.8812">
        <ele>168.85</ele>
        <time>2021-08-16T14:09:06Z</time>
      </trkpt>
      <trkpt lat="44.91031" lon="1.88118">
        <ele>168.85</ele>
        <time>2021-08-16T14:09:07Z</time>
      </trkpt>
      <trkpt lat="44.91025" lon="1.88118">
        <ele>168.85</ele>
        <time>2021-08-16T14:09:08Z</time>
      </trkpt>
      <trkpt lat="44.91018" lon="1.8812">
        <ele>168.85</ele>
        <time>2021-08-16T14:09:09Z</time>
      </trkpt>
      <trkpt lat="44.91014" lon="1.88122">
        <ele>168.85</ele>
        <time>2021-08-16T14:09:10Z</time>
      </trkpt>
      <trkpt lat="44.9101" lon="1.88125">
        <ele>168.85</ele>
        <time>2021-08-16T14:09:11Z</time>
      </trkpt>
      <trkpt lat="44.91005" lon="1.88128">
        <ele>168.85</ele>
        <time>2021-08-16T14:09:12Z</time>
      </trkpt>
      <trkpt lat="44.90975" lon="1.88156">
        <ele>168.85</ele>
        <time>2021-08-16T14:09:19Z</time>
      </trkpt>
      <trkpt lat="44.90971" lon="1.88158">
        <ele>168.85</ele>
        <time>2021-08-16T14:09:20Z</time>
      </trkpt>
      <trkpt lat="44.90966" lon="1.8816">
        <ele>168.85</ele>
        <time>2021-08-16T14:09:21Z</time>
      </trkpt>
      <trkpt lat="44.90962" lon="1.88162">
        <ele>168.85</ele>
        <time>2021-08-16T14:09:22Z</time>
      </trkpt>
      <trkpt lat="44.90959" lon="1.88162">
        <ele>168.85</ele>
        <time>2021-08-16T14:09:23Z</time>
      </trkpt>
      <trkpt lat="44.90951" lon="1.88169">
        <ele>168.85</ele>
        <time>2021-08-16T14:09:26Z</time>
      </trkpt>
      <trkpt lat="44.9095" lon="1.88171">
        <ele>168.85</ele>
        <time>2021-08-16T14:09:27Z</time>
      </trkpt>
      <trkpt lat="44.90948" lon="1.88176">
        <ele>170.29</ele>
        <time>2021-08-16T14:09:29Z</time>
      </trkpt>
      <trkpt lat="44.9094" lon="1.88197">
        <ele>171.73</ele>
        <time>2021-08-16T14:09:39Z</time>
      </trkpt>
      <trkpt lat="44.9093" lon="1.88213">
        <ele>172.69</ele>
        <time>2021-08-16T14:09:48Z</time>
      </trkpt>
      <trkpt lat="44.90917" lon="1.88222">
        <ele>174.62</ele>
        <time>2021-08-16T14:09:57Z</time>
      </trkpt>
      <trkpt lat="44.90901" lon="1.88227">
        <ele>176.06</ele>
        <time>2021-08-16T14:10:07Z</time>
      </trkpt>
      <trkpt lat="44.90892" lon="1.88218">
        <ele>176.06</ele>
        <time>2021-08-16T14:10:14Z</time>
      </trkpt>
      <trkpt lat="44.90886" lon="1.88191">
        <ele>175.1</ele>
        <time>2021-08-16T14:10:20Z</time>
      </trkpt>
      <trkpt lat="44.90885" lon="1.88186">
        <ele>175.1</ele>
        <time>2021-08-16T14:10:21Z</time>
      </trkpt>
      <trkpt lat="44.90885" lon="1.88159">
        <ele>173.66</ele>
        <time>2021-08-16T14:10:25Z</time>
      </trkpt>
      <trkpt lat="44.90886" lon="1.88153">
        <ele>173.17</ele>
        <time>2021-08-16T14:10:26Z</time>
      </trkpt>
      <trkpt lat="44.90888" lon="1.88147">
        <ele>173.17</ele>
        <time>2021-08-16T14:10:27Z</time>
      </trkpt>
      <trkpt lat="44.90897" lon="1.88117">
        <ele>171.73</ele>
        <time>2021-08-16T14:10:32Z</time>
      </trkpt>
      <trkpt lat="44.909" lon="1.88105">
        <ele>171.25</ele>
        <time>2021-08-16T14:10:34Z</time>
      </trkpt>
      <trkpt lat="44.90902" lon="1.88098">
        <ele>170.77</ele>
        <time>2021-08-16T14:10:35Z</time>
      </trkpt>
      <trkpt lat="44.90903" lon="1.88092">
        <ele>170.77</ele>
        <time>2021-08-16T14:10:36Z</time>
      </trkpt>
      <trkpt lat="44.90902" lon="1.88085">
        <ele>170.29</ele>
        <time>2021-08-16T14:10:37Z</time>
      </trkpt>
      <trkpt lat="44.90901" lon="1.88079">
        <ele>170.29</ele>
        <time>2021-08-16T14:10:38Z</time>
      </trkpt>
      <trkpt lat="44.90899" lon="1.88071">
        <ele>170.29</ele>
        <time>2021-08-16T14:10:39Z</time>
      </trkpt>
      <trkpt lat="44.90896" lon="1.8805">
        <ele>169.81</ele>
        <time>2021-08-16T14:10:42Z</time>
      </trkpt>
      <trkpt lat="44.90881" lon="1.87974">
        <ele>169.33</ele>
        <time>2021-08-16T14:10:53Z</time>
      </trkpt>
      <trkpt lat="44.90871" lon="1.87917">
        <ele>168.37</ele>
        <time>2021-08-16T14:11:01Z</time>
      </trkpt>
      <trkpt lat="44.90857" lon="1.87847">
        <ele>167.41</ele>
        <time>2021-08-16T14:11:11Z</time>
      </trkpt>
      <trkpt lat="44.90847" lon="1.87797">
        <ele>167.41</ele>
        <time>2021-08-16T14:11:18Z</time>
      </trkpt>
      <trkpt lat="44.90833" lon="1.87726">
        <ele>167.41</ele>
        <time>2021-08-16T14:11:28Z</time>
      </trkpt>
      <trkpt lat="44.9082" lon="1.8766">
        <ele>166.93</ele>
        <time>2021-08-16T14:11:37Z</time>
      </trkpt>
      <trkpt lat="44.90798" lon="1.87596">
        <ele>166.93</ele>
        <time>2021-08-16T14:11:47Z</time>
      </trkpt>
      <trkpt lat="44.90765" lon="1.87536">
        <ele>165.96</ele>
        <time>2021-08-16T14:11:57Z</time>
      </trkpt>
      <trkpt lat="44.90761" lon="1.87532">
        <ele>165.96</ele>
        <time>2021-08-16T14:11:58Z</time>
      </trkpt>
      <trkpt lat="44.90751" lon="1.87515">
        <ele>165.96</ele>
        <time>2021-08-16T14:12:03Z</time>
      </trkpt>
      <trkpt lat="44.90738" lon="1.87506">
        <ele>165.96</ele>
        <time>2021-08-16T14:12:09Z</time>
      </trkpt>
      <trkpt lat="44.90717" lon="1.87487">
        <ele>165.48</ele>
        <time>2021-08-16T14:12:15Z</time>
      </trkpt>
      <trkpt lat="44.90684" lon="1.87446">
        <ele>165</ele>
        <time>2021-08-16T14:12:24Z</time>
      </trkpt>
      <trkpt lat="44.90671" lon="1.87423">
        <ele>165</ele>
        <time>2021-08-16T14:12:28Z</time>
      </trkpt>
      <trkpt lat="44.90669" lon="1.87416">
        <ele>165</ele>
        <time>2021-08-16T14:12:29Z</time>
      </trkpt>
      <trkpt lat="44.90662" lon="1.87397">
        <ele>165</ele>
        <time>2021-08-16T14:12:32Z</time>
      </trkpt>
      <trkpt lat="44.9066" lon="1.8739">
        <ele>164.52</ele>
        <time>2021-08-16T14:12:33Z</time>
      </trkpt>
      <trkpt lat="44.90648" lon="1.87331">
        <ele>164.04</ele>
        <time>2021-08-16T14:12:41Z</time>
      </trkpt>
      <trkpt lat="44.90636" lon="1.87263">
        <ele>163.56</ele>
        <time>2021-08-16T14:12:50Z</time>
      </trkpt>
      <trkpt lat="44.90627" lon="1.87205">
        <ele>163.08</ele>
        <time>2021-08-16T14:12:58Z</time>
      </trkpt>
      <trkpt lat="44.90614" lon="1.87133">
        <ele>163.08</ele>
        <time>2021-08-16T14:13:08Z</time>
      </trkpt>
      <trkpt lat="44.90605" lon="1.8708">
        <ele>162.6</ele>
        <time>2021-08-16T14:13:16Z</time>
      </trkpt>
      <trkpt lat="44.90605" lon="1.87074">
        <ele>162.6</ele>
        <time>2021-08-16T14:13:17Z</time>
      </trkpt>
      <trkpt lat="44.90595" lon="1.87021">
        <ele>164.04</ele>
        <time>2021-08-16T14:13:26Z</time>
      </trkpt>
      <trkpt lat="44.90576" lon="1.86986">
        <ele>164.52</ele>
        <time>2021-08-16T14:13:34Z</time>
      </trkpt>
      <trkpt lat="44.90555" lon="1.86961">
        <ele>165.48</ele>
        <time>2021-08-16T14:13:43Z</time>
      </trkpt>
      <trkpt lat="44.90538" lon="1.86944">
        <ele>166.93</ele>
        <time>2021-08-16T14:13:50Z</time>
      </trkpt>
      <trkpt lat="44.90519" lon="1.86921">
        <ele>167.89</ele>
        <time>2021-08-16T14:13:58Z</time>
      </trkpt>
      <trkpt lat="44.905" lon="1.86901">
        <ele>168.85</ele>
        <time>2021-08-16T14:14:06Z</time>
      </trkpt>
      <trkpt lat="44.90485" lon="1.86884">
        <ele>169.81</ele>
        <time>2021-08-16T14:14:13Z</time>
      </trkpt>
      <trkpt lat="44.9047" lon="1.86864">
        <ele>170.77</ele>
        <time>2021-08-16T14:14:21Z</time>
      </trkpt>
      <trkpt lat="44.90455" lon="1.86841">
        <ele>171.73</ele>
        <time>2021-08-16T14:14:30Z</time>
      </trkpt>
      <trkpt lat="44.90442" lon="1.86811">
        <ele>173.17</ele>
        <time>2021-08-16T14:14:40Z</time>
      </trkpt>
      <trkpt lat="44.90433" lon="1.86781">
        <ele>174.14</ele>
        <time>2021-08-16T14:14:50Z</time>
      </trkpt>
      <trkpt lat="44.90425" lon="1.86747">
        <ele>175.58</ele>
        <time>2021-08-16T14:15:01Z</time>
      </trkpt>
      <trkpt lat="44.90419" lon="1.86716">
        <ele>177.02</ele>
        <time>2021-08-16T14:15:11Z</time>
      </trkpt>
      <trkpt lat="44.90411" lon="1.86682">
        <ele>178.46</ele>
        <time>2021-08-16T14:15:22Z</time>
      </trkpt>
      <trkpt lat="44.904" lon="1.86653">
        <ele>179.9</ele>
        <time>2021-08-16T14:15:32Z</time>
      </trkpt>
      <trkpt lat="44.90385" lon="1.86631">
        <ele>180.87</ele>
        <time>2021-08-16T14:15:41Z</time>
      </trkpt>
      <trkpt lat="44.90358" lon="1.86607">
        <ele>182.79</ele>
        <time>2021-08-16T14:15:54Z</time>
      </trkpt>
      <trkpt lat="44.90337" lon="1.86591">
        <ele>183.75</ele>
        <time>2021-08-16T14:16:03Z</time>
      </trkpt>
      <trkpt lat="44.90314" lon="1.86566">
        <ele>183.75</ele>
        <time>2021-08-16T14:16:12Z</time>
      </trkpt>
      <trkpt lat="44.90291" lon="1.86528">
        <ele>184.23</ele>
        <time>2021-08-16T14:16:23Z</time>
      </trkpt>
      <trkpt lat="44.90275" lon="1.86493">
        <ele>184.71</ele>
        <time>2021-08-16T14:16:32Z</time>
      </trkpt>
      <trkpt lat="44.90264" lon="1.86468">
        <ele>185.67</ele>
        <time>2021-08-16T14:16:39Z</time>
      </trkpt>
      <trkpt lat="44.90255" lon="1.86463">
        <ele>185.67</ele>
        <time>2021-08-16T14:16:42Z</time>
      </trkpt>
      <trkpt lat="44.90252" lon="1.86464">
        <ele>185.67</ele>
        <time>2021-08-16T14:16:43Z</time>
      </trkpt>
      <trkpt lat="44.90239" lon="1.86475">
        <ele>187.59</ele>
        <time>2021-08-16T14:16:50Z</time>
      </trkpt>
      <trkpt lat="44.90224" lon="1.8649">
        <ele>188.08</ele>
        <time>2021-08-16T14:16:58Z</time>
      </trkpt>
      <trkpt lat="44.90203" lon="1.86513">
        <ele>189.04</ele>
        <time>2021-08-16T14:17:07Z</time>
      </trkpt>
      <trkpt lat="44.9018" lon="1.86537">
        <ele>189.52</ele>
        <time>2021-08-16T14:17:16Z</time>
      </trkpt>
      <trkpt lat="44.90158" lon="1.86562">
        <ele>190.48</ele>
        <time>2021-08-16T14:17:25Z</time>
      </trkpt>
      <trkpt lat="44.90144" lon="1.86579">
        <ele>190.96</ele>
        <time>2021-08-16T14:17:31Z</time>
      </trkpt>
      <trkpt lat="44.90124" lon="1.866">
        <ele>191.92</ele>
        <time>2021-08-16T14:17:40Z</time>
      </trkpt>
      <trkpt lat="44.90121" lon="1.86601">
        <ele>191.92</ele>
        <time>2021-08-16T14:17:41Z</time>
      </trkpt>
      <trkpt lat="44.90118" lon="1.866">
        <ele>191.92</ele>
        <time>2021-08-16T14:17:42Z</time>
      </trkpt>
      <trkpt lat="44.9009" lon="1.86588">
        <ele>190.96</ele>
        <time>2021-08-16T14:17:49Z</time>
      </trkpt>
      <trkpt lat="44.90083" lon="1.86585">
        <ele>190.96</ele>
        <time>2021-08-16T14:17:51Z</time>
      </trkpt>
      <trkpt lat="44.90036" lon="1.86584">
        <ele>190.96</ele>
        <time>2021-08-16T14:18:01Z</time>
      </trkpt>
      <trkpt lat="44.89997" lon="1.86586">
        <ele>190.96</ele>
        <time>2021-08-16T14:18:09Z</time>
      </trkpt>
      <trkpt lat="44.8996" lon="1.86595">
        <ele>191.92</ele>
        <time>2021-08-16T14:18:19Z</time>
      </trkpt>
      <trkpt lat="44.89941" lon="1.86602">
        <ele>193.36</ele>
        <time>2021-08-16T14:18:27Z</time>
      </trkpt>
      <trkpt lat="44.89919" lon="1.86611">
        <ele>194.8</ele>
        <time>2021-08-16T14:18:38Z</time>
      </trkpt>
      <trkpt lat="44.89897" lon="1.86616">
        <ele>195.77</ele>
        <time>2021-08-16T14:18:47Z</time>
      </trkpt>
      <trkpt lat="44.89876" lon="1.86611">
        <ele>195.77</ele>
        <time>2021-08-16T14:18:55Z</time>
      </trkpt>
      <trkpt lat="44.89862" lon="1.86608">
        <ele>194.32</ele>
        <time>2021-08-16T14:18:59Z</time>
      </trkpt>
      <trkpt lat="44.8984" lon="1.86607">
        <ele>193.84</ele>
        <time>2021-08-16T14:19:06Z</time>
      </trkpt>
      <trkpt lat="44.89818" lon="1.86606">
        <ele>193.36</ele>
        <time>2021-08-16T14:19:12Z</time>
      </trkpt>
      <trkpt lat="44.89794" lon="1.8661">
        <ele>193.36</ele>
        <time>2021-08-16T14:19:18Z</time>
      </trkpt>
      <trkpt lat="44.8979" lon="1.8661">
        <ele>193.36</ele>
        <time>2021-08-16T14:19:19Z</time>
      </trkpt>
      <trkpt lat="44.8976" lon="1.86609">
        <ele>192.4</ele>
        <time>2021-08-16T14:19:26Z</time>
      </trkpt>
      <trkpt lat="44.89756" lon="1.86609">
        <ele>192.4</ele>
        <time>2021-08-16T14:19:27Z</time>
      </trkpt>
      <trkpt lat="44.89714" lon="1.86608">
        <ele>190</ele>
        <time>2021-08-16T14:19:37Z</time>
      </trkpt>
      <trkpt lat="44.89697" lon="1.86602">
        <ele>190.48</ele>
        <time>2021-08-16T14:19:43Z</time>
      </trkpt>
      <trkpt lat="44.8969" lon="1.86599">
        <ele>191.44</ele>
        <time>2021-08-16T14:19:46Z</time>
      </trkpt>
      <trkpt lat="44.89668" lon="1.86583">
        <ele>191.92</ele>
        <time>2021-08-16T14:19:54Z</time>
      </trkpt>
      <trkpt lat="44.8965" lon="1.86565">
        <ele>193.36</ele>
        <time>2021-08-16T14:20:02Z</time>
      </trkpt>
      <trkpt lat="44.89635" lon="1.86554">
        <ele>194.32</ele>
        <time>2021-08-16T14:20:09Z</time>
      </trkpt>
      <trkpt lat="44.8962" lon="1.86541">
        <ele>195.28</ele>
        <time>2021-08-16T14:20:18Z</time>
      </trkpt>
      <trkpt lat="44.89619" lon="1.86541">
        <ele>195.28</ele>
        <time>2021-08-16T14:20:19Z</time>
      </trkpt>
      <trkpt lat="44.89598" lon="1.8653">
        <ele>196.73</ele>
        <time>2021-08-16T14:20:33Z</time>
      </trkpt>
      <trkpt lat="44.89588" lon="1.86526">
        <ele>198.65</ele>
        <time>2021-08-16T14:20:41Z</time>
      </trkpt>
      <trkpt lat="44.89587" lon="1.86525">
        <ele>198.65</ele>
        <time>2021-08-16T14:20:42Z</time>
      </trkpt>
      <trkpt lat="44.89586" lon="1.86525">
        <ele>198.65</ele>
        <time>2021-08-16T14:20:43Z</time>
      </trkpt>
      <trkpt lat="44.89585" lon="1.86524">
        <ele>199.13</ele>
        <time>2021-08-16T14:20:44Z</time>
      </trkpt>
      <trkpt lat="44.89583" lon="1.86524">
        <ele>199.13</ele>
        <time>2021-08-16T14:20:45Z</time>
      </trkpt>
      <trkpt lat="44.89582" lon="1.86524">
        <ele>199.13</ele>
        <time>2021-08-16T14:20:46Z</time>
      </trkpt>
      <trkpt lat="44.89581" lon="1.86524">
        <ele>199.13</ele>
        <time>2021-08-16T14:20:47Z</time>
      </trkpt>
      <trkpt lat="44.89579" lon="1.86524">
        <ele>199.61</ele>
        <time>2021-08-16T14:20:48Z</time>
      </trkpt>
      <trkpt lat="44.89578" lon="1.86523">
        <ele>199.61</ele>
        <time>2021-08-16T14:20:49Z</time>
      </trkpt>
      <trkpt lat="44.89577" lon="1.86523">
        <ele>199.61</ele>
        <time>2021-08-16T14:20:50Z</time>
      </trkpt>
      <trkpt lat="44.89572" lon="1.86523">
        <ele>200.09</ele>
        <time>2021-08-16T14:20:54Z</time>
      </trkpt>
      <trkpt lat="44.8957" lon="1.86523">
        <ele>200.57</ele>
        <time>2021-08-16T14:20:55Z</time>
      </trkpt>
      <trkpt lat="44.89569" lon="1.86523">
        <ele>200.57</ele>
        <time>2021-08-16T14:20:56Z</time>
      </trkpt>
      <trkpt lat="44.89568" lon="1.86522">
        <ele>200.57</ele>
        <time>2021-08-16T14:20:57Z</time>
      </trkpt>
      <trkpt lat="44.89566" lon="1.86522">
        <ele>200.57</ele>
        <time>2021-08-16T14:20:58Z</time>
      </trkpt>
      <trkpt lat="44.89565" lon="1.86522">
        <ele>200.57</ele>
        <time>2021-08-16T14:20:59Z</time>
      </trkpt>
      <trkpt lat="44.89563" lon="1.86522">
        <ele>201.05</ele>
        <time>2021-08-16T14:21:00Z</time>
      </trkpt>
      <trkpt lat="44.89562" lon="1.86522">
        <ele>201.05</ele>
        <time>2021-08-16T14:21:01Z</time>
      </trkpt>
      <trkpt lat="44.89551" lon="1.86521">
        <ele>201.53</ele>
        <time>2021-08-16T14:21:08Z</time>
      </trkpt>
      <trkpt lat="44.89535" lon="1.86521">
        <ele>202.01</ele>
        <time>2021-08-16T14:21:15Z</time>
      </trkpt>
      <trkpt lat="44.89512" lon="1.8652">
        <ele>202.98</ele>
        <time>2021-08-16T14:21:24Z</time>
      </trkpt>
      <trkpt lat="44.89487" lon="1.86524">
        <ele>203.46</ele>
        <time>2021-08-16T14:21:33Z</time>
      </trkpt>
      <trkpt lat="44.8947" lon="1.86523">
        <ele>203.46</ele>
        <time>2021-08-16T14:21:40Z</time>
      </trkpt>
      <trkpt lat="44.89454" lon="1.86525">
        <ele>203.46</ele>
        <time>2021-08-16T14:21:47Z</time>
      </trkpt>
      <trkpt lat="44.89429" lon="1.86527">
        <ele>203.46</ele>
        <time>2021-08-16T14:21:55Z</time>
      </trkpt>
      <trkpt lat="44.89407" lon="1.8653">
        <ele>203.46</ele>
        <time>2021-08-16T14:22:02Z</time>
      </trkpt>
      <trkpt lat="44.89399" lon="1.86529">
        <ele>202.01</ele>
        <time>2021-08-16T14:22:04Z</time>
      </trkpt>
      <trkpt lat="44.89366" lon="1.86523">
        <ele>201.05</ele>
        <time>2021-08-16T14:22:13Z</time>
      </trkpt>
      <trkpt lat="44.89344" lon="1.86515">
        <ele>201.05</ele>
        <time>2021-08-16T14:22:21Z</time>
      </trkpt>
      <trkpt lat="44.89322" lon="1.86509">
        <ele>201.05</ele>
        <time>2021-08-16T14:22:28Z</time>
      </trkpt>
      <trkpt lat="44.893" lon="1.86497">
        <ele>202.49</ele>
        <time>2021-08-16T14:22:36Z</time>
      </trkpt>
      <trkpt lat="44.89288" lon="1.86493">
        <ele>203.46</ele>
        <time>2021-08-16T14:22:42Z</time>
      </trkpt>
      <trkpt lat="44.89275" lon="1.8649">
        <ele>204.9</ele>
        <time>2021-08-16T14:22:51Z</time>
      </trkpt>
      <trkpt lat="44.89265" lon="1.86488">
        <ele>205.86</ele>
        <time>2021-08-16T14:23:00Z</time>
      </trkpt>
      <trkpt lat="44.89254" lon="1.86487">
        <ele>206.82</ele>
        <time>2021-08-16T14:23:10Z</time>
      </trkpt>
      <trkpt lat="44.89252" lon="1.86487">
        <ele>207.3</ele>
        <time>2021-08-16T14:23:16Z</time>
      </trkpt>
      <trkpt lat="44.8925" lon="1.86486">
        <ele>207.3</ele>
        <time>2021-08-16T14:23:18Z</time>
      </trkpt>
      <trkpt lat="44.89248" lon="1.86486">
        <ele>207.3</ele>
        <time>2021-08-16T14:23:19Z</time>
      </trkpt>
      <trkpt lat="44.8923" lon="1.86486">
        <ele>207.78</ele>
        <time>2021-08-16T14:23:27Z</time>
      </trkpt>
      <trkpt lat="44.89208" lon="1.86486">
        <ele>208.26</ele>
        <time>2021-08-16T14:23:36Z</time>
      </trkpt>
      <trkpt lat="44.89185" lon="1.86487">
        <ele>208.74</ele>
        <time>2021-08-16T14:23:45Z</time>
      </trkpt>
      <trkpt lat="44.89164" lon="1.86489">
        <ele>209.7</ele>
        <time>2021-08-16T14:23:53Z</time>
      </trkpt>
      <trkpt lat="44.89146" lon="1.86494">
        <ele>210.67</ele>
        <time>2021-08-16T14:24:02Z</time>
      </trkpt>
      <trkpt lat="44.89147" lon="1.86495">
        <ele>211.15</ele>
        <time>2021-08-16T14:24:08Z</time>
      </trkpt>
      <trkpt lat="44.89148" lon="1.86495">
        <ele>211.15</ele>
        <time>2021-08-16T14:24:13Z</time>
      </trkpt>
      <trkpt lat="44.89148" lon="1.86495">
        <ele>211.15</ele>
        <time>2021-08-16T14:24:16Z</time>
      </trkpt>
      <trkpt lat="44.89145" lon="1.86497">
        <ele>211.15</ele>
        <time>2021-08-16T14:24:19Z</time>
      </trkpt>
      <trkpt lat="44.89143" lon="1.86497">
        <ele>211.15</ele>
        <time>2021-08-16T14:24:20Z</time>
      </trkpt>
      <trkpt lat="44.89142" lon="1.86497">
        <ele>211.15</ele>
        <time>2021-08-16T14:24:21Z</time>
      </trkpt>
      <trkpt lat="44.89122" lon="1.86502">
        <ele>212.11</ele>
        <time>2021-08-16T14:24:31Z</time>
      </trkpt>
      <trkpt lat="44.89103" lon="1.86505">
        <ele>213.55</ele>
        <time>2021-08-16T14:24:40Z</time>
      </trkpt>
      <trkpt lat="44.89083" lon="1.86507">
        <ele>214.51</ele>
        <time>2021-08-16T14:24:49Z</time>
      </trkpt>
      <trkpt lat="44.89069" lon="1.86506">
        <ele>214.51</ele>
        <time>2021-08-16T14:24:55Z</time>
      </trkpt>
      <trkpt lat="44.89058" lon="1.86506">
        <ele>214.51</ele>
        <time>2021-08-16T14:24:59Z</time>
      </trkpt>
      <trkpt lat="44.89056" lon="1.86506">
        <ele>214.51</ele>
        <time>2021-08-16T14:25:00Z</time>
      </trkpt>
      <trkpt lat="44.89054" lon="1.86506">
        <ele>214.51</ele>
        <time>2021-08-16T14:25:01Z</time>
      </trkpt>
      <trkpt lat="44.89052" lon="1.86505">
        <ele>214.51</ele>
        <time>2021-08-16T14:25:02Z</time>
      </trkpt>
      <trkpt lat="44.89049" lon="1.86505">
        <ele>214.51</ele>
        <time>2021-08-16T14:25:03Z</time>
      </trkpt>
      <trkpt lat="44.89027" lon="1.86507">
        <ele>214.99</ele>
        <time>2021-08-16T14:25:12Z</time>
      </trkpt>
      <trkpt lat="44.89013" lon="1.8651">
        <ele>214.99</ele>
        <time>2021-08-16T14:25:18Z</time>
      </trkpt>
      <trkpt lat="44.88991" lon="1.86512">
        <ele>214.99</ele>
        <time>2021-08-16T14:25:26Z</time>
      </trkpt>
      <trkpt lat="44.8898" lon="1.86516">
        <ele>215.47</ele>
        <time>2021-08-16T14:25:32Z</time>
      </trkpt>
      <trkpt lat="44.8898" lon="1.86518">
        <ele>215.47</ele>
        <time>2021-08-16T14:25:33Z</time>
      </trkpt>
      <trkpt lat="44.88979" lon="1.8652">
        <ele>215.47</ele>
        <time>2021-08-16T14:25:34Z</time>
      </trkpt>
      <trkpt lat="44.88979" lon="1.86523">
        <ele>215.95</ele>
        <time>2021-08-16T14:25:35Z</time>
      </trkpt>
      <trkpt lat="44.88979" lon="1.8654">
        <ele>216.91</ele>
        <time>2021-08-16T14:25:40Z</time>
      </trkpt>
      <trkpt lat="44.88977" lon="1.86543">
        <ele>216.91</ele>
        <time>2021-08-16T14:25:41Z</time>
      </trkpt>
      <trkpt lat="44.88975" lon="1.86543">
        <ele>216.91</ele>
        <time>2021-08-16T14:25:42Z</time>
      </trkpt>
      <trkpt lat="44.88972" lon="1.86542">
        <ele>216.91</ele>
        <time>2021-08-16T14:25:43Z</time>
      </trkpt>
      <trkpt lat="44.88969" lon="1.8654">
        <ele>216.91</ele>
        <time>2021-08-16T14:25:44Z</time>
      </trkpt>
      <trkpt lat="44.88965" lon="1.86537">
        <ele>216.91</ele>
        <time>2021-08-16T14:25:45Z</time>
      </trkpt>
      <trkpt lat="44.88951" lon="1.86527">
        <ele>214.99</ele>
        <time>2021-08-16T14:25:48Z</time>
      </trkpt>
      <trkpt lat="44.88946" lon="1.86524">
        <ele>214.51</ele>
        <time>2021-08-16T14:25:49Z</time>
      </trkpt>
      <trkpt lat="44.88935" lon="1.86518">
        <ele>213.55</ele>
        <time>2021-08-16T14:25:51Z</time>
      </trkpt>
      <trkpt lat="44.88921" lon="1.86508">
        <ele>211.63</ele>
        <time>2021-08-16T14:25:54Z</time>
      </trkpt>
      <trkpt lat="44.88918" lon="1.86504">
        <ele>211.63</ele>
        <time>2021-08-16T14:25:55Z</time>
      </trkpt>
      <trkpt lat="44.88915" lon="1.86499">
        <ele>211.63</ele>
        <time>2021-08-16T14:25:56Z</time>
      </trkpt>
      <trkpt lat="44.88914" lon="1.86496">
        <ele>211.63</ele>
        <time>2021-08-16T14:25:57Z</time>
      </trkpt>
      <trkpt lat="44.88914" lon="1.86494">
        <ele>211.63</ele>
        <time>2021-08-16T14:25:58Z</time>
      </trkpt>
      <trkpt lat="44.88914" lon="1.86492">
        <ele>211.63</ele>
        <time>2021-08-16T14:25:59Z</time>
      </trkpt>
      <trkpt lat="44.88915" lon="1.8649">
        <ele>211.63</ele>
        <time>2021-08-16T14:26:00Z</time>
      </trkpt>
      <trkpt lat="44.88915" lon="1.86488">
        <ele>211.63</ele>
        <time>2021-08-16T14:26:01Z</time>
      </trkpt>
      <trkpt lat="44.88911" lon="1.86468">
        <ele>211.63</ele>
        <time>2021-08-16T14:26:06Z</time>
      </trkpt>
      <trkpt lat="44.88905" lon="1.8646">
        <ele>211.63</ele>
        <time>2021-08-16T14:26:08Z</time>
      </trkpt>
      <trkpt lat="44.88901" lon="1.86458">
        <ele>211.63</ele>
        <time>2021-08-16T14:26:09Z</time>
      </trkpt>
      <trkpt lat="44.88897" lon="1.86458">
        <ele>211.63</ele>
        <time>2021-08-16T14:26:10Z</time>
      </trkpt>
      <trkpt lat="44.88893" lon="1.86461">
        <ele>211.63</ele>
        <time>2021-08-16T14:26:11Z</time>
      </trkpt>
      <trkpt lat="44.88889" lon="1.86464">
        <ele>211.15</ele>
        <time>2021-08-16T14:26:12Z</time>
      </trkpt>
      <trkpt lat="44.88885" lon="1.86468">
        <ele>211.15</ele>
        <time>2021-08-16T14:26:13Z</time>
      </trkpt>
      <trkpt lat="44.88881" lon="1.86471">
        <ele>211.15</ele>
        <time>2021-08-16T14:26:14Z</time>
      </trkpt>
      <trkpt lat="44.88877" lon="1.86473">
        <ele>210.67</ele>
        <time>2021-08-16T14:26:15Z</time>
      </trkpt>
      <trkpt lat="44.88873" lon="1.86474">
        <ele>210.67</ele>
        <time>2021-08-16T14:26:16Z</time>
      </trkpt>
      <trkpt lat="44.88869" lon="1.86475">
        <ele>210.67</ele>
        <time>2021-08-16T14:26:17Z</time>
      </trkpt>
      <trkpt lat="44.88867" lon="1.86475">
        <ele>210.19</ele>
        <time>2021-08-16T14:26:18Z</time>
      </trkpt>
      <trkpt lat="44.88865" lon="1.86474">
        <ele>210.19</ele>
        <time>2021-08-16T14:26:19Z</time>
      </trkpt>
      <trkpt lat="44.88865" lon="1.86475">
        <ele>210.19</ele>
        <time>2021-08-16T14:26:25Z</time>
      </trkpt>
      <trkpt lat="44.88864" lon="1.86476">
        <ele>210.19</ele>
        <time>2021-08-16T14:26:32Z</time>
      </trkpt>
      <trkpt lat="44.88863" lon="1.86479">
        <ele>210.19</ele>
        <time>2021-08-16T14:26:33Z</time>
      </trkpt>
      <trkpt lat="44.88863" lon="1.86482">
        <ele>210.19</ele>
        <time>2021-08-16T14:26:34Z</time>
      </trkpt>
      <trkpt lat="44.88865" lon="1.86485">
        <ele>210.19</ele>
        <time>2021-08-16T14:26:35Z</time>
      </trkpt>
      <trkpt lat="44.88867" lon="1.86487">
        <ele>210.19</ele>
        <time>2021-08-16T14:26:36Z</time>
      </trkpt>
      <trkpt lat="44.8887" lon="1.86487">
        <ele>210.19</ele>
        <time>2021-08-16T14:26:37Z</time>
      </trkpt>
      <trkpt lat="44.88873" lon="1.86487">
        <ele>210.19</ele>
        <time>2021-08-16T14:26:38Z</time>
      </trkpt>
      <trkpt lat="44.88875" lon="1.86486">
        <ele>210.19</ele>
        <time>2021-08-16T14:26:39Z</time>
      </trkpt>
      <trkpt lat="44.88879" lon="1.86486">
        <ele>210.19</ele>
        <time>2021-08-16T14:26:40Z</time>
      </trkpt>
      <trkpt lat="44.88881" lon="1.86486">
        <ele>210.19</ele>
        <time>2021-08-16T14:26:41Z</time>
      </trkpt>
      <trkpt lat="44.88905" lon="1.86488">
        <ele>210.19</ele>
        <time>2021-08-16T14:26:48Z</time>
      </trkpt>
      <trkpt lat="44.88918" lon="1.86471">
        <ele>211.15</ele>
        <time>2021-08-16T14:26:53Z</time>
      </trkpt>
      <trkpt lat="44.88943" lon="1.86437">
        <ele>211.15</ele>
        <time>2021-08-16T14:27:02Z</time>
      </trkpt>
      <trkpt lat="44.88969" lon="1.864">
        <ele>210.19</ele>
        <time>2021-08-16T14:27:11Z</time>
      </trkpt>
      <trkpt lat="44.88972" lon="1.86396">
        <ele>210.19</ele>
        <time>2021-08-16T14:27:12Z</time>
      </trkpt>
      <trkpt lat="44.89007" lon="1.86358">
        <ele>207.78</ele>
        <time>2021-08-16T14:27:21Z</time>
      </trkpt>
      <trkpt lat="44.89038" lon="1.86334">
        <ele>205.86</ele>
        <time>2021-08-16T14:27:28Z</time>
      </trkpt>
      <trkpt lat="44.89054" lon="1.86328">
        <ele>204.9</ele>
        <time>2021-08-16T14:27:34Z</time>
      </trkpt>
      <trkpt lat="44.89058" lon="1.86327">
        <ele>204.9</ele>
        <time>2021-08-16T14:27:36Z</time>
      </trkpt>
      <trkpt lat="44.8906" lon="1.86327">
        <ele>204.9</ele>
        <time>2021-08-16T14:27:37Z</time>
      </trkpt>
      <trkpt lat="44.89061" lon="1.86328">
        <ele>204.9</ele>
        <time>2021-08-16T14:27:38Z</time>
      </trkpt>
      <trkpt lat="44.89062" lon="1.86328">
        <ele>204.9</ele>
        <time>2021-08-16T14:27:39Z</time>
      </trkpt>
      <trkpt lat="44.89063" lon="1.86327">
        <ele>204.9</ele>
        <time>2021-08-16T14:27:40Z</time>
      </trkpt>
      <trkpt lat="44.89063" lon="1.86319">
        <ele>203.94</ele>
        <time>2021-08-16T14:27:45Z</time>
      </trkpt>
      <trkpt lat="44.89063" lon="1.86319">
        <ele>203.94</ele>
        <time>2021-08-16T14:28:01Z</time>
      </trkpt>
      <trkpt lat="44.89062" lon="1.86317">
        <ele>203.94</ele>
        <time>2021-08-16T14:28:11Z</time>
      </trkpt>
      <trkpt lat="44.89059" lon="1.86315">
        <ele>203.94</ele>
        <time>2021-08-16T14:28:13Z</time>
      </trkpt>
      <trkpt lat="44.89057" lon="1.86315">
        <ele>203.94</ele>
        <time>2021-08-16T14:28:14Z</time>
      </trkpt>
      <trkpt lat="44.89054" lon="1.86316">
        <ele>203.94</ele>
        <time>2021-08-16T14:28:15Z</time>
      </trkpt>
      <trkpt lat="44.89052" lon="1.86317">
        <ele>203.94</ele>
        <time>2021-08-16T14:28:16Z</time>
      </trkpt>
      <trkpt lat="44.89034" lon="1.8633">
        <ele>205.86</ele>
        <time>2021-08-16T14:28:24Z</time>
      </trkpt>
      <trkpt lat="44.89025" lon="1.86335">
        <ele>206.34</ele>
        <time>2021-08-16T14:28:28Z</time>
      </trkpt>
      <trkpt lat="44.8902" lon="1.86326">
        <ele>206.82</ele>
        <time>2021-08-16T14:28:32Z</time>
      </trkpt>
      <trkpt lat="44.89018" lon="1.86312">
        <ele>205.86</ele>
        <time>2021-08-16T14:28:35Z</time>
      </trkpt>
      <trkpt lat="44.89009" lon="1.86272">
        <ele>205.38</ele>
        <time>2021-08-16T14:28:44Z</time>
      </trkpt>
      <trkpt lat="44.88999" lon="1.86261">
        <ele>205.38</ele>
        <time>2021-08-16T14:28:50Z</time>
      </trkpt>
      <trkpt lat="44.88995" lon="1.86256">
        <ele>206.34</ele>
        <time>2021-08-16T14:28:57Z</time>
      </trkpt>
      <trkpt lat="44.8899" lon="1.86258">
        <ele>206.82</ele>
        <time>2021-08-16T14:29:03Z</time>
      </trkpt>
      <trkpt lat="44.88989" lon="1.86257">
        <ele>206.82</ele>
        <time>2021-08-16T14:29:09Z</time>
      </trkpt>
      <trkpt lat="44.8899" lon="1.86272">
        <ele>207.3</ele>
        <time>2021-08-16T14:29:16Z</time>
      </trkpt>
      <trkpt lat="44.88989" lon="1.86275">
        <ele>207.3</ele>
        <time>2021-08-16T14:29:17Z</time>
      </trkpt>
      <trkpt lat="44.88988" lon="1.86279">
        <ele>207.3</ele>
        <time>2021-08-16T14:29:18Z</time>
      </trkpt>
      <trkpt lat="44.8898" lon="1.86312">
        <ele>208.26</ele>
        <time>2021-08-16T14:29:28Z</time>
      </trkpt>
      <trkpt lat="44.88973" lon="1.86344">
        <ele>209.22</ele>
        <time>2021-08-16T14:29:37Z</time>
      </trkpt>
      <trkpt lat="44.88964" lon="1.86368">
        <ele>210.19</ele>
        <time>2021-08-16T14:29:45Z</time>
      </trkpt>
      <trkpt lat="44.88958" lon="1.86372">
        <ele>210.67</ele>
        <time>2021-08-16T14:29:48Z</time>
      </trkpt>
      <trkpt lat="44.88955" lon="1.86372">
        <ele>210.67</ele>
        <time>2021-08-16T14:29:49Z</time>
      </trkpt>
      <trkpt lat="44.88953" lon="1.8637">
        <ele>210.67</ele>
        <time>2021-08-16T14:29:50Z</time>
      </trkpt>
      <trkpt lat="44.88952" lon="1.86367">
        <ele>210.67</ele>
        <time>2021-08-16T14:29:51Z</time>
      </trkpt>
      <trkpt lat="44.88951" lon="1.86364">
        <ele>210.67</ele>
        <time>2021-08-16T14:29:52Z</time>
      </trkpt>
      <trkpt lat="44.88936" lon="1.86336">
        <ele>211.15</ele>
        <time>2021-08-16T14:30:01Z</time>
      </trkpt>
      <trkpt lat="44.8892" lon="1.86304">
        <ele>211.15</ele>
        <time>2021-08-16T14:30:10Z</time>
      </trkpt>
      <trkpt lat="44.88917" lon="1.86279">
        <ele>212.11</ele>
        <time>2021-08-16T14:30:17Z</time>
      </trkpt>
      <trkpt lat="44.88926" lon="1.86249">
        <ele>213.55</ele>
        <time>2021-08-16T14:30:27Z</time>
      </trkpt>
      <trkpt lat="44.88934" lon="1.8622">
        <ele>214.51</ele>
        <time>2021-08-16T14:30:36Z</time>
      </trkpt>
      <trkpt lat="44.88939" lon="1.86202">
        <ele>215.47</ele>
        <time>2021-08-16T14:30:43Z</time>
      </trkpt>
      <trkpt lat="44.88944" lon="1.86182">
        <ele>216.91</ele>
        <time>2021-08-16T14:30:52Z</time>
      </trkpt>
      <trkpt lat="44.88954" lon="1.86157">
        <ele>218.84</ele>
        <time>2021-08-16T14:31:04Z</time>
      </trkpt>
      <trkpt lat="44.88957" lon="1.8614">
        <ele>219.8</ele>
        <time>2021-08-16T14:31:12Z</time>
      </trkpt>
      <trkpt lat="44.88956" lon="1.86134">
        <ele>220.28</ele>
        <time>2021-08-16T14:31:15Z</time>
      </trkpt>
      <trkpt lat="44.88956" lon="1.86132">
        <ele>220.28</ele>
        <time>2021-08-16T14:31:16Z</time>
      </trkpt>
      <trkpt lat="44.88955" lon="1.8613">
        <ele>220.28</ele>
        <time>2021-08-16T14:31:17Z</time>
      </trkpt>
      <trkpt lat="44.88955" lon="1.86128">
        <ele>220.76</ele>
        <time>2021-08-16T14:31:18Z</time>
      </trkpt>
      <trkpt lat="44.88954" lon="1.86127">
        <ele>220.76</ele>
        <time>2021-08-16T14:31:19Z</time>
      </trkpt>
      <trkpt lat="44.88952" lon="1.86126">
        <ele>221.24</ele>
        <time>2021-08-16T14:31:20Z</time>
      </trkpt>
      <trkpt lat="44.88951" lon="1.86125">
        <ele>220.76</ele>
        <time>2021-08-16T14:31:21Z</time>
      </trkpt>
      <trkpt lat="44.88949" lon="1.86125">
        <ele>221.24</ele>
        <time>2021-08-16T14:31:22Z</time>
      </trkpt>
      <trkpt lat="44.88942" lon="1.86124">
        <ele>222.2</ele>
        <time>2021-08-16T14:31:27Z</time>
      </trkpt>
      <trkpt lat="44.8894" lon="1.86125">
        <ele>222.2</ele>
        <time>2021-08-16T14:31:28Z</time>
      </trkpt>
      <trkpt lat="44.88939" lon="1.86126">
        <ele>222.2</ele>
        <time>2021-08-16T14:31:29Z</time>
      </trkpt>
      <trkpt lat="44.88937" lon="1.86127">
        <ele>222.2</ele>
        <time>2021-08-16T14:31:30Z</time>
      </trkpt>
      <trkpt lat="44.88936" lon="1.86127">
        <ele>222.2</ele>
        <time>2021-08-16T14:31:31Z</time>
      </trkpt>
      <trkpt lat="44.88924" lon="1.86138">
        <ele>223.64</ele>
        <time>2021-08-16T14:31:39Z</time>
      </trkpt>
      <trkpt lat="44.88921" lon="1.86141">
        <ele>224.12</ele>
        <time>2021-08-16T14:31:41Z</time>
      </trkpt>
      <trkpt lat="44.88919" lon="1.86143">
        <ele>224.12</ele>
        <time>2021-08-16T14:31:42Z</time>
      </trkpt>
      <trkpt lat="44.88918" lon="1.86144">
        <ele>224.12</ele>
        <time>2021-08-16T14:31:43Z</time>
      </trkpt>
      <trkpt lat="44.88916" lon="1.86146">
        <ele>224.61</ele>
        <time>2021-08-16T14:31:44Z</time>
      </trkpt>
      <trkpt lat="44.88915" lon="1.86147">
        <ele>224.61</ele>
        <time>2021-08-16T14:31:45Z</time>
      </trkpt>
      <trkpt lat="44.88913" lon="1.86148">
        <ele>224.61</ele>
        <time>2021-08-16T14:31:46Z</time>
      </trkpt>
      <trkpt lat="44.88912" lon="1.8615">
        <ele>224.61</ele>
        <time>2021-08-16T14:31:47Z</time>
      </trkpt>
      <trkpt lat="44.88896" lon="1.86164">
        <ele>226.05</ele>
        <time>2021-08-16T14:31:57Z</time>
      </trkpt>
      <trkpt lat="44.88879" lon="1.86175">
        <ele>227.49</ele>
        <time>2021-08-16T14:32:06Z</time>
      </trkpt>
      <trkpt lat="44.88863" lon="1.86182">
        <ele>228.45</ele>
        <time>2021-08-16T14:32:14Z</time>
      </trkpt>
      <trkpt lat="44.88844" lon="1.86185">
        <ele>229.41</ele>
        <time>2021-08-16T14:32:23Z</time>
      </trkpt>
      <trkpt lat="44.88825" lon="1.86178">
        <ele>230.37</ele>
        <time>2021-08-16T14:32:32Z</time>
      </trkpt>
      <trkpt lat="44.88806" lon="1.86153">
        <ele>230.85</ele>
        <time>2021-08-16T14:32:43Z</time>
      </trkpt>
      <trkpt lat="44.88793" lon="1.8613">
        <ele>231.81</ele>
        <time>2021-08-16T14:32:52Z</time>
      </trkpt>
      <trkpt lat="44.88771" lon="1.86114">
        <ele>232.3</ele>
        <time>2021-08-16T14:33:01Z</time>
      </trkpt>
      <trkpt lat="44.88745" lon="1.86116">
        <ele>232.3</ele>
        <time>2021-08-16T14:33:08Z</time>
      </trkpt>
      <trkpt lat="44.88723" lon="1.86117">
        <ele>232.3</ele>
        <time>2021-08-16T14:33:15Z</time>
      </trkpt>
      <trkpt lat="44.88693" lon="1.86106">
        <ele>233.74</ele>
        <time>2021-08-16T14:33:23Z</time>
      </trkpt>
      <trkpt lat="44.88658" lon="1.86093">
        <ele>233.74</ele>
        <time>2021-08-16T14:33:32Z</time>
      </trkpt>
      <trkpt lat="44.88637" lon="1.86084">
        <ele>235.66</ele>
        <time>2021-08-16T14:33:39Z</time>
      </trkpt>
      <trkpt lat="44.88635" lon="1.86083">
        <ele>235.66</ele>
        <time>2021-08-16T14:33:40Z</time>
      </trkpt>
      <trkpt lat="44.88633" lon="1.86083">
        <ele>235.66</ele>
        <time>2021-08-16T14:33:41Z</time>
      </trkpt>
      <trkpt lat="44.88632" lon="1.86082">
        <ele>235.66</ele>
        <time>2021-08-16T14:33:42Z</time>
      </trkpt>
      <trkpt lat="44.88631" lon="1.86082">
        <ele>235.66</ele>
        <time>2021-08-16T14:33:43Z</time>
      </trkpt>
      <trkpt lat="44.88629" lon="1.86081">
        <ele>235.66</ele>
        <time>2021-08-16T14:33:44Z</time>
      </trkpt>
      <trkpt lat="44.88616" lon="1.86076">
        <ele>236.62</ele>
        <time>2021-08-16T14:33:51Z</time>
      </trkpt>
      <trkpt lat="44.88598" lon="1.86069">
        <ele>238.54</ele>
        <time>2021-08-16T14:34:00Z</time>
      </trkpt>
      <trkpt lat="44.88579" lon="1.86066">
        <ele>239.02</ele>
        <time>2021-08-16T14:34:08Z</time>
      </trkpt>
      <trkpt lat="44.88559" lon="1.86061">
        <ele>239.99</ele>
        <time>2021-08-16T14:34:16Z</time>
      </trkpt>
      <trkpt lat="44.88532" lon="1.86059">
        <ele>240.95</ele>
        <time>2021-08-16T14:34:26Z</time>
      </trkpt>
      <trkpt lat="44.88503" lon="1.86055">
        <ele>242.87</ele>
        <time>2021-08-16T14:34:38Z</time>
      </trkpt>
      <trkpt lat="44.8849" lon="1.86049">
        <ele>244.31</ele>
        <time>2021-08-16T14:34:46Z</time>
      </trkpt>
      <trkpt lat="44.88472" lon="1.86048">
        <ele>246.72</ele>
        <time>2021-08-16T14:34:57Z</time>
      </trkpt>
      <trkpt lat="44.88459" lon="1.86048">
        <ele>248.16</ele>
        <time>2021-08-16T14:35:05Z</time>
      </trkpt>
      <trkpt lat="44.88445" lon="1.86041">
        <ele>250.08</ele>
        <time>2021-08-16T14:35:14Z</time>
      </trkpt>
      <trkpt lat="44.8843" lon="1.86029">
        <ele>251.04</ele>
        <time>2021-08-16T14:35:24Z</time>
      </trkpt>
      <trkpt lat="44.88412" lon="1.86016">
        <ele>252.96</ele>
        <time>2021-08-16T14:35:35Z</time>
      </trkpt>
      <trkpt lat="44.88396" lon="1.86004">
        <ele>254.41</ele>
        <time>2021-08-16T14:35:46Z</time>
      </trkpt>
      <trkpt lat="44.88388" lon="1.85985">
        <ele>256.33</ele>
        <time>2021-08-16T14:35:55Z</time>
      </trkpt>
      <trkpt lat="44.88383" lon="1.85961">
        <ele>257.77</ele>
        <time>2021-08-16T14:36:05Z</time>
      </trkpt>
      <trkpt lat="44.88377" lon="1.85942">
        <ele>259.21</ele>
        <time>2021-08-16T14:36:14Z</time>
      </trkpt>
      <trkpt lat="44.8837" lon="1.85921">
        <ele>260.17</ele>
        <time>2021-08-16T14:36:23Z</time>
      </trkpt>
      <trkpt lat="44.88358" lon="1.85901">
        <ele>261.14</ele>
        <time>2021-08-16T14:36:32Z</time>
      </trkpt>
      <trkpt lat="44.88342" lon="1.85887">
        <ele>262.58</ele>
        <time>2021-08-16T14:36:40Z</time>
      </trkpt>
      <trkpt lat="44.88321" lon="1.85877">
        <ele>263.06</ele>
        <time>2021-08-16T14:36:49Z</time>
      </trkpt>
      <trkpt lat="44.88294" lon="1.85874">
        <ele>263.06</ele>
        <time>2021-08-16T14:36:58Z</time>
      </trkpt>
      <trkpt lat="44.88266" lon="1.85876">
        <ele>263.06</ele>
        <time>2021-08-16T14:37:07Z</time>
      </trkpt>
      <trkpt lat="44.88237" lon="1.85874">
        <ele>263.06</ele>
        <time>2021-08-16T14:37:15Z</time>
      </trkpt>
      <trkpt lat="44.88211" lon="1.85877">
        <ele>263.06</ele>
        <time>2021-08-16T14:37:22Z</time>
      </trkpt>
      <trkpt lat="44.88174" lon="1.85882">
        <ele>264.5</ele>
        <time>2021-08-16T14:37:32Z</time>
      </trkpt>
      <trkpt lat="44.88138" lon="1.85886">
        <ele>265.46</ele>
        <time>2021-08-16T14:37:42Z</time>
      </trkpt>
      <trkpt lat="44.88114" lon="1.85881">
        <ele>266.9</ele>
        <time>2021-08-16T14:37:49Z</time>
      </trkpt>
      <trkpt lat="44.88105" lon="1.85858">
        <ele>268.35</ele>
        <time>2021-08-16T14:37:55Z</time>
      </trkpt>
      <trkpt lat="44.881" lon="1.8584">
        <ele>267.86</ele>
        <time>2021-08-16T14:38:00Z</time>
      </trkpt>
      <trkpt lat="44.88102" lon="1.85837">
        <ele>267.86</ele>
        <time>2021-08-16T14:38:01Z</time>
      </trkpt>
      <trkpt lat="44.88104" lon="1.85834">
        <ele>267.86</ele>
        <time>2021-08-16T14:38:02Z</time>
      </trkpt>
      <trkpt lat="44.88106" lon="1.85833">
        <ele>268.35</ele>
        <time>2021-08-16T14:38:03Z</time>
      </trkpt>
      <trkpt lat="44.88109" lon="1.85832">
        <ele>268.35</ele>
        <time>2021-08-16T14:38:04Z</time>
      </trkpt>
      <trkpt lat="44.88113" lon="1.85831">
        <ele>268.35</ele>
        <time>2021-08-16T14:38:05Z</time>
      </trkpt>
      <trkpt lat="44.88117" lon="1.8583">
        <ele>268.35</ele>
        <time>2021-08-16T14:38:06Z</time>
      </trkpt>
      <trkpt lat="44.88149" lon="1.8582">
        <ele>268.35</ele>
        <time>2021-08-16T14:38:14Z</time>
      </trkpt>
      <trkpt lat="44.88183" lon="1.85802">
        <ele>268.35</ele>
        <time>2021-08-16T14:38:22Z</time>
      </trkpt>
      <trkpt lat="44.88217" lon="1.8578">
        <ele>268.83</ele>
        <time>2021-08-16T14:38:31Z</time>
      </trkpt>
      <trkpt lat="44.88238" lon="1.85766">
        <ele>270.75</ele>
        <time>2021-08-16T14:38:38Z</time>
      </trkpt>
      <trkpt lat="44.8825" lon="1.85755">
        <ele>271.23</ele>
        <time>2021-08-16T14:38:44Z</time>
      </trkpt>
      <trkpt lat="44.88269" lon="1.85739">
        <ele>272.67</ele>
        <time>2021-08-16T14:38:53Z</time>
      </trkpt>
      <trkpt lat="44.8829" lon="1.85721">
        <ele>274.11</ele>
        <time>2021-08-16T14:39:03Z</time>
      </trkpt>
      <trkpt lat="44.88304" lon="1.85712">
        <ele>275.56</ele>
        <time>2021-08-16T14:39:09Z</time>
      </trkpt>
      <trkpt lat="44.8832" lon="1.857">
        <ele>276.52</ele>
        <time>2021-08-16T14:39:17Z</time>
      </trkpt>
      <trkpt lat="44.88339" lon="1.85687">
        <ele>277.96</ele>
        <time>2021-08-16T14:39:27Z</time>
      </trkpt>
      <trkpt lat="44.88354" lon="1.85675">
        <ele>279.4</ele>
        <time>2021-08-16T14:39:36Z</time>
      </trkpt>
      <trkpt lat="44.8837" lon="1.85664">
        <ele>280.84</ele>
        <time>2021-08-16T14:39:45Z</time>
      </trkpt>
      <trkpt lat="44.88383" lon="1.85656">
        <ele>281.8</ele>
        <time>2021-08-16T14:39:52Z</time>
      </trkpt>
      <trkpt lat="44.88404" lon="1.85642">
        <ele>283.25</ele>
        <time>2021-08-16T14:40:02Z</time>
      </trkpt>
      <trkpt lat="44.88431" lon="1.85627">
        <ele>283.73</ele>
        <time>2021-08-16T14:40:12Z</time>
      </trkpt>
      <trkpt lat="44.88456" lon="1.85612">
        <ele>284.21</ele>
        <time>2021-08-16T14:40:20Z</time>
      </trkpt>
      <trkpt lat="44.88493" lon="1.85584">
        <ele>281.32</ele>
        <time>2021-08-16T14:40:30Z</time>
      </trkpt>
      <trkpt lat="44.88517" lon="1.85557">
        <ele>279.4</ele>
        <time>2021-08-16T14:40:35Z</time>
      </trkpt>
      <trkpt lat="44.88521" lon="1.85549">
        <ele>278.92</ele>
        <time>2021-08-16T14:40:36Z</time>
      </trkpt>
      <trkpt lat="44.88547" lon="1.85497">
        <ele>276.04</ele>
        <time>2021-08-16T14:40:42Z</time>
      </trkpt>
      <trkpt lat="44.88549" lon="1.85486">
        <ele>275.56</ele>
        <time>2021-08-16T14:40:43Z</time>
      </trkpt>
      <trkpt lat="44.8855" lon="1.85474">
        <ele>275.56</ele>
        <time>2021-08-16T14:40:44Z</time>
      </trkpt>
      <trkpt lat="44.88549" lon="1.85463">
        <ele>275.07</ele>
        <time>2021-08-16T14:40:45Z</time>
      </trkpt>
      <trkpt lat="44.88548" lon="1.85451">
        <ele>274.59</ele>
        <time>2021-08-16T14:40:46Z</time>
      </trkpt>
      <trkpt lat="44.88546" lon="1.85417">
        <ele>273.63</ele>
        <time>2021-08-16T14:40:49Z</time>
      </trkpt>
      <trkpt lat="44.88546" lon="1.85406">
        <ele>273.63</ele>
        <time>2021-08-16T14:40:50Z</time>
      </trkpt>
      <trkpt lat="44.88546" lon="1.85395">
        <ele>273.63</ele>
        <time>2021-08-16T14:40:51Z</time>
      </trkpt>
      <trkpt lat="44.88559" lon="1.85333">
        <ele>272.19</ele>
        <time>2021-08-16T14:40:57Z</time>
      </trkpt>
      <trkpt lat="44.88581" lon="1.85267">
        <ele>271.23</ele>
        <time>2021-08-16T14:41:04Z</time>
      </trkpt>
      <trkpt lat="44.88586" lon="1.85258">
        <ele>271.23</ele>
        <time>2021-08-16T14:41:05Z</time>
      </trkpt>
      <trkpt lat="44.88622" lon="1.85203">
        <ele>269.79</ele>
        <time>2021-08-16T14:41:12Z</time>
      </trkpt>
      <trkpt lat="44.88654" lon="1.85162">
        <ele>269.79</ele>
        <time>2021-08-16T14:41:18Z</time>
      </trkpt>
      <trkpt lat="44.88659" lon="1.85157">
        <ele>269.79</ele>
        <time>2021-08-16T14:41:19Z</time>
      </trkpt>
      <trkpt lat="44.88702" lon="1.8513">
        <ele>271.23</ele>
        <time>2021-08-16T14:41:27Z</time>
      </trkpt>
      <trkpt lat="44.88729" lon="1.85113">
        <ele>271.71</ele>
        <time>2021-08-16T14:41:33Z</time>
      </trkpt>
      <trkpt lat="44.88733" lon="1.85111">
        <ele>271.71</ele>
        <time>2021-08-16T14:41:34Z</time>
      </trkpt>
      <trkpt lat="44.88774" lon="1.85091">
        <ele>272.19</ele>
        <time>2021-08-16T14:41:43Z</time>
      </trkpt>
      <trkpt lat="44.88815" lon="1.85072">
        <ele>272.19</ele>
        <time>2021-08-16T14:41:51Z</time>
      </trkpt>
      <trkpt lat="44.88881" lon="1.85048">
        <ele>270.27</ele>
        <time>2021-08-16T14:42:02Z</time>
      </trkpt>
      <trkpt lat="44.88946" lon="1.85024">
        <ele>269.31</ele>
        <time>2021-08-16T14:42:12Z</time>
      </trkpt>
      <trkpt lat="44.89007" lon="1.85005">
        <ele>267.86</ele>
        <time>2021-08-16T14:42:21Z</time>
      </trkpt>
      <trkpt lat="44.8907" lon="1.84989">
        <ele>267.38</ele>
        <time>2021-08-16T14:42:30Z</time>
      </trkpt>
      <trkpt lat="44.89109" lon="1.84985">
        <ele>267.38</ele>
        <time>2021-08-16T14:42:36Z</time>
      </trkpt>
      <trkpt lat="44.89148" lon="1.84982">
        <ele>267.38</ele>
        <time>2021-08-16T14:42:43Z</time>
      </trkpt>
      <trkpt lat="44.89183" lon="1.84971">
        <ele>266.42</ele>
        <time>2021-08-16T14:42:50Z</time>
      </trkpt>
      <trkpt lat="44.89189" lon="1.84968">
        <ele>266.42</ele>
        <time>2021-08-16T14:42:51Z</time>
      </trkpt>
      <trkpt lat="44.89194" lon="1.84964">
        <ele>265.94</ele>
        <time>2021-08-16T14:42:52Z</time>
      </trkpt>
      <trkpt lat="44.89232" lon="1.8493">
        <ele>265.46</ele>
        <time>2021-08-16T14:43:00Z</time>
      </trkpt>
      <trkpt lat="44.89272" lon="1.84892">
        <ele>264.98</ele>
        <time>2021-08-16T14:43:09Z</time>
      </trkpt>
      <trkpt lat="44.89302" lon="1.84855">
        <ele>264.02</ele>
        <time>2021-08-16T14:43:17Z</time>
      </trkpt>
      <trkpt lat="44.89332" lon="1.84815">
        <ele>263.06</ele>
        <time>2021-08-16T14:43:24Z</time>
      </trkpt>
      <trkpt lat="44.89357" lon="1.84791">
        <ele>262.58</ele>
        <time>2021-08-16T14:43:29Z</time>
      </trkpt>
      <trkpt lat="44.89401" lon="1.84766">
        <ele>262.58</ele>
        <time>2021-08-16T14:43:37Z</time>
      </trkpt>
      <trkpt lat="44.89449" lon="1.84732">
        <ele>262.58</ele>
        <time>2021-08-16T14:43:46Z</time>
      </trkpt>
      <trkpt lat="44.89494" lon="1.84699">
        <ele>262.58</ele>
        <time>2021-08-16T14:43:55Z</time>
      </trkpt>
      <trkpt lat="44.89533" lon="1.8467">
        <ele>262.1</ele>
        <time>2021-08-16T14:44:03Z</time>
      </trkpt>
      <trkpt lat="44.89586" lon="1.84643">
        <ele>261.62</ele>
        <time>2021-08-16T14:44:13Z</time>
      </trkpt>
      <trkpt lat="44.89591" lon="1.8464">
        <ele>261.62</ele>
        <time>2021-08-16T14:44:14Z</time>
      </trkpt>
      <trkpt lat="44.89596" lon="1.84635">
        <ele>261.62</ele>
        <time>2021-08-16T14:44:15Z</time>
      </trkpt>
      <trkpt lat="44.89599" lon="1.8463">
        <ele>261.62</ele>
        <time>2021-08-16T14:44:16Z</time>
      </trkpt>
      <trkpt lat="44.89626" lon="1.84579">
        <ele>261.14</ele>
        <time>2021-08-16T14:44:24Z</time>
      </trkpt>
      <trkpt lat="44.89651" lon="1.8453">
        <ele>259.21</ele>
        <time>2021-08-16T14:44:31Z</time>
      </trkpt>
      <trkpt lat="44.89685" lon="1.84478">
        <ele>257.29</ele>
        <time>2021-08-16T14:44:38Z</time>
      </trkpt>
      <trkpt lat="44.89713" lon="1.84443">
        <ele>256.33</ele>
        <time>2021-08-16T14:44:43Z</time>
      </trkpt>
      <trkpt lat="44.89738" lon="1.84403">
        <ele>255.37</ele>
        <time>2021-08-16T14:44:48Z</time>
      </trkpt>
      <trkpt lat="44.89754" lon="1.84348">
        <ele>253.93</ele>
        <time>2021-08-16T14:44:54Z</time>
      </trkpt>
      <trkpt lat="44.89756" lon="1.84338">
        <ele>253.93</ele>
        <time>2021-08-16T14:44:55Z</time>
      </trkpt>
      <trkpt lat="44.89759" lon="1.84329">
        <ele>253.93</ele>
        <time>2021-08-16T14:44:56Z</time>
      </trkpt>
      <trkpt lat="44.89762" lon="1.8432">
        <ele>253.44</ele>
        <time>2021-08-16T14:44:57Z</time>
      </trkpt>
      <trkpt lat="44.8979" lon="1.84269">
        <ele>253.93</ele>
        <time>2021-08-16T14:45:04Z</time>
      </trkpt>
      <trkpt lat="44.89827" lon="1.84223">
        <ele>253.44</ele>
        <time>2021-08-16T14:45:12Z</time>
      </trkpt>
      <trkpt lat="44.8986" lon="1.8418">
        <ele>251.52</ele>
        <time>2021-08-16T14:45:20Z</time>
      </trkpt>
      <trkpt lat="44.89894" lon="1.8413">
        <ele>250.56</ele>
        <time>2021-08-16T14:45:28Z</time>
      </trkpt>
      <trkpt lat="44.89916" lon="1.84097">
        <ele>250.08</ele>
        <time>2021-08-16T14:45:33Z</time>
      </trkpt>
      <trkpt lat="44.89919" lon="1.84089">
        <ele>250.08</ele>
        <time>2021-08-16T14:45:34Z</time>
      </trkpt>
      <trkpt lat="44.89922" lon="1.84081">
        <ele>249.6</ele>
        <time>2021-08-16T14:45:35Z</time>
      </trkpt>
      <trkpt lat="44.89928" lon="1.84057">
        <ele>249.6</ele>
        <time>2021-08-16T14:45:38Z</time>
      </trkpt>
      <trkpt lat="44.89931" lon="1.84">
        <ele>249.6</ele>
        <time>2021-08-16T14:45:45Z</time>
      </trkpt>
      <trkpt lat="44.89927" lon="1.83942">
        <ele>250.08</ele>
        <time>2021-08-16T14:45:53Z</time>
      </trkpt>
      <trkpt lat="44.89921" lon="1.83898">
        <ele>248.64</ele>
        <time>2021-08-16T14:45:59Z</time>
      </trkpt>
      <trkpt lat="44.89915" lon="1.83873">
        <ele>248.16</ele>
        <time>2021-08-16T14:46:02Z</time>
      </trkpt>
      <trkpt lat="44.89912" lon="1.83865">
        <ele>247.2</ele>
        <time>2021-08-16T14:46:03Z</time>
      </trkpt>
      <trkpt lat="44.89901" lon="1.8384">
        <ele>246.23</ele>
        <time>2021-08-16T14:46:06Z</time>
      </trkpt>
      <trkpt lat="44.89896" lon="1.83833">
        <ele>245.75</ele>
        <time>2021-08-16T14:46:07Z</time>
      </trkpt>
      <trkpt lat="44.89891" lon="1.83827">
        <ele>245.75</ele>
        <time>2021-08-16T14:46:08Z</time>
      </trkpt>
      <trkpt lat="44.89835" lon="1.83765">
        <ele>244.79</ele>
        <time>2021-08-16T14:46:18Z</time>
      </trkpt>
      <trkpt lat="44.89797" lon="1.8371">
        <ele>244.31</ele>
        <time>2021-08-16T14:46:26Z</time>
      </trkpt>
      <trkpt lat="44.89795" lon="1.83704">
        <ele>244.31</ele>
        <time>2021-08-16T14:46:27Z</time>
      </trkpt>
      <trkpt lat="44.89772" lon="1.83641">
        <ele>244.31</ele>
        <time>2021-08-16T14:46:35Z</time>
      </trkpt>
      <trkpt lat="44.8975" lon="1.83575">
        <ele>244.31</ele>
        <time>2021-08-16T14:46:44Z</time>
      </trkpt>
      <trkpt lat="44.89733" lon="1.83539">
        <ele>244.31</ele>
        <time>2021-08-16T14:46:50Z</time>
      </trkpt>
      <trkpt lat="44.8973" lon="1.83532">
        <ele>243.83</ele>
        <time>2021-08-16T14:46:51Z</time>
      </trkpt>
      <trkpt lat="44.89727" lon="1.83526">
        <ele>245.27</ele>
        <time>2021-08-16T14:46:52Z</time>
      </trkpt>
      <trkpt lat="44.89724" lon="1.83521">
        <ele>245.27</ele>
        <time>2021-08-16T14:46:53Z</time>
      </trkpt>
      <trkpt lat="44.89721" lon="1.83515">
        <ele>245.27</ele>
        <time>2021-08-16T14:46:54Z</time>
      </trkpt>
      <trkpt lat="44.89695" lon="1.83462">
        <ele>245.27</ele>
        <time>2021-08-16T14:47:03Z</time>
      </trkpt>
      <trkpt lat="44.89681" lon="1.83424">
        <ele>245.27</ele>
        <time>2021-08-16T14:47:09Z</time>
      </trkpt>
      <trkpt lat="44.89679" lon="1.83416">
        <ele>245.27</ele>
        <time>2021-08-16T14:47:10Z</time>
      </trkpt>
      <trkpt lat="44.89678" lon="1.83409">
        <ele>245.27</ele>
        <time>2021-08-16T14:47:11Z</time>
      </trkpt>
      <trkpt lat="44.89679" lon="1.83359">
        <ele>245.27</ele>
        <time>2021-08-16T14:47:18Z</time>
      </trkpt>
      <trkpt lat="44.89691" lon="1.83312">
        <ele>245.27</ele>
        <time>2021-08-16T14:47:25Z</time>
      </trkpt>
      <trkpt lat="44.89716" lon="1.83265">
        <ele>242.87</ele>
        <time>2021-08-16T14:47:32Z</time>
      </trkpt>
      <trkpt lat="44.89748" lon="1.83225">
        <ele>239.51</ele>
        <time>2021-08-16T14:47:38Z</time>
      </trkpt>
      <trkpt lat="44.8978" lon="1.83186">
        <ele>236.14</ele>
        <time>2021-08-16T14:47:43Z</time>
      </trkpt>
      <trkpt lat="44.89819" lon="1.83141">
        <ele>232.3</ele>
        <time>2021-08-16T14:47:48Z</time>
      </trkpt>
      <trkpt lat="44.89853" lon="1.83103">
        <ele>229.41</ele>
        <time>2021-08-16T14:47:52Z</time>
      </trkpt>
      <trkpt lat="44.89869" lon="1.83083">
        <ele>228.45</ele>
        <time>2021-08-16T14:47:54Z</time>
      </trkpt>
      <trkpt lat="44.89903" lon="1.83042">
        <ele>225.57</ele>
        <time>2021-08-16T14:47:58Z</time>
      </trkpt>
      <trkpt lat="44.89909" lon="1.8303">
        <ele>225.09</ele>
        <time>2021-08-16T14:47:59Z</time>
      </trkpt>
      <trkpt lat="44.89913" lon="1.83018">
        <ele>224.12</ele>
        <time>2021-08-16T14:48:00Z</time>
      </trkpt>
      <trkpt lat="44.89917" lon="1.83004">
        <ele>224.12</ele>
        <time>2021-08-16T14:48:01Z</time>
      </trkpt>
      <trkpt lat="44.89919" lon="1.82989">
        <ele>223.16</ele>
        <time>2021-08-16T14:48:02Z</time>
      </trkpt>
      <trkpt lat="44.89919" lon="1.82976">
        <ele>222.2</ele>
        <time>2021-08-16T14:48:03Z</time>
      </trkpt>
      <trkpt lat="44.89918" lon="1.82962">
        <ele>221.72</ele>
        <time>2021-08-16T14:48:04Z</time>
      </trkpt>
      <trkpt lat="44.89915" lon="1.82908">
        <ele>218.84</ele>
        <time>2021-08-16T14:48:08Z</time>
      </trkpt>
      <trkpt lat="44.8992" lon="1.82869">
        <ele>216.43</ele>
        <time>2021-08-16T14:48:11Z</time>
      </trkpt>
      <trkpt lat="44.89929" lon="1.82834">
        <ele>215.47</ele>
        <time>2021-08-16T14:48:14Z</time>
      </trkpt>
      <trkpt lat="44.89945" lon="1.82796">
        <ele>213.07</ele>
        <time>2021-08-16T14:48:18Z</time>
      </trkpt>
      <trkpt lat="44.89948" lon="1.82786">
        <ele>211.63</ele>
        <time>2021-08-16T14:48:19Z</time>
      </trkpt>
      <trkpt lat="44.8995" lon="1.82777">
        <ele>211.15</ele>
        <time>2021-08-16T14:48:20Z</time>
      </trkpt>
      <trkpt lat="44.89951" lon="1.82768">
        <ele>211.15</ele>
        <time>2021-08-16T14:48:21Z</time>
      </trkpt>
      <trkpt lat="44.89951" lon="1.82761">
        <ele>210.67</ele>
        <time>2021-08-16T14:48:22Z</time>
      </trkpt>
      <trkpt lat="44.89951" lon="1.82755">
        <ele>210.67</ele>
        <time>2021-08-16T14:48:23Z</time>
      </trkpt>
      <trkpt lat="44.89949" lon="1.82748">
        <ele>209.7</ele>
        <time>2021-08-16T14:48:24Z</time>
      </trkpt>
      <trkpt lat="44.89946" lon="1.82743">
        <ele>209.7</ele>
        <time>2021-08-16T14:48:25Z</time>
      </trkpt>
      <trkpt lat="44.89941" lon="1.82739">
        <ele>209.22</ele>
        <time>2021-08-16T14:48:26Z</time>
      </trkpt>
      <trkpt lat="44.89936" lon="1.82735">
        <ele>208.26</ele>
        <time>2021-08-16T14:48:27Z</time>
      </trkpt>
      <trkpt lat="44.89929" lon="1.82731">
        <ele>207.3</ele>
        <time>2021-08-16T14:48:28Z</time>
      </trkpt>
      <trkpt lat="44.89923" lon="1.82727">
        <ele>206.82</ele>
        <time>2021-08-16T14:48:29Z</time>
      </trkpt>
      <trkpt lat="44.89882" lon="1.82706">
        <ele>203.46</ele>
        <time>2021-08-16T14:48:34Z</time>
      </trkpt>
      <trkpt lat="44.89855" lon="1.82689">
        <ele>200.57</ele>
        <time>2021-08-16T14:48:37Z</time>
      </trkpt>
      <trkpt lat="44.89807" lon="1.82645">
        <ele>199.13</ele>
        <time>2021-08-16T14:48:43Z</time>
      </trkpt>
      <trkpt lat="44.89801" lon="1.82636">
        <ele>199.13</ele>
        <time>2021-08-16T14:48:44Z</time>
      </trkpt>
      <trkpt lat="44.89796" lon="1.82629">
        <ele>199.13</ele>
        <time>2021-08-16T14:48:45Z</time>
      </trkpt>
      <trkpt lat="44.89768" lon="1.82561">
        <ele>195.77</ele>
        <time>2021-08-16T14:48:51Z</time>
      </trkpt>
      <trkpt lat="44.89763" lon="1.82536">
        <ele>195.28</ele>
        <time>2021-08-16T14:48:53Z</time>
      </trkpt>
      <trkpt lat="44.89758" lon="1.82482">
        <ele>191.44</ele>
        <time>2021-08-16T14:48:57Z</time>
      </trkpt>
      <trkpt lat="44.89759" lon="1.82452">
        <ele>189.04</ele>
        <time>2021-08-16T14:48:59Z</time>
      </trkpt>
      <trkpt lat="44.89761" lon="1.82437">
        <ele>188.56</ele>
        <time>2021-08-16T14:49:00Z</time>
      </trkpt>
      <trkpt lat="44.8978" lon="1.82366">
        <ele>185.67</ele>
        <time>2021-08-16T14:49:05Z</time>
      </trkpt>
      <trkpt lat="44.89806" lon="1.82285">
        <ele>181.83</ele>
        <time>2021-08-16T14:49:11Z</time>
      </trkpt>
      <trkpt lat="44.89812" lon="1.82271">
        <ele>181.83</ele>
        <time>2021-08-16T14:49:12Z</time>
      </trkpt>
      <trkpt lat="44.89817" lon="1.82258">
        <ele>180.87</ele>
        <time>2021-08-16T14:49:13Z</time>
      </trkpt>
      <trkpt lat="44.89851" lon="1.82186">
        <ele>177.5</ele>
        <time>2021-08-16T14:49:19Z</time>
      </trkpt>
      <trkpt lat="44.8988" lon="1.82126">
        <ele>173.66</ele>
        <time>2021-08-16T14:49:24Z</time>
      </trkpt>
      <trkpt lat="44.89891" lon="1.82101">
        <ele>173.17</ele>
        <time>2021-08-16T14:49:26Z</time>
      </trkpt>
      <trkpt lat="44.89911" lon="1.82044">
        <ele>169.33</ele>
        <time>2021-08-16T14:49:30Z</time>
      </trkpt>
      <trkpt lat="44.89917" lon="1.82016">
        <ele>167.89</ele>
        <time>2021-08-16T14:49:32Z</time>
      </trkpt>
      <trkpt lat="44.89918" lon="1.82002">
        <ele>166.93</ele>
        <time>2021-08-16T14:49:33Z</time>
      </trkpt>
      <trkpt lat="44.89917" lon="1.81986">
        <ele>165.96</ele>
        <time>2021-08-16T14:49:34Z</time>
      </trkpt>
      <trkpt lat="44.89915" lon="1.81974">
        <ele>165</ele>
        <time>2021-08-16T14:49:35Z</time>
      </trkpt>
      <trkpt lat="44.89911" lon="1.81961">
        <ele>164.52</ele>
        <time>2021-08-16T14:49:36Z</time>
      </trkpt>
      <trkpt lat="44.89905" lon="1.81947">
        <ele>163.56</ele>
        <time>2021-08-16T14:49:37Z</time>
      </trkpt>
      <trkpt lat="44.899" lon="1.81936">
        <ele>163.08</ele>
        <time>2021-08-16T14:49:38Z</time>
      </trkpt>
      <trkpt lat="44.89895" lon="1.81923">
        <ele>162.12</ele>
        <time>2021-08-16T14:49:39Z</time>
      </trkpt>
      <trkpt lat="44.89886" lon="1.81897">
        <ele>161.16</ele>
        <time>2021-08-16T14:49:41Z</time>
      </trkpt>
      <trkpt lat="44.89884" lon="1.81883">
        <ele>161.16</ele>
        <time>2021-08-16T14:49:42Z</time>
      </trkpt>
      <trkpt lat="44.89882" lon="1.81868">
        <ele>160.2</ele>
        <time>2021-08-16T14:49:43Z</time>
      </trkpt>
      <trkpt lat="44.8988" lon="1.81852">
        <ele>159.24</ele>
        <time>2021-08-16T14:49:44Z</time>
      </trkpt>
      <trkpt lat="44.8988" lon="1.81839">
        <ele>158.75</ele>
        <time>2021-08-16T14:49:45Z</time>
      </trkpt>
      <trkpt lat="44.8988" lon="1.81824">
        <ele>158.27</ele>
        <time>2021-08-16T14:49:46Z</time>
      </trkpt>
      <trkpt lat="44.8988" lon="1.8178">
        <ele>156.35</ele>
        <time>2021-08-16T14:49:49Z</time>
      </trkpt>
      <trkpt lat="44.89879" lon="1.81749">
        <ele>154.91</ele>
        <time>2021-08-16T14:49:51Z</time>
      </trkpt>
      <trkpt lat="44.89877" lon="1.81735">
        <ele>154.91</ele>
        <time>2021-08-16T14:49:52Z</time>
      </trkpt>
      <trkpt lat="44.89873" lon="1.8172">
        <ele>153.47</ele>
        <time>2021-08-16T14:49:53Z</time>
      </trkpt>
      <trkpt lat="44.89869" lon="1.81706">
        <ele>152.99</ele>
        <time>2021-08-16T14:49:54Z</time>
      </trkpt>
      <trkpt lat="44.89864" lon="1.81694">
        <ele>152.51</ele>
        <time>2021-08-16T14:49:55Z</time>
      </trkpt>
      <trkpt lat="44.89857" lon="1.8168">
        <ele>152.03</ele>
        <time>2021-08-16T14:49:56Z</time>
      </trkpt>
      <trkpt lat="44.89852" lon="1.81669">
        <ele>151.54</ele>
        <time>2021-08-16T14:49:57Z</time>
      </trkpt>
      <trkpt lat="44.8981" lon="1.8158">
        <ele>150.1</ele>
        <time>2021-08-16T14:50:05Z</time>
      </trkpt>
      <trkpt lat="44.8978" lon="1.81517">
        <ele>149.14</ele>
        <time>2021-08-16T14:50:12Z</time>
      </trkpt>
      <trkpt lat="44.89771" lon="1.81498">
        <ele>149.14</ele>
        <time>2021-08-16T14:50:15Z</time>
      </trkpt>
      <trkpt lat="44.89769" lon="1.81491">
        <ele>149.14</ele>
        <time>2021-08-16T14:50:16Z</time>
      </trkpt>
      <trkpt lat="44.89768" lon="1.81483">
        <ele>149.14</ele>
        <time>2021-08-16T14:50:17Z</time>
      </trkpt>
      <trkpt lat="44.89765" lon="1.81457">
        <ele>149.14</ele>
        <time>2021-08-16T14:50:21Z</time>
      </trkpt>
      <trkpt lat="44.89765" lon="1.8145">
        <ele>149.14</ele>
        <time>2021-08-16T14:50:22Z</time>
      </trkpt>
      <trkpt lat="44.89766" lon="1.81443">
        <ele>148.66</ele>
        <time>2021-08-16T14:50:23Z</time>
      </trkpt>
      <trkpt lat="44.89768" lon="1.81437">
        <ele>148.66</ele>
        <time>2021-08-16T14:50:24Z</time>
      </trkpt>
      <trkpt lat="44.8977" lon="1.81432">
        <ele>148.66</ele>
        <time>2021-08-16T14:50:25Z</time>
      </trkpt>
      <trkpt lat="44.89773" lon="1.81427">
        <ele>148.66</ele>
        <time>2021-08-16T14:50:26Z</time>
      </trkpt>
      <trkpt lat="44.89776" lon="1.81423">
        <ele>148.66</ele>
        <time>2021-08-16T14:50:27Z</time>
      </trkpt>
      <trkpt lat="44.8978" lon="1.8142">
        <ele>148.66</ele>
        <time>2021-08-16T14:50:28Z</time>
      </trkpt>
      <trkpt lat="44.89784" lon="1.81416">
        <ele>147.7</ele>
        <time>2021-08-16T14:50:29Z</time>
      </trkpt>
      <trkpt lat="44.8982" lon="1.8139">
        <ele>144.82</ele>
        <time>2021-08-16T14:50:36Z</time>
      </trkpt>
      <trkpt lat="44.89848" lon="1.8137">
        <ele>142.89</ele>
        <time>2021-08-16T14:50:40Z</time>
      </trkpt>
      <trkpt lat="44.89854" lon="1.81365">
        <ele>141.93</ele>
        <time>2021-08-16T14:50:41Z</time>
      </trkpt>
      <trkpt lat="44.89859" lon="1.81359">
        <ele>141.93</ele>
        <time>2021-08-16T14:50:42Z</time>
      </trkpt>
      <trkpt lat="44.89864" lon="1.81352">
        <ele>141.45</ele>
        <time>2021-08-16T14:50:43Z</time>
      </trkpt>
      <trkpt lat="44.89868" lon="1.81344">
        <ele>141.45</ele>
        <time>2021-08-16T14:50:44Z</time>
      </trkpt>
      <trkpt lat="44.89871" lon="1.81336">
        <ele>140.49</ele>
        <time>2021-08-16T14:50:45Z</time>
      </trkpt>
      <trkpt lat="44.89895" lon="1.81284">
        <ele>139.05</ele>
        <time>2021-08-16T14:50:52Z</time>
      </trkpt>
      <trkpt lat="44.899" lon="1.81273">
        <ele>139.05</ele>
        <time>2021-08-16T14:50:54Z</time>
      </trkpt>
      <trkpt lat="44.89911" lon="1.81254">
        <ele>139.05</ele>
        <time>2021-08-16T14:50:59Z</time>
      </trkpt>
      <trkpt lat="44.89909" lon="1.8125">
        <ele>139.05</ele>
        <time>2021-08-16T14:51:00Z</time>
      </trkpt>
      <trkpt lat="44.89906" lon="1.81249">
        <ele>139.05</ele>
        <time>2021-08-16T14:51:01Z</time>
      </trkpt>
      <trkpt lat="44.89904" lon="1.81249">
        <ele>139.05</ele>
        <time>2021-08-16T14:51:02Z</time>
      </trkpt>
      <trkpt lat="44.89902" lon="1.81248">
        <ele>139.05</ele>
        <time>2021-08-16T14:51:03Z</time>
      </trkpt>
      <trkpt lat="44.899" lon="1.81248">
        <ele>139.05</ele>
        <time>2021-08-16T14:51:04Z</time>
      </trkpt>
      <trkpt lat="44.89897" lon="1.81248">
        <ele>139.05</ele>
        <time>2021-08-16T14:51:05Z</time>
      </trkpt>
      <trkpt lat="44.89895" lon="1.81249">
        <ele>139.05</ele>
        <time>2021-08-16T14:51:06Z</time>
      </trkpt>
      <trkpt lat="44.89893" lon="1.8125">
        <ele>139.05</ele>
        <time>2021-08-16T14:51:07Z</time>
      </trkpt>
      <trkpt lat="44.8989" lon="1.8125">
        <ele>139.05</ele>
        <time>2021-08-16T14:51:08Z</time>
      </trkpt>
      <trkpt lat="44.89887" lon="1.8125">
        <ele>139.05</ele>
        <time>2021-08-16T14:51:09Z</time>
      </trkpt>
      <trkpt lat="44.89884" lon="1.81249">
        <ele>139.05</ele>
        <time>2021-08-16T14:51:10Z</time>
      </trkpt>
      <trkpt lat="44.89864" lon="1.81241">
        <ele>139.05</ele>
        <time>2021-08-16T14:51:16Z</time>
      </trkpt>
      <trkpt lat="44.89834" lon="1.81221">
        <ele>138.57</ele>
        <time>2021-08-16T14:51:24Z</time>
      </trkpt>
      <trkpt lat="44.89827" lon="1.81215">
        <ele>138.57</ele>
        <time>2021-08-16T14:51:26Z</time>
      </trkpt>
      <trkpt lat="44.89788" lon="1.81188">
        <ele>138.57</ele>
        <time>2021-08-16T14:51:36Z</time>
      </trkpt>
      <trkpt lat="44.89761" lon="1.81169">
        <ele>138.57</ele>
        <time>2021-08-16T14:51:43Z</time>
      </trkpt>
      <trkpt lat="44.89745" lon="1.81157">
        <ele>138.57</ele>
        <time>2021-08-16T14:51:47Z</time>
      </trkpt>
      <trkpt lat="44.89741" lon="1.81155">
        <ele>138.57</ele>
        <time>2021-08-16T14:51:48Z</time>
      </trkpt>
      <trkpt lat="44.8972" lon="1.81138">
        <ele>138.57</ele>
        <time>2021-08-16T14:51:53Z</time>
      </trkpt>
      <trkpt lat="44.89668" lon="1.81085">
        <ele>138.57</ele>
        <time>2021-08-16T14:52:06Z</time>
      </trkpt>
      <trkpt lat="44.89631" lon="1.81047">
        <ele>138.57</ele>
        <time>2021-08-16T14:52:15Z</time>
      </trkpt>
      <trkpt lat="44.89623" lon="1.81039">
        <ele>138.57</ele>
        <time>2021-08-16T14:52:17Z</time>
      </trkpt>
      <trkpt lat="44.8962" lon="1.81036">
        <ele>138.57</ele>
        <time>2021-08-16T14:52:18Z</time>
      </trkpt>
      <trkpt lat="44.89616" lon="1.81032">
        <ele>138.57</ele>
        <time>2021-08-16T14:52:19Z</time>
      </trkpt>
      <trkpt lat="44.89604" lon="1.81022">
        <ele>138.57</ele>
        <time>2021-08-16T14:52:22Z</time>
      </trkpt>
      <trkpt lat="44.89601" lon="1.81017">
        <ele>138.57</ele>
        <time>2021-08-16T14:52:23Z</time>
      </trkpt>
      <trkpt lat="44.89555" lon="1.80972">
        <ele>138.57</ele>
        <time>2021-08-16T14:52:34Z</time>
      </trkpt>
      <trkpt lat="44.89503" lon="1.8093">
        <ele>138.09</ele>
        <time>2021-08-16T14:52:45Z</time>
      </trkpt>
      <trkpt lat="44.89443" lon="1.80895">
        <ele>138.09</ele>
        <time>2021-08-16T14:52:57Z</time>
      </trkpt>
      <trkpt lat="44.8942" lon="1.80883">
        <ele>137.61</ele>
        <time>2021-08-16T14:53:02Z</time>
      </trkpt>
      <trkpt lat="44.8936" lon="1.80842">
        <ele>137.13</ele>
        <time>2021-08-16T14:53:14Z</time>
      </trkpt>
      <trkpt lat="44.89315" lon="1.80809">
        <ele>137.13</ele>
        <time>2021-08-16T14:53:23Z</time>
      </trkpt>
      <trkpt lat="44.89272" lon="1.80771">
        <ele>136.64</ele>
        <time>2021-08-16T14:53:32Z</time>
      </trkpt>
      <trkpt lat="44.89238" lon="1.80737">
        <ele>136.64</ele>
        <time>2021-08-16T14:53:40Z</time>
      </trkpt>
      <trkpt lat="44.89192" lon="1.80687">
        <ele>136.64</ele>
        <time>2021-08-16T14:53:52Z</time>
      </trkpt>
      <trkpt lat="44.89177" lon="1.80668">
        <ele>136.64</ele>
        <time>2021-08-16T14:53:56Z</time>
      </trkpt>
      <trkpt lat="44.89151" lon="1.80623">
        <ele>136.16</ele>
        <time>2021-08-16T14:54:04Z</time>
      </trkpt>
      <trkpt lat="44.89147" lon="1.80617">
        <ele>136.16</ele>
        <time>2021-08-16T14:54:05Z</time>
      </trkpt>
      <trkpt lat="44.89143" lon="1.80612">
        <ele>136.16</ele>
        <time>2021-08-16T14:54:06Z</time>
      </trkpt>
      <trkpt lat="44.89127" lon="1.80596">
        <ele>136.16</ele>
        <time>2021-08-16T14:54:10Z</time>
      </trkpt>
      <trkpt lat="44.89122" lon="1.80592">
        <ele>136.16</ele>
        <time>2021-08-16T14:54:11Z</time>
      </trkpt>
      <trkpt lat="44.89084" lon="1.80566">
        <ele>136.16</ele>
        <time>2021-08-16T14:54:20Z</time>
      </trkpt>
      <trkpt lat="44.8908" lon="1.80565">
        <ele>136.16</ele>
        <time>2021-08-16T14:54:21Z</time>
      </trkpt>
      <trkpt lat="44.89047" lon="1.80554">
        <ele>138.09</ele>
        <time>2021-08-16T14:54:29Z</time>
      </trkpt>
      <trkpt lat="44.89021" lon="1.80543">
        <ele>138.57</ele>
        <time>2021-08-16T14:54:37Z</time>
      </trkpt>
      <trkpt lat="44.89008" lon="1.80555">
        <ele>139.05</ele>
        <time>2021-08-16T14:54:42Z</time>
      </trkpt>
      <trkpt lat="44.8899" lon="1.8059">
        <ele>139.05</ele>
        <time>2021-08-16T14:54:50Z</time>
      </trkpt>
      <trkpt lat="44.88987" lon="1.80595">
        <ele>139.05</ele>
        <time>2021-08-16T14:54:51Z</time>
      </trkpt>
      <trkpt lat="44.88983" lon="1.80599">
        <ele>139.05</ele>
        <time>2021-08-16T14:54:52Z</time>
      </trkpt>
      <trkpt lat="44.88952" lon="1.8064">
        <ele>139.53</ele>
        <time>2021-08-16T14:55:02Z</time>
      </trkpt>
      <trkpt lat="44.88948" lon="1.80642">
        <ele>139.05</ele>
        <time>2021-08-16T14:55:03Z</time>
      </trkpt>
      <trkpt lat="44.88943" lon="1.80644">
        <ele>139.05</ele>
        <time>2021-08-16T14:55:04Z</time>
      </trkpt>
      <trkpt lat="44.88938" lon="1.80644">
        <ele>139.05</ele>
        <time>2021-08-16T14:55:05Z</time>
      </trkpt>
      <trkpt lat="44.88934" lon="1.80642">
        <ele>139.05</ele>
        <time>2021-08-16T14:55:06Z</time>
      </trkpt>
      <trkpt lat="44.8893" lon="1.8064">
        <ele>139.05</ele>
        <time>2021-08-16T14:55:07Z</time>
      </trkpt>
      <trkpt lat="44.88926" lon="1.80637">
        <ele>139.05</ele>
        <time>2021-08-16T14:55:08Z</time>
      </trkpt>
      <trkpt lat="44.88906" lon="1.80634">
        <ele>140.49</ele>
        <time>2021-08-16T14:55:14Z</time>
      </trkpt>
      <trkpt lat="44.88889" lon="1.80647">
        <ele>140.97</ele>
        <time>2021-08-16T14:55:21Z</time>
      </trkpt>
      <trkpt lat="44.88877" lon="1.80656">
        <ele>142.41</ele>
        <time>2021-08-16T14:55:29Z</time>
      </trkpt>
      <trkpt lat="44.88877" lon="1.80657">
        <ele>142.41</ele>
        <time>2021-08-16T14:55:31Z</time>
      </trkpt>
      <trkpt lat="44.88876" lon="1.80658">
        <ele>142.41</ele>
        <time>2021-08-16T14:55:37Z</time>
      </trkpt>
      <trkpt lat="44.88874" lon="1.80659">
        <ele>142.41</ele>
        <time>2021-08-16T14:55:54Z</time>
      </trkpt>
      <trkpt lat="44.88874" lon="1.80658">
        <ele>142.41</ele>
        <time>2021-08-16T14:56:07Z</time>
      </trkpt>
      <trkpt lat="44.88874" lon="1.80657">
        <ele>142.41</ele>
        <time>2021-08-16T14:56:14Z</time>
      </trkpt>
      <trkpt lat="44.88874" lon="1.80654">
        <ele>142.41</ele>
        <time>2021-08-16T14:56:34Z</time>
      </trkpt>
      <trkpt lat="44.88873" lon="1.80651">
        <ele>142.41</ele>
        <time>2021-08-16T14:56:52Z</time>
      </trkpt>
      <trkpt lat="44.88873" lon="1.80652">
        <ele>142.41</ele>
        <time>2021-08-16T14:57:13Z</time>
      </trkpt>
      <trkpt lat="44.88875" lon="1.80653">
        <ele>141.93</ele>
        <time>2021-08-16T14:57:35Z</time>
      </trkpt>
      <trkpt lat="44.88874" lon="1.80654">
        <ele>141.93</ele>
        <time>2021-08-16T14:57:55Z</time>
      </trkpt>
      <trkpt lat="44.88875" lon="1.80654">
        <ele>141.93</ele>
        <time>2021-08-16T14:58:13Z</time>
      </trkpt>
      <trkpt lat="44.88875" lon="1.80654">
        <ele>141.93</ele>
        <time>2021-08-16T14:58:27Z</time>
      </trkpt>
      <trkpt lat="44.88874" lon="1.80653">
        <ele>141.93</ele>
        <time>2021-08-16T14:58:47Z</time>
      </trkpt>
      <trkpt lat="44.88873" lon="1.80651">
        <ele>141.93</ele>
        <time>2021-08-16T14:59:04Z</time>
      </trkpt>
      <trkpt lat="44.88873" lon="1.80652">
        <ele>141.93</ele>
        <time>2021-08-16T14:59:14Z</time>
      </trkpt>
      <trkpt lat="44.88872" lon="1.80653">
        <ele>141.45</ele>
        <time>2021-08-16T14:59:32Z</time>
      </trkpt>
      <trkpt lat="44.88873" lon="1.8065">
        <ele>141.45</ele>
        <time>2021-08-16T14:59:54Z</time>
      </trkpt>
      <trkpt lat="44.88874" lon="1.80652">
        <ele>141.45</ele>
        <time>2021-08-16T15:00:18Z</time>
      </trkpt>
      <trkpt lat="44.88875" lon="1.80653">
        <ele>141.45</ele>
        <time>2021-08-16T15:00:43Z</time>
      </trkpt>
      <trkpt lat="44.88875" lon="1.80651">
        <ele>140.97</ele>
        <time>2021-08-16T15:01:06Z</time>
      </trkpt>
      <trkpt lat="44.88874" lon="1.80654">
        <ele>140.97</ele>
        <time>2021-08-16T15:01:30Z</time>
      </trkpt>
      <trkpt lat="44.88876" lon="1.80652">
        <ele>140.97</ele>
        <time>2021-08-16T15:01:51Z</time>
      </trkpt>
      <trkpt lat="44.88874" lon="1.80651">
        <ele>140.49</ele>
        <time>2021-08-16T15:02:16Z</time>
      </trkpt>
      <trkpt lat="44.88873" lon="1.80652">
        <ele>140.49</ele>
        <time>2021-08-16T15:02:37Z</time>
      </trkpt>
      <trkpt lat="44.88872" lon="1.80654">
        <ele>140.49</ele>
        <time>2021-08-16T15:02:57Z</time>
      </trkpt>
      <trkpt lat="44.88873" lon="1.80654">
        <ele>140.49</ele>
        <time>2021-08-16T15:03:19Z</time>
      </trkpt>
      <trkpt lat="44.88872" lon="1.80652">
        <ele>140.49</ele>
        <time>2021-08-16T15:03:41Z</time>
      </trkpt>
      <trkpt lat="44.88872" lon="1.80654">
        <ele>140.01</ele>
        <time>2021-08-16T15:03:57Z</time>
      </trkpt>
      <trkpt lat="44.88871" lon="1.80654">
        <ele>140.01</ele>
        <time>2021-08-16T15:04:05Z</time>
      </trkpt>
      <trkpt lat="44.88871" lon="1.80653">
        <ele>140.01</ele>
        <time>2021-08-16T15:04:21Z</time>
      </trkpt>
      <trkpt lat="44.8887" lon="1.8065">
        <ele>140.01</ele>
        <time>2021-08-16T15:04:36Z</time>
      </trkpt>
      <trkpt lat="44.88872" lon="1.80651">
        <ele>140.01</ele>
        <time>2021-08-16T15:04:57Z</time>
      </trkpt>
      <trkpt lat="44.88875" lon="1.80654">
        <ele>140.01</ele>
        <time>2021-08-16T15:05:13Z</time>
      </trkpt>
      <trkpt lat="44.88876" lon="1.80655">
        <ele>139.53</ele>
        <time>2021-08-16T15:05:25Z</time>
      </trkpt>
      <trkpt lat="44.88875" lon="1.80655">
        <ele>139.53</ele>
        <time>2021-08-16T15:05:33Z</time>
      </trkpt>
      <trkpt lat="44.88875" lon="1.80657">
        <ele>139.53</ele>
        <time>2021-08-16T15:05:35Z</time>
      </trkpt>
      <trkpt lat="44.88875" lon="1.80658">
        <ele>139.53</ele>
        <time>2021-08-16T15:05:36Z</time>
      </trkpt>
      <trkpt lat="44.88874" lon="1.8066">
        <ele>139.53</ele>
        <time>2021-08-16T15:05:37Z</time>
      </trkpt>
      <trkpt lat="44.88863" lon="1.80672">
        <ele>140.01</ele>
        <time>2021-08-16T15:05:44Z</time>
      </trkpt>
      <trkpt lat="44.88841" lon="1.80691">
        <ele>141.93</ele>
        <time>2021-08-16T15:05:55Z</time>
      </trkpt>
      <trkpt lat="44.88826" lon="1.80702">
        <ele>142.89</ele>
        <time>2021-08-16T15:06:02Z</time>
      </trkpt>
      <trkpt lat="44.88814" lon="1.80712">
        <ele>143.85</ele>
        <time>2021-08-16T15:06:09Z</time>
      </trkpt>
      <trkpt lat="44.88797" lon="1.80721">
        <ele>144.82</ele>
        <time>2021-08-16T15:06:17Z</time>
      </trkpt>
      <trkpt lat="44.88775" lon="1.80725">
        <ele>145.78</ele>
        <time>2021-08-16T15:06:26Z</time>
      </trkpt>
      <trkpt lat="44.88754" lon="1.80722">
        <ele>147.22</ele>
        <time>2021-08-16T15:06:34Z</time>
      </trkpt>
      <trkpt lat="44.8873" lon="1.80707">
        <ele>148.18</ele>
        <time>2021-08-16T15:06:44Z</time>
      </trkpt>
      <trkpt lat="44.88712" lon="1.80689">
        <ele>149.14</ele>
        <time>2021-08-16T15:06:53Z</time>
      </trkpt>
      <trkpt lat="44.88695" lon="1.80667">
        <ele>150.58</ele>
        <time>2021-08-16T15:07:03Z</time>
      </trkpt>
      <trkpt lat="44.88682" lon="1.80644">
        <ele>151.54</ele>
        <time>2021-08-16T15:07:12Z</time>
      </trkpt>
      <trkpt lat="44.88676" lon="1.80617">
        <ele>152.99</ele>
        <time>2021-08-16T15:07:21Z</time>
      </trkpt>
      <trkpt lat="44.88676" lon="1.80588">
        <ele>153.95</ele>
        <time>2021-08-16T15:07:30Z</time>
      </trkpt>
      <trkpt lat="44.88675" lon="1.80573">
        <ele>154.91</ele>
        <time>2021-08-16T15:07:35Z</time>
      </trkpt>
      <trkpt lat="44.88674" lon="1.80573">
        <ele>154.91</ele>
        <time>2021-08-16T15:07:36Z</time>
      </trkpt>
      <trkpt lat="44.88671" lon="1.80574">
        <ele>154.91</ele>
        <time>2021-08-16T15:07:37Z</time>
      </trkpt>
      <trkpt lat="44.88669" lon="1.80576">
        <ele>154.91</ele>
        <time>2021-08-16T15:07:38Z</time>
      </trkpt>
      <trkpt lat="44.88667" lon="1.80579">
        <ele>154.43</ele>
        <time>2021-08-16T15:07:39Z</time>
      </trkpt>
      <trkpt lat="44.88661" lon="1.80588">
        <ele>153.47</ele>
        <time>2021-08-16T15:07:41Z</time>
      </trkpt>
      <trkpt lat="44.88658" lon="1.80593">
        <ele>153.47</ele>
        <time>2021-08-16T15:07:42Z</time>
      </trkpt>
      <trkpt lat="44.88654" lon="1.80599">
        <ele>152.99</ele>
        <time>2021-08-16T15:07:43Z</time>
      </trkpt>
      <trkpt lat="44.88651" lon="1.80605">
        <ele>152.99</ele>
        <time>2021-08-16T15:07:44Z</time>
      </trkpt>
      <trkpt lat="44.88648" lon="1.80611">
        <ele>152.03</ele>
        <time>2021-08-16T15:07:45Z</time>
      </trkpt>
      <trkpt lat="44.88641" lon="1.80625">
        <ele>151.54</ele>
        <time>2021-08-16T15:07:47Z</time>
      </trkpt>
      <trkpt lat="44.88628" lon="1.8066">
        <ele>148.18</ele>
        <time>2021-08-16T15:07:51Z</time>
      </trkpt>
      <trkpt lat="44.88615" lon="1.8069">
        <ele>145.3</ele>
        <time>2021-08-16T15:07:54Z</time>
      </trkpt>
      <trkpt lat="44.88595" lon="1.80736">
        <ele>141.93</ele>
        <time>2021-08-16T15:07:58Z</time>
      </trkpt>
      <trkpt lat="44.8857" lon="1.80793">
        <ele>141.93</ele>
        <time>2021-08-16T15:08:04Z</time>
      </trkpt>
      <trkpt lat="44.88564" lon="1.80807">
        <ele>143.37</ele>
        <time>2021-08-16T15:08:06Z</time>
      </trkpt>
      <trkpt lat="44.88561" lon="1.80813">
        <ele>143.85</ele>
        <time>2021-08-16T15:08:07Z</time>
      </trkpt>
      <trkpt lat="44.88558" lon="1.80817">
        <ele>144.34</ele>
        <time>2021-08-16T15:08:08Z</time>
      </trkpt>
      <trkpt lat="44.88556" lon="1.80822">
        <ele>144.34</ele>
        <time>2021-08-16T15:08:09Z</time>
      </trkpt>
      <trkpt lat="44.88548" lon="1.80841">
        <ele>145.78</ele>
        <time>2021-08-16T15:08:15Z</time>
      </trkpt>
      <trkpt lat="44.88539" lon="1.80862">
        <ele>147.22</ele>
        <time>2021-08-16T15:08:22Z</time>
      </trkpt>
      <trkpt lat="44.88526" lon="1.80888">
        <ele>147.7</ele>
        <time>2021-08-16T15:08:31Z</time>
      </trkpt>
      <trkpt lat="44.88527" lon="1.8089">
        <ele>148.18</ele>
        <time>2021-08-16T15:08:36Z</time>
      </trkpt>
      <trkpt lat="44.88525" lon="1.80889">
        <ele>148.18</ele>
        <time>2021-08-16T15:08:55Z</time>
      </trkpt>
      <trkpt lat="44.88527" lon="1.80889">
        <ele>148.18</ele>
        <time>2021-08-16T15:09:01Z</time>
      </trkpt>
      <trkpt lat="44.88526" lon="1.80888">
        <ele>148.18</ele>
        <time>2021-08-16T15:09:08Z</time>
      </trkpt>
      <trkpt lat="44.88525" lon="1.8089">
        <ele>148.66</ele>
        <time>2021-08-16T15:09:21Z</time>
      </trkpt>
      <trkpt lat="44.88525" lon="1.80892">
        <ele>148.66</ele>
        <time>2021-08-16T15:09:23Z</time>
      </trkpt>
      <trkpt lat="44.88525" lon="1.80894">
        <ele>148.66</ele>
        <time>2021-08-16T15:09:24Z</time>
      </trkpt>
      <trkpt lat="44.88525" lon="1.80897">
        <ele>148.66</ele>
        <time>2021-08-16T15:09:25Z</time>
      </trkpt>
      <trkpt lat="44.88524" lon="1.80922">
        <ele>149.62</ele>
        <time>2021-08-16T15:09:33Z</time>
      </trkpt>
      <trkpt lat="44.8852" lon="1.80955">
        <ele>150.58</ele>
        <time>2021-08-16T15:09:41Z</time>
      </trkpt>
      <trkpt lat="44.88514" lon="1.80995">
        <ele>150.58</ele>
        <time>2021-08-16T15:09:49Z</time>
      </trkpt>
      <trkpt lat="44.88502" lon="1.81049">
        <ele>150.1</ele>
        <time>2021-08-16T15:09:58Z</time>
      </trkpt>
      <trkpt lat="44.88495" lon="1.81077">
        <ele>148.66</ele>
        <time>2021-08-16T15:10:02Z</time>
      </trkpt>
      <trkpt lat="44.88478" lon="1.81141">
        <ele>147.22</ele>
        <time>2021-08-16T15:10:11Z</time>
      </trkpt>
      <trkpt lat="44.88459" lon="1.81215">
        <ele>146.26</ele>
        <time>2021-08-16T15:10:21Z</time>
      </trkpt>
      <trkpt lat="44.88438" lon="1.81294">
        <ele>146.26</ele>
        <time>2021-08-16T15:10:32Z</time>
      </trkpt>
      <trkpt lat="44.88423" lon="1.81336">
        <ele>145.78</ele>
        <time>2021-08-16T15:10:38Z</time>
      </trkpt>
      <trkpt lat="44.8842" lon="1.81343">
        <ele>145.78</ele>
        <time>2021-08-16T15:10:39Z</time>
      </trkpt>
      <trkpt lat="44.88417" lon="1.8135">
        <ele>145.78</ele>
        <time>2021-08-16T15:10:40Z</time>
      </trkpt>
      <trkpt lat="44.8841" lon="1.81363">
        <ele>145.78</ele>
        <time>2021-08-16T15:10:42Z</time>
      </trkpt>
      <trkpt lat="44.88398" lon="1.81386">
        <ele>145.78</ele>
        <time>2021-08-16T15:10:46Z</time>
      </trkpt>
      <trkpt lat="44.88388" lon="1.81402">
        <ele>145.78</ele>
        <time>2021-08-16T15:10:49Z</time>
      </trkpt>
      <trkpt lat="44.88384" lon="1.81407">
        <ele>145.78</ele>
        <time>2021-08-16T15:10:50Z</time>
      </trkpt>
      <trkpt lat="44.8836" lon="1.81444">
        <ele>145.78</ele>
        <time>2021-08-16T15:10:57Z</time>
      </trkpt>
      <trkpt lat="44.88331" lon="1.81492">
        <ele>145.78</ele>
        <time>2021-08-16T15:11:06Z</time>
      </trkpt>
      <trkpt lat="44.88307" lon="1.81528">
        <ele>145.78</ele>
        <time>2021-08-16T15:11:13Z</time>
      </trkpt>
      <trkpt lat="44.88287" lon="1.8156">
        <ele>145.78</ele>
        <time>2021-08-16T15:11:20Z</time>
      </trkpt>
      <trkpt lat="44.88273" lon="1.8158">
        <ele>145.78</ele>
        <time>2021-08-16T15:11:24Z</time>
      </trkpt>
      <trkpt lat="44.88243" lon="1.81632">
        <ele>145.3</ele>
        <time>2021-08-16T15:11:33Z</time>
      </trkpt>
      <trkpt lat="44.8823" lon="1.81653">
        <ele>145.3</ele>
        <time>2021-08-16T15:11:37Z</time>
      </trkpt>
      <trkpt lat="44.88222" lon="1.81668">
        <ele>145.3</ele>
        <time>2021-08-16T15:11:40Z</time>
      </trkpt>
      <trkpt lat="44.88207" lon="1.81691">
        <ele>145.3</ele>
        <time>2021-08-16T15:11:46Z</time>
      </trkpt>
      <trkpt lat="44.88205" lon="1.81691">
        <ele>145.3</ele>
        <time>2021-08-16T15:11:47Z</time>
      </trkpt>
      <trkpt lat="44.88202" lon="1.81687">
        <ele>146.74</ele>
        <time>2021-08-16T15:11:49Z</time>
      </trkpt>
      <trkpt lat="44.88201" lon="1.81687">
        <ele>147.22</ele>
        <time>2021-08-16T15:11:53Z</time>
      </trkpt>
      <trkpt lat="44.88201" lon="1.81689">
        <ele>147.22</ele>
        <time>2021-08-16T15:11:55Z</time>
      </trkpt>
      <trkpt lat="44.88205" lon="1.81694">
        <ele>147.22</ele>
        <time>2021-08-16T15:12:00Z</time>
      </trkpt>
      <trkpt lat="44.88204" lon="1.81699">
        <ele>147.22</ele>
        <time>2021-08-16T15:12:03Z</time>
      </trkpt>
      <trkpt lat="44.882" lon="1.81705">
        <ele>147.22</ele>
        <time>2021-08-16T15:12:11Z</time>
      </trkpt>
      <trkpt lat="44.88192" lon="1.81719">
        <ele>147.22</ele>
        <time>2021-08-16T15:12:18Z</time>
      </trkpt>
      <trkpt lat="44.88183" lon="1.81736">
        <ele>147.22</ele>
        <time>2021-08-16T15:12:24Z</time>
      </trkpt>
      <trkpt lat="44.8818" lon="1.81737">
        <ele>147.22</ele>
        <time>2021-08-16T15:12:25Z</time>
      </trkpt>
      <trkpt lat="44.88178" lon="1.81735">
        <ele>147.22</ele>
        <time>2021-08-16T15:12:26Z</time>
      </trkpt>
      <trkpt lat="44.88176" lon="1.81733">
        <ele>147.22</ele>
        <time>2021-08-16T15:12:27Z</time>
      </trkpt>
      <trkpt lat="44.88174" lon="1.81729">
        <ele>147.22</ele>
        <time>2021-08-16T15:12:28Z</time>
      </trkpt>
      <trkpt lat="44.88172" lon="1.81726">
        <ele>147.22</ele>
        <time>2021-08-16T15:12:29Z</time>
      </trkpt>
      <trkpt lat="44.88171" lon="1.81723">
        <ele>147.22</ele>
        <time>2021-08-16T15:12:30Z</time>
      </trkpt>
      <trkpt lat="44.8816" lon="1.81699">
        <ele>148.18</ele>
        <time>2021-08-16T15:12:38Z</time>
      </trkpt>
      <trkpt lat="44.88146" lon="1.81668">
        <ele>149.62</ele>
        <time>2021-08-16T15:12:49Z</time>
      </trkpt>
      <trkpt lat="44.88136" lon="1.81644">
        <ele>150.58</ele>
        <time>2021-08-16T15:12:58Z</time>
      </trkpt>
      <trkpt lat="44.88124" lon="1.81619">
        <ele>152.03</ele>
        <time>2021-08-16T15:13:09Z</time>
      </trkpt>
      <trkpt lat="44.88114" lon="1.81597">
        <ele>152.99</ele>
        <time>2021-08-16T15:13:18Z</time>
      </trkpt>
      <trkpt lat="44.88104" lon="1.81575">
        <ele>153.95</ele>
        <time>2021-08-16T15:13:28Z</time>
      </trkpt>
      <trkpt lat="44.88095" lon="1.81556">
        <ele>155.39</ele>
        <time>2021-08-16T15:13:38Z</time>
      </trkpt>
      <trkpt lat="44.88087" lon="1.81535">
        <ele>156.35</ele>
        <time>2021-08-16T15:13:48Z</time>
      </trkpt>
      <trkpt lat="44.88078" lon="1.81516">
        <ele>157.79</ele>
        <time>2021-08-16T15:13:58Z</time>
      </trkpt>
      <trkpt lat="44.88077" lon="1.81512">
        <ele>157.79</ele>
        <time>2021-08-16T15:14:00Z</time>
      </trkpt>
      <trkpt lat="44.88077" lon="1.8151">
        <ele>158.27</ele>
        <time>2021-08-16T15:14:01Z</time>
      </trkpt>
      <trkpt lat="44.88076" lon="1.81506">
        <ele>158.27</ele>
        <time>2021-08-16T15:14:03Z</time>
      </trkpt>
      <trkpt lat="44.88075" lon="1.81505">
        <ele>158.75</ele>
        <time>2021-08-16T15:14:04Z</time>
      </trkpt>
      <trkpt lat="44.88066" lon="1.81492">
        <ele>159.72</ele>
        <time>2021-08-16T15:14:12Z</time>
      </trkpt>
      <trkpt lat="44.88052" lon="1.81481">
        <ele>160.68</ele>
        <time>2021-08-16T15:14:22Z</time>
      </trkpt>
      <trkpt lat="44.88037" lon="1.81472">
        <ele>162.12</ele>
        <time>2021-08-16T15:14:32Z</time>
      </trkpt>
      <trkpt lat="44.88021" lon="1.81471">
        <ele>163.56</ele>
        <time>2021-08-16T15:14:43Z</time>
      </trkpt>
      <trkpt lat="44.88011" lon="1.81468">
        <ele>165</ele>
        <time>2021-08-16T15:14:50Z</time>
      </trkpt>
      <trkpt lat="44.8801" lon="1.81465">
        <ele>165.48</ele>
        <time>2021-08-16T15:14:52Z</time>
      </trkpt>
      <trkpt lat="44.88008" lon="1.81461">
        <ele>165.96</ele>
        <time>2021-08-16T15:14:57Z</time>
      </trkpt>
      <trkpt lat="44.88003" lon="1.81451">
        <ele>167.89</ele>
        <time>2021-08-16T15:15:08Z</time>
      </trkpt>
      <trkpt lat="44.87999" lon="1.81441">
        <ele>168.85</ele>
        <time>2021-08-16T15:15:17Z</time>
      </trkpt>
      <trkpt lat="44.87994" lon="1.81431">
        <ele>170.29</ele>
        <time>2021-08-16T15:15:28Z</time>
      </trkpt>
      <trkpt lat="44.87988" lon="1.8142">
        <ele>172.21</ele>
        <time>2021-08-16T15:15:39Z</time>
      </trkpt>
      <trkpt lat="44.87983" lon="1.8141">
        <ele>174.14</ele>
        <time>2021-08-16T15:15:49Z</time>
      </trkpt>
      <trkpt lat="44.87979" lon="1.81401">
        <ele>175.58</ele>
        <time>2021-08-16T15:15:59Z</time>
      </trkpt>
      <trkpt lat="44.87978" lon="1.814">
        <ele>175.58</ele>
        <time>2021-08-16T15:16:00Z</time>
      </trkpt>
      <trkpt lat="44.87974" lon="1.81391">
        <ele>177.02</ele>
        <time>2021-08-16T15:16:09Z</time>
      </trkpt>
      <trkpt lat="44.87969" lon="1.8138">
        <ele>178.94</ele>
        <time>2021-08-16T15:16:21Z</time>
      </trkpt>
      <trkpt lat="44.87963" lon="1.81369">
        <ele>180.38</ele>
        <time>2021-08-16T15:16:32Z</time>
      </trkpt>
      <trkpt lat="44.87958" lon="1.81359">
        <ele>181.83</ele>
        <time>2021-08-16T15:16:43Z</time>
      </trkpt>
      <trkpt lat="44.87954" lon="1.8135">
        <ele>183.27</ele>
        <time>2021-08-16T15:16:53Z</time>
      </trkpt>
      <trkpt lat="44.87948" lon="1.81339">
        <ele>184.23</ele>
        <time>2021-08-16T15:17:02Z</time>
      </trkpt>
      <trkpt lat="44.87943" lon="1.8133">
        <ele>186.15</ele>
        <time>2021-08-16T15:17:11Z</time>
      </trkpt>
      <trkpt lat="44.87937" lon="1.81319">
        <ele>187.59</ele>
        <time>2021-08-16T15:17:22Z</time>
      </trkpt>
      <trkpt lat="44.87931" lon="1.81315">
        <ele>189.04</ele>
        <time>2021-08-16T15:17:32Z</time>
      </trkpt>
      <trkpt lat="44.87927" lon="1.81318">
        <ele>190</ele>
        <time>2021-08-16T15:17:41Z</time>
      </trkpt>
      <trkpt lat="44.87923" lon="1.81326">
        <ele>191.44</ele>
        <time>2021-08-16T15:17:51Z</time>
      </trkpt>
      <trkpt lat="44.8792" lon="1.81337">
        <ele>192.88</ele>
        <time>2021-08-16T15:18:01Z</time>
      </trkpt>
      <trkpt lat="44.87914" lon="1.81344">
        <ele>194.32</ele>
        <time>2021-08-16T15:18:11Z</time>
      </trkpt>
      <trkpt lat="44.87913" lon="1.81339">
        <ele>195.77</ele>
        <time>2021-08-16T15:18:20Z</time>
      </trkpt>
      <trkpt lat="44.87913" lon="1.81331">
        <ele>197.21</ele>
        <time>2021-08-16T15:18:29Z</time>
      </trkpt>
      <trkpt lat="44.87912" lon="1.81325">
        <ele>198.17</ele>
        <time>2021-08-16T15:18:35Z</time>
      </trkpt>
      <trkpt lat="44.8791" lon="1.81317">
        <ele>199.61</ele>
        <time>2021-08-16T15:18:42Z</time>
      </trkpt>
      <trkpt lat="44.87909" lon="1.8131">
        <ele>200.57</ele>
        <time>2021-08-16T15:18:50Z</time>
      </trkpt>
      <trkpt lat="44.87907" lon="1.81303">
        <ele>202.01</ele>
        <time>2021-08-16T15:18:58Z</time>
      </trkpt>
      <trkpt lat="44.87905" lon="1.8129">
        <ele>203.46</ele>
        <time>2021-08-16T15:19:09Z</time>
      </trkpt>
      <trkpt lat="44.87903" lon="1.81282">
        <ele>204.9</ele>
        <time>2021-08-16T15:19:16Z</time>
      </trkpt>
      <trkpt lat="44.87901" lon="1.81271">
        <ele>206.34</ele>
        <time>2021-08-16T15:19:25Z</time>
      </trkpt>
      <trkpt lat="44.879" lon="1.81262">
        <ele>207.3</ele>
        <time>2021-08-16T15:19:33Z</time>
      </trkpt>
      <trkpt lat="44.87896" lon="1.81249">
        <ele>209.22</ele>
        <time>2021-08-16T15:19:43Z</time>
      </trkpt>
      <trkpt lat="44.87895" lon="1.81241">
        <ele>209.7</ele>
        <time>2021-08-16T15:19:50Z</time>
      </trkpt>
      <trkpt lat="44.87895" lon="1.8123">
        <ele>211.15</ele>
        <time>2021-08-16T15:19:59Z</time>
      </trkpt>
      <trkpt lat="44.87893" lon="1.81221">
        <ele>212.59</ele>
        <time>2021-08-16T15:20:07Z</time>
      </trkpt>
      <trkpt lat="44.87891" lon="1.81209">
        <ele>214.51</ele>
        <time>2021-08-16T15:20:17Z</time>
      </trkpt>
      <trkpt lat="44.87891" lon="1.81197">
        <ele>215.95</ele>
        <time>2021-08-16T15:20:27Z</time>
      </trkpt>
      <trkpt lat="44.8789" lon="1.81186">
        <ele>217.4</ele>
        <time>2021-08-16T15:20:36Z</time>
      </trkpt>
      <trkpt lat="44.87891" lon="1.81178">
        <ele>218.84</ele>
        <time>2021-08-16T15:20:44Z</time>
      </trkpt>
      <trkpt lat="44.8789" lon="1.81169">
        <ele>219.32</ele>
        <time>2021-08-16T15:20:52Z</time>
      </trkpt>
      <trkpt lat="44.87889" lon="1.81158">
        <ele>221.24</ele>
        <time>2021-08-16T15:21:03Z</time>
      </trkpt>
      <trkpt lat="44.87884" lon="1.81147">
        <ele>223.16</ele>
        <time>2021-08-16T15:21:12Z</time>
      </trkpt>
      <trkpt lat="44.87884" lon="1.8114">
        <ele>224.12</ele>
        <time>2021-08-16T15:21:20Z</time>
      </trkpt>
      <trkpt lat="44.87883" lon="1.81135">
        <ele>224.61</ele>
        <time>2021-08-16T15:21:33Z</time>
      </trkpt>
      <trkpt lat="44.87881" lon="1.81121">
        <ele>226.05</ele>
        <time>2021-08-16T15:21:41Z</time>
      </trkpt>
      <trkpt lat="44.87882" lon="1.81119">
        <ele>226.05</ele>
        <time>2021-08-16T15:21:42Z</time>
      </trkpt>
      <trkpt lat="44.87882" lon="1.81116">
        <ele>226.05</ele>
        <time>2021-08-16T15:21:44Z</time>
      </trkpt>
      <trkpt lat="44.87883" lon="1.81112">
        <ele>226.53</ele>
        <time>2021-08-16T15:21:46Z</time>
      </trkpt>
      <trkpt lat="44.87881" lon="1.811">
        <ele>227.97</ele>
        <time>2021-08-16T15:21:55Z</time>
      </trkpt>
      <trkpt lat="44.8788" lon="1.81088">
        <ele>229.41</ele>
        <time>2021-08-16T15:22:05Z</time>
      </trkpt>
      <trkpt lat="44.87879" lon="1.81074">
        <ele>231.81</ele>
        <time>2021-08-16T15:22:17Z</time>
      </trkpt>
      <trkpt lat="44.87879" lon="1.81059">
        <ele>233.26</ele>
        <time>2021-08-16T15:22:29Z</time>
      </trkpt>
      <trkpt lat="44.87875" lon="1.81044">
        <ele>234.7</ele>
        <time>2021-08-16T15:22:39Z</time>
      </trkpt>
      <trkpt lat="44.8787" lon="1.81037">
        <ele>236.14</ele>
        <time>2021-08-16T15:22:47Z</time>
      </trkpt>
      <trkpt lat="44.87858" lon="1.81032">
        <ele>237.58</ele>
        <time>2021-08-16T15:22:58Z</time>
      </trkpt>
      <trkpt lat="44.87844" lon="1.8103">
        <ele>239.02</ele>
        <time>2021-08-16T15:23:09Z</time>
      </trkpt>
      <trkpt lat="44.87839" lon="1.81029">
        <ele>239.99</ele>
        <time>2021-08-16T15:23:17Z</time>
      </trkpt>
      <trkpt lat="44.87834" lon="1.81029">
        <ele>239.99</ele>
        <time>2021-08-16T15:23:22Z</time>
      </trkpt>
      <trkpt lat="44.87821" lon="1.81026">
        <ele>241.43</ele>
        <time>2021-08-16T15:23:30Z</time>
      </trkpt>
      <trkpt lat="44.87811" lon="1.81018">
        <ele>242.39</ele>
        <time>2021-08-16T15:23:38Z</time>
      </trkpt>
      <trkpt lat="44.878" lon="1.8101">
        <ele>243.35</ele>
        <time>2021-08-16T15:23:47Z</time>
      </trkpt>
      <trkpt lat="44.87795" lon="1.81005">
        <ele>243.83</ele>
        <time>2021-08-16T15:23:51Z</time>
      </trkpt>
      <trkpt lat="44.87793" lon="1.81004">
        <ele>243.83</ele>
        <time>2021-08-16T15:23:53Z</time>
      </trkpt>
      <trkpt lat="44.87792" lon="1.81004">
        <ele>243.83</ele>
        <time>2021-08-16T15:23:54Z</time>
      </trkpt>
      <trkpt lat="44.8779" lon="1.81004">
        <ele>244.31</ele>
        <time>2021-08-16T15:23:55Z</time>
      </trkpt>
      <trkpt lat="44.87789" lon="1.81003">
        <ele>244.31</ele>
        <time>2021-08-16T15:23:56Z</time>
      </trkpt>
      <trkpt lat="44.87788" lon="1.81002">
        <ele>244.31</ele>
        <time>2021-08-16T15:23:57Z</time>
      </trkpt>
      <trkpt lat="44.87788" lon="1.81">
        <ele>244.79</ele>
        <time>2021-08-16T15:23:58Z</time>
      </trkpt>
      <trkpt lat="44.87787" lon="1.80999">
        <ele>244.79</ele>
        <time>2021-08-16T15:23:59Z</time>
      </trkpt>
      <trkpt lat="44.87786" lon="1.80998">
        <ele>245.27</ele>
        <time>2021-08-16T15:24:00Z</time>
      </trkpt>
      <trkpt lat="44.87785" lon="1.80997">
        <ele>245.27</ele>
        <time>2021-08-16T15:24:01Z</time>
      </trkpt>
      <trkpt lat="44.87775" lon="1.80988">
        <ele>246.23</ele>
        <time>2021-08-16T15:24:10Z</time>
      </trkpt>
      <trkpt lat="44.87769" lon="1.80983">
        <ele>246.72</ele>
        <time>2021-08-16T15:24:15Z</time>
      </trkpt>
      <trkpt lat="44.87759" lon="1.80972">
        <ele>247.68</ele>
        <time>2021-08-16T15:24:23Z</time>
      </trkpt>
      <trkpt lat="44.87741" lon="1.80959">
        <ele>249.12</ele>
        <time>2021-08-16T15:24:34Z</time>
      </trkpt>
      <trkpt lat="44.87725" lon="1.80953">
        <ele>250.08</ele>
        <time>2021-08-16T15:24:42Z</time>
      </trkpt>
      <trkpt lat="44.87702" lon="1.80949">
        <ele>251.52</ele>
        <time>2021-08-16T15:24:52Z</time>
      </trkpt>
      <trkpt lat="44.87678" lon="1.80945">
        <ele>252</ele>
        <time>2021-08-16T15:25:01Z</time>
      </trkpt>
      <trkpt lat="44.87654" lon="1.80942">
        <ele>252.48</ele>
        <time>2021-08-16T15:25:09Z</time>
      </trkpt>
      <trkpt lat="44.87623" lon="1.80938">
        <ele>253.44</ele>
        <time>2021-08-16T15:25:20Z</time>
      </trkpt>
      <trkpt lat="44.87608" lon="1.80935">
        <ele>253.93</ele>
        <time>2021-08-16T15:25:28Z</time>
      </trkpt>
      <trkpt lat="44.87594" lon="1.8093">
        <ele>253.93</ele>
        <time>2021-08-16T15:25:34Z</time>
      </trkpt>
      <trkpt lat="44.87592" lon="1.80927">
        <ele>253.93</ele>
        <time>2021-08-16T15:25:35Z</time>
      </trkpt>
      <trkpt lat="44.8759" lon="1.80923">
        <ele>253.93</ele>
        <time>2021-08-16T15:25:36Z</time>
      </trkpt>
      <trkpt lat="44.87589" lon="1.80919">
        <ele>253.93</ele>
        <time>2021-08-16T15:25:37Z</time>
      </trkpt>
      <trkpt lat="44.87588" lon="1.80915">
        <ele>253.93</ele>
        <time>2021-08-16T15:25:38Z</time>
      </trkpt>
      <trkpt lat="44.87586" lon="1.8091">
        <ele>253.93</ele>
        <time>2021-08-16T15:25:39Z</time>
      </trkpt>
      <trkpt lat="44.87568" lon="1.80877">
        <ele>253.93</ele>
        <time>2021-08-16T15:25:47Z</time>
      </trkpt>
      <trkpt lat="44.87559" lon="1.80847">
        <ele>253.93</ele>
        <time>2021-08-16T15:25:53Z</time>
      </trkpt>
      <trkpt lat="44.87557" lon="1.80797">
        <ele>254.41</ele>
        <time>2021-08-16T15:26:02Z</time>
      </trkpt>
      <trkpt lat="44.87556" lon="1.80768">
        <ele>254.89</ele>
        <time>2021-08-16T15:26:08Z</time>
      </trkpt>
      <trkpt lat="44.87548" lon="1.8075">
        <ele>255.85</ele>
        <time>2021-08-16T15:26:14Z</time>
      </trkpt>
      <trkpt lat="44.87541" lon="1.80734">
        <ele>257.29</ele>
        <time>2021-08-16T15:26:21Z</time>
      </trkpt>
      <trkpt lat="44.87534" lon="1.80714">
        <ele>258.25</ele>
        <time>2021-08-16T15:26:29Z</time>
      </trkpt>
      <trkpt lat="44.87532" lon="1.80696">
        <ele>260.17</ele>
        <time>2021-08-16T15:26:37Z</time>
      </trkpt>
      <trkpt lat="44.87531" lon="1.8067">
        <ele>260.65</ele>
        <time>2021-08-16T15:26:46Z</time>
      </trkpt>
      <trkpt lat="44.87527" lon="1.80645">
        <ele>262.58</ele>
        <time>2021-08-16T15:26:56Z</time>
      </trkpt>
      <trkpt lat="44.87523" lon="1.80638">
        <ele>263.54</ele>
        <time>2021-08-16T15:27:03Z</time>
      </trkpt>
      <trkpt lat="44.87519" lon="1.8063">
        <ele>264.5</ele>
        <time>2021-08-16T15:27:12Z</time>
      </trkpt>
      <trkpt lat="44.87512" lon="1.80621">
        <ele>266.42</ele>
        <time>2021-08-16T15:27:23Z</time>
      </trkpt>
      <trkpt lat="44.87506" lon="1.80616">
        <ele>267.38</ele>
        <time>2021-08-16T15:27:32Z</time>
      </trkpt>
      <trkpt lat="44.87501" lon="1.80611">
        <ele>268.83</ele>
        <time>2021-08-16T15:27:40Z</time>
      </trkpt>
      <trkpt lat="44.87493" lon="1.80604">
        <ele>270.27</ele>
        <time>2021-08-16T15:27:51Z</time>
      </trkpt>
      <trkpt lat="44.87488" lon="1.806">
        <ele>271.23</ele>
        <time>2021-08-16T15:27:58Z</time>
      </trkpt>
      <trkpt lat="44.87482" lon="1.80595">
        <ele>272.67</ele>
        <time>2021-08-16T15:28:07Z</time>
      </trkpt>
      <trkpt lat="44.87477" lon="1.80588">
        <ele>274.11</ele>
        <time>2021-08-16T15:28:16Z</time>
      </trkpt>
      <trkpt lat="44.87469" lon="1.80581">
        <ele>275.56</ele>
        <time>2021-08-16T15:28:27Z</time>
      </trkpt>
      <trkpt lat="44.87465" lon="1.80576">
        <ele>276.52</ele>
        <time>2021-08-16T15:28:34Z</time>
      </trkpt>
      <trkpt lat="44.87459" lon="1.80568">
        <ele>277.96</ele>
        <time>2021-08-16T15:28:43Z</time>
      </trkpt>
      <trkpt lat="44.87455" lon="1.80563">
        <ele>278.92</ele>
        <time>2021-08-16T15:28:50Z</time>
      </trkpt>
      <trkpt lat="44.87451" lon="1.80556">
        <ele>279.88</ele>
        <time>2021-08-16T15:28:57Z</time>
      </trkpt>
      <trkpt lat="44.87447" lon="1.8055">
        <ele>280.84</ele>
        <time>2021-08-16T15:29:05Z</time>
      </trkpt>
      <trkpt lat="44.87441" lon="1.80542">
        <ele>282.77</ele>
        <time>2021-08-16T15:29:14Z</time>
      </trkpt>
      <trkpt lat="44.87438" lon="1.80534">
        <ele>283.73</ele>
        <time>2021-08-16T15:29:22Z</time>
      </trkpt>
      <trkpt lat="44.87433" lon="1.80524">
        <ele>284.69</ele>
        <time>2021-08-16T15:29:30Z</time>
      </trkpt>
      <trkpt lat="44.87429" lon="1.80514">
        <ele>285.65</ele>
        <time>2021-08-16T15:29:39Z</time>
      </trkpt>
      <trkpt lat="44.87425" lon="1.80507">
        <ele>286.13</ele>
        <time>2021-08-16T15:29:46Z</time>
      </trkpt>
      <trkpt lat="44.87418" lon="1.80495">
        <ele>287.09</ele>
        <time>2021-08-16T15:29:53Z</time>
      </trkpt>
      <trkpt lat="44.87417" lon="1.80494">
        <ele>287.09</ele>
        <time>2021-08-16T15:29:54Z</time>
      </trkpt>
      <trkpt lat="44.87416" lon="1.80493">
        <ele>287.09</ele>
        <time>2021-08-16T15:29:55Z</time>
      </trkpt>
      <trkpt lat="44.87415" lon="1.80491">
        <ele>287.57</ele>
        <time>2021-08-16T15:29:56Z</time>
      </trkpt>
      <trkpt lat="44.87414" lon="1.8049">
        <ele>287.57</ele>
        <time>2021-08-16T15:29:57Z</time>
      </trkpt>
      <trkpt lat="44.87413" lon="1.80488">
        <ele>287.57</ele>
        <time>2021-08-16T15:29:58Z</time>
      </trkpt>
      <trkpt lat="44.87412" lon="1.80487">
        <ele>287.57</ele>
        <time>2021-08-16T15:29:59Z</time>
      </trkpt>
      <trkpt lat="44.87402" lon="1.80475">
        <ele>288.53</ele>
        <time>2021-08-16T15:30:08Z</time>
      </trkpt>
      <trkpt lat="44.87387" lon="1.80464">
        <ele>289.97</ele>
        <time>2021-08-16T15:30:18Z</time>
      </trkpt>
      <trkpt lat="44.87376" lon="1.80458">
        <ele>291.9</ele>
        <time>2021-08-16T15:30:27Z</time>
      </trkpt>
      <trkpt lat="44.87366" lon="1.80453">
        <ele>293.34</ele>
        <time>2021-08-16T15:30:35Z</time>
      </trkpt>
      <trkpt lat="44.8736" lon="1.80452">
        <ele>294.78</ele>
        <time>2021-08-16T15:30:42Z</time>
      </trkpt>
      <trkpt lat="44.87353" lon="1.80449">
        <ele>295.74</ele>
        <time>2021-08-16T15:30:50Z</time>
      </trkpt>
      <trkpt lat="44.87342" lon="1.80443">
        <ele>297.18</ele>
        <time>2021-08-16T15:31:00Z</time>
      </trkpt>
      <trkpt lat="44.87334" lon="1.80435">
        <ele>298.63</ele>
        <time>2021-08-16T15:31:11Z</time>
      </trkpt>
      <trkpt lat="44.87328" lon="1.80429">
        <ele>299.59</ele>
        <time>2021-08-16T15:31:18Z</time>
      </trkpt>
      <trkpt lat="44.87324" lon="1.80425">
        <ele>300.07</ele>
        <time>2021-08-16T15:31:25Z</time>
      </trkpt>
      <trkpt lat="44.87323" lon="1.80423">
        <ele>300.07</ele>
        <time>2021-08-16T15:31:27Z</time>
      </trkpt>
      <trkpt lat="44.87322" lon="1.80421">
        <ele>300.55</ele>
        <time>2021-08-16T15:31:28Z</time>
      </trkpt>
      <trkpt lat="44.8732" lon="1.80419">
        <ele>300.55</ele>
        <time>2021-08-16T15:31:29Z</time>
      </trkpt>
      <trkpt lat="44.87319" lon="1.80418">
        <ele>300.55</ele>
        <time>2021-08-16T15:31:30Z</time>
      </trkpt>
      <trkpt lat="44.87318" lon="1.80416">
        <ele>301.03</ele>
        <time>2021-08-16T15:31:31Z</time>
      </trkpt>
      <trkpt lat="44.87317" lon="1.80415">
        <ele>301.03</ele>
        <time>2021-08-16T15:31:32Z</time>
      </trkpt>
      <trkpt lat="44.87316" lon="1.80412">
        <ele>301.03</ele>
        <time>2021-08-16T15:31:33Z</time>
      </trkpt>
      <trkpt lat="44.87315" lon="1.8041">
        <ele>301.03</ele>
        <time>2021-08-16T15:31:34Z</time>
      </trkpt>
      <trkpt lat="44.87314" lon="1.80408">
        <ele>301.03</ele>
        <time>2021-08-16T15:31:35Z</time>
      </trkpt>
      <trkpt lat="44.87312" lon="1.80406">
        <ele>301.51</ele>
        <time>2021-08-16T15:31:36Z</time>
      </trkpt>
      <trkpt lat="44.87311" lon="1.80405">
        <ele>301.51</ele>
        <time>2021-08-16T15:31:37Z</time>
      </trkpt>
      <trkpt lat="44.8731" lon="1.80403">
        <ele>301.51</ele>
        <time>2021-08-16T15:31:38Z</time>
      </trkpt>
      <trkpt lat="44.87308" lon="1.80401">
        <ele>301.51</ele>
        <time>2021-08-16T15:31:39Z</time>
      </trkpt>
      <trkpt lat="44.87295" lon="1.80385">
        <ele>303.43</ele>
        <time>2021-08-16T15:31:49Z</time>
      </trkpt>
      <trkpt lat="44.87282" lon="1.80375">
        <ele>304.88</ele>
        <time>2021-08-16T15:31:59Z</time>
      </trkpt>
      <trkpt lat="44.87269" lon="1.80366">
        <ele>306.32</ele>
        <time>2021-08-16T15:32:08Z</time>
      </trkpt>
      <trkpt lat="44.87258" lon="1.8036">
        <ele>307.28</ele>
        <time>2021-08-16T15:32:16Z</time>
      </trkpt>
      <trkpt lat="44.87246" lon="1.80352">
        <ele>309.2</ele>
        <time>2021-08-16T15:32:25Z</time>
      </trkpt>
      <trkpt lat="44.87239" lon="1.80349">
        <ele>309.68</ele>
        <time>2021-08-16T15:32:29Z</time>
      </trkpt>
      <trkpt lat="44.87237" lon="1.80349">
        <ele>309.68</ele>
        <time>2021-08-16T15:32:30Z</time>
      </trkpt>
      <trkpt lat="44.87236" lon="1.80348">
        <ele>310.16</ele>
        <time>2021-08-16T15:32:31Z</time>
      </trkpt>
      <trkpt lat="44.87235" lon="1.80347">
        <ele>310.16</ele>
        <time>2021-08-16T15:32:32Z</time>
      </trkpt>
      <trkpt lat="44.87225" lon="1.80342">
        <ele>312.57</ele>
        <time>2021-08-16T15:32:41Z</time>
      </trkpt>
      <trkpt lat="44.87222" lon="1.80341">
        <ele>312.57</ele>
        <time>2021-08-16T15:32:43Z</time>
      </trkpt>
      <trkpt lat="44.8722" lon="1.80341">
        <ele>313.05</ele>
        <time>2021-08-16T15:32:45Z</time>
      </trkpt>
      <trkpt lat="44.87219" lon="1.80341">
        <ele>313.05</ele>
        <time>2021-08-16T15:32:46Z</time>
      </trkpt>
      <trkpt lat="44.87217" lon="1.8034">
        <ele>313.05</ele>
        <time>2021-08-16T15:32:47Z</time>
      </trkpt>
      <trkpt lat="44.87212" lon="1.80337">
        <ele>314.49</ele>
        <time>2021-08-16T15:32:52Z</time>
      </trkpt>
      <trkpt lat="44.87211" lon="1.80338">
        <ele>314.49</ele>
        <time>2021-08-16T15:32:53Z</time>
      </trkpt>
      <trkpt lat="44.87202" lon="1.80341">
        <ele>316.41</ele>
        <time>2021-08-16T15:33:01Z</time>
      </trkpt>
      <trkpt lat="44.87199" lon="1.80345">
        <ele>317.37</ele>
        <time>2021-08-16T15:33:05Z</time>
      </trkpt>
      <trkpt lat="44.87198" lon="1.80347">
        <ele>317.37</ele>
        <time>2021-08-16T15:33:06Z</time>
      </trkpt>
      <trkpt lat="44.87198" lon="1.80348">
        <ele>317.85</ele>
        <time>2021-08-16T15:33:07Z</time>
      </trkpt>
      <trkpt lat="44.87197" lon="1.8035">
        <ele>317.85</ele>
        <time>2021-08-16T15:33:09Z</time>
      </trkpt>
      <trkpt lat="44.87193" lon="1.8036">
        <ele>319.3</ele>
        <time>2021-08-16T15:33:16Z</time>
      </trkpt>
      <trkpt lat="44.87193" lon="1.80361">
        <ele>319.3</ele>
        <time>2021-08-16T15:33:17Z</time>
      </trkpt>
      <trkpt lat="44.87192" lon="1.80363">
        <ele>319.78</ele>
        <time>2021-08-16T15:33:18Z</time>
      </trkpt>
      <trkpt lat="44.87192" lon="1.80364">
        <ele>319.78</ele>
        <time>2021-08-16T15:33:19Z</time>
      </trkpt>
      <trkpt lat="44.87191" lon="1.80366">
        <ele>319.78</ele>
        <time>2021-08-16T15:33:20Z</time>
      </trkpt>
      <trkpt lat="44.87188" lon="1.80379">
        <ele>321.7</ele>
        <time>2021-08-16T15:33:29Z</time>
      </trkpt>
      <trkpt lat="44.87185" lon="1.80386">
        <ele>322.66</ele>
        <time>2021-08-16T15:33:34Z</time>
      </trkpt>
      <trkpt lat="44.87179" lon="1.80394">
        <ele>324.58</ele>
        <time>2021-08-16T15:33:41Z</time>
      </trkpt>
      <trkpt lat="44.87168" lon="1.80402">
        <ele>326.5</ele>
        <time>2021-08-16T15:33:50Z</time>
      </trkpt>
      <trkpt lat="44.87163" lon="1.80408">
        <ele>327.47</ele>
        <time>2021-08-16T15:33:56Z</time>
      </trkpt>
      <trkpt lat="44.8716" lon="1.80411">
        <ele>327.47</ele>
        <time>2021-08-16T15:33:58Z</time>
      </trkpt>
      <trkpt lat="44.87157" lon="1.80413">
        <ele>327.47</ele>
        <time>2021-08-16T15:34:00Z</time>
      </trkpt>
      <trkpt lat="44.87155" lon="1.80414">
        <ele>327.95</ele>
        <time>2021-08-16T15:34:01Z</time>
      </trkpt>
      <trkpt lat="44.87154" lon="1.80416">
        <ele>327.47</ele>
        <time>2021-08-16T15:34:02Z</time>
      </trkpt>
      <trkpt lat="44.87153" lon="1.80417">
        <ele>327.95</ele>
        <time>2021-08-16T15:34:03Z</time>
      </trkpt>
      <trkpt lat="44.87152" lon="1.80419">
        <ele>327.95</ele>
        <time>2021-08-16T15:34:04Z</time>
      </trkpt>
      <trkpt lat="44.8715" lon="1.8042">
        <ele>328.43</ele>
        <time>2021-08-16T15:34:05Z</time>
      </trkpt>
      <trkpt lat="44.87149" lon="1.8042">
        <ele>328.43</ele>
        <time>2021-08-16T15:34:06Z</time>
      </trkpt>
      <trkpt lat="44.87148" lon="1.80421">
        <ele>328.43</ele>
        <time>2021-08-16T15:34:07Z</time>
      </trkpt>
      <trkpt lat="44.87146" lon="1.80421">
        <ele>328.43</ele>
        <time>2021-08-16T15:34:08Z</time>
      </trkpt>
      <trkpt lat="44.87145" lon="1.80422">
        <ele>328.43</ele>
        <time>2021-08-16T15:34:09Z</time>
      </trkpt>
      <trkpt lat="44.87139" lon="1.80429">
        <ele>328.91</ele>
        <time>2021-08-16T15:34:15Z</time>
      </trkpt>
      <trkpt lat="44.87139" lon="1.80434">
        <ele>328.91</ele>
        <time>2021-08-16T15:34:20Z</time>
      </trkpt>
      <trkpt lat="44.87139" lon="1.80435">
        <ele>329.39</ele>
        <time>2021-08-16T15:34:28Z</time>
      </trkpt>
      <trkpt lat="44.87139" lon="1.80436">
        <ele>329.39</ele>
        <time>2021-08-16T15:34:36Z</time>
      </trkpt>
      <trkpt lat="44.87138" lon="1.80431">
        <ele>329.39</ele>
        <time>2021-08-16T15:34:55Z</time>
      </trkpt>
      <trkpt lat="44.87139" lon="1.80424">
        <ele>329.39</ele>
        <time>2021-08-16T15:35:11Z</time>
      </trkpt>
      <trkpt lat="44.87141" lon="1.80421">
        <ele>329.39</ele>
        <time>2021-08-16T15:35:27Z</time>
      </trkpt>
      <trkpt lat="44.87143" lon="1.8042">
        <ele>329.39</ele>
        <time>2021-08-16T15:35:42Z</time>
      </trkpt>
      <trkpt lat="44.87144" lon="1.80423">
        <ele>329.39</ele>
        <time>2021-08-16T15:35:55Z</time>
      </trkpt>
      <trkpt lat="44.87143" lon="1.80424">
        <ele>329.87</ele>
        <time>2021-08-16T15:36:06Z</time>
      </trkpt>
      <trkpt lat="44.87142" lon="1.80422">
        <ele>329.87</ele>
        <time>2021-08-16T15:36:22Z</time>
      </trkpt>
      <trkpt lat="44.87141" lon="1.80425">
        <ele>329.87</ele>
        <time>2021-08-16T15:36:40Z</time>
      </trkpt>
      <trkpt lat="44.87141" lon="1.80426">
        <ele>329.87</ele>
        <time>2021-08-16T15:36:53Z</time>
      </trkpt>
      <trkpt lat="44.87139" lon="1.80425">
        <ele>329.87</ele>
        <time>2021-08-16T15:37:10Z</time>
      </trkpt>
      <trkpt lat="44.87139" lon="1.80428">
        <ele>329.87</ele>
        <time>2021-08-16T15:37:24Z</time>
      </trkpt>
      <trkpt lat="44.87139" lon="1.80428">
        <ele>329.87</ele>
        <time>2021-08-16T15:37:39Z</time>
      </trkpt>
      <trkpt lat="44.8714" lon="1.80427">
        <ele>330.35</ele>
        <time>2021-08-16T15:37:52Z</time>
      </trkpt>
      <trkpt lat="44.8714" lon="1.80427">
        <ele>330.35</ele>
        <time>2021-08-16T15:38:07Z</time>
      </trkpt>
      <trkpt lat="44.8714" lon="1.80424">
        <ele>330.35</ele>
        <time>2021-08-16T15:38:27Z</time>
      </trkpt>
      <trkpt lat="44.8714" lon="1.80425">
        <ele>330.35</ele>
        <time>2021-08-16T15:38:43Z</time>
      </trkpt>
      <trkpt lat="44.8714" lon="1.80426">
        <ele>330.35</ele>
        <time>2021-08-16T15:38:50Z</time>
      </trkpt>
      <trkpt lat="44.8714" lon="1.80425">
        <ele>330.35</ele>
        <time>2021-08-16T15:38:56Z</time>
      </trkpt>
      <trkpt lat="44.87139" lon="1.80426">
        <ele>330.35</ele>
        <time>2021-08-16T15:39:09Z</time>
      </trkpt>
      <trkpt lat="44.87139" lon="1.80425">
        <ele>330.83</ele>
        <time>2021-08-16T15:39:24Z</time>
      </trkpt>
      <trkpt lat="44.87139" lon="1.80423">
        <ele>330.83</ele>
        <time>2021-08-16T15:39:44Z</time>
      </trkpt>
      <trkpt lat="44.87139" lon="1.80422">
        <ele>330.83</ele>
        <time>2021-08-16T15:39:56Z</time>
      </trkpt>
      <trkpt lat="44.87138" lon="1.80423">
        <ele>330.83</ele>
        <time>2021-08-16T15:40:10Z</time>
      </trkpt>
      <trkpt lat="44.87139" lon="1.80423">
        <ele>330.83</ele>
        <time>2021-08-16T15:40:25Z</time>
      </trkpt>
      <trkpt lat="44.87138" lon="1.80424">
        <ele>330.83</ele>
        <time>2021-08-16T15:40:42Z</time>
      </trkpt>
      <trkpt lat="44.87138" lon="1.80422">
        <ele>331.31</ele>
        <time>2021-08-16T15:40:57Z</time>
      </trkpt>
      <trkpt lat="44.87138" lon="1.80422">
        <ele>331.31</ele>
        <time>2021-08-16T15:41:13Z</time>
      </trkpt>
      <trkpt lat="44.87138" lon="1.80422">
        <ele>331.31</ele>
        <time>2021-08-16T15:41:26Z</time>
      </trkpt>
      <trkpt lat="44.87137" lon="1.80421">
        <ele>331.31</ele>
        <time>2021-08-16T15:41:44Z</time>
      </trkpt>
      <trkpt lat="44.87137" lon="1.80421">
        <ele>331.79</ele>
        <time>2021-08-16T15:42:01Z</time>
      </trkpt>
      <trkpt lat="44.87136" lon="1.80421">
        <ele>332.27</ele>
        <time>2021-08-16T15:42:14Z</time>
      </trkpt>
      <trkpt lat="44.87137" lon="1.80425">
        <ele>332.27</ele>
        <time>2021-08-16T15:42:30Z</time>
      </trkpt>
      <trkpt lat="44.87139" lon="1.80425">
        <ele>332.27</ele>
        <time>2021-08-16T15:42:45Z</time>
      </trkpt>
      <trkpt lat="44.87139" lon="1.80426">
        <ele>332.27</ele>
        <time>2021-08-16T15:43:01Z</time>
      </trkpt>
      <trkpt lat="44.87138" lon="1.80426">
        <ele>332.27</ele>
        <time>2021-08-16T15:43:15Z</time>
      </trkpt>
      <trkpt lat="44.87138" lon="1.80426">
        <ele>332.27</ele>
        <time>2021-08-16T15:43:28Z</time>
      </trkpt>
      <trkpt lat="44.87138" lon="1.80425">
        <ele>332.75</ele>
        <time>2021-08-16T15:43:41Z</time>
      </trkpt>
      <trkpt lat="44.87138" lon="1.80424">
        <ele>332.75</ele>
        <time>2021-08-16T15:43:56Z</time>
      </trkpt>
      <trkpt lat="44.87137" lon="1.80424">
        <ele>332.75</ele>
        <time>2021-08-16T15:44:06Z</time>
      </trkpt>
      <trkpt lat="44.87137" lon="1.80425">
        <ele>332.75</ele>
        <time>2021-08-16T15:44:13Z</time>
      </trkpt>
      <trkpt lat="44.87136" lon="1.80425">
        <ele>332.75</ele>
        <time>2021-08-16T15:44:27Z</time>
      </trkpt>
      <trkpt lat="44.87137" lon="1.80426">
        <ele>333.23</ele>
        <time>2021-08-16T15:44:41Z</time>
      </trkpt>
      <trkpt lat="44.87138" lon="1.80426">
        <ele>333.23</ele>
        <time>2021-08-16T15:44:53Z</time>
      </trkpt>
      <trkpt lat="44.87139" lon="1.80426">
        <ele>333.23</ele>
        <time>2021-08-16T15:45:08Z</time>
      </trkpt>
      <trkpt lat="44.87138" lon="1.80426">
        <ele>333.23</ele>
        <time>2021-08-16T15:45:20Z</time>
      </trkpt>
      <trkpt lat="44.87138" lon="1.80427">
        <ele>333.23</ele>
        <time>2021-08-16T15:45:30Z</time>
      </trkpt>
      <trkpt lat="44.87137" lon="1.80426">
        <ele>333.71</ele>
        <time>2021-08-16T15:45:45Z</time>
      </trkpt>
      <trkpt lat="44.87136" lon="1.80424">
        <ele>333.71</ele>
        <time>2021-08-16T15:45:58Z</time>
      </trkpt>
      <trkpt lat="44.87137" lon="1.80426">
        <ele>333.71</ele>
        <time>2021-08-16T15:46:08Z</time>
      </trkpt>
      <trkpt lat="44.87136" lon="1.80427">
        <ele>333.71</ele>
        <time>2021-08-16T15:46:19Z</time>
      </trkpt>
      <trkpt lat="44.87137" lon="1.80428">
        <ele>333.71</ele>
        <time>2021-08-16T15:46:32Z</time>
      </trkpt>
      <trkpt lat="44.87138" lon="1.8043">
        <ele>333.71</ele>
        <time>2021-08-16T15:46:43Z</time>
      </trkpt>
      <trkpt lat="44.8714" lon="1.80434">
        <ele>333.71</ele>
        <time>2021-08-16T15:47:02Z</time>
      </trkpt>
      <trkpt lat="44.87141" lon="1.80437">
        <ele>334.2</ele>
        <time>2021-08-16T15:47:16Z</time>
      </trkpt>
      <trkpt lat="44.87141" lon="1.80435">
        <ele>334.2</ele>
        <time>2021-08-16T15:47:29Z</time>
      </trkpt>
      <trkpt lat="44.8714" lon="1.8043">
        <ele>334.2</ele>
        <time>2021-08-16T15:47:40Z</time>
      </trkpt>
      <trkpt lat="44.8714" lon="1.8043">
        <ele>334.2</ele>
        <time>2021-08-16T15:47:55Z</time>
      </trkpt>
      <trkpt lat="44.87141" lon="1.80431">
        <ele>334.2</ele>
        <time>2021-08-16T15:48:06Z</time>
      </trkpt>
      <trkpt lat="44.8714" lon="1.80431">
        <ele>334.2</ele>
        <time>2021-08-16T15:48:18Z</time>
      </trkpt>
      <trkpt lat="44.8714" lon="1.8043">
        <ele>334.2</ele>
        <time>2021-08-16T15:48:28Z</time>
      </trkpt>
      <trkpt lat="44.87141" lon="1.80431">
        <ele>334.68</ele>
        <time>2021-08-16T15:48:37Z</time>
      </trkpt>
      <trkpt lat="44.8714" lon="1.80432">
        <ele>334.68</ele>
        <time>2021-08-16T15:48:48Z</time>
      </trkpt>
      <trkpt lat="44.8714" lon="1.80433">
        <ele>334.68</ele>
        <time>2021-08-16T15:48:57Z</time>
      </trkpt>
      <trkpt lat="44.87139" lon="1.80435">
        <ele>334.68</ele>
        <time>2021-08-16T15:49:12Z</time>
      </trkpt>
      <trkpt lat="44.87139" lon="1.80436">
        <ele>334.68</ele>
        <time>2021-08-16T15:49:29Z</time>
      </trkpt>
      <trkpt lat="44.8714" lon="1.80436">
        <ele>334.68</ele>
        <time>2021-08-16T15:49:45Z</time>
      </trkpt>
      <trkpt lat="44.8714" lon="1.80435">
        <ele>334.68</ele>
        <time>2021-08-16T15:49:55Z</time>
      </trkpt>
      <trkpt lat="44.8714" lon="1.80433">
        <ele>335.16</ele>
        <time>2021-08-16T15:50:11Z</time>
      </trkpt>
      <trkpt lat="44.8714" lon="1.80432">
        <ele>335.16</ele>
        <time>2021-08-16T15:50:25Z</time>
      </trkpt>
      <trkpt lat="44.87139" lon="1.8043">
        <ele>335.16</ele>
        <time>2021-08-16T15:50:38Z</time>
      </trkpt>
      <trkpt lat="44.87139" lon="1.80429">
        <ele>335.16</ele>
        <time>2021-08-16T15:50:48Z</time>
      </trkpt>
      <trkpt lat="44.87139" lon="1.8043">
        <ele>335.64</ele>
        <time>2021-08-16T15:51:04Z</time>
      </trkpt>
      <trkpt lat="44.8714" lon="1.80431">
        <ele>335.64</ele>
        <time>2021-08-16T15:51:16Z</time>
      </trkpt>
      <trkpt lat="44.87141" lon="1.80435">
        <ele>335.64</ele>
        <time>2021-08-16T15:51:29Z</time>
      </trkpt>
      <trkpt lat="44.87142" lon="1.80436">
        <ele>336.12</ele>
        <time>2021-08-16T15:51:40Z</time>
      </trkpt>
      <trkpt lat="44.87142" lon="1.80435">
        <ele>336.12</ele>
        <time>2021-08-16T15:51:52Z</time>
      </trkpt>
      <trkpt lat="44.87141" lon="1.80433">
        <ele>336.12</ele>
        <time>2021-08-16T15:52:06Z</time>
      </trkpt>
      <trkpt lat="44.87141" lon="1.80433">
        <ele>336.6</ele>
        <time>2021-08-16T15:52:19Z</time>
      </trkpt>
      <trkpt lat="44.87141" lon="1.80433">
        <ele>336.6</ele>
        <time>2021-08-16T15:52:31Z</time>
      </trkpt>
      <trkpt lat="44.87138" lon="1.80429">
        <ele>336.6</ele>
        <time>2021-08-16T15:52:46Z</time>
      </trkpt>
      <trkpt lat="44.87137" lon="1.80429">
        <ele>336.6</ele>
        <time>2021-08-16T15:52:59Z</time>
      </trkpt>
      <trkpt lat="44.87138" lon="1.8043">
        <ele>337.08</ele>
        <time>2021-08-16T15:53:13Z</time>
      </trkpt>
      <trkpt lat="44.87138" lon="1.80431">
        <ele>337.08</ele>
        <time>2021-08-16T15:53:28Z</time>
      </trkpt>
      <trkpt lat="44.87139" lon="1.80433">
        <ele>337.08</ele>
        <time>2021-08-16T15:53:40Z</time>
      </trkpt>
      <trkpt lat="44.87138" lon="1.80436">
        <ele>337.56</ele>
        <time>2021-08-16T15:53:59Z</time>
      </trkpt>
      <trkpt lat="44.87136" lon="1.80431">
        <ele>337.56</ele>
        <time>2021-08-16T15:54:16Z</time>
      </trkpt>
      <trkpt lat="44.87136" lon="1.8043">
        <ele>337.56</ele>
        <time>2021-08-16T15:54:34Z</time>
      </trkpt>
      <trkpt lat="44.87135" lon="1.80431">
        <ele>338.04</ele>
        <time>2021-08-16T15:54:49Z</time>
      </trkpt>
      <trkpt lat="44.87137" lon="1.8043">
        <ele>338.04</ele>
        <time>2021-08-16T15:55:01Z</time>
      </trkpt>
      <trkpt lat="44.87137" lon="1.80433">
        <ele>338.04</ele>
        <time>2021-08-16T15:55:16Z</time>
      </trkpt>
      <trkpt lat="44.87138" lon="1.80436">
        <ele>338.04</ele>
        <time>2021-08-16T15:55:32Z</time>
      </trkpt>
      <trkpt lat="44.87137" lon="1.80436">
        <ele>338.04</ele>
        <time>2021-08-16T15:55:44Z</time>
      </trkpt>
      <trkpt lat="44.87137" lon="1.80436">
        <ele>338.52</ele>
        <time>2021-08-16T15:56:00Z</time>
      </trkpt>
      <trkpt lat="44.87137" lon="1.80435">
        <ele>338.52</ele>
        <time>2021-08-16T15:56:14Z</time>
      </trkpt>
      <trkpt lat="44.87136" lon="1.80433">
        <ele>338.52</ele>
        <time>2021-08-16T15:56:25Z</time>
      </trkpt>
      <trkpt lat="44.87138" lon="1.80433">
        <ele>338.52</ele>
        <time>2021-08-16T15:56:38Z</time>
      </trkpt>
      <trkpt lat="44.87135" lon="1.80436">
        <ele>338.52</ele>
        <time>2021-08-16T15:56:54Z</time>
      </trkpt>
      <trkpt lat="44.87137" lon="1.80439">
        <ele>338.52</ele>
        <time>2021-08-16T15:57:13Z</time>
      </trkpt>
      <trkpt lat="44.87138" lon="1.8044">
        <ele>338.52</ele>
        <time>2021-08-16T15:57:28Z</time>
      </trkpt>
      <trkpt lat="44.87138" lon="1.8044">
        <ele>338.52</ele>
        <time>2021-08-16T15:57:39Z</time>
      </trkpt>
      <trkpt lat="44.87138" lon="1.80436">
        <ele>338.52</ele>
        <time>2021-08-16T15:57:52Z</time>
      </trkpt>
      <trkpt lat="44.87139" lon="1.80436">
        <ele>338.52</ele>
        <time>2021-08-16T15:58:04Z</time>
      </trkpt>
      <trkpt lat="44.87139" lon="1.80436">
        <ele>338.52</ele>
        <time>2021-08-16T15:58:14Z</time>
      </trkpt>
      <trkpt lat="44.87138" lon="1.80432">
        <ele>338.52</ele>
        <time>2021-08-16T15:58:26Z</time>
      </trkpt>
      <trkpt lat="44.87137" lon="1.80431">
        <ele>338.52</ele>
        <time>2021-08-16T15:58:37Z</time>
      </trkpt>
      <trkpt lat="44.87139" lon="1.80433">
        <ele>338.52</ele>
        <time>2021-08-16T15:58:50Z</time>
      </trkpt>
      <trkpt lat="44.87141" lon="1.80433">
        <ele>338.52</ele>
        <time>2021-08-16T15:59:02Z</time>
      </trkpt>
      <trkpt lat="44.87141" lon="1.80433">
        <ele>338.52</ele>
        <time>2021-08-16T15:59:14Z</time>
      </trkpt>
      <trkpt lat="44.8714" lon="1.80432">
        <ele>338.52</ele>
        <time>2021-08-16T15:59:22Z</time>
      </trkpt>
      <trkpt lat="44.87139" lon="1.80432">
        <ele>338.52</ele>
        <time>2021-08-16T15:59:28Z</time>
      </trkpt>
      <trkpt lat="44.87138" lon="1.80431">
        <ele>338.52</ele>
        <time>2021-08-16T15:59:30Z</time>
      </trkpt>
      <trkpt lat="44.87137" lon="1.80429">
        <ele>338.52</ele>
        <time>2021-08-16T15:59:31Z</time>
      </trkpt>
      <trkpt lat="44.87137" lon="1.80427">
        <ele>338.52</ele>
        <time>2021-08-16T15:59:32Z</time>
      </trkpt>
      <trkpt lat="44.87139" lon="1.80425">
        <ele>338.52</ele>
        <time>2021-08-16T15:59:33Z</time>
      </trkpt>
      <trkpt lat="44.8714" lon="1.80424">
        <ele>338.52</ele>
        <time>2021-08-16T15:59:34Z</time>
      </trkpt>
      <trkpt lat="44.87141" lon="1.80424">
        <ele>338.52</ele>
        <time>2021-08-16T15:59:35Z</time>
      </trkpt>
      <trkpt lat="44.87143" lon="1.80425">
        <ele>338.52</ele>
        <time>2021-08-16T15:59:36Z</time>
      </trkpt>
      <trkpt lat="44.87145" lon="1.80426">
        <ele>338.52</ele>
        <time>2021-08-16T15:59:37Z</time>
      </trkpt>
      <trkpt lat="44.87147" lon="1.80428">
        <ele>338.52</ele>
        <time>2021-08-16T15:59:38Z</time>
      </trkpt>
      <trkpt lat="44.87147" lon="1.80429">
        <ele>338.52</ele>
        <time>2021-08-16T15:59:39Z</time>
      </trkpt>
      <trkpt lat="44.87148" lon="1.8043">
        <ele>338.52</ele>
        <time>2021-08-16T15:59:40Z</time>
      </trkpt>
      <trkpt lat="44.87149" lon="1.80431">
        <ele>338.52</ele>
        <time>2021-08-16T15:59:41Z</time>
      </trkpt>
      <trkpt lat="44.87151" lon="1.80435">
        <ele>338.52</ele>
        <time>2021-08-16T15:59:45Z</time>
      </trkpt>
      <trkpt lat="44.87151" lon="1.80437">
        <ele>338.52</ele>
        <time>2021-08-16T15:59:46Z</time>
      </trkpt>
      <trkpt lat="44.87151" lon="1.80438">
        <ele>338.52</ele>
        <time>2021-08-16T15:59:47Z</time>
      </trkpt>
      <trkpt lat="44.87152" lon="1.8044">
        <ele>338.52</ele>
        <time>2021-08-16T15:59:48Z</time>
      </trkpt>
      <trkpt lat="44.87155" lon="1.80441">
        <ele>338.52</ele>
        <time>2021-08-16T15:59:53Z</time>
      </trkpt>
      <trkpt lat="44.87153" lon="1.80439">
        <ele>338.52</ele>
        <time>2021-08-16T15:59:58Z</time>
      </trkpt>
      <trkpt lat="44.87152" lon="1.80437">
        <ele>338.52</ele>
        <time>2021-08-16T15:59:59Z</time>
      </trkpt>
      <trkpt lat="44.87151" lon="1.80435">
        <ele>338.52</ele>
        <time>2021-08-16T16:00:00Z</time>
      </trkpt>
      <trkpt lat="44.87151" lon="1.80431">
        <ele>338.52</ele>
        <time>2021-08-16T16:00:01Z</time>
      </trkpt>
      <trkpt lat="44.87152" lon="1.80428">
        <ele>337.56</ele>
        <time>2021-08-16T16:00:02Z</time>
      </trkpt>
      <trkpt lat="44.87154" lon="1.80425">
        <ele>337.56</ele>
        <time>2021-08-16T16:00:03Z</time>
      </trkpt>
      <trkpt lat="44.87157" lon="1.80423">
        <ele>336.6</ele>
        <time>2021-08-16T16:00:04Z</time>
      </trkpt>
      <trkpt lat="44.8716" lon="1.80422">
        <ele>336.6</ele>
        <time>2021-08-16T16:00:05Z</time>
      </trkpt>
      <trkpt lat="44.87162" lon="1.80421">
        <ele>336.6</ele>
        <time>2021-08-16T16:00:06Z</time>
      </trkpt>
      <trkpt lat="44.87166" lon="1.80422">
        <ele>336.6</ele>
        <time>2021-08-16T16:00:07Z</time>
      </trkpt>
      <trkpt lat="44.87168" lon="1.80422">
        <ele>336.6</ele>
        <time>2021-08-16T16:00:08Z</time>
      </trkpt>
      <trkpt lat="44.87171" lon="1.80423">
        <ele>336.6</ele>
        <time>2021-08-16T16:00:09Z</time>
      </trkpt>
      <trkpt lat="44.87179" lon="1.80426">
        <ele>336.6</ele>
        <time>2021-08-16T16:00:12Z</time>
      </trkpt>
      <trkpt lat="44.87183" lon="1.80427">
        <ele>336.6</ele>
        <time>2021-08-16T16:00:13Z</time>
      </trkpt>
      <trkpt lat="44.87185" lon="1.80427">
        <ele>336.6</ele>
        <time>2021-08-16T16:00:14Z</time>
      </trkpt>
      <trkpt lat="44.87202" lon="1.80425">
        <ele>336.12</ele>
        <time>2021-08-16T16:00:20Z</time>
      </trkpt>
      <trkpt lat="44.87204" lon="1.80426">
        <ele>336.12</ele>
        <time>2021-08-16T16:00:21Z</time>
      </trkpt>
      <trkpt lat="44.87206" lon="1.80425">
        <ele>335.64</ele>
        <time>2021-08-16T16:00:22Z</time>
      </trkpt>
      <trkpt lat="44.87207" lon="1.80424">
        <ele>335.64</ele>
        <time>2021-08-16T16:00:23Z</time>
      </trkpt>
      <trkpt lat="44.87207" lon="1.80422">
        <ele>335.64</ele>
        <time>2021-08-16T16:00:24Z</time>
      </trkpt>
      <trkpt lat="44.87206" lon="1.8042">
        <ele>335.64</ele>
        <time>2021-08-16T16:00:25Z</time>
      </trkpt>
      <trkpt lat="44.87205" lon="1.8042">
        <ele>335.64</ele>
        <time>2021-08-16T16:00:26Z</time>
      </trkpt>
      <trkpt lat="44.87203" lon="1.8042">
        <ele>335.64</ele>
        <time>2021-08-16T16:00:27Z</time>
      </trkpt>
      <trkpt lat="44.87201" lon="1.8042">
        <ele>335.64</ele>
        <time>2021-08-16T16:00:28Z</time>
      </trkpt>
      <trkpt lat="44.872" lon="1.8042">
        <ele>335.64</ele>
        <time>2021-08-16T16:00:29Z</time>
      </trkpt>
      <trkpt lat="44.87198" lon="1.8042">
        <ele>335.64</ele>
        <time>2021-08-16T16:00:30Z</time>
      </trkpt>
      <trkpt lat="44.87197" lon="1.8042">
        <ele>335.64</ele>
        <time>2021-08-16T16:00:31Z</time>
      </trkpt>
      <trkpt lat="44.87191" lon="1.80421">
        <ele>335.64</ele>
        <time>2021-08-16T16:00:35Z</time>
      </trkpt>
      <trkpt lat="44.8719" lon="1.80421">
        <ele>335.64</ele>
        <time>2021-08-16T16:00:36Z</time>
      </trkpt>
      <trkpt lat="44.87188" lon="1.8042">
        <ele>335.64</ele>
        <time>2021-08-16T16:00:37Z</time>
      </trkpt>
      <trkpt lat="44.87187" lon="1.80419">
        <ele>335.64</ele>
        <time>2021-08-16T16:00:38Z</time>
      </trkpt>
      <trkpt lat="44.87185" lon="1.80418">
        <ele>335.64</ele>
        <time>2021-08-16T16:00:39Z</time>
      </trkpt>
      <trkpt lat="44.87182" lon="1.80417">
        <ele>335.64</ele>
        <time>2021-08-16T16:00:41Z</time>
      </trkpt>
      <trkpt lat="44.8718" lon="1.80418">
        <ele>335.64</ele>
        <time>2021-08-16T16:00:42Z</time>
      </trkpt>
      <trkpt lat="44.87177" lon="1.80418">
        <ele>335.64</ele>
        <time>2021-08-16T16:00:43Z</time>
      </trkpt>
      <trkpt lat="44.87156" lon="1.80412">
        <ele>335.64</ele>
        <time>2021-08-16T16:00:52Z</time>
      </trkpt>
      <trkpt lat="44.87139" lon="1.80396">
        <ele>335.64</ele>
        <time>2021-08-16T16:00:58Z</time>
      </trkpt>
      <trkpt lat="44.87123" lon="1.80374">
        <ele>335.64</ele>
        <time>2021-08-16T16:01:05Z</time>
      </trkpt>
      <trkpt lat="44.87113" lon="1.80358">
        <ele>335.64</ele>
        <time>2021-08-16T16:01:10Z</time>
      </trkpt>
      <trkpt lat="44.87109" lon="1.80348">
        <ele>335.64</ele>
        <time>2021-08-16T16:01:13Z</time>
      </trkpt>
      <trkpt lat="44.8711" lon="1.80346">
        <ele>335.64</ele>
        <time>2021-08-16T16:01:14Z</time>
      </trkpt>
      <trkpt lat="44.87112" lon="1.80344">
        <ele>335.64</ele>
        <time>2021-08-16T16:01:15Z</time>
      </trkpt>
      <trkpt lat="44.87119" lon="1.80338">
        <ele>335.64</ele>
        <time>2021-08-16T16:01:20Z</time>
      </trkpt>
      <trkpt lat="44.87119" lon="1.80338">
        <ele>337.08</ele>
        <time>2021-08-16T16:01:25Z</time>
      </trkpt>
      <trkpt lat="44.87117" lon="1.80337">
        <ele>337.08</ele>
        <time>2021-08-16T16:01:36Z</time>
      </trkpt>
      <trkpt lat="44.87115" lon="1.80337">
        <ele>337.08</ele>
        <time>2021-08-16T16:01:43Z</time>
      </trkpt>
      <trkpt lat="44.87114" lon="1.80338">
        <ele>337.08</ele>
        <time>2021-08-16T16:01:46Z</time>
      </trkpt>
      <trkpt lat="44.87113" lon="1.8034">
        <ele>337.08</ele>
        <time>2021-08-16T16:01:47Z</time>
      </trkpt>
      <trkpt lat="44.87112" lon="1.80342">
        <ele>337.08</ele>
        <time>2021-08-16T16:01:48Z</time>
      </trkpt>
      <trkpt lat="44.87111" lon="1.80343">
        <ele>337.08</ele>
        <time>2021-08-16T16:01:49Z</time>
      </trkpt>
      <trkpt lat="44.8711" lon="1.80344">
        <ele>337.08</ele>
        <time>2021-08-16T16:01:50Z</time>
      </trkpt>
      <trkpt lat="44.87108" lon="1.80346">
        <ele>336.6</ele>
        <time>2021-08-16T16:01:51Z</time>
      </trkpt>
      <trkpt lat="44.87106" lon="1.80347">
        <ele>336.6</ele>
        <time>2021-08-16T16:01:52Z</time>
      </trkpt>
      <trkpt lat="44.87104" lon="1.80347">
        <ele>336.6</ele>
        <time>2021-08-16T16:01:53Z</time>
      </trkpt>
      <trkpt lat="44.87101" lon="1.80345">
        <ele>336.6</ele>
        <time>2021-08-16T16:01:54Z</time>
      </trkpt>
      <trkpt lat="44.87099" lon="1.80343">
        <ele>336.6</ele>
        <time>2021-08-16T16:01:55Z</time>
      </trkpt>
      <trkpt lat="44.87098" lon="1.80339">
        <ele>336.6</ele>
        <time>2021-08-16T16:01:56Z</time>
      </trkpt>
      <trkpt lat="44.87096" lon="1.80336">
        <ele>336.6</ele>
        <time>2021-08-16T16:01:57Z</time>
      </trkpt>
      <trkpt lat="44.87093" lon="1.80333">
        <ele>336.6</ele>
        <time>2021-08-16T16:01:58Z</time>
      </trkpt>
      <trkpt lat="44.87082" lon="1.80315">
        <ele>337.56</ele>
        <time>2021-08-16T16:02:04Z</time>
      </trkpt>
      <trkpt lat="44.87066" lon="1.80297">
        <ele>339</ele>
        <time>2021-08-16T16:02:13Z</time>
      </trkpt>
      <trkpt lat="44.87053" lon="1.80285">
        <ele>340.44</ele>
        <time>2021-08-16T16:02:21Z</time>
      </trkpt>
      <trkpt lat="44.87037" lon="1.80274">
        <ele>341.41</ele>
        <time>2021-08-16T16:02:31Z</time>
      </trkpt>
      <trkpt lat="44.87021" lon="1.80259">
        <ele>343.81</ele>
        <time>2021-08-16T16:02:41Z</time>
      </trkpt>
      <trkpt lat="44.87005" lon="1.80238">
        <ele>345.73</ele>
        <time>2021-08-16T16:02:52Z</time>
      </trkpt>
      <trkpt lat="44.86997" lon="1.80216">
        <ele>346.21</ele>
        <time>2021-08-16T16:03:01Z</time>
      </trkpt>
      <trkpt lat="44.86998" lon="1.80194">
        <ele>347.17</ele>
        <time>2021-08-16T16:03:09Z</time>
      </trkpt>
      <trkpt lat="44.87001" lon="1.80168">
        <ele>348.62</ele>
        <time>2021-08-16T16:03:18Z</time>
      </trkpt>
      <trkpt lat="44.87003" lon="1.80138">
        <ele>349.1</ele>
        <time>2021-08-16T16:03:26Z</time>
      </trkpt>
      <trkpt lat="44.87002" lon="1.80094">
        <ele>349.58</ele>
        <time>2021-08-16T16:03:36Z</time>
      </trkpt>
      <trkpt lat="44.87" lon="1.80051">
        <ele>350.54</ele>
        <time>2021-08-16T16:03:46Z</time>
      </trkpt>
      <trkpt lat="44.86993" lon="1.8001">
        <ele>351.98</ele>
        <time>2021-08-16T16:03:56Z</time>
      </trkpt>
      <trkpt lat="44.86978" lon="1.79968">
        <ele>352.46</ele>
        <time>2021-08-16T16:04:07Z</time>
      </trkpt>
      <trkpt lat="44.86965" lon="1.79939">
        <ele>354.38</ele>
        <time>2021-08-16T16:04:16Z</time>
      </trkpt>
      <trkpt lat="44.86946" lon="1.79907">
        <ele>356.79</ele>
        <time>2021-08-16T16:04:27Z</time>
      </trkpt>
      <trkpt lat="44.8693" lon="1.79883">
        <ele>358.23</ele>
        <time>2021-08-16T16:04:36Z</time>
      </trkpt>
      <trkpt lat="44.86915" lon="1.79864">
        <ele>359.19</ele>
        <time>2021-08-16T16:04:45Z</time>
      </trkpt>
      <trkpt lat="44.86896" lon="1.79841">
        <ele>359.67</ele>
        <time>2021-08-16T16:04:54Z</time>
      </trkpt>
      <trkpt lat="44.86872" lon="1.79816">
        <ele>359.19</ele>
        <time>2021-08-16T16:05:02Z</time>
      </trkpt>
      <trkpt lat="44.8686" lon="1.79807">
        <ele>359.19</ele>
        <time>2021-08-16T16:05:05Z</time>
      </trkpt>
      <trkpt lat="44.86856" lon="1.79805">
        <ele>359.19</ele>
        <time>2021-08-16T16:05:06Z</time>
      </trkpt>
      <trkpt lat="44.86838" lon="1.79792">
        <ele>358.23</ele>
        <time>2021-08-16T16:05:10Z</time>
      </trkpt>
      <trkpt lat="44.86833" lon="1.79789">
        <ele>358.23</ele>
        <time>2021-08-16T16:05:11Z</time>
      </trkpt>
      <trkpt lat="44.86799" lon="1.79756">
        <ele>358.23</ele>
        <time>2021-08-16T16:05:20Z</time>
      </trkpt>
      <trkpt lat="44.86783" lon="1.79743">
        <ele>358.23</ele>
        <time>2021-08-16T16:05:24Z</time>
      </trkpt>
      <trkpt lat="44.8678" lon="1.7974">
        <ele>358.23</ele>
        <time>2021-08-16T16:05:25Z</time>
      </trkpt>
      <trkpt lat="44.86778" lon="1.79737">
        <ele>358.23</ele>
        <time>2021-08-16T16:05:26Z</time>
      </trkpt>
      <trkpt lat="44.86777" lon="1.79733">
        <ele>358.23</ele>
        <time>2021-08-16T16:05:27Z</time>
      </trkpt>
      <trkpt lat="44.86777" lon="1.7973">
        <ele>358.23</ele>
        <time>2021-08-16T16:05:28Z</time>
      </trkpt>
      <trkpt lat="44.86777" lon="1.79726">
        <ele>358.23</ele>
        <time>2021-08-16T16:05:29Z</time>
      </trkpt>
      <trkpt lat="44.86776" lon="1.79722">
        <ele>358.23</ele>
        <time>2021-08-16T16:05:30Z</time>
      </trkpt>
      <trkpt lat="44.86775" lon="1.79718">
        <ele>358.23</ele>
        <time>2021-08-16T16:05:31Z</time>
      </trkpt>
      <trkpt lat="44.86774" lon="1.79715">
        <ele>358.23</ele>
        <time>2021-08-16T16:05:32Z</time>
      </trkpt>
      <trkpt lat="44.86771" lon="1.79711">
        <ele>358.23</ele>
        <time>2021-08-16T16:05:33Z</time>
      </trkpt>
      <trkpt lat="44.86749" lon="1.79675">
        <ele>358.23</ele>
        <time>2021-08-16T16:05:40Z</time>
      </trkpt>
      <trkpt lat="44.86714" lon="1.79622">
        <ele>358.23</ele>
        <time>2021-08-16T16:05:50Z</time>
      </trkpt>
      <trkpt lat="44.86683" lon="1.79582">
        <ele>357.75</ele>
        <time>2021-08-16T16:05:58Z</time>
      </trkpt>
      <trkpt lat="44.86665" lon="1.79558">
        <ele>357.75</ele>
        <time>2021-08-16T16:06:03Z</time>
      </trkpt>
      <trkpt lat="44.86661" lon="1.79554">
        <ele>357.75</ele>
        <time>2021-08-16T16:06:04Z</time>
      </trkpt>
      <trkpt lat="44.86657" lon="1.79551">
        <ele>357.75</ele>
        <time>2021-08-16T16:06:05Z</time>
      </trkpt>
      <trkpt lat="44.86652" lon="1.79547">
        <ele>357.75</ele>
        <time>2021-08-16T16:06:06Z</time>
      </trkpt>
      <trkpt lat="44.86648" lon="1.79544">
        <ele>357.75</ele>
        <time>2021-08-16T16:06:07Z</time>
      </trkpt>
      <trkpt lat="44.86643" lon="1.79541">
        <ele>357.75</ele>
        <time>2021-08-16T16:06:08Z</time>
      </trkpt>
      <trkpt lat="44.86637" lon="1.79538">
        <ele>357.75</ele>
        <time>2021-08-16T16:06:09Z</time>
      </trkpt>
      <trkpt lat="44.86588" lon="1.79516">
        <ele>356.31</ele>
        <time>2021-08-16T16:06:18Z</time>
      </trkpt>
      <trkpt lat="44.86543" lon="1.79493">
        <ele>356.31</ele>
        <time>2021-08-16T16:06:27Z</time>
      </trkpt>
      <trkpt lat="44.86499" lon="1.79472">
        <ele>356.31</ele>
        <time>2021-08-16T16:06:36Z</time>
      </trkpt>
      <trkpt lat="44.86458" lon="1.79442">
        <ele>355.34</ele>
        <time>2021-08-16T16:06:45Z</time>
      </trkpt>
      <trkpt lat="44.86438" lon="1.79429">
        <ele>354.38</ele>
        <time>2021-08-16T16:06:49Z</time>
      </trkpt>
      <trkpt lat="44.86431" lon="1.79427">
        <ele>353.9</ele>
        <time>2021-08-16T16:06:50Z</time>
      </trkpt>
      <trkpt lat="44.86425" lon="1.79426">
        <ele>353.9</ele>
        <time>2021-08-16T16:06:51Z</time>
      </trkpt>
      <trkpt lat="44.86418" lon="1.79426">
        <ele>352.94</ele>
        <time>2021-08-16T16:06:52Z</time>
      </trkpt>
      <trkpt lat="44.86412" lon="1.79427">
        <ele>352.94</ele>
        <time>2021-08-16T16:06:53Z</time>
      </trkpt>
      <trkpt lat="44.86404" lon="1.79429">
        <ele>352.46</ele>
        <time>2021-08-16T16:06:54Z</time>
      </trkpt>
      <trkpt lat="44.86397" lon="1.7943">
        <ele>352.46</ele>
        <time>2021-08-16T16:06:55Z</time>
      </trkpt>
      <trkpt lat="44.8639" lon="1.7943">
        <ele>351.5</ele>
        <time>2021-08-16T16:06:56Z</time>
      </trkpt>
      <trkpt lat="44.86383" lon="1.79428">
        <ele>351.02</ele>
        <time>2021-08-16T16:06:57Z</time>
      </trkpt>
      <trkpt lat="44.86376" lon="1.79425">
        <ele>351.02</ele>
        <time>2021-08-16T16:06:58Z</time>
      </trkpt>
      <trkpt lat="44.86369" lon="1.7942">
        <ele>350.54</ele>
        <time>2021-08-16T16:06:59Z</time>
      </trkpt>
      <trkpt lat="44.86362" lon="1.79416">
        <ele>350.54</ele>
        <time>2021-08-16T16:07:00Z</time>
      </trkpt>
      <trkpt lat="44.86356" lon="1.79412">
        <ele>350.54</ele>
        <time>2021-08-16T16:07:01Z</time>
      </trkpt>
      <trkpt lat="44.8635" lon="1.79409">
        <ele>350.54</ele>
        <time>2021-08-16T16:07:02Z</time>
      </trkpt>
      <trkpt lat="44.86344" lon="1.79407">
        <ele>351.5</ele>
        <time>2021-08-16T16:07:03Z</time>
      </trkpt>
      <trkpt lat="44.86339" lon="1.79406">
        <ele>352.46</ele>
        <time>2021-08-16T16:07:04Z</time>
      </trkpt>
      <trkpt lat="44.86336" lon="1.79406">
        <ele>353.42</ele>
        <time>2021-08-16T16:07:05Z</time>
      </trkpt>
      <trkpt lat="44.86334" lon="1.79406">
        <ele>353.9</ele>
        <time>2021-08-16T16:07:06Z</time>
      </trkpt>
      <trkpt lat="44.86332" lon="1.79407">
        <ele>354.38</ele>
        <time>2021-08-16T16:07:07Z</time>
      </trkpt>
      <trkpt lat="44.8632" lon="1.7941">
        <ele>356.31</ele>
        <time>2021-08-16T16:07:15Z</time>
      </trkpt>
      <trkpt lat="44.86299" lon="1.79417">
        <ele>358.23</ele>
        <time>2021-08-16T16:07:24Z</time>
      </trkpt>
      <trkpt lat="44.86272" lon="1.79421">
        <ele>358.71</ele>
        <time>2021-08-16T16:07:33Z</time>
      </trkpt>
      <trkpt lat="44.86245" lon="1.79416">
        <ele>358.71</ele>
        <time>2021-08-16T16:07:41Z</time>
      </trkpt>
      <trkpt lat="44.86217" lon="1.79406">
        <ele>359.67</ele>
        <time>2021-08-16T16:07:50Z</time>
      </trkpt>
      <trkpt lat="44.862" lon="1.79402">
        <ele>361.59</ele>
        <time>2021-08-16T16:08:00Z</time>
      </trkpt>
      <trkpt lat="44.86194" lon="1.794">
        <ele>362.07</ele>
        <time>2021-08-16T16:08:03Z</time>
      </trkpt>
      <trkpt lat="44.86193" lon="1.794">
        <ele>362.07</ele>
        <time>2021-08-16T16:08:04Z</time>
      </trkpt>
      <trkpt lat="44.86192" lon="1.794">
        <ele>362.07</ele>
        <time>2021-08-16T16:08:05Z</time>
      </trkpt>
      <trkpt lat="44.8619" lon="1.79399">
        <ele>363.04</ele>
        <time>2021-08-16T16:08:06Z</time>
      </trkpt>
      <trkpt lat="44.86189" lon="1.79398">
        <ele>363.04</ele>
        <time>2021-08-16T16:08:07Z</time>
      </trkpt>
      <trkpt lat="44.86188" lon="1.79397">
        <ele>363.04</ele>
        <time>2021-08-16T16:08:08Z</time>
      </trkpt>
      <trkpt lat="44.86186" lon="1.79397">
        <ele>363.04</ele>
        <time>2021-08-16T16:08:09Z</time>
      </trkpt>
      <trkpt lat="44.86184" lon="1.79397">
        <ele>363.52</ele>
        <time>2021-08-16T16:08:10Z</time>
      </trkpt>
      <trkpt lat="44.86183" lon="1.79396">
        <ele>363.52</ele>
        <time>2021-08-16T16:08:11Z</time>
      </trkpt>
      <trkpt lat="44.86181" lon="1.79395">
        <ele>364</ele>
        <time>2021-08-16T16:08:12Z</time>
      </trkpt>
      <trkpt lat="44.8618" lon="1.79394">
        <ele>364</ele>
        <time>2021-08-16T16:08:13Z</time>
      </trkpt>
      <trkpt lat="44.86178" lon="1.79393">
        <ele>364.48</ele>
        <time>2021-08-16T16:08:14Z</time>
      </trkpt>
      <trkpt lat="44.86169" lon="1.79389">
        <ele>365.92</ele>
        <time>2021-08-16T16:08:20Z</time>
      </trkpt>
      <trkpt lat="44.86168" lon="1.79388">
        <ele>365.92</ele>
        <time>2021-08-16T16:08:21Z</time>
      </trkpt>
      <trkpt lat="44.86167" lon="1.79387">
        <ele>365.92</ele>
        <time>2021-08-16T16:08:22Z</time>
      </trkpt>
      <trkpt lat="44.86165" lon="1.79385">
        <ele>366.4</ele>
        <time>2021-08-16T16:08:23Z</time>
      </trkpt>
      <trkpt lat="44.86164" lon="1.79384">
        <ele>366.4</ele>
        <time>2021-08-16T16:08:24Z</time>
      </trkpt>
      <trkpt lat="44.86163" lon="1.79382">
        <ele>366.4</ele>
        <time>2021-08-16T16:08:25Z</time>
      </trkpt>
      <trkpt lat="44.86162" lon="1.79381">
        <ele>366.4</ele>
        <time>2021-08-16T16:08:26Z</time>
      </trkpt>
      <trkpt lat="44.8616" lon="1.7938">
        <ele>366.88</ele>
        <time>2021-08-16T16:08:27Z</time>
      </trkpt>
      <trkpt lat="44.86145" lon="1.79356">
        <ele>368.32</ele>
        <time>2021-08-16T16:08:39Z</time>
      </trkpt>
      <trkpt lat="44.86138" lon="1.79337">
        <ele>369.76</ele>
        <time>2021-08-16T16:08:47Z</time>
      </trkpt>
      <trkpt lat="44.86132" lon="1.7932">
        <ele>371.21</ele>
        <time>2021-08-16T16:08:55Z</time>
      </trkpt>
      <trkpt lat="44.86126" lon="1.79304">
        <ele>372.17</ele>
        <time>2021-08-16T16:09:03Z</time>
      </trkpt>
      <trkpt lat="44.86114" lon="1.79288">
        <ele>373.61</ele>
        <time>2021-08-16T16:09:13Z</time>
      </trkpt>
      <trkpt lat="44.86099" lon="1.79273">
        <ele>374.57</ele>
        <time>2021-08-16T16:09:22Z</time>
      </trkpt>
      <trkpt lat="44.86076" lon="1.79256">
        <ele>374.57</ele>
        <time>2021-08-16T16:09:30Z</time>
      </trkpt>
      <trkpt lat="44.86048" lon="1.79237">
        <ele>375.05</ele>
        <time>2021-08-16T16:09:39Z</time>
      </trkpt>
      <trkpt lat="44.86025" lon="1.79226">
        <ele>376.01</ele>
        <time>2021-08-16T16:09:46Z</time>
      </trkpt>
      <trkpt lat="44.86003" lon="1.79222">
        <ele>376.97</ele>
        <time>2021-08-16T16:09:53Z</time>
      </trkpt>
      <trkpt lat="44.85979" lon="1.79219">
        <ele>378.9</ele>
        <time>2021-08-16T16:10:01Z</time>
      </trkpt>
      <trkpt lat="44.85958" lon="1.79214">
        <ele>379.38</ele>
        <time>2021-08-16T16:10:08Z</time>
      </trkpt>
      <trkpt lat="44.85923" lon="1.79209">
        <ele>380.34</ele>
        <time>2021-08-16T16:10:19Z</time>
      </trkpt>
      <trkpt lat="44.85893" lon="1.79204">
        <ele>380.34</ele>
        <time>2021-08-16T16:10:28Z</time>
      </trkpt>
      <trkpt lat="44.85866" lon="1.79199">
        <ele>381.3</ele>
        <time>2021-08-16T16:10:36Z</time>
      </trkpt>
      <trkpt lat="44.85839" lon="1.79189">
        <ele>382.26</ele>
        <time>2021-08-16T16:10:44Z</time>
      </trkpt>
      <trkpt lat="44.85824" lon="1.79178">
        <ele>383.7</ele>
        <time>2021-08-16T16:10:52Z</time>
      </trkpt>
      <trkpt lat="44.85803" lon="1.79166">
        <ele>386.11</ele>
        <time>2021-08-16T16:11:01Z</time>
      </trkpt>
      <trkpt lat="44.85782" lon="1.79154">
        <ele>387.07</ele>
        <time>2021-08-16T16:11:10Z</time>
      </trkpt>
      <trkpt lat="44.85779" lon="1.79151">
        <ele>387.55</ele>
        <time>2021-08-16T16:11:16Z</time>
      </trkpt>
      <trkpt lat="44.85779" lon="1.7915">
        <ele>387.55</ele>
        <time>2021-08-16T16:11:26Z</time>
      </trkpt>
      <trkpt lat="44.85764" lon="1.79142">
        <ele>387.55</ele>
        <time>2021-08-16T16:11:32Z</time>
      </trkpt>
      <trkpt lat="44.85731" lon="1.79119">
        <ele>387.55</ele>
        <time>2021-08-16T16:11:41Z</time>
      </trkpt>
      <trkpt lat="44.85695" lon="1.79094">
        <ele>387.55</ele>
        <time>2021-08-16T16:11:50Z</time>
      </trkpt>
      <trkpt lat="44.85672" lon="1.7908">
        <ele>388.99</ele>
        <time>2021-08-16T16:11:57Z</time>
      </trkpt>
      <trkpt lat="44.85655" lon="1.79071">
        <ele>390.43</ele>
        <time>2021-08-16T16:12:05Z</time>
      </trkpt>
      <trkpt lat="44.85641" lon="1.79065">
        <ele>392.84</ele>
        <time>2021-08-16T16:12:13Z</time>
      </trkpt>
      <trkpt lat="44.85622" lon="1.79055">
        <ele>393.8</ele>
        <time>2021-08-16T16:12:21Z</time>
      </trkpt>
      <trkpt lat="44.85598" lon="1.79043">
        <ele>394.28</ele>
        <time>2021-08-16T16:12:29Z</time>
      </trkpt>
      <trkpt lat="44.85585" lon="1.79039">
        <ele>394.28</ele>
        <time>2021-08-16T16:12:32Z</time>
      </trkpt>
      <trkpt lat="44.85581" lon="1.79037">
        <ele>392.84</ele>
        <time>2021-08-16T16:12:33Z</time>
      </trkpt>
      <trkpt lat="44.85577" lon="1.79033">
        <ele>392.36</ele>
        <time>2021-08-16T16:12:34Z</time>
      </trkpt>
      <trkpt lat="44.85573" lon="1.79029">
        <ele>391.39</ele>
        <time>2021-08-16T16:12:35Z</time>
      </trkpt>
      <trkpt lat="44.85569" lon="1.79024">
        <ele>391.39</ele>
        <time>2021-08-16T16:12:36Z</time>
      </trkpt>
      <trkpt lat="44.85544" lon="1.78992">
        <ele>388.03</ele>
        <time>2021-08-16T16:12:41Z</time>
      </trkpt>
      <trkpt lat="44.85526" lon="1.78966">
        <ele>383.7</ele>
        <time>2021-08-16T16:12:44Z</time>
      </trkpt>
      <trkpt lat="44.85496" lon="1.78921">
        <ele>379.38</ele>
        <time>2021-08-16T16:12:48Z</time>
      </trkpt>
      <trkpt lat="44.85489" lon="1.78911">
        <ele>377.94</ele>
        <time>2021-08-16T16:12:49Z</time>
      </trkpt>
      <trkpt lat="44.85479" lon="1.789">
        <ele>376.01</ele>
        <time>2021-08-16T16:12:50Z</time>
      </trkpt>
      <trkpt lat="44.8547" lon="1.78891">
        <ele>375.05</ele>
        <time>2021-08-16T16:12:51Z</time>
      </trkpt>
      <trkpt lat="44.85461" lon="1.7888">
        <ele>375.05</ele>
        <time>2021-08-16T16:12:52Z</time>
      </trkpt>
      <trkpt lat="44.85453" lon="1.7887">
        <ele>374.57</ele>
        <time>2021-08-16T16:12:53Z</time>
      </trkpt>
      <trkpt lat="44.85438" lon="1.78853">
        <ele>377.45</ele>
        <time>2021-08-16T16:12:55Z</time>
      </trkpt>
      <trkpt lat="44.85429" lon="1.78847">
        <ele>377.45</ele>
        <time>2021-08-16T16:12:56Z</time>
      </trkpt>
      <trkpt lat="44.85423" lon="1.78844">
        <ele>377.94</ele>
        <time>2021-08-16T16:12:57Z</time>
      </trkpt>
      <trkpt lat="44.85415" lon="1.78842">
        <ele>377.94</ele>
        <time>2021-08-16T16:12:58Z</time>
      </trkpt>
      <trkpt lat="44.85408" lon="1.7884">
        <ele>377.94</ele>
        <time>2021-08-16T16:12:59Z</time>
      </trkpt>
      <trkpt lat="44.85401" lon="1.7884">
        <ele>377.94</ele>
        <time>2021-08-16T16:13:00Z</time>
      </trkpt>
      <trkpt lat="44.85395" lon="1.7884">
        <ele>377.94</ele>
        <time>2021-08-16T16:13:01Z</time>
      </trkpt>
      <trkpt lat="44.85381" lon="1.78838">
        <ele>377.94</ele>
        <time>2021-08-16T16:13:03Z</time>
      </trkpt>
      <trkpt lat="44.85377" lon="1.78836">
        <ele>377.94</ele>
        <time>2021-08-16T16:13:04Z</time>
      </trkpt>
      <trkpt lat="44.85371" lon="1.78831">
        <ele>377.94</ele>
        <time>2021-08-16T16:13:05Z</time>
      </trkpt>
      <trkpt lat="44.85367" lon="1.78825">
        <ele>377.94</ele>
        <time>2021-08-16T16:13:06Z</time>
      </trkpt>
      <trkpt lat="44.85362" lon="1.78817">
        <ele>377.94</ele>
        <time>2021-08-16T16:13:07Z</time>
      </trkpt>
      <trkpt lat="44.85359" lon="1.78809">
        <ele>377.94</ele>
        <time>2021-08-16T16:13:08Z</time>
      </trkpt>
      <trkpt lat="44.85356" lon="1.78799">
        <ele>377.94</ele>
        <time>2021-08-16T16:13:09Z</time>
      </trkpt>
      <trkpt lat="44.85352" lon="1.78783">
        <ele>376.49</ele>
        <time>2021-08-16T16:13:11Z</time>
      </trkpt>
      <trkpt lat="44.85347" lon="1.78767">
        <ele>379.86</ele>
        <time>2021-08-16T16:13:15Z</time>
      </trkpt>
      <trkpt lat="44.85343" lon="1.78758">
        <ele>381.3</ele>
        <time>2021-08-16T16:13:22Z</time>
      </trkpt>
      <trkpt lat="44.85338" lon="1.78742">
        <ele>383.22</ele>
        <time>2021-08-16T16:13:32Z</time>
      </trkpt>
      <trkpt lat="44.85334" lon="1.7873">
        <ele>384.66</ele>
        <time>2021-08-16T16:13:39Z</time>
      </trkpt>
      <trkpt lat="44.85333" lon="1.78725">
        <ele>384.66</ele>
        <time>2021-08-16T16:13:42Z</time>
      </trkpt>
      <trkpt lat="44.85332" lon="1.78722">
        <ele>385.63</ele>
        <time>2021-08-16T16:13:44Z</time>
      </trkpt>
      <trkpt lat="44.85332" lon="1.78721">
        <ele>385.63</ele>
        <time>2021-08-16T16:13:45Z</time>
      </trkpt>
      <trkpt lat="44.8533" lon="1.7871">
        <ele>386.59</ele>
        <time>2021-08-16T16:13:52Z</time>
      </trkpt>
      <trkpt lat="44.85328" lon="1.78706">
        <ele>387.55</ele>
        <time>2021-08-16T16:13:55Z</time>
      </trkpt>
      <trkpt lat="44.85327" lon="1.78704">
        <ele>387.55</ele>
        <time>2021-08-16T16:13:56Z</time>
      </trkpt>
      <trkpt lat="44.85327" lon="1.78703">
        <ele>387.55</ele>
        <time>2021-08-16T16:13:57Z</time>
      </trkpt>
      <trkpt lat="44.85326" lon="1.78701">
        <ele>387.55</ele>
        <time>2021-08-16T16:13:58Z</time>
      </trkpt>
      <trkpt lat="44.85325" lon="1.78699">
        <ele>388.03</ele>
        <time>2021-08-16T16:13:59Z</time>
      </trkpt>
      <trkpt lat="44.85325" lon="1.78697">
        <ele>388.03</ele>
        <time>2021-08-16T16:14:00Z</time>
      </trkpt>
      <trkpt lat="44.85318" lon="1.78683">
        <ele>389.47</ele>
        <time>2021-08-16T16:14:10Z</time>
      </trkpt>
      <trkpt lat="44.85317" lon="1.78682">
        <ele>389.95</ele>
        <time>2021-08-16T16:14:11Z</time>
      </trkpt>
      <trkpt lat="44.85316" lon="1.78681">
        <ele>389.95</ele>
        <time>2021-08-16T16:14:12Z</time>
      </trkpt>
      <trkpt lat="44.85303" lon="1.78674">
        <ele>391.39</ele>
        <time>2021-08-16T16:14:22Z</time>
      </trkpt>
      <trkpt lat="44.85287" lon="1.78675">
        <ele>392.84</ele>
        <time>2021-08-16T16:14:31Z</time>
      </trkpt>
      <trkpt lat="44.85265" lon="1.78674">
        <ele>393.8</ele>
        <time>2021-08-16T16:14:41Z</time>
      </trkpt>
      <trkpt lat="44.85249" lon="1.78662">
        <ele>395.24</ele>
        <time>2021-08-16T16:14:50Z</time>
      </trkpt>
      <trkpt lat="44.85234" lon="1.78647">
        <ele>396.2</ele>
        <time>2021-08-16T16:14:58Z</time>
      </trkpt>
      <trkpt lat="44.85232" lon="1.78644">
        <ele>396.2</ele>
        <time>2021-08-16T16:14:59Z</time>
      </trkpt>
      <trkpt lat="44.85231" lon="1.78642">
        <ele>396.2</ele>
        <time>2021-08-16T16:15:00Z</time>
      </trkpt>
      <trkpt lat="44.85229" lon="1.7864">
        <ele>396.2</ele>
        <time>2021-08-16T16:15:01Z</time>
      </trkpt>
      <trkpt lat="44.85213" lon="1.78627">
        <ele>396.68</ele>
        <time>2021-08-16T16:15:08Z</time>
      </trkpt>
      <trkpt lat="44.85211" lon="1.78624">
        <ele>396.68</ele>
        <time>2021-08-16T16:15:09Z</time>
      </trkpt>
      <trkpt lat="44.85211" lon="1.7862">
        <ele>396.68</ele>
        <time>2021-08-16T16:15:10Z</time>
      </trkpt>
      <trkpt lat="44.85211" lon="1.78616">
        <ele>396.68</ele>
        <time>2021-08-16T16:15:11Z</time>
      </trkpt>
      <trkpt lat="44.85212" lon="1.78612">
        <ele>396.68</ele>
        <time>2021-08-16T16:15:12Z</time>
      </trkpt>
      <trkpt lat="44.85213" lon="1.78607">
        <ele>396.68</ele>
        <time>2021-08-16T16:15:13Z</time>
      </trkpt>
      <trkpt lat="44.85215" lon="1.78604">
        <ele>396.68</ele>
        <time>2021-08-16T16:15:14Z</time>
      </trkpt>
      <trkpt lat="44.85217" lon="1.786">
        <ele>396.68</ele>
        <time>2021-08-16T16:15:15Z</time>
      </trkpt>
      <trkpt lat="44.85234" lon="1.78577">
        <ele>395.72</ele>
        <time>2021-08-16T16:15:21Z</time>
      </trkpt>
      <trkpt lat="44.85264" lon="1.78552">
        <ele>393.32</ele>
        <time>2021-08-16T16:15:28Z</time>
      </trkpt>
      <trkpt lat="44.8529" lon="1.7853">
        <ele>392.36</ele>
        <time>2021-08-16T16:15:33Z</time>
      </trkpt>
      <trkpt lat="44.85319" lon="1.78499">
        <ele>389.95</ele>
        <time>2021-08-16T16:15:38Z</time>
      </trkpt>
      <trkpt lat="44.85323" lon="1.78491">
        <ele>389.95</ele>
        <time>2021-08-16T16:15:39Z</time>
      </trkpt>
      <trkpt lat="44.85326" lon="1.78482">
        <ele>388.99</ele>
        <time>2021-08-16T16:15:40Z</time>
      </trkpt>
      <trkpt lat="44.85328" lon="1.78471">
        <ele>388.99</ele>
        <time>2021-08-16T16:15:41Z</time>
      </trkpt>
      <trkpt lat="44.8533" lon="1.78461">
        <ele>388.03</ele>
        <time>2021-08-16T16:15:42Z</time>
      </trkpt>
      <trkpt lat="44.85331" lon="1.7845">
        <ele>388.03</ele>
        <time>2021-08-16T16:15:43Z</time>
      </trkpt>
      <trkpt lat="44.85332" lon="1.7844">
        <ele>387.55</ele>
        <time>2021-08-16T16:15:44Z</time>
      </trkpt>
      <trkpt lat="44.8533" lon="1.78355">
        <ele>385.63</ele>
        <time>2021-08-16T16:15:52Z</time>
      </trkpt>
      <trkpt lat="44.8533" lon="1.78327">
        <ele>384.66</ele>
        <time>2021-08-16T16:15:55Z</time>
      </trkpt>
      <trkpt lat="44.85328" lon="1.7832">
        <ele>384.66</ele>
        <time>2021-08-16T16:15:56Z</time>
      </trkpt>
      <trkpt lat="44.85326" lon="1.78314">
        <ele>384.66</ele>
        <time>2021-08-16T16:15:57Z</time>
      </trkpt>
      <trkpt lat="44.85317" lon="1.78298">
        <ele>384.66</ele>
        <time>2021-08-16T16:16:00Z</time>
      </trkpt>
      <trkpt lat="44.8529" lon="1.78257">
        <ele>386.11</ele>
        <time>2021-08-16T16:16:10Z</time>
      </trkpt>
      <trkpt lat="44.85278" lon="1.78232">
        <ele>388.03</ele>
        <time>2021-08-16T16:16:17Z</time>
      </trkpt>
      <trkpt lat="44.85271" lon="1.78209">
        <ele>388.51</ele>
        <time>2021-08-16T16:16:24Z</time>
      </trkpt>
      <trkpt lat="44.8526" lon="1.78177">
        <ele>390.91</ele>
        <time>2021-08-16T16:16:35Z</time>
      </trkpt>
      <trkpt lat="44.85246" lon="1.78156">
        <ele>392.36</ele>
        <time>2021-08-16T16:16:45Z</time>
      </trkpt>
      <trkpt lat="44.85227" lon="1.78145">
        <ele>393.8</ele>
        <time>2021-08-16T16:16:55Z</time>
      </trkpt>
      <trkpt lat="44.8521" lon="1.78142">
        <ele>394.76</ele>
        <time>2021-08-16T16:17:03Z</time>
      </trkpt>
      <trkpt lat="44.8519" lon="1.78146">
        <ele>396.2</ele>
        <time>2021-08-16T16:17:12Z</time>
      </trkpt>
      <trkpt lat="44.85171" lon="1.7816">
        <ele>397.16</ele>
        <time>2021-08-16T16:17:22Z</time>
      </trkpt>
      <trkpt lat="44.85152" lon="1.78175">
        <ele>398.6</ele>
        <time>2021-08-16T16:17:32Z</time>
      </trkpt>
      <trkpt lat="44.85127" lon="1.78189">
        <ele>400.05</ele>
        <time>2021-08-16T16:17:43Z</time>
      </trkpt>
      <trkpt lat="44.85104" lon="1.782">
        <ele>401.49</ele>
        <time>2021-08-16T16:17:52Z</time>
      </trkpt>
      <trkpt lat="44.85077" lon="1.78216">
        <ele>402.45</ele>
        <time>2021-08-16T16:18:01Z</time>
      </trkpt>
      <trkpt lat="44.85059" lon="1.78238">
        <ele>403.89</ele>
        <time>2021-08-16T16:18:09Z</time>
      </trkpt>
      <trkpt lat="44.85045" lon="1.78239">
        <ele>404.85</ele>
        <time>2021-08-16T16:18:16Z</time>
      </trkpt>
      <trkpt lat="44.85032" lon="1.78219">
        <ele>406.29</ele>
        <time>2021-08-16T16:18:25Z</time>
      </trkpt>
      <trkpt lat="44.8503" lon="1.78194">
        <ele>406.77</ele>
        <time>2021-08-16T16:18:31Z</time>
      </trkpt>
      <trkpt lat="44.85036" lon="1.78162">
        <ele>406.77</ele>
        <time>2021-08-16T16:18:37Z</time>
      </trkpt>
      <trkpt lat="44.85043" lon="1.78111">
        <ele>407.74</ele>
        <time>2021-08-16T16:18:47Z</time>
      </trkpt>
      <trkpt lat="44.85051" lon="1.7806">
        <ele>408.7</ele>
        <time>2021-08-16T16:18:58Z</time>
      </trkpt>
      <trkpt lat="44.85056" lon="1.7803">
        <ele>409.18</ele>
        <time>2021-08-16T16:19:04Z</time>
      </trkpt>
      <trkpt lat="44.85067" lon="1.77978">
        <ele>409.66</ele>
        <time>2021-08-16T16:19:14Z</time>
      </trkpt>
      <trkpt lat="44.85072" lon="1.7796">
        <ele>409.66</ele>
        <time>2021-08-16T16:19:17Z</time>
      </trkpt>
      <trkpt lat="44.85074" lon="1.77955">
        <ele>409.66</ele>
        <time>2021-08-16T16:19:18Z</time>
      </trkpt>
      <trkpt lat="44.85076" lon="1.77948">
        <ele>409.66</ele>
        <time>2021-08-16T16:19:19Z</time>
      </trkpt>
      <trkpt lat="44.85091" lon="1.77878">
        <ele>407.74</ele>
        <time>2021-08-16T16:19:29Z</time>
      </trkpt>
      <trkpt lat="44.85107" lon="1.77796">
        <ele>406.77</ele>
        <time>2021-08-16T16:19:40Z</time>
      </trkpt>
      <trkpt lat="44.85119" lon="1.77746">
        <ele>406.29</ele>
        <time>2021-08-16T16:19:47Z</time>
      </trkpt>
      <trkpt lat="44.85135" lon="1.77688">
        <ele>404.37</ele>
        <time>2021-08-16T16:19:55Z</time>
      </trkpt>
      <trkpt lat="44.85138" lon="1.7768">
        <ele>403.89</ele>
        <time>2021-08-16T16:19:56Z</time>
      </trkpt>
      <trkpt lat="44.85155" lon="1.7764">
        <ele>401.97</ele>
        <time>2021-08-16T16:20:01Z</time>
      </trkpt>
      <trkpt lat="44.85162" lon="1.77623">
        <ele>400.53</ele>
        <time>2021-08-16T16:20:03Z</time>
      </trkpt>
      <trkpt lat="44.85167" lon="1.77615">
        <ele>400.53</ele>
        <time>2021-08-16T16:20:04Z</time>
      </trkpt>
      <trkpt lat="44.85196" lon="1.77562">
        <ele>400.05</ele>
        <time>2021-08-16T16:20:11Z</time>
      </trkpt>
      <trkpt lat="44.8521" lon="1.77524">
        <ele>400.53</ele>
        <time>2021-08-16T16:20:17Z</time>
      </trkpt>
      <trkpt lat="44.85221" lon="1.77456">
        <ele>401.49</ele>
        <time>2021-08-16T16:20:27Z</time>
      </trkpt>
      <trkpt lat="44.85222" lon="1.7745">
        <ele>401.49</ele>
        <time>2021-08-16T16:20:28Z</time>
      </trkpt>
      <trkpt lat="44.85224" lon="1.77439">
        <ele>401.49</ele>
        <time>2021-08-16T16:20:30Z</time>
      </trkpt>
      <trkpt lat="44.85237" lon="1.774">
        <ele>401.97</ele>
        <time>2021-08-16T16:20:37Z</time>
      </trkpt>
      <trkpt lat="44.85257" lon="1.77349">
        <ele>401.97</ele>
        <time>2021-08-16T16:20:46Z</time>
      </trkpt>
      <trkpt lat="44.85281" lon="1.77307">
        <ele>402.45</ele>
        <time>2021-08-16T16:20:54Z</time>
      </trkpt>
      <trkpt lat="44.85308" lon="1.77258">
        <ele>402.45</ele>
        <time>2021-08-16T16:21:03Z</time>
      </trkpt>
      <trkpt lat="44.85334" lon="1.77209">
        <ele>400.05</ele>
        <time>2021-08-16T16:21:11Z</time>
      </trkpt>
      <trkpt lat="44.85343" lon="1.77185">
        <ele>400.53</ele>
        <time>2021-08-16T16:21:15Z</time>
      </trkpt>
      <trkpt lat="44.85345" lon="1.77179">
        <ele>400.53</ele>
        <time>2021-08-16T16:21:16Z</time>
      </trkpt>
      <trkpt lat="44.85346" lon="1.77172">
        <ele>400.53</ele>
        <time>2021-08-16T16:21:17Z</time>
      </trkpt>
      <trkpt lat="44.85347" lon="1.77165">
        <ele>400.53</ele>
        <time>2021-08-16T16:21:18Z</time>
      </trkpt>
      <trkpt lat="44.85348" lon="1.77158">
        <ele>400.53</ele>
        <time>2021-08-16T16:21:19Z</time>
      </trkpt>
      <trkpt lat="44.85348" lon="1.77152">
        <ele>400.53</ele>
        <time>2021-08-16T16:21:20Z</time>
      </trkpt>
      <trkpt lat="44.85351" lon="1.77102">
        <ele>401.49</ele>
        <time>2021-08-16T16:21:28Z</time>
      </trkpt>
      <trkpt lat="44.85356" lon="1.77039">
        <ele>401.49</ele>
        <time>2021-08-16T16:21:37Z</time>
      </trkpt>
      <trkpt lat="44.85358" lon="1.76997">
        <ele>400.05</ele>
        <time>2021-08-16T16:21:43Z</time>
      </trkpt>
      <trkpt lat="44.85359" lon="1.7699">
        <ele>400.05</ele>
        <time>2021-08-16T16:21:44Z</time>
      </trkpt>
      <trkpt lat="44.8536" lon="1.76982">
        <ele>400.05</ele>
        <time>2021-08-16T16:21:45Z</time>
      </trkpt>
      <trkpt lat="44.85376" lon="1.76888">
        <ele>398.6</ele>
        <time>2021-08-16T16:21:57Z</time>
      </trkpt>
      <trkpt lat="44.8538" lon="1.76829">
        <ele>398.12</ele>
        <time>2021-08-16T16:22:04Z</time>
      </trkpt>
      <trkpt lat="44.85382" lon="1.76806">
        <ele>398.12</ele>
        <time>2021-08-16T16:22:07Z</time>
      </trkpt>
      <trkpt lat="44.85383" lon="1.76798">
        <ele>398.12</ele>
        <time>2021-08-16T16:22:08Z</time>
      </trkpt>
      <trkpt lat="44.85383" lon="1.76791">
        <ele>398.12</ele>
        <time>2021-08-16T16:22:09Z</time>
      </trkpt>
      <trkpt lat="44.85384" lon="1.76776">
        <ele>398.12</ele>
        <time>2021-08-16T16:22:11Z</time>
      </trkpt>
      <trkpt lat="44.85385" lon="1.76762">
        <ele>398.12</ele>
        <time>2021-08-16T16:22:13Z</time>
      </trkpt>
      <trkpt lat="44.8539" lon="1.76726">
        <ele>398.12</ele>
        <time>2021-08-16T16:22:18Z</time>
      </trkpt>
      <trkpt lat="44.85403" lon="1.76656">
        <ele>397.64</ele>
        <time>2021-08-16T16:22:27Z</time>
      </trkpt>
      <trkpt lat="44.85408" lon="1.76625">
        <ele>397.64</ele>
        <time>2021-08-16T16:22:31Z</time>
      </trkpt>
      <trkpt lat="44.85411" lon="1.76602">
        <ele>397.64</ele>
        <time>2021-08-16T16:22:34Z</time>
      </trkpt>
      <trkpt lat="44.85413" lon="1.76579">
        <ele>397.64</ele>
        <time>2021-08-16T16:22:37Z</time>
      </trkpt>
      <trkpt lat="44.85419" lon="1.76545">
        <ele>397.64</ele>
        <time>2021-08-16T16:22:42Z</time>
      </trkpt>
      <trkpt lat="44.8542" lon="1.76538">
        <ele>397.64</ele>
        <time>2021-08-16T16:22:43Z</time>
      </trkpt>
      <trkpt lat="44.85419" lon="1.76531">
        <ele>397.64</ele>
        <time>2021-08-16T16:22:44Z</time>
      </trkpt>
      <trkpt lat="44.85418" lon="1.76524">
        <ele>397.64</ele>
        <time>2021-08-16T16:22:45Z</time>
      </trkpt>
      <trkpt lat="44.85415" lon="1.7652">
        <ele>397.64</ele>
        <time>2021-08-16T16:22:46Z</time>
      </trkpt>
      <trkpt lat="44.85412" lon="1.76515">
        <ele>396.2</ele>
        <time>2021-08-16T16:22:47Z</time>
      </trkpt>
      <trkpt lat="44.85409" lon="1.7651">
        <ele>396.2</ele>
        <time>2021-08-16T16:22:48Z</time>
      </trkpt>
      <trkpt lat="44.854" lon="1.76494">
        <ele>394.28</ele>
        <time>2021-08-16T16:22:51Z</time>
      </trkpt>
      <trkpt lat="44.85397" lon="1.76487">
        <ele>393.8</ele>
        <time>2021-08-16T16:22:52Z</time>
      </trkpt>
      <trkpt lat="44.85384" lon="1.76466">
        <ele>390.43</ele>
        <time>2021-08-16T16:22:55Z</time>
      </trkpt>
      <trkpt lat="44.85364" lon="1.76434">
        <ele>387.55</ele>
        <time>2021-08-16T16:22:59Z</time>
      </trkpt>
      <trkpt lat="44.85347" lon="1.76412">
        <ele>384.18</ele>
        <time>2021-08-16T16:23:03Z</time>
      </trkpt>
      <trkpt lat="44.85341" lon="1.76399">
        <ele>382.74</ele>
        <time>2021-08-16T16:23:06Z</time>
      </trkpt>
      <trkpt lat="44.85334" lon="1.76371">
        <ele>379.38</ele>
        <time>2021-08-16T16:23:10Z</time>
      </trkpt>
      <trkpt lat="44.85323" lon="1.76323">
        <ele>376.01</ele>
        <time>2021-08-16T16:23:15Z</time>
      </trkpt>
      <trkpt lat="44.8532" lon="1.76314">
        <ele>376.01</ele>
        <time>2021-08-16T16:23:16Z</time>
      </trkpt>
      <trkpt lat="44.85314" lon="1.76297">
        <ele>374.57</ele>
        <time>2021-08-16T16:23:18Z</time>
      </trkpt>
      <trkpt lat="44.85303" lon="1.76272">
        <ele>371.69</ele>
        <time>2021-08-16T16:23:21Z</time>
      </trkpt>
      <trkpt lat="44.85291" lon="1.76247">
        <ele>370.73</ele>
        <time>2021-08-16T16:23:24Z</time>
      </trkpt>
      <trkpt lat="44.85286" lon="1.7624">
        <ele>369.76</ele>
        <time>2021-08-16T16:23:25Z</time>
      </trkpt>
      <trkpt lat="44.85277" lon="1.76225">
        <ele>369.28</ele>
        <time>2021-08-16T16:23:27Z</time>
      </trkpt>
      <trkpt lat="44.85266" lon="1.76203">
        <ele>368.32</ele>
        <time>2021-08-16T16:23:30Z</time>
      </trkpt>
      <trkpt lat="44.85263" lon="1.76195">
        <ele>368.32</ele>
        <time>2021-08-16T16:23:31Z</time>
      </trkpt>
      <trkpt lat="44.85261" lon="1.76188">
        <ele>368.32</ele>
        <time>2021-08-16T16:23:32Z</time>
      </trkpt>
      <trkpt lat="44.85258" lon="1.76181">
        <ele>368.32</ele>
        <time>2021-08-16T16:23:33Z</time>
      </trkpt>
      <trkpt lat="44.85256" lon="1.76175">
        <ele>368.32</ele>
        <time>2021-08-16T16:23:34Z</time>
      </trkpt>
      <trkpt lat="44.85242" lon="1.76149">
        <ele>370.24</ele>
        <time>2021-08-16T16:23:40Z</time>
      </trkpt>
      <trkpt lat="44.8522" lon="1.76122">
        <ele>370.73</ele>
        <time>2021-08-16T16:23:49Z</time>
      </trkpt>
      <trkpt lat="44.85205" lon="1.76103">
        <ele>372.17</ele>
        <time>2021-08-16T16:23:57Z</time>
      </trkpt>
      <trkpt lat="44.85193" lon="1.76088">
        <ele>373.13</ele>
        <time>2021-08-16T16:24:04Z</time>
      </trkpt>
      <trkpt lat="44.85171" lon="1.76064">
        <ele>374.09</ele>
        <time>2021-08-16T16:24:13Z</time>
      </trkpt>
      <trkpt lat="44.85142" lon="1.76032">
        <ele>374.09</ele>
        <time>2021-08-16T16:24:23Z</time>
      </trkpt>
      <trkpt lat="44.85122" lon="1.76003">
        <ele>372.65</ele>
        <time>2021-08-16T16:24:29Z</time>
      </trkpt>
      <trkpt lat="44.85105" lon="1.75976">
        <ele>370.73</ele>
        <time>2021-08-16T16:24:33Z</time>
      </trkpt>
      <trkpt lat="44.85076" lon="1.75937">
        <ele>370.24</ele>
        <time>2021-08-16T16:24:40Z</time>
      </trkpt>
      <trkpt lat="44.85072" lon="1.75932">
        <ele>370.24</ele>
        <time>2021-08-16T16:24:41Z</time>
      </trkpt>
      <trkpt lat="44.85065" lon="1.7592">
        <ele>371.21</ele>
        <time>2021-08-16T16:24:44Z</time>
      </trkpt>
      <trkpt lat="44.85054" lon="1.75903">
        <ele>372.65</ele>
        <time>2021-08-16T16:24:51Z</time>
      </trkpt>
      <trkpt lat="44.85037" lon="1.7588">
        <ele>374.09</ele>
        <time>2021-08-16T16:25:00Z</time>
      </trkpt>
      <trkpt lat="44.85035" lon="1.75879">
        <ele>374.09</ele>
        <time>2021-08-16T16:25:01Z</time>
      </trkpt>
      <trkpt lat="44.85033" lon="1.75876">
        <ele>374.09</ele>
        <time>2021-08-16T16:25:02Z</time>
      </trkpt>
      <trkpt lat="44.85031" lon="1.75872">
        <ele>374.09</ele>
        <time>2021-08-16T16:25:03Z</time>
      </trkpt>
      <trkpt lat="44.85029" lon="1.75869">
        <ele>374.57</ele>
        <time>2021-08-16T16:25:04Z</time>
      </trkpt>
      <trkpt lat="44.85027" lon="1.75865">
        <ele>374.57</ele>
        <time>2021-08-16T16:25:05Z</time>
      </trkpt>
      <trkpt lat="44.85017" lon="1.75849">
        <ele>374.57</ele>
        <time>2021-08-16T16:25:10Z</time>
      </trkpt>
      <trkpt lat="44.85007" lon="1.75829">
        <ele>374.57</ele>
        <time>2021-08-16T16:25:14Z</time>
      </trkpt>
      <trkpt lat="44.85005" lon="1.75824">
        <ele>374.57</ele>
        <time>2021-08-16T16:25:15Z</time>
      </trkpt>
      <trkpt lat="44.85001" lon="1.75812">
        <ele>373.13</ele>
        <time>2021-08-16T16:25:17Z</time>
      </trkpt>
      <trkpt lat="44.84995" lon="1.75793">
        <ele>372.17</ele>
        <time>2021-08-16T16:25:20Z</time>
      </trkpt>
      <trkpt lat="44.84974" lon="1.75742">
        <ele>370.73</ele>
        <time>2021-08-16T16:25:28Z</time>
      </trkpt>
      <trkpt lat="44.84947" lon="1.75697">
        <ele>367.36</ele>
        <time>2021-08-16T16:25:34Z</time>
      </trkpt>
      <trkpt lat="44.84924" lon="1.75667">
        <ele>365.44</ele>
        <time>2021-08-16T16:25:38Z</time>
      </trkpt>
      <trkpt lat="44.84918" lon="1.75661">
        <ele>365.44</ele>
        <time>2021-08-16T16:25:39Z</time>
      </trkpt>
      <trkpt lat="44.84912" lon="1.75657">
        <ele>364.48</ele>
        <time>2021-08-16T16:25:40Z</time>
      </trkpt>
      <trkpt lat="44.84906" lon="1.75653">
        <ele>364.48</ele>
        <time>2021-08-16T16:25:41Z</time>
      </trkpt>
      <trkpt lat="44.849" lon="1.75651">
        <ele>363.52</ele>
        <time>2021-08-16T16:25:42Z</time>
      </trkpt>
      <trkpt lat="44.84895" lon="1.75651">
        <ele>363.04</ele>
        <time>2021-08-16T16:25:43Z</time>
      </trkpt>
      <trkpt lat="44.8489" lon="1.75652">
        <ele>363.04</ele>
        <time>2021-08-16T16:25:44Z</time>
      </trkpt>
      <trkpt lat="44.84886" lon="1.75655">
        <ele>362.55</ele>
        <time>2021-08-16T16:25:45Z</time>
      </trkpt>
      <trkpt lat="44.84883" lon="1.7566">
        <ele>363.04</ele>
        <time>2021-08-16T16:25:46Z</time>
      </trkpt>
      <trkpt lat="44.84882" lon="1.75666">
        <ele>363.04</ele>
        <time>2021-08-16T16:25:47Z</time>
      </trkpt>
      <trkpt lat="44.8488" lon="1.7567">
        <ele>363.04</ele>
        <time>2021-08-16T16:25:48Z</time>
      </trkpt>
      <trkpt lat="44.84876" lon="1.75674">
        <ele>363.04</ele>
        <time>2021-08-16T16:25:49Z</time>
      </trkpt>
      <trkpt lat="44.84873" lon="1.75677">
        <ele>363.04</ele>
        <time>2021-08-16T16:25:50Z</time>
      </trkpt>
      <trkpt lat="44.84868" lon="1.75678">
        <ele>362.07</ele>
        <time>2021-08-16T16:25:51Z</time>
      </trkpt>
      <trkpt lat="44.84863" lon="1.75678">
        <ele>362.07</ele>
        <time>2021-08-16T16:25:52Z</time>
      </trkpt>
      <trkpt lat="44.84859" lon="1.75677">
        <ele>362.07</ele>
        <time>2021-08-16T16:25:53Z</time>
      </trkpt>
      <trkpt lat="44.84853" lon="1.75675">
        <ele>361.11</ele>
        <time>2021-08-16T16:25:54Z</time>
      </trkpt>
      <trkpt lat="44.84826" lon="1.75663">
        <ele>358.23</ele>
        <time>2021-08-16T16:25:58Z</time>
      </trkpt>
      <trkpt lat="44.84819" lon="1.75659">
        <ele>358.23</ele>
        <time>2021-08-16T16:25:59Z</time>
      </trkpt>
      <trkpt lat="44.84811" lon="1.75653">
        <ele>357.75</ele>
        <time>2021-08-16T16:26:00Z</time>
      </trkpt>
      <trkpt lat="44.84756" lon="1.756">
        <ele>355.34</ele>
        <time>2021-08-16T16:26:08Z</time>
      </trkpt>
      <trkpt lat="44.84714" lon="1.75558">
        <ele>354.86</ele>
        <time>2021-08-16T16:26:15Z</time>
      </trkpt>
      <trkpt lat="44.84661" lon="1.7553">
        <ele>354.38</ele>
        <time>2021-08-16T16:26:23Z</time>
      </trkpt>
      <trkpt lat="44.84605" lon="1.755">
        <ele>354.38</ele>
        <time>2021-08-16T16:26:32Z</time>
      </trkpt>
      <trkpt lat="44.84552" lon="1.75478">
        <ele>354.38</ele>
        <time>2021-08-16T16:26:41Z</time>
      </trkpt>
      <trkpt lat="44.84518" lon="1.75469">
        <ele>355.83</ele>
        <time>2021-08-16T16:26:48Z</time>
      </trkpt>
      <trkpt lat="44.84493" lon="1.75467">
        <ele>357.75</ele>
        <time>2021-08-16T16:26:56Z</time>
      </trkpt>
      <trkpt lat="44.84469" lon="1.75466">
        <ele>358.71</ele>
        <time>2021-08-16T16:27:05Z</time>
      </trkpt>
      <trkpt lat="44.84429" lon="1.75466">
        <ele>359.67</ele>
        <time>2021-08-16T16:27:17Z</time>
      </trkpt>
      <trkpt lat="44.84406" lon="1.75464">
        <ele>360.63</ele>
        <time>2021-08-16T16:27:24Z</time>
      </trkpt>
      <trkpt lat="44.84374" lon="1.75453">
        <ele>360.63</ele>
        <time>2021-08-16T16:27:33Z</time>
      </trkpt>
      <trkpt lat="44.84344" lon="1.75442">
        <ele>360.63</ele>
        <time>2021-08-16T16:27:41Z</time>
      </trkpt>
      <trkpt lat="44.8434" lon="1.75442">
        <ele>360.63</ele>
        <time>2021-08-16T16:27:42Z</time>
      </trkpt>
      <trkpt lat="44.84335" lon="1.75443">
        <ele>360.63</ele>
        <time>2021-08-16T16:27:43Z</time>
      </trkpt>
      <trkpt lat="44.84331" lon="1.75445">
        <ele>360.63</ele>
        <time>2021-08-16T16:27:44Z</time>
      </trkpt>
      <trkpt lat="44.84327" lon="1.75448">
        <ele>360.63</ele>
        <time>2021-08-16T16:27:45Z</time>
      </trkpt>
      <trkpt lat="44.84317" lon="1.75455">
        <ele>360.63</ele>
        <time>2021-08-16T16:27:47Z</time>
      </trkpt>
      <trkpt lat="44.84313" lon="1.7546">
        <ele>360.63</ele>
        <time>2021-08-16T16:27:48Z</time>
      </trkpt>
      <trkpt lat="44.84284" lon="1.7549">
        <ele>360.63</ele>
        <time>2021-08-16T16:27:55Z</time>
      </trkpt>
      <trkpt lat="44.84279" lon="1.75492">
        <ele>360.63</ele>
        <time>2021-08-16T16:27:56Z</time>
      </trkpt>
      <trkpt lat="44.84274" lon="1.75492">
        <ele>360.63</ele>
        <time>2021-08-16T16:27:57Z</time>
      </trkpt>
      <trkpt lat="44.84269" lon="1.75491">
        <ele>360.63</ele>
        <time>2021-08-16T16:27:58Z</time>
      </trkpt>
      <trkpt lat="44.84265" lon="1.75488">
        <ele>360.63</ele>
        <time>2021-08-16T16:27:59Z</time>
      </trkpt>
      <trkpt lat="44.8426" lon="1.75485">
        <ele>360.63</ele>
        <time>2021-08-16T16:28:00Z</time>
      </trkpt>
      <trkpt lat="44.84238" lon="1.75473">
        <ele>360.63</ele>
        <time>2021-08-16T16:28:05Z</time>
      </trkpt>
      <trkpt lat="44.84234" lon="1.75472">
        <ele>360.63</ele>
        <time>2021-08-16T16:28:06Z</time>
      </trkpt>
      <trkpt lat="44.8423" lon="1.75472">
        <ele>360.63</ele>
        <time>2021-08-16T16:28:07Z</time>
      </trkpt>
      <trkpt lat="44.84225" lon="1.75472">
        <ele>360.63</ele>
        <time>2021-08-16T16:28:08Z</time>
      </trkpt>
      <trkpt lat="44.84221" lon="1.75474">
        <ele>361.11</ele>
        <time>2021-08-16T16:28:09Z</time>
      </trkpt>
      <trkpt lat="44.84217" lon="1.75475">
        <ele>361.11</ele>
        <time>2021-08-16T16:28:10Z</time>
      </trkpt>
      <trkpt lat="44.84183" lon="1.75481">
        <ele>361.59</ele>
        <time>2021-08-16T16:28:18Z</time>
      </trkpt>
      <trkpt lat="44.84162" lon="1.75474">
        <ele>361.59</ele>
        <time>2021-08-16T16:28:24Z</time>
      </trkpt>
      <trkpt lat="44.8416" lon="1.75468">
        <ele>361.59</ele>
        <time>2021-08-16T16:28:25Z</time>
      </trkpt>
      <trkpt lat="44.84159" lon="1.75464">
        <ele>361.59</ele>
        <time>2021-08-16T16:28:26Z</time>
      </trkpt>
      <trkpt lat="44.84159" lon="1.75458">
        <ele>361.59</ele>
        <time>2021-08-16T16:28:27Z</time>
      </trkpt>
      <trkpt lat="44.84159" lon="1.75453">
        <ele>362.07</ele>
        <time>2021-08-16T16:28:28Z</time>
      </trkpt>
      <trkpt lat="44.8416" lon="1.75448">
        <ele>362.07</ele>
        <time>2021-08-16T16:28:29Z</time>
      </trkpt>
      <trkpt lat="44.8416" lon="1.75443">
        <ele>362.07</ele>
        <time>2021-08-16T16:28:30Z</time>
      </trkpt>
      <trkpt lat="44.8416" lon="1.75411">
        <ele>363.04</ele>
        <time>2021-08-16T16:28:37Z</time>
      </trkpt>
      <trkpt lat="44.84161" lon="1.75377">
        <ele>364.48</ele>
        <time>2021-08-16T16:28:46Z</time>
      </trkpt>
      <trkpt lat="44.84164" lon="1.75346">
        <ele>365.92</ele>
        <time>2021-08-16T16:28:54Z</time>
      </trkpt>
      <trkpt lat="44.84176" lon="1.7531">
        <ele>366.88</ele>
        <time>2021-08-16T16:29:04Z</time>
      </trkpt>
      <trkpt lat="44.84197" lon="1.75291">
        <ele>367.36</ele>
        <time>2021-08-16T16:29:11Z</time>
      </trkpt>
      <trkpt lat="44.84201" lon="1.75289">
        <ele>367.36</ele>
        <time>2021-08-16T16:29:12Z</time>
      </trkpt>
      <trkpt lat="44.84208" lon="1.75282">
        <ele>367.36</ele>
        <time>2021-08-16T16:29:14Z</time>
      </trkpt>
      <trkpt lat="44.84211" lon="1.75278">
        <ele>367.36</ele>
        <time>2021-08-16T16:29:15Z</time>
      </trkpt>
      <trkpt lat="44.84213" lon="1.75272">
        <ele>367.36</ele>
        <time>2021-08-16T16:29:16Z</time>
      </trkpt>
      <trkpt lat="44.84213" lon="1.75266">
        <ele>367.36</ele>
        <time>2021-08-16T16:29:17Z</time>
      </trkpt>
      <trkpt lat="44.84211" lon="1.7526">
        <ele>367.36</ele>
        <time>2021-08-16T16:29:18Z</time>
      </trkpt>
      <trkpt lat="44.84209" lon="1.75256">
        <ele>367.36</ele>
        <time>2021-08-16T16:29:19Z</time>
      </trkpt>
      <trkpt lat="44.84206" lon="1.75252">
        <ele>367.36</ele>
        <time>2021-08-16T16:29:20Z</time>
      </trkpt>
      <trkpt lat="44.84202" lon="1.75247">
        <ele>367.36</ele>
        <time>2021-08-16T16:29:21Z</time>
      </trkpt>
      <trkpt lat="44.84198" lon="1.75243">
        <ele>367.36</ele>
        <time>2021-08-16T16:29:22Z</time>
      </trkpt>
      <trkpt lat="44.84195" lon="1.75237">
        <ele>365.92</ele>
        <time>2021-08-16T16:29:23Z</time>
      </trkpt>
      <trkpt lat="44.84192" lon="1.75231">
        <ele>365.92</ele>
        <time>2021-08-16T16:29:24Z</time>
      </trkpt>
      <trkpt lat="44.84189" lon="1.75225">
        <ele>365.92</ele>
        <time>2021-08-16T16:29:25Z</time>
      </trkpt>
      <trkpt lat="44.84186" lon="1.75218">
        <ele>365.44</ele>
        <time>2021-08-16T16:29:26Z</time>
      </trkpt>
      <trkpt lat="44.8417" lon="1.75183">
        <ele>364.48</ele>
        <time>2021-08-16T16:29:31Z</time>
      </trkpt>
      <trkpt lat="44.8417" lon="1.75176">
        <ele>364.48</ele>
        <time>2021-08-16T16:29:32Z</time>
      </trkpt>
      <trkpt lat="44.84171" lon="1.75168">
        <ele>364.48</ele>
        <time>2021-08-16T16:29:33Z</time>
      </trkpt>
      <trkpt lat="44.84174" lon="1.75161">
        <ele>364.48</ele>
        <time>2021-08-16T16:29:34Z</time>
      </trkpt>
      <trkpt lat="44.84177" lon="1.75156">
        <ele>364.48</ele>
        <time>2021-08-16T16:29:35Z</time>
      </trkpt>
      <trkpt lat="44.84202" lon="1.75114">
        <ele>364.48</ele>
        <time>2021-08-16T16:29:42Z</time>
      </trkpt>
      <trkpt lat="44.84229" lon="1.75072">
        <ele>364</ele>
        <time>2021-08-16T16:29:48Z</time>
      </trkpt>
      <trkpt lat="44.84268" lon="1.7502">
        <ele>364</ele>
        <time>2021-08-16T16:29:56Z</time>
      </trkpt>
      <trkpt lat="44.84272" lon="1.75014">
        <ele>364</ele>
        <time>2021-08-16T16:29:57Z</time>
      </trkpt>
      <trkpt lat="44.84276" lon="1.75007">
        <ele>364</ele>
        <time>2021-08-16T16:29:58Z</time>
      </trkpt>
      <trkpt lat="44.843" lon="1.74944">
        <ele>363.04</ele>
        <time>2021-08-16T16:30:06Z</time>
      </trkpt>
      <trkpt lat="44.84312" lon="1.74872">
        <ele>361.59</ele>
        <time>2021-08-16T16:30:14Z</time>
      </trkpt>
      <trkpt lat="44.84326" lon="1.74807">
        <ele>360.63</ele>
        <time>2021-08-16T16:30:21Z</time>
      </trkpt>
      <trkpt lat="44.84361" lon="1.74727">
        <ele>359.67</ele>
        <time>2021-08-16T16:30:31Z</time>
      </trkpt>
      <trkpt lat="44.84396" lon="1.74632">
        <ele>359.19</ele>
        <time>2021-08-16T16:30:43Z</time>
      </trkpt>
      <trkpt lat="44.84407" lon="1.74603">
        <ele>360.63</ele>
        <time>2021-08-16T16:30:47Z</time>
      </trkpt>
      <trkpt lat="44.84433" lon="1.7454">
        <ele>360.63</ele>
        <time>2021-08-16T16:30:57Z</time>
      </trkpt>
      <trkpt lat="44.84459" lon="1.74482">
        <ele>360.63</ele>
        <time>2021-08-16T16:31:07Z</time>
      </trkpt>
      <trkpt lat="44.84472" lon="1.7444">
        <ele>362.55</ele>
        <time>2021-08-16T16:31:15Z</time>
      </trkpt>
      <trkpt lat="44.84482" lon="1.74396">
        <ele>363.04</ele>
        <time>2021-08-16T16:31:24Z</time>
      </trkpt>
      <trkpt lat="44.84485" lon="1.74354">
        <ele>363.52</ele>
        <time>2021-08-16T16:31:33Z</time>
      </trkpt>
      <trkpt lat="44.84486" lon="1.74316">
        <ele>365.44</ele>
        <time>2021-08-16T16:31:43Z</time>
      </trkpt>
      <trkpt lat="44.8449" lon="1.7428">
        <ele>366.88</ele>
        <time>2021-08-16T16:31:54Z</time>
      </trkpt>
      <trkpt lat="44.84495" lon="1.74245">
        <ele>368.32</ele>
        <time>2021-08-16T16:32:05Z</time>
      </trkpt>
      <trkpt lat="44.84502" lon="1.74207">
        <ele>368.8</ele>
        <time>2021-08-16T16:32:15Z</time>
      </trkpt>
      <trkpt lat="44.84509" lon="1.7417">
        <ele>369.76</ele>
        <time>2021-08-16T16:32:24Z</time>
      </trkpt>
      <trkpt lat="44.84511" lon="1.74143">
        <ele>367.84</ele>
        <time>2021-08-16T16:32:30Z</time>
      </trkpt>
      <trkpt lat="44.8451" lon="1.74138">
        <ele>366.88</ele>
        <time>2021-08-16T16:32:31Z</time>
      </trkpt>
      <trkpt lat="44.84507" lon="1.74135">
        <ele>366.88</ele>
        <time>2021-08-16T16:32:32Z</time>
      </trkpt>
      <trkpt lat="44.84504" lon="1.74134">
        <ele>366.88</ele>
        <time>2021-08-16T16:32:33Z</time>
      </trkpt>
      <trkpt lat="44.84502" lon="1.74133">
        <ele>366.88</ele>
        <time>2021-08-16T16:32:34Z</time>
      </trkpt>
      <trkpt lat="44.84481" lon="1.74127">
        <ele>366.88</ele>
        <time>2021-08-16T16:32:41Z</time>
      </trkpt>
      <trkpt lat="44.84444" lon="1.74125">
        <ele>366.88</ele>
        <time>2021-08-16T16:32:50Z</time>
      </trkpt>
      <trkpt lat="44.84403" lon="1.74117">
        <ele>366.88</ele>
        <time>2021-08-16T16:33:00Z</time>
      </trkpt>
      <trkpt lat="44.84378" lon="1.74108">
        <ele>369.76</ele>
        <time>2021-08-16T16:33:09Z</time>
      </trkpt>
      <trkpt lat="44.84356" lon="1.74104">
        <ele>370.73</ele>
        <time>2021-08-16T16:33:18Z</time>
      </trkpt>
      <trkpt lat="44.84336" lon="1.74104">
        <ele>371.69</ele>
        <time>2021-08-16T16:33:27Z</time>
      </trkpt>
      <trkpt lat="44.84314" lon="1.741">
        <ele>373.13</ele>
        <time>2021-08-16T16:33:38Z</time>
      </trkpt>
      <trkpt lat="44.84293" lon="1.74097">
        <ele>374.57</ele>
        <time>2021-08-16T16:33:48Z</time>
      </trkpt>
      <trkpt lat="44.84282" lon="1.74096">
        <ele>376.01</ele>
        <time>2021-08-16T16:33:56Z</time>
      </trkpt>
      <trkpt lat="44.84272" lon="1.74093">
        <ele>376.97</ele>
        <time>2021-08-16T16:34:05Z</time>
      </trkpt>
      <trkpt lat="44.84261" lon="1.74091">
        <ele>378.9</ele>
        <time>2021-08-16T16:34:16Z</time>
      </trkpt>
      <trkpt lat="44.84251" lon="1.74089">
        <ele>380.82</ele>
        <time>2021-08-16T16:34:27Z</time>
      </trkpt>
      <trkpt lat="44.84241" lon="1.74086">
        <ele>382.74</ele>
        <time>2021-08-16T16:34:38Z</time>
      </trkpt>
      <trkpt lat="44.84228" lon="1.74082">
        <ele>384.66</ele>
        <time>2021-08-16T16:34:51Z</time>
      </trkpt>
      <trkpt lat="44.84218" lon="1.74077">
        <ele>386.11</ele>
        <time>2021-08-16T16:35:00Z</time>
      </trkpt>
      <trkpt lat="44.84216" lon="1.74075">
        <ele>386.59</ele>
        <time>2021-08-16T16:35:03Z</time>
      </trkpt>
      <trkpt lat="44.84208" lon="1.74069">
        <ele>388.03</ele>
        <time>2021-08-16T16:35:13Z</time>
      </trkpt>
      <trkpt lat="44.842" lon="1.74062">
        <ele>389.95</ele>
        <time>2021-08-16T16:35:25Z</time>
      </trkpt>
      <trkpt lat="44.84194" lon="1.74059">
        <ele>391.87</ele>
        <time>2021-08-16T16:35:33Z</time>
      </trkpt>
      <trkpt lat="44.84184" lon="1.74055">
        <ele>393.8</ele>
        <time>2021-08-16T16:35:46Z</time>
      </trkpt>
      <trkpt lat="44.84176" lon="1.74056">
        <ele>395.24</ele>
        <time>2021-08-16T16:35:56Z</time>
      </trkpt>
      <trkpt lat="44.84173" lon="1.74057">
        <ele>395.72</ele>
        <time>2021-08-16T16:35:59Z</time>
      </trkpt>
      <trkpt lat="44.84163" lon="1.7406">
        <ele>397.64</ele>
        <time>2021-08-16T16:36:10Z</time>
      </trkpt>
      <trkpt lat="44.84155" lon="1.7406">
        <ele>399.08</ele>
        <time>2021-08-16T16:36:19Z</time>
      </trkpt>
      <trkpt lat="44.84147" lon="1.74058">
        <ele>400.53</ele>
        <time>2021-08-16T16:36:29Z</time>
      </trkpt>
      <trkpt lat="44.84139" lon="1.74054">
        <ele>401.49</ele>
        <time>2021-08-16T16:36:38Z</time>
      </trkpt>
      <trkpt lat="44.84131" lon="1.7405">
        <ele>403.41</ele>
        <time>2021-08-16T16:36:48Z</time>
      </trkpt>
      <trkpt lat="44.84123" lon="1.74046">
        <ele>404.85</ele>
        <time>2021-08-16T16:36:58Z</time>
      </trkpt>
      <trkpt lat="44.84117" lon="1.7404">
        <ele>406.29</ele>
        <time>2021-08-16T16:37:07Z</time>
      </trkpt>
      <trkpt lat="44.84109" lon="1.74032">
        <ele>408.7</ele>
        <time>2021-08-16T16:37:19Z</time>
      </trkpt>
      <trkpt lat="44.84104" lon="1.74023">
        <ele>410.62</ele>
        <time>2021-08-16T16:37:29Z</time>
      </trkpt>
      <trkpt lat="44.84099" lon="1.74014">
        <ele>412.06</ele>
        <time>2021-08-16T16:37:40Z</time>
      </trkpt>
      <trkpt lat="44.84094" lon="1.74006">
        <ele>413.02</ele>
        <time>2021-08-16T16:37:48Z</time>
      </trkpt>
      <trkpt lat="44.84093" lon="1.74005">
        <ele>413.5</ele>
        <time>2021-08-16T16:37:49Z</time>
      </trkpt>
      <trkpt lat="44.8409" lon="1.74">
        <ele>413.98</ele>
        <time>2021-08-16T16:37:56Z</time>
      </trkpt>
      <trkpt lat="44.84081" lon="1.73991">
        <ele>414.47</ele>
        <time>2021-08-16T16:38:03Z</time>
      </trkpt>
      <trkpt lat="44.84064" lon="1.73976">
        <ele>415.43</ele>
        <time>2021-08-16T16:38:13Z</time>
      </trkpt>
      <trkpt lat="44.84048" lon="1.73961">
        <ele>417.35</ele>
        <time>2021-08-16T16:38:23Z</time>
      </trkpt>
      <trkpt lat="44.84032" lon="1.73945">
        <ele>418.31</ele>
        <time>2021-08-16T16:38:33Z</time>
      </trkpt>
      <trkpt lat="44.84015" lon="1.73927">
        <ele>420.23</ele>
        <time>2021-08-16T16:38:44Z</time>
      </trkpt>
      <trkpt lat="44.84005" lon="1.73913">
        <ele>421.68</ele>
        <time>2021-08-16T16:38:51Z</time>
      </trkpt>
      <trkpt lat="44.84004" lon="1.7391">
        <ele>421.68</ele>
        <time>2021-08-16T16:38:52Z</time>
      </trkpt>
      <trkpt lat="44.84003" lon="1.73909">
        <ele>421.68</ele>
        <time>2021-08-16T16:38:53Z</time>
      </trkpt>
      <trkpt lat="44.84001" lon="1.73907">
        <ele>422.16</ele>
        <time>2021-08-16T16:38:54Z</time>
      </trkpt>
      <trkpt lat="44.84" lon="1.73904">
        <ele>422.16</ele>
        <time>2021-08-16T16:38:55Z</time>
      </trkpt>
      <trkpt lat="44.83986" lon="1.7388">
        <ele>422.64</ele>
        <time>2021-08-16T16:39:06Z</time>
      </trkpt>
      <trkpt lat="44.83973" lon="1.73858">
        <ele>423.12</ele>
        <time>2021-08-16T16:39:15Z</time>
      </trkpt>
      <trkpt lat="44.83957" lon="1.73842">
        <ele>424.56</ele>
        <time>2021-08-16T16:39:24Z</time>
      </trkpt>
      <trkpt lat="44.83942" lon="1.73833">
        <ele>426.48</ele>
        <time>2021-08-16T16:39:34Z</time>
      </trkpt>
      <trkpt lat="44.83935" lon="1.73829">
        <ele>427.44</ele>
        <time>2021-08-16T16:39:41Z</time>
      </trkpt>
      <trkpt lat="44.83923" lon="1.73821">
        <ele>428.89</ele>
        <time>2021-08-16T16:39:51Z</time>
      </trkpt>
      <trkpt lat="44.83905" lon="1.73816">
        <ele>429.85</ele>
        <time>2021-08-16T16:40:00Z</time>
      </trkpt>
      <trkpt lat="44.83892" lon="1.73815">
        <ele>430.33</ele>
        <time>2021-08-16T16:40:06Z</time>
      </trkpt>
      <trkpt lat="44.83875" lon="1.73811">
        <ele>431.29</ele>
        <time>2021-08-16T16:40:14Z</time>
      </trkpt>
      <trkpt lat="44.83866" lon="1.73794">
        <ele>432.25</ele>
        <time>2021-08-16T16:40:20Z</time>
      </trkpt>
      <trkpt lat="44.83858" lon="1.73766">
        <ele>432.25</ele>
        <time>2021-08-16T16:40:28Z</time>
      </trkpt>
      <trkpt lat="44.83852" lon="1.73749">
        <ele>430.33</ele>
        <time>2021-08-16T16:40:31Z</time>
      </trkpt>
      <trkpt lat="44.83848" lon="1.73743">
        <ele>429.37</ele>
        <time>2021-08-16T16:40:32Z</time>
      </trkpt>
      <trkpt lat="44.83844" lon="1.73737">
        <ele>428.89</ele>
        <time>2021-08-16T16:40:33Z</time>
      </trkpt>
      <trkpt lat="44.8384" lon="1.73731">
        <ele>428.4</ele>
        <time>2021-08-16T16:40:34Z</time>
      </trkpt>
      <trkpt lat="44.83836" lon="1.73724">
        <ele>427.92</ele>
        <time>2021-08-16T16:40:35Z</time>
      </trkpt>
      <trkpt lat="44.83832" lon="1.73716">
        <ele>426.96</ele>
        <time>2021-08-16T16:40:36Z</time>
      </trkpt>
      <trkpt lat="44.8383" lon="1.73709">
        <ele>426.96</ele>
        <time>2021-08-16T16:40:37Z</time>
      </trkpt>
      <trkpt lat="44.83829" lon="1.73702">
        <ele>426</ele>
        <time>2021-08-16T16:40:38Z</time>
      </trkpt>
      <trkpt lat="44.83828" lon="1.73697">
        <ele>425.52</ele>
        <time>2021-08-16T16:40:39Z</time>
      </trkpt>
      <trkpt lat="44.83827" lon="1.73693">
        <ele>425.04</ele>
        <time>2021-08-16T16:40:40Z</time>
      </trkpt>
      <trkpt lat="44.83824" lon="1.73691">
        <ele>424.56</ele>
        <time>2021-08-16T16:40:41Z</time>
      </trkpt>
      <trkpt lat="44.8382" lon="1.7369">
        <ele>423.6</ele>
        <time>2021-08-16T16:40:42Z</time>
      </trkpt>
      <trkpt lat="44.83817" lon="1.7369">
        <ele>423.6</ele>
        <time>2021-08-16T16:40:43Z</time>
      </trkpt>
      <trkpt lat="44.83812" lon="1.73691">
        <ele>423.6</ele>
        <time>2021-08-16T16:40:44Z</time>
      </trkpt>
      <trkpt lat="44.83807" lon="1.73692">
        <ele>423.12</ele>
        <time>2021-08-16T16:40:45Z</time>
      </trkpt>
      <trkpt lat="44.83801" lon="1.73693">
        <ele>422.64</ele>
        <time>2021-08-16T16:40:46Z</time>
      </trkpt>
      <trkpt lat="44.83758" lon="1.73705">
        <ele>420.71</ele>
        <time>2021-08-16T16:40:53Z</time>
      </trkpt>
      <trkpt lat="44.83705" lon="1.73718">
        <ele>419.75</ele>
        <time>2021-08-16T16:41:01Z</time>
      </trkpt>
      <trkpt lat="44.83671" lon="1.73725">
        <ele>419.75</ele>
        <time>2021-08-16T16:41:07Z</time>
      </trkpt>
      <trkpt lat="44.83662" lon="1.73724">
        <ele>421.19</ele>
        <time>2021-08-16T16:41:09Z</time>
      </trkpt>
      <trkpt lat="44.83643" lon="1.73718">
        <ele>421.68</ele>
        <time>2021-08-16T16:41:14Z</time>
      </trkpt>
      <trkpt lat="44.83623" lon="1.73712">
        <ele>420.23</ele>
        <time>2021-08-16T16:41:18Z</time>
      </trkpt>
      <trkpt lat="44.8358" lon="1.73696">
        <ele>417.83</ele>
        <time>2021-08-16T16:41:25Z</time>
      </trkpt>
      <trkpt lat="44.83567" lon="1.73689">
        <ele>416.87</ele>
        <time>2021-08-16T16:41:27Z</time>
      </trkpt>
      <trkpt lat="44.83562" lon="1.73684">
        <ele>416.39</ele>
        <time>2021-08-16T16:41:28Z</time>
      </trkpt>
      <trkpt lat="44.83557" lon="1.73676">
        <ele>415.43</ele>
        <time>2021-08-16T16:41:29Z</time>
      </trkpt>
      <trkpt lat="44.83554" lon="1.73669">
        <ele>414.95</ele>
        <time>2021-08-16T16:41:30Z</time>
      </trkpt>
      <trkpt lat="44.8355" lon="1.73659">
        <ele>413.98</ele>
        <time>2021-08-16T16:41:31Z</time>
      </trkpt>
      <trkpt lat="44.83548" lon="1.7365">
        <ele>413.02</ele>
        <time>2021-08-16T16:41:32Z</time>
      </trkpt>
      <trkpt lat="44.83547" lon="1.73639">
        <ele>412.54</ele>
        <time>2021-08-16T16:41:33Z</time>
      </trkpt>
      <trkpt lat="44.83537" lon="1.73581">
        <ele>409.18</ele>
        <time>2021-08-16T16:41:38Z</time>
      </trkpt>
      <trkpt lat="44.83534" lon="1.7356">
        <ele>407.74</ele>
        <time>2021-08-16T16:41:40Z</time>
      </trkpt>
      <trkpt lat="44.83534" lon="1.7355">
        <ele>407.26</ele>
        <time>2021-08-16T16:41:41Z</time>
      </trkpt>
      <trkpt lat="44.83534" lon="1.73539">
        <ele>406.77</ele>
        <time>2021-08-16T16:41:42Z</time>
      </trkpt>
      <trkpt lat="44.83532" lon="1.7353">
        <ele>405.81</ele>
        <time>2021-08-16T16:41:43Z</time>
      </trkpt>
      <trkpt lat="44.83528" lon="1.73521">
        <ele>405.81</ele>
        <time>2021-08-16T16:41:44Z</time>
      </trkpt>
      <trkpt lat="44.83524" lon="1.73514">
        <ele>404.85</ele>
        <time>2021-08-16T16:41:45Z</time>
      </trkpt>
      <trkpt lat="44.83518" lon="1.73506">
        <ele>404.37</ele>
        <time>2021-08-16T16:41:46Z</time>
      </trkpt>
      <trkpt lat="44.83488" lon="1.73467">
        <ele>401.01</ele>
        <time>2021-08-16T16:41:51Z</time>
      </trkpt>
      <trkpt lat="44.83478" lon="1.73449">
        <ele>399.57</ele>
        <time>2021-08-16T16:41:53Z</time>
      </trkpt>
      <trkpt lat="44.83475" lon="1.73439">
        <ele>399.08</ele>
        <time>2021-08-16T16:41:54Z</time>
      </trkpt>
      <trkpt lat="44.83473" lon="1.73427">
        <ele>397.64</ele>
        <time>2021-08-16T16:41:55Z</time>
      </trkpt>
      <trkpt lat="44.83473" lon="1.73414">
        <ele>396.68</ele>
        <time>2021-08-16T16:41:56Z</time>
      </trkpt>
      <trkpt lat="44.83473" lon="1.73401">
        <ele>395.24</ele>
        <time>2021-08-16T16:41:57Z</time>
      </trkpt>
      <trkpt lat="44.83475" lon="1.73387">
        <ele>393.8</ele>
        <time>2021-08-16T16:41:58Z</time>
      </trkpt>
      <trkpt lat="44.83478" lon="1.73374">
        <ele>392.84</ele>
        <time>2021-08-16T16:41:59Z</time>
      </trkpt>
      <trkpt lat="44.83483" lon="1.73361">
        <ele>391.87</ele>
        <time>2021-08-16T16:42:00Z</time>
      </trkpt>
      <trkpt lat="44.83488" lon="1.73349">
        <ele>390.91</ele>
        <time>2021-08-16T16:42:01Z</time>
      </trkpt>
      <trkpt lat="44.835" lon="1.73326">
        <ele>388.99</ele>
        <time>2021-08-16T16:42:03Z</time>
      </trkpt>
      <trkpt lat="44.83506" lon="1.73317">
        <ele>388.03</ele>
        <time>2021-08-16T16:42:04Z</time>
      </trkpt>
      <trkpt lat="44.83514" lon="1.73307">
        <ele>387.07</ele>
        <time>2021-08-16T16:42:05Z</time>
      </trkpt>
      <trkpt lat="44.83522" lon="1.73301">
        <ele>386.59</ele>
        <time>2021-08-16T16:42:06Z</time>
      </trkpt>
      <trkpt lat="44.83531" lon="1.73294">
        <ele>385.63</ele>
        <time>2021-08-16T16:42:07Z</time>
      </trkpt>
      <trkpt lat="44.83541" lon="1.73288">
        <ele>384.66</ele>
        <time>2021-08-16T16:42:08Z</time>
      </trkpt>
      <trkpt lat="44.83582" lon="1.73261">
        <ele>380.34</ele>
        <time>2021-08-16T16:42:12Z</time>
      </trkpt>
      <trkpt lat="44.83609" lon="1.73238">
        <ele>377.45</ele>
        <time>2021-08-16T16:42:15Z</time>
      </trkpt>
      <trkpt lat="44.83616" lon="1.7323">
        <ele>377.94</ele>
        <time>2021-08-16T16:42:16Z</time>
      </trkpt>
      <trkpt lat="44.83656" lon="1.73188">
        <ele>375.05</ele>
        <time>2021-08-16T16:42:22Z</time>
      </trkpt>
      <trkpt lat="44.83678" lon="1.73167">
        <ele>371.69</ele>
        <time>2021-08-16T16:42:25Z</time>
      </trkpt>
      <trkpt lat="44.83699" lon="1.73146">
        <ele>368.32</ele>
        <time>2021-08-16T16:42:28Z</time>
      </trkpt>
      <trkpt lat="44.83704" lon="1.7314">
        <ele>367.36</ele>
        <time>2021-08-16T16:42:29Z</time>
      </trkpt>
      <trkpt lat="44.8371" lon="1.73132">
        <ele>366.4</ele>
        <time>2021-08-16T16:42:30Z</time>
      </trkpt>
      <trkpt lat="44.83714" lon="1.73124">
        <ele>365.44</ele>
        <time>2021-08-16T16:42:31Z</time>
      </trkpt>
      <trkpt lat="44.83719" lon="1.73113">
        <ele>363.52</ele>
        <time>2021-08-16T16:42:32Z</time>
      </trkpt>
      <trkpt lat="44.83723" lon="1.73101">
        <ele>362.55</ele>
        <time>2021-08-16T16:42:33Z</time>
      </trkpt>
      <trkpt lat="44.83736" lon="1.73062">
        <ele>359.19</ele>
        <time>2021-08-16T16:42:36Z</time>
      </trkpt>
      <trkpt lat="44.83755" lon="1.73004">
        <ele>355.34</ele>
        <time>2021-08-16T16:42:40Z</time>
      </trkpt>
      <trkpt lat="44.83762" lon="1.72977">
        <ele>354.38</ele>
        <time>2021-08-16T16:42:42Z</time>
      </trkpt>
      <trkpt lat="44.83765" lon="1.72962">
        <ele>354.38</ele>
        <time>2021-08-16T16:42:43Z</time>
      </trkpt>
      <trkpt lat="44.83766" lon="1.72947">
        <ele>354.38</ele>
        <time>2021-08-16T16:42:44Z</time>
      </trkpt>
      <trkpt lat="44.83766" lon="1.72935">
        <ele>353.42</ele>
        <time>2021-08-16T16:42:45Z</time>
      </trkpt>
      <trkpt lat="44.83762" lon="1.72877">
        <ele>354.38</ele>
        <time>2021-08-16T16:42:50Z</time>
      </trkpt>
      <trkpt lat="44.83762" lon="1.72816">
        <ele>352.94</ele>
        <time>2021-08-16T16:42:56Z</time>
      </trkpt>
      <trkpt lat="44.83763" lon="1.72795">
        <ele>352.46</ele>
        <time>2021-08-16T16:42:58Z</time>
      </trkpt>
      <trkpt lat="44.83762" lon="1.7273">
        <ele>349.58</ele>
        <time>2021-08-16T16:43:04Z</time>
      </trkpt>
      <trkpt lat="44.8376" lon="1.72719">
        <ele>349.58</ele>
        <time>2021-08-16T16:43:05Z</time>
      </trkpt>
      <trkpt lat="44.83753" lon="1.72686">
        <ele>346.21</ele>
        <time>2021-08-16T16:43:08Z</time>
      </trkpt>
      <trkpt lat="44.83744" lon="1.72649">
        <ele>342.85</ele>
        <time>2021-08-16T16:43:11Z</time>
      </trkpt>
      <trkpt lat="44.83736" lon="1.72622">
        <ele>339.96</ele>
        <time>2021-08-16T16:43:13Z</time>
      </trkpt>
      <trkpt lat="44.83721" lon="1.72572">
        <ele>335.64</ele>
        <time>2021-08-16T16:43:17Z</time>
      </trkpt>
      <trkpt lat="44.83712" lon="1.72543">
        <ele>334.2</ele>
        <time>2021-08-16T16:43:21Z</time>
      </trkpt>
      <trkpt lat="44.83705" lon="1.72531">
        <ele>333.23</ele>
        <time>2021-08-16T16:43:24Z</time>
      </trkpt>
      <trkpt lat="44.83702" lon="1.72527">
        <ele>333.23</ele>
        <time>2021-08-16T16:43:25Z</time>
      </trkpt>
      <trkpt lat="44.83698" lon="1.72523">
        <ele>332.27</ele>
        <time>2021-08-16T16:43:26Z</time>
      </trkpt>
      <trkpt lat="44.83691" lon="1.72514">
        <ele>331.79</ele>
        <time>2021-08-16T16:43:30Z</time>
      </trkpt>
      <trkpt lat="44.8369" lon="1.72512">
        <ele>332.27</ele>
        <time>2021-08-16T16:43:41Z</time>
      </trkpt>
      <trkpt lat="44.8369" lon="1.72509">
        <ele>332.27</ele>
        <time>2021-08-16T16:43:51Z</time>
      </trkpt>
      <trkpt lat="44.8369" lon="1.72506">
        <ele>332.27</ele>
        <time>2021-08-16T16:44:15Z</time>
      </trkpt>
      <trkpt lat="44.83689" lon="1.72509">
        <ele>332.27</ele>
        <time>2021-08-16T16:44:35Z</time>
      </trkpt>
      <trkpt lat="44.8369" lon="1.72511">
        <ele>332.27</ele>
        <time>2021-08-16T16:44:37Z</time>
      </trkpt>
      <trkpt lat="44.83696" lon="1.72515">
        <ele>332.27</ele>
        <time>2021-08-16T16:44:44Z</time>
      </trkpt>
      <trkpt lat="44.83701" lon="1.7252">
        <ele>332.27</ele>
        <time>2021-08-16T16:44:51Z</time>
      </trkpt>
      <trkpt lat="44.83705" lon="1.72526">
        <ele>333.71</ele>
        <time>2021-08-16T16:44:58Z</time>
      </trkpt>
      <trkpt lat="44.83709" lon="1.72528">
        <ele>334.2</ele>
        <time>2021-08-16T16:45:03Z</time>
      </trkpt>
      <trkpt lat="44.8371" lon="1.72528">
        <ele>334.2</ele>
        <time>2021-08-16T16:45:04Z</time>
      </trkpt>
      <trkpt lat="44.83712" lon="1.72525">
        <ele>334.2</ele>
        <time>2021-08-16T16:45:10Z</time>
      </trkpt>
      <trkpt lat="44.83712" lon="1.72524">
        <ele>334.2</ele>
        <time>2021-08-16T16:45:11Z</time>
      </trkpt>
      <trkpt lat="44.83711" lon="1.72512">
        <ele>334.2</ele>
        <time>2021-08-16T16:45:16Z</time>
      </trkpt>
      <trkpt lat="44.83709" lon="1.72509">
        <ele>334.2</ele>
        <time>2021-08-16T16:45:17Z</time>
      </trkpt>
      <trkpt lat="44.83708" lon="1.72506">
        <ele>334.2</ele>
        <time>2021-08-16T16:45:18Z</time>
      </trkpt>
      <trkpt lat="44.83702" lon="1.72482">
        <ele>332.75</ele>
        <time>2021-08-16T16:45:23Z</time>
      </trkpt>
      <trkpt lat="44.83699" lon="1.72468">
        <ele>332.75</ele>
        <time>2021-08-16T16:45:28Z</time>
      </trkpt>
      <trkpt lat="44.83695" lon="1.72445">
        <ele>332.27</ele>
        <time>2021-08-16T16:45:34Z</time>
      </trkpt>
      <trkpt lat="44.8369" lon="1.72408">
        <ele>330.83</ele>
        <time>2021-08-16T16:45:41Z</time>
      </trkpt>
      <trkpt lat="44.83686" lon="1.72372">
        <ele>330.35</ele>
        <time>2021-08-16T16:45:49Z</time>
      </trkpt>
      <trkpt lat="44.83681" lon="1.7235">
        <ele>329.39</ele>
        <time>2021-08-16T16:45:56Z</time>
      </trkpt>
      <trkpt lat="44.83675" lon="1.72335">
        <ele>328.91</ele>
        <time>2021-08-16T16:46:02Z</time>
      </trkpt>
      <trkpt lat="44.83675" lon="1.7233">
        <ele>328.91</ele>
        <time>2021-08-16T16:46:04Z</time>
      </trkpt>
      <trkpt lat="44.83678" lon="1.72316">
        <ele>328.91</ele>
        <time>2021-08-16T16:46:11Z</time>
      </trkpt>
      <trkpt lat="44.83679" lon="1.72315">
        <ele>328.91</ele>
        <time>2021-08-16T16:46:12Z</time>
      </trkpt>
      <trkpt lat="44.83681" lon="1.7231">
        <ele>328.91</ele>
        <time>2021-08-16T16:46:14Z</time>
      </trkpt>
      <trkpt lat="44.83681" lon="1.72307">
        <ele>328.91</ele>
        <time>2021-08-16T16:46:15Z</time>
      </trkpt>
      <trkpt lat="44.83682" lon="1.72303">
        <ele>328.91</ele>
        <time>2021-08-16T16:46:16Z</time>
      </trkpt>
      <trkpt lat="44.83682" lon="1.72301">
        <ele>328.91</ele>
        <time>2021-08-16T16:46:17Z</time>
      </trkpt>
      <trkpt lat="44.83681" lon="1.72296">
        <ele>328.91</ele>
        <time>2021-08-16T16:46:18Z</time>
      </trkpt>
      <trkpt lat="44.83681" lon="1.72292">
        <ele>328.91</ele>
        <time>2021-08-16T16:46:19Z</time>
      </trkpt>
      <trkpt lat="44.83681" lon="1.72288">
        <ele>328.91</ele>
        <time>2021-08-16T16:46:20Z</time>
      </trkpt>
      <trkpt lat="44.83681" lon="1.72284">
        <ele>330.35</ele>
        <time>2021-08-16T16:46:21Z</time>
      </trkpt>
      <trkpt lat="44.83681" lon="1.7228">
        <ele>330.35</ele>
        <time>2021-08-16T16:46:22Z</time>
      </trkpt>
      <trkpt lat="44.8368" lon="1.72276">
        <ele>330.35</ele>
        <time>2021-08-16T16:46:23Z</time>
      </trkpt>
      <trkpt lat="44.83681" lon="1.72248">
        <ele>330.35</ele>
        <time>2021-08-16T16:46:31Z</time>
      </trkpt>
      <trkpt lat="44.83683" lon="1.7222">
        <ele>330.83</ele>
        <time>2021-08-16T16:46:39Z</time>
      </trkpt>
      <trkpt lat="44.83681" lon="1.72193">
        <ele>331.31</ele>
        <time>2021-08-16T16:46:47Z</time>
      </trkpt>
      <trkpt lat="44.83676" lon="1.72165">
        <ele>331.31</ele>
        <time>2021-08-16T16:46:55Z</time>
      </trkpt>
      <trkpt lat="44.83668" lon="1.72142">
        <ele>331.31</ele>
        <time>2021-08-16T16:47:03Z</time>
      </trkpt>
      <trkpt lat="44.83657" lon="1.72126">
        <ele>331.31</ele>
        <time>2021-08-16T16:47:08Z</time>
      </trkpt>
      <trkpt lat="44.83643" lon="1.72103">
        <ele>331.79</ele>
        <time>2021-08-16T16:47:17Z</time>
      </trkpt>
      <trkpt lat="44.83628" lon="1.72085">
        <ele>332.75</ele>
        <time>2021-08-16T16:47:24Z</time>
      </trkpt>
      <trkpt lat="44.83616" lon="1.72071">
        <ele>332.75</ele>
        <time>2021-08-16T16:47:29Z</time>
      </trkpt>
      <trkpt lat="44.83592" lon="1.72046">
        <ele>332.75</ele>
        <time>2021-08-16T16:47:37Z</time>
      </trkpt>
      <trkpt lat="44.83576" lon="1.72031">
        <ele>332.75</ele>
        <time>2021-08-16T16:47:42Z</time>
      </trkpt>
      <trkpt lat="44.83556" lon="1.7201">
        <ele>331.31</ele>
        <time>2021-08-16T16:47:48Z</time>
      </trkpt>
      <trkpt lat="44.8353" lon="1.71971">
        <ele>330.83</ele>
        <time>2021-08-16T16:47:56Z</time>
      </trkpt>
      <trkpt lat="44.83523" lon="1.7196">
        <ele>329.39</ele>
        <time>2021-08-16T16:47:58Z</time>
      </trkpt>
      <trkpt lat="44.83515" lon="1.7195">
        <ele>328.43</ele>
        <time>2021-08-16T16:48:00Z</time>
      </trkpt>
      <trkpt lat="44.83499" lon="1.71937">
        <ele>327.95</ele>
        <time>2021-08-16T16:48:03Z</time>
      </trkpt>
      <trkpt lat="44.83495" lon="1.71933">
        <ele>327.95</ele>
        <time>2021-08-16T16:48:04Z</time>
      </trkpt>
      <trkpt lat="44.83492" lon="1.71931">
        <ele>327.95</ele>
        <time>2021-08-16T16:48:05Z</time>
      </trkpt>
      <trkpt lat="44.83469" lon="1.71911">
        <ele>327.95</ele>
        <time>2021-08-16T16:48:12Z</time>
      </trkpt>
      <trkpt lat="44.83456" lon="1.71887">
        <ele>326.99</ele>
        <time>2021-08-16T16:48:18Z</time>
      </trkpt>
      <trkpt lat="44.83452" lon="1.71881">
        <ele>326.99</ele>
        <time>2021-08-16T16:48:19Z</time>
      </trkpt>
      <trkpt lat="44.83434" lon="1.71851">
        <ele>325.54</ele>
        <time>2021-08-16T16:48:24Z</time>
      </trkpt>
      <trkpt lat="44.83407" lon="1.71804">
        <ele>323.62</ele>
        <time>2021-08-16T16:48:32Z</time>
      </trkpt>
      <trkpt lat="44.83397" lon="1.71782">
        <ele>321.7</ele>
        <time>2021-08-16T16:48:35Z</time>
      </trkpt>
      <trkpt lat="44.83379" lon="1.71748">
        <ele>317.85</ele>
        <time>2021-08-16T16:48:40Z</time>
      </trkpt>
      <trkpt lat="44.83374" lon="1.71742">
        <ele>317.85</ele>
        <time>2021-08-16T16:48:41Z</time>
      </trkpt>
      <trkpt lat="44.83369" lon="1.71737">
        <ele>316.89</ele>
        <time>2021-08-16T16:48:42Z</time>
      </trkpt>
      <trkpt lat="44.83363" lon="1.71733">
        <ele>315.93</ele>
        <time>2021-08-16T16:48:43Z</time>
      </trkpt>
      <trkpt lat="44.83345" lon="1.71723">
        <ele>314.01</ele>
        <time>2021-08-16T16:48:46Z</time>
      </trkpt>
      <trkpt lat="44.83339" lon="1.71721">
        <ele>314.01</ele>
        <time>2021-08-16T16:48:47Z</time>
      </trkpt>
      <trkpt lat="44.83322" lon="1.71712">
        <ele>312.09</ele>
        <time>2021-08-16T16:48:50Z</time>
      </trkpt>
      <trkpt lat="44.83317" lon="1.71709">
        <ele>312.09</ele>
        <time>2021-08-16T16:48:51Z</time>
      </trkpt>
      <trkpt lat="44.83314" lon="1.71705">
        <ele>312.09</ele>
        <time>2021-08-16T16:48:52Z</time>
      </trkpt>
      <trkpt lat="44.83312" lon="1.71702">
        <ele>312.09</ele>
        <time>2021-08-16T16:48:53Z</time>
      </trkpt>
      <trkpt lat="44.8331" lon="1.71701">
        <ele>312.09</ele>
        <time>2021-08-16T16:48:54Z</time>
      </trkpt>
      <trkpt lat="44.83308" lon="1.71697">
        <ele>313.53</ele>
        <time>2021-08-16T16:48:58Z</time>
      </trkpt>
      <trkpt lat="44.83303" lon="1.71685">
        <ele>314.97</ele>
        <time>2021-08-16T16:49:08Z</time>
      </trkpt>
      <trkpt lat="44.833" lon="1.7167">
        <ele>316.41</ele>
        <time>2021-08-16T16:49:18Z</time>
      </trkpt>
      <trkpt lat="44.833" lon="1.71668">
        <ele>316.41</ele>
        <time>2021-08-16T16:49:19Z</time>
      </trkpt>
      <trkpt lat="44.83299" lon="1.71659">
        <ele>316.89</ele>
        <time>2021-08-16T16:49:28Z</time>
      </trkpt>
      <trkpt lat="44.83299" lon="1.71646">
        <ele>317.37</ele>
        <time>2021-08-16T16:49:36Z</time>
      </trkpt>
      <trkpt lat="44.83298" lon="1.71625">
        <ele>318.33</ele>
        <time>2021-08-16T16:49:44Z</time>
      </trkpt>
      <trkpt lat="44.8329" lon="1.71598">
        <ele>319.78</ele>
        <time>2021-08-16T16:49:54Z</time>
      </trkpt>
      <trkpt lat="44.8328" lon="1.71577">
        <ele>319.78</ele>
        <time>2021-08-16T16:50:00Z</time>
      </trkpt>
      <trkpt lat="44.83262" lon="1.71533">
        <ele>319.78</ele>
        <time>2021-08-16T16:50:10Z</time>
      </trkpt>
      <trkpt lat="44.83246" lon="1.71506">
        <ele>320.26</ele>
        <time>2021-08-16T16:50:18Z</time>
      </trkpt>
      <trkpt lat="44.83232" lon="1.71485">
        <ele>321.22</ele>
        <time>2021-08-16T16:50:26Z</time>
      </trkpt>
      <trkpt lat="44.83221" lon="1.71473">
        <ele>322.18</ele>
        <time>2021-08-16T16:50:33Z</time>
      </trkpt>
      <trkpt lat="44.83208" lon="1.71464">
        <ele>323.62</ele>
        <time>2021-08-16T16:50:41Z</time>
      </trkpt>
      <trkpt lat="44.83201" lon="1.71457">
        <ele>324.58</ele>
        <time>2021-08-16T16:50:47Z</time>
      </trkpt>
      <trkpt lat="44.832" lon="1.71455">
        <ele>324.58</ele>
        <time>2021-08-16T16:50:48Z</time>
      </trkpt>
      <trkpt lat="44.832" lon="1.71453">
        <ele>324.58</ele>
        <time>2021-08-16T16:50:49Z</time>
      </trkpt>
      <trkpt lat="44.83199" lon="1.71451">
        <ele>324.58</ele>
        <time>2021-08-16T16:50:50Z</time>
      </trkpt>
      <trkpt lat="44.83198" lon="1.71449">
        <ele>324.58</ele>
        <time>2021-08-16T16:50:51Z</time>
      </trkpt>
      <trkpt lat="44.83197" lon="1.71446">
        <ele>324.58</ele>
        <time>2021-08-16T16:50:52Z</time>
      </trkpt>
      <trkpt lat="44.83197" lon="1.71443">
        <ele>324.58</ele>
        <time>2021-08-16T16:50:53Z</time>
      </trkpt>
      <trkpt lat="44.83198" lon="1.7144">
        <ele>324.58</ele>
        <time>2021-08-16T16:50:54Z</time>
      </trkpt>
      <trkpt lat="44.83198" lon="1.71436">
        <ele>324.58</ele>
        <time>2021-08-16T16:50:55Z</time>
      </trkpt>
      <trkpt lat="44.83205" lon="1.71404">
        <ele>322.66</ele>
        <time>2021-08-16T16:51:00Z</time>
      </trkpt>
      <trkpt lat="44.83206" lon="1.71396">
        <ele>322.66</ele>
        <time>2021-08-16T16:51:01Z</time>
      </trkpt>
      <trkpt lat="44.83207" lon="1.71388">
        <ele>321.7</ele>
        <time>2021-08-16T16:51:02Z</time>
      </trkpt>
      <trkpt lat="44.83207" lon="1.71379">
        <ele>321.7</ele>
        <time>2021-08-16T16:51:03Z</time>
      </trkpt>
      <trkpt lat="44.83207" lon="1.7137">
        <ele>321.22</ele>
        <time>2021-08-16T16:51:04Z</time>
      </trkpt>
      <trkpt lat="44.83209" lon="1.71321">
        <ele>317.37</ele>
        <time>2021-08-16T16:51:09Z</time>
      </trkpt>
      <trkpt lat="44.83215" lon="1.71258">
        <ele>314.97</ele>
        <time>2021-08-16T16:51:14Z</time>
      </trkpt>
      <trkpt lat="44.83218" lon="1.71182">
        <ele>312.09</ele>
        <time>2021-08-16T16:51:20Z</time>
      </trkpt>
      <trkpt lat="44.83221" lon="1.71158">
        <ele>311.12</ele>
        <time>2021-08-16T16:51:22Z</time>
      </trkpt>
      <trkpt lat="44.83221" lon="1.71146">
        <ele>310.64</ele>
        <time>2021-08-16T16:51:23Z</time>
      </trkpt>
      <trkpt lat="44.8322" lon="1.71136">
        <ele>310.64</ele>
        <time>2021-08-16T16:51:24Z</time>
      </trkpt>
      <trkpt lat="44.83218" lon="1.71118">
        <ele>310.64</ele>
        <time>2021-08-16T16:51:26Z</time>
      </trkpt>
      <trkpt lat="44.83218" lon="1.711">
        <ele>311.12</ele>
        <time>2021-08-16T16:51:28Z</time>
      </trkpt>
      <trkpt lat="44.8322" lon="1.71076">
        <ele>311.12</ele>
        <time>2021-08-16T16:51:31Z</time>
      </trkpt>
      <trkpt lat="44.83219" lon="1.71068">
        <ele>311.12</ele>
        <time>2021-08-16T16:51:32Z</time>
      </trkpt>
      <trkpt lat="44.83218" lon="1.71062">
        <ele>311.12</ele>
        <time>2021-08-16T16:51:33Z</time>
      </trkpt>
      <trkpt lat="44.83216" lon="1.71055">
        <ele>311.12</ele>
        <time>2021-08-16T16:51:34Z</time>
      </trkpt>
      <trkpt lat="44.83214" lon="1.7105">
        <ele>312.09</ele>
        <time>2021-08-16T16:51:35Z</time>
      </trkpt>
      <trkpt lat="44.83212" lon="1.71046">
        <ele>312.09</ele>
        <time>2021-08-16T16:51:36Z</time>
      </trkpt>
      <trkpt lat="44.8321" lon="1.71042">
        <ele>312.09</ele>
        <time>2021-08-16T16:51:37Z</time>
      </trkpt>
      <trkpt lat="44.83196" lon="1.71022">
        <ele>313.05</ele>
        <time>2021-08-16T16:51:44Z</time>
      </trkpt>
      <trkpt lat="44.83194" lon="1.71016">
        <ele>313.53</ele>
        <time>2021-08-16T16:51:48Z</time>
      </trkpt>
      <trkpt lat="44.83196" lon="1.71005">
        <ele>311.12</ele>
        <time>2021-08-16T16:51:52Z</time>
      </trkpt>
      <trkpt lat="44.83198" lon="1.70998">
        <ele>310.64</ele>
        <time>2021-08-16T16:51:53Z</time>
      </trkpt>
      <trkpt lat="44.83215" lon="1.70944">
        <ele>307.28</ele>
        <time>2021-08-16T16:51:59Z</time>
      </trkpt>
      <trkpt lat="44.83233" lon="1.70916">
        <ele>307.28</ele>
        <time>2021-08-16T16:52:03Z</time>
      </trkpt>
      <trkpt lat="44.83242" lon="1.70903">
        <ele>306.32</ele>
        <time>2021-08-16T16:52:05Z</time>
      </trkpt>
      <trkpt lat="44.83272" lon="1.7088">
        <ele>301.99</ele>
        <time>2021-08-16T16:52:10Z</time>
      </trkpt>
      <trkpt lat="44.83276" lon="1.70872">
        <ele>301.99</ele>
        <time>2021-08-16T16:52:11Z</time>
      </trkpt>
      <trkpt lat="44.83279" lon="1.70865">
        <ele>301.99</ele>
        <time>2021-08-16T16:52:12Z</time>
      </trkpt>
      <trkpt lat="44.8329" lon="1.7081">
        <ele>301.99</ele>
        <time>2021-08-16T16:52:19Z</time>
      </trkpt>
      <trkpt lat="44.83298" lon="1.70777">
        <ele>301.99</ele>
        <time>2021-08-16T16:52:25Z</time>
      </trkpt>
      <trkpt lat="44.83305" lon="1.70751">
        <ele>301.99</ele>
        <time>2021-08-16T16:52:30Z</time>
      </trkpt>
      <trkpt lat="44.83306" lon="1.7072">
        <ele>301.99</ele>
        <time>2021-08-16T16:52:35Z</time>
      </trkpt>
      <trkpt lat="44.83308" lon="1.70701">
        <ele>301.51</ele>
        <time>2021-08-16T16:52:38Z</time>
      </trkpt>
      <trkpt lat="44.83305" lon="1.70663">
        <ele>301.51</ele>
        <time>2021-08-16T16:52:45Z</time>
      </trkpt>
      <trkpt lat="44.83299" lon="1.70617">
        <ele>301.51</ele>
        <time>2021-08-16T16:52:54Z</time>
      </trkpt>
      <trkpt lat="44.83283" lon="1.70579">
        <ele>301.03</ele>
        <time>2021-08-16T16:53:02Z</time>
      </trkpt>
      <trkpt lat="44.83281" lon="1.70574">
        <ele>301.03</ele>
        <time>2021-08-16T16:53:03Z</time>
      </trkpt>
      <trkpt lat="44.83278" lon="1.7057">
        <ele>301.03</ele>
        <time>2021-08-16T16:53:04Z</time>
      </trkpt>
      <trkpt lat="44.8326" lon="1.70551">
        <ele>301.03</ele>
        <time>2021-08-16T16:53:11Z</time>
      </trkpt>
      <trkpt lat="44.83246" lon="1.70538">
        <ele>301.99</ele>
        <time>2021-08-16T16:53:18Z</time>
      </trkpt>
      <trkpt lat="44.83231" lon="1.70524">
        <ele>302.95</ele>
        <time>2021-08-16T16:53:26Z</time>
      </trkpt>
      <trkpt lat="44.83216" lon="1.70509">
        <ele>303.43</ele>
        <time>2021-08-16T16:53:34Z</time>
      </trkpt>
      <trkpt lat="44.83197" lon="1.7049">
        <ele>304.88</ele>
        <time>2021-08-16T16:53:43Z</time>
      </trkpt>
      <trkpt lat="44.83177" lon="1.7047">
        <ele>304.88</ele>
        <time>2021-08-16T16:53:53Z</time>
      </trkpt>
      <trkpt lat="44.83158" lon="1.70454">
        <ele>304.88</ele>
        <time>2021-08-16T16:54:01Z</time>
      </trkpt>
      <trkpt lat="44.83136" lon="1.70445">
        <ele>305.36</ele>
        <time>2021-08-16T16:54:09Z</time>
      </trkpt>
      <trkpt lat="44.83109" lon="1.70424">
        <ele>305.36</ele>
        <time>2021-08-16T16:54:19Z</time>
      </trkpt>
      <trkpt lat="44.83084" lon="1.70405">
        <ele>306.32</ele>
        <time>2021-08-16T16:54:29Z</time>
      </trkpt>
      <trkpt lat="44.83064" lon="1.70388">
        <ele>305.84</ele>
        <time>2021-08-16T16:54:37Z</time>
      </trkpt>
      <trkpt lat="44.83047" lon="1.70369">
        <ele>307.28</ele>
        <time>2021-08-16T16:54:46Z</time>
      </trkpt>
      <trkpt lat="44.83035" lon="1.70355">
        <ele>308.72</ele>
        <time>2021-08-16T16:54:54Z</time>
      </trkpt>
      <trkpt lat="44.83032" lon="1.70353">
        <ele>309.2</ele>
        <time>2021-08-16T16:54:56Z</time>
      </trkpt>
      <trkpt lat="44.8303" lon="1.70351">
        <ele>309.2</ele>
        <time>2021-08-16T16:54:57Z</time>
      </trkpt>
      <trkpt lat="44.83029" lon="1.70349">
        <ele>309.2</ele>
        <time>2021-08-16T16:54:58Z</time>
      </trkpt>
      <trkpt lat="44.83028" lon="1.70346">
        <ele>309.68</ele>
        <time>2021-08-16T16:54:59Z</time>
      </trkpt>
      <trkpt lat="44.83027" lon="1.70344">
        <ele>309.68</ele>
        <time>2021-08-16T16:55:00Z</time>
      </trkpt>
      <trkpt lat="44.83026" lon="1.70342">
        <ele>309.68</ele>
        <time>2021-08-16T16:55:01Z</time>
      </trkpt>
      <trkpt lat="44.83024" lon="1.7034">
        <ele>309.68</ele>
        <time>2021-08-16T16:55:02Z</time>
      </trkpt>
      <trkpt lat="44.83017" lon="1.70324">
        <ele>310.64</ele>
        <time>2021-08-16T16:55:10Z</time>
      </trkpt>
      <trkpt lat="44.83012" lon="1.70315">
        <ele>311.12</ele>
        <time>2021-08-16T16:55:14Z</time>
      </trkpt>
      <trkpt lat="44.83011" lon="1.70314">
        <ele>311.12</ele>
        <time>2021-08-16T16:55:15Z</time>
      </trkpt>
      <trkpt lat="44.82999" lon="1.70296">
        <ele>312.09</ele>
        <time>2021-08-16T16:55:23Z</time>
      </trkpt>
      <trkpt lat="44.8299" lon="1.70284">
        <ele>313.05</ele>
        <time>2021-08-16T16:55:30Z</time>
      </trkpt>
      <trkpt lat="44.82989" lon="1.70282">
        <ele>313.05</ele>
        <time>2021-08-16T16:55:31Z</time>
      </trkpt>
      <trkpt lat="44.82988" lon="1.70281">
        <ele>313.53</ele>
        <time>2021-08-16T16:55:32Z</time>
      </trkpt>
      <trkpt lat="44.82979" lon="1.70264">
        <ele>314.01</ele>
        <time>2021-08-16T16:55:41Z</time>
      </trkpt>
      <trkpt lat="44.82972" lon="1.70252">
        <ele>315.45</ele>
        <time>2021-08-16T16:55:49Z</time>
      </trkpt>
      <trkpt lat="44.82963" lon="1.7024">
        <ele>316.89</ele>
        <time>2021-08-16T16:55:57Z</time>
      </trkpt>
      <trkpt lat="44.82956" lon="1.70232">
        <ele>317.85</ele>
        <time>2021-08-16T16:56:05Z</time>
      </trkpt>
      <trkpt lat="44.82951" lon="1.70223">
        <ele>318.81</ele>
        <time>2021-08-16T16:56:12Z</time>
      </trkpt>
      <trkpt lat="44.82946" lon="1.70211">
        <ele>320.26</ele>
        <time>2021-08-16T16:56:21Z</time>
      </trkpt>
      <trkpt lat="44.82942" lon="1.70199">
        <ele>321.7</ele>
        <time>2021-08-16T16:56:30Z</time>
      </trkpt>
      <trkpt lat="44.82939" lon="1.70184">
        <ele>322.66</ele>
        <time>2021-08-16T16:56:39Z</time>
      </trkpt>
      <trkpt lat="44.82936" lon="1.70165">
        <ele>324.1</ele>
        <time>2021-08-16T16:56:49Z</time>
      </trkpt>
      <trkpt lat="44.82934" lon="1.70141">
        <ele>325.54</ele>
        <time>2021-08-16T16:56:59Z</time>
      </trkpt>
      <trkpt lat="44.82933" lon="1.70125">
        <ele>326.5</ele>
        <time>2021-08-16T16:57:08Z</time>
      </trkpt>
      <trkpt lat="44.82932" lon="1.70109">
        <ele>327.95</ele>
        <time>2021-08-16T16:57:18Z</time>
      </trkpt>
      <trkpt lat="44.82932" lon="1.70093">
        <ele>328.91</ele>
        <time>2021-08-16T16:57:27Z</time>
      </trkpt>
      <trkpt lat="44.8293" lon="1.70076">
        <ele>330.35</ele>
        <time>2021-08-16T16:57:36Z</time>
      </trkpt>
      <trkpt lat="44.8293" lon="1.70065">
        <ele>331.79</ele>
        <time>2021-08-16T16:57:45Z</time>
      </trkpt>
      <trkpt lat="44.82931" lon="1.70055">
        <ele>332.75</ele>
        <time>2021-08-16T16:57:53Z</time>
      </trkpt>
      <trkpt lat="44.82931" lon="1.70036">
        <ele>334.68</ele>
        <time>2021-08-16T16:58:03Z</time>
      </trkpt>
      <trkpt lat="44.8293" lon="1.70025">
        <ele>336.12</ele>
        <time>2021-08-16T16:58:11Z</time>
      </trkpt>
      <trkpt lat="44.82929" lon="1.70015">
        <ele>337.08</ele>
        <time>2021-08-16T16:58:18Z</time>
      </trkpt>
      <trkpt lat="44.82928" lon="1.70005">
        <ele>338.04</ele>
        <time>2021-08-16T16:58:25Z</time>
      </trkpt>
      <trkpt lat="44.82927" lon="1.69985">
        <ele>339.48</ele>
        <time>2021-08-16T16:58:34Z</time>
      </trkpt>
      <trkpt lat="44.82926" lon="1.69982">
        <ele>339.48</ele>
        <time>2021-08-16T16:58:36Z</time>
      </trkpt>
      <trkpt lat="44.82925" lon="1.69981">
        <ele>339.96</ele>
        <time>2021-08-16T16:58:37Z</time>
      </trkpt>
      <trkpt lat="44.8292" lon="1.6997">
        <ele>340.92</ele>
        <time>2021-08-16T16:58:45Z</time>
      </trkpt>
      <trkpt lat="44.82917" lon="1.69964">
        <ele>341.89</ele>
        <time>2021-08-16T16:58:53Z</time>
      </trkpt>
      <trkpt lat="44.82914" lon="1.69962">
        <ele>342.37</ele>
        <time>2021-08-16T16:59:00Z</time>
      </trkpt>
      <trkpt lat="44.8291" lon="1.6996">
        <ele>342.85</ele>
        <time>2021-08-16T16:59:14Z</time>
      </trkpt>
      <trkpt lat="44.82903" lon="1.69955">
        <ele>344.29</ele>
        <time>2021-08-16T16:59:22Z</time>
      </trkpt>
      <trkpt lat="44.829" lon="1.69948">
        <ele>345.73</ele>
        <time>2021-08-16T16:59:31Z</time>
      </trkpt>
      <trkpt lat="44.82902" lon="1.69934">
        <ele>348.13</ele>
        <time>2021-08-16T16:59:43Z</time>
      </trkpt>
      <trkpt lat="44.82903" lon="1.69926">
        <ele>349.1</ele>
        <time>2021-08-16T16:59:50Z</time>
      </trkpt>
      <trkpt lat="44.82903" lon="1.69924">
        <ele>349.1</ele>
        <time>2021-08-16T16:59:51Z</time>
      </trkpt>
      <trkpt lat="44.82902" lon="1.69906">
        <ele>350.54</ele>
        <time>2021-08-16T17:00:02Z</time>
      </trkpt>
      <trkpt lat="44.82902" lon="1.69893">
        <ele>351.5</ele>
        <time>2021-08-16T17:00:12Z</time>
      </trkpt>
      <trkpt lat="44.829" lon="1.69889">
        <ele>351.5</ele>
        <time>2021-08-16T17:00:17Z</time>
      </trkpt>
      <trkpt lat="44.82899" lon="1.69887">
        <ele>351.5</ele>
        <time>2021-08-16T17:00:18Z</time>
      </trkpt>
      <trkpt lat="44.82898" lon="1.69885">
        <ele>351.5</ele>
        <time>2021-08-16T17:00:19Z</time>
      </trkpt>
      <trkpt lat="44.82891" lon="1.69862">
        <ele>353.42</ele>
        <time>2021-08-16T17:00:29Z</time>
      </trkpt>
      <trkpt lat="44.82881" lon="1.6984">
        <ele>354.86</ele>
        <time>2021-08-16T17:00:39Z</time>
      </trkpt>
      <trkpt lat="44.82871" lon="1.69818">
        <ele>356.31</ele>
        <time>2021-08-16T17:00:49Z</time>
      </trkpt>
      <trkpt lat="44.82862" lon="1.69794">
        <ele>357.75</ele>
        <time>2021-08-16T17:00:59Z</time>
      </trkpt>
      <trkpt lat="44.82851" lon="1.69772">
        <ele>359.19</ele>
        <time>2021-08-16T17:01:10Z</time>
      </trkpt>
      <trkpt lat="44.82841" lon="1.69751">
        <ele>361.11</ele>
        <time>2021-08-16T17:01:20Z</time>
      </trkpt>
      <trkpt lat="44.82833" lon="1.6973">
        <ele>363.04</ele>
        <time>2021-08-16T17:01:31Z</time>
      </trkpt>
      <trkpt lat="44.82828" lon="1.69715">
        <ele>364.48</ele>
        <time>2021-08-16T17:01:40Z</time>
      </trkpt>
      <trkpt lat="44.82824" lon="1.69704">
        <ele>365.92</ele>
        <time>2021-08-16T17:01:47Z</time>
      </trkpt>
      <trkpt lat="44.82823" lon="1.69702">
        <ele>365.92</ele>
        <time>2021-08-16T17:01:48Z</time>
      </trkpt>
      <trkpt lat="44.82823" lon="1.69701">
        <ele>366.4</ele>
        <time>2021-08-16T17:01:49Z</time>
      </trkpt>
      <trkpt lat="44.82816" lon="1.69681">
        <ele>367.84</ele>
        <time>2021-08-16T17:02:01Z</time>
      </trkpt>
      <trkpt lat="44.8281" lon="1.69663">
        <ele>370.24</ele>
        <time>2021-08-16T17:02:12Z</time>
      </trkpt>
      <trkpt lat="44.82802" lon="1.6964">
        <ele>371.69</ele>
        <time>2021-08-16T17:02:23Z</time>
      </trkpt>
      <trkpt lat="44.82795" lon="1.69618">
        <ele>372.65</ele>
        <time>2021-08-16T17:02:32Z</time>
      </trkpt>
      <trkpt lat="44.82787" lon="1.69591">
        <ele>373.13</ele>
        <time>2021-08-16T17:02:42Z</time>
      </trkpt>
      <trkpt lat="44.82784" lon="1.69589">
        <ele>373.13</ele>
        <time>2021-08-16T17:02:43Z</time>
      </trkpt>
      <trkpt lat="44.82782" lon="1.69588">
        <ele>373.13</ele>
        <time>2021-08-16T17:02:44Z</time>
      </trkpt>
      <trkpt lat="44.82779" lon="1.69588">
        <ele>373.13</ele>
        <time>2021-08-16T17:02:45Z</time>
      </trkpt>
      <trkpt lat="44.82753" lon="1.69586">
        <ele>373.13</ele>
        <time>2021-08-16T17:02:53Z</time>
      </trkpt>
      <trkpt lat="44.82737" lon="1.69587">
        <ele>371.69</ele>
        <time>2021-08-16T17:02:57Z</time>
      </trkpt>
      <trkpt lat="44.8271" lon="1.69588">
        <ele>370.73</ele>
        <time>2021-08-16T17:03:03Z</time>
      </trkpt>
      <trkpt lat="44.82705" lon="1.69588">
        <ele>370.73</ele>
        <time>2021-08-16T17:03:04Z</time>
      </trkpt>
      <trkpt lat="44.82695" lon="1.69587">
        <ele>370.24</ele>
        <time>2021-08-16T17:03:06Z</time>
      </trkpt>
      <trkpt lat="44.82675" lon="1.69586">
        <ele>369.76</ele>
        <time>2021-08-16T17:03:10Z</time>
      </trkpt>
      <trkpt lat="44.82655" lon="1.69581">
        <ele>369.28</ele>
        <time>2021-08-16T17:03:14Z</time>
      </trkpt>
      <trkpt lat="44.82613" lon="1.69566">
        <ele>367.36</ele>
        <time>2021-08-16T17:03:22Z</time>
      </trkpt>
      <trkpt lat="44.82596" lon="1.69561">
        <ele>366.4</ele>
        <time>2021-08-16T17:03:25Z</time>
      </trkpt>
      <trkpt lat="44.82589" lon="1.69559">
        <ele>366.4</ele>
        <time>2021-08-16T17:03:26Z</time>
      </trkpt>
      <trkpt lat="44.82584" lon="1.69556">
        <ele>365.44</ele>
        <time>2021-08-16T17:03:27Z</time>
      </trkpt>
      <trkpt lat="44.82551" lon="1.69534">
        <ele>364</ele>
        <time>2021-08-16T17:03:35Z</time>
      </trkpt>
      <trkpt lat="44.8255" lon="1.6953">
        <ele>364</ele>
        <time>2021-08-16T17:03:36Z</time>
      </trkpt>
      <trkpt lat="44.82549" lon="1.69526">
        <ele>364</ele>
        <time>2021-08-16T17:03:37Z</time>
      </trkpt>
      <trkpt lat="44.82549" lon="1.69524">
        <ele>364</ele>
        <time>2021-08-16T17:03:38Z</time>
      </trkpt>
      <trkpt lat="44.82549" lon="1.69523">
        <ele>364</ele>
        <time>2021-08-16T17:03:44Z</time>
      </trkpt>
      <trkpt lat="44.82548" lon="1.69523">
        <ele>364</ele>
        <time>2021-08-16T17:04:02Z</time>
      </trkpt>
      <trkpt lat="44.82549" lon="1.69523">
        <ele>364</ele>
        <time>2021-08-16T17:04:19Z</time>
      </trkpt>
      <trkpt lat="44.82548" lon="1.69523">
        <ele>364</ele>
        <time>2021-08-16T17:04:36Z</time>
      </trkpt>
      <trkpt lat="44.82547" lon="1.69523">
        <ele>364</ele>
        <time>2021-08-16T17:04:49Z</time>
      </trkpt>
      <trkpt lat="44.82548" lon="1.69525">
        <ele>364</ele>
        <time>2021-08-16T17:04:53Z</time>
      </trkpt>
      <trkpt lat="44.82548" lon="1.69524">
        <ele>364</ele>
        <time>2021-08-16T17:05:09Z</time>
      </trkpt>
      <trkpt lat="44.82548" lon="1.69523">
        <ele>364</ele>
        <time>2021-08-16T17:05:21Z</time>
      </trkpt>
      <trkpt lat="44.82548" lon="1.69523">
        <ele>364</ele>
        <time>2021-08-16T17:05:36Z</time>
      </trkpt>
      <trkpt lat="44.82547" lon="1.69519">
        <ele>364</ele>
        <time>2021-08-16T17:05:49Z</time>
      </trkpt>
      <trkpt lat="44.82547" lon="1.69517">
        <ele>364</ele>
        <time>2021-08-16T17:05:50Z</time>
      </trkpt>
      <trkpt lat="44.82546" lon="1.69516">
        <ele>364</ele>
        <time>2021-08-16T17:05:51Z</time>
      </trkpt>
      <trkpt lat="44.82546" lon="1.69513">
        <ele>364</ele>
        <time>2021-08-16T17:05:52Z</time>
      </trkpt>
      <trkpt lat="44.82545" lon="1.6951">
        <ele>363.52</ele>
        <time>2021-08-16T17:05:53Z</time>
      </trkpt>
      <trkpt lat="44.82544" lon="1.69507">
        <ele>363.52</ele>
        <time>2021-08-16T17:05:54Z</time>
      </trkpt>
      <trkpt lat="44.82544" lon="1.69504">
        <ele>363.52</ele>
        <time>2021-08-16T17:05:55Z</time>
      </trkpt>
      <trkpt lat="44.82545" lon="1.695">
        <ele>363.04</ele>
        <time>2021-08-16T17:05:56Z</time>
      </trkpt>
      <trkpt lat="44.82549" lon="1.69463">
        <ele>363.04</ele>
        <time>2021-08-16T17:06:06Z</time>
      </trkpt>
      <trkpt lat="44.82557" lon="1.6943">
        <ele>362.55</ele>
        <time>2021-08-16T17:06:13Z</time>
      </trkpt>
      <trkpt lat="44.82558" lon="1.69424">
        <ele>362.55</ele>
        <time>2021-08-16T17:06:14Z</time>
      </trkpt>
      <trkpt lat="44.82559" lon="1.69418">
        <ele>362.07</ele>
        <time>2021-08-16T17:06:15Z</time>
      </trkpt>
      <trkpt lat="44.82561" lon="1.69412">
        <ele>362.07</ele>
        <time>2021-08-16T17:06:16Z</time>
      </trkpt>
      <trkpt lat="44.82562" lon="1.69405">
        <ele>361.59</ele>
        <time>2021-08-16T17:06:17Z</time>
      </trkpt>
      <trkpt lat="44.82563" lon="1.69399">
        <ele>361.59</ele>
        <time>2021-08-16T17:06:18Z</time>
      </trkpt>
      <trkpt lat="44.8258" lon="1.69335">
        <ele>360.15</ele>
        <time>2021-08-16T17:06:27Z</time>
      </trkpt>
      <trkpt lat="44.82594" lon="1.69269">
        <ele>359.67</ele>
        <time>2021-08-16T17:06:36Z</time>
      </trkpt>
      <trkpt lat="44.82608" lon="1.69203">
        <ele>359.19</ele>
        <time>2021-08-16T17:06:46Z</time>
      </trkpt>
      <trkpt lat="44.82617" lon="1.69137">
        <ele>358.71</ele>
        <time>2021-08-16T17:06:55Z</time>
      </trkpt>
      <trkpt lat="44.8262" lon="1.69058">
        <ele>357.75</ele>
        <time>2021-08-16T17:07:06Z</time>
      </trkpt>
      <trkpt lat="44.8262" lon="1.69002">
        <ele>357.75</ele>
        <time>2021-08-16T17:07:14Z</time>
      </trkpt>
      <trkpt lat="44.82618" lon="1.68963">
        <ele>357.75</ele>
        <time>2021-08-16T17:07:20Z</time>
      </trkpt>
      <trkpt lat="44.82617" lon="1.68961">
        <ele>357.75</ele>
        <time>2021-08-16T17:07:21Z</time>
      </trkpt>
      <trkpt lat="44.82615" lon="1.68963">
        <ele>357.75</ele>
        <time>2021-08-16T17:07:22Z</time>
      </trkpt>
      <trkpt lat="44.82615" lon="1.68965">
        <ele>357.75</ele>
        <time>2021-08-16T17:07:23Z</time>
      </trkpt>
      <trkpt lat="44.82615" lon="1.68968">
        <ele>357.75</ele>
        <time>2021-08-16T17:07:24Z</time>
      </trkpt>
      <trkpt lat="44.82615" lon="1.6897">
        <ele>357.75</ele>
        <time>2021-08-16T17:07:25Z</time>
      </trkpt>
      <trkpt lat="44.82615" lon="1.68973">
        <ele>357.75</ele>
        <time>2021-08-16T17:07:26Z</time>
      </trkpt>
      <trkpt lat="44.82616" lon="1.68977">
        <ele>357.75</ele>
        <time>2021-08-16T17:07:27Z</time>
      </trkpt>
      <trkpt lat="44.82616" lon="1.68981">
        <ele>357.75</ele>
        <time>2021-08-16T17:07:28Z</time>
      </trkpt>
      <trkpt lat="44.82617" lon="1.69009">
        <ele>359.19</ele>
        <time>2021-08-16T17:07:34Z</time>
      </trkpt>
      <trkpt lat="44.82615" lon="1.69025">
        <ele>359.67</ele>
        <time>2021-08-16T17:07:40Z</time>
      </trkpt>
      <trkpt lat="44.82618" lon="1.69027">
        <ele>359.67</ele>
        <time>2021-08-16T17:07:52Z</time>
      </trkpt>
      <trkpt lat="44.82618" lon="1.69032">
        <ele>359.67</ele>
        <time>2021-08-16T17:07:58Z</time>
      </trkpt>
      <trkpt lat="44.82618" lon="1.69031">
        <ele>359.19</ele>
        <time>2021-08-16T17:08:11Z</time>
      </trkpt>
      <trkpt lat="44.82618" lon="1.69031">
        <ele>359.19</ele>
        <time>2021-08-16T17:08:24Z</time>
      </trkpt>
      <trkpt lat="44.82619" lon="1.69031">
        <ele>359.19</ele>
        <time>2021-08-16T17:08:35Z</time>
      </trkpt>
      <trkpt lat="44.82619" lon="1.69032">
        <ele>359.19</ele>
        <time>2021-08-16T17:09:00Z</time>
      </trkpt>
      <trkpt lat="44.82618" lon="1.69032">
        <ele>359.19</ele>
        <time>2021-08-16T17:09:18Z</time>
      </trkpt>
      <trkpt lat="44.82618" lon="1.69032">
        <ele>359.19</ele>
        <time>2021-08-16T17:09:32Z</time>
      </trkpt>
      <trkpt lat="44.8262" lon="1.69031">
        <ele>359.19</ele>
        <time>2021-08-16T17:09:46Z</time>
      </trkpt>
      <trkpt lat="44.82624" lon="1.6903">
        <ele>359.19</ele>
        <time>2021-08-16T17:09:47Z</time>
      </trkpt>
      <trkpt lat="44.82626" lon="1.69031">
        <ele>359.19</ele>
        <time>2021-08-16T17:09:50Z</time>
      </trkpt>
      <trkpt lat="44.8263" lon="1.69032">
        <ele>359.19</ele>
        <time>2021-08-16T17:09:54Z</time>
      </trkpt>
      <trkpt lat="44.82627" lon="1.6903">
        <ele>359.19</ele>
        <time>2021-08-16T17:10:15Z</time>
      </trkpt>
      <trkpt lat="44.82626" lon="1.69031">
        <ele>359.19</ele>
        <time>2021-08-16T17:10:27Z</time>
      </trkpt>
      <trkpt lat="44.82627" lon="1.69032">
        <ele>358.71</ele>
        <time>2021-08-16T17:10:38Z</time>
      </trkpt>
      <trkpt lat="44.82625" lon="1.69031">
        <ele>358.71</ele>
        <time>2021-08-16T17:10:54Z</time>
      </trkpt>
      <trkpt lat="44.82622" lon="1.69032">
        <ele>358.71</ele>
        <time>2021-08-16T17:11:02Z</time>
      </trkpt>
      <trkpt lat="44.82623" lon="1.69033">
        <ele>358.71</ele>
        <time>2021-08-16T17:11:14Z</time>
      </trkpt>
      <trkpt lat="44.82621" lon="1.69033">
        <ele>358.71</ele>
        <time>2021-08-16T17:11:27Z</time>
      </trkpt>
      <trkpt lat="44.82622" lon="1.69034">
        <ele>358.23</ele>
        <time>2021-08-16T17:11:38Z</time>
      </trkpt>
      <trkpt lat="44.82621" lon="1.69035">
        <ele>358.71</ele>
        <time>2021-08-16T17:11:43Z</time>
      </trkpt>
      <trkpt lat="44.82621" lon="1.69034">
        <ele>358.23</ele>
        <time>2021-08-16T17:11:50Z</time>
      </trkpt>
      <trkpt lat="44.82621" lon="1.69036">
        <ele>358.23</ele>
        <time>2021-08-16T17:11:58Z</time>
      </trkpt>
      <trkpt lat="44.8262" lon="1.69034">
        <ele>358.23</ele>
        <time>2021-08-16T17:12:04Z</time>
      </trkpt>
      <trkpt lat="44.82619" lon="1.69023">
        <ele>358.23</ele>
        <time>2021-08-16T17:12:09Z</time>
      </trkpt>
      <trkpt lat="44.82618" lon="1.68984">
        <ele>356.79</ele>
        <time>2021-08-16T17:12:19Z</time>
      </trkpt>
      <trkpt lat="44.82614" lon="1.68936">
        <ele>355.34</ele>
        <time>2021-08-16T17:12:27Z</time>
      </trkpt>
      <trkpt lat="44.82611" lon="1.68903">
        <ele>354.38</ele>
        <time>2021-08-16T17:12:32Z</time>
      </trkpt>
      <trkpt lat="44.82608" lon="1.68856">
        <ele>350.54</ele>
        <time>2021-08-16T17:12:38Z</time>
      </trkpt>
      <trkpt lat="44.82607" lon="1.6884">
        <ele>350.06</ele>
        <time>2021-08-16T17:12:40Z</time>
      </trkpt>
      <trkpt lat="44.82612" lon="1.68796">
        <ele>347.65</ele>
        <time>2021-08-16T17:12:46Z</time>
      </trkpt>
      <trkpt lat="44.82614" lon="1.68788">
        <ele>347.17</ele>
        <time>2021-08-16T17:12:47Z</time>
      </trkpt>
      <trkpt lat="44.82628" lon="1.68744">
        <ele>343.81</ele>
        <time>2021-08-16T17:12:52Z</time>
      </trkpt>
      <trkpt lat="44.82641" lon="1.68701">
        <ele>340.44</ele>
        <time>2021-08-16T17:12:56Z</time>
      </trkpt>
      <trkpt lat="44.82656" lon="1.68651">
        <ele>337.08</ele>
        <time>2021-08-16T17:13:00Z</time>
      </trkpt>
      <trkpt lat="44.82671" lon="1.68597">
        <ele>333.71</ele>
        <time>2021-08-16T17:13:04Z</time>
      </trkpt>
      <trkpt lat="44.82673" lon="1.68584">
        <ele>332.75</ele>
        <time>2021-08-16T17:13:05Z</time>
      </trkpt>
      <trkpt lat="44.82674" lon="1.68565">
        <ele>331.79</ele>
        <time>2021-08-16T17:13:06Z</time>
      </trkpt>
      <trkpt lat="44.82673" lon="1.68553">
        <ele>331.31</ele>
        <time>2021-08-16T17:13:07Z</time>
      </trkpt>
      <trkpt lat="44.82672" lon="1.68534">
        <ele>330.35</ele>
        <time>2021-08-16T17:13:08Z</time>
      </trkpt>
      <trkpt lat="44.82669" lon="1.6852">
        <ele>328.91</ele>
        <time>2021-08-16T17:13:09Z</time>
      </trkpt>
      <trkpt lat="44.8266" lon="1.68471">
        <ele>325.54</ele>
        <time>2021-08-16T17:13:12Z</time>
      </trkpt>
      <trkpt lat="44.8265" lon="1.68419">
        <ele>321.7</ele>
        <time>2021-08-16T17:13:15Z</time>
      </trkpt>
      <trkpt lat="44.82637" lon="1.68348">
        <ele>318.33</ele>
        <time>2021-08-16T17:13:19Z</time>
      </trkpt>
      <trkpt lat="44.82629" lon="1.68312">
        <ele>316.89</ele>
        <time>2021-08-16T17:13:21Z</time>
      </trkpt>
      <trkpt lat="44.82605" lon="1.68233">
        <ele>315.93</ele>
        <time>2021-08-16T17:13:26Z</time>
      </trkpt>
      <trkpt lat="44.8259" lon="1.68158">
        <ele>315.45</ele>
        <time>2021-08-16T17:13:31Z</time>
      </trkpt>
      <trkpt lat="44.82585" lon="1.68108">
        <ele>315.93</ele>
        <time>2021-08-16T17:13:35Z</time>
      </trkpt>
      <trkpt lat="44.82584" lon="1.68099">
        <ele>315.45</ele>
        <time>2021-08-16T17:13:36Z</time>
      </trkpt>
      <trkpt lat="44.82583" lon="1.68091">
        <ele>315.45</ele>
        <time>2021-08-16T17:13:37Z</time>
      </trkpt>
      <trkpt lat="44.82583" lon="1.68084">
        <ele>315.45</ele>
        <time>2021-08-16T17:13:38Z</time>
      </trkpt>
      <trkpt lat="44.8258" lon="1.68054">
        <ele>315.45</ele>
        <time>2021-08-16T17:13:44Z</time>
      </trkpt>
      <trkpt lat="44.82577" lon="1.68049">
        <ele>315.45</ele>
        <time>2021-08-16T17:13:45Z</time>
      </trkpt>
      <trkpt lat="44.82575" lon="1.68046">
        <ele>315.45</ele>
        <time>2021-08-16T17:13:46Z</time>
      </trkpt>
      <trkpt lat="44.82573" lon="1.68042">
        <ele>315.45</ele>
        <time>2021-08-16T17:13:47Z</time>
      </trkpt>
      <trkpt lat="44.82572" lon="1.68039">
        <ele>315.45</ele>
        <time>2021-08-16T17:13:48Z</time>
      </trkpt>
      <trkpt lat="44.82571" lon="1.68036">
        <ele>315.45</ele>
        <time>2021-08-16T17:13:49Z</time>
      </trkpt>
      <trkpt lat="44.8257" lon="1.68034">
        <ele>316.89</ele>
        <time>2021-08-16T17:13:50Z</time>
      </trkpt>
      <trkpt lat="44.8257" lon="1.68032">
        <ele>316.89</ele>
        <time>2021-08-16T17:13:51Z</time>
      </trkpt>
      <trkpt lat="44.8257" lon="1.6803">
        <ele>317.37</ele>
        <time>2021-08-16T17:13:52Z</time>
      </trkpt>
      <trkpt lat="44.8257" lon="1.68028">
        <ele>317.37</ele>
        <time>2021-08-16T17:13:53Z</time>
      </trkpt>
      <trkpt lat="44.82569" lon="1.68026">
        <ele>317.37</ele>
        <time>2021-08-16T17:13:54Z</time>
      </trkpt>
      <trkpt lat="44.82569" lon="1.68025">
        <ele>317.85</ele>
        <time>2021-08-16T17:13:55Z</time>
      </trkpt>
      <trkpt lat="44.82569" lon="1.68023">
        <ele>317.85</ele>
        <time>2021-08-16T17:13:56Z</time>
      </trkpt>
      <trkpt lat="44.82566" lon="1.68013">
        <ele>318.81</ele>
        <time>2021-08-16T17:14:03Z</time>
      </trkpt>
      <trkpt lat="44.82562" lon="1.67998">
        <ele>320.26</ele>
        <time>2021-08-16T17:14:14Z</time>
      </trkpt>
      <trkpt lat="44.82558" lon="1.67989">
        <ele>321.22</ele>
        <time>2021-08-16T17:14:20Z</time>
      </trkpt>
      <trkpt lat="44.82557" lon="1.67988">
        <ele>321.7</ele>
        <time>2021-08-16T17:14:21Z</time>
      </trkpt>
      <trkpt lat="44.82552" lon="1.67983">
        <ele>322.18</ele>
        <time>2021-08-16T17:14:26Z</time>
      </trkpt>
      <trkpt lat="44.82551" lon="1.67982">
        <ele>323.14</ele>
        <time>2021-08-16T17:14:27Z</time>
      </trkpt>
      <trkpt lat="44.82546" lon="1.67973">
        <ele>323.14</ele>
        <time>2021-08-16T17:14:35Z</time>
      </trkpt>
      <trkpt lat="44.82545" lon="1.67971">
        <ele>322.66</ele>
        <time>2021-08-16T17:14:43Z</time>
      </trkpt>
      <trkpt lat="44.82544" lon="1.67967">
        <ele>322.66</ele>
        <time>2021-08-16T17:14:50Z</time>
      </trkpt>
      <trkpt lat="44.82544" lon="1.67965">
        <ele>322.66</ele>
        <time>2021-08-16T17:14:51Z</time>
      </trkpt>
      <trkpt lat="44.82543" lon="1.67963">
        <ele>322.66</ele>
        <time>2021-08-16T17:14:52Z</time>
      </trkpt>
      <trkpt lat="44.82542" lon="1.6796">
        <ele>322.66</ele>
        <time>2021-08-16T17:14:53Z</time>
      </trkpt>
      <trkpt lat="44.82542" lon="1.67958">
        <ele>322.66</ele>
        <time>2021-08-16T17:14:54Z</time>
      </trkpt>
      <trkpt lat="44.82541" lon="1.67955">
        <ele>322.66</ele>
        <time>2021-08-16T17:14:55Z</time>
      </trkpt>
      <trkpt lat="44.82541" lon="1.67952">
        <ele>322.66</ele>
        <time>2021-08-16T17:14:56Z</time>
      </trkpt>
      <trkpt lat="44.82541" lon="1.67948">
        <ele>322.66</ele>
        <time>2021-08-16T17:14:57Z</time>
      </trkpt>
      <trkpt lat="44.8254" lon="1.67924">
        <ele>322.66</ele>
        <time>2021-08-16T17:15:03Z</time>
      </trkpt>
      <trkpt lat="44.82542" lon="1.67885">
        <ele>321.22</ele>
        <time>2021-08-16T17:15:10Z</time>
      </trkpt>
      <trkpt lat="44.82543" lon="1.67834">
        <ele>318.33</ele>
        <time>2021-08-16T17:15:17Z</time>
      </trkpt>
      <trkpt lat="44.82543" lon="1.67827">
        <ele>318.33</ele>
        <time>2021-08-16T17:15:18Z</time>
      </trkpt>
      <trkpt lat="44.82542" lon="1.67805">
        <ele>316.89</ele>
        <time>2021-08-16T17:15:21Z</time>
      </trkpt>
      <trkpt lat="44.82541" lon="1.67797">
        <ele>316.89</ele>
        <time>2021-08-16T17:15:22Z</time>
      </trkpt>
      <trkpt lat="44.8254" lon="1.67793">
        <ele>316.41</ele>
        <time>2021-08-16T17:15:23Z</time>
      </trkpt>
      <trkpt lat="44.82539" lon="1.67788">
        <ele>316.41</ele>
        <time>2021-08-16T17:15:24Z</time>
      </trkpt>
      <trkpt lat="44.82538" lon="1.67784">
        <ele>315.93</ele>
        <time>2021-08-16T17:15:25Z</time>
      </trkpt>
      <trkpt lat="44.82538" lon="1.67782">
        <ele>315.93</ele>
        <time>2021-08-16T17:15:26Z</time>
      </trkpt>
      <trkpt lat="44.82537" lon="1.67781">
        <ele>315.93</ele>
        <time>2021-08-16T17:15:27Z</time>
      </trkpt>
      <trkpt lat="44.82536" lon="1.67782">
        <ele>315.93</ele>
        <time>2021-08-16T17:15:28Z</time>
      </trkpt>
      <trkpt lat="44.82535" lon="1.67784">
        <ele>315.93</ele>
        <time>2021-08-16T17:15:29Z</time>
      </trkpt>
      <trkpt lat="44.82536" lon="1.67786">
        <ele>315.93</ele>
        <time>2021-08-16T17:15:30Z</time>
      </trkpt>
      <trkpt lat="44.82537" lon="1.67788">
        <ele>315.93</ele>
        <time>2021-08-16T17:15:31Z</time>
      </trkpt>
      <trkpt lat="44.82538" lon="1.67789">
        <ele>315.93</ele>
        <time>2021-08-16T17:15:32Z</time>
      </trkpt>
      <trkpt lat="44.8254" lon="1.67799">
        <ele>315.93</ele>
        <time>2021-08-16T17:15:36Z</time>
      </trkpt>
      <trkpt lat="44.82539" lon="1.67801">
        <ele>315.93</ele>
        <time>2021-08-16T17:15:37Z</time>
      </trkpt>
      <trkpt lat="44.82538" lon="1.67802">
        <ele>315.93</ele>
        <time>2021-08-16T17:15:38Z</time>
      </trkpt>
      <trkpt lat="44.82537" lon="1.67802">
        <ele>315.93</ele>
        <time>2021-08-16T17:15:39Z</time>
      </trkpt>
      <trkpt lat="44.82535" lon="1.67803">
        <ele>315.93</ele>
        <time>2021-08-16T17:15:40Z</time>
      </trkpt>
      <trkpt lat="44.82533" lon="1.67803">
        <ele>315.93</ele>
        <time>2021-08-16T17:15:41Z</time>
      </trkpt>
      <trkpt lat="44.82531" lon="1.67804">
        <ele>315.93</ele>
        <time>2021-08-16T17:15:42Z</time>
      </trkpt>
      <trkpt lat="44.82528" lon="1.67805">
        <ele>315.93</ele>
        <time>2021-08-16T17:15:43Z</time>
      </trkpt>
      <trkpt lat="44.82526" lon="1.67806">
        <ele>315.93</ele>
        <time>2021-08-16T17:15:44Z</time>
      </trkpt>
      <trkpt lat="44.82503" lon="1.67812">
        <ele>315.93</ele>
        <time>2021-08-16T17:15:51Z</time>
      </trkpt>
      <trkpt lat="44.8249" lon="1.67811">
        <ele>314.97</ele>
        <time>2021-08-16T17:15:54Z</time>
      </trkpt>
      <trkpt lat="44.82486" lon="1.67811">
        <ele>314.97</ele>
        <time>2021-08-16T17:15:55Z</time>
      </trkpt>
      <trkpt lat="44.8245" lon="1.67822">
        <ele>314.01</ele>
        <time>2021-08-16T17:16:04Z</time>
      </trkpt>
      <trkpt lat="44.82429" lon="1.67838">
        <ele>313.53</ele>
        <time>2021-08-16T17:16:10Z</time>
      </trkpt>
      <trkpt lat="44.82406" lon="1.67842">
        <ele>313.53</ele>
        <time>2021-08-16T17:16:16Z</time>
      </trkpt>
      <trkpt lat="44.82386" lon="1.6785">
        <ele>314.97</ele>
        <time>2021-08-16T17:16:23Z</time>
      </trkpt>
      <trkpt lat="44.82371" lon="1.6786">
        <ele>316.41</ele>
        <time>2021-08-16T17:16:30Z</time>
      </trkpt>
      <trkpt lat="44.8236" lon="1.67867">
        <ele>317.37</ele>
        <time>2021-08-16T17:16:37Z</time>
      </trkpt>
      <trkpt lat="44.82355" lon="1.67871">
        <ele>317.85</ele>
        <time>2021-08-16T17:16:43Z</time>
      </trkpt>
      <trkpt lat="44.82346" lon="1.67876">
        <ele>319.3</ele>
        <time>2021-08-16T17:16:52Z</time>
      </trkpt>
      <trkpt lat="44.82339" lon="1.67879">
        <ele>320.26</ele>
        <time>2021-08-16T17:17:00Z</time>
      </trkpt>
      <trkpt lat="44.82329" lon="1.67882">
        <ele>321.7</ele>
        <time>2021-08-16T17:17:09Z</time>
      </trkpt>
      <trkpt lat="44.82318" lon="1.67888">
        <ele>323.14</ele>
        <time>2021-08-16T17:17:19Z</time>
      </trkpt>
      <trkpt lat="44.82306" lon="1.67892">
        <ele>324.1</ele>
        <time>2021-08-16T17:17:29Z</time>
      </trkpt>
      <trkpt lat="44.82305" lon="1.67893">
        <ele>325.06</ele>
        <time>2021-08-16T17:17:36Z</time>
      </trkpt>
      <trkpt lat="44.82297" lon="1.67896">
        <ele>325.06</ele>
        <time>2021-08-16T17:17:45Z</time>
      </trkpt>
      <trkpt lat="44.82296" lon="1.67897">
        <ele>325.06</ele>
        <time>2021-08-16T17:17:46Z</time>
      </trkpt>
      <trkpt lat="44.8229" lon="1.67899">
        <ele>325.54</ele>
        <time>2021-08-16T17:17:53Z</time>
      </trkpt>
      <trkpt lat="44.82286" lon="1.67901">
        <ele>325.54</ele>
        <time>2021-08-16T17:17:59Z</time>
      </trkpt>
      <trkpt lat="44.82272" lon="1.67908">
        <ele>326.02</ele>
        <time>2021-08-16T17:18:07Z</time>
      </trkpt>
      <trkpt lat="44.82249" lon="1.6791">
        <ele>326.99</ele>
        <time>2021-08-16T17:18:16Z</time>
      </trkpt>
      <trkpt lat="44.82223" lon="1.6791">
        <ele>326.99</ele>
        <time>2021-08-16T17:18:25Z</time>
      </trkpt>
      <trkpt lat="44.82204" lon="1.67911">
        <ele>327.47</ele>
        <time>2021-08-16T17:18:31Z</time>
      </trkpt>
      <trkpt lat="44.82177" lon="1.67913">
        <ele>327.47</ele>
        <time>2021-08-16T17:18:39Z</time>
      </trkpt>
      <trkpt lat="44.82146" lon="1.67916">
        <ele>328.43</ele>
        <time>2021-08-16T17:18:48Z</time>
      </trkpt>
      <trkpt lat="44.82123" lon="1.67911">
        <ele>329.39</ele>
        <time>2021-08-16T17:18:56Z</time>
      </trkpt>
      <trkpt lat="44.82109" lon="1.67904">
        <ele>329.87</ele>
        <time>2021-08-16T17:19:03Z</time>
      </trkpt>
      <trkpt lat="44.82097" lon="1.67901">
        <ele>330.83</ele>
        <time>2021-08-16T17:19:09Z</time>
      </trkpt>
      <trkpt lat="44.82086" lon="1.67904">
        <ele>332.27</ele>
        <time>2021-08-16T17:19:15Z</time>
      </trkpt>
      <trkpt lat="44.82073" lon="1.67896">
        <ele>332.75</ele>
        <time>2021-08-16T17:19:22Z</time>
      </trkpt>
      <trkpt lat="44.8206" lon="1.67884">
        <ele>333.23</ele>
        <time>2021-08-16T17:19:30Z</time>
      </trkpt>
      <trkpt lat="44.82059" lon="1.67882">
        <ele>333.71</ele>
        <time>2021-08-16T17:19:31Z</time>
      </trkpt>
      <trkpt lat="44.82057" lon="1.67881">
        <ele>333.71</ele>
        <time>2021-08-16T17:19:32Z</time>
      </trkpt>
      <trkpt lat="44.82056" lon="1.6788">
        <ele>333.71</ele>
        <time>2021-08-16T17:19:33Z</time>
      </trkpt>
      <trkpt lat="44.82054" lon="1.67878">
        <ele>333.71</ele>
        <time>2021-08-16T17:19:34Z</time>
      </trkpt>
      <trkpt lat="44.82052" lon="1.67876">
        <ele>334.2</ele>
        <time>2021-08-16T17:19:35Z</time>
      </trkpt>
      <trkpt lat="44.8205" lon="1.67874">
        <ele>334.2</ele>
        <time>2021-08-16T17:19:36Z</time>
      </trkpt>
      <trkpt lat="44.8204" lon="1.67866">
        <ele>335.16</ele>
        <time>2021-08-16T17:19:43Z</time>
      </trkpt>
      <trkpt lat="44.82033" lon="1.67857">
        <ele>336.12</ele>
        <time>2021-08-16T17:19:49Z</time>
      </trkpt>
      <trkpt lat="44.82024" lon="1.67849">
        <ele>337.56</ele>
        <time>2021-08-16T17:19:57Z</time>
      </trkpt>
      <trkpt lat="44.82016" lon="1.67843">
        <ele>339</ele>
        <time>2021-08-16T17:20:05Z</time>
      </trkpt>
      <trkpt lat="44.82009" lon="1.67834">
        <ele>339.48</ele>
        <time>2021-08-16T17:20:13Z</time>
      </trkpt>
      <trkpt lat="44.82001" lon="1.67826">
        <ele>340.92</ele>
        <time>2021-08-16T17:20:21Z</time>
      </trkpt>
      <trkpt lat="44.81994" lon="1.67819">
        <ele>341.89</ele>
        <time>2021-08-16T17:20:29Z</time>
      </trkpt>
      <trkpt lat="44.81986" lon="1.67812">
        <ele>342.85</ele>
        <time>2021-08-16T17:20:37Z</time>
      </trkpt>
      <trkpt lat="44.81979" lon="1.67807">
        <ele>343.81</ele>
        <time>2021-08-16T17:20:44Z</time>
      </trkpt>
      <trkpt lat="44.81969" lon="1.678">
        <ele>344.77</ele>
        <time>2021-08-16T17:20:53Z</time>
      </trkpt>
      <trkpt lat="44.81958" lon="1.67794">
        <ele>345.73</ele>
        <time>2021-08-16T17:21:01Z</time>
      </trkpt>
      <trkpt lat="44.81955" lon="1.67792">
        <ele>346.21</ele>
        <time>2021-08-16T17:21:09Z</time>
      </trkpt>
      <trkpt lat="44.81949" lon="1.67787">
        <ele>346.69</ele>
        <time>2021-08-16T17:21:18Z</time>
      </trkpt>
      <trkpt lat="44.81932" lon="1.67781">
        <ele>347.17</ele>
        <time>2021-08-16T17:21:26Z</time>
      </trkpt>
      <trkpt lat="44.81916" lon="1.67775">
        <ele>347.17</ele>
        <time>2021-08-16T17:21:33Z</time>
      </trkpt>
      <trkpt lat="44.81901" lon="1.67771">
        <ele>347.17</ele>
        <time>2021-08-16T17:21:39Z</time>
      </trkpt>
      <trkpt lat="44.81881" lon="1.67761">
        <ele>346.21</ele>
        <time>2021-08-16T17:21:48Z</time>
      </trkpt>
      <trkpt lat="44.81879" lon="1.6776">
        <ele>346.21</ele>
        <time>2021-08-16T17:21:49Z</time>
      </trkpt>
      <trkpt lat="44.81876" lon="1.67758">
        <ele>346.21</ele>
        <time>2021-08-16T17:21:50Z</time>
      </trkpt>
      <trkpt lat="44.81874" lon="1.67757">
        <ele>346.21</ele>
        <time>2021-08-16T17:21:51Z</time>
      </trkpt>
      <trkpt lat="44.81871" lon="1.67756">
        <ele>346.21</ele>
        <time>2021-08-16T17:21:52Z</time>
      </trkpt>
      <trkpt lat="44.81854" lon="1.67743">
        <ele>347.17</ele>
        <time>2021-08-16T17:21:59Z</time>
      </trkpt>
      <trkpt lat="44.81838" lon="1.67732">
        <ele>348.13</ele>
        <time>2021-08-16T17:22:05Z</time>
      </trkpt>
      <trkpt lat="44.81819" lon="1.67711">
        <ele>348.13</ele>
        <time>2021-08-16T17:22:12Z</time>
      </trkpt>
      <trkpt lat="44.81807" lon="1.67682">
        <ele>346.21</ele>
        <time>2021-08-16T17:22:18Z</time>
      </trkpt>
      <trkpt lat="44.81805" lon="1.67676">
        <ele>346.21</ele>
        <time>2021-08-16T17:22:19Z</time>
      </trkpt>
      <trkpt lat="44.81804" lon="1.67671">
        <ele>346.21</ele>
        <time>2021-08-16T17:22:20Z</time>
      </trkpt>
      <trkpt lat="44.81792" lon="1.67631">
        <ele>345.73</ele>
        <time>2021-08-16T17:22:27Z</time>
      </trkpt>
      <trkpt lat="44.8179" lon="1.67616">
        <ele>347.17</ele>
        <time>2021-08-16T17:22:32Z</time>
      </trkpt>
      <trkpt lat="44.81783" lon="1.67595">
        <ele>348.13</ele>
        <time>2021-08-16T17:22:40Z</time>
      </trkpt>
      <trkpt lat="44.81774" lon="1.67576">
        <ele>349.1</ele>
        <time>2021-08-16T17:22:47Z</time>
      </trkpt>
      <trkpt lat="44.81754" lon="1.67559">
        <ele>349.58</ele>
        <time>2021-08-16T17:22:55Z</time>
      </trkpt>
      <trkpt lat="44.81731" lon="1.6754">
        <ele>349.58</ele>
        <time>2021-08-16T17:23:03Z</time>
      </trkpt>
      <trkpt lat="44.8171" lon="1.67518">
        <ele>349.58</ele>
        <time>2021-08-16T17:23:09Z</time>
      </trkpt>
      <trkpt lat="44.81698" lon="1.67507">
        <ele>348.13</ele>
        <time>2021-08-16T17:23:12Z</time>
      </trkpt>
      <trkpt lat="44.81693" lon="1.67503">
        <ele>348.13</ele>
        <time>2021-08-16T17:23:13Z</time>
      </trkpt>
      <trkpt lat="44.81689" lon="1.675">
        <ele>347.65</ele>
        <time>2021-08-16T17:23:14Z</time>
      </trkpt>
      <trkpt lat="44.81684" lon="1.67498">
        <ele>347.65</ele>
        <time>2021-08-16T17:23:15Z</time>
      </trkpt>
      <trkpt lat="44.81679" lon="1.67496">
        <ele>347.17</ele>
        <time>2021-08-16T17:23:16Z</time>
      </trkpt>
      <trkpt lat="44.81674" lon="1.67496">
        <ele>347.17</ele>
        <time>2021-08-16T17:23:17Z</time>
      </trkpt>
      <trkpt lat="44.81668" lon="1.67495">
        <ele>346.69</ele>
        <time>2021-08-16T17:23:18Z</time>
      </trkpt>
      <trkpt lat="44.81628" lon="1.67491">
        <ele>344.29</ele>
        <time>2021-08-16T17:23:24Z</time>
      </trkpt>
      <trkpt lat="44.81602" lon="1.67483">
        <ele>342.37</ele>
        <time>2021-08-16T17:23:28Z</time>
      </trkpt>
      <trkpt lat="44.81595" lon="1.67479">
        <ele>341.89</ele>
        <time>2021-08-16T17:23:29Z</time>
      </trkpt>
      <trkpt lat="44.81589" lon="1.67473">
        <ele>341.89</ele>
        <time>2021-08-16T17:23:30Z</time>
      </trkpt>
      <trkpt lat="44.81584" lon="1.67467">
        <ele>340.92</ele>
        <time>2021-08-16T17:23:31Z</time>
      </trkpt>
      <trkpt lat="44.81578" lon="1.6746">
        <ele>340.92</ele>
        <time>2021-08-16T17:23:32Z</time>
      </trkpt>
      <trkpt lat="44.81573" lon="1.67452">
        <ele>340.92</ele>
        <time>2021-08-16T17:23:33Z</time>
      </trkpt>
      <trkpt lat="44.81569" lon="1.67445">
        <ele>340.92</ele>
        <time>2021-08-16T17:23:34Z</time>
      </trkpt>
      <trkpt lat="44.81538" lon="1.67409">
        <ele>337.56</ele>
        <time>2021-08-16T17:23:39Z</time>
      </trkpt>
      <trkpt lat="44.81515" lon="1.67377">
        <ele>334.68</ele>
        <time>2021-08-16T17:23:43Z</time>
      </trkpt>
      <trkpt lat="44.81492" lon="1.67329">
        <ele>333.23</ele>
        <time>2021-08-16T17:23:48Z</time>
      </trkpt>
      <trkpt lat="44.81487" lon="1.67322">
        <ele>332.75</ele>
        <time>2021-08-16T17:23:49Z</time>
      </trkpt>
      <trkpt lat="44.81481" lon="1.67316">
        <ele>332.27</ele>
        <time>2021-08-16T17:23:50Z</time>
      </trkpt>
      <trkpt lat="44.8146" lon="1.67293">
        <ele>329.87</ele>
        <time>2021-08-16T17:23:54Z</time>
      </trkpt>
      <trkpt lat="44.8145" lon="1.67276">
        <ele>329.39</ele>
        <time>2021-08-16T17:23:57Z</time>
      </trkpt>
      <trkpt lat="44.81446" lon="1.67273">
        <ele>328.43</ele>
        <time>2021-08-16T17:23:58Z</time>
      </trkpt>
      <trkpt lat="44.81442" lon="1.67269">
        <ele>327.95</ele>
        <time>2021-08-16T17:23:59Z</time>
      </trkpt>
      <trkpt lat="44.81438" lon="1.67264">
        <ele>327.47</ele>
        <time>2021-08-16T17:24:00Z</time>
      </trkpt>
      <trkpt lat="44.81434" lon="1.67257">
        <ele>327.47</ele>
        <time>2021-08-16T17:24:01Z</time>
      </trkpt>
      <trkpt lat="44.81431" lon="1.67251">
        <ele>326.99</ele>
        <time>2021-08-16T17:24:02Z</time>
      </trkpt>
      <trkpt lat="44.81427" lon="1.67243">
        <ele>326.5</ele>
        <time>2021-08-16T17:24:03Z</time>
      </trkpt>
      <trkpt lat="44.81424" lon="1.67236">
        <ele>326.5</ele>
        <time>2021-08-16T17:24:04Z</time>
      </trkpt>
      <trkpt lat="44.81395" lon="1.67174">
        <ele>324.58</ele>
        <time>2021-08-16T17:24:12Z</time>
      </trkpt>
      <trkpt lat="44.81389" lon="1.67164">
        <ele>324.58</ele>
        <time>2021-08-16T17:24:14Z</time>
      </trkpt>
      <trkpt lat="44.81384" lon="1.67161">
        <ele>323.62</ele>
        <time>2021-08-16T17:24:15Z</time>
      </trkpt>
      <trkpt lat="44.81378" lon="1.67157">
        <ele>322.66</ele>
        <time>2021-08-16T17:24:16Z</time>
      </trkpt>
      <trkpt lat="44.81373" lon="1.67153">
        <ele>321.7</ele>
        <time>2021-08-16T17:24:17Z</time>
      </trkpt>
      <trkpt lat="44.81367" lon="1.67148">
        <ele>320.74</ele>
        <time>2021-08-16T17:24:18Z</time>
      </trkpt>
      <trkpt lat="44.8136" lon="1.67142">
        <ele>319.3</ele>
        <time>2021-08-16T17:24:19Z</time>
      </trkpt>
      <trkpt lat="44.81329" lon="1.67116">
        <ele>315.93</ele>
        <time>2021-08-16T17:24:23Z</time>
      </trkpt>
      <trkpt lat="44.8132" lon="1.67109">
        <ele>315.93</ele>
        <time>2021-08-16T17:24:24Z</time>
      </trkpt>
      <trkpt lat="44.81303" lon="1.67098">
        <ele>314.01</ele>
        <time>2021-08-16T17:24:26Z</time>
      </trkpt>
      <trkpt lat="44.81295" lon="1.67095">
        <ele>313.05</ele>
        <time>2021-08-16T17:24:27Z</time>
      </trkpt>
      <trkpt lat="44.81286" lon="1.67092">
        <ele>313.05</ele>
        <time>2021-08-16T17:24:28Z</time>
      </trkpt>
      <trkpt lat="44.81268" lon="1.67088">
        <ele>312.57</ele>
        <time>2021-08-16T17:24:30Z</time>
      </trkpt>
      <trkpt lat="44.8126" lon="1.67088">
        <ele>312.57</ele>
        <time>2021-08-16T17:24:31Z</time>
      </trkpt>
      <trkpt lat="44.81251" lon="1.67088">
        <ele>312.57</ele>
        <time>2021-08-16T17:24:32Z</time>
      </trkpt>
      <trkpt lat="44.81243" lon="1.6709">
        <ele>312.57</ele>
        <time>2021-08-16T17:24:33Z</time>
      </trkpt>
      <trkpt lat="44.81235" lon="1.67092">
        <ele>312.57</ele>
        <time>2021-08-16T17:24:34Z</time>
      </trkpt>
      <trkpt lat="44.81228" lon="1.67095">
        <ele>313.05</ele>
        <time>2021-08-16T17:24:35Z</time>
      </trkpt>
      <trkpt lat="44.8122" lon="1.67099">
        <ele>313.05</ele>
        <time>2021-08-16T17:24:36Z</time>
      </trkpt>
      <trkpt lat="44.81185" lon="1.67117">
        <ele>314.97</ele>
        <time>2021-08-16T17:24:42Z</time>
      </trkpt>
      <trkpt lat="44.81155" lon="1.67134">
        <ele>315.45</ele>
        <time>2021-08-16T17:24:48Z</time>
      </trkpt>
      <trkpt lat="44.81147" lon="1.67138">
        <ele>315.45</ele>
        <time>2021-08-16T17:24:50Z</time>
      </trkpt>
      <trkpt lat="44.81118" lon="1.67142">
        <ele>314.01</ele>
        <time>2021-08-16T17:24:56Z</time>
      </trkpt>
      <trkpt lat="44.81107" lon="1.67144">
        <ele>313.53</ele>
        <time>2021-08-16T17:24:58Z</time>
      </trkpt>
      <trkpt lat="44.81085" lon="1.67154">
        <ele>313.05</ele>
        <time>2021-08-16T17:25:02Z</time>
      </trkpt>
      <trkpt lat="44.8108" lon="1.67154">
        <ele>313.05</ele>
        <time>2021-08-16T17:25:03Z</time>
      </trkpt>
      <trkpt lat="44.81075" lon="1.67152">
        <ele>312.09</ele>
        <time>2021-08-16T17:25:04Z</time>
      </trkpt>
      <trkpt lat="44.81071" lon="1.67146">
        <ele>311.6</ele>
        <time>2021-08-16T17:25:05Z</time>
      </trkpt>
      <trkpt lat="44.81069" lon="1.67139">
        <ele>311.6</ele>
        <time>2021-08-16T17:25:06Z</time>
      </trkpt>
      <trkpt lat="44.81068" lon="1.67132">
        <ele>311.6</ele>
        <time>2021-08-16T17:25:07Z</time>
      </trkpt>
      <trkpt lat="44.81068" lon="1.67124">
        <ele>311.12</ele>
        <time>2021-08-16T17:25:08Z</time>
      </trkpt>
      <trkpt lat="44.81068" lon="1.67117">
        <ele>311.6</ele>
        <time>2021-08-16T17:25:09Z</time>
      </trkpt>
      <trkpt lat="44.81066" lon="1.67095">
        <ele>311.12</ele>
        <time>2021-08-16T17:25:12Z</time>
      </trkpt>
      <trkpt lat="44.81064" lon="1.6708">
        <ele>311.12</ele>
        <time>2021-08-16T17:25:14Z</time>
      </trkpt>
      <trkpt lat="44.81062" lon="1.67073">
        <ele>310.64</ele>
        <time>2021-08-16T17:25:15Z</time>
      </trkpt>
      <trkpt lat="44.8106" lon="1.67066">
        <ele>310.64</ele>
        <time>2021-08-16T17:25:16Z</time>
      </trkpt>
      <trkpt lat="44.81055" lon="1.67059">
        <ele>309.68</ele>
        <time>2021-08-16T17:25:17Z</time>
      </trkpt>
      <trkpt lat="44.81052" lon="1.67056">
        <ele>309.68</ele>
        <time>2021-08-16T17:25:18Z</time>
      </trkpt>
      <trkpt lat="44.81046" lon="1.67053">
        <ele>309.2</ele>
        <time>2021-08-16T17:25:19Z</time>
      </trkpt>
      <trkpt lat="44.8104" lon="1.67052">
        <ele>309.2</ele>
        <time>2021-08-16T17:25:20Z</time>
      </trkpt>
      <trkpt lat="44.81033" lon="1.67051">
        <ele>308.72</ele>
        <time>2021-08-16T17:25:21Z</time>
      </trkpt>
      <trkpt lat="44.81021" lon="1.6705">
        <ele>308.24</ele>
        <time>2021-08-16T17:25:23Z</time>
      </trkpt>
      <trkpt lat="44.81015" lon="1.67047">
        <ele>308.24</ele>
        <time>2021-08-16T17:25:24Z</time>
      </trkpt>
      <trkpt lat="44.81009" lon="1.67044">
        <ele>307.76</ele>
        <time>2021-08-16T17:25:25Z</time>
      </trkpt>
      <trkpt lat="44.81004" lon="1.6704">
        <ele>307.76</ele>
        <time>2021-08-16T17:25:26Z</time>
      </trkpt>
      <trkpt lat="44.80998" lon="1.67035">
        <ele>307.28</ele>
        <time>2021-08-16T17:25:27Z</time>
      </trkpt>
      <trkpt lat="44.80972" lon="1.67009">
        <ele>306.32</ele>
        <time>2021-08-16T17:25:32Z</time>
      </trkpt>
      <trkpt lat="44.80948" lon="1.66976">
        <ele>305.84</ele>
        <time>2021-08-16T17:25:38Z</time>
      </trkpt>
      <trkpt lat="44.80943" lon="1.66972">
        <ele>305.84</ele>
        <time>2021-08-16T17:25:39Z</time>
      </trkpt>
      <trkpt lat="44.80938" lon="1.66969">
        <ele>305.84</ele>
        <time>2021-08-16T17:25:40Z</time>
      </trkpt>
      <trkpt lat="44.80934" lon="1.66966">
        <ele>305.84</ele>
        <time>2021-08-16T17:25:41Z</time>
      </trkpt>
      <trkpt lat="44.80929" lon="1.66964">
        <ele>305.84</ele>
        <time>2021-08-16T17:25:42Z</time>
      </trkpt>
      <trkpt lat="44.80912" lon="1.66954">
        <ele>305.36</ele>
        <time>2021-08-16T17:25:45Z</time>
      </trkpt>
      <trkpt lat="44.80906" lon="1.66951">
        <ele>304.88</ele>
        <time>2021-08-16T17:25:46Z</time>
      </trkpt>
      <trkpt lat="44.80884" lon="1.66938">
        <ele>303.91</ele>
        <time>2021-08-16T17:25:50Z</time>
      </trkpt>
      <trkpt lat="44.80878" lon="1.66937">
        <ele>303.43</ele>
        <time>2021-08-16T17:25:51Z</time>
      </trkpt>
      <trkpt lat="44.8087" lon="1.66938">
        <ele>302.95</ele>
        <time>2021-08-16T17:25:52Z</time>
      </trkpt>
      <trkpt lat="44.80826" lon="1.66941">
        <ele>301.03</ele>
        <time>2021-08-16T17:25:59Z</time>
      </trkpt>
      <trkpt lat="44.8082" lon="1.66939">
        <ele>300.07</ele>
        <time>2021-08-16T17:26:00Z</time>
      </trkpt>
      <trkpt lat="44.80813" lon="1.66936">
        <ele>299.59</ele>
        <time>2021-08-16T17:26:01Z</time>
      </trkpt>
      <trkpt lat="44.8081" lon="1.66932">
        <ele>299.11</ele>
        <time>2021-08-16T17:26:02Z</time>
      </trkpt>
      <trkpt lat="44.80806" lon="1.66925">
        <ele>299.11</ele>
        <time>2021-08-16T17:26:03Z</time>
      </trkpt>
      <trkpt lat="44.80802" lon="1.66917">
        <ele>298.63</ele>
        <time>2021-08-16T17:26:04Z</time>
      </trkpt>
      <trkpt lat="44.80799" lon="1.66911">
        <ele>298.63</ele>
        <time>2021-08-16T17:26:05Z</time>
      </trkpt>
      <trkpt lat="44.80795" lon="1.66904">
        <ele>298.63</ele>
        <time>2021-08-16T17:26:06Z</time>
      </trkpt>
      <trkpt lat="44.8079" lon="1.66898">
        <ele>298.63</ele>
        <time>2021-08-16T17:26:07Z</time>
      </trkpt>
      <trkpt lat="44.80784" lon="1.66892">
        <ele>298.63</ele>
        <time>2021-08-16T17:26:08Z</time>
      </trkpt>
      <trkpt lat="44.80772" lon="1.66884">
        <ele>297.67</ele>
        <time>2021-08-16T17:26:10Z</time>
      </trkpt>
      <trkpt lat="44.80766" lon="1.66881">
        <ele>297.18</ele>
        <time>2021-08-16T17:26:11Z</time>
      </trkpt>
      <trkpt lat="44.80738" lon="1.66872">
        <ele>295.74</ele>
        <time>2021-08-16T17:26:15Z</time>
      </trkpt>
      <trkpt lat="44.80726" lon="1.66866">
        <ele>295.26</ele>
        <time>2021-08-16T17:26:17Z</time>
      </trkpt>
      <trkpt lat="44.8072" lon="1.66861">
        <ele>295.26</ele>
        <time>2021-08-16T17:26:18Z</time>
      </trkpt>
      <trkpt lat="44.80716" lon="1.66855">
        <ele>295.26</ele>
        <time>2021-08-16T17:26:19Z</time>
      </trkpt>
      <trkpt lat="44.80714" lon="1.66847">
        <ele>295.26</ele>
        <time>2021-08-16T17:26:20Z</time>
      </trkpt>
      <trkpt lat="44.80712" lon="1.66839">
        <ele>294.78</ele>
        <time>2021-08-16T17:26:21Z</time>
      </trkpt>
      <trkpt lat="44.8071" lon="1.66831">
        <ele>294.78</ele>
        <time>2021-08-16T17:26:22Z</time>
      </trkpt>
      <trkpt lat="44.80696" lon="1.66753">
        <ele>292.38</ele>
        <time>2021-08-16T17:26:31Z</time>
      </trkpt>
      <trkpt lat="44.80681" lon="1.66686">
        <ele>291.42</ele>
        <time>2021-08-16T17:26:39Z</time>
      </trkpt>
      <trkpt lat="44.80673" lon="1.66652">
        <ele>291.42</ele>
        <time>2021-08-16T17:26:45Z</time>
      </trkpt>
      <trkpt lat="44.80672" lon="1.66649">
        <ele>292.38</ele>
        <time>2021-08-16T17:26:50Z</time>
      </trkpt>
      <trkpt lat="44.80669" lon="1.66641">
        <ele>292.38</ele>
        <time>2021-08-16T17:26:58Z</time>
      </trkpt>
      <trkpt lat="44.8066" lon="1.66618">
        <ele>292.38</ele>
        <time>2021-08-16T17:27:05Z</time>
      </trkpt>
      <trkpt lat="44.80642" lon="1.6658">
        <ele>293.34</ele>
        <time>2021-08-16T17:27:14Z</time>
      </trkpt>
      <trkpt lat="44.80626" lon="1.66545">
        <ele>293.82</ele>
        <time>2021-08-16T17:27:22Z</time>
      </trkpt>
      <trkpt lat="44.80611" lon="1.665">
        <ele>293.82</ele>
        <time>2021-08-16T17:27:31Z</time>
      </trkpt>
      <trkpt lat="44.80594" lon="1.66445">
        <ele>293.82</ele>
        <time>2021-08-16T17:27:40Z</time>
      </trkpt>
      <trkpt lat="44.80585" lon="1.66395">
        <ele>293.82</ele>
        <time>2021-08-16T17:27:48Z</time>
      </trkpt>
      <trkpt lat="44.80583" lon="1.66368">
        <ele>293.82</ele>
        <time>2021-08-16T17:27:52Z</time>
      </trkpt>
      <trkpt lat="44.80582" lon="1.66361">
        <ele>293.82</ele>
        <time>2021-08-16T17:27:53Z</time>
      </trkpt>
      <trkpt lat="44.80586" lon="1.66325">
        <ele>291.9</ele>
        <time>2021-08-16T17:27:59Z</time>
      </trkpt>
      <trkpt lat="44.80591" lon="1.66299">
        <ele>291.42</ele>
        <time>2021-08-16T17:28:03Z</time>
      </trkpt>
      <trkpt lat="44.80604" lon="1.66269">
        <ele>290.46</ele>
        <time>2021-08-16T17:28:08Z</time>
      </trkpt>
      <trkpt lat="44.80625" lon="1.66237">
        <ele>290.46</ele>
        <time>2021-08-16T17:28:15Z</time>
      </trkpt>
      <trkpt lat="44.80641" lon="1.66226">
        <ele>290.46</ele>
        <time>2021-08-16T17:28:19Z</time>
      </trkpt>
      <trkpt lat="44.8067" lon="1.66195">
        <ele>290.46</ele>
        <time>2021-08-16T17:28:27Z</time>
      </trkpt>
      <trkpt lat="44.80698" lon="1.66166">
        <ele>289.49</ele>
        <time>2021-08-16T17:28:35Z</time>
      </trkpt>
      <trkpt lat="44.80727" lon="1.66143">
        <ele>289.01</ele>
        <time>2021-08-16T17:28:43Z</time>
      </trkpt>
      <trkpt lat="44.80749" lon="1.66131">
        <ele>288.53</ele>
        <time>2021-08-16T17:28:49Z</time>
      </trkpt>
      <trkpt lat="44.80761" lon="1.66125">
        <ele>288.53</ele>
        <time>2021-08-16T17:28:52Z</time>
      </trkpt>
      <trkpt lat="44.80782" lon="1.66096">
        <ele>287.57</ele>
        <time>2021-08-16T17:28:58Z</time>
      </trkpt>
      <trkpt lat="44.80797" lon="1.66069">
        <ele>287.09</ele>
        <time>2021-08-16T17:29:03Z</time>
      </trkpt>
      <trkpt lat="44.8081" lon="1.66058">
        <ele>287.09</ele>
        <time>2021-08-16T17:29:06Z</time>
      </trkpt>
      <trkpt lat="44.8083" lon="1.66035">
        <ele>286.13</ele>
        <time>2021-08-16T17:29:11Z</time>
      </trkpt>
      <trkpt lat="44.80857" lon="1.66009">
        <ele>286.13</ele>
        <time>2021-08-16T17:29:17Z</time>
      </trkpt>
      <trkpt lat="44.80872" lon="1.65987">
        <ele>285.17</ele>
        <time>2021-08-16T17:29:22Z</time>
      </trkpt>
      <trkpt lat="44.80891" lon="1.65972">
        <ele>285.17</ele>
        <time>2021-08-16T17:29:27Z</time>
      </trkpt>
      <trkpt lat="44.80901" lon="1.65969">
        <ele>284.69</ele>
        <time>2021-08-16T17:29:29Z</time>
      </trkpt>
      <trkpt lat="44.80932" lon="1.65961">
        <ele>286.13</ele>
        <time>2021-08-16T17:29:36Z</time>
      </trkpt>
      <trkpt lat="44.8095" lon="1.65965">
        <ele>286.61</ele>
        <time>2021-08-16T17:29:41Z</time>
      </trkpt>
      <trkpt lat="44.80964" lon="1.65968">
        <ele>287.57</ele>
        <time>2021-08-16T17:29:46Z</time>
      </trkpt>
      <trkpt lat="44.8098" lon="1.65962">
        <ele>288.53</ele>
        <time>2021-08-16T17:29:53Z</time>
      </trkpt>
      <trkpt lat="44.80981" lon="1.65959">
        <ele>288.53</ele>
        <time>2021-08-16T17:29:54Z</time>
      </trkpt>
      <trkpt lat="44.80982" lon="1.65956">
        <ele>288.53</ele>
        <time>2021-08-16T17:29:55Z</time>
      </trkpt>
      <trkpt lat="44.80983" lon="1.65952">
        <ele>288.53</ele>
        <time>2021-08-16T17:29:56Z</time>
      </trkpt>
      <trkpt lat="44.80983" lon="1.65948">
        <ele>288.53</ele>
        <time>2021-08-16T17:29:57Z</time>
      </trkpt>
      <trkpt lat="44.80983" lon="1.65945">
        <ele>289.01</ele>
        <time>2021-08-16T17:29:58Z</time>
      </trkpt>
      <trkpt lat="44.80983" lon="1.65941">
        <ele>289.01</ele>
        <time>2021-08-16T17:29:59Z</time>
      </trkpt>
      <trkpt lat="44.80983" lon="1.65937">
        <ele>289.01</ele>
        <time>2021-08-16T17:30:00Z</time>
      </trkpt>
      <trkpt lat="44.80982" lon="1.65904">
        <ele>289.01</ele>
        <time>2021-08-16T17:30:06Z</time>
      </trkpt>
      <trkpt lat="44.80983" lon="1.6589">
        <ele>287.09</ele>
        <time>2021-08-16T17:30:08Z</time>
      </trkpt>
      <trkpt lat="44.80985" lon="1.65883">
        <ele>286.13</ele>
        <time>2021-08-16T17:30:09Z</time>
      </trkpt>
      <trkpt lat="44.80987" lon="1.65875">
        <ele>285.65</ele>
        <time>2021-08-16T17:30:10Z</time>
      </trkpt>
      <trkpt lat="44.80989" lon="1.65868">
        <ele>285.65</ele>
        <time>2021-08-16T17:30:11Z</time>
      </trkpt>
      <trkpt lat="44.81007" lon="1.65808">
        <ele>283.25</ele>
        <time>2021-08-16T17:30:18Z</time>
      </trkpt>
      <trkpt lat="44.81033" lon="1.65729">
        <ele>279.88</ele>
        <time>2021-08-16T17:30:26Z</time>
      </trkpt>
      <trkpt lat="44.81056" lon="1.65666">
        <ele>279.4</ele>
        <time>2021-08-16T17:30:33Z</time>
      </trkpt>
      <trkpt lat="44.81059" lon="1.65658">
        <ele>279.4</ele>
        <time>2021-08-16T17:30:34Z</time>
      </trkpt>
      <trkpt lat="44.81068" lon="1.65634">
        <ele>279.4</ele>
        <time>2021-08-16T17:30:37Z</time>
      </trkpt>
      <trkpt lat="44.81081" lon="1.65588">
        <ele>279.4</ele>
        <time>2021-08-16T17:30:43Z</time>
      </trkpt>
      <trkpt lat="44.81083" lon="1.65571">
        <ele>278.92</ele>
        <time>2021-08-16T17:30:45Z</time>
      </trkpt>
      <trkpt lat="44.81084" lon="1.65561">
        <ele>278.92</ele>
        <time>2021-08-16T17:30:46Z</time>
      </trkpt>
      <trkpt lat="44.81084" lon="1.65478">
        <ele>277.48</ele>
        <time>2021-08-16T17:30:55Z</time>
      </trkpt>
      <trkpt lat="44.81085" lon="1.65433">
        <ele>276.52</ele>
        <time>2021-08-16T17:31:00Z</time>
      </trkpt>
      <trkpt lat="44.81083" lon="1.65387">
        <ele>275.56</ele>
        <time>2021-08-16T17:31:05Z</time>
      </trkpt>
      <trkpt lat="44.81086" lon="1.65309">
        <ele>274.59</ele>
        <time>2021-08-16T17:31:13Z</time>
      </trkpt>
      <trkpt lat="44.81083" lon="1.65256">
        <ele>276.52</ele>
        <time>2021-08-16T17:31:20Z</time>
      </trkpt>
      <trkpt lat="44.81083" lon="1.65249">
        <ele>277</ele>
        <time>2021-08-16T17:31:21Z</time>
      </trkpt>
      <trkpt lat="44.81083" lon="1.65242">
        <ele>277</ele>
        <time>2021-08-16T17:31:22Z</time>
      </trkpt>
      <trkpt lat="44.8108" lon="1.6517">
        <ele>277</ele>
        <time>2021-08-16T17:31:32Z</time>
      </trkpt>
      <trkpt lat="44.81079" lon="1.65146">
        <ele>275.56</ele>
        <time>2021-08-16T17:31:35Z</time>
      </trkpt>
      <trkpt lat="44.81077" lon="1.65102">
        <ele>273.15</ele>
        <time>2021-08-16T17:31:40Z</time>
      </trkpt>
      <trkpt lat="44.81074" lon="1.65084">
        <ele>272.67</ele>
        <time>2021-08-16T17:31:42Z</time>
      </trkpt>
      <trkpt lat="44.81059" lon="1.65031">
        <ele>274.59</ele>
        <time>2021-08-16T17:31:49Z</time>
      </trkpt>
      <trkpt lat="44.81049" lon="1.64996">
        <ele>275.56</ele>
        <time>2021-08-16T17:31:56Z</time>
      </trkpt>
      <trkpt lat="44.81044" lon="1.6497">
        <ele>277.48</ele>
        <time>2021-08-16T17:32:03Z</time>
      </trkpt>
      <trkpt lat="44.81041" lon="1.64945">
        <ele>278.92</ele>
        <time>2021-08-16T17:32:10Z</time>
      </trkpt>
      <trkpt lat="44.81039" lon="1.64922">
        <ele>280.36</ele>
        <time>2021-08-16T17:32:18Z</time>
      </trkpt>
      <trkpt lat="44.81036" lon="1.64896">
        <ele>281.32</ele>
        <time>2021-08-16T17:32:27Z</time>
      </trkpt>
      <trkpt lat="44.81035" lon="1.6487">
        <ele>281.8</ele>
        <time>2021-08-16T17:32:36Z</time>
      </trkpt>
      <trkpt lat="44.8103" lon="1.64844">
        <ele>283.73</ele>
        <time>2021-08-16T17:32:45Z</time>
      </trkpt>
      <trkpt lat="44.8102" lon="1.64816">
        <ele>283.73</ele>
        <time>2021-08-16T17:32:53Z</time>
      </trkpt>
      <trkpt lat="44.81008" lon="1.64782">
        <ele>284.69</ele>
        <time>2021-08-16T17:33:02Z</time>
      </trkpt>
      <trkpt lat="44.80993" lon="1.64738">
        <ele>284.69</ele>
        <time>2021-08-16T17:33:11Z</time>
      </trkpt>
      <trkpt lat="44.80988" lon="1.64707">
        <ele>284.21</ele>
        <time>2021-08-16T17:33:16Z</time>
      </trkpt>
      <trkpt lat="44.80983" lon="1.64634">
        <ele>284.21</ele>
        <time>2021-08-16T17:33:27Z</time>
      </trkpt>
      <trkpt lat="44.8098" lon="1.64589">
        <ele>285.65</ele>
        <time>2021-08-16T17:33:35Z</time>
      </trkpt>
      <trkpt lat="44.80978" lon="1.64547">
        <ele>286.61</ele>
        <time>2021-08-16T17:33:43Z</time>
      </trkpt>
      <trkpt lat="44.80974" lon="1.64526">
        <ele>286.61</ele>
        <time>2021-08-16T17:33:47Z</time>
      </trkpt>
      <trkpt lat="44.80972" lon="1.64521">
        <ele>286.61</ele>
        <time>2021-08-16T17:33:48Z</time>
      </trkpt>
      <trkpt lat="44.80963" lon="1.64499">
        <ele>286.61</ele>
        <time>2021-08-16T17:33:52Z</time>
      </trkpt>
      <trkpt lat="44.80962" lon="1.64494">
        <ele>286.61</ele>
        <time>2021-08-16T17:33:53Z</time>
      </trkpt>
      <trkpt lat="44.80942" lon="1.64443">
        <ele>283.73</ele>
        <time>2021-08-16T17:34:01Z</time>
      </trkpt>
      <trkpt lat="44.80923" lon="1.64391">
        <ele>280.84</ele>
        <time>2021-08-16T17:34:07Z</time>
      </trkpt>
      <trkpt lat="44.8091" lon="1.64349">
        <ele>277</ele>
        <time>2021-08-16T17:34:11Z</time>
      </trkpt>
      <trkpt lat="44.80903" lon="1.64312">
        <ele>275.56</ele>
        <time>2021-08-16T17:34:14Z</time>
      </trkpt>
      <trkpt lat="44.80886" lon="1.64252">
        <ele>276.52</ele>
        <time>2021-08-16T17:34:20Z</time>
      </trkpt>
      <trkpt lat="44.80883" lon="1.64243">
        <ele>276.04</ele>
        <time>2021-08-16T17:34:21Z</time>
      </trkpt>
      <trkpt lat="44.80873" lon="1.64201">
        <ele>277</ele>
        <time>2021-08-16T17:34:27Z</time>
      </trkpt>
      <trkpt lat="44.80864" lon="1.64132">
        <ele>277.96</ele>
        <time>2021-08-16T17:34:37Z</time>
      </trkpt>
      <trkpt lat="44.8086" lon="1.64098">
        <ele>277.96</ele>
        <time>2021-08-16T17:34:42Z</time>
      </trkpt>
      <trkpt lat="44.80858" lon="1.64091">
        <ele>277.96</ele>
        <time>2021-08-16T17:34:43Z</time>
      </trkpt>
      <trkpt lat="44.80857" lon="1.64086">
        <ele>277.96</ele>
        <time>2021-08-16T17:34:44Z</time>
      </trkpt>
      <trkpt lat="44.80856" lon="1.64079">
        <ele>277.96</ele>
        <time>2021-08-16T17:34:45Z</time>
      </trkpt>
      <trkpt lat="44.80855" lon="1.64073">
        <ele>277.96</ele>
        <time>2021-08-16T17:34:46Z</time>
      </trkpt>
      <trkpt lat="44.80854" lon="1.64058">
        <ele>277.96</ele>
        <time>2021-08-16T17:34:48Z</time>
      </trkpt>
      <trkpt lat="44.80847" lon="1.6401">
        <ele>277.48</ele>
        <time>2021-08-16T17:34:54Z</time>
      </trkpt>
      <trkpt lat="44.80844" lon="1.64002">
        <ele>276.04</ele>
        <time>2021-08-16T17:34:55Z</time>
      </trkpt>
      <trkpt lat="44.80841" lon="1.63994">
        <ele>275.56</ele>
        <time>2021-08-16T17:34:56Z</time>
      </trkpt>
      <trkpt lat="44.80819" lon="1.63941">
        <ele>271.71</ele>
        <time>2021-08-16T17:35:02Z</time>
      </trkpt>
      <trkpt lat="44.80797" lon="1.63872">
        <ele>270.75</ele>
        <time>2021-08-16T17:35:09Z</time>
      </trkpt>
      <trkpt lat="44.80771" lon="1.63791">
        <ele>269.79</ele>
        <time>2021-08-16T17:35:18Z</time>
      </trkpt>
      <trkpt lat="44.80754" lon="1.63729">
        <ele>269.31</ele>
        <time>2021-08-16T17:35:25Z</time>
      </trkpt>
      <trkpt lat="44.80747" lon="1.63702">
        <ele>268.35</ele>
        <time>2021-08-16T17:35:28Z</time>
      </trkpt>
      <trkpt lat="44.80743" lon="1.63694">
        <ele>268.35</ele>
        <time>2021-08-16T17:35:29Z</time>
      </trkpt>
      <trkpt lat="44.80725" lon="1.63655">
        <ele>268.35</ele>
        <time>2021-08-16T17:35:34Z</time>
      </trkpt>
      <trkpt lat="44.80722" lon="1.63647">
        <ele>268.35</ele>
        <time>2021-08-16T17:35:35Z</time>
      </trkpt>
      <trkpt lat="44.80702" lon="1.63612">
        <ele>268.35</ele>
        <time>2021-08-16T17:35:40Z</time>
      </trkpt>
      <trkpt lat="44.80698" lon="1.63608">
        <ele>268.35</ele>
        <time>2021-08-16T17:35:41Z</time>
      </trkpt>
      <trkpt lat="44.80693" lon="1.63603">
        <ele>268.35</ele>
        <time>2021-08-16T17:35:42Z</time>
      </trkpt>
      <trkpt lat="44.80684" lon="1.63595">
        <ele>269.79</ele>
        <time>2021-08-16T17:35:44Z</time>
      </trkpt>
      <trkpt lat="44.80658" lon="1.6357">
        <ele>270.75</ele>
        <time>2021-08-16T17:35:51Z</time>
      </trkpt>
      <trkpt lat="44.80655" lon="1.63566">
        <ele>270.75</ele>
        <time>2021-08-16T17:35:52Z</time>
      </trkpt>
      <trkpt lat="44.80653" lon="1.6356">
        <ele>270.75</ele>
        <time>2021-08-16T17:35:53Z</time>
      </trkpt>
      <trkpt lat="44.80653" lon="1.63555">
        <ele>270.75</ele>
        <time>2021-08-16T17:35:54Z</time>
      </trkpt>
      <trkpt lat="44.80653" lon="1.63549">
        <ele>270.75</ele>
        <time>2021-08-16T17:35:55Z</time>
      </trkpt>
      <trkpt lat="44.80654" lon="1.63543">
        <ele>270.75</ele>
        <time>2021-08-16T17:35:56Z</time>
      </trkpt>
      <trkpt lat="44.80655" lon="1.63536">
        <ele>270.75</ele>
        <time>2021-08-16T17:35:57Z</time>
      </trkpt>
      <trkpt lat="44.80657" lon="1.6353">
        <ele>270.75</ele>
        <time>2021-08-16T17:35:58Z</time>
      </trkpt>
      <trkpt lat="44.80659" lon="1.63524">
        <ele>270.75</ele>
        <time>2021-08-16T17:35:59Z</time>
      </trkpt>
      <trkpt lat="44.8066" lon="1.63518">
        <ele>270.75</ele>
        <time>2021-08-16T17:36:00Z</time>
      </trkpt>
      <trkpt lat="44.80661" lon="1.63511">
        <ele>269.79</ele>
        <time>2021-08-16T17:36:01Z</time>
      </trkpt>
      <trkpt lat="44.80673" lon="1.63453">
        <ele>267.38</ele>
        <time>2021-08-16T17:36:09Z</time>
      </trkpt>
      <trkpt lat="44.80688" lon="1.63365">
        <ele>264.5</ele>
        <time>2021-08-16T17:36:19Z</time>
      </trkpt>
      <trkpt lat="44.8069" lon="1.63329">
        <ele>264.02</ele>
        <time>2021-08-16T17:36:23Z</time>
      </trkpt>
      <trkpt lat="44.80699" lon="1.6327">
        <ele>262.1</ele>
        <time>2021-08-16T17:36:30Z</time>
      </trkpt>
      <trkpt lat="44.80709" lon="1.63179">
        <ele>260.17</ele>
        <time>2021-08-16T17:36:40Z</time>
      </trkpt>
      <trkpt lat="44.80709" lon="1.63098">
        <ele>259.21</ele>
        <time>2021-08-16T17:36:49Z</time>
      </trkpt>
      <trkpt lat="44.80705" lon="1.63071">
        <ele>258.25</ele>
        <time>2021-08-16T17:36:52Z</time>
      </trkpt>
      <trkpt lat="44.80701" lon="1.63056">
        <ele>257.29</ele>
        <time>2021-08-16T17:36:54Z</time>
      </trkpt>
      <trkpt lat="44.80699" lon="1.63048">
        <ele>257.29</ele>
        <time>2021-08-16T17:36:55Z</time>
      </trkpt>
      <trkpt lat="44.80698" lon="1.6304">
        <ele>257.29</ele>
        <time>2021-08-16T17:36:56Z</time>
      </trkpt>
      <trkpt lat="44.80698" lon="1.6303">
        <ele>257.29</ele>
        <time>2021-08-16T17:36:57Z</time>
      </trkpt>
      <trkpt lat="44.80697" lon="1.63022">
        <ele>257.29</ele>
        <time>2021-08-16T17:36:58Z</time>
      </trkpt>
      <trkpt lat="44.80698" lon="1.63012">
        <ele>257.29</ele>
        <time>2021-08-16T17:36:59Z</time>
      </trkpt>
      <trkpt lat="44.80699" lon="1.63004">
        <ele>256.81</ele>
        <time>2021-08-16T17:37:00Z</time>
      </trkpt>
      <trkpt lat="44.80705" lon="1.62961">
        <ele>256.81</ele>
        <time>2021-08-16T17:37:06Z</time>
      </trkpt>
      <trkpt lat="44.80707" lon="1.62942">
        <ele>256.81</ele>
        <time>2021-08-16T17:37:11Z</time>
      </trkpt>
      <trkpt lat="44.80706" lon="1.6294">
        <ele>256.81</ele>
        <time>2021-08-16T17:37:12Z</time>
      </trkpt>
      <trkpt lat="44.80706" lon="1.62936">
        <ele>256.81</ele>
        <time>2021-08-16T17:37:13Z</time>
      </trkpt>
      <trkpt lat="44.80706" lon="1.62931">
        <ele>256.81</ele>
        <time>2021-08-16T17:37:14Z</time>
      </trkpt>
      <trkpt lat="44.80705" lon="1.62927">
        <ele>256.81</ele>
        <time>2021-08-16T17:37:15Z</time>
      </trkpt>
      <trkpt lat="44.80704" lon="1.62922">
        <ele>256.81</ele>
        <time>2021-08-16T17:37:16Z</time>
      </trkpt>
      <trkpt lat="44.80702" lon="1.62916">
        <ele>256.33</ele>
        <time>2021-08-16T17:37:17Z</time>
      </trkpt>
      <trkpt lat="44.80696" lon="1.629">
        <ele>256.33</ele>
        <time>2021-08-16T17:37:20Z</time>
      </trkpt>
      <trkpt lat="44.80692" lon="1.62888">
        <ele>255.85</ele>
        <time>2021-08-16T17:37:22Z</time>
      </trkpt>
      <trkpt lat="44.80674" lon="1.62845">
        <ele>255.85</ele>
        <time>2021-08-16T17:37:30Z</time>
      </trkpt>
      <trkpt lat="44.80677" lon="1.62824">
        <ele>255.85</ele>
        <time>2021-08-16T17:37:34Z</time>
      </trkpt>
      <trkpt lat="44.80683" lon="1.62817">
        <ele>255.85</ele>
        <time>2021-08-16T17:37:36Z</time>
      </trkpt>
      <trkpt lat="44.80692" lon="1.62793">
        <ele>255.85</ele>
        <time>2021-08-16T17:37:41Z</time>
      </trkpt>
      <trkpt lat="44.80703" lon="1.62778">
        <ele>255.85</ele>
        <time>2021-08-16T17:37:46Z</time>
      </trkpt>
      <trkpt lat="44.80703" lon="1.62775">
        <ele>255.85</ele>
        <time>2021-08-16T17:37:47Z</time>
      </trkpt>
      <trkpt lat="44.80702" lon="1.62773">
        <ele>256.81</ele>
        <time>2021-08-16T17:37:48Z</time>
      </trkpt>
      <trkpt lat="44.80701" lon="1.62771">
        <ele>256.81</ele>
        <time>2021-08-16T17:37:49Z</time>
      </trkpt>
      <trkpt lat="44.80702" lon="1.6277">
        <ele>256.81</ele>
        <time>2021-08-16T17:37:53Z</time>
      </trkpt>
      <trkpt lat="44.80703" lon="1.62769">
        <ele>256.81</ele>
        <time>2021-08-16T17:37:54Z</time>
      </trkpt>
      <trkpt lat="44.80704" lon="1.62769">
        <ele>256.81</ele>
        <time>2021-08-16T17:37:55Z</time>
      </trkpt>
      <trkpt lat="44.80705" lon="1.62771">
        <ele>256.81</ele>
        <time>2021-08-16T17:37:56Z</time>
      </trkpt>
      <trkpt lat="44.80706" lon="1.62774">
        <ele>256.81</ele>
        <time>2021-08-16T17:37:57Z</time>
      </trkpt>
      <trkpt lat="44.80707" lon="1.62777">
        <ele>256.81</ele>
        <time>2021-08-16T17:37:58Z</time>
      </trkpt>
      <trkpt lat="44.80704" lon="1.62794">
        <ele>256.81</ele>
        <time>2021-08-16T17:38:04Z</time>
      </trkpt>
      <trkpt lat="44.80704" lon="1.62799">
        <ele>256.81</ele>
        <time>2021-08-16T17:38:09Z</time>
      </trkpt>
      <trkpt lat="44.80706" lon="1.62798">
        <ele>256.81</ele>
        <time>2021-08-16T17:38:15Z</time>
      </trkpt>
      <trkpt lat="44.80709" lon="1.62805">
        <ele>256.81</ele>
        <time>2021-08-16T17:38:18Z</time>
      </trkpt>
      <trkpt lat="44.80707" lon="1.62809">
        <ele>255.85</ele>
        <time>2021-08-16T17:38:19Z</time>
      </trkpt>
      <trkpt lat="44.80705" lon="1.62811">
        <ele>255.85</ele>
        <time>2021-08-16T17:38:20Z</time>
      </trkpt>
      <trkpt lat="44.80703" lon="1.62813">
        <ele>255.85</ele>
        <time>2021-08-16T17:38:21Z</time>
      </trkpt>
      <trkpt lat="44.80697" lon="1.62815">
        <ele>255.85</ele>
        <time>2021-08-16T17:38:23Z</time>
      </trkpt>
      <trkpt lat="44.80694" lon="1.62816">
        <ele>255.85</ele>
        <time>2021-08-16T17:38:24Z</time>
      </trkpt>
      <trkpt lat="44.80679" lon="1.62822">
        <ele>255.85</ele>
        <time>2021-08-16T17:38:29Z</time>
      </trkpt>
      <trkpt lat="44.80673" lon="1.62828">
        <ele>255.85</ele>
        <time>2021-08-16T17:38:31Z</time>
      </trkpt>
      <trkpt lat="44.80657" lon="1.62841">
        <ele>255.85</ele>
        <time>2021-08-16T17:38:38Z</time>
      </trkpt>
      <trkpt lat="44.80655" lon="1.62842">
        <ele>255.85</ele>
        <time>2021-08-16T17:38:40Z</time>
      </trkpt>
      <trkpt lat="44.80649" lon="1.62832">
        <ele>255.37</ele>
        <time>2021-08-16T17:38:47Z</time>
      </trkpt>
      <trkpt lat="44.8065" lon="1.62837">
        <ele>255.37</ele>
        <time>2021-08-16T17:38:51Z</time>
      </trkpt>
      <trkpt lat="44.80654" lon="1.6284">
        <ele>255.37</ele>
        <time>2021-08-16T17:38:53Z</time>
      </trkpt>
      <trkpt lat="44.80664" lon="1.62839">
        <ele>255.37</ele>
        <time>2021-08-16T17:38:57Z</time>
      </trkpt>
      <trkpt lat="44.80682" lon="1.62817">
        <ele>255.37</ele>
        <time>2021-08-16T17:39:03Z</time>
      </trkpt>
      <trkpt lat="44.80691" lon="1.62795">
        <ele>255.37</ele>
        <time>2021-08-16T17:39:08Z</time>
      </trkpt>
      <trkpt lat="44.80694" lon="1.62792">
        <ele>255.37</ele>
        <time>2021-08-16T17:39:09Z</time>
      </trkpt>
      <trkpt lat="44.80703" lon="1.62778">
        <ele>256.33</ele>
        <time>2021-08-16T17:39:13Z</time>
      </trkpt>
      <trkpt lat="44.80702" lon="1.62774">
        <ele>256.33</ele>
        <time>2021-08-16T17:39:14Z</time>
      </trkpt>
      <trkpt lat="44.80701" lon="1.62771">
        <ele>256.33</ele>
        <time>2021-08-16T17:39:15Z</time>
      </trkpt>
      <trkpt lat="44.80701" lon="1.62768">
        <ele>256.33</ele>
        <time>2021-08-16T17:39:16Z</time>
      </trkpt>
      <trkpt lat="44.807" lon="1.62764">
        <ele>256.81</ele>
        <time>2021-08-16T17:39:17Z</time>
      </trkpt>
      <trkpt lat="44.80698" lon="1.6276">
        <ele>256.81</ele>
        <time>2021-08-16T17:39:18Z</time>
      </trkpt>
      <trkpt lat="44.80697" lon="1.62756">
        <ele>256.81</ele>
        <time>2021-08-16T17:39:19Z</time>
      </trkpt>
      <trkpt lat="44.80686" lon="1.62728">
        <ele>257.77</ele>
        <time>2021-08-16T17:39:26Z</time>
      </trkpt>
      <trkpt lat="44.80669" lon="1.62703">
        <ele>258.73</ele>
        <time>2021-08-16T17:39:34Z</time>
      </trkpt>
      <trkpt lat="44.80661" lon="1.62694">
        <ele>258.73</ele>
        <time>2021-08-16T17:39:37Z</time>
      </trkpt>
      <trkpt lat="44.80642" lon="1.62688">
        <ele>258.73</ele>
        <time>2021-08-16T17:39:43Z</time>
      </trkpt>
      <trkpt lat="44.80634" lon="1.62687">
        <ele>258.73</ele>
        <time>2021-08-16T17:39:49Z</time>
      </trkpt>
      <trkpt lat="44.80636" lon="1.62689">
        <ele>259.21</ele>
        <time>2021-08-16T17:39:55Z</time>
      </trkpt>
      <trkpt lat="44.80635" lon="1.62689">
        <ele>259.21</ele>
        <time>2021-08-16T17:40:04Z</time>
      </trkpt>
      <trkpt lat="44.80633" lon="1.62688">
        <ele>259.21</ele>
        <time>2021-08-16T17:40:22Z</time>
      </trkpt>
      <trkpt lat="44.80632" lon="1.62684">
        <ele>259.21</ele>
        <time>2021-08-16T17:40:41Z</time>
      </trkpt>
      <trkpt lat="44.80632" lon="1.62682">
        <ele>259.21</ele>
        <time>2021-08-16T17:41:02Z</time>
      </trkpt>
      <trkpt lat="44.80631" lon="1.6268">
        <ele>259.21</ele>
        <time>2021-08-16T17:41:16Z</time>
      </trkpt>
      <trkpt lat="44.80631" lon="1.62676">
        <ele>259.21</ele>
        <time>2021-08-16T17:41:38Z</time>
      </trkpt>
      <trkpt lat="44.80632" lon="1.62674">
        <ele>259.21</ele>
        <time>2021-08-16T17:41:58Z</time>
      </trkpt>
      <trkpt lat="44.80632" lon="1.62676">
        <ele>259.21</ele>
        <time>2021-08-16T17:42:10Z</time>
      </trkpt>
      <trkpt lat="44.80631" lon="1.62677">
        <ele>259.21</ele>
        <time>2021-08-16T17:42:26Z</time>
      </trkpt>
      <trkpt lat="44.80631" lon="1.62675">
        <ele>259.21</ele>
        <time>2021-08-16T17:42:47Z</time>
      </trkpt>
      <trkpt lat="44.8063" lon="1.62675">
        <ele>259.69</ele>
        <time>2021-08-16T17:43:07Z</time>
      </trkpt>
      <trkpt lat="44.8063" lon="1.62673">
        <ele>259.69</ele>
        <time>2021-08-16T17:43:20Z</time>
      </trkpt>
      <trkpt lat="44.80631" lon="1.62673">
        <ele>259.69</ele>
        <time>2021-08-16T17:43:22Z</time>
      </trkpt>
      <trkpt lat="44.80631" lon="1.62671">
        <ele>259.69</ele>
        <time>2021-08-16T17:43:30Z</time>
      </trkpt>
      <trkpt lat="44.8063" lon="1.62672">
        <ele>260.17</ele>
        <time>2021-08-16T17:43:32Z</time>
      </trkpt>
      <trkpt lat="44.80622" lon="1.62671">
        <ele>260.17</ele>
        <time>2021-08-16T17:43:37Z</time>
      </trkpt>
      <trkpt lat="44.80595" lon="1.62664">
        <ele>260.17</ele>
        <time>2021-08-16T17:43:46Z</time>
      </trkpt>
      <trkpt lat="44.80559" lon="1.62653">
        <ele>260.17</ele>
        <time>2021-08-16T17:43:55Z</time>
      </trkpt>
      <trkpt lat="44.80523" lon="1.62643">
        <ele>258.73</ele>
        <time>2021-08-16T17:44:04Z</time>
      </trkpt>
      <trkpt lat="44.80509" lon="1.62642">
        <ele>258.73</ele>
        <time>2021-08-16T17:44:09Z</time>
      </trkpt>
      <trkpt lat="44.80506" lon="1.6266">
        <ele>258.73</ele>
        <time>2021-08-16T17:44:14Z</time>
      </trkpt>
      <trkpt lat="44.80497" lon="1.62687">
        <ele>258.73</ele>
        <time>2021-08-16T17:44:20Z</time>
      </trkpt>
      <trkpt lat="44.80479" lon="1.62704">
        <ele>258.73</ele>
        <time>2021-08-16T17:44:27Z</time>
      </trkpt>
      <trkpt lat="44.80475" lon="1.62704">
        <ele>258.73</ele>
        <time>2021-08-16T17:44:29Z</time>
      </trkpt>
      <trkpt lat="44.80473" lon="1.62702">
        <ele>258.73</ele>
        <time>2021-08-16T17:44:30Z</time>
      </trkpt>
      <trkpt lat="44.80472" lon="1.62701">
        <ele>258.73</ele>
        <time>2021-08-16T17:44:31Z</time>
      </trkpt>
      <trkpt lat="44.80472" lon="1.62699">
        <ele>258.73</ele>
        <time>2021-08-16T17:44:32Z</time>
      </trkpt>
      <trkpt lat="44.80472" lon="1.62697">
        <ele>258.73</ele>
        <time>2021-08-16T17:44:33Z</time>
      </trkpt>
      <trkpt lat="44.80474" lon="1.62694">
        <ele>258.73</ele>
        <time>2021-08-16T17:44:34Z</time>
      </trkpt>
      <trkpt lat="44.80476" lon="1.62691">
        <ele>258.73</ele>
        <time>2021-08-16T17:44:35Z</time>
      </trkpt>
      <trkpt lat="44.80483" lon="1.62668">
        <ele>258.73</ele>
        <time>2021-08-16T17:44:40Z</time>
      </trkpt>
      <trkpt lat="44.80491" lon="1.62626">
        <ele>260.17</ele>
        <time>2021-08-16T17:44:48Z</time>
      </trkpt>
      <trkpt lat="44.80496" lon="1.62583">
        <ele>260.65</ele>
        <time>2021-08-16T17:44:56Z</time>
      </trkpt>
      <trkpt lat="44.80499" lon="1.62536">
        <ele>261.62</ele>
        <time>2021-08-16T17:45:06Z</time>
      </trkpt>
      <trkpt lat="44.80499" lon="1.62513">
        <ele>262.1</ele>
        <time>2021-08-16T17:45:11Z</time>
      </trkpt>
      <trkpt lat="44.805" lon="1.62509">
        <ele>262.58</ele>
        <time>2021-08-16T17:45:12Z</time>
      </trkpt>
      <trkpt lat="44.80499" lon="1.62504">
        <ele>262.58</ele>
        <time>2021-08-16T17:45:13Z</time>
      </trkpt>
      <trkpt lat="44.80491" lon="1.62439">
        <ele>263.06</ele>
        <time>2021-08-16T17:45:26Z</time>
      </trkpt>
      <trkpt lat="44.80484" lon="1.62391">
        <ele>263.54</ele>
        <time>2021-08-16T17:45:35Z</time>
      </trkpt>
      <trkpt lat="44.80476" lon="1.6234">
        <ele>264.02</ele>
        <time>2021-08-16T17:45:44Z</time>
      </trkpt>
      <trkpt lat="44.80467" lon="1.62275">
        <ele>264.02</ele>
        <time>2021-08-16T17:45:55Z</time>
      </trkpt>
      <trkpt lat="44.80456" lon="1.62211">
        <ele>264.98</ele>
        <time>2021-08-16T17:46:06Z</time>
      </trkpt>
      <trkpt lat="44.80453" lon="1.622">
        <ele>264.98</ele>
        <time>2021-08-16T17:46:08Z</time>
      </trkpt>
      <trkpt lat="44.80452" lon="1.62194">
        <ele>264.98</ele>
        <time>2021-08-16T17:46:09Z</time>
      </trkpt>
      <trkpt lat="44.80452" lon="1.62188">
        <ele>264.98</ele>
        <time>2021-08-16T17:46:10Z</time>
      </trkpt>
      <trkpt lat="44.80452" lon="1.62183">
        <ele>264.98</ele>
        <time>2021-08-16T17:46:11Z</time>
      </trkpt>
      <trkpt lat="44.80452" lon="1.62177">
        <ele>265.46</ele>
        <time>2021-08-16T17:46:12Z</time>
      </trkpt>
      <trkpt lat="44.80451" lon="1.62171">
        <ele>265.46</ele>
        <time>2021-08-16T17:46:13Z</time>
      </trkpt>
      <trkpt lat="44.80448" lon="1.62167">
        <ele>265.46</ele>
        <time>2021-08-16T17:46:14Z</time>
      </trkpt>
      <trkpt lat="44.80444" lon="1.62164">
        <ele>265.46</ele>
        <time>2021-08-16T17:46:15Z</time>
      </trkpt>
      <trkpt lat="44.8044" lon="1.62165">
        <ele>265.94</ele>
        <time>2021-08-16T17:46:16Z</time>
      </trkpt>
      <trkpt lat="44.80437" lon="1.62167">
        <ele>265.94</ele>
        <time>2021-08-16T17:46:17Z</time>
      </trkpt>
      <trkpt lat="44.80434" lon="1.62172">
        <ele>265.94</ele>
        <time>2021-08-16T17:46:18Z</time>
      </trkpt>
      <trkpt lat="44.80431" lon="1.62175">
        <ele>265.94</ele>
        <time>2021-08-16T17:46:19Z</time>
      </trkpt>
      <trkpt lat="44.80427" lon="1.62178">
        <ele>265.94</ele>
        <time>2021-08-16T17:46:20Z</time>
      </trkpt>
      <trkpt lat="44.80425" lon="1.62179">
        <ele>265.94</ele>
        <time>2021-08-16T17:46:21Z</time>
      </trkpt>
      <trkpt lat="44.80421" lon="1.6218">
        <ele>266.42</ele>
        <time>2021-08-16T17:46:22Z</time>
      </trkpt>
      <trkpt lat="44.80417" lon="1.62179">
        <ele>266.42</ele>
        <time>2021-08-16T17:46:23Z</time>
      </trkpt>
      <trkpt lat="44.80414" lon="1.62177">
        <ele>266.42</ele>
        <time>2021-08-16T17:46:24Z</time>
      </trkpt>
      <trkpt lat="44.8041" lon="1.62173">
        <ele>266.42</ele>
        <time>2021-08-16T17:46:25Z</time>
      </trkpt>
      <trkpt lat="44.80408" lon="1.6217">
        <ele>266.9</ele>
        <time>2021-08-16T17:46:26Z</time>
      </trkpt>
      <trkpt lat="44.80405" lon="1.62165">
        <ele>266.9</ele>
        <time>2021-08-16T17:46:27Z</time>
      </trkpt>
      <trkpt lat="44.8039" lon="1.62146">
        <ele>267.38</ele>
        <time>2021-08-16T17:46:33Z</time>
      </trkpt>
      <trkpt lat="44.80388" lon="1.62145">
        <ele>267.38</ele>
        <time>2021-08-16T17:46:34Z</time>
      </trkpt>
      <trkpt lat="44.80386" lon="1.62145">
        <ele>267.38</ele>
        <time>2021-08-16T17:46:35Z</time>
      </trkpt>
      <trkpt lat="44.80385" lon="1.62144">
        <ele>267.38</ele>
        <time>2021-08-16T17:46:36Z</time>
      </trkpt>
      <trkpt lat="44.80385" lon="1.62142">
        <ele>267.38</ele>
        <time>2021-08-16T17:46:37Z</time>
      </trkpt>
      <trkpt lat="44.80376" lon="1.62126">
        <ele>267.38</ele>
        <time>2021-08-16T17:46:42Z</time>
      </trkpt>
      <trkpt lat="44.80375" lon="1.62121">
        <ele>267.38</ele>
        <time>2021-08-16T17:46:43Z</time>
      </trkpt>
      <trkpt lat="44.80373" lon="1.62116">
        <ele>267.38</ele>
        <time>2021-08-16T17:46:44Z</time>
      </trkpt>
      <trkpt lat="44.80359" lon="1.62086">
        <ele>267.86</ele>
        <time>2021-08-16T17:46:51Z</time>
      </trkpt>
      <trkpt lat="44.80333" lon="1.62053">
        <ele>267.86</ele>
        <time>2021-08-16T17:47:01Z</time>
      </trkpt>
      <trkpt lat="44.80299" lon="1.62015">
        <ele>264.98</ele>
        <time>2021-08-16T17:47:10Z</time>
      </trkpt>
      <trkpt lat="44.80286" lon="1.62006">
        <ele>264.5</ele>
        <time>2021-08-16T17:47:13Z</time>
      </trkpt>
      <trkpt lat="44.80263" lon="1.61987">
        <ele>264.02</ele>
        <time>2021-08-16T17:47:20Z</time>
      </trkpt>
      <trkpt lat="44.8025" lon="1.61963">
        <ele>262.1</ele>
        <time>2021-08-16T17:47:26Z</time>
      </trkpt>
      <trkpt lat="44.80247" lon="1.61951">
        <ele>260.17</ele>
        <time>2021-08-16T17:47:29Z</time>
      </trkpt>
      <trkpt lat="44.80247" lon="1.61952">
        <ele>259.69</ele>
        <time>2021-08-16T17:47:34Z</time>
      </trkpt>
      <trkpt lat="44.80251" lon="1.61961">
        <ele>261.14</ele>
        <time>2021-08-16T17:47:40Z</time>
      </trkpt>
      <trkpt lat="44.80255" lon="1.61967">
        <ele>263.06</ele>
        <time>2021-08-16T17:47:45Z</time>
      </trkpt>
      <trkpt lat="44.80257" lon="1.61964">
        <ele>263.54</ele>
        <time>2021-08-16T17:47:51Z</time>
      </trkpt>
      <trkpt lat="44.80258" lon="1.61961">
        <ele>263.54</ele>
        <time>2021-08-16T17:47:53Z</time>
      </trkpt>
      <trkpt lat="44.80258" lon="1.61959">
        <ele>263.54</ele>
        <time>2021-08-16T17:47:54Z</time>
      </trkpt>
      <trkpt lat="44.80258" lon="1.61957">
        <ele>263.54</ele>
        <time>2021-08-16T17:47:55Z</time>
      </trkpt>
      <trkpt lat="44.80254" lon="1.61932">
        <ele>263.54</ele>
        <time>2021-08-16T17:48:01Z</time>
      </trkpt>
      <trkpt lat="44.80247" lon="1.6187">
        <ele>261.62</ele>
        <time>2021-08-16T17:48:12Z</time>
      </trkpt>
      <trkpt lat="44.80242" lon="1.61849">
        <ele>261.62</ele>
        <time>2021-08-16T17:48:16Z</time>
      </trkpt>
      <trkpt lat="44.8024" lon="1.61844">
        <ele>261.62</ele>
        <time>2021-08-16T17:48:17Z</time>
      </trkpt>
      <trkpt lat="44.80237" lon="1.61841">
        <ele>261.62</ele>
        <time>2021-08-16T17:48:18Z</time>
      </trkpt>
      <trkpt lat="44.80224" lon="1.61824">
        <ele>263.06</ele>
        <time>2021-08-16T17:48:23Z</time>
      </trkpt>
      <trkpt lat="44.80205" lon="1.618">
        <ele>264.5</ele>
        <time>2021-08-16T17:48:31Z</time>
      </trkpt>
      <trkpt lat="44.80194" lon="1.61768">
        <ele>266.42</ele>
        <time>2021-08-16T17:48:39Z</time>
      </trkpt>
      <trkpt lat="44.80183" lon="1.61735">
        <ele>266.42</ele>
        <time>2021-08-16T17:48:47Z</time>
      </trkpt>
      <trkpt lat="44.8016" lon="1.61702">
        <ele>266.42</ele>
        <time>2021-08-16T17:48:56Z</time>
      </trkpt>
      <trkpt lat="44.80124" lon="1.61663">
        <ele>264.98</ele>
        <time>2021-08-16T17:49:06Z</time>
      </trkpt>
      <trkpt lat="44.8012" lon="1.6166">
        <ele>264.98</ele>
        <time>2021-08-16T17:49:07Z</time>
      </trkpt>
      <trkpt lat="44.80114" lon="1.61658">
        <ele>264.98</ele>
        <time>2021-08-16T17:49:08Z</time>
      </trkpt>
      <trkpt lat="44.80109" lon="1.61658">
        <ele>264.98</ele>
        <time>2021-08-16T17:49:09Z</time>
      </trkpt>
      <trkpt lat="44.80104" lon="1.61658">
        <ele>264.5</ele>
        <time>2021-08-16T17:49:10Z</time>
      </trkpt>
      <trkpt lat="44.80099" lon="1.6166">
        <ele>264.5</ele>
        <time>2021-08-16T17:49:11Z</time>
      </trkpt>
      <trkpt lat="44.80094" lon="1.61661">
        <ele>264.5</ele>
        <time>2021-08-16T17:49:12Z</time>
      </trkpt>
      <trkpt lat="44.80091" lon="1.61661">
        <ele>264.02</ele>
        <time>2021-08-16T17:49:13Z</time>
      </trkpt>
      <trkpt lat="44.80087" lon="1.6166">
        <ele>264.02</ele>
        <time>2021-08-16T17:49:14Z</time>
      </trkpt>
      <trkpt lat="44.80082" lon="1.61659">
        <ele>263.54</ele>
        <time>2021-08-16T17:49:15Z</time>
      </trkpt>
      <trkpt lat="44.80077" lon="1.61659">
        <ele>263.06</ele>
        <time>2021-08-16T17:49:16Z</time>
      </trkpt>
      <trkpt lat="44.80072" lon="1.61659">
        <ele>263.06</ele>
        <time>2021-08-16T17:49:17Z</time>
      </trkpt>
      <trkpt lat="44.80031" lon="1.61661">
        <ele>262.1</ele>
        <time>2021-08-16T17:49:25Z</time>
      </trkpt>
      <trkpt lat="44.80002" lon="1.61661">
        <ele>261.14</ele>
        <time>2021-08-16T17:49:32Z</time>
      </trkpt>
      <trkpt lat="44.8" lon="1.61657">
        <ele>261.14</ele>
        <time>2021-08-16T17:49:33Z</time>
      </trkpt>
      <trkpt lat="44.79995" lon="1.61634">
        <ele>260.65</ele>
        <time>2021-08-16T17:49:38Z</time>
      </trkpt>
      <trkpt lat="44.79994" lon="1.61631">
        <ele>260.65</ele>
        <time>2021-08-16T17:49:39Z</time>
      </trkpt>
      <trkpt lat="44.79991" lon="1.6163">
        <ele>260.65</ele>
        <time>2021-08-16T17:49:40Z</time>
      </trkpt>
      <trkpt lat="44.79988" lon="1.61629">
        <ele>260.65</ele>
        <time>2021-08-16T17:49:41Z</time>
      </trkpt>
      <trkpt lat="44.79985" lon="1.61629">
        <ele>260.65</ele>
        <time>2021-08-16T17:49:42Z</time>
      </trkpt>
      <trkpt lat="44.79982" lon="1.61629">
        <ele>260.65</ele>
        <time>2021-08-16T17:49:43Z</time>
      </trkpt>
      <trkpt lat="44.79957" lon="1.61627">
        <ele>260.17</ele>
        <time>2021-08-16T17:49:50Z</time>
      </trkpt>
      <trkpt lat="44.79929" lon="1.61615">
        <ele>260.17</ele>
        <time>2021-08-16T17:49:58Z</time>
      </trkpt>
      <trkpt lat="44.7992" lon="1.61613">
        <ele>260.17</ele>
        <time>2021-08-16T17:50:00Z</time>
      </trkpt>
      <trkpt lat="44.79915" lon="1.61614">
        <ele>259.69</ele>
        <time>2021-08-16T17:50:01Z</time>
      </trkpt>
      <trkpt lat="44.79911" lon="1.61615">
        <ele>259.69</ele>
        <time>2021-08-16T17:50:02Z</time>
      </trkpt>
      <trkpt lat="44.79881" lon="1.61625">
        <ele>256.33</ele>
        <time>2021-08-16T17:50:08Z</time>
      </trkpt>
      <trkpt lat="44.79853" lon="1.61625">
        <ele>252.96</ele>
        <time>2021-08-16T17:50:13Z</time>
      </trkpt>
      <trkpt lat="44.79849" lon="1.61623">
        <ele>252.96</ele>
        <time>2021-08-16T17:50:14Z</time>
      </trkpt>
      <trkpt lat="44.79845" lon="1.61618">
        <ele>252.48</ele>
        <time>2021-08-16T17:50:15Z</time>
      </trkpt>
      <trkpt lat="44.79843" lon="1.61613">
        <ele>252.48</ele>
        <time>2021-08-16T17:50:16Z</time>
      </trkpt>
      <trkpt lat="44.79841" lon="1.61607">
        <ele>252</ele>
        <time>2021-08-16T17:50:17Z</time>
      </trkpt>
      <trkpt lat="44.79839" lon="1.61601">
        <ele>252.48</ele>
        <time>2021-08-16T17:50:18Z</time>
      </trkpt>
      <trkpt lat="44.79835" lon="1.61591">
        <ele>252</ele>
        <time>2021-08-16T17:50:20Z</time>
      </trkpt>
      <trkpt lat="44.79819" lon="1.6156">
        <ele>250.08</ele>
        <time>2021-08-16T17:50:26Z</time>
      </trkpt>
      <trkpt lat="44.79817" lon="1.61552">
        <ele>250.08</ele>
        <time>2021-08-16T17:50:27Z</time>
      </trkpt>
      <trkpt lat="44.79815" lon="1.61545">
        <ele>250.08</ele>
        <time>2021-08-16T17:50:28Z</time>
      </trkpt>
      <trkpt lat="44.79815" lon="1.61535">
        <ele>249.6</ele>
        <time>2021-08-16T17:50:29Z</time>
      </trkpt>
      <trkpt lat="44.79815" lon="1.61528">
        <ele>249.6</ele>
        <time>2021-08-16T17:50:30Z</time>
      </trkpt>
      <trkpt lat="44.79816" lon="1.61522">
        <ele>249.6</ele>
        <time>2021-08-16T17:50:31Z</time>
      </trkpt>
      <trkpt lat="44.79816" lon="1.61516">
        <ele>249.6</ele>
        <time>2021-08-16T17:50:32Z</time>
      </trkpt>
      <trkpt lat="44.79817" lon="1.61505">
        <ele>249.6</ele>
        <time>2021-08-16T17:50:36Z</time>
      </trkpt>
      <trkpt lat="44.79816" lon="1.61508">
        <ele>249.6</ele>
        <time>2021-08-16T17:50:41Z</time>
      </trkpt>
      <trkpt lat="44.79817" lon="1.61511">
        <ele>249.6</ele>
        <time>2021-08-16T17:50:42Z</time>
      </trkpt>
      <trkpt lat="44.79817" lon="1.61512">
        <ele>249.6</ele>
        <time>2021-08-16T17:50:43Z</time>
      </trkpt>
      <trkpt lat="44.79818" lon="1.61516">
        <ele>249.6</ele>
        <time>2021-08-16T17:50:45Z</time>
      </trkpt>
      <trkpt lat="44.79818" lon="1.61519">
        <ele>249.6</ele>
        <time>2021-08-16T17:50:46Z</time>
      </trkpt>
      <trkpt lat="44.79817" lon="1.6152">
        <ele>249.6</ele>
        <time>2021-08-16T17:50:47Z</time>
      </trkpt>
      <trkpt lat="44.79815" lon="1.6152">
        <ele>249.6</ele>
        <time>2021-08-16T17:50:48Z</time>
      </trkpt>
      <trkpt lat="44.79814" lon="1.61519">
        <ele>249.6</ele>
        <time>2021-08-16T17:50:49Z</time>
      </trkpt>
      <trkpt lat="44.79814" lon="1.61517">
        <ele>249.6</ele>
        <time>2021-08-16T17:50:50Z</time>
      </trkpt>
      <trkpt lat="44.79814" lon="1.61514">
        <ele>249.12</ele>
        <time>2021-08-16T17:50:51Z</time>
      </trkpt>
      <trkpt lat="44.79813" lon="1.61508">
        <ele>248.64</ele>
        <time>2021-08-16T17:50:54Z</time>
      </trkpt>
      <trkpt lat="44.79811" lon="1.61507">
        <ele>248.16</ele>
        <time>2021-08-16T17:50:56Z</time>
      </trkpt>
      <trkpt lat="44.79808" lon="1.61506">
        <ele>246.72</ele>
        <time>2021-08-16T17:50:58Z</time>
      </trkpt>
      <trkpt lat="44.79807" lon="1.61506">
        <ele>246.72</ele>
        <time>2021-08-16T17:50:59Z</time>
      </trkpt>
      <trkpt lat="44.79806" lon="1.61505">
        <ele>246.23</ele>
        <time>2021-08-16T17:51:00Z</time>
      </trkpt>
      <trkpt lat="44.79804" lon="1.61503">
        <ele>245.27</ele>
        <time>2021-08-16T17:51:01Z</time>
      </trkpt>
      <trkpt lat="44.79796" lon="1.61492">
        <ele>243.35</ele>
        <time>2021-08-16T17:51:04Z</time>
      </trkpt>
      <trkpt lat="44.79793" lon="1.61488">
        <ele>242.39</ele>
        <time>2021-08-16T17:51:05Z</time>
      </trkpt>
      <trkpt lat="44.7979" lon="1.61482">
        <ele>241.91</ele>
        <time>2021-08-16T17:51:06Z</time>
      </trkpt>
      <trkpt lat="44.79787" lon="1.61476">
        <ele>241.43</ele>
        <time>2021-08-16T17:51:07Z</time>
      </trkpt>
      <trkpt lat="44.79784" lon="1.61471">
        <ele>240.95</ele>
        <time>2021-08-16T17:51:08Z</time>
      </trkpt>
      <trkpt lat="44.79781" lon="1.61467">
        <ele>240.47</ele>
        <time>2021-08-16T17:51:09Z</time>
      </trkpt>
      <trkpt lat="44.79779" lon="1.61462">
        <ele>239.99</ele>
        <time>2021-08-16T17:51:10Z</time>
      </trkpt>
      <trkpt lat="44.79776" lon="1.61459">
        <ele>239.02</ele>
        <time>2021-08-16T17:51:11Z</time>
      </trkpt>
      <trkpt lat="44.79774" lon="1.61455">
        <ele>239.02</ele>
        <time>2021-08-16T17:51:12Z</time>
      </trkpt>
      <trkpt lat="44.79767" lon="1.6144">
        <ele>237.1</ele>
        <time>2021-08-16T17:51:18Z</time>
      </trkpt>
      <trkpt lat="44.79766" lon="1.61439">
        <ele>237.1</ele>
        <time>2021-08-16T17:51:19Z</time>
      </trkpt>
      <trkpt lat="44.79765" lon="1.61437">
        <ele>237.1</ele>
        <time>2021-08-16T17:51:20Z</time>
      </trkpt>
      <trkpt lat="44.79764" lon="1.61435">
        <ele>237.1</ele>
        <time>2021-08-16T17:51:21Z</time>
      </trkpt>
      <trkpt lat="44.79763" lon="1.61433">
        <ele>237.1</ele>
        <time>2021-08-16T17:51:22Z</time>
      </trkpt>
      <trkpt lat="44.79762" lon="1.61431">
        <ele>236.62</ele>
        <time>2021-08-16T17:51:23Z</time>
      </trkpt>
      <trkpt lat="44.79755" lon="1.61424">
        <ele>235.18</ele>
        <time>2021-08-16T17:51:27Z</time>
      </trkpt>
      <trkpt lat="44.79753" lon="1.61425">
        <ele>234.7</ele>
        <time>2021-08-16T17:51:28Z</time>
      </trkpt>
      <trkpt lat="44.79753" lon="1.61428">
        <ele>234.22</ele>
        <time>2021-08-16T17:51:29Z</time>
      </trkpt>
      <trkpt lat="44.79753" lon="1.6143">
        <ele>233.74</ele>
        <time>2021-08-16T17:51:30Z</time>
      </trkpt>
      <trkpt lat="44.79753" lon="1.61432">
        <ele>233.74</ele>
        <time>2021-08-16T17:51:31Z</time>
      </trkpt>
      <trkpt lat="44.79754" lon="1.61434">
        <ele>233.26</ele>
        <time>2021-08-16T17:51:32Z</time>
      </trkpt>
      <trkpt lat="44.79755" lon="1.61436">
        <ele>233.26</ele>
        <time>2021-08-16T17:51:33Z</time>
      </trkpt>
      <trkpt lat="44.79755" lon="1.61437">
        <ele>232.3</ele>
        <time>2021-08-16T17:51:34Z</time>
      </trkpt>
      <trkpt lat="44.79756" lon="1.61439">
        <ele>231.81</ele>
        <time>2021-08-16T17:51:35Z</time>
      </trkpt>
      <trkpt lat="44.79756" lon="1.61441">
        <ele>231.81</ele>
        <time>2021-08-16T17:51:36Z</time>
      </trkpt>
      <trkpt lat="44.79756" lon="1.61443">
        <ele>231.33</ele>
        <time>2021-08-16T17:51:37Z</time>
      </trkpt>
      <trkpt lat="44.79756" lon="1.61444">
        <ele>230.37</ele>
        <time>2021-08-16T17:51:38Z</time>
      </trkpt>
      <trkpt lat="44.79757" lon="1.61446">
        <ele>230.37</ele>
        <time>2021-08-16T17:51:39Z</time>
      </trkpt>
      <trkpt lat="44.79757" lon="1.61448">
        <ele>229.41</ele>
        <time>2021-08-16T17:51:40Z</time>
      </trkpt>
      <trkpt lat="44.79758" lon="1.6145">
        <ele>229.41</ele>
        <time>2021-08-16T17:51:41Z</time>
      </trkpt>
      <trkpt lat="44.79758" lon="1.61452">
        <ele>228.93</ele>
        <time>2021-08-16T17:51:42Z</time>
      </trkpt>
      <trkpt lat="44.79757" lon="1.61468">
        <ele>225.57</ele>
        <time>2021-08-16T17:51:49Z</time>
      </trkpt>
      <trkpt lat="44.79758" lon="1.61472">
        <ele>225.57</ele>
        <time>2021-08-16T17:51:50Z</time>
      </trkpt>
      <trkpt lat="44.79759" lon="1.61495">
        <ele>222.2</ele>
        <time>2021-08-16T17:51:56Z</time>
      </trkpt>
      <trkpt lat="44.7976" lon="1.61505">
        <ele>221.24</ele>
        <time>2021-08-16T17:51:59Z</time>
      </trkpt>
      <trkpt lat="44.79761" lon="1.61507">
        <ele>221.24</ele>
        <time>2021-08-16T17:52:00Z</time>
      </trkpt>
      <trkpt lat="44.79762" lon="1.61509">
        <ele>220.76</ele>
        <time>2021-08-16T17:52:01Z</time>
      </trkpt>
      <trkpt lat="44.79764" lon="1.61511">
        <ele>220.28</ele>
        <time>2021-08-16T17:52:02Z</time>
      </trkpt>
      <trkpt lat="44.79765" lon="1.61513">
        <ele>220.28</ele>
        <time>2021-08-16T17:52:03Z</time>
      </trkpt>
      <trkpt lat="44.79766" lon="1.61515">
        <ele>219.8</ele>
        <time>2021-08-16T17:52:04Z</time>
      </trkpt>
      <trkpt lat="44.79768" lon="1.61516">
        <ele>218.84</ele>
        <time>2021-08-16T17:52:05Z</time>
      </trkpt>
      <trkpt lat="44.7977" lon="1.61517">
        <ele>218.36</ele>
        <time>2021-08-16T17:52:06Z</time>
      </trkpt>
      <trkpt lat="44.79772" lon="1.61518">
        <ele>217.88</ele>
        <time>2021-08-16T17:52:07Z</time>
      </trkpt>
      <trkpt lat="44.79774" lon="1.6152">
        <ele>217.4</ele>
        <time>2021-08-16T17:52:08Z</time>
      </trkpt>
      <trkpt lat="44.79775" lon="1.61521">
        <ele>216.91</ele>
        <time>2021-08-16T17:52:09Z</time>
      </trkpt>
      <trkpt lat="44.79777" lon="1.61525">
        <ele>215.47</ele>
        <time>2021-08-16T17:52:12Z</time>
      </trkpt>
      <trkpt lat="44.79777" lon="1.61527">
        <ele>214.99</ele>
        <time>2021-08-16T17:52:13Z</time>
      </trkpt>
      <trkpt lat="44.79775" lon="1.61526">
        <ele>214.51</ele>
        <time>2021-08-16T17:52:16Z</time>
      </trkpt>
      <trkpt lat="44.79774" lon="1.61525">
        <ele>214.51</ele>
        <time>2021-08-16T17:52:17Z</time>
      </trkpt>
      <trkpt lat="44.79772" lon="1.61524">
        <ele>213.55</ele>
        <time>2021-08-16T17:52:18Z</time>
      </trkpt>
      <trkpt lat="44.7977" lon="1.61524">
        <ele>213.55</ele>
        <time>2021-08-16T17:52:19Z</time>
      </trkpt>
      <trkpt lat="44.79768" lon="1.61525">
        <ele>212.59</ele>
        <time>2021-08-16T17:52:20Z</time>
      </trkpt>
      <trkpt lat="44.79766" lon="1.61526">
        <ele>212.11</ele>
        <time>2021-08-16T17:52:21Z</time>
      </trkpt>
      <trkpt lat="44.79764" lon="1.61527">
        <ele>212.11</ele>
        <time>2021-08-16T17:52:22Z</time>
      </trkpt>
      <trkpt lat="44.79761" lon="1.61528">
        <ele>211.15</ele>
        <time>2021-08-16T17:52:24Z</time>
      </trkpt>
      <trkpt lat="44.79761" lon="1.61529">
        <ele>210.67</ele>
        <time>2021-08-16T17:52:26Z</time>
      </trkpt>
      <trkpt lat="44.79764" lon="1.61531">
        <ele>210.19</ele>
        <time>2021-08-16T17:52:29Z</time>
      </trkpt>
      <trkpt lat="44.79768" lon="1.61532">
        <ele>208.74</ele>
        <time>2021-08-16T17:52:31Z</time>
      </trkpt>
      <trkpt lat="44.79769" lon="1.61533">
        <ele>208.74</ele>
        <time>2021-08-16T17:52:32Z</time>
      </trkpt>
      <trkpt lat="44.7977" lon="1.61534">
        <ele>208.26</ele>
        <time>2021-08-16T17:52:33Z</time>
      </trkpt>
      <trkpt lat="44.7977" lon="1.61539">
        <ele>206.82</ele>
        <time>2021-08-16T17:52:36Z</time>
      </trkpt>
      <trkpt lat="44.79771" lon="1.61543">
        <ele>205.86</ele>
        <time>2021-08-16T17:52:38Z</time>
      </trkpt>
      <trkpt lat="44.79771" lon="1.61545">
        <ele>207.3</ele>
        <time>2021-08-16T17:52:39Z</time>
      </trkpt>
      <trkpt lat="44.79771" lon="1.61547">
        <ele>204.9</ele>
        <time>2021-08-16T17:52:40Z</time>
      </trkpt>
      <trkpt lat="44.79769" lon="1.61556">
        <ele>203.94</ele>
        <time>2021-08-16T17:52:44Z</time>
      </trkpt>
      <trkpt lat="44.7977" lon="1.61559">
        <ele>203.46</ele>
        <time>2021-08-16T17:52:45Z</time>
      </trkpt>
      <trkpt lat="44.7977" lon="1.61561">
        <ele>202.98</ele>
        <time>2021-08-16T17:52:46Z</time>
      </trkpt>
      <trkpt lat="44.79769" lon="1.61563">
        <ele>202.01</ele>
        <time>2021-08-16T17:52:51Z</time>
      </trkpt>
      <trkpt lat="44.79767" lon="1.61557">
        <ele>201.53</ele>
        <time>2021-08-16T17:52:54Z</time>
      </trkpt>
      <trkpt lat="44.79764" lon="1.61554">
        <ele>199.13</ele>
        <time>2021-08-16T17:52:58Z</time>
      </trkpt>
      <trkpt lat="44.79764" lon="1.61556">
        <ele>199.13</ele>
        <time>2021-08-16T17:53:00Z</time>
      </trkpt>
      <trkpt lat="44.79766" lon="1.61564">
        <ele>197.69</ele>
        <time>2021-08-16T17:53:03Z</time>
      </trkpt>
      <trkpt lat="44.79768" lon="1.6157">
        <ele>197.69</ele>
        <time>2021-08-16T17:53:04Z</time>
      </trkpt>
      <trkpt lat="44.79769" lon="1.61575">
        <ele>196.73</ele>
        <time>2021-08-16T17:53:05Z</time>
      </trkpt>
      <trkpt lat="44.79783" lon="1.6161">
        <ele>194.32</ele>
        <time>2021-08-16T17:53:13Z</time>
      </trkpt>
      <trkpt lat="44.79784" lon="1.61616">
        <ele>193.36</ele>
        <time>2021-08-16T17:53:15Z</time>
      </trkpt>
      <trkpt lat="44.79784" lon="1.61618">
        <ele>191.92</ele>
        <time>2021-08-16T17:53:16Z</time>
      </trkpt>
      <trkpt lat="44.79785" lon="1.61625">
        <ele>190.96</ele>
        <time>2021-08-16T17:53:18Z</time>
      </trkpt>
      <trkpt lat="44.79789" lon="1.61631">
        <ele>190.96</ele>
        <time>2021-08-16T17:53:21Z</time>
      </trkpt>
      <trkpt lat="44.79792" lon="1.61635">
        <ele>190.96</ele>
        <time>2021-08-16T17:53:22Z</time>
      </trkpt>
      <trkpt lat="44.79797" lon="1.61638">
        <ele>190.96</ele>
        <time>2021-08-16T17:53:27Z</time>
      </trkpt>
      <trkpt lat="44.798" lon="1.61634">
        <ele>192.4</ele>
        <time>2021-08-16T17:53:38Z</time>
      </trkpt>
      <trkpt lat="44.79805" lon="1.61632">
        <ele>192.4</ele>
        <time>2021-08-16T17:53:46Z</time>
      </trkpt>
      <trkpt lat="44.79808" lon="1.61632">
        <ele>192.88</ele>
        <time>2021-08-16T17:53:47Z</time>
      </trkpt>
      <trkpt lat="44.79809" lon="1.61633">
        <ele>192.88</ele>
        <time>2021-08-16T17:53:49Z</time>
      </trkpt>
      <trkpt lat="44.79809" lon="1.61635">
        <ele>192.88</ele>
        <time>2021-08-16T17:53:51Z</time>
      </trkpt>
      <trkpt lat="44.7981" lon="1.61636">
        <ele>192.88</ele>
        <time>2021-08-16T17:53:52Z</time>
      </trkpt>
      <trkpt lat="44.7981" lon="1.61638">
        <ele>193.36</ele>
        <time>2021-08-16T17:53:53Z</time>
      </trkpt>
      <trkpt lat="44.79814" lon="1.61644">
        <ele>193.84</ele>
        <time>2021-08-16T17:53:57Z</time>
      </trkpt>
      <trkpt lat="44.79818" lon="1.61646">
        <ele>194.32</ele>
        <time>2021-08-16T17:54:01Z</time>
      </trkpt>
      <trkpt lat="44.79819" lon="1.61647">
        <ele>194.8</ele>
        <time>2021-08-16T17:54:02Z</time>
      </trkpt>
      <trkpt lat="44.7982" lon="1.61648">
        <ele>194.8</ele>
        <time>2021-08-16T17:54:03Z</time>
      </trkpt>
      <trkpt lat="44.79821" lon="1.6165">
        <ele>194.8</ele>
        <time>2021-08-16T17:54:04Z</time>
      </trkpt>
      <trkpt lat="44.79822" lon="1.61651">
        <ele>194.8</ele>
        <time>2021-08-16T17:54:05Z</time>
      </trkpt>
      <trkpt lat="44.79826" lon="1.61666">
        <ele>195.77</ele>
        <time>2021-08-16T17:54:13Z</time>
      </trkpt>
      <trkpt lat="44.79831" lon="1.61675">
        <ele>196.25</ele>
        <time>2021-08-16T17:54:20Z</time>
      </trkpt>
      <trkpt lat="44.79838" lon="1.61684">
        <ele>196.73</ele>
        <time>2021-08-16T17:54:26Z</time>
      </trkpt>
      <trkpt lat="44.79839" lon="1.61686">
        <ele>196.73</ele>
        <time>2021-08-16T17:54:32Z</time>
      </trkpt>
      <trkpt lat="44.79837" lon="1.61686">
        <ele>197.21</ele>
        <time>2021-08-16T17:54:38Z</time>
      </trkpt>
      <trkpt lat="44.79836" lon="1.61685">
        <ele>197.21</ele>
        <time>2021-08-16T17:54:48Z</time>
      </trkpt>
      <trkpt lat="44.79836" lon="1.61686">
        <ele>197.21</ele>
        <time>2021-08-16T17:55:03Z</time>
      </trkpt>
      <trkpt lat="44.7984" lon="1.61687">
        <ele>197.21</ele>
        <time>2021-08-16T17:55:20Z</time>
      </trkpt>
      <trkpt lat="44.7984" lon="1.61685">
        <ele>197.21</ele>
        <time>2021-08-16T17:55:30Z</time>
      </trkpt>
      <trkpt lat="44.79839" lon="1.61686">
        <ele>197.21</ele>
        <time>2021-08-16T17:55:39Z</time>
      </trkpt>
      <trkpt lat="44.79841" lon="1.61685">
        <ele>165.96</ele>
        <time>2021-08-16T17:56:36Z</time>
      </trkpt>
      <trkpt lat="44.798" lon="1.61648">
        <ele>165.48</ele>
        <time>2021-08-16T17:56:42Z</time>
      </trkpt>
      <trkpt lat="44.79784" lon="1.61636">
        <ele>162.12</ele>
        <time>2021-08-16T17:56:47Z</time>
      </trkpt>
      <trkpt lat="44.79775" lon="1.61631">
        <ele>160.68</ele>
        <time>2021-08-16T17:56:49Z</time>
      </trkpt>
      <trkpt lat="44.79771" lon="1.61629">
        <ele>160.68</ele>
        <time>2021-08-16T17:56:50Z</time>
      </trkpt>
      <trkpt lat="44.79768" lon="1.61625">
        <ele>160.68</ele>
        <time>2021-08-16T17:56:51Z</time>
      </trkpt>
      <trkpt lat="44.79761" lon="1.61613">
        <ele>160.68</ele>
        <time>2021-08-16T17:56:56Z</time>
      </trkpt>
      <trkpt lat="44.79762" lon="1.61612">
        <ele>161.16</ele>
        <time>2021-08-16T17:57:01Z</time>
      </trkpt>
      <trkpt lat="44.79771" lon="1.61621">
        <ele>163.08</ele>
        <time>2021-08-16T17:57:15Z</time>
      </trkpt>
      <trkpt lat="44.79772" lon="1.61615">
        <ele>166.45</ele>
        <time>2021-08-16T17:57:21Z</time>
      </trkpt>
      <trkpt lat="44.79774" lon="1.61612">
        <ele>169.33</ele>
        <time>2021-08-16T17:57:28Z</time>
      </trkpt>
      <trkpt lat="44.79771" lon="1.61612">
        <ele>172.69</ele>
        <time>2021-08-16T17:57:38Z</time>
      </trkpt>
      <trkpt lat="44.79772" lon="1.61612">
        <ele>176.06</ele>
        <time>2021-08-16T17:57:46Z</time>
      </trkpt>
      <trkpt lat="44.79777" lon="1.6161">
        <ele>178.94</ele>
        <time>2021-08-16T17:58:01Z</time>
      </trkpt>
      <trkpt lat="44.79777" lon="1.61608">
        <ele>181.35</ele>
        <time>2021-08-16T17:58:26Z</time>
      </trkpt>
      <trkpt lat="44.7978" lon="1.61607">
        <ele>181.35</ele>
        <time>2021-08-16T17:58:41Z</time>
      </trkpt>
      <trkpt lat="44.79776" lon="1.61607">
        <ele>181.35</ele>
        <time>2021-08-16T17:59:03Z</time>
      </trkpt>
      <trkpt lat="44.79774" lon="1.61609">
        <ele>181.35</ele>
        <time>2021-08-16T17:59:18Z</time>
      </trkpt>
      <trkpt lat="44.79773" lon="1.61604">
        <ele>181.35</ele>
        <time>2021-08-16T17:59:23Z</time>
      </trkpt>
      <trkpt lat="44.79773" lon="1.61602">
        <ele>181.35</ele>
        <time>2021-08-16T17:59:24Z</time>
      </trkpt>
      <trkpt lat="44.79772" lon="1.616">
        <ele>181.35</ele>
        <time>2021-08-16T17:59:25Z</time>
      </trkpt>
      <trkpt lat="44.79771" lon="1.61598">
        <ele>181.35</ele>
        <time>2021-08-16T17:59:26Z</time>
      </trkpt>
      <trkpt lat="44.7977" lon="1.61595">
        <ele>181.35</ele>
        <time>2021-08-16T17:59:27Z</time>
      </trkpt>
      <trkpt lat="44.7976" lon="1.61576">
        <ele>181.35</ele>
        <time>2021-08-16T17:59:33Z</time>
      </trkpt>
      <trkpt lat="44.79751" lon="1.61563">
        <ele>179.9</ele>
        <time>2021-08-16T17:59:37Z</time>
      </trkpt>
      <trkpt lat="44.79743" lon="1.61555">
        <ele>178.94</ele>
        <time>2021-08-16T17:59:39Z</time>
      </trkpt>
      <trkpt lat="44.79739" lon="1.6155">
        <ele>178.46</ele>
        <time>2021-08-16T17:59:40Z</time>
      </trkpt>
      <trkpt lat="44.7973" lon="1.61537">
        <ele>176.54</ele>
        <time>2021-08-16T17:59:42Z</time>
      </trkpt>
      <trkpt lat="44.79725" lon="1.61528">
        <ele>174.62</ele>
        <time>2021-08-16T17:59:43Z</time>
      </trkpt>
      <trkpt lat="44.79713" lon="1.61501">
        <ele>173.17</ele>
        <time>2021-08-16T17:59:46Z</time>
      </trkpt>
      <trkpt lat="44.79683" lon="1.61433">
        <ele>170.77</ele>
        <time>2021-08-16T17:59:53Z</time>
      </trkpt>
      <trkpt lat="44.7968" lon="1.61424">
        <ele>169.81</ele>
        <time>2021-08-16T17:59:54Z</time>
      </trkpt>
      <trkpt lat="44.79676" lon="1.6141">
        <ele>169.33</ele>
        <time>2021-08-16T17:59:56Z</time>
      </trkpt>
      <trkpt lat="44.79676" lon="1.61404">
        <ele>169.33</ele>
        <time>2021-08-16T17:59:57Z</time>
      </trkpt>
      <trkpt lat="44.79676" lon="1.614">
        <ele>168.85</ele>
        <time>2021-08-16T17:59:58Z</time>
      </trkpt>
      <trkpt lat="44.79677" lon="1.61396">
        <ele>168.85</ele>
        <time>2021-08-16T17:59:59Z</time>
      </trkpt>
      <trkpt lat="44.79678" lon="1.61392">
        <ele>168.85</ele>
        <time>2021-08-16T18:00:00Z</time>
      </trkpt>
      <trkpt lat="44.79677" lon="1.61388">
        <ele>168.85</ele>
        <time>2021-08-16T18:00:01Z</time>
      </trkpt>
      <trkpt lat="44.79677" lon="1.61385">
        <ele>168.37</ele>
        <time>2021-08-16T18:00:02Z</time>
      </trkpt>
      <trkpt lat="44.79677" lon="1.61382">
        <ele>168.37</ele>
        <time>2021-08-16T18:00:03Z</time>
      </trkpt>
      <trkpt lat="44.79678" lon="1.61379">
        <ele>168.37</ele>
        <time>2021-08-16T18:00:04Z</time>
      </trkpt>
      <trkpt lat="44.79679" lon="1.61376">
        <ele>168.37</ele>
        <time>2021-08-16T18:00:05Z</time>
      </trkpt>
      <trkpt lat="44.79679" lon="1.61372">
        <ele>168.37</ele>
        <time>2021-08-16T18:00:06Z</time>
      </trkpt>
      <trkpt lat="44.79683" lon="1.61354">
        <ele>167.41</ele>
        <time>2021-08-16T18:00:11Z</time>
      </trkpt>
      <trkpt lat="44.79684" lon="1.61353">
        <ele>167.41</ele>
        <time>2021-08-16T18:00:12Z</time>
      </trkpt>
      <trkpt lat="44.79685" lon="1.61354">
        <ele>167.41</ele>
        <time>2021-08-16T18:00:13Z</time>
      </trkpt>
      <trkpt lat="44.79686" lon="1.61357">
        <ele>167.41</ele>
        <time>2021-08-16T18:00:15Z</time>
      </trkpt>
      <trkpt lat="44.7968" lon="1.6138">
        <ele>167.41</ele>
        <time>2021-08-16T18:00:23Z</time>
      </trkpt>
      <trkpt lat="44.79678" lon="1.61396">
        <ele>168.85</ele>
        <time>2021-08-16T18:00:28Z</time>
      </trkpt>
      <trkpt lat="44.79682" lon="1.61418">
        <ele>170.77</ele>
        <time>2021-08-16T18:00:36Z</time>
      </trkpt>
      <trkpt lat="44.79681" lon="1.61431">
        <ele>170.77</ele>
        <time>2021-08-16T18:00:42Z</time>
      </trkpt>
      <trkpt lat="44.79682" lon="1.61437">
        <ele>168.85</ele>
        <time>2021-08-16T18:00:44Z</time>
      </trkpt>
      <trkpt lat="44.79685" lon="1.6145">
        <ele>166.45</ele>
        <time>2021-08-16T18:00:47Z</time>
      </trkpt>
      <trkpt lat="44.79687" lon="1.61454">
        <ele>166.45</ele>
        <time>2021-08-16T18:00:48Z</time>
      </trkpt>
      <trkpt lat="44.79693" lon="1.61474">
        <ele>164.52</ele>
        <time>2021-08-16T18:00:52Z</time>
      </trkpt>
      <trkpt lat="44.79695" lon="1.61484">
        <ele>163.08</ele>
        <time>2021-08-16T18:00:54Z</time>
      </trkpt>
      <trkpt lat="44.79696" lon="1.6149">
        <ele>161.64</ele>
        <time>2021-08-16T18:00:55Z</time>
      </trkpt>
      <trkpt lat="44.79697" lon="1.61496">
        <ele>160.68</ele>
        <time>2021-08-16T18:00:56Z</time>
      </trkpt>
      <trkpt lat="44.79699" lon="1.61501">
        <ele>159.24</ele>
        <time>2021-08-16T18:00:57Z</time>
      </trkpt>
      <trkpt lat="44.797" lon="1.61507">
        <ele>158.27</ele>
        <time>2021-08-16T18:00:58Z</time>
      </trkpt>
      <trkpt lat="44.79704" lon="1.61527">
        <ele>154.91</ele>
        <time>2021-08-16T18:01:02Z</time>
      </trkpt>
      <trkpt lat="44.79708" lon="1.61547">
        <ele>152.51</ele>
        <time>2021-08-16T18:01:06Z</time>
      </trkpt>
      <trkpt lat="44.79717" lon="1.61573">
        <ele>149.62</ele>
        <time>2021-08-16T18:01:11Z</time>
      </trkpt>
      <trkpt lat="44.79726" lon="1.616">
        <ele>146.26</ele>
        <time>2021-08-16T18:01:17Z</time>
      </trkpt>
      <trkpt lat="44.79732" lon="1.61616">
        <ele>142.41</ele>
        <time>2021-08-16T18:01:21Z</time>
      </trkpt>
      <trkpt lat="44.79733" lon="1.61618">
        <ele>142.41</ele>
        <time>2021-08-16T18:01:22Z</time>
      </trkpt>
      <trkpt lat="44.79733" lon="1.61622">
        <ele>141.93</ele>
        <time>2021-08-16T18:01:29Z</time>
      </trkpt>
      <trkpt lat="44.79737" lon="1.61631">
        <ele>140.97</ele>
        <time>2021-08-16T18:01:35Z</time>
      </trkpt>
      <trkpt lat="44.79737" lon="1.61634">
        <ele>140.97</ele>
        <time>2021-08-16T18:01:36Z</time>
      </trkpt>
      <trkpt lat="44.79737" lon="1.61636">
        <ele>140.49</ele>
        <time>2021-08-16T18:01:37Z</time>
      </trkpt>
      <trkpt lat="44.79734" lon="1.61637">
        <ele>140.49</ele>
        <time>2021-08-16T18:01:38Z</time>
      </trkpt>
      <trkpt lat="44.79732" lon="1.61635">
        <ele>139.53</ele>
        <time>2021-08-16T18:01:39Z</time>
      </trkpt>
      <trkpt lat="44.7973" lon="1.61633">
        <ele>139.53</ele>
        <time>2021-08-16T18:01:40Z</time>
      </trkpt>
      <trkpt lat="44.79727" lon="1.61631">
        <ele>139.05</ele>
        <time>2021-08-16T18:01:41Z</time>
      </trkpt>
      <trkpt lat="44.79709" lon="1.61619">
        <ele>135.2</ele>
        <time>2021-08-16T18:01:47Z</time>
      </trkpt>
      <trkpt lat="44.79696" lon="1.61613">
        <ele>133.28</ele>
        <time>2021-08-16T18:01:52Z</time>
      </trkpt>
      <trkpt lat="44.79695" lon="1.61613">
        <ele>132.8</ele>
        <time>2021-08-16T18:01:53Z</time>
      </trkpt>
      <trkpt lat="44.79693" lon="1.61614">
        <ele>132.32</ele>
        <time>2021-08-16T18:01:54Z</time>
      </trkpt>
      <trkpt lat="44.79692" lon="1.61615">
        <ele>132.32</ele>
        <time>2021-08-16T18:01:55Z</time>
      </trkpt>
      <trkpt lat="44.79691" lon="1.61617">
        <ele>131.84</ele>
        <time>2021-08-16T18:01:56Z</time>
      </trkpt>
      <trkpt lat="44.7969" lon="1.6162">
        <ele>131.84</ele>
        <time>2021-08-16T18:01:57Z</time>
      </trkpt>
      <trkpt lat="44.79689" lon="1.61622">
        <ele>131.84</ele>
        <time>2021-08-16T18:01:58Z</time>
      </trkpt>
      <trkpt lat="44.79688" lon="1.61624">
        <ele>131.36</ele>
        <time>2021-08-16T18:01:59Z</time>
      </trkpt>
      <trkpt lat="44.79685" lon="1.61626">
        <ele>131.36</ele>
        <time>2021-08-16T18:02:00Z</time>
      </trkpt>
      <trkpt lat="44.79677" lon="1.61631">
        <ele>129.43</ele>
        <time>2021-08-16T18:02:02Z</time>
      </trkpt>
      <trkpt lat="44.79672" lon="1.61632">
        <ele>129.43</ele>
        <time>2021-08-16T18:02:03Z</time>
      </trkpt>
      <trkpt lat="44.79662" lon="1.61634">
        <ele>129.43</ele>
        <time>2021-08-16T18:02:05Z</time>
      </trkpt>
      <trkpt lat="44.79658" lon="1.61636">
        <ele>129.43</ele>
        <time>2021-08-16T18:02:06Z</time>
      </trkpt>
      <trkpt lat="44.79655" lon="1.61638">
        <ele>129.43</ele>
        <time>2021-08-16T18:02:07Z</time>
      </trkpt>
      <trkpt lat="44.79649" lon="1.6164">
        <ele>129.43</ele>
        <time>2021-08-16T18:02:09Z</time>
      </trkpt>
      <trkpt lat="44.79646" lon="1.61639">
        <ele>129.43</ele>
        <time>2021-08-16T18:02:10Z</time>
      </trkpt>
      <trkpt lat="44.79644" lon="1.61637">
        <ele>129.43</ele>
        <time>2021-08-16T18:02:11Z</time>
      </trkpt>
      <trkpt lat="44.79625" lon="1.61618">
        <ele>130.88</ele>
        <time>2021-08-16T18:02:20Z</time>
      </trkpt>
      <trkpt lat="44.79613" lon="1.61605">
        <ele>131.84</ele>
        <time>2021-08-16T18:02:29Z</time>
      </trkpt>
      <trkpt lat="44.79602" lon="1.61594">
        <ele>132.8</ele>
        <time>2021-08-16T18:02:37Z</time>
      </trkpt>
      <trkpt lat="44.79601" lon="1.61593">
        <ele>132.8</ele>
        <time>2021-08-16T18:02:38Z</time>
      </trkpt>
      <trkpt lat="44.796" lon="1.6159">
        <ele>133.28</ele>
        <time>2021-08-16T18:02:44Z</time>
      </trkpt>
      <trkpt lat="44.79597" lon="1.61585">
        <ele>133.76</ele>
        <time>2021-08-16T18:02:53Z</time>
      </trkpt>
      <trkpt lat="44.79591" lon="1.61575">
        <ele>134.72</ele>
        <time>2021-08-16T18:03:03Z</time>
      </trkpt>
      <trkpt lat="44.79586" lon="1.61565">
        <ele>135.68</ele>
        <time>2021-08-16T18:03:13Z</time>
      </trkpt>
      <trkpt lat="44.79582" lon="1.6156">
        <ele>136.64</ele>
        <time>2021-08-16T18:03:22Z</time>
      </trkpt>
      <trkpt lat="44.79581" lon="1.6156">
        <ele>137.13</ele>
        <time>2021-08-16T18:03:37Z</time>
      </trkpt>
      <trkpt lat="44.79578" lon="1.61561">
        <ele>137.13</ele>
        <time>2021-08-16T18:03:58Z</time>
      </trkpt>
      <trkpt lat="44.79577" lon="1.61561">
        <ele>137.13</ele>
        <time>2021-08-16T18:04:20Z</time>
      </trkpt>
      <trkpt lat="44.79578" lon="1.61562">
        <ele>137.13</ele>
        <time>2021-08-16T18:04:34Z</time>
      </trkpt>
      <trkpt lat="44.79578" lon="1.61563">
        <ele>137.13</ele>
        <time>2021-08-16T18:04:36Z</time>
      </trkpt>
      <trkpt lat="44.79578" lon="1.61562">
        <ele>137.13</ele>
        <time>2021-08-16T18:04:42Z</time>
      </trkpt>
      <trkpt lat="44.79579" lon="1.6156">
        <ele>137.13</ele>
        <time>2021-08-16T18:05:04Z</time>
      </trkpt>
      <trkpt lat="44.7958" lon="1.6156">
        <ele>137.61</ele>
        <time>2021-08-16T18:05:29Z</time>
      </trkpt>
      <trkpt lat="44.7958" lon="1.61559">
        <ele>137.61</ele>
        <time>2021-08-16T18:05:45Z</time>
      </trkpt>
      <trkpt lat="44.79582" lon="1.61556">
        <ele>137.61</ele>
        <time>2021-08-16T18:06:01Z</time>
      </trkpt>
      <trkpt lat="44.79581" lon="1.61555">
        <ele>137.61</ele>
        <time>2021-08-16T18:06:17Z</time>
      </trkpt>
      <trkpt lat="44.7958" lon="1.61555">
        <ele>137.61</ele>
        <time>2021-08-16T18:06:33Z</time>
      </trkpt>
      <trkpt lat="44.7958" lon="1.61557">
        <ele>137.61</ele>
        <time>2021-08-16T18:06:50Z</time>
      </trkpt>
      <trkpt lat="44.79577" lon="1.61557">
        <ele>137.61</ele>
        <time>2021-08-16T18:07:11Z</time>
      </trkpt>
      <trkpt lat="44.7958" lon="1.61555">
        <ele>137.61</ele>
        <time>2021-08-16T18:07:42Z</time>
      </trkpt>
      <trkpt lat="44.7958" lon="1.61555">
        <ele>137.61</ele>
        <time>2021-08-16T18:08:11Z</time>
      </trkpt>
      <trkpt lat="44.79579" lon="1.61556">
        <ele>137.61</ele>
        <time>2021-08-16T18:08:27Z</time>
      </trkpt>
      <trkpt lat="44.79578" lon="1.61557">
        <ele>137.61</ele>
        <time>2021-08-16T18:08:44Z</time>
      </trkpt>
      <trkpt lat="44.79578" lon="1.61557">
        <ele>137.61</ele>
        <time>2021-08-16T18:09:04Z</time>
      </trkpt>
      <trkpt lat="44.79577" lon="1.61557">
        <ele>137.61</ele>
        <time>2021-08-16T18:09:19Z</time>
      </trkpt>
      <trkpt lat="44.79577" lon="1.61558">
        <ele>138.09</ele>
        <time>2021-08-16T18:09:34Z</time>
      </trkpt>
      <trkpt lat="44.79577" lon="1.61559">
        <ele>138.09</ele>
        <time>2021-08-16T18:09:40Z</time>
      </trkpt>
      <trkpt lat="44.79578" lon="1.61559">
        <ele>138.09</ele>
        <time>2021-08-16T18:10:04Z</time>
      </trkpt>
      <trkpt lat="44.79576" lon="1.61561">
        <ele>138.09</ele>
        <time>2021-08-16T18:10:25Z</time>
      </trkpt>
      <trkpt lat="44.7958" lon="1.6156">
        <ele>138.09</ele>
        <time>2021-08-16T18:10:48Z</time>
      </trkpt>
      <trkpt lat="44.79584" lon="1.6156">
        <ele>138.09</ele>
        <time>2021-08-16T18:11:07Z</time>
      </trkpt>
      <trkpt lat="44.79585" lon="1.6156">
        <ele>138.09</ele>
        <time>2021-08-16T18:11:26Z</time>
      </trkpt>
      <trkpt lat="44.79584" lon="1.61559">
        <ele>138.57</ele>
        <time>2021-08-16T18:11:48Z</time>
      </trkpt>
      <trkpt lat="44.79582" lon="1.6156">
        <ele>138.57</ele>
        <time>2021-08-16T18:12:09Z</time>
      </trkpt>
      <trkpt lat="44.79581" lon="1.6156">
        <ele>138.57</ele>
        <time>2021-08-16T18:12:28Z</time>
      </trkpt>
      <trkpt lat="44.79581" lon="1.61561">
        <ele>138.57</ele>
        <time>2021-08-16T18:12:52Z</time>
      </trkpt>
      <trkpt lat="44.79583" lon="1.61563">
        <ele>139.05</ele>
        <time>2021-08-16T18:13:18Z</time>
      </trkpt>
      <trkpt lat="44.79583" lon="1.61563">
        <ele>139.05</ele>
        <time>2021-08-16T18:13:35Z</time>
      </trkpt>
      <trkpt lat="44.79582" lon="1.61563">
        <ele>138.09</ele>
        <time>2021-08-16T18:13:57Z</time>
      </trkpt>
      <trkpt lat="44.79581" lon="1.61562">
        <ele>138.09</ele>
        <time>2021-08-16T18:14:14Z</time>
      </trkpt>
      <trkpt lat="44.7958" lon="1.61562">
        <ele>138.09</ele>
        <time>2021-08-16T18:14:28Z</time>
      </trkpt>
      <trkpt lat="44.7958" lon="1.61564">
        <ele>138.57</ele>
        <time>2021-08-16T18:14:45Z</time>
      </trkpt>
      <trkpt lat="44.79578" lon="1.61564">
        <ele>138.57</ele>
        <time>2021-08-16T18:15:11Z</time>
      </trkpt>
      <trkpt lat="44.79579" lon="1.61565">
        <ele>138.57</ele>
        <time>2021-08-16T18:15:32Z</time>
      </trkpt>
      <trkpt lat="44.7958" lon="1.61562">
        <ele>139.05</ele>
        <time>2021-08-16T18:15:50Z</time>
      </trkpt>
      <trkpt lat="44.7958" lon="1.61561">
        <ele>139.05</ele>
        <time>2021-08-16T18:16:00Z</time>
      </trkpt>
      <trkpt lat="44.79578" lon="1.6156">
        <ele>139.05</ele>
        <time>2021-08-16T18:16:21Z</time>
      </trkpt>
      <trkpt lat="44.79579" lon="1.6156">
        <ele>139.05</ele>
        <time>2021-08-16T18:16:37Z</time>
      </trkpt>
      <trkpt lat="44.79581" lon="1.61559">
        <ele>139.53</ele>
        <time>2021-08-16T18:16:53Z</time>
      </trkpt>
      <trkpt lat="44.79582" lon="1.61558">
        <ele>139.53</ele>
        <time>2021-08-16T18:17:17Z</time>
      </trkpt>
      <trkpt lat="44.79582" lon="1.61557">
        <ele>139.53</ele>
        <time>2021-08-16T18:17:36Z</time>
      </trkpt>
      <trkpt lat="44.79582" lon="1.61559">
        <ele>139.53</ele>
        <time>2021-08-16T18:17:53Z</time>
      </trkpt>
      <trkpt lat="44.79585" lon="1.61559">
        <ele>139.53</ele>
        <time>2021-08-16T18:18:11Z</time>
      </trkpt>
      <trkpt lat="44.79586" lon="1.61558">
        <ele>139.53</ele>
        <time>2021-08-16T18:18:27Z</time>
      </trkpt>
      <trkpt lat="44.79584" lon="1.61558">
        <ele>139.53</ele>
        <time>2021-08-16T18:18:52Z</time>
      </trkpt>
      <trkpt lat="44.79584" lon="1.61557">
        <ele>139.53</ele>
        <time>2021-08-16T18:19:09Z</time>
      </trkpt>
      <trkpt lat="44.79585" lon="1.61558">
        <ele>139.53</ele>
        <time>2021-08-16T18:19:21Z</time>
      </trkpt>
      <trkpt lat="44.79585" lon="1.6156">
        <ele>140.01</ele>
        <time>2021-08-16T18:19:37Z</time>
      </trkpt>
      <trkpt lat="44.79585" lon="1.61558">
        <ele>140.01</ele>
        <time>2021-08-16T18:20:00Z</time>
      </trkpt>
      <trkpt lat="44.79584" lon="1.61557">
        <ele>140.01</ele>
        <time>2021-08-16T18:20:16Z</time>
      </trkpt>
      <trkpt lat="44.79581" lon="1.61557">
        <ele>140.01</ele>
        <time>2021-08-16T18:20:35Z</time>
      </trkpt>
      <trkpt lat="44.79579" lon="1.61559">
        <ele>140.01</ele>
        <time>2021-08-16T18:20:57Z</time>
      </trkpt>
      <trkpt lat="44.79577" lon="1.61561">
        <ele>140.49</ele>
        <time>2021-08-16T18:21:18Z</time>
      </trkpt>
      <trkpt lat="44.79577" lon="1.61562">
        <ele>140.49</ele>
        <time>2021-08-16T18:21:39Z</time>
      </trkpt>
      <trkpt lat="44.79579" lon="1.61561">
        <ele>140.49</ele>
        <time>2021-08-16T18:22:02Z</time>
      </trkpt>
      <trkpt lat="44.7958" lon="1.61561">
        <ele>140.49</ele>
        <time>2021-08-16T18:22:22Z</time>
      </trkpt>
      <trkpt lat="44.79581" lon="1.61561">
        <ele>140.49</ele>
        <time>2021-08-16T18:22:43Z</time>
      </trkpt>
      <trkpt lat="44.79581" lon="1.6156">
        <ele>140.97</ele>
        <time>2021-08-16T18:23:04Z</time>
      </trkpt>
      <trkpt lat="44.79582" lon="1.61561">
        <ele>140.49</ele>
        <time>2021-08-16T18:23:27Z</time>
      </trkpt>
      <trkpt lat="44.79583" lon="1.61564">
        <ele>140.49</ele>
        <time>2021-08-16T18:23:44Z</time>
      </trkpt>
      <trkpt lat="44.79586" lon="1.61565">
        <ele>140.49</ele>
        <time>2021-08-16T18:23:56Z</time>
      </trkpt>
      <trkpt lat="44.79585" lon="1.61564">
        <ele>140.97</ele>
        <time>2021-08-16T18:24:15Z</time>
      </trkpt>
      <trkpt lat="44.79585" lon="1.61563">
        <ele>140.97</ele>
        <time>2021-08-16T18:24:30Z</time>
      </trkpt>
      <trkpt lat="44.79581" lon="1.61562">
        <ele>140.97</ele>
        <time>2021-08-16T18:24:43Z</time>
      </trkpt>
      <trkpt lat="44.79582" lon="1.61563">
        <ele>140.97</ele>
        <time>2021-08-16T18:24:55Z</time>
      </trkpt>
      <trkpt lat="44.79582" lon="1.61563">
        <ele>140.97</ele>
        <time>2021-08-16T18:25:11Z</time>
      </trkpt>
      <trkpt lat="44.79584" lon="1.61564">
        <ele>140.97</ele>
        <time>2021-08-16T18:25:32Z</time>
      </trkpt>
      <trkpt lat="44.79586" lon="1.61561">
        <ele>140.97</ele>
        <time>2021-08-16T18:25:54Z</time>
      </trkpt>
      <trkpt lat="44.79584" lon="1.61562">
        <ele>141.45</ele>
        <time>2021-08-16T18:26:15Z</time>
      </trkpt>
      <trkpt lat="44.79583" lon="1.61562">
        <ele>141.45</ele>
        <time>2021-08-16T18:26:33Z</time>
      </trkpt>
      <trkpt lat="44.79582" lon="1.6156">
        <ele>141.45</ele>
        <time>2021-08-16T18:26:48Z</time>
      </trkpt>
      <trkpt lat="44.7958" lon="1.6156">
        <ele>141.45</ele>
        <time>2021-08-16T18:27:06Z</time>
      </trkpt>
      <trkpt lat="44.79578" lon="1.61562">
        <ele>141.45</ele>
        <time>2021-08-16T18:27:30Z</time>
      </trkpt>
      <trkpt lat="44.79578" lon="1.61564">
        <ele>141.45</ele>
        <time>2021-08-16T18:27:50Z</time>
      </trkpt>
      <trkpt lat="44.79576" lon="1.61564">
        <ele>141.45</ele>
        <time>2021-08-16T18:28:05Z</time>
      </trkpt>
      <trkpt lat="44.79579" lon="1.61563">
        <ele>141.45</ele>
        <time>2021-08-16T18:28:21Z</time>
      </trkpt>
      <trkpt lat="44.79579" lon="1.61564">
        <ele>141.45</ele>
        <time>2021-08-16T18:28:43Z</time>
      </trkpt>
      <trkpt lat="44.79581" lon="1.61564">
        <ele>141.45</ele>
        <time>2021-08-16T18:29:00Z</time>
      </trkpt>
      <trkpt lat="44.79581" lon="1.61562">
        <ele>141.93</ele>
        <time>2021-08-16T18:29:17Z</time>
      </trkpt>
      <trkpt lat="44.79582" lon="1.61563">
        <ele>141.93</ele>
        <time>2021-08-16T18:29:39Z</time>
      </trkpt>
      <trkpt lat="44.79584" lon="1.61562">
        <ele>141.93</ele>
        <time>2021-08-16T18:29:56Z</time>
      </trkpt>
      <trkpt lat="44.79581" lon="1.61561">
        <ele>141.93</ele>
        <time>2021-08-16T18:30:20Z</time>
      </trkpt>
      <trkpt lat="44.79582" lon="1.6156">
        <ele>141.93</ele>
        <time>2021-08-16T18:30:38Z</time>
      </trkpt>
      <trkpt lat="44.79585" lon="1.61559">
        <ele>142.41</ele>
        <time>2021-08-16T18:30:51Z</time>
      </trkpt>
      <trkpt lat="44.79585" lon="1.6156">
        <ele>142.41</ele>
        <time>2021-08-16T18:31:09Z</time>
      </trkpt>
      <trkpt lat="44.79581" lon="1.6156">
        <ele>142.41</ele>
        <time>2021-08-16T18:31:26Z</time>
      </trkpt>
      <trkpt lat="44.79581" lon="1.61559">
        <ele>142.41</ele>
        <time>2021-08-16T18:31:44Z</time>
      </trkpt>
      <trkpt lat="44.7958" lon="1.61559">
        <ele>142.41</ele>
        <time>2021-08-16T18:32:00Z</time>
      </trkpt>
      <trkpt lat="44.79579" lon="1.61558">
        <ele>142.41</ele>
        <time>2021-08-16T18:32:17Z</time>
      </trkpt>
      <trkpt lat="44.7958" lon="1.61556">
        <ele>142.41</ele>
        <time>2021-08-16T18:32:35Z</time>
      </trkpt>
      <trkpt lat="44.79582" lon="1.61557">
        <ele>142.41</ele>
        <time>2021-08-16T18:32:53Z</time>
      </trkpt>
      <trkpt lat="44.79582" lon="1.61558">
        <ele>142.41</ele>
        <time>2021-08-16T18:33:11Z</time>
      </trkpt>
      <trkpt lat="44.79582" lon="1.6156">
        <ele>142.41</ele>
        <time>2021-08-16T18:33:27Z</time>
      </trkpt>
      <trkpt lat="44.79581" lon="1.61562">
        <ele>142.41</ele>
        <time>2021-08-16T18:33:43Z</time>
      </trkpt>
      <trkpt lat="44.79581" lon="1.61562">
        <ele>142.89</ele>
        <time>2021-08-16T18:34:09Z</time>
      </trkpt>
      <trkpt lat="44.79582" lon="1.61561">
        <ele>142.89</ele>
        <time>2021-08-16T18:34:22Z</time>
      </trkpt>
      <trkpt lat="44.79583" lon="1.61559">
        <ele>142.89</ele>
        <time>2021-08-16T18:34:35Z</time>
      </trkpt>
      <trkpt lat="44.79582" lon="1.61559">
        <ele>142.89</ele>
        <time>2021-08-16T18:34:49Z</time>
      </trkpt>
      <trkpt lat="44.79582" lon="1.6156">
        <ele>142.89</ele>
        <time>2021-08-16T18:35:05Z</time>
      </trkpt>
      <trkpt lat="44.79581" lon="1.61559">
        <ele>142.89</ele>
        <time>2021-08-16T18:35:27Z</time>
      </trkpt>
      <trkpt lat="44.79582" lon="1.61558">
        <ele>142.89</ele>
        <time>2021-08-16T18:35:42Z</time>
      </trkpt>
      <trkpt lat="44.79582" lon="1.61558">
        <ele>142.89</ele>
        <time>2021-08-16T18:35:57Z</time>
      </trkpt>
      <trkpt lat="44.7958" lon="1.61559">
        <ele>142.89</ele>
        <time>2021-08-16T18:36:16Z</time>
      </trkpt>
      <trkpt lat="44.79579" lon="1.6156">
        <ele>142.89</ele>
        <time>2021-08-16T18:36:33Z</time>
      </trkpt>
      <trkpt lat="44.7958" lon="1.61559">
        <ele>142.89</ele>
        <time>2021-08-16T18:36:51Z</time>
      </trkpt>
      <trkpt lat="44.79582" lon="1.61559">
        <ele>142.89</ele>
        <time>2021-08-16T18:37:09Z</time>
      </trkpt>
      <trkpt lat="44.79582" lon="1.6156">
        <ele>142.89</ele>
        <time>2021-08-16T18:37:32Z</time>
      </trkpt>
      <trkpt lat="44.79582" lon="1.6156">
        <ele>142.89</ele>
        <time>2021-08-16T18:37:50Z</time>
      </trkpt>
      <trkpt lat="44.79583" lon="1.6156">
        <ele>142.89</ele>
        <time>2021-08-16T18:38:06Z</time>
      </trkpt>
      <trkpt lat="44.79583" lon="1.61559">
        <ele>142.89</ele>
        <time>2021-08-16T18:38:23Z</time>
      </trkpt>
      <trkpt lat="44.79583" lon="1.61557">
        <ele>142.89</ele>
        <time>2021-08-16T18:38:39Z</time>
      </trkpt>
      <trkpt lat="44.79582" lon="1.61556">
        <ele>143.37</ele>
        <time>2021-08-16T18:38:55Z</time>
      </trkpt>
      <trkpt lat="44.79583" lon="1.61558">
        <ele>143.37</ele>
        <time>2021-08-16T18:39:08Z</time>
      </trkpt>
      <trkpt lat="44.79583" lon="1.61558">
        <ele>143.37</ele>
        <time>2021-08-16T18:39:16Z</time>
      </trkpt>
      <trkpt lat="44.79585" lon="1.61558">
        <ele>142.89</ele>
        <time>2021-08-16T18:39:31Z</time>
      </trkpt>
      <trkpt lat="44.79584" lon="1.61558">
        <ele>142.89</ele>
        <time>2021-08-16T18:39:43Z</time>
      </trkpt>
      <trkpt lat="44.79586" lon="1.61558">
        <ele>142.89</ele>
        <time>2021-08-16T18:39:57Z</time>
      </trkpt>
      <trkpt lat="44.79587" lon="1.61559">
        <ele>142.89</ele>
        <time>2021-08-16T18:40:12Z</time>
      </trkpt>
      <trkpt lat="44.79588" lon="1.61559">
        <ele>142.89</ele>
        <time>2021-08-16T18:40:31Z</time>
      </trkpt>
      <trkpt lat="44.79586" lon="1.61561">
        <ele>142.89</ele>
        <time>2021-08-16T18:40:50Z</time>
      </trkpt>
      <trkpt lat="44.79589" lon="1.61564">
        <ele>142.89</ele>
        <time>2021-08-16T18:41:11Z</time>
      </trkpt>
      <trkpt lat="44.79586" lon="1.61563">
        <ele>143.37</ele>
        <time>2021-08-16T18:41:30Z</time>
      </trkpt>
      <trkpt lat="44.79584" lon="1.61562">
        <ele>143.37</ele>
        <time>2021-08-16T18:41:49Z</time>
      </trkpt>
      <trkpt lat="44.79582" lon="1.61561">
        <ele>143.37</ele>
        <time>2021-08-16T18:42:03Z</time>
      </trkpt>
      <trkpt lat="44.79579" lon="1.61559">
        <ele>143.37</ele>
        <time>2021-08-16T18:42:16Z</time>
      </trkpt>
      <trkpt lat="44.7958" lon="1.61557">
        <ele>143.37</ele>
        <time>2021-08-16T18:42:31Z</time>
      </trkpt>
      <trkpt lat="44.79581" lon="1.61557">
        <ele>143.37</ele>
        <time>2021-08-16T18:42:47Z</time>
      </trkpt>
      <trkpt lat="44.79581" lon="1.61557">
        <ele>143.37</ele>
        <time>2021-08-16T18:42:59Z</time>
      </trkpt>
      <trkpt lat="44.79583" lon="1.61556">
        <ele>143.37</ele>
        <time>2021-08-16T18:43:19Z</time>
      </trkpt>
      <trkpt lat="44.79584" lon="1.61557">
        <ele>143.37</ele>
        <time>2021-08-16T18:43:42Z</time>
      </trkpt>
      <trkpt lat="44.79583" lon="1.61559">
        <ele>143.37</ele>
        <time>2021-08-16T18:44:00Z</time>
      </trkpt>
      <trkpt lat="44.79582" lon="1.61561">
        <ele>143.37</ele>
        <time>2021-08-16T18:44:18Z</time>
      </trkpt>
      <trkpt lat="44.79583" lon="1.61562">
        <ele>143.37</ele>
        <time>2021-08-16T18:44:35Z</time>
      </trkpt>
      <trkpt lat="44.79584" lon="1.61563">
        <ele>143.37</ele>
        <time>2021-08-16T18:44:50Z</time>
      </trkpt>
      <trkpt lat="44.79582" lon="1.61562">
        <ele>143.37</ele>
        <time>2021-08-16T18:45:14Z</time>
      </trkpt>
      <trkpt lat="44.7958" lon="1.61559">
        <ele>143.37</ele>
        <time>2021-08-16T18:45:38Z</time>
      </trkpt>
      <trkpt lat="44.7958" lon="1.6156">
        <ele>143.37</ele>
        <time>2021-08-16T18:45:57Z</time>
      </trkpt>
      <trkpt lat="44.79582" lon="1.61556">
        <ele>143.37</ele>
        <time>2021-08-16T18:46:21Z</time>
      </trkpt>
      <trkpt lat="44.79584" lon="1.61556">
        <ele>143.85</ele>
        <time>2021-08-16T18:46:44Z</time>
      </trkpt>
      <trkpt lat="44.79583" lon="1.61555">
        <ele>143.85</ele>
        <time>2021-08-16T18:47:00Z</time>
      </trkpt>
      <trkpt lat="44.79583" lon="1.61554">
        <ele>143.85</ele>
        <time>2021-08-16T18:47:18Z</time>
      </trkpt>
      <trkpt lat="44.79584" lon="1.61555">
        <ele>143.85</ele>
        <time>2021-08-16T18:47:32Z</time>
      </trkpt>
      <trkpt lat="44.79585" lon="1.61556">
        <ele>143.85</ele>
        <time>2021-08-16T18:47:44Z</time>
      </trkpt>
      <trkpt lat="44.79584" lon="1.61554">
        <ele>143.85</ele>
        <time>2021-08-16T18:48:01Z</time>
      </trkpt>
      <trkpt lat="44.79582" lon="1.61555">
        <ele>144.34</ele>
        <time>2021-08-16T18:48:20Z</time>
      </trkpt>
      <trkpt lat="44.79585" lon="1.61554">
        <ele>144.34</ele>
        <time>2021-08-16T18:48:34Z</time>
      </trkpt>
      <trkpt lat="44.79583" lon="1.6156">
        <ele>144.34</ele>
        <time>2021-08-16T18:48:54Z</time>
      </trkpt>
      <trkpt lat="44.79583" lon="1.61564">
        <ele>144.34</ele>
        <time>2021-08-16T18:49:09Z</time>
      </trkpt>
      <trkpt lat="44.79583" lon="1.61562">
        <ele>144.82</ele>
        <time>2021-08-16T18:49:29Z</time>
      </trkpt>
      <trkpt lat="44.79583" lon="1.61562">
        <ele>144.82</ele>
        <time>2021-08-16T18:49:48Z</time>
      </trkpt>
      <trkpt lat="44.79583" lon="1.6156">
        <ele>144.82</ele>
        <time>2021-08-16T18:50:02Z</time>
      </trkpt>
      <trkpt lat="44.79584" lon="1.61559">
        <ele>144.82</ele>
        <time>2021-08-16T18:50:19Z</time>
      </trkpt>
      <trkpt lat="44.79586" lon="1.6156">
        <ele>145.3</ele>
        <time>2021-08-16T18:50:38Z</time>
      </trkpt>
      <trkpt lat="44.79586" lon="1.61561">
        <ele>145.3</ele>
        <time>2021-08-16T18:50:52Z</time>
      </trkpt>
      <trkpt lat="44.79586" lon="1.61559">
        <ele>145.3</ele>
        <time>2021-08-16T18:51:13Z</time>
      </trkpt>
      <trkpt lat="44.79584" lon="1.61559">
        <ele>144.82</ele>
        <time>2021-08-16T18:51:29Z</time>
      </trkpt>
      <trkpt lat="44.79586" lon="1.61557">
        <ele>145.3</ele>
        <time>2021-08-16T18:51:47Z</time>
      </trkpt>
      <trkpt lat="44.79586" lon="1.61555">
        <ele>145.3</ele>
        <time>2021-08-16T18:52:02Z</time>
      </trkpt>
      <trkpt lat="44.79586" lon="1.61556">
        <ele>145.3</ele>
        <time>2021-08-16T18:52:19Z</time>
      </trkpt>
      <trkpt lat="44.79586" lon="1.61557">
        <ele>145.3</ele>
        <time>2021-08-16T18:52:38Z</time>
      </trkpt>
      <trkpt lat="44.79589" lon="1.61557">
        <ele>145.3</ele>
        <time>2021-08-16T18:52:57Z</time>
      </trkpt>
      <trkpt lat="44.79589" lon="1.61557">
        <ele>145.78</ele>
        <time>2021-08-16T18:53:12Z</time>
      </trkpt>
      <trkpt lat="44.79588" lon="1.61556">
        <ele>145.78</ele>
        <time>2021-08-16T18:53:32Z</time>
      </trkpt>
      <trkpt lat="44.79588" lon="1.61555">
        <ele>145.78</ele>
        <time>2021-08-16T18:53:50Z</time>
      </trkpt>
      <trkpt lat="44.79584" lon="1.61558">
        <ele>145.78</ele>
        <time>2021-08-16T18:54:06Z</time>
      </trkpt>
      <trkpt lat="44.79583" lon="1.61559">
        <ele>145.78</ele>
        <time>2021-08-16T18:54:19Z</time>
      </trkpt>
      <trkpt lat="44.79582" lon="1.61559">
        <ele>146.26</ele>
        <time>2021-08-16T18:54:37Z</time>
      </trkpt>
      <trkpt lat="44.79581" lon="1.61556">
        <ele>146.26</ele>
        <time>2021-08-16T18:54:57Z</time>
      </trkpt>
      <trkpt lat="44.79578" lon="1.61555">
        <ele>146.26</ele>
        <time>2021-08-16T18:55:13Z</time>
      </trkpt>
      <trkpt lat="44.79576" lon="1.61556">
        <ele>145.78</ele>
        <time>2021-08-16T18:55:34Z</time>
      </trkpt>
      <trkpt lat="44.79573" lon="1.61557">
        <ele>145.78</ele>
        <time>2021-08-16T18:55:55Z</time>
      </trkpt>
      <trkpt lat="44.79572" lon="1.61559">
        <ele>145.78</ele>
        <time>2021-08-16T18:56:12Z</time>
      </trkpt>
      <trkpt lat="44.79571" lon="1.61559">
        <ele>145.78</ele>
        <time>2021-08-16T18:56:29Z</time>
      </trkpt>
      <trkpt lat="44.79573" lon="1.61557">
        <ele>145.3</ele>
        <time>2021-08-16T18:56:49Z</time>
      </trkpt>
      <trkpt lat="44.79575" lon="1.61557">
        <ele>145.3</ele>
        <time>2021-08-16T18:57:00Z</time>
      </trkpt>
      <trkpt lat="44.79576" lon="1.61557">
        <ele>145.3</ele>
        <time>2021-08-16T18:57:19Z</time>
      </trkpt>
      <trkpt lat="44.79578" lon="1.61557">
        <ele>145.3</ele>
        <time>2021-08-16T18:57:39Z</time>
      </trkpt>
      <trkpt lat="44.79578" lon="1.61557">
        <ele>145.3</ele>
        <time>2021-08-16T18:57:55Z</time>
      </trkpt>
      <trkpt lat="44.79576" lon="1.61558">
        <ele>144.82</ele>
        <time>2021-08-16T18:58:08Z</time>
      </trkpt>
      <trkpt lat="44.79576" lon="1.61558">
        <ele>144.34</ele>
        <time>2021-08-16T18:58:24Z</time>
      </trkpt>
      <trkpt lat="44.79576" lon="1.61556">
        <ele>144.34</ele>
        <time>2021-08-16T18:58:35Z</time>
      </trkpt>
      <trkpt lat="44.79577" lon="1.61555">
        <ele>144.34</ele>
        <time>2021-08-16T18:58:51Z</time>
      </trkpt>
      <trkpt lat="44.79578" lon="1.61555">
        <ele>144.34</ele>
        <time>2021-08-16T18:59:07Z</time>
      </trkpt>
      <trkpt lat="44.79581" lon="1.61556">
        <ele>144.34</ele>
        <time>2021-08-16T18:59:25Z</time>
      </trkpt>
      <trkpt lat="44.79582" lon="1.61555">
        <ele>144.34</ele>
        <time>2021-08-16T18:59:35Z</time>
      </trkpt>
      <trkpt lat="44.79582" lon="1.61555">
        <ele>144.34</ele>
        <time>2021-08-16T18:59:47Z</time>
      </trkpt>
      <trkpt lat="44.79582" lon="1.61557">
        <ele>144.34</ele>
        <time>2021-08-16T19:00:03Z</time>
      </trkpt>
      <trkpt lat="44.79583" lon="1.61558">
        <ele>143.85</ele>
        <time>2021-08-16T19:00:23Z</time>
      </trkpt>
      <trkpt lat="44.79582" lon="1.61557">
        <ele>143.85</ele>
        <time>2021-08-16T19:00:42Z</time>
      </trkpt>
      <trkpt lat="44.79581" lon="1.61556">
        <ele>143.85</ele>
        <time>2021-08-16T19:01:04Z</time>
      </trkpt>
      <trkpt lat="44.79582" lon="1.61555">
        <ele>143.85</ele>
        <time>2021-08-16T19:01:14Z</time>
      </trkpt>
      <trkpt lat="44.7958" lon="1.61551">
        <ele>143.85</ele>
        <time>2021-08-16T19:01:22Z</time>
      </trkpt>
      <trkpt lat="44.7958" lon="1.61553">
        <ele>143.85</ele>
        <time>2021-08-16T19:01:29Z</time>
      </trkpt>
      <trkpt lat="44.79581" lon="1.61553">
        <ele>143.85</ele>
        <time>2021-08-16T19:01:35Z</time>
      </trkpt>
      <trkpt lat="44.79578" lon="1.61549">
        <ele>143.85</ele>
        <time>2021-08-16T19:01:42Z</time>
      </trkpt>
      <trkpt lat="44.79573" lon="1.61544">
        <ele>145.78</ele>
        <time>2021-08-16T19:01:51Z</time>
      </trkpt>
      <trkpt lat="44.79567" lon="1.61538">
        <ele>147.22</ele>
        <time>2021-08-16T19:02:02Z</time>
      </trkpt>
      <trkpt lat="44.79563" lon="1.61534">
        <ele>148.18</ele>
        <time>2021-08-16T19:02:10Z</time>
      </trkpt>
      <trkpt lat="44.79557" lon="1.61526">
        <ele>149.62</ele>
        <time>2021-08-16T19:02:21Z</time>
      </trkpt>
      <trkpt lat="44.79553" lon="1.6152">
        <ele>150.58</ele>
        <time>2021-08-16T19:02:30Z</time>
      </trkpt>
      <trkpt lat="44.79547" lon="1.61513">
        <ele>152.03</ele>
        <time>2021-08-16T19:02:42Z</time>
      </trkpt>
      <trkpt lat="44.79543" lon="1.61508">
        <ele>152.99</ele>
        <time>2021-08-16T19:02:50Z</time>
      </trkpt>
      <trkpt lat="44.79539" lon="1.61502">
        <ele>154.43</ele>
        <time>2021-08-16T19:02:58Z</time>
      </trkpt>
      <trkpt lat="44.79536" lon="1.61498">
        <ele>154.91</ele>
        <time>2021-08-16T19:03:06Z</time>
      </trkpt>
      <trkpt lat="44.79535" lon="1.61494">
        <ele>155.39</ele>
        <time>2021-08-16T19:03:13Z</time>
      </trkpt>
      <trkpt lat="44.79533" lon="1.61491">
        <ele>155.87</ele>
        <time>2021-08-16T19:03:20Z</time>
      </trkpt>
      <trkpt lat="44.79526" lon="1.61483">
        <ele>157.79</ele>
        <time>2021-08-16T19:03:31Z</time>
      </trkpt>
      <trkpt lat="44.7952" lon="1.61475">
        <ele>159.24</ele>
        <time>2021-08-16T19:03:41Z</time>
      </trkpt>
      <trkpt lat="44.79516" lon="1.6147">
        <ele>160.68</ele>
        <time>2021-08-16T19:03:50Z</time>
      </trkpt>
      <trkpt lat="44.79512" lon="1.61465">
        <ele>161.64</ele>
        <time>2021-08-16T19:03:59Z</time>
      </trkpt>
      <trkpt lat="44.79507" lon="1.61458">
        <ele>163.08</ele>
        <time>2021-08-16T19:04:09Z</time>
      </trkpt>
      <trkpt lat="44.79503" lon="1.61451">
        <ele>164.04</ele>
        <time>2021-08-16T19:04:18Z</time>
      </trkpt>
      <trkpt lat="44.79498" lon="1.6145">
        <ele>165.48</ele>
        <time>2021-08-16T19:04:28Z</time>
      </trkpt>
      <trkpt lat="44.79497" lon="1.61455">
        <ele>166.93</ele>
        <time>2021-08-16T19:04:37Z</time>
      </trkpt>
      <trkpt lat="44.79498" lon="1.61462">
        <ele>167.89</ele>
        <time>2021-08-16T19:04:46Z</time>
      </trkpt>
      <trkpt lat="44.795" lon="1.61471">
        <ele>168.85</ele>
        <time>2021-08-16T19:04:55Z</time>
      </trkpt>
      <trkpt lat="44.79499" lon="1.61477">
        <ele>170.29</ele>
        <time>2021-08-16T19:05:01Z</time>
      </trkpt>
      <trkpt lat="44.795" lon="1.61485">
        <ele>170.77</ele>
        <time>2021-08-16T19:05:09Z</time>
      </trkpt>
      <trkpt lat="44.79501" lon="1.61495">
        <ele>172.21</ele>
        <time>2021-08-16T19:05:19Z</time>
      </trkpt>
      <trkpt lat="44.79502" lon="1.61504">
        <ele>173.66</ele>
        <time>2021-08-16T19:05:29Z</time>
      </trkpt>
      <trkpt lat="44.79503" lon="1.6151">
        <ele>174.14</ele>
        <time>2021-08-16T19:05:36Z</time>
      </trkpt>
      <trkpt lat="44.79502" lon="1.61516">
        <ele>175.58</ele>
        <time>2021-08-16T19:05:44Z</time>
      </trkpt>
      <trkpt lat="44.795" lon="1.61525">
        <ele>176.06</ele>
        <time>2021-08-16T19:05:53Z</time>
      </trkpt>
      <trkpt lat="44.79496" lon="1.61525">
        <ele>177.5</ele>
        <time>2021-08-16T19:06:02Z</time>
      </trkpt>
      <trkpt lat="44.79492" lon="1.61519">
        <ele>177.98</ele>
        <time>2021-08-16T19:06:10Z</time>
      </trkpt>
      <trkpt lat="44.79489" lon="1.61511">
        <ele>179.42</ele>
        <time>2021-08-16T19:06:20Z</time>
      </trkpt>
      <trkpt lat="44.79487" lon="1.61504">
        <ele>180.38</ele>
        <time>2021-08-16T19:06:27Z</time>
      </trkpt>
      <trkpt lat="44.79482" lon="1.61496">
        <ele>181.35</ele>
        <time>2021-08-16T19:06:37Z</time>
      </trkpt>
      <trkpt lat="44.79479" lon="1.61489">
        <ele>182.31</ele>
        <time>2021-08-16T19:06:45Z</time>
      </trkpt>
      <trkpt lat="44.79477" lon="1.61483">
        <ele>183.27</ele>
        <time>2021-08-16T19:06:52Z</time>
      </trkpt>
      <trkpt lat="44.79474" lon="1.61473">
        <ele>184.71</ele>
        <time>2021-08-16T19:07:03Z</time>
      </trkpt>
      <trkpt lat="44.79472" lon="1.61464">
        <ele>185.67</ele>
        <time>2021-08-16T19:07:12Z</time>
      </trkpt>
      <trkpt lat="44.79475" lon="1.6146">
        <ele>185.67</ele>
        <time>2021-08-16T19:07:13Z</time>
      </trkpt>
      <trkpt lat="44.79475" lon="1.61457">
        <ele>186.15</ele>
        <time>2021-08-16T19:07:16Z</time>
      </trkpt>
      <trkpt lat="44.7947" lon="1.61454">
        <ele>187.11</ele>
        <time>2021-08-16T19:07:23Z</time>
      </trkpt>
      <trkpt lat="44.79465" lon="1.61446">
        <ele>189.04</ele>
        <time>2021-08-16T19:07:34Z</time>
      </trkpt>
      <trkpt lat="44.79461" lon="1.61437">
        <ele>190.48</ele>
        <time>2021-08-16T19:07:44Z</time>
      </trkpt>
      <trkpt lat="44.79459" lon="1.61431">
        <ele>190.96</ele>
        <time>2021-08-16T19:07:50Z</time>
      </trkpt>
      <trkpt lat="44.79458" lon="1.61422">
        <ele>191.92</ele>
        <time>2021-08-16T19:07:58Z</time>
      </trkpt>
      <trkpt lat="44.79457" lon="1.61413">
        <ele>193.36</ele>
        <time>2021-08-16T19:08:09Z</time>
      </trkpt>
      <trkpt lat="44.79456" lon="1.61411">
        <ele>193.36</ele>
        <time>2021-08-16T19:08:20Z</time>
      </trkpt>
      <trkpt lat="44.79455" lon="1.61409">
        <ele>193.36</ele>
        <time>2021-08-16T19:08:31Z</time>
      </trkpt>
      <trkpt lat="44.79456" lon="1.61406">
        <ele>193.36</ele>
        <time>2021-08-16T19:08:40Z</time>
      </trkpt>
      <trkpt lat="44.79455" lon="1.61401">
        <ele>193.36</ele>
        <time>2021-08-16T19:08:47Z</time>
      </trkpt>
      <trkpt lat="44.79455" lon="1.61389">
        <ele>192.88</ele>
        <time>2021-08-16T19:08:54Z</time>
      </trkpt>
      <trkpt lat="44.79455" lon="1.61374">
        <ele>192.88</ele>
        <time>2021-08-16T19:09:00Z</time>
      </trkpt>
      <trkpt lat="44.79454" lon="1.61372">
        <ele>192.88</ele>
        <time>2021-08-16T19:09:01Z</time>
      </trkpt>
      <trkpt lat="44.79453" lon="1.6137">
        <ele>192.88</ele>
        <time>2021-08-16T19:09:02Z</time>
      </trkpt>
      <trkpt lat="44.79452" lon="1.61367">
        <ele>193.84</ele>
        <time>2021-08-16T19:09:03Z</time>
      </trkpt>
      <trkpt lat="44.79451" lon="1.61364">
        <ele>193.84</ele>
        <time>2021-08-16T19:09:04Z</time>
      </trkpt>
      <trkpt lat="44.7945" lon="1.61361">
        <ele>193.84</ele>
        <time>2021-08-16T19:09:05Z</time>
      </trkpt>
      <trkpt lat="44.7945" lon="1.61358">
        <ele>193.84</ele>
        <time>2021-08-16T19:09:06Z</time>
      </trkpt>
      <trkpt lat="44.7945" lon="1.61355">
        <ele>193.84</ele>
        <time>2021-08-16T19:09:07Z</time>
      </trkpt>
      <trkpt lat="44.7945" lon="1.61352">
        <ele>193.84</ele>
        <time>2021-08-16T19:09:08Z</time>
      </trkpt>
      <trkpt lat="44.7945" lon="1.61349">
        <ele>193.84</ele>
        <time>2021-08-16T19:09:09Z</time>
      </trkpt>
      <trkpt lat="44.79451" lon="1.61345">
        <ele>193.84</ele>
        <time>2021-08-16T19:09:10Z</time>
      </trkpt>
      <trkpt lat="44.79457" lon="1.61324">
        <ele>192.88</ele>
        <time>2021-08-16T19:09:16Z</time>
      </trkpt>
      <trkpt lat="44.7947" lon="1.61297">
        <ele>191.92</ele>
        <time>2021-08-16T19:09:23Z</time>
      </trkpt>
      <trkpt lat="44.79475" lon="1.61287">
        <ele>190.48</ele>
        <time>2021-08-16T19:09:26Z</time>
      </trkpt>
      <trkpt lat="44.79486" lon="1.61272">
        <ele>190.96</ele>
        <time>2021-08-16T19:09:32Z</time>
      </trkpt>
      <trkpt lat="44.79502" lon="1.61251">
        <ele>190.96</ele>
        <time>2021-08-16T19:09:39Z</time>
      </trkpt>
      <trkpt lat="44.79507" lon="1.61242">
        <ele>192.4</ele>
        <time>2021-08-16T19:09:42Z</time>
      </trkpt>
      <trkpt lat="44.79514" lon="1.61223">
        <ele>192.88</ele>
        <time>2021-08-16T19:09:49Z</time>
      </trkpt>
      <trkpt lat="44.79525" lon="1.6121">
        <ele>194.32</ele>
        <time>2021-08-16T19:09:57Z</time>
      </trkpt>
      <trkpt lat="44.79538" lon="1.61203">
        <ele>196.25</ele>
        <time>2021-08-16T19:10:05Z</time>
      </trkpt>
      <trkpt lat="44.79546" lon="1.6119">
        <ele>197.69</ele>
        <time>2021-08-16T19:10:13Z</time>
      </trkpt>
      <trkpt lat="44.79548" lon="1.61184">
        <ele>198.17</ele>
        <time>2021-08-16T19:10:17Z</time>
      </trkpt>
      <trkpt lat="44.79548" lon="1.61183">
        <ele>197.69</ele>
        <time>2021-08-16T19:10:18Z</time>
      </trkpt>
      <trkpt lat="44.79552" lon="1.61175">
        <ele>199.13</ele>
        <time>2021-08-16T19:10:25Z</time>
      </trkpt>
      <trkpt lat="44.79556" lon="1.61162">
        <ele>201.05</ele>
        <time>2021-08-16T19:10:37Z</time>
      </trkpt>
      <trkpt lat="44.79557" lon="1.61152">
        <ele>202.49</ele>
        <time>2021-08-16T19:10:46Z</time>
      </trkpt>
      <trkpt lat="44.79559" lon="1.61143">
        <ele>203.46</ele>
        <time>2021-08-16T19:10:56Z</time>
      </trkpt>
      <trkpt lat="44.79558" lon="1.61134">
        <ele>204.9</ele>
        <time>2021-08-16T19:11:05Z</time>
      </trkpt>
      <trkpt lat="44.79558" lon="1.61127">
        <ele>205.86</ele>
        <time>2021-08-16T19:11:13Z</time>
      </trkpt>
      <trkpt lat="44.79557" lon="1.61121">
        <ele>207.3</ele>
        <time>2021-08-16T19:11:20Z</time>
      </trkpt>
      <trkpt lat="44.79555" lon="1.61112">
        <ele>208.74</ele>
        <time>2021-08-16T19:11:30Z</time>
      </trkpt>
      <trkpt lat="44.79554" lon="1.61106">
        <ele>209.22</ele>
        <time>2021-08-16T19:11:37Z</time>
      </trkpt>
      <trkpt lat="44.79553" lon="1.611">
        <ele>210.67</ele>
        <time>2021-08-16T19:11:45Z</time>
      </trkpt>
      <trkpt lat="44.79552" lon="1.61093">
        <ele>212.11</ele>
        <time>2021-08-16T19:11:53Z</time>
      </trkpt>
      <trkpt lat="44.79548" lon="1.61091">
        <ele>212.11</ele>
        <time>2021-08-16T19:11:58Z</time>
      </trkpt>
      <trkpt lat="44.79547" lon="1.61091">
        <ele>212.11</ele>
        <time>2021-08-16T19:11:59Z</time>
      </trkpt>
      <trkpt lat="44.79546" lon="1.61092">
        <ele>213.07</ele>
        <time>2021-08-16T19:12:04Z</time>
      </trkpt>
      <trkpt lat="44.79549" lon="1.61092">
        <ele>213.07</ele>
        <time>2021-08-16T19:12:13Z</time>
      </trkpt>
      <trkpt lat="44.79545" lon="1.61096">
        <ele>214.03</ele>
        <time>2021-08-16T19:12:22Z</time>
      </trkpt>
      <trkpt lat="44.79539" lon="1.61101">
        <ele>215.47</ele>
        <time>2021-08-16T19:12:33Z</time>
      </trkpt>
      <trkpt lat="44.79534" lon="1.61103">
        <ele>216.43</ele>
        <time>2021-08-16T19:12:43Z</time>
      </trkpt>
      <trkpt lat="44.79529" lon="1.61106">
        <ele>217.88</ele>
        <time>2021-08-16T19:12:52Z</time>
      </trkpt>
      <trkpt lat="44.79523" lon="1.61109">
        <ele>219.8</ele>
        <time>2021-08-16T19:13:03Z</time>
      </trkpt>
      <trkpt lat="44.79515" lon="1.61109">
        <ele>220.28</ele>
        <time>2021-08-16T19:13:12Z</time>
      </trkpt>
      <trkpt lat="44.79514" lon="1.61109">
        <ele>220.28</ele>
        <time>2021-08-16T19:13:13Z</time>
      </trkpt>
      <trkpt lat="44.79507" lon="1.61111">
        <ele>221.72</ele>
        <time>2021-08-16T19:13:21Z</time>
      </trkpt>
      <trkpt lat="44.79501" lon="1.61112">
        <ele>222.2</ele>
        <time>2021-08-16T19:13:30Z</time>
      </trkpt>
      <trkpt lat="44.79497" lon="1.61114">
        <ele>223.16</ele>
        <time>2021-08-16T19:13:42Z</time>
      </trkpt>
      <trkpt lat="44.79493" lon="1.61115">
        <ele>223.64</ele>
        <time>2021-08-16T19:13:52Z</time>
      </trkpt>
      <trkpt lat="44.79486" lon="1.61116">
        <ele>225.09</ele>
        <time>2021-08-16T19:14:02Z</time>
      </trkpt>
      <trkpt lat="44.79479" lon="1.61117">
        <ele>226.53</ele>
        <time>2021-08-16T19:14:12Z</time>
      </trkpt>
      <trkpt lat="44.79472" lon="1.61116">
        <ele>227.01</ele>
        <time>2021-08-16T19:14:23Z</time>
      </trkpt>
      <trkpt lat="44.79465" lon="1.61111">
        <ele>228.45</ele>
        <time>2021-08-16T19:14:33Z</time>
      </trkpt>
      <trkpt lat="44.79459" lon="1.61109">
        <ele>229.89</ele>
        <time>2021-08-16T19:14:43Z</time>
      </trkpt>
      <trkpt lat="44.79453" lon="1.61106">
        <ele>230.85</ele>
        <time>2021-08-16T19:14:52Z</time>
      </trkpt>
      <trkpt lat="44.79447" lon="1.61103">
        <ele>231.81</ele>
        <time>2021-08-16T19:15:02Z</time>
      </trkpt>
      <trkpt lat="44.79441" lon="1.61101">
        <ele>233.74</ele>
        <time>2021-08-16T19:15:12Z</time>
      </trkpt>
      <trkpt lat="44.79435" lon="1.61098">
        <ele>234.7</ele>
        <time>2021-08-16T19:15:20Z</time>
      </trkpt>
      <trkpt lat="44.7943" lon="1.61096">
        <ele>236.62</ele>
        <time>2021-08-16T19:15:29Z</time>
      </trkpt>
      <trkpt lat="44.79424" lon="1.61093">
        <ele>237.1</ele>
        <time>2021-08-16T19:15:38Z</time>
      </trkpt>
      <trkpt lat="44.79418" lon="1.61092">
        <ele>238.54</ele>
        <time>2021-08-16T19:15:49Z</time>
      </trkpt>
      <trkpt lat="44.79413" lon="1.61092">
        <ele>239.99</ele>
        <time>2021-08-16T19:15:58Z</time>
      </trkpt>
      <trkpt lat="44.79405" lon="1.61094">
        <ele>241.91</ele>
        <time>2021-08-16T19:16:11Z</time>
      </trkpt>
      <trkpt lat="44.79399" lon="1.61096">
        <ele>242.87</ele>
        <time>2021-08-16T19:16:20Z</time>
      </trkpt>
      <trkpt lat="44.79393" lon="1.61097">
        <ele>243.83</ele>
        <time>2021-08-16T19:16:28Z</time>
      </trkpt>
      <trkpt lat="44.79388" lon="1.61097">
        <ele>244.79</ele>
        <time>2021-08-16T19:16:36Z</time>
      </trkpt>
      <trkpt lat="44.79383" lon="1.611">
        <ele>245.75</ele>
        <time>2021-08-16T19:16:46Z</time>
      </trkpt>
      <trkpt lat="44.79377" lon="1.61102">
        <ele>247.2</ele>
        <time>2021-08-16T19:16:55Z</time>
      </trkpt>
      <trkpt lat="44.79376" lon="1.61102">
        <ele>247.2</ele>
        <time>2021-08-16T19:17:00Z</time>
      </trkpt>
      <trkpt lat="44.79374" lon="1.61103">
        <ele>248.64</ele>
        <time>2021-08-16T19:17:05Z</time>
      </trkpt>
      <trkpt lat="44.79367" lon="1.61109">
        <ele>249.6</ele>
        <time>2021-08-16T19:17:16Z</time>
      </trkpt>
      <trkpt lat="44.79359" lon="1.61112">
        <ele>251.04</ele>
        <time>2021-08-16T19:17:25Z</time>
      </trkpt>
      <trkpt lat="44.79351" lon="1.61114">
        <ele>251.52</ele>
        <time>2021-08-16T19:17:34Z</time>
      </trkpt>
      <trkpt lat="44.79346" lon="1.61116">
        <ele>252.48</ele>
        <time>2021-08-16T19:17:41Z</time>
      </trkpt>
      <trkpt lat="44.79338" lon="1.61118">
        <ele>253.44</ele>
        <time>2021-08-16T19:17:51Z</time>
      </trkpt>
      <trkpt lat="44.7933" lon="1.61119">
        <ele>254.89</ele>
        <time>2021-08-16T19:18:01Z</time>
      </trkpt>
      <trkpt lat="44.79321" lon="1.6112">
        <ele>255.85</ele>
        <time>2021-08-16T19:18:11Z</time>
      </trkpt>
      <trkpt lat="44.79318" lon="1.61118">
        <ele>255.85</ele>
        <time>2021-08-16T19:18:18Z</time>
      </trkpt>
      <trkpt lat="44.79315" lon="1.61117">
        <ele>255.85</ele>
        <time>2021-08-16T19:18:39Z</time>
      </trkpt>
      <trkpt lat="44.79314" lon="1.61118">
        <ele>255.85</ele>
        <time>2021-08-16T19:18:53Z</time>
      </trkpt>
      <trkpt lat="44.79313" lon="1.6112">
        <ele>255.85</ele>
        <time>2021-08-16T19:19:03Z</time>
      </trkpt>
      <trkpt lat="44.79307" lon="1.6112">
        <ele>256.33</ele>
        <time>2021-08-16T19:19:10Z</time>
      </trkpt>
      <trkpt lat="44.79301" lon="1.61117">
        <ele>256.81</ele>
        <time>2021-08-16T19:19:19Z</time>
      </trkpt>
      <trkpt lat="44.79299" lon="1.61116">
        <ele>257.29</ele>
        <time>2021-08-16T19:19:25Z</time>
      </trkpt>
      <trkpt lat="44.79297" lon="1.61116">
        <ele>257.29</ele>
        <time>2021-08-16T19:19:28Z</time>
      </trkpt>
      <trkpt lat="44.79295" lon="1.61115">
        <ele>257.77</ele>
        <time>2021-08-16T19:19:30Z</time>
      </trkpt>
      <trkpt lat="44.79279" lon="1.61109">
        <ele>259.21</ele>
        <time>2021-08-16T19:19:42Z</time>
      </trkpt>
      <trkpt lat="44.79271" lon="1.61106">
        <ele>259.69</ele>
        <time>2021-08-16T19:19:49Z</time>
      </trkpt>
      <trkpt lat="44.79268" lon="1.61106">
        <ele>259.69</ele>
        <time>2021-08-16T19:19:56Z</time>
      </trkpt>
      <trkpt lat="44.79252" lon="1.61103">
        <ele>260.65</ele>
        <time>2021-08-16T19:20:05Z</time>
      </trkpt>
      <trkpt lat="44.79235" lon="1.61097">
        <ele>261.14</ele>
        <time>2021-08-16T19:20:13Z</time>
      </trkpt>
      <trkpt lat="44.79222" lon="1.61094">
        <ele>261.14</ele>
        <time>2021-08-16T19:20:19Z</time>
      </trkpt>
      <trkpt lat="44.79195" lon="1.61087">
        <ele>261.14</ele>
        <time>2021-08-16T19:20:29Z</time>
      </trkpt>
      <trkpt lat="44.79176" lon="1.61081">
        <ele>261.62</ele>
        <time>2021-08-16T19:20:36Z</time>
      </trkpt>
      <trkpt lat="44.79151" lon="1.61072">
        <ele>261.62</ele>
        <time>2021-08-16T19:20:44Z</time>
      </trkpt>
      <trkpt lat="44.7911" lon="1.61058">
        <ele>260.17</ele>
        <time>2021-08-16T19:20:55Z</time>
      </trkpt>
      <trkpt lat="44.79066" lon="1.61041">
        <ele>259.21</ele>
        <time>2021-08-16T19:21:06Z</time>
      </trkpt>
      <trkpt lat="44.79057" lon="1.61036">
        <ele>258.73</ele>
        <time>2021-08-16T19:21:08Z</time>
      </trkpt>
      <trkpt lat="44.79013" lon="1.6101">
        <ele>257.77</ele>
        <time>2021-08-16T19:21:18Z</time>
      </trkpt>
      <trkpt lat="44.79005" lon="1.61005">
        <ele>257.29</ele>
        <time>2021-08-16T19:21:20Z</time>
      </trkpt>
      <trkpt lat="44.78971" lon="1.60977">
        <ele>256.81</ele>
        <time>2021-08-16T19:21:29Z</time>
      </trkpt>
      <trkpt lat="44.78959" lon="1.6097">
        <ele>256.81</ele>
        <time>2021-08-16T19:21:32Z</time>
      </trkpt>
      <trkpt lat="44.78956" lon="1.60966">
        <ele>256.81</ele>
        <time>2021-08-16T19:21:33Z</time>
      </trkpt>
      <trkpt lat="44.78955" lon="1.60962">
        <ele>256.81</ele>
        <time>2021-08-16T19:21:34Z</time>
      </trkpt>
      <trkpt lat="44.78955" lon="1.60956">
        <ele>256.81</ele>
        <time>2021-08-16T19:21:35Z</time>
      </trkpt>
      <trkpt lat="44.78955" lon="1.60951">
        <ele>256.81</ele>
        <time>2021-08-16T19:21:36Z</time>
      </trkpt>
      <trkpt lat="44.78956" lon="1.60945">
        <ele>256.81</ele>
        <time>2021-08-16T19:21:40Z</time>
      </trkpt>
      <trkpt lat="44.78954" lon="1.60946">
        <ele>256.81</ele>
        <time>2021-08-16T19:21:46Z</time>
      </trkpt>
      <trkpt lat="44.78954" lon="1.60947">
        <ele>256.81</ele>
        <time>2021-08-16T19:21:47Z</time>
      </trkpt>
      <trkpt lat="44.78953" lon="1.6095">
        <ele>256.81</ele>
        <time>2021-08-16T19:21:48Z</time>
      </trkpt>
      <trkpt lat="44.78953" lon="1.60951">
        <ele>256.81</ele>
        <time>2021-08-16T19:21:49Z</time>
      </trkpt>
      <trkpt lat="44.78953" lon="1.60954">
        <ele>256.81</ele>
        <time>2021-08-16T19:21:50Z</time>
      </trkpt>
      <trkpt lat="44.7895" lon="1.60963">
        <ele>256.81</ele>
        <time>2021-08-16T19:21:53Z</time>
      </trkpt>
      <trkpt lat="44.78948" lon="1.60964">
        <ele>256.81</ele>
        <time>2021-08-16T19:21:54Z</time>
      </trkpt>
      <trkpt lat="44.78946" lon="1.60965">
        <ele>256.81</ele>
        <time>2021-08-16T19:21:55Z</time>
      </trkpt>
      <trkpt lat="44.78943" lon="1.60966">
        <ele>256.81</ele>
        <time>2021-08-16T19:21:56Z</time>
      </trkpt>
      <trkpt lat="44.7894" lon="1.60966">
        <ele>256.81</ele>
        <time>2021-08-16T19:21:57Z</time>
      </trkpt>
      <trkpt lat="44.78937" lon="1.60965">
        <ele>256.81</ele>
        <time>2021-08-16T19:21:58Z</time>
      </trkpt>
      <trkpt lat="44.7893" lon="1.60963">
        <ele>256.81</ele>
        <time>2021-08-16T19:22:00Z</time>
      </trkpt>
      <trkpt lat="44.78925" lon="1.60963">
        <ele>256.81</ele>
        <time>2021-08-16T19:22:01Z</time>
      </trkpt>
      <trkpt lat="44.78922" lon="1.60962">
        <ele>256.81</ele>
        <time>2021-08-16T19:22:02Z</time>
      </trkpt>
      <trkpt lat="44.78897" lon="1.60948">
        <ele>256.81</ele>
        <time>2021-08-16T19:22:10Z</time>
      </trkpt>
      <trkpt lat="44.78871" lon="1.60934">
        <ele>256.81</ele>
        <time>2021-08-16T19:22:18Z</time>
      </trkpt>
      <trkpt lat="44.78837" lon="1.60904">
        <ele>256.33</ele>
        <time>2021-08-16T19:22:29Z</time>
      </trkpt>
      <trkpt lat="44.78816" lon="1.60885">
        <ele>255.37</ele>
        <time>2021-08-16T19:22:36Z</time>
      </trkpt>
      <trkpt lat="44.78804" lon="1.60885">
        <ele>254.89</ele>
        <time>2021-08-16T19:22:41Z</time>
      </trkpt>
      <trkpt lat="44.78801" lon="1.60886">
        <ele>254.89</ele>
        <time>2021-08-16T19:22:43Z</time>
      </trkpt>
      <trkpt lat="44.78801" lon="1.60884">
        <ele>254.89</ele>
        <time>2021-08-16T19:22:44Z</time>
      </trkpt>
      <trkpt lat="44.78802" lon="1.60881">
        <ele>254.89</ele>
        <time>2021-08-16T19:22:45Z</time>
      </trkpt>
      <trkpt lat="44.78809" lon="1.60859">
        <ele>254.41</ele>
        <time>2021-08-16T19:22:50Z</time>
      </trkpt>
      <trkpt lat="44.78811" lon="1.60849">
        <ele>253.44</ele>
        <time>2021-08-16T19:22:52Z</time>
      </trkpt>
      <trkpt lat="44.78811" lon="1.60843">
        <ele>253.44</ele>
        <time>2021-08-16T19:22:53Z</time>
      </trkpt>
      <trkpt lat="44.78809" lon="1.60838">
        <ele>253.44</ele>
        <time>2021-08-16T19:22:54Z</time>
      </trkpt>
      <trkpt lat="44.78806" lon="1.60833">
        <ele>252.96</ele>
        <time>2021-08-16T19:22:55Z</time>
      </trkpt>
      <trkpt lat="44.78803" lon="1.60831">
        <ele>252.48</ele>
        <time>2021-08-16T19:22:56Z</time>
      </trkpt>
      <trkpt lat="44.78799" lon="1.6083">
        <ele>252.48</ele>
        <time>2021-08-16T19:22:57Z</time>
      </trkpt>
      <trkpt lat="44.78795" lon="1.6083">
        <ele>252.48</ele>
        <time>2021-08-16T19:22:58Z</time>
      </trkpt>
      <trkpt lat="44.78747" lon="1.60825">
        <ele>252</ele>
        <time>2021-08-16T19:23:10Z</time>
      </trkpt>
      <trkpt lat="44.78711" lon="1.60822">
        <ele>251.04</ele>
        <time>2021-08-16T19:23:18Z</time>
      </trkpt>
      <trkpt lat="44.78669" lon="1.60818">
        <ele>249.12</ele>
        <time>2021-08-16T19:23:26Z</time>
      </trkpt>
      <trkpt lat="44.78616" lon="1.60813">
        <ele>247.68</ele>
        <time>2021-08-16T19:23:35Z</time>
      </trkpt>
      <trkpt lat="44.78611" lon="1.60813">
        <ele>247.68</ele>
        <time>2021-08-16T19:23:36Z</time>
      </trkpt>
      <trkpt lat="44.78606" lon="1.60815">
        <ele>247.68</ele>
        <time>2021-08-16T19:23:37Z</time>
      </trkpt>
      <trkpt lat="44.78601" lon="1.60816">
        <ele>247.68</ele>
        <time>2021-08-16T19:23:38Z</time>
      </trkpt>
      <trkpt lat="44.78597" lon="1.60819">
        <ele>247.68</ele>
        <time>2021-08-16T19:23:39Z</time>
      </trkpt>
      <trkpt lat="44.78592" lon="1.60822">
        <ele>247.68</ele>
        <time>2021-08-16T19:23:40Z</time>
      </trkpt>
      <trkpt lat="44.78589" lon="1.60826">
        <ele>247.68</ele>
        <time>2021-08-16T19:23:41Z</time>
      </trkpt>
      <trkpt lat="44.78586" lon="1.60831">
        <ele>247.68</ele>
        <time>2021-08-16T19:23:42Z</time>
      </trkpt>
      <trkpt lat="44.78583" lon="1.60836">
        <ele>247.68</ele>
        <time>2021-08-16T19:23:43Z</time>
      </trkpt>
      <trkpt lat="44.78581" lon="1.60842">
        <ele>248.64</ele>
        <time>2021-08-16T19:23:44Z</time>
      </trkpt>
      <trkpt lat="44.78579" lon="1.60847">
        <ele>248.64</ele>
        <time>2021-08-16T19:23:45Z</time>
      </trkpt>
      <trkpt lat="44.78562" lon="1.60898">
        <ele>249.12</ele>
        <time>2021-08-16T19:23:54Z</time>
      </trkpt>
      <trkpt lat="44.78538" lon="1.60955">
        <ele>246.72</ele>
        <time>2021-08-16T19:24:03Z</time>
      </trkpt>
      <trkpt lat="44.78506" lon="1.61019">
        <ele>244.31</ele>
        <time>2021-08-16T19:24:11Z</time>
      </trkpt>
      <trkpt lat="44.78471" lon="1.61071">
        <ele>241.91</ele>
        <time>2021-08-16T19:24:18Z</time>
      </trkpt>
      <trkpt lat="44.78428" lon="1.61116">
        <ele>238.54</ele>
        <time>2021-08-16T19:24:26Z</time>
      </trkpt>
      <trkpt lat="44.78418" lon="1.61128">
        <ele>238.06</ele>
        <time>2021-08-16T19:24:28Z</time>
      </trkpt>
      <trkpt lat="44.78414" lon="1.61135">
        <ele>238.06</ele>
        <time>2021-08-16T19:24:29Z</time>
      </trkpt>
      <trkpt lat="44.78412" lon="1.61143">
        <ele>237.58</ele>
        <time>2021-08-16T19:24:30Z</time>
      </trkpt>
      <trkpt lat="44.78411" lon="1.61152">
        <ele>237.1</ele>
        <time>2021-08-16T19:24:31Z</time>
      </trkpt>
      <trkpt lat="44.78411" lon="1.6116">
        <ele>236.14</ele>
        <time>2021-08-16T19:24:32Z</time>
      </trkpt>
      <trkpt lat="44.78414" lon="1.61169">
        <ele>235.66</ele>
        <time>2021-08-16T19:24:33Z</time>
      </trkpt>
      <trkpt lat="44.78417" lon="1.61177">
        <ele>235.18</ele>
        <time>2021-08-16T19:24:34Z</time>
      </trkpt>
      <trkpt lat="44.78422" lon="1.61184">
        <ele>234.7</ele>
        <time>2021-08-16T19:24:35Z</time>
      </trkpt>
      <trkpt lat="44.78428" lon="1.6119">
        <ele>233.74</ele>
        <time>2021-08-16T19:24:36Z</time>
      </trkpt>
      <trkpt lat="44.78435" lon="1.61196">
        <ele>233.26</ele>
        <time>2021-08-16T19:24:37Z</time>
      </trkpt>
      <trkpt lat="44.78481" lon="1.61245">
        <ele>229.89</ele>
        <time>2021-08-16T19:24:45Z</time>
      </trkpt>
      <trkpt lat="44.78508" lon="1.6131">
        <ele>226.53</ele>
        <time>2021-08-16T19:24:52Z</time>
      </trkpt>
      <trkpt lat="44.78517" lon="1.61359">
        <ele>224.12</ele>
        <time>2021-08-16T19:24:57Z</time>
      </trkpt>
      <trkpt lat="44.78516" lon="1.61375">
        <ele>223.16</ele>
        <time>2021-08-16T19:24:59Z</time>
      </trkpt>
      <trkpt lat="44.78513" lon="1.61385">
        <ele>223.16</ele>
        <time>2021-08-16T19:25:00Z</time>
      </trkpt>
      <trkpt lat="44.78508" lon="1.61391">
        <ele>221.72</ele>
        <time>2021-08-16T19:25:01Z</time>
      </trkpt>
      <trkpt lat="44.78503" lon="1.61393">
        <ele>222.2</ele>
        <time>2021-08-16T19:25:02Z</time>
      </trkpt>
      <trkpt lat="44.78496" lon="1.61393">
        <ele>221.24</ele>
        <time>2021-08-16T19:25:03Z</time>
      </trkpt>
      <trkpt lat="44.78488" lon="1.6139">
        <ele>220.76</ele>
        <time>2021-08-16T19:25:04Z</time>
      </trkpt>
      <trkpt lat="44.78482" lon="1.61387">
        <ele>220.28</ele>
        <time>2021-08-16T19:25:05Z</time>
      </trkpt>
      <trkpt lat="44.78435" lon="1.61376">
        <ele>217.4</ele>
        <time>2021-08-16T19:25:11Z</time>
      </trkpt>
      <trkpt lat="44.78388" lon="1.61382">
        <ele>214.03</ele>
        <time>2021-08-16T19:25:16Z</time>
      </trkpt>
      <trkpt lat="44.78341" lon="1.61393">
        <ele>210.67</ele>
        <time>2021-08-16T19:25:21Z</time>
      </trkpt>
      <trkpt lat="44.78313" lon="1.6141">
        <ele>208.26</ele>
        <time>2021-08-16T19:25:24Z</time>
      </trkpt>
      <trkpt lat="44.78305" lon="1.6142">
        <ele>207.3</ele>
        <time>2021-08-16T19:25:25Z</time>
      </trkpt>
      <trkpt lat="44.78301" lon="1.61429">
        <ele>206.82</ele>
        <time>2021-08-16T19:25:26Z</time>
      </trkpt>
      <trkpt lat="44.78295" lon="1.6144">
        <ele>205.86</ele>
        <time>2021-08-16T19:25:27Z</time>
      </trkpt>
      <trkpt lat="44.7829" lon="1.61454">
        <ele>205.38</ele>
        <time>2021-08-16T19:25:28Z</time>
      </trkpt>
      <trkpt lat="44.78287" lon="1.61465">
        <ele>204.9</ele>
        <time>2021-08-16T19:25:29Z</time>
      </trkpt>
      <trkpt lat="44.78284" lon="1.6148">
        <ele>203.94</ele>
        <time>2021-08-16T19:25:30Z</time>
      </trkpt>
      <trkpt lat="44.78282" lon="1.61492">
        <ele>203.46</ele>
        <time>2021-08-16T19:25:31Z</time>
      </trkpt>
      <trkpt lat="44.78275" lon="1.61547">
        <ele>200.09</ele>
        <time>2021-08-16T19:25:35Z</time>
      </trkpt>
      <trkpt lat="44.78272" lon="1.61561">
        <ele>200.09</ele>
        <time>2021-08-16T19:25:36Z</time>
      </trkpt>
      <trkpt lat="44.78262" lon="1.61601">
        <ele>197.21</ele>
        <time>2021-08-16T19:25:39Z</time>
      </trkpt>
      <trkpt lat="44.78257" lon="1.61612">
        <ele>197.21</ele>
        <time>2021-08-16T19:25:40Z</time>
      </trkpt>
      <trkpt lat="44.78252" lon="1.61622">
        <ele>196.25</ele>
        <time>2021-08-16T19:25:41Z</time>
      </trkpt>
      <trkpt lat="44.78244" lon="1.61633">
        <ele>195.77</ele>
        <time>2021-08-16T19:25:42Z</time>
      </trkpt>
      <trkpt lat="44.78239" lon="1.61639">
        <ele>194.8</ele>
        <time>2021-08-16T19:25:43Z</time>
      </trkpt>
      <trkpt lat="44.7823" lon="1.61648">
        <ele>194.32</ele>
        <time>2021-08-16T19:25:44Z</time>
      </trkpt>
      <trkpt lat="44.78224" lon="1.61655">
        <ele>193.36</ele>
        <time>2021-08-16T19:25:45Z</time>
      </trkpt>
      <trkpt lat="44.78194" lon="1.61675">
        <ele>190.96</ele>
        <time>2021-08-16T19:25:49Z</time>
      </trkpt>
      <trkpt lat="44.78179" lon="1.61683">
        <ele>189.52</ele>
        <time>2021-08-16T19:25:51Z</time>
      </trkpt>
      <trkpt lat="44.78174" lon="1.61687">
        <ele>190</ele>
        <time>2021-08-16T19:25:52Z</time>
      </trkpt>
      <trkpt lat="44.78168" lon="1.61694">
        <ele>188.56</ele>
        <time>2021-08-16T19:25:53Z</time>
      </trkpt>
      <trkpt lat="44.78164" lon="1.617">
        <ele>188.56</ele>
        <time>2021-08-16T19:25:54Z</time>
      </trkpt>
      <trkpt lat="44.78159" lon="1.61707">
        <ele>187.59</ele>
        <time>2021-08-16T19:25:55Z</time>
      </trkpt>
      <trkpt lat="44.78156" lon="1.61714">
        <ele>187.11</ele>
        <time>2021-08-16T19:25:56Z</time>
      </trkpt>
      <trkpt lat="44.78142" lon="1.61735">
        <ele>185.67</ele>
        <time>2021-08-16T19:26:00Z</time>
      </trkpt>
      <trkpt lat="44.78138" lon="1.61739">
        <ele>185.67</ele>
        <time>2021-08-16T19:26:01Z</time>
      </trkpt>
      <trkpt lat="44.78136" lon="1.61741">
        <ele>185.19</ele>
        <time>2021-08-16T19:26:02Z</time>
      </trkpt>
      <trkpt lat="44.78133" lon="1.61743">
        <ele>185.19</ele>
        <time>2021-08-16T19:26:03Z</time>
      </trkpt>
      <trkpt lat="44.7813" lon="1.61742">
        <ele>184.71</ele>
        <time>2021-08-16T19:26:04Z</time>
      </trkpt>
      <trkpt lat="44.78129" lon="1.61738">
        <ele>184.23</ele>
        <time>2021-08-16T19:26:05Z</time>
      </trkpt>
      <trkpt lat="44.78129" lon="1.61735">
        <ele>184.23</ele>
        <time>2021-08-16T19:26:06Z</time>
      </trkpt>
      <trkpt lat="44.78129" lon="1.61732">
        <ele>183.75</ele>
        <time>2021-08-16T19:26:07Z</time>
      </trkpt>
      <trkpt lat="44.78129" lon="1.61728">
        <ele>182.79</ele>
        <time>2021-08-16T19:26:08Z</time>
      </trkpt>
      <trkpt lat="44.7813" lon="1.61723">
        <ele>181.83</ele>
        <time>2021-08-16T19:26:09Z</time>
      </trkpt>
      <trkpt lat="44.78137" lon="1.61708">
        <ele>180.87</ele>
        <time>2021-08-16T19:26:13Z</time>
      </trkpt>
      <trkpt lat="44.7814" lon="1.617">
        <ele>179.42</ele>
        <time>2021-08-16T19:26:15Z</time>
      </trkpt>
      <trkpt lat="44.78142" lon="1.61696">
        <ele>178.94</ele>
        <time>2021-08-16T19:26:17Z</time>
      </trkpt>
      <trkpt lat="44.78144" lon="1.61695">
        <ele>177.98</ele>
        <time>2021-08-16T19:26:18Z</time>
      </trkpt>
      <trkpt lat="44.78144" lon="1.61694">
        <ele>178.46</ele>
        <time>2021-08-16T19:26:24Z</time>
      </trkpt>
      <trkpt lat="44.78144" lon="1.61691">
        <ele>178.46</ele>
        <time>2021-08-16T19:26:38Z</time>
      </trkpt>
      <trkpt lat="44.78143" lon="1.6169">
        <ele>178.46</ele>
        <time>2021-08-16T19:26:47Z</time>
      </trkpt>
      <trkpt lat="44.78141" lon="1.61694">
        <ele>178.46</ele>
        <time>2021-08-16T19:26:55Z</time>
      </trkpt>
      <trkpt lat="44.7814" lon="1.61695">
        <ele>179.9</ele>
        <time>2021-08-16T19:26:59Z</time>
      </trkpt>
      <trkpt lat="44.78138" lon="1.61695">
        <ele>179.9</ele>
        <time>2021-08-16T19:27:01Z</time>
      </trkpt>
      <trkpt lat="44.78136" lon="1.61692">
        <ele>179.9</ele>
        <time>2021-08-16T19:27:05Z</time>
      </trkpt>
      <trkpt lat="44.78134" lon="1.61688">
        <ele>179.9</ele>
        <time>2021-08-16T19:27:12Z</time>
      </trkpt>
      <trkpt lat="44.7813" lon="1.61683">
        <ele>180.38</ele>
        <time>2021-08-16T19:27:20Z</time>
      </trkpt>
      <trkpt lat="44.78127" lon="1.61679">
        <ele>180.87</ele>
        <time>2021-08-16T19:27:24Z</time>
      </trkpt>
      <trkpt lat="44.78118" lon="1.61673">
        <ele>182.31</ele>
        <time>2021-08-16T19:27:31Z</time>
      </trkpt>
      <trkpt lat="44.78108" lon="1.61664">
        <ele>183.27</ele>
        <time>2021-08-16T19:27:38Z</time>
      </trkpt>
      <trkpt lat="44.78101" lon="1.61658">
        <ele>183.75</ele>
        <time>2021-08-16T19:27:43Z</time>
      </trkpt>
      <trkpt lat="44.78099" lon="1.61656">
        <ele>184.23</ele>
        <time>2021-08-16T19:27:44Z</time>
      </trkpt>
      <trkpt lat="44.78098" lon="1.61656">
        <ele>184.23</ele>
        <time>2021-08-16T19:27:45Z</time>
      </trkpt>
      <trkpt lat="44.78096" lon="1.61655">
        <ele>184.23</ele>
        <time>2021-08-16T19:27:46Z</time>
      </trkpt>
      <trkpt lat="44.78095" lon="1.61653">
        <ele>184.23</ele>
        <time>2021-08-16T19:27:47Z</time>
      </trkpt>
      <trkpt lat="44.78092" lon="1.61651">
        <ele>184.71</ele>
        <time>2021-08-16T19:27:49Z</time>
      </trkpt>
      <trkpt lat="44.78091" lon="1.6165">
        <ele>184.71</ele>
        <time>2021-08-16T19:27:50Z</time>
      </trkpt>
      <trkpt lat="44.7809" lon="1.61649">
        <ele>184.71</ele>
        <time>2021-08-16T19:27:51Z</time>
      </trkpt>
      <trkpt lat="44.7808" lon="1.6164">
        <ele>186.15</ele>
        <time>2021-08-16T19:27:59Z</time>
      </trkpt>
      <trkpt lat="44.78073" lon="1.61632">
        <ele>187.11</ele>
        <time>2021-08-16T19:28:07Z</time>
      </trkpt>
      <trkpt lat="44.78065" lon="1.61625">
        <ele>187.59</ele>
        <time>2021-08-16T19:28:15Z</time>
      </trkpt>
      <trkpt lat="44.78064" lon="1.61623">
        <ele>187.59</ele>
        <time>2021-08-16T19:28:16Z</time>
      </trkpt>
      <trkpt lat="44.78063" lon="1.61622">
        <ele>187.59</ele>
        <time>2021-08-16T19:28:17Z</time>
      </trkpt>
      <trkpt lat="44.78058" lon="1.61617">
        <ele>188.08</ele>
        <time>2021-08-16T19:28:22Z</time>
      </trkpt>
      <trkpt lat="44.78047" lon="1.61607">
        <ele>189.52</ele>
        <time>2021-08-16T19:28:31Z</time>
      </trkpt>
      <trkpt lat="44.78046" lon="1.61605">
        <ele>189.52</ele>
        <time>2021-08-16T19:28:32Z</time>
      </trkpt>
      <trkpt lat="44.78045" lon="1.61604">
        <ele>189.52</ele>
        <time>2021-08-16T19:28:33Z</time>
      </trkpt>
      <trkpt lat="44.78044" lon="1.61603">
        <ele>189.52</ele>
        <time>2021-08-16T19:28:34Z</time>
      </trkpt>
      <trkpt lat="44.78042" lon="1.61601">
        <ele>189.52</ele>
        <time>2021-08-16T19:28:35Z</time>
      </trkpt>
      <trkpt lat="44.78042" lon="1.616">
        <ele>189.52</ele>
        <time>2021-08-16T19:28:36Z</time>
      </trkpt>
      <trkpt lat="44.78041" lon="1.61599">
        <ele>189.52</ele>
        <time>2021-08-16T19:28:37Z</time>
      </trkpt>
      <trkpt lat="44.7804" lon="1.61597">
        <ele>190</ele>
        <time>2021-08-16T19:28:38Z</time>
      </trkpt>
      <trkpt lat="44.78038" lon="1.61596">
        <ele>190</ele>
        <time>2021-08-16T19:28:39Z</time>
      </trkpt>
      <trkpt lat="44.78037" lon="1.61595">
        <ele>190</ele>
        <time>2021-08-16T19:28:40Z</time>
      </trkpt>
      <trkpt lat="44.78029" lon="1.61585">
        <ele>190.96</ele>
        <time>2021-08-16T19:28:48Z</time>
      </trkpt>
      <trkpt lat="44.78019" lon="1.61572">
        <ele>191.92</ele>
        <time>2021-08-16T19:28:57Z</time>
      </trkpt>
      <trkpt lat="44.78013" lon="1.61561">
        <ele>191.92</ele>
        <time>2021-08-16T19:29:05Z</time>
      </trkpt>
      <trkpt lat="44.78008" lon="1.61546">
        <ele>193.36</ele>
        <time>2021-08-16T19:29:14Z</time>
      </trkpt>
      <trkpt lat="44.78007" lon="1.61538">
        <ele>193.84</ele>
        <time>2021-08-16T19:29:19Z</time>
      </trkpt>
      <trkpt lat="44.78007" lon="1.61536">
        <ele>193.84</ele>
        <time>2021-08-16T19:29:20Z</time>
      </trkpt>
      <trkpt lat="44.78007" lon="1.61534">
        <ele>193.84</ele>
        <time>2021-08-16T19:29:21Z</time>
      </trkpt>
      <trkpt lat="44.78006" lon="1.61518">
        <ele>194.8</ele>
        <time>2021-08-16T19:29:29Z</time>
      </trkpt>
      <trkpt lat="44.78006" lon="1.61515">
        <ele>194.8</ele>
        <time>2021-08-16T19:29:30Z</time>
      </trkpt>
      <trkpt lat="44.78007" lon="1.61497">
        <ele>195.77</ele>
        <time>2021-08-16T19:29:39Z</time>
      </trkpt>
      <trkpt lat="44.78006" lon="1.61493">
        <ele>195.77</ele>
        <time>2021-08-16T19:29:41Z</time>
      </trkpt>
      <trkpt lat="44.78006" lon="1.61492">
        <ele>196.25</ele>
        <time>2021-08-16T19:29:42Z</time>
      </trkpt>
      <trkpt lat="44.78006" lon="1.6149">
        <ele>196.25</ele>
        <time>2021-08-16T19:29:43Z</time>
      </trkpt>
      <trkpt lat="44.78005" lon="1.61488">
        <ele>196.25</ele>
        <time>2021-08-16T19:29:44Z</time>
      </trkpt>
      <trkpt lat="44.78005" lon="1.61487">
        <ele>196.25</ele>
        <time>2021-08-16T19:29:45Z</time>
      </trkpt>
      <trkpt lat="44.78004" lon="1.61485">
        <ele>196.73</ele>
        <time>2021-08-16T19:29:46Z</time>
      </trkpt>
      <trkpt lat="44.78004" lon="1.61483">
        <ele>196.73</ele>
        <time>2021-08-16T19:29:47Z</time>
      </trkpt>
      <trkpt lat="44.78004" lon="1.6148">
        <ele>196.73</ele>
        <time>2021-08-16T19:29:48Z</time>
      </trkpt>
      <trkpt lat="44.78004" lon="1.61479">
        <ele>196.73</ele>
        <time>2021-08-16T19:29:49Z</time>
      </trkpt>
      <trkpt lat="44.78003" lon="1.61477">
        <ele>196.73</ele>
        <time>2021-08-16T19:29:50Z</time>
      </trkpt>
      <trkpt lat="44.78003" lon="1.61475">
        <ele>197.21</ele>
        <time>2021-08-16T19:29:51Z</time>
      </trkpt>
      <trkpt lat="44.78" lon="1.61455">
        <ele>198.17</ele>
        <time>2021-08-16T19:30:01Z</time>
      </trkpt>
      <trkpt lat="44.77997" lon="1.61443">
        <ele>199.13</ele>
        <time>2021-08-16T19:30:09Z</time>
      </trkpt>
      <trkpt lat="44.77991" lon="1.61432">
        <ele>200.57</ele>
        <time>2021-08-16T19:30:20Z</time>
      </trkpt>
      <trkpt lat="44.7799" lon="1.61431">
        <ele>200.57</ele>
        <time>2021-08-16T19:30:21Z</time>
      </trkpt>
      <trkpt lat="44.77982" lon="1.61427">
        <ele>202.01</ele>
        <time>2021-08-16T19:30:29Z</time>
      </trkpt>
      <trkpt lat="44.7798" lon="1.61426">
        <ele>202.01</ele>
        <time>2021-08-16T19:30:30Z</time>
      </trkpt>
      <trkpt lat="44.77979" lon="1.61426">
        <ele>202.01</ele>
        <time>2021-08-16T19:30:31Z</time>
      </trkpt>
      <trkpt lat="44.77969" lon="1.61424">
        <ele>202.49</ele>
        <time>2021-08-16T19:30:40Z</time>
      </trkpt>
      <trkpt lat="44.77966" lon="1.61423">
        <ele>202.98</ele>
        <time>2021-08-16T19:30:47Z</time>
      </trkpt>
      <trkpt lat="44.77961" lon="1.61423">
        <ele>203.46</ele>
        <time>2021-08-16T19:30:51Z</time>
      </trkpt>
      <trkpt lat="44.77958" lon="1.61422">
        <ele>203.46</ele>
        <time>2021-08-16T19:30:54Z</time>
      </trkpt>
      <trkpt lat="44.77946" lon="1.61422">
        <ele>204.9</ele>
        <time>2021-08-16T19:31:02Z</time>
      </trkpt>
      <trkpt lat="44.77943" lon="1.61422">
        <ele>204.9</ele>
        <time>2021-08-16T19:31:04Z</time>
      </trkpt>
      <trkpt lat="44.77942" lon="1.61422">
        <ele>204.9</ele>
        <time>2021-08-16T19:31:05Z</time>
      </trkpt>
      <trkpt lat="44.7794" lon="1.61422">
        <ele>204.9</ele>
        <time>2021-08-16T19:31:06Z</time>
      </trkpt>
      <trkpt lat="44.77939" lon="1.61422">
        <ele>204.9</ele>
        <time>2021-08-16T19:31:07Z</time>
      </trkpt>
      <trkpt lat="44.77937" lon="1.61422">
        <ele>205.38</ele>
        <time>2021-08-16T19:31:08Z</time>
      </trkpt>
      <trkpt lat="44.77936" lon="1.61422">
        <ele>205.38</ele>
        <time>2021-08-16T19:31:09Z</time>
      </trkpt>
      <trkpt lat="44.77934" lon="1.61422">
        <ele>205.38</ele>
        <time>2021-08-16T19:31:10Z</time>
      </trkpt>
      <trkpt lat="44.77933" lon="1.61422">
        <ele>205.86</ele>
        <time>2021-08-16T19:31:11Z</time>
      </trkpt>
      <trkpt lat="44.77931" lon="1.61422">
        <ele>205.86</ele>
        <time>2021-08-16T19:31:12Z</time>
      </trkpt>
      <trkpt lat="44.77922" lon="1.61422">
        <ele>206.34</ele>
        <time>2021-08-16T19:31:18Z</time>
      </trkpt>
      <trkpt lat="44.7792" lon="1.61422">
        <ele>206.34</ele>
        <time>2021-08-16T19:31:19Z</time>
      </trkpt>
      <trkpt lat="44.77918" lon="1.61421">
        <ele>206.34</ele>
        <time>2021-08-16T19:31:20Z</time>
      </trkpt>
      <trkpt lat="44.77917" lon="1.61421">
        <ele>206.34</ele>
        <time>2021-08-16T19:31:21Z</time>
      </trkpt>
      <trkpt lat="44.77915" lon="1.61421">
        <ele>206.82</ele>
        <time>2021-08-16T19:31:22Z</time>
      </trkpt>
      <trkpt lat="44.77913" lon="1.61421">
        <ele>206.82</ele>
        <time>2021-08-16T19:31:23Z</time>
      </trkpt>
      <trkpt lat="44.77911" lon="1.61421">
        <ele>206.82</ele>
        <time>2021-08-16T19:31:24Z</time>
      </trkpt>
      <trkpt lat="44.7791" lon="1.6142">
        <ele>207.3</ele>
        <time>2021-08-16T19:31:25Z</time>
      </trkpt>
      <trkpt lat="44.77898" lon="1.61419">
        <ele>208.26</ele>
        <time>2021-08-16T19:31:34Z</time>
      </trkpt>
      <trkpt lat="44.77892" lon="1.61419">
        <ele>209.22</ele>
        <time>2021-08-16T19:31:40Z</time>
      </trkpt>
      <trkpt lat="44.77886" lon="1.6142">
        <ele>210.19</ele>
        <time>2021-08-16T19:31:49Z</time>
      </trkpt>
      <trkpt lat="44.7788" lon="1.6142">
        <ele>211.63</ele>
        <time>2021-08-16T19:31:56Z</time>
      </trkpt>
      <trkpt lat="44.77876" lon="1.61421">
        <ele>212.11</ele>
        <time>2021-08-16T19:32:02Z</time>
      </trkpt>
      <trkpt lat="44.77869" lon="1.61424">
        <ele>213.55</ele>
        <time>2021-08-16T19:32:11Z</time>
      </trkpt>
      <trkpt lat="44.77862" lon="1.61428">
        <ele>213.55</ele>
        <time>2021-08-16T19:32:16Z</time>
      </trkpt>
      <trkpt lat="44.77858" lon="1.61431">
        <ele>214.03</ele>
        <time>2021-08-16T19:32:22Z</time>
      </trkpt>
      <trkpt lat="44.77853" lon="1.61433">
        <ele>214.51</ele>
        <time>2021-08-16T19:32:26Z</time>
      </trkpt>
      <trkpt lat="44.77852" lon="1.61434">
        <ele>214.51</ele>
        <time>2021-08-16T19:32:27Z</time>
      </trkpt>
      <trkpt lat="44.7785" lon="1.61435">
        <ele>214.51</ele>
        <time>2021-08-16T19:32:28Z</time>
      </trkpt>
      <trkpt lat="44.77849" lon="1.61436">
        <ele>214.51</ele>
        <time>2021-08-16T19:32:29Z</time>
      </trkpt>
      <trkpt lat="44.77848" lon="1.61437">
        <ele>214.51</ele>
        <time>2021-08-16T19:32:30Z</time>
      </trkpt>
      <trkpt lat="44.77847" lon="1.61438">
        <ele>214.51</ele>
        <time>2021-08-16T19:32:31Z</time>
      </trkpt>
      <trkpt lat="44.77845" lon="1.61439">
        <ele>214.99</ele>
        <time>2021-08-16T19:32:32Z</time>
      </trkpt>
      <trkpt lat="44.77844" lon="1.61439">
        <ele>214.99</ele>
        <time>2021-08-16T19:32:33Z</time>
      </trkpt>
      <trkpt lat="44.77833" lon="1.61447">
        <ele>215.95</ele>
        <time>2021-08-16T19:32:41Z</time>
      </trkpt>
      <trkpt lat="44.77831" lon="1.61448">
        <ele>215.95</ele>
        <time>2021-08-16T19:32:42Z</time>
      </trkpt>
      <trkpt lat="44.7783" lon="1.61449">
        <ele>215.95</ele>
        <time>2021-08-16T19:32:43Z</time>
      </trkpt>
      <trkpt lat="44.77829" lon="1.6145">
        <ele>215.95</ele>
        <time>2021-08-16T19:32:44Z</time>
      </trkpt>
      <trkpt lat="44.77827" lon="1.61451">
        <ele>215.95</ele>
        <time>2021-08-16T19:32:45Z</time>
      </trkpt>
      <trkpt lat="44.77826" lon="1.61452">
        <ele>215.95</ele>
        <time>2021-08-16T19:32:46Z</time>
      </trkpt>
      <trkpt lat="44.77825" lon="1.61454">
        <ele>215.95</ele>
        <time>2021-08-16T19:32:47Z</time>
      </trkpt>
      <trkpt lat="44.77815" lon="1.61458">
        <ele>217.4</ele>
        <time>2021-08-16T19:32:54Z</time>
      </trkpt>
      <trkpt lat="44.77814" lon="1.61458">
        <ele>217.4</ele>
        <time>2021-08-16T19:32:55Z</time>
      </trkpt>
      <trkpt lat="44.77812" lon="1.61458">
        <ele>217.88</ele>
        <time>2021-08-16T19:32:56Z</time>
      </trkpt>
      <trkpt lat="44.77803" lon="1.61458">
        <ele>218.36</ele>
        <time>2021-08-16T19:33:04Z</time>
      </trkpt>
      <trkpt lat="44.77795" lon="1.61457">
        <ele>219.8</ele>
        <time>2021-08-16T19:33:12Z</time>
      </trkpt>
      <trkpt lat="44.77787" lon="1.61455">
        <ele>220.28</ele>
        <time>2021-08-16T19:33:21Z</time>
      </trkpt>
      <trkpt lat="44.77781" lon="1.61451">
        <ele>221.24</ele>
        <time>2021-08-16T19:33:29Z</time>
      </trkpt>
      <trkpt lat="44.77773" lon="1.61444">
        <ele>222.68</ele>
        <time>2021-08-16T19:33:39Z</time>
      </trkpt>
      <trkpt lat="44.77764" lon="1.61437">
        <ele>223.64</ele>
        <time>2021-08-16T19:33:49Z</time>
      </trkpt>
      <trkpt lat="44.77755" lon="1.61428">
        <ele>224.61</ele>
        <time>2021-08-16T19:34:00Z</time>
      </trkpt>
      <trkpt lat="44.77752" lon="1.61426">
        <ele>225.09</ele>
        <time>2021-08-16T19:34:04Z</time>
      </trkpt>
      <trkpt lat="44.77747" lon="1.6142">
        <ele>226.05</ele>
        <time>2021-08-16T19:34:13Z</time>
      </trkpt>
      <trkpt lat="44.7774" lon="1.61413">
        <ele>227.49</ele>
        <time>2021-08-16T19:34:22Z</time>
      </trkpt>
      <trkpt lat="44.77734" lon="1.61407">
        <ele>228.93</ele>
        <time>2021-08-16T19:34:32Z</time>
      </trkpt>
      <trkpt lat="44.7773" lon="1.61402">
        <ele>229.89</ele>
        <time>2021-08-16T19:34:40Z</time>
      </trkpt>
      <trkpt lat="44.77726" lon="1.61394">
        <ele>230.85</ele>
        <time>2021-08-16T19:34:49Z</time>
      </trkpt>
      <trkpt lat="44.77722" lon="1.61388">
        <ele>231.81</ele>
        <time>2021-08-16T19:34:58Z</time>
      </trkpt>
      <trkpt lat="44.77719" lon="1.61379">
        <ele>233.26</ele>
        <time>2021-08-16T19:35:07Z</time>
      </trkpt>
      <trkpt lat="44.77716" lon="1.61368">
        <ele>234.22</ele>
        <time>2021-08-16T19:35:17Z</time>
      </trkpt>
      <trkpt lat="44.77714" lon="1.61359">
        <ele>235.18</ele>
        <time>2021-08-16T19:35:26Z</time>
      </trkpt>
      <trkpt lat="44.77712" lon="1.61351">
        <ele>236.62</ele>
        <time>2021-08-16T19:35:35Z</time>
      </trkpt>
      <trkpt lat="44.77709" lon="1.61341">
        <ele>237.58</ele>
        <time>2021-08-16T19:35:44Z</time>
      </trkpt>
      <trkpt lat="44.77707" lon="1.61331">
        <ele>238.54</ele>
        <time>2021-08-16T19:35:53Z</time>
      </trkpt>
      <trkpt lat="44.77704" lon="1.61324">
        <ele>239.51</ele>
        <time>2021-08-16T19:36:01Z</time>
      </trkpt>
      <trkpt lat="44.77698" lon="1.61316">
        <ele>239.99</ele>
        <time>2021-08-16T19:36:10Z</time>
      </trkpt>
      <trkpt lat="44.77695" lon="1.61311">
        <ele>240.95</ele>
        <time>2021-08-16T19:36:17Z</time>
      </trkpt>
      <trkpt lat="44.7769" lon="1.61305">
        <ele>241.91</ele>
        <time>2021-08-16T19:36:23Z</time>
      </trkpt>
      <trkpt lat="44.77684" lon="1.61299">
        <ele>242.87</ele>
        <time>2021-08-16T19:36:30Z</time>
      </trkpt>
      <trkpt lat="44.77677" lon="1.61292">
        <ele>243.35</ele>
        <time>2021-08-16T19:36:37Z</time>
      </trkpt>
      <trkpt lat="44.77671" lon="1.61285">
        <ele>244.79</ele>
        <time>2021-08-16T19:36:44Z</time>
      </trkpt>
      <trkpt lat="44.77667" lon="1.61281">
        <ele>245.27</ele>
        <time>2021-08-16T19:36:50Z</time>
      </trkpt>
      <trkpt lat="44.77661" lon="1.61276">
        <ele>246.23</ele>
        <time>2021-08-16T19:36:59Z</time>
      </trkpt>
      <trkpt lat="44.77651" lon="1.6127">
        <ele>247.68</ele>
        <time>2021-08-16T19:37:09Z</time>
      </trkpt>
      <trkpt lat="44.77642" lon="1.61266">
        <ele>249.12</ele>
        <time>2021-08-16T19:37:20Z</time>
      </trkpt>
      <trkpt lat="44.77634" lon="1.61262">
        <ele>250.08</ele>
        <time>2021-08-16T19:37:31Z</time>
      </trkpt>
      <trkpt lat="44.77626" lon="1.61262">
        <ele>251.04</ele>
        <time>2021-08-16T19:37:40Z</time>
      </trkpt>
      <trkpt lat="44.77621" lon="1.61265">
        <ele>252.48</ele>
        <time>2021-08-16T19:37:48Z</time>
      </trkpt>
      <trkpt lat="44.77615" lon="1.61267">
        <ele>253.44</ele>
        <time>2021-08-16T19:37:55Z</time>
      </trkpt>
      <trkpt lat="44.77605" lon="1.61266">
        <ele>254.89</ele>
        <time>2021-08-16T19:38:05Z</time>
      </trkpt>
      <trkpt lat="44.77599" lon="1.61267">
        <ele>255.37</ele>
        <time>2021-08-16T19:38:12Z</time>
      </trkpt>
      <trkpt lat="44.7759" lon="1.61274">
        <ele>256.33</ele>
        <time>2021-08-16T19:38:21Z</time>
      </trkpt>
      <trkpt lat="44.77589" lon="1.61274">
        <ele>256.33</ele>
        <time>2021-08-16T19:38:22Z</time>
      </trkpt>
      <trkpt lat="44.77583" lon="1.61273">
        <ele>256.81</ele>
        <time>2021-08-16T19:38:29Z</time>
      </trkpt>
      <trkpt lat="44.7758" lon="1.61274">
        <ele>256.81</ele>
        <time>2021-08-16T19:38:35Z</time>
      </trkpt>
      <trkpt lat="44.77567" lon="1.61272">
        <ele>257.77</ele>
        <time>2021-08-16T19:38:44Z</time>
      </trkpt>
      <trkpt lat="44.7755" lon="1.61274">
        <ele>259.21</ele>
        <time>2021-08-16T19:38:54Z</time>
      </trkpt>
      <trkpt lat="44.77531" lon="1.61277">
        <ele>260.17</ele>
        <time>2021-08-16T19:39:05Z</time>
      </trkpt>
      <trkpt lat="44.77516" lon="1.61281">
        <ele>261.14</ele>
        <time>2021-08-16T19:39:14Z</time>
      </trkpt>
      <trkpt lat="44.77514" lon="1.61281">
        <ele>261.14</ele>
        <time>2021-08-16T19:39:15Z</time>
      </trkpt>
      <trkpt lat="44.77512" lon="1.61281">
        <ele>261.14</ele>
        <time>2021-08-16T19:39:16Z</time>
      </trkpt>
      <trkpt lat="44.77493" lon="1.61287">
        <ele>262.58</ele>
        <time>2021-08-16T19:39:28Z</time>
      </trkpt>
      <trkpt lat="44.77486" lon="1.6129">
        <ele>263.06</ele>
        <time>2021-08-16T19:39:33Z</time>
      </trkpt>
      <trkpt lat="44.77484" lon="1.61291">
        <ele>263.06</ele>
        <time>2021-08-16T19:39:34Z</time>
      </trkpt>
      <trkpt lat="44.7747" lon="1.61299">
        <ele>264.02</ele>
        <time>2021-08-16T19:39:44Z</time>
      </trkpt>
      <trkpt lat="44.77451" lon="1.61307">
        <ele>264.98</ele>
        <time>2021-08-16T19:39:54Z</time>
      </trkpt>
      <trkpt lat="44.77437" lon="1.61311">
        <ele>265.46</ele>
        <time>2021-08-16T19:40:02Z</time>
      </trkpt>
      <trkpt lat="44.77435" lon="1.61312">
        <ele>265.46</ele>
        <time>2021-08-16T19:40:03Z</time>
      </trkpt>
      <trkpt lat="44.77433" lon="1.61312">
        <ele>265.46</ele>
        <time>2021-08-16T19:40:04Z</time>
      </trkpt>
      <trkpt lat="44.77431" lon="1.61312">
        <ele>265.46</ele>
        <time>2021-08-16T19:40:05Z</time>
      </trkpt>
      <trkpt lat="44.77429" lon="1.61313">
        <ele>265.94</ele>
        <time>2021-08-16T19:40:06Z</time>
      </trkpt>
      <trkpt lat="44.77427" lon="1.61313">
        <ele>265.94</ele>
        <time>2021-08-16T19:40:07Z</time>
      </trkpt>
      <trkpt lat="44.77425" lon="1.61313">
        <ele>265.94</ele>
        <time>2021-08-16T19:40:08Z</time>
      </trkpt>
      <trkpt lat="44.77402" lon="1.61317">
        <ele>266.42</ele>
        <time>2021-08-16T19:40:19Z</time>
      </trkpt>
      <trkpt lat="44.77372" lon="1.6132">
        <ele>267.38</ele>
        <time>2021-08-16T19:40:32Z</time>
      </trkpt>
      <trkpt lat="44.77354" lon="1.61321">
        <ele>268.35</ele>
        <time>2021-08-16T19:40:40Z</time>
      </trkpt>
      <trkpt lat="44.77332" lon="1.61319">
        <ele>268.83</ele>
        <time>2021-08-16T19:40:49Z</time>
      </trkpt>
      <trkpt lat="44.77317" lon="1.61316">
        <ele>268.83</ele>
        <time>2021-08-16T19:40:55Z</time>
      </trkpt>
      <trkpt lat="44.77295" lon="1.6131">
        <ele>269.31</ele>
        <time>2021-08-16T19:41:03Z</time>
      </trkpt>
      <trkpt lat="44.77272" lon="1.61303">
        <ele>269.79</ele>
        <time>2021-08-16T19:41:11Z</time>
      </trkpt>
      <trkpt lat="44.77247" lon="1.61297">
        <ele>269.79</ele>
        <time>2021-08-16T19:41:19Z</time>
      </trkpt>
      <trkpt lat="44.7722" lon="1.6129">
        <ele>270.27</ele>
        <time>2021-08-16T19:41:28Z</time>
      </trkpt>
      <trkpt lat="44.77189" lon="1.61281">
        <ele>270.75</ele>
        <time>2021-08-16T19:41:38Z</time>
      </trkpt>
      <trkpt lat="44.77163" lon="1.61271">
        <ele>271.71</ele>
        <time>2021-08-16T19:41:48Z</time>
      </trkpt>
      <trkpt lat="44.77147" lon="1.61264">
        <ele>272.19</ele>
        <time>2021-08-16T19:41:54Z</time>
      </trkpt>
      <trkpt lat="44.77134" lon="1.61255">
        <ele>272.67</ele>
        <time>2021-08-16T19:42:01Z</time>
      </trkpt>
      <trkpt lat="44.77121" lon="1.61245">
        <ele>274.11</ele>
        <time>2021-08-16T19:42:09Z</time>
      </trkpt>
      <trkpt lat="44.77098" lon="1.61241">
        <ele>275.07</ele>
        <time>2021-08-16T19:42:20Z</time>
      </trkpt>
      <trkpt lat="44.77078" lon="1.61241">
        <ele>276.52</ele>
        <time>2021-08-16T19:42:30Z</time>
      </trkpt>
      <trkpt lat="44.77063" lon="1.6124">
        <ele>277.48</ele>
        <time>2021-08-16T19:42:36Z</time>
      </trkpt>
      <trkpt lat="44.77046" lon="1.61237">
        <ele>277.96</ele>
        <time>2021-08-16T19:42:44Z</time>
      </trkpt>
      <trkpt lat="44.77028" lon="1.61235">
        <ele>278.92</ele>
        <time>2021-08-16T19:42:53Z</time>
      </trkpt>
      <trkpt lat="44.77005" lon="1.61231">
        <ele>278.92</ele>
        <time>2021-08-16T19:43:03Z</time>
      </trkpt>
      <trkpt lat="44.76985" lon="1.6123">
        <ele>279.88</ele>
        <time>2021-08-16T19:43:12Z</time>
      </trkpt>
      <trkpt lat="44.76961" lon="1.6123">
        <ele>280.84</ele>
        <time>2021-08-16T19:43:22Z</time>
      </trkpt>
      <trkpt lat="44.76939" lon="1.6123">
        <ele>281.8</ele>
        <time>2021-08-16T19:43:31Z</time>
      </trkpt>
      <trkpt lat="44.76912" lon="1.61232">
        <ele>282.28</ele>
        <time>2021-08-16T19:43:42Z</time>
      </trkpt>
      <trkpt lat="44.76887" lon="1.61234">
        <ele>283.73</ele>
        <time>2021-08-16T19:43:52Z</time>
      </trkpt>
      <trkpt lat="44.76867" lon="1.61236">
        <ele>283.73</ele>
        <time>2021-08-16T19:44:00Z</time>
      </trkpt>
      <trkpt lat="44.76844" lon="1.6124">
        <ele>283.73</ele>
        <time>2021-08-16T19:44:08Z</time>
      </trkpt>
      <trkpt lat="44.76822" lon="1.61231">
        <ele>283.73</ele>
        <time>2021-08-16T19:44:15Z</time>
      </trkpt>
      <trkpt lat="44.76787" lon="1.6122">
        <ele>281.32</ele>
        <time>2021-08-16T19:44:24Z</time>
      </trkpt>
      <trkpt lat="44.76739" lon="1.61211">
        <ele>279.4</ele>
        <time>2021-08-16T19:44:34Z</time>
      </trkpt>
      <trkpt lat="44.76705" lon="1.6119">
        <ele>278.92</ele>
        <time>2021-08-16T19:44:41Z</time>
      </trkpt>
      <trkpt lat="44.76684" lon="1.61171">
        <ele>281.32</ele>
        <time>2021-08-16T19:44:48Z</time>
      </trkpt>
      <trkpt lat="44.76665" lon="1.61156">
        <ele>282.28</ele>
        <time>2021-08-16T19:44:56Z</time>
      </trkpt>
      <trkpt lat="44.76648" lon="1.61142">
        <ele>282.77</ele>
        <time>2021-08-16T19:45:03Z</time>
      </trkpt>
      <trkpt lat="44.76627" lon="1.61116">
        <ele>282.77</ele>
        <time>2021-08-16T19:45:11Z</time>
      </trkpt>
      <trkpt lat="44.76611" lon="1.61096">
        <ele>283.25</ele>
        <time>2021-08-16T19:45:18Z</time>
      </trkpt>
      <trkpt lat="44.76579" lon="1.61061">
        <ele>283.25</ele>
        <time>2021-08-16T19:45:30Z</time>
      </trkpt>
      <trkpt lat="44.7656" lon="1.61034">
        <ele>283.25</ele>
        <time>2021-08-16T19:45:38Z</time>
      </trkpt>
      <trkpt lat="44.76535" lon="1.61019">
        <ele>284.21</ele>
        <time>2021-08-16T19:45:46Z</time>
      </trkpt>
      <trkpt lat="44.76501" lon="1.61014">
        <ele>284.21</ele>
        <time>2021-08-16T19:45:55Z</time>
      </trkpt>
      <trkpt lat="44.76481" lon="1.61006">
        <ele>284.21</ele>
        <time>2021-08-16T19:46:01Z</time>
      </trkpt>
      <trkpt lat="44.76479" lon="1.61003">
        <ele>284.21</ele>
        <time>2021-08-16T19:46:02Z</time>
      </trkpt>
      <trkpt lat="44.7648" lon="1.61001">
        <ele>284.21</ele>
        <time>2021-08-16T19:46:03Z</time>
      </trkpt>
      <trkpt lat="44.76479" lon="1.60998">
        <ele>284.21</ele>
        <time>2021-08-16T19:46:04Z</time>
      </trkpt>
      <trkpt lat="44.76478" lon="1.60997">
        <ele>284.21</ele>
        <time>2021-08-16T19:46:05Z</time>
      </trkpt>
      <trkpt lat="44.76477" lon="1.60999">
        <ele>284.21</ele>
        <time>2021-08-16T19:46:06Z</time>
      </trkpt>
      <trkpt lat="44.76477" lon="1.61">
        <ele>284.21</ele>
        <time>2021-08-16T19:46:07Z</time>
      </trkpt>
      <trkpt lat="44.76477" lon="1.61003">
        <ele>284.21</ele>
        <time>2021-08-16T19:46:08Z</time>
      </trkpt>
      <trkpt lat="44.76477" lon="1.61005">
        <ele>284.21</ele>
        <time>2021-08-16T19:46:09Z</time>
      </trkpt>
      <trkpt lat="44.76476" lon="1.61007">
        <ele>284.21</ele>
        <time>2021-08-16T19:46:10Z</time>
      </trkpt>
      <trkpt lat="44.76474" lon="1.61009">
        <ele>284.21</ele>
        <time>2021-08-16T19:46:11Z</time>
      </trkpt>
      <trkpt lat="44.76472" lon="1.6101">
        <ele>284.21</ele>
        <time>2021-08-16T19:46:12Z</time>
      </trkpt>
      <trkpt lat="44.7647" lon="1.6101">
        <ele>284.21</ele>
        <time>2021-08-16T19:46:13Z</time>
      </trkpt>
      <trkpt lat="44.76467" lon="1.6101">
        <ele>284.21</ele>
        <time>2021-08-16T19:46:14Z</time>
      </trkpt>
      <trkpt lat="44.76445" lon="1.61002">
        <ele>285.17</ele>
        <time>2021-08-16T19:46:23Z</time>
      </trkpt>
      <trkpt lat="44.76419" lon="1.60985">
        <ele>285.17</ele>
        <time>2021-08-16T19:46:33Z</time>
      </trkpt>
      <trkpt lat="44.76402" lon="1.60969">
        <ele>286.13</ele>
        <time>2021-08-16T19:46:40Z</time>
      </trkpt>
      <trkpt lat="44.7638" lon="1.60947">
        <ele>286.13</ele>
        <time>2021-08-16T19:46:48Z</time>
      </trkpt>
      <trkpt lat="44.76378" lon="1.60943">
        <ele>286.13</ele>
        <time>2021-08-16T19:46:49Z</time>
      </trkpt>
      <trkpt lat="44.76351" lon="1.60911">
        <ele>285.65</ele>
        <time>2021-08-16T19:46:58Z</time>
      </trkpt>
      <trkpt lat="44.76322" lon="1.60874">
        <ele>284.69</ele>
        <time>2021-08-16T19:47:07Z</time>
      </trkpt>
      <trkpt lat="44.76297" lon="1.60835">
        <ele>284.21</ele>
        <time>2021-08-16T19:47:15Z</time>
      </trkpt>
      <trkpt lat="44.76282" lon="1.60809">
        <ele>285.65</ele>
        <time>2021-08-16T19:47:22Z</time>
      </trkpt>
      <trkpt lat="44.76263" lon="1.60792">
        <ele>286.61</ele>
        <time>2021-08-16T19:47:29Z</time>
      </trkpt>
      <trkpt lat="44.7626" lon="1.60775">
        <ele>287.09</ele>
        <time>2021-08-16T19:47:34Z</time>
      </trkpt>
      <trkpt lat="44.76267" lon="1.60739">
        <ele>285.65</ele>
        <time>2021-08-16T19:47:41Z</time>
      </trkpt>
      <trkpt lat="44.76272" lon="1.60709">
        <ele>284.69</ele>
        <time>2021-08-16T19:47:46Z</time>
      </trkpt>
      <trkpt lat="44.76273" lon="1.60679">
        <ele>283.25</ele>
        <time>2021-08-16T19:47:50Z</time>
      </trkpt>
      <trkpt lat="44.76272" lon="1.60671">
        <ele>283.25</ele>
        <time>2021-08-16T19:47:51Z</time>
      </trkpt>
      <trkpt lat="44.76271" lon="1.60664">
        <ele>283.25</ele>
        <time>2021-08-16T19:47:52Z</time>
      </trkpt>
      <trkpt lat="44.76251" lon="1.60588">
        <ele>281.32</ele>
        <time>2021-08-16T19:48:02Z</time>
      </trkpt>
      <trkpt lat="44.76243" lon="1.60562">
        <ele>279.88</ele>
        <time>2021-08-16T19:48:05Z</time>
      </trkpt>
      <trkpt lat="44.76227" lon="1.60513">
        <ele>277</ele>
        <time>2021-08-16T19:48:10Z</time>
      </trkpt>
      <trkpt lat="44.76223" lon="1.60505">
        <ele>277</ele>
        <time>2021-08-16T19:48:11Z</time>
      </trkpt>
      <trkpt lat="44.76206" lon="1.60461">
        <ele>274.11</ele>
        <time>2021-08-16T19:48:16Z</time>
      </trkpt>
      <trkpt lat="44.76205" lon="1.60454">
        <ele>274.11</ele>
        <time>2021-08-16T19:48:17Z</time>
      </trkpt>
      <trkpt lat="44.76206" lon="1.60446">
        <ele>273.63</ele>
        <time>2021-08-16T19:48:18Z</time>
      </trkpt>
      <trkpt lat="44.7621" lon="1.60432">
        <ele>273.63</ele>
        <time>2021-08-16T19:48:20Z</time>
      </trkpt>
      <trkpt lat="44.76218" lon="1.60413">
        <ele>273.63</ele>
        <time>2021-08-16T19:48:23Z</time>
      </trkpt>
      <trkpt lat="44.76221" lon="1.60408">
        <ele>273.63</ele>
        <time>2021-08-16T19:48:24Z</time>
      </trkpt>
      <trkpt lat="44.76225" lon="1.60402">
        <ele>273.63</ele>
        <time>2021-08-16T19:48:25Z</time>
      </trkpt>
      <trkpt lat="44.76265" lon="1.60354">
        <ele>271.71</ele>
        <time>2021-08-16T19:48:35Z</time>
      </trkpt>
      <trkpt lat="44.76301" lon="1.60323">
        <ele>270.75</ele>
        <time>2021-08-16T19:48:43Z</time>
      </trkpt>
      <trkpt lat="44.76329" lon="1.60294">
        <ele>268.35</ele>
        <time>2021-08-16T19:48:49Z</time>
      </trkpt>
      <trkpt lat="44.76349" lon="1.60263">
        <ele>265.46</ele>
        <time>2021-08-16T19:48:53Z</time>
      </trkpt>
      <trkpt lat="44.76355" lon="1.60257">
        <ele>264.98</ele>
        <time>2021-08-16T19:48:54Z</time>
      </trkpt>
      <trkpt lat="44.76361" lon="1.60251">
        <ele>264.98</ele>
        <time>2021-08-16T19:48:55Z</time>
      </trkpt>
      <trkpt lat="44.76367" lon="1.60247">
        <ele>264.02</ele>
        <time>2021-08-16T19:48:56Z</time>
      </trkpt>
      <trkpt lat="44.76373" lon="1.60245">
        <ele>263.06</ele>
        <time>2021-08-16T19:48:57Z</time>
      </trkpt>
      <trkpt lat="44.7638" lon="1.60243">
        <ele>262.58</ele>
        <time>2021-08-16T19:48:58Z</time>
      </trkpt>
      <trkpt lat="44.76385" lon="1.60242">
        <ele>261.62</ele>
        <time>2021-08-16T19:48:59Z</time>
      </trkpt>
      <trkpt lat="44.76396" lon="1.60238">
        <ele>260.17</ele>
        <time>2021-08-16T19:49:01Z</time>
      </trkpt>
      <trkpt lat="44.764" lon="1.60234">
        <ele>259.69</ele>
        <time>2021-08-16T19:49:02Z</time>
      </trkpt>
      <trkpt lat="44.76402" lon="1.60227">
        <ele>258.73</ele>
        <time>2021-08-16T19:49:03Z</time>
      </trkpt>
      <trkpt lat="44.76403" lon="1.6022">
        <ele>257.77</ele>
        <time>2021-08-16T19:49:04Z</time>
      </trkpt>
      <trkpt lat="44.76401" lon="1.60211">
        <ele>256.81</ele>
        <time>2021-08-16T19:49:05Z</time>
      </trkpt>
      <trkpt lat="44.76399" lon="1.60202">
        <ele>255.85</ele>
        <time>2021-08-16T19:49:06Z</time>
      </trkpt>
      <trkpt lat="44.76396" lon="1.60192">
        <ele>255.37</ele>
        <time>2021-08-16T19:49:07Z</time>
      </trkpt>
      <trkpt lat="44.76392" lon="1.60183">
        <ele>254.41</ele>
        <time>2021-08-16T19:49:08Z</time>
      </trkpt>
      <trkpt lat="44.76387" lon="1.60174">
        <ele>252.96</ele>
        <time>2021-08-16T19:49:09Z</time>
      </trkpt>
      <trkpt lat="44.76382" lon="1.60165">
        <ele>252</ele>
        <time>2021-08-16T19:49:10Z</time>
      </trkpt>
      <trkpt lat="44.7637" lon="1.60148">
        <ele>250.56</ele>
        <time>2021-08-16T19:49:12Z</time>
      </trkpt>
      <trkpt lat="44.76364" lon="1.60141">
        <ele>249.6</ele>
        <time>2021-08-16T19:49:13Z</time>
      </trkpt>
      <trkpt lat="44.76344" lon="1.60126">
        <ele>247.2</ele>
        <time>2021-08-16T19:49:16Z</time>
      </trkpt>
      <trkpt lat="44.76338" lon="1.60123">
        <ele>246.23</ele>
        <time>2021-08-16T19:49:17Z</time>
      </trkpt>
      <trkpt lat="44.7633" lon="1.60122">
        <ele>245.27</ele>
        <time>2021-08-16T19:49:18Z</time>
      </trkpt>
      <trkpt lat="44.76323" lon="1.60122">
        <ele>244.31</ele>
        <time>2021-08-16T19:49:19Z</time>
      </trkpt>
      <trkpt lat="44.76314" lon="1.60123">
        <ele>242.87</ele>
        <time>2021-08-16T19:49:20Z</time>
      </trkpt>
      <trkpt lat="44.76287" lon="1.60128">
        <ele>239.02</ele>
        <time>2021-08-16T19:49:23Z</time>
      </trkpt>
      <trkpt lat="44.76256" lon="1.60134">
        <ele>234.22</ele>
        <time>2021-08-16T19:49:26Z</time>
      </trkpt>
      <trkpt lat="44.76236" lon="1.60137">
        <ele>230.85</ele>
        <time>2021-08-16T19:49:28Z</time>
      </trkpt>
      <trkpt lat="44.76206" lon="1.60134">
        <ele>227.49</ele>
        <time>2021-08-16T19:49:31Z</time>
      </trkpt>
      <trkpt lat="44.7618" lon="1.60126">
        <ele>224.12</ele>
        <time>2021-08-16T19:49:34Z</time>
      </trkpt>
      <trkpt lat="44.76172" lon="1.60123">
        <ele>223.16</ele>
        <time>2021-08-16T19:49:35Z</time>
      </trkpt>
      <trkpt lat="44.76165" lon="1.60119">
        <ele>221.72</ele>
        <time>2021-08-16T19:49:36Z</time>
      </trkpt>
      <trkpt lat="44.76159" lon="1.60112">
        <ele>221.24</ele>
        <time>2021-08-16T19:49:37Z</time>
      </trkpt>
      <trkpt lat="44.76154" lon="1.60106">
        <ele>220.28</ele>
        <time>2021-08-16T19:49:38Z</time>
      </trkpt>
      <trkpt lat="44.76148" lon="1.60098">
        <ele>219.32</ele>
        <time>2021-08-16T19:49:39Z</time>
      </trkpt>
      <trkpt lat="44.76123" lon="1.6006">
        <ele>215.95</ele>
        <time>2021-08-16T19:49:43Z</time>
      </trkpt>
      <trkpt lat="44.76098" lon="1.60015">
        <ele>212.59</ele>
        <time>2021-08-16T19:49:48Z</time>
      </trkpt>
      <trkpt lat="44.76093" lon="1.6">
        <ele>211.63</ele>
        <time>2021-08-16T19:49:50Z</time>
      </trkpt>
      <trkpt lat="44.76088" lon="1.59962">
        <ele>209.7</ele>
        <time>2021-08-16T19:49:54Z</time>
      </trkpt>
      <trkpt lat="44.76088" lon="1.59952">
        <ele>208.74</ele>
        <time>2021-08-16T19:49:55Z</time>
      </trkpt>
      <trkpt lat="44.76089" lon="1.59942">
        <ele>208.74</ele>
        <time>2021-08-16T19:49:56Z</time>
      </trkpt>
      <trkpt lat="44.76094" lon="1.59899">
        <ele>204.9</ele>
        <time>2021-08-16T19:50:00Z</time>
      </trkpt>
      <trkpt lat="44.76094" lon="1.59887">
        <ele>203.46</ele>
        <time>2021-08-16T19:50:01Z</time>
      </trkpt>
      <trkpt lat="44.76094" lon="1.59877">
        <ele>202.49</ele>
        <time>2021-08-16T19:50:02Z</time>
      </trkpt>
      <trkpt lat="44.76092" lon="1.59865">
        <ele>202.01</ele>
        <time>2021-08-16T19:50:03Z</time>
      </trkpt>
      <trkpt lat="44.76087" lon="1.59828">
        <ele>197.69</ele>
        <time>2021-08-16T19:50:06Z</time>
      </trkpt>
      <trkpt lat="44.76082" lon="1.59794">
        <ele>195.28</ele>
        <time>2021-08-16T19:50:09Z</time>
      </trkpt>
      <trkpt lat="44.76082" lon="1.59784">
        <ele>195.28</ele>
        <time>2021-08-16T19:50:10Z</time>
      </trkpt>
      <trkpt lat="44.76084" lon="1.59776">
        <ele>194.32</ele>
        <time>2021-08-16T19:50:11Z</time>
      </trkpt>
      <trkpt lat="44.76092" lon="1.59736">
        <ele>191.44</ele>
        <time>2021-08-16T19:50:15Z</time>
      </trkpt>
      <trkpt lat="44.76097" lon="1.59708">
        <ele>188.56</ele>
        <time>2021-08-16T19:50:18Z</time>
      </trkpt>
      <trkpt lat="44.76098" lon="1.597">
        <ele>187.59</ele>
        <time>2021-08-16T19:50:19Z</time>
      </trkpt>
      <trkpt lat="44.76097" lon="1.59694">
        <ele>186.63</ele>
        <time>2021-08-16T19:50:20Z</time>
      </trkpt>
      <trkpt lat="44.76095" lon="1.59689">
        <ele>185.67</ele>
        <time>2021-08-16T19:50:21Z</time>
      </trkpt>
      <trkpt lat="44.76091" lon="1.59684">
        <ele>185.67</ele>
        <time>2021-08-16T19:50:22Z</time>
      </trkpt>
      <trkpt lat="44.76086" lon="1.59681">
        <ele>184.71</ele>
        <time>2021-08-16T19:50:23Z</time>
      </trkpt>
      <trkpt lat="44.76081" lon="1.59677">
        <ele>184.23</ele>
        <time>2021-08-16T19:50:24Z</time>
      </trkpt>
      <trkpt lat="44.76076" lon="1.59672">
        <ele>184.23</ele>
        <time>2021-08-16T19:50:25Z</time>
      </trkpt>
      <trkpt lat="44.76061" lon="1.59658">
        <ele>183.27</ele>
        <time>2021-08-16T19:50:28Z</time>
      </trkpt>
      <trkpt lat="44.76057" lon="1.59654">
        <ele>183.27</ele>
        <time>2021-08-16T19:50:29Z</time>
      </trkpt>
      <trkpt lat="44.76053" lon="1.59651">
        <ele>183.27</ele>
        <time>2021-08-16T19:50:30Z</time>
      </trkpt>
      <trkpt lat="44.76049" lon="1.5965">
        <ele>183.27</ele>
        <time>2021-08-16T19:50:31Z</time>
      </trkpt>
      <trkpt lat="44.76045" lon="1.59653">
        <ele>183.27</ele>
        <time>2021-08-16T19:50:32Z</time>
      </trkpt>
      <trkpt lat="44.76042" lon="1.59657">
        <ele>183.27</ele>
        <time>2021-08-16T19:50:33Z</time>
      </trkpt>
      <trkpt lat="44.7604" lon="1.59662">
        <ele>183.27</ele>
        <time>2021-08-16T19:50:34Z</time>
      </trkpt>
      <trkpt lat="44.76038" lon="1.59666">
        <ele>183.27</ele>
        <time>2021-08-16T19:50:35Z</time>
      </trkpt>
      <trkpt lat="44.76036" lon="1.59671">
        <ele>183.27</ele>
        <time>2021-08-16T19:50:36Z</time>
      </trkpt>
      <trkpt lat="44.76025" lon="1.59695">
        <ele>183.27</ele>
        <time>2021-08-16T19:50:41Z</time>
      </trkpt>
      <trkpt lat="44.76002" lon="1.59736">
        <ele>183.27</ele>
        <time>2021-08-16T19:50:50Z</time>
      </trkpt>
      <trkpt lat="44.75996" lon="1.59744">
        <ele>183.27</ele>
        <time>2021-08-16T19:50:52Z</time>
      </trkpt>
      <trkpt lat="44.75972" lon="1.59773">
        <ele>183.27</ele>
        <time>2021-08-16T19:51:00Z</time>
      </trkpt>
      <trkpt lat="44.75956" lon="1.598">
        <ele>184.71</ele>
        <time>2021-08-16T19:51:07Z</time>
      </trkpt>
      <trkpt lat="44.7593" lon="1.59847">
        <ele>185.67</ele>
        <time>2021-08-16T19:51:19Z</time>
      </trkpt>
      <trkpt lat="44.75915" lon="1.59877">
        <ele>185.67</ele>
        <time>2021-08-16T19:51:27Z</time>
      </trkpt>
      <trkpt lat="44.75901" lon="1.59909">
        <ele>186.15</ele>
        <time>2021-08-16T19:51:35Z</time>
      </trkpt>
      <trkpt lat="44.75887" lon="1.59947">
        <ele>186.63</ele>
        <time>2021-08-16T19:51:44Z</time>
      </trkpt>
      <trkpt lat="44.75876" lon="1.59978">
        <ele>186.63</ele>
        <time>2021-08-16T19:51:51Z</time>
      </trkpt>
      <trkpt lat="44.75868" lon="1.59999">
        <ele>187.11</ele>
        <time>2021-08-16T19:51:56Z</time>
      </trkpt>
      <trkpt lat="44.7586" lon="1.60031">
        <ele>187.11</ele>
        <time>2021-08-16T19:52:03Z</time>
      </trkpt>
      <trkpt lat="44.75856" lon="1.60074">
        <ele>187.59</ele>
        <time>2021-08-16T19:52:12Z</time>
      </trkpt>
      <trkpt lat="44.75857" lon="1.60117">
        <ele>188.08</ele>
        <time>2021-08-16T19:52:21Z</time>
      </trkpt>
      <trkpt lat="44.75858" lon="1.60167">
        <ele>188.56</ele>
        <time>2021-08-16T19:52:32Z</time>
      </trkpt>
      <trkpt lat="44.75856" lon="1.602">
        <ele>189.04</ele>
        <time>2021-08-16T19:52:39Z</time>
      </trkpt>
      <trkpt lat="44.75854" lon="1.60239">
        <ele>189.52</ele>
        <time>2021-08-16T19:52:48Z</time>
      </trkpt>
      <trkpt lat="44.75848" lon="1.60281">
        <ele>190</ele>
        <time>2021-08-16T19:52:58Z</time>
      </trkpt>
      <trkpt lat="44.75833" lon="1.60318">
        <ele>190</ele>
        <time>2021-08-16T19:53:07Z</time>
      </trkpt>
      <trkpt lat="44.75807" lon="1.60352">
        <ele>190</ele>
        <time>2021-08-16T19:53:17Z</time>
      </trkpt>
      <trkpt lat="44.75781" lon="1.60374">
        <ele>190.48</ele>
        <time>2021-08-16T19:53:26Z</time>
      </trkpt>
      <trkpt lat="44.75749" lon="1.60389">
        <ele>190.96</ele>
        <time>2021-08-16T19:53:36Z</time>
      </trkpt>
      <trkpt lat="44.75721" lon="1.60395">
        <ele>191.44</ele>
        <time>2021-08-16T19:53:44Z</time>
      </trkpt>
      <trkpt lat="44.75683" lon="1.60402">
        <ele>191.44</ele>
        <time>2021-08-16T19:53:54Z</time>
      </trkpt>
      <trkpt lat="44.75649" lon="1.60407">
        <ele>191.44</ele>
        <time>2021-08-16T19:54:03Z</time>
      </trkpt>
      <trkpt lat="44.75616" lon="1.60413">
        <ele>192.88</ele>
        <time>2021-08-16T19:54:12Z</time>
      </trkpt>
      <trkpt lat="44.75584" lon="1.60423">
        <ele>193.84</ele>
        <time>2021-08-16T19:54:22Z</time>
      </trkpt>
      <trkpt lat="44.75563" lon="1.60431">
        <ele>194.32</ele>
        <time>2021-08-16T19:54:30Z</time>
      </trkpt>
      <trkpt lat="44.75551" lon="1.60424">
        <ele>194.8</ele>
        <time>2021-08-16T19:54:35Z</time>
      </trkpt>
      <trkpt lat="44.7555" lon="1.6042">
        <ele>194.8</ele>
        <time>2021-08-16T19:54:36Z</time>
      </trkpt>
      <trkpt lat="44.7555" lon="1.60415">
        <ele>194.8</ele>
        <time>2021-08-16T19:54:37Z</time>
      </trkpt>
      <trkpt lat="44.7555" lon="1.6041">
        <ele>194.8</ele>
        <time>2021-08-16T19:54:38Z</time>
      </trkpt>
      <trkpt lat="44.7555" lon="1.60406">
        <ele>194.8</ele>
        <time>2021-08-16T19:54:39Z</time>
      </trkpt>
      <trkpt lat="44.75551" lon="1.60403">
        <ele>194.8</ele>
        <time>2021-08-16T19:54:40Z</time>
      </trkpt>
      <trkpt lat="44.75551" lon="1.60399">
        <ele>194.8</ele>
        <time>2021-08-16T19:54:41Z</time>
      </trkpt>
      <trkpt lat="44.75553" lon="1.60372">
        <ele>194.8</ele>
        <time>2021-08-16T19:54:47Z</time>
      </trkpt>
      <trkpt lat="44.75543" lon="1.60342">
        <ele>193.84</ele>
        <time>2021-08-16T19:54:53Z</time>
      </trkpt>
      <trkpt lat="44.75528" lon="1.60313">
        <ele>193.84</ele>
        <time>2021-08-16T19:55:00Z</time>
      </trkpt>
      <trkpt lat="44.75528" lon="1.60295">
        <ele>193.84</ele>
        <time>2021-08-16T19:55:04Z</time>
      </trkpt>
      <trkpt lat="44.7553" lon="1.60291">
        <ele>193.84</ele>
        <time>2021-08-16T19:55:05Z</time>
      </trkpt>
      <trkpt lat="44.75532" lon="1.60288">
        <ele>193.84</ele>
        <time>2021-08-16T19:55:06Z</time>
      </trkpt>
      <trkpt lat="44.75534" lon="1.60285">
        <ele>193.84</ele>
        <time>2021-08-16T19:55:07Z</time>
      </trkpt>
      <trkpt lat="44.75537" lon="1.60282">
        <ele>193.84</ele>
        <time>2021-08-16T19:55:08Z</time>
      </trkpt>
      <trkpt lat="44.75539" lon="1.60279">
        <ele>193.84</ele>
        <time>2021-08-16T19:55:09Z</time>
      </trkpt>
      <trkpt lat="44.75542" lon="1.60275">
        <ele>193.84</ele>
        <time>2021-08-16T19:55:10Z</time>
      </trkpt>
      <trkpt lat="44.75544" lon="1.60271">
        <ele>193.84</ele>
        <time>2021-08-16T19:55:11Z</time>
      </trkpt>
      <trkpt lat="44.75546" lon="1.60267">
        <ele>193.84</ele>
        <time>2021-08-16T19:55:12Z</time>
      </trkpt>
      <trkpt lat="44.75548" lon="1.60262">
        <ele>193.84</ele>
        <time>2021-08-16T19:55:13Z</time>
      </trkpt>
      <trkpt lat="44.75549" lon="1.60257">
        <ele>193.84</ele>
        <time>2021-08-16T19:55:14Z</time>
      </trkpt>
      <trkpt lat="44.7555" lon="1.60252">
        <ele>193.84</ele>
        <time>2021-08-16T19:55:15Z</time>
      </trkpt>
      <trkpt lat="44.7555" lon="1.60247">
        <ele>193.84</ele>
        <time>2021-08-16T19:55:16Z</time>
      </trkpt>
      <trkpt lat="44.75545" lon="1.60223">
        <ele>193.84</ele>
        <time>2021-08-16T19:55:21Z</time>
      </trkpt>
      <trkpt lat="44.75525" lon="1.60197">
        <ele>193.84</ele>
        <time>2021-08-16T19:55:28Z</time>
      </trkpt>
      <trkpt lat="44.75502" lon="1.60169">
        <ele>195.28</ele>
        <time>2021-08-16T19:55:37Z</time>
      </trkpt>
      <trkpt lat="44.75499" lon="1.60166">
        <ele>195.28</ele>
        <time>2021-08-16T19:55:38Z</time>
      </trkpt>
      <trkpt lat="44.75483" lon="1.60145">
        <ele>197.21</ele>
        <time>2021-08-16T19:55:47Z</time>
      </trkpt>
      <trkpt lat="44.75475" lon="1.60132">
        <ele>198.17</ele>
        <time>2021-08-16T19:55:56Z</time>
      </trkpt>
      <trkpt lat="44.75474" lon="1.6013">
        <ele>198.17</ele>
        <time>2021-08-16T19:55:57Z</time>
      </trkpt>
      <trkpt lat="44.75474" lon="1.60129">
        <ele>198.65</ele>
        <time>2021-08-16T19:55:58Z</time>
      </trkpt>
      <trkpt lat="44.75469" lon="1.6012">
        <ele>199.13</ele>
        <time>2021-08-16T19:56:06Z</time>
      </trkpt>
      <trkpt lat="44.75465" lon="1.60112">
        <ele>200.09</ele>
        <time>2021-08-16T19:56:12Z</time>
      </trkpt>
      <trkpt lat="44.75464" lon="1.60111">
        <ele>200.09</ele>
        <time>2021-08-16T19:56:13Z</time>
      </trkpt>
      <trkpt lat="44.75461" lon="1.60104">
        <ele>200.57</ele>
        <time>2021-08-16T19:56:20Z</time>
      </trkpt>
      <trkpt lat="44.75456" lon="1.60094">
        <ele>201.05</ele>
        <time>2021-08-16T19:56:28Z</time>
      </trkpt>
      <trkpt lat="44.75449" lon="1.60083">
        <ele>202.98</ele>
        <time>2021-08-16T19:56:38Z</time>
      </trkpt>
      <trkpt lat="44.75442" lon="1.60074">
        <ele>203.46</ele>
        <time>2021-08-16T19:56:46Z</time>
      </trkpt>
      <trkpt lat="44.75439" lon="1.60065">
        <ele>204.42</ele>
        <time>2021-08-16T19:56:53Z</time>
      </trkpt>
      <trkpt lat="44.75433" lon="1.60054">
        <ele>205.86</ele>
        <time>2021-08-16T19:57:04Z</time>
      </trkpt>
      <trkpt lat="44.75427" lon="1.60042">
        <ele>207.3</ele>
        <time>2021-08-16T19:57:15Z</time>
      </trkpt>
      <trkpt lat="44.75422" lon="1.60031">
        <ele>208.74</ele>
        <time>2021-08-16T19:57:26Z</time>
      </trkpt>
      <trkpt lat="44.75418" lon="1.60021">
        <ele>210.19</ele>
        <time>2021-08-16T19:57:36Z</time>
      </trkpt>
      <trkpt lat="44.75415" lon="1.60011">
        <ele>211.63</ele>
        <time>2021-08-16T19:57:47Z</time>
      </trkpt>
      <trkpt lat="44.75411" lon="1.60001">
        <ele>213.07</ele>
        <time>2021-08-16T19:57:56Z</time>
      </trkpt>
      <trkpt lat="44.75408" lon="1.5999">
        <ele>214.03</ele>
        <time>2021-08-16T19:58:05Z</time>
      </trkpt>
      <trkpt lat="44.75405" lon="1.5998">
        <ele>214.99</ele>
        <time>2021-08-16T19:58:15Z</time>
      </trkpt>
      <trkpt lat="44.75402" lon="1.5997">
        <ele>215.47</ele>
        <time>2021-08-16T19:58:23Z</time>
      </trkpt>
      <trkpt lat="44.75397" lon="1.59962">
        <ele>216.91</ele>
        <time>2021-08-16T19:58:35Z</time>
      </trkpt>
      <trkpt lat="44.75392" lon="1.59954">
        <ele>218.36</ele>
        <time>2021-08-16T19:58:44Z</time>
      </trkpt>
      <trkpt lat="44.75387" lon="1.59943">
        <ele>219.8</ele>
        <time>2021-08-16T19:58:55Z</time>
      </trkpt>
      <trkpt lat="44.75383" lon="1.59934">
        <ele>221.24</ele>
        <time>2021-08-16T19:59:06Z</time>
      </trkpt>
      <trkpt lat="44.7538" lon="1.59928">
        <ele>222.2</ele>
        <time>2021-08-16T19:59:14Z</time>
      </trkpt>
      <trkpt lat="44.75375" lon="1.59918">
        <ele>223.64</ele>
        <time>2021-08-16T19:59:25Z</time>
      </trkpt>
      <trkpt lat="44.75369" lon="1.59911">
        <ele>225.09</ele>
        <time>2021-08-16T19:59:34Z</time>
      </trkpt>
      <trkpt lat="44.75363" lon="1.59903">
        <ele>226.53</ele>
        <time>2021-08-16T19:59:44Z</time>
      </trkpt>
      <trkpt lat="44.75355" lon="1.59896">
        <ele>227.49</ele>
        <time>2021-08-16T19:59:54Z</time>
      </trkpt>
      <trkpt lat="44.75348" lon="1.59881">
        <ele>227.97</ele>
        <time>2021-08-16T20:00:04Z</time>
      </trkpt>
      <trkpt lat="44.75344" lon="1.59862">
        <ele>228.93</ele>
        <time>2021-08-16T20:00:16Z</time>
      </trkpt>
      <trkpt lat="44.75343" lon="1.59846">
        <ele>230.85</ele>
        <time>2021-08-16T20:00:27Z</time>
      </trkpt>
      <trkpt lat="44.7534" lon="1.59831">
        <ele>231.33</ele>
        <time>2021-08-16T20:00:38Z</time>
      </trkpt>
      <trkpt lat="44.75338" lon="1.5982">
        <ele>233.26</ele>
        <time>2021-08-16T20:00:48Z</time>
      </trkpt>
      <trkpt lat="44.75335" lon="1.59812">
        <ele>233.74</ele>
        <time>2021-08-16T20:00:56Z</time>
      </trkpt>
      <trkpt lat="44.75333" lon="1.59803">
        <ele>235.18</ele>
        <time>2021-08-16T20:01:06Z</time>
      </trkpt>
      <trkpt lat="44.7533" lon="1.59794">
        <ele>236.14</ele>
        <time>2021-08-16T20:01:16Z</time>
      </trkpt>
      <trkpt lat="44.75326" lon="1.59787">
        <ele>237.58</ele>
        <time>2021-08-16T20:01:24Z</time>
      </trkpt>
      <trkpt lat="44.75322" lon="1.59776">
        <ele>238.54</ele>
        <time>2021-08-16T20:01:35Z</time>
      </trkpt>
      <trkpt lat="44.75317" lon="1.59767">
        <ele>239.51</ele>
        <time>2021-08-16T20:01:44Z</time>
      </trkpt>
      <trkpt lat="44.75313" lon="1.59758">
        <ele>240.95</ele>
        <time>2021-08-16T20:01:54Z</time>
      </trkpt>
      <trkpt lat="44.75308" lon="1.5975">
        <ele>242.39</ele>
        <time>2021-08-16T20:02:04Z</time>
      </trkpt>
      <trkpt lat="44.75306" lon="1.59745">
        <ele>242.87</ele>
        <time>2021-08-16T20:02:09Z</time>
      </trkpt>
      <trkpt lat="44.75305" lon="1.59741">
        <ele>243.35</ele>
        <time>2021-08-16T20:02:14Z</time>
      </trkpt>
      <trkpt lat="44.75301" lon="1.5973">
        <ele>244.79</ele>
        <time>2021-08-16T20:02:24Z</time>
      </trkpt>
      <trkpt lat="44.75299" lon="1.59721">
        <ele>245.75</ele>
        <time>2021-08-16T20:02:32Z</time>
      </trkpt>
      <trkpt lat="44.75296" lon="1.59714">
        <ele>246.72</ele>
        <time>2021-08-16T20:02:40Z</time>
      </trkpt>
      <trkpt lat="44.75291" lon="1.59707">
        <ele>247.68</ele>
        <time>2021-08-16T20:02:48Z</time>
      </trkpt>
      <trkpt lat="44.7529" lon="1.59704">
        <ele>248.16</ele>
        <time>2021-08-16T20:02:51Z</time>
      </trkpt>
      <trkpt lat="44.75289" lon="1.59701">
        <ele>248.16</ele>
        <time>2021-08-16T20:02:59Z</time>
      </trkpt>
      <trkpt lat="44.75287" lon="1.59696">
        <ele>248.16</ele>
        <time>2021-08-16T20:03:07Z</time>
      </trkpt>
      <trkpt lat="44.75282" lon="1.59689">
        <ele>249.12</ele>
        <time>2021-08-16T20:03:16Z</time>
      </trkpt>
      <trkpt lat="44.75276" lon="1.59678">
        <ele>251.04</ele>
        <time>2021-08-16T20:03:26Z</time>
      </trkpt>
      <trkpt lat="44.75269" lon="1.59667">
        <ele>252.48</ele>
        <time>2021-08-16T20:03:37Z</time>
      </trkpt>
      <trkpt lat="44.75264" lon="1.59659">
        <ele>252.96</ele>
        <time>2021-08-16T20:03:46Z</time>
      </trkpt>
      <trkpt lat="44.75257" lon="1.59649">
        <ele>254.41</ele>
        <time>2021-08-16T20:03:57Z</time>
      </trkpt>
      <trkpt lat="44.75251" lon="1.59642">
        <ele>255.37</ele>
        <time>2021-08-16T20:04:06Z</time>
      </trkpt>
      <trkpt lat="44.75245" lon="1.59636">
        <ele>256.33</ele>
        <time>2021-08-16T20:04:16Z</time>
      </trkpt>
      <trkpt lat="44.75238" lon="1.5963">
        <ele>257.29</ele>
        <time>2021-08-16T20:04:26Z</time>
      </trkpt>
      <trkpt lat="44.75231" lon="1.59625">
        <ele>258.25</ele>
        <time>2021-08-16T20:04:35Z</time>
      </trkpt>
      <trkpt lat="44.75223" lon="1.59618">
        <ele>259.69</ele>
        <time>2021-08-16T20:04:46Z</time>
      </trkpt>
      <trkpt lat="44.75217" lon="1.59613">
        <ele>260.65</ele>
        <time>2021-08-16T20:04:55Z</time>
      </trkpt>
      <trkpt lat="44.75208" lon="1.59604">
        <ele>262.1</ele>
        <time>2021-08-16T20:05:07Z</time>
      </trkpt>
      <trkpt lat="44.75202" lon="1.59599">
        <ele>263.06</ele>
        <time>2021-08-16T20:05:15Z</time>
      </trkpt>
      <trkpt lat="44.75197" lon="1.59593">
        <ele>264.02</ele>
        <time>2021-08-16T20:05:22Z</time>
      </trkpt>
      <trkpt lat="44.75189" lon="1.59586">
        <ele>264.98</ele>
        <time>2021-08-16T20:05:32Z</time>
      </trkpt>
      <trkpt lat="44.75183" lon="1.5958">
        <ele>265.94</ele>
        <time>2021-08-16T20:05:41Z</time>
      </trkpt>
      <trkpt lat="44.75176" lon="1.59573">
        <ele>266.9</ele>
        <time>2021-08-16T20:05:51Z</time>
      </trkpt>
      <trkpt lat="44.75169" lon="1.59568">
        <ele>267.86</ele>
        <time>2021-08-16T20:06:01Z</time>
      </trkpt>
      <trkpt lat="44.75164" lon="1.59561">
        <ele>269.31</ele>
        <time>2021-08-16T20:06:11Z</time>
      </trkpt>
      <trkpt lat="44.7516" lon="1.5955">
        <ele>270.27</ele>
        <time>2021-08-16T20:06:22Z</time>
      </trkpt>
      <trkpt lat="44.75157" lon="1.59539">
        <ele>271.71</ele>
        <time>2021-08-16T20:06:33Z</time>
      </trkpt>
      <trkpt lat="44.75153" lon="1.59531">
        <ele>272.67</ele>
        <time>2021-08-16T20:06:42Z</time>
      </trkpt>
      <trkpt lat="44.7515" lon="1.59524">
        <ele>273.63</ele>
        <time>2021-08-16T20:06:48Z</time>
      </trkpt>
      <trkpt lat="44.75146" lon="1.59513">
        <ele>274.59</ele>
        <time>2021-08-16T20:06:57Z</time>
      </trkpt>
      <trkpt lat="44.75141" lon="1.59503">
        <ele>275.07</ele>
        <time>2021-08-16T20:07:06Z</time>
      </trkpt>
      <trkpt lat="44.75136" lon="1.59495">
        <ele>276.04</ele>
        <time>2021-08-16T20:07:15Z</time>
      </trkpt>
      <trkpt lat="44.75135" lon="1.59493">
        <ele>276.04</ele>
        <time>2021-08-16T20:07:17Z</time>
      </trkpt>
      <trkpt lat="44.75129" lon="1.59485">
        <ele>277</ele>
        <time>2021-08-16T20:07:25Z</time>
      </trkpt>
      <trkpt lat="44.75122" lon="1.59476">
        <ele>278.44</ele>
        <time>2021-08-16T20:07:35Z</time>
      </trkpt>
      <trkpt lat="44.75117" lon="1.59468">
        <ele>278.92</ele>
        <time>2021-08-16T20:07:43Z</time>
      </trkpt>
      <trkpt lat="44.75111" lon="1.5946">
        <ele>280.36</ele>
        <time>2021-08-16T20:07:52Z</time>
      </trkpt>
      <trkpt lat="44.75104" lon="1.5945">
        <ele>281.32</ele>
        <time>2021-08-16T20:08:04Z</time>
      </trkpt>
      <trkpt lat="44.75096" lon="1.59441">
        <ele>282.28</ele>
        <time>2021-08-16T20:08:15Z</time>
      </trkpt>
      <trkpt lat="44.75089" lon="1.59435">
        <ele>283.25</ele>
        <time>2021-08-16T20:08:25Z</time>
      </trkpt>
      <trkpt lat="44.75082" lon="1.59428">
        <ele>284.21</ele>
        <time>2021-08-16T20:08:35Z</time>
      </trkpt>
      <trkpt lat="44.75077" lon="1.59423">
        <ele>285.17</ele>
        <time>2021-08-16T20:08:43Z</time>
      </trkpt>
      <trkpt lat="44.75072" lon="1.59418">
        <ele>286.13</ele>
        <time>2021-08-16T20:08:52Z</time>
      </trkpt>
      <trkpt lat="44.75066" lon="1.59407">
        <ele>287.57</ele>
        <time>2021-08-16T20:09:01Z</time>
      </trkpt>
      <trkpt lat="44.75063" lon="1.59397">
        <ele>288.53</ele>
        <time>2021-08-16T20:09:11Z</time>
      </trkpt>
      <trkpt lat="44.75058" lon="1.59386">
        <ele>289.49</ele>
        <time>2021-08-16T20:09:21Z</time>
      </trkpt>
      <trkpt lat="44.75055" lon="1.59373">
        <ele>290.94</ele>
        <time>2021-08-16T20:09:32Z</time>
      </trkpt>
      <trkpt lat="44.75051" lon="1.59362">
        <ele>292.38</ele>
        <time>2021-08-16T20:09:42Z</time>
      </trkpt>
      <trkpt lat="44.75041" lon="1.59355">
        <ele>293.82</ele>
        <time>2021-08-16T20:09:55Z</time>
      </trkpt>
      <trkpt lat="44.75033" lon="1.59351">
        <ele>295.26</ele>
        <time>2021-08-16T20:10:05Z</time>
      </trkpt>
      <trkpt lat="44.75024" lon="1.59348">
        <ele>296.22</ele>
        <time>2021-08-16T20:10:15Z</time>
      </trkpt>
      <trkpt lat="44.75015" lon="1.59344">
        <ele>297.18</ele>
        <time>2021-08-16T20:10:25Z</time>
      </trkpt>
      <trkpt lat="44.75006" lon="1.5934">
        <ele>298.15</ele>
        <time>2021-08-16T20:10:35Z</time>
      </trkpt>
      <trkpt lat="44.74997" lon="1.59336">
        <ele>299.11</ele>
        <time>2021-08-16T20:10:46Z</time>
      </trkpt>
      <trkpt lat="44.74989" lon="1.59334">
        <ele>300.07</ele>
        <time>2021-08-16T20:10:54Z</time>
      </trkpt>
      <trkpt lat="44.74976" lon="1.5933">
        <ele>301.03</ele>
        <time>2021-08-16T20:11:07Z</time>
      </trkpt>
      <trkpt lat="44.74968" lon="1.59327">
        <ele>301.51</ele>
        <time>2021-08-16T20:11:17Z</time>
      </trkpt>
      <trkpt lat="44.74964" lon="1.59326">
        <ele>301.51</ele>
        <time>2021-08-16T20:11:26Z</time>
      </trkpt>
      <trkpt lat="44.74961" lon="1.59325">
        <ele>301.99</ele>
        <time>2021-08-16T20:11:28Z</time>
      </trkpt>
      <trkpt lat="44.7496" lon="1.59325">
        <ele>301.99</ele>
        <time>2021-08-16T20:11:29Z</time>
      </trkpt>
      <trkpt lat="44.74958" lon="1.59324">
        <ele>301.99</ele>
        <time>2021-08-16T20:11:30Z</time>
      </trkpt>
      <trkpt lat="44.74946" lon="1.59318">
        <ele>303.43</ele>
        <time>2021-08-16T20:11:38Z</time>
      </trkpt>
      <trkpt lat="44.7494" lon="1.59316">
        <ele>303.91</ele>
        <time>2021-08-16T20:11:42Z</time>
      </trkpt>
      <trkpt lat="44.74938" lon="1.59317">
        <ele>303.91</ele>
        <time>2021-08-16T20:11:43Z</time>
      </trkpt>
      <trkpt lat="44.74937" lon="1.59316">
        <ele>303.91</ele>
        <time>2021-08-16T20:11:44Z</time>
      </trkpt>
      <trkpt lat="44.74922" lon="1.5931">
        <ele>304.88</ele>
        <time>2021-08-16T20:11:53Z</time>
      </trkpt>
      <trkpt lat="44.74908" lon="1.59303">
        <ele>305.84</ele>
        <time>2021-08-16T20:12:02Z</time>
      </trkpt>
      <trkpt lat="44.74894" lon="1.59295">
        <ele>306.32</ele>
        <time>2021-08-16T20:12:12Z</time>
      </trkpt>
      <trkpt lat="44.74883" lon="1.59289">
        <ele>307.28</ele>
        <time>2021-08-16T20:12:20Z</time>
      </trkpt>
      <trkpt lat="44.74868" lon="1.59281">
        <ele>308.72</ele>
        <time>2021-08-16T20:12:31Z</time>
      </trkpt>
      <trkpt lat="44.74854" lon="1.59273">
        <ele>310.16</ele>
        <time>2021-08-16T20:12:40Z</time>
      </trkpt>
      <trkpt lat="44.74843" lon="1.59266">
        <ele>311.12</ele>
        <time>2021-08-16T20:12:49Z</time>
      </trkpt>
      <trkpt lat="44.74829" lon="1.59257">
        <ele>312.57</ele>
        <time>2021-08-16T20:13:00Z</time>
      </trkpt>
      <trkpt lat="44.74817" lon="1.59251">
        <ele>313.05</ele>
        <time>2021-08-16T20:13:09Z</time>
      </trkpt>
      <trkpt lat="44.74804" lon="1.59242">
        <ele>314.01</ele>
        <time>2021-08-16T20:13:19Z</time>
      </trkpt>
      <trkpt lat="44.74803" lon="1.59241">
        <ele>314.49</ele>
        <time>2021-08-16T20:13:20Z</time>
      </trkpt>
      <trkpt lat="44.74802" lon="1.5924">
        <ele>314.49</ele>
        <time>2021-08-16T20:13:21Z</time>
      </trkpt>
      <trkpt lat="44.748" lon="1.59238">
        <ele>314.49</ele>
        <time>2021-08-16T20:13:22Z</time>
      </trkpt>
      <trkpt lat="44.74799" lon="1.59237">
        <ele>314.49</ele>
        <time>2021-08-16T20:13:23Z</time>
      </trkpt>
      <trkpt lat="44.74797" lon="1.59236">
        <ele>314.49</ele>
        <time>2021-08-16T20:13:24Z</time>
      </trkpt>
      <trkpt lat="44.74796" lon="1.59235">
        <ele>314.49</ele>
        <time>2021-08-16T20:13:25Z</time>
      </trkpt>
      <trkpt lat="44.74792" lon="1.59232">
        <ele>314.49</ele>
        <time>2021-08-16T20:13:28Z</time>
      </trkpt>
      <trkpt lat="44.74791" lon="1.5923">
        <ele>314.49</ele>
        <time>2021-08-16T20:13:29Z</time>
      </trkpt>
      <trkpt lat="44.74789" lon="1.59229">
        <ele>314.97</ele>
        <time>2021-08-16T20:13:30Z</time>
      </trkpt>
      <trkpt lat="44.74788" lon="1.59228">
        <ele>314.97</ele>
        <time>2021-08-16T20:13:31Z</time>
      </trkpt>
      <trkpt lat="44.74786" lon="1.59226">
        <ele>315.45</ele>
        <time>2021-08-16T20:13:32Z</time>
      </trkpt>
      <trkpt lat="44.74785" lon="1.59225">
        <ele>315.45</ele>
        <time>2021-08-16T20:13:33Z</time>
      </trkpt>
      <trkpt lat="44.74783" lon="1.59224">
        <ele>315.45</ele>
        <time>2021-08-16T20:13:34Z</time>
      </trkpt>
      <trkpt lat="44.74781" lon="1.59223">
        <ele>315.45</ele>
        <time>2021-08-16T20:13:35Z</time>
      </trkpt>
      <trkpt lat="44.7478" lon="1.59222">
        <ele>315.45</ele>
        <time>2021-08-16T20:13:36Z</time>
      </trkpt>
      <trkpt lat="44.74778" lon="1.5922">
        <ele>315.45</ele>
        <time>2021-08-16T20:13:37Z</time>
      </trkpt>
      <trkpt lat="44.74762" lon="1.59201">
        <ele>315.93</ele>
        <time>2021-08-16T20:13:47Z</time>
      </trkpt>
      <trkpt lat="44.74744" lon="1.59178">
        <ele>316.89</ele>
        <time>2021-08-16T20:13:58Z</time>
      </trkpt>
      <trkpt lat="44.74728" lon="1.5916">
        <ele>316.89</ele>
        <time>2021-08-16T20:14:06Z</time>
      </trkpt>
      <trkpt lat="44.7471" lon="1.59128">
        <ele>315.93</ele>
        <time>2021-08-16T20:14:15Z</time>
      </trkpt>
      <trkpt lat="44.74696" lon="1.59103">
        <ele>315.45</ele>
        <time>2021-08-16T20:14:22Z</time>
      </trkpt>
      <trkpt lat="44.74674" lon="1.59065">
        <ele>313.53</ele>
        <time>2021-08-16T20:14:31Z</time>
      </trkpt>
      <trkpt lat="44.74666" lon="1.59049">
        <ele>313.05</ele>
        <time>2021-08-16T20:14:34Z</time>
      </trkpt>
      <trkpt lat="44.74661" lon="1.59037">
        <ele>311.6</ele>
        <time>2021-08-16T20:14:36Z</time>
      </trkpt>
      <trkpt lat="44.7464" lon="1.58987">
        <ele>309.2</ele>
        <time>2021-08-16T20:14:43Z</time>
      </trkpt>
      <trkpt lat="44.74632" lon="1.58972">
        <ele>308.24</ele>
        <time>2021-08-16T20:14:45Z</time>
      </trkpt>
      <trkpt lat="44.74623" lon="1.58957">
        <ele>306.32</ele>
        <time>2021-08-16T20:14:47Z</time>
      </trkpt>
      <trkpt lat="44.74613" lon="1.58943">
        <ele>305.84</ele>
        <time>2021-08-16T20:14:49Z</time>
      </trkpt>
      <trkpt lat="44.74608" lon="1.58937">
        <ele>305.84</ele>
        <time>2021-08-16T20:14:50Z</time>
      </trkpt>
      <trkpt lat="44.74596" lon="1.5893">
        <ele>305.84</ele>
        <time>2021-08-16T20:14:52Z</time>
      </trkpt>
      <trkpt lat="44.74591" lon="1.58928">
        <ele>305.84</ele>
        <time>2021-08-16T20:14:53Z</time>
      </trkpt>
      <trkpt lat="44.74574" lon="1.58923">
        <ele>307.76</ele>
        <time>2021-08-16T20:14:58Z</time>
      </trkpt>
      <trkpt lat="44.74555" lon="1.58919">
        <ele>309.68</ele>
        <time>2021-08-16T20:15:05Z</time>
      </trkpt>
      <trkpt lat="44.74532" lon="1.58916">
        <ele>310.64</ele>
        <time>2021-08-16T20:15:14Z</time>
      </trkpt>
      <trkpt lat="44.7451" lon="1.58914">
        <ele>310.64</ele>
        <time>2021-08-16T20:15:22Z</time>
      </trkpt>
      <trkpt lat="44.74486" lon="1.58908">
        <ele>311.6</ele>
        <time>2021-08-16T20:15:31Z</time>
      </trkpt>
      <trkpt lat="44.74454" lon="1.58897">
        <ele>311.6</ele>
        <time>2021-08-16T20:15:42Z</time>
      </trkpt>
      <trkpt lat="44.74428" lon="1.58887">
        <ele>309.68</ele>
        <time>2021-08-16T20:15:49Z</time>
      </trkpt>
      <trkpt lat="44.74423" lon="1.58885">
        <ele>309.2</ele>
        <time>2021-08-16T20:15:50Z</time>
      </trkpt>
      <trkpt lat="44.74415" lon="1.58883">
        <ele>308.72</ele>
        <time>2021-08-16T20:15:52Z</time>
      </trkpt>
      <trkpt lat="44.7441" lon="1.58881">
        <ele>308.72</ele>
        <time>2021-08-16T20:15:53Z</time>
      </trkpt>
      <trkpt lat="44.74375" lon="1.58865">
        <ele>305.36</ele>
        <time>2021-08-16T20:16:00Z</time>
      </trkpt>
      <trkpt lat="44.7437" lon="1.58862">
        <ele>304.88</ele>
        <time>2021-08-16T20:16:01Z</time>
      </trkpt>
      <trkpt lat="44.74339" lon="1.58846">
        <ele>301.03</ele>
        <time>2021-08-16T20:16:06Z</time>
      </trkpt>
      <trkpt lat="44.74309" lon="1.5883">
        <ele>298.15</ele>
        <time>2021-08-16T20:16:10Z</time>
      </trkpt>
      <trkpt lat="44.74272" lon="1.58807">
        <ele>294.3</ele>
        <time>2021-08-16T20:16:15Z</time>
      </trkpt>
      <trkpt lat="44.74231" lon="1.58782">
        <ele>290.94</ele>
        <time>2021-08-16T20:16:20Z</time>
      </trkpt>
      <trkpt lat="44.74183" lon="1.58745">
        <ele>289.49</ele>
        <time>2021-08-16T20:16:26Z</time>
      </trkpt>
      <trkpt lat="44.74171" lon="1.58735">
        <ele>289.01</ele>
        <time>2021-08-16T20:16:28Z</time>
      </trkpt>
      <trkpt lat="44.74166" lon="1.58733">
        <ele>289.01</ele>
        <time>2021-08-16T20:16:29Z</time>
      </trkpt>
      <trkpt lat="44.74149" lon="1.58728">
        <ele>289.01</ele>
        <time>2021-08-16T20:16:32Z</time>
      </trkpt>
      <trkpt lat="44.74144" lon="1.58727">
        <ele>289.01</ele>
        <time>2021-08-16T20:16:33Z</time>
      </trkpt>
      <trkpt lat="44.74139" lon="1.58726">
        <ele>288.53</ele>
        <time>2021-08-16T20:16:34Z</time>
      </trkpt>
      <trkpt lat="44.74134" lon="1.58724">
        <ele>289.01</ele>
        <time>2021-08-16T20:16:35Z</time>
      </trkpt>
      <trkpt lat="44.7413" lon="1.58723">
        <ele>289.01</ele>
        <time>2021-08-16T20:16:36Z</time>
      </trkpt>
      <trkpt lat="44.74108" lon="1.58718">
        <ele>289.01</ele>
        <time>2021-08-16T20:16:42Z</time>
      </trkpt>
      <trkpt lat="44.74102" lon="1.58717">
        <ele>289.97</ele>
        <time>2021-08-16T20:16:44Z</time>
      </trkpt>
      <trkpt lat="44.7408" lon="1.58709">
        <ele>291.42</ele>
        <time>2021-08-16T20:16:53Z</time>
      </trkpt>
      <trkpt lat="44.74066" lon="1.58705">
        <ele>292.38</ele>
        <time>2021-08-16T20:17:00Z</time>
      </trkpt>
      <trkpt lat="44.74052" lon="1.58702">
        <ele>294.3</ele>
        <time>2021-08-16T20:17:08Z</time>
      </trkpt>
      <trkpt lat="44.7404" lon="1.58703">
        <ele>294.78</ele>
        <time>2021-08-16T20:17:16Z</time>
      </trkpt>
      <trkpt lat="44.74026" lon="1.58708">
        <ele>296.22</ele>
        <time>2021-08-16T20:17:26Z</time>
      </trkpt>
      <trkpt lat="44.74009" lon="1.58718">
        <ele>297.67</ele>
        <time>2021-08-16T20:17:37Z</time>
      </trkpt>
      <trkpt lat="44.73994" lon="1.58729">
        <ele>299.11</ele>
        <time>2021-08-16T20:17:47Z</time>
      </trkpt>
      <trkpt lat="44.73981" lon="1.58739">
        <ele>300.07</ele>
        <time>2021-08-16T20:17:56Z</time>
      </trkpt>
      <trkpt lat="44.73962" lon="1.58749">
        <ele>301.99</ele>
        <time>2021-08-16T20:18:07Z</time>
      </trkpt>
      <trkpt lat="44.73949" lon="1.58753">
        <ele>302.47</ele>
        <time>2021-08-16T20:18:15Z</time>
      </trkpt>
      <trkpt lat="44.73938" lon="1.58752">
        <ele>303.43</ele>
        <time>2021-08-16T20:18:22Z</time>
      </trkpt>
      <trkpt lat="44.73923" lon="1.5875">
        <ele>304.39</ele>
        <time>2021-08-16T20:18:31Z</time>
      </trkpt>
      <trkpt lat="44.7391" lon="1.58748">
        <ele>305.36</ele>
        <time>2021-08-16T20:18:40Z</time>
      </trkpt>
      <trkpt lat="44.73897" lon="1.58746">
        <ele>306.32</ele>
        <time>2021-08-16T20:18:48Z</time>
      </trkpt>
      <trkpt lat="44.73883" lon="1.58744">
        <ele>307.28</ele>
        <time>2021-08-16T20:18:56Z</time>
      </trkpt>
      <trkpt lat="44.73881" lon="1.58743">
        <ele>307.28</ele>
        <time>2021-08-16T20:18:57Z</time>
      </trkpt>
      <trkpt lat="44.73879" lon="1.58743">
        <ele>307.28</ele>
        <time>2021-08-16T20:18:58Z</time>
      </trkpt>
      <trkpt lat="44.73866" lon="1.58743">
        <ele>308.72</ele>
        <time>2021-08-16T20:19:06Z</time>
      </trkpt>
      <trkpt lat="44.73864" lon="1.58744">
        <ele>308.72</ele>
        <time>2021-08-16T20:19:07Z</time>
      </trkpt>
      <trkpt lat="44.73863" lon="1.58744">
        <ele>308.72</ele>
        <time>2021-08-16T20:19:08Z</time>
      </trkpt>
      <trkpt lat="44.73861" lon="1.58745">
        <ele>308.72</ele>
        <time>2021-08-16T20:19:09Z</time>
      </trkpt>
      <trkpt lat="44.7386" lon="1.58745">
        <ele>308.72</ele>
        <time>2021-08-16T20:19:10Z</time>
      </trkpt>
      <trkpt lat="44.73858" lon="1.58746">
        <ele>308.72</ele>
        <time>2021-08-16T20:19:11Z</time>
      </trkpt>
      <trkpt lat="44.73844" lon="1.58753">
        <ele>309.68</ele>
        <time>2021-08-16T20:19:18Z</time>
      </trkpt>
      <trkpt lat="44.73828" lon="1.58763">
        <ele>310.64</ele>
        <time>2021-08-16T20:19:27Z</time>
      </trkpt>
      <trkpt lat="44.73817" lon="1.58769">
        <ele>312.09</ele>
        <time>2021-08-16T20:19:34Z</time>
      </trkpt>
      <trkpt lat="44.73798" lon="1.58778">
        <ele>312.57</ele>
        <time>2021-08-16T20:19:45Z</time>
      </trkpt>
      <trkpt lat="44.73779" lon="1.58786">
        <ele>314.01</ele>
        <time>2021-08-16T20:19:55Z</time>
      </trkpt>
      <trkpt lat="44.73762" lon="1.58794">
        <ele>314.49</ele>
        <time>2021-08-16T20:20:04Z</time>
      </trkpt>
      <trkpt lat="44.73745" lon="1.58802">
        <ele>314.49</ele>
        <time>2021-08-16T20:20:12Z</time>
      </trkpt>
      <trkpt lat="44.73732" lon="1.58808">
        <ele>314.97</ele>
        <time>2021-08-16T20:20:19Z</time>
      </trkpt>
      <trkpt lat="44.73708" lon="1.58821">
        <ele>315.45</ele>
        <time>2021-08-16T20:20:29Z</time>
      </trkpt>
      <trkpt lat="44.7369" lon="1.58836">
        <ele>315.45</ele>
        <time>2021-08-16T20:20:38Z</time>
      </trkpt>
      <trkpt lat="44.73672" lon="1.58852">
        <ele>315.93</ele>
        <time>2021-08-16T20:20:46Z</time>
      </trkpt>
      <trkpt lat="44.73653" lon="1.58873">
        <ele>315.93</ele>
        <time>2021-08-16T20:20:55Z</time>
      </trkpt>
      <trkpt lat="44.73633" lon="1.58896">
        <ele>315.93</ele>
        <time>2021-08-16T20:21:05Z</time>
      </trkpt>
      <trkpt lat="44.73616" lon="1.58914">
        <ele>315.93</ele>
        <time>2021-08-16T20:21:12Z</time>
      </trkpt>
      <trkpt lat="44.73596" lon="1.58932">
        <ele>315.93</ele>
        <time>2021-08-16T20:21:19Z</time>
      </trkpt>
      <trkpt lat="44.73563" lon="1.58963">
        <ele>314.97</ele>
        <time>2021-08-16T20:21:29Z</time>
      </trkpt>
      <trkpt lat="44.73536" lon="1.58994">
        <ele>313.05</ele>
        <time>2021-08-16T20:21:36Z</time>
      </trkpt>
      <trkpt lat="44.73515" lon="1.59031">
        <ele>312.09</ele>
        <time>2021-08-16T20:21:42Z</time>
      </trkpt>
      <trkpt lat="44.73512" lon="1.59038">
        <ele>312.09</ele>
        <time>2021-08-16T20:21:43Z</time>
      </trkpt>
      <trkpt lat="44.73491" lon="1.59086">
        <ele>312.09</ele>
        <time>2021-08-16T20:21:51Z</time>
      </trkpt>
      <trkpt lat="44.7346" lon="1.59133">
        <ele>310.64</ele>
        <time>2021-08-16T20:22:00Z</time>
      </trkpt>
      <trkpt lat="44.73418" lon="1.59181">
        <ele>309.2</ele>
        <time>2021-08-16T20:22:10Z</time>
      </trkpt>
      <trkpt lat="44.73385" lon="1.5922">
        <ele>308.72</ele>
        <time>2021-08-16T20:22:18Z</time>
      </trkpt>
      <trkpt lat="44.73348" lon="1.59257">
        <ele>305.36</ele>
        <time>2021-08-16T20:22:25Z</time>
      </trkpt>
      <trkpt lat="44.73301" lon="1.59304">
        <ele>302.95</ele>
        <time>2021-08-16T20:22:34Z</time>
      </trkpt>
      <trkpt lat="44.73255" lon="1.5936">
        <ele>300.07</ele>
        <time>2021-08-16T20:22:43Z</time>
      </trkpt>
      <trkpt lat="44.73235" lon="1.59393">
        <ele>298.63</ele>
        <time>2021-08-16T20:22:47Z</time>
      </trkpt>
      <trkpt lat="44.7323" lon="1.59401">
        <ele>298.63</ele>
        <time>2021-08-16T20:22:48Z</time>
      </trkpt>
      <trkpt lat="44.7319" lon="1.59471">
        <ele>295.74</ele>
        <time>2021-08-16T20:22:56Z</time>
      </trkpt>
      <trkpt lat="44.7317" lon="1.59499">
        <ele>293.82</ele>
        <time>2021-08-16T20:23:01Z</time>
      </trkpt>
      <trkpt lat="44.73156" lon="1.59519">
        <ele>292.86</ele>
        <time>2021-08-16T20:23:07Z</time>
      </trkpt>
      <trkpt lat="44.73153" lon="1.59523">
        <ele>292.86</ele>
        <time>2021-08-16T20:23:10Z</time>
      </trkpt>
      <trkpt lat="44.73151" lon="1.59522">
        <ele>292.38</ele>
        <time>2021-08-16T20:23:11Z</time>
      </trkpt>
      <trkpt lat="44.7315" lon="1.5952">
        <ele>292.38</ele>
        <time>2021-08-16T20:23:12Z</time>
      </trkpt>
      <trkpt lat="44.73151" lon="1.59517">
        <ele>291.9</ele>
        <time>2021-08-16T20:23:13Z</time>
      </trkpt>
      <trkpt lat="44.73151" lon="1.59513">
        <ele>291.9</ele>
        <time>2021-08-16T20:23:14Z</time>
      </trkpt>
      <trkpt lat="44.73151" lon="1.59509">
        <ele>291.42</ele>
        <time>2021-08-16T20:23:15Z</time>
      </trkpt>
      <trkpt lat="44.7315" lon="1.59505">
        <ele>290.94</ele>
        <time>2021-08-16T20:23:16Z</time>
      </trkpt>
      <trkpt lat="44.7315" lon="1.59501">
        <ele>290.94</ele>
        <time>2021-08-16T20:23:17Z</time>
      </trkpt>
      <trkpt lat="44.73148" lon="1.59498">
        <ele>290.46</ele>
        <time>2021-08-16T20:23:18Z</time>
      </trkpt>
      <trkpt lat="44.73143" lon="1.59472">
        <ele>290.46</ele>
        <time>2021-08-16T20:23:25Z</time>
      </trkpt>
      <trkpt lat="44.73148" lon="1.59452">
        <ele>290.46</ele>
        <time>2021-08-16T20:23:31Z</time>
      </trkpt>
      <trkpt lat="44.7315" lon="1.59428">
        <ele>291.9</ele>
        <time>2021-08-16T20:23:38Z</time>
      </trkpt>
      <trkpt lat="44.73151" lon="1.59399">
        <ele>291.9</ele>
        <time>2021-08-16T20:23:46Z</time>
      </trkpt>
      <trkpt lat="44.73153" lon="1.59376">
        <ele>291.9</ele>
        <time>2021-08-16T20:23:53Z</time>
      </trkpt>
      <trkpt lat="44.73158" lon="1.59347">
        <ele>291.9</ele>
        <time>2021-08-16T20:24:01Z</time>
      </trkpt>
      <trkpt lat="44.73165" lon="1.59319">
        <ele>290.46</ele>
        <time>2021-08-16T20:24:07Z</time>
      </trkpt>
      <trkpt lat="44.73168" lon="1.59289">
        <ele>290.46</ele>
        <time>2021-08-16T20:24:14Z</time>
      </trkpt>
      <trkpt lat="44.73171" lon="1.59257">
        <ele>291.9</ele>
        <time>2021-08-16T20:24:21Z</time>
      </trkpt>
      <trkpt lat="44.73171" lon="1.59253">
        <ele>291.9</ele>
        <time>2021-08-16T20:24:22Z</time>
      </trkpt>
      <trkpt lat="44.73173" lon="1.59234">
        <ele>293.82</ele>
        <time>2021-08-16T20:24:28Z</time>
      </trkpt>
      <trkpt lat="44.73173" lon="1.59212">
        <ele>295.26</ele>
        <time>2021-08-16T20:24:36Z</time>
      </trkpt>
      <trkpt lat="44.73177" lon="1.59191">
        <ele>295.74</ele>
        <time>2021-08-16T20:24:44Z</time>
      </trkpt>
      <trkpt lat="44.73189" lon="1.59164">
        <ele>295.74</ele>
        <time>2021-08-16T20:24:53Z</time>
      </trkpt>
      <trkpt lat="44.73205" lon="1.5913">
        <ele>295.74</ele>
        <time>2021-08-16T20:25:03Z</time>
      </trkpt>
      <trkpt lat="44.73217" lon="1.591">
        <ele>294.3</ele>
        <time>2021-08-16T20:25:11Z</time>
      </trkpt>
      <trkpt lat="44.73222" lon="1.59071">
        <ele>293.82</ele>
        <time>2021-08-16T20:25:19Z</time>
      </trkpt>
      <trkpt lat="44.73225" lon="1.59048">
        <ele>293.34</ele>
        <time>2021-08-16T20:25:25Z</time>
      </trkpt>
      <trkpt lat="44.73222" lon="1.59024">
        <ele>292.86</ele>
        <time>2021-08-16T20:25:32Z</time>
      </trkpt>
      <trkpt lat="44.73222" lon="1.59022">
        <ele>292.86</ele>
        <time>2021-08-16T20:25:40Z</time>
      </trkpt>
      <trkpt lat="44.73222" lon="1.59016">
        <ele>292.86</ele>
        <time>2021-08-16T20:25:48Z</time>
      </trkpt>
      <trkpt lat="44.73221" lon="1.59015">
        <ele>292.86</ele>
        <time>2021-08-16T20:25:54Z</time>
      </trkpt>
      <trkpt lat="44.73219" lon="1.59014">
        <ele>292.86</ele>
        <time>2021-08-16T20:26:12Z</time>
      </trkpt>
      <trkpt lat="44.73218" lon="1.59014">
        <ele>292.86</ele>
        <time>2021-08-16T20:26:13Z</time>
      </trkpt>
      <trkpt lat="44.73217" lon="1.59014">
        <ele>292.86</ele>
        <time>2021-08-16T20:26:14Z</time>
      </trkpt>
      <trkpt lat="44.73214" lon="1.59015">
        <ele>292.86</ele>
        <time>2021-08-16T20:26:20Z</time>
      </trkpt>
      <trkpt lat="44.73209" lon="1.59016">
        <ele>292.86</ele>
        <time>2021-08-16T20:26:25Z</time>
      </trkpt>
      <trkpt lat="44.73203" lon="1.59018">
        <ele>293.82</ele>
        <time>2021-08-16T20:26:29Z</time>
      </trkpt>
      <trkpt lat="44.732" lon="1.59018">
        <ele>293.82</ele>
        <time>2021-08-16T20:26:30Z</time>
      </trkpt>
      <trkpt lat="44.73188" lon="1.59023">
        <ele>295.26</ele>
        <time>2021-08-16T20:26:37Z</time>
      </trkpt>
      <trkpt lat="44.73177" lon="1.5903">
        <ele>295.74</ele>
        <time>2021-08-16T20:26:44Z</time>
      </trkpt>
      <trkpt lat="44.7316" lon="1.5904">
        <ele>296.7</ele>
        <time>2021-08-16T20:26:55Z</time>
      </trkpt>
      <trkpt lat="44.73145" lon="1.59048">
        <ele>298.15</ele>
        <time>2021-08-16T20:27:05Z</time>
      </trkpt>
      <trkpt lat="44.73136" lon="1.59054">
        <ele>299.11</ele>
        <time>2021-08-16T20:27:12Z</time>
      </trkpt>
      <trkpt lat="44.73134" lon="1.59054">
        <ele>299.11</ele>
        <time>2021-08-16T20:27:13Z</time>
      </trkpt>
      <trkpt lat="44.73119" lon="1.59061">
        <ele>299.59</ele>
        <time>2021-08-16T20:27:23Z</time>
      </trkpt>
      <trkpt lat="44.73102" lon="1.59067">
        <ele>301.03</ele>
        <time>2021-08-16T20:27:33Z</time>
      </trkpt>
      <trkpt lat="44.73085" lon="1.59075">
        <ele>301.99</ele>
        <time>2021-08-16T20:27:43Z</time>
      </trkpt>
      <trkpt lat="44.73068" lon="1.59081">
        <ele>303.43</ele>
        <time>2021-08-16T20:27:53Z</time>
      </trkpt>
      <trkpt lat="44.73053" lon="1.59088">
        <ele>304.88</ele>
        <time>2021-08-16T20:28:03Z</time>
      </trkpt>
      <trkpt lat="44.73046" lon="1.59091">
        <ele>305.36</ele>
        <time>2021-08-16T20:28:08Z</time>
      </trkpt>
      <trkpt lat="44.73045" lon="1.59092">
        <ele>305.36</ele>
        <time>2021-08-16T20:28:09Z</time>
      </trkpt>
      <trkpt lat="44.73044" lon="1.59093">
        <ele>305.84</ele>
        <time>2021-08-16T20:28:10Z</time>
      </trkpt>
      <trkpt lat="44.73042" lon="1.59093">
        <ele>305.84</ele>
        <time>2021-08-16T20:28:11Z</time>
      </trkpt>
      <trkpt lat="44.73041" lon="1.59094">
        <ele>305.84</ele>
        <time>2021-08-16T20:28:12Z</time>
      </trkpt>
      <trkpt lat="44.7304" lon="1.59095">
        <ele>305.84</ele>
        <time>2021-08-16T20:28:13Z</time>
      </trkpt>
      <trkpt lat="44.73031" lon="1.591">
        <ele>307.28</ele>
        <time>2021-08-16T20:28:21Z</time>
      </trkpt>
      <trkpt lat="44.73024" lon="1.59103">
        <ele>308.24</ele>
        <time>2021-08-16T20:28:28Z</time>
      </trkpt>
      <trkpt lat="44.73016" lon="1.59107">
        <ele>309.68</ele>
        <time>2021-08-16T20:28:37Z</time>
      </trkpt>
      <trkpt lat="44.73008" lon="1.59109">
        <ele>310.64</ele>
        <time>2021-08-16T20:28:46Z</time>
      </trkpt>
      <trkpt lat="44.72999" lon="1.59112">
        <ele>311.6</ele>
        <time>2021-08-16T20:28:56Z</time>
      </trkpt>
      <trkpt lat="44.7299" lon="1.59115">
        <ele>313.05</ele>
        <time>2021-08-16T20:29:06Z</time>
      </trkpt>
      <trkpt lat="44.72983" lon="1.59118">
        <ele>314.01</ele>
        <time>2021-08-16T20:29:16Z</time>
      </trkpt>
      <trkpt lat="44.72975" lon="1.59121">
        <ele>315.45</ele>
        <time>2021-08-16T20:29:26Z</time>
      </trkpt>
      <trkpt lat="44.72969" lon="1.59123">
        <ele>316.41</ele>
        <time>2021-08-16T20:29:33Z</time>
      </trkpt>
      <trkpt lat="44.7296" lon="1.59127">
        <ele>317.37</ele>
        <time>2021-08-16T20:29:43Z</time>
      </trkpt>
      <trkpt lat="44.72956" lon="1.59128">
        <ele>317.85</ele>
        <time>2021-08-16T20:29:47Z</time>
      </trkpt>
      <trkpt lat="44.72948" lon="1.59133">
        <ele>318.81</ele>
        <time>2021-08-16T20:29:56Z</time>
      </trkpt>
      <trkpt lat="44.72946" lon="1.59134">
        <ele>319.3</ele>
        <time>2021-08-16T20:30:03Z</time>
      </trkpt>
      <trkpt lat="44.72945" lon="1.59135">
        <ele>319.3</ele>
        <time>2021-08-16T20:30:05Z</time>
      </trkpt>
      <trkpt lat="44.72943" lon="1.59135">
        <ele>319.3</ele>
        <time>2021-08-16T20:30:06Z</time>
      </trkpt>
      <trkpt lat="44.72942" lon="1.59135">
        <ele>319.78</ele>
        <time>2021-08-16T20:30:07Z</time>
      </trkpt>
      <trkpt lat="44.72932" lon="1.5914">
        <ele>320.74</ele>
        <time>2021-08-16T20:30:16Z</time>
      </trkpt>
      <trkpt lat="44.72926" lon="1.59143">
        <ele>321.22</ele>
        <time>2021-08-16T20:30:21Z</time>
      </trkpt>
      <trkpt lat="44.72917" lon="1.59149">
        <ele>322.66</ele>
        <time>2021-08-16T20:30:29Z</time>
      </trkpt>
      <trkpt lat="44.72914" lon="1.59151">
        <ele>323.14</ele>
        <time>2021-08-16T20:30:32Z</time>
      </trkpt>
      <trkpt lat="44.72913" lon="1.59152">
        <ele>323.14</ele>
        <time>2021-08-16T20:30:33Z</time>
      </trkpt>
      <trkpt lat="44.72911" lon="1.59152">
        <ele>323.62</ele>
        <time>2021-08-16T20:30:34Z</time>
      </trkpt>
      <trkpt lat="44.7291" lon="1.59153">
        <ele>323.62</ele>
        <time>2021-08-16T20:30:35Z</time>
      </trkpt>
      <trkpt lat="44.72909" lon="1.59153">
        <ele>323.62</ele>
        <time>2021-08-16T20:30:36Z</time>
      </trkpt>
      <trkpt lat="44.729" lon="1.59158">
        <ele>324.58</ele>
        <time>2021-08-16T20:30:44Z</time>
      </trkpt>
      <trkpt lat="44.72899" lon="1.59159">
        <ele>324.58</ele>
        <time>2021-08-16T20:30:45Z</time>
      </trkpt>
      <trkpt lat="44.72898" lon="1.5916">
        <ele>324.58</ele>
        <time>2021-08-16T20:30:46Z</time>
      </trkpt>
      <trkpt lat="44.72896" lon="1.5916">
        <ele>325.06</ele>
        <time>2021-08-16T20:30:47Z</time>
      </trkpt>
      <trkpt lat="44.72895" lon="1.59161">
        <ele>325.06</ele>
        <time>2021-08-16T20:30:48Z</time>
      </trkpt>
      <trkpt lat="44.72894" lon="1.59161">
        <ele>325.54</ele>
        <time>2021-08-16T20:30:49Z</time>
      </trkpt>
      <trkpt lat="44.72893" lon="1.59161">
        <ele>325.54</ele>
        <time>2021-08-16T20:30:50Z</time>
      </trkpt>
      <trkpt lat="44.72891" lon="1.59162">
        <ele>325.54</ele>
        <time>2021-08-16T20:30:51Z</time>
      </trkpt>
      <trkpt lat="44.7289" lon="1.59162">
        <ele>325.54</ele>
        <time>2021-08-16T20:30:52Z</time>
      </trkpt>
      <trkpt lat="44.7288" lon="1.59166">
        <ele>326.99</ele>
        <time>2021-08-16T20:31:00Z</time>
      </trkpt>
      <trkpt lat="44.7287" lon="1.59169">
        <ele>327.47</ele>
        <time>2021-08-16T20:31:08Z</time>
      </trkpt>
      <trkpt lat="44.72862" lon="1.59172">
        <ele>328.43</ele>
        <time>2021-08-16T20:31:15Z</time>
      </trkpt>
      <trkpt lat="44.7285" lon="1.59175">
        <ele>328.91</ele>
        <time>2021-08-16T20:31:24Z</time>
      </trkpt>
      <trkpt lat="44.72844" lon="1.59174">
        <ele>329.87</ele>
        <time>2021-08-16T20:31:31Z</time>
      </trkpt>
      <trkpt lat="44.72842" lon="1.59174">
        <ele>330.35</ele>
        <time>2021-08-16T20:31:32Z</time>
      </trkpt>
      <trkpt lat="44.72841" lon="1.59173">
        <ele>330.35</ele>
        <time>2021-08-16T20:31:33Z</time>
      </trkpt>
      <trkpt lat="44.72839" lon="1.59171">
        <ele>330.83</ele>
        <time>2021-08-16T20:31:35Z</time>
      </trkpt>
      <trkpt lat="44.72837" lon="1.59168">
        <ele>330.83</ele>
        <time>2021-08-16T20:31:37Z</time>
      </trkpt>
      <trkpt lat="44.72832" lon="1.59165">
        <ele>331.31</ele>
        <time>2021-08-16T20:31:40Z</time>
      </trkpt>
      <trkpt lat="44.72828" lon="1.59162">
        <ele>331.79</ele>
        <time>2021-08-16T20:31:47Z</time>
      </trkpt>
      <trkpt lat="44.72827" lon="1.59163">
        <ele>331.79</ele>
        <time>2021-08-16T20:31:57Z</time>
      </trkpt>
      <trkpt lat="44.72823" lon="1.5916">
        <ele>332.27</ele>
        <time>2021-08-16T20:32:08Z</time>
      </trkpt>
      <trkpt lat="44.72815" lon="1.59152">
        <ele>333.71</ele>
        <time>2021-08-16T20:32:18Z</time>
      </trkpt>
      <trkpt lat="44.72806" lon="1.59143">
        <ele>334.68</ele>
        <time>2021-08-16T20:32:29Z</time>
      </trkpt>
      <trkpt lat="44.72797" lon="1.59135">
        <ele>335.64</ele>
        <time>2021-08-16T20:32:39Z</time>
      </trkpt>
      <trkpt lat="44.72788" lon="1.59126">
        <ele>337.08</ele>
        <time>2021-08-16T20:32:51Z</time>
      </trkpt>
      <trkpt lat="44.72781" lon="1.59116">
        <ele>338.52</ele>
        <time>2021-08-16T20:33:01Z</time>
      </trkpt>
      <trkpt lat="44.72775" lon="1.59107">
        <ele>339.48</ele>
        <time>2021-08-16T20:33:12Z</time>
      </trkpt>
      <trkpt lat="44.72772" lon="1.59102">
        <ele>339.96</ele>
        <time>2021-08-16T20:33:21Z</time>
      </trkpt>
      <trkpt lat="44.72765" lon="1.59094">
        <ele>340.44</ele>
        <time>2021-08-16T20:33:28Z</time>
      </trkpt>
      <trkpt lat="44.72758" lon="1.59084">
        <ele>341.41</ele>
        <time>2021-08-16T20:33:36Z</time>
      </trkpt>
      <trkpt lat="44.72747" lon="1.59076">
        <ele>342.85</ele>
        <time>2021-08-16T20:33:45Z</time>
      </trkpt>
      <trkpt lat="44.72739" lon="1.59073">
        <ele>343.81</ele>
        <time>2021-08-16T20:33:51Z</time>
      </trkpt>
      <trkpt lat="44.72738" lon="1.59073">
        <ele>343.81</ele>
        <time>2021-08-16T20:33:52Z</time>
      </trkpt>
      <trkpt lat="44.72737" lon="1.59072">
        <ele>343.81</ele>
        <time>2021-08-16T20:33:53Z</time>
      </trkpt>
      <trkpt lat="44.72736" lon="1.59072">
        <ele>343.81</ele>
        <time>2021-08-16T20:33:54Z</time>
      </trkpt>
      <trkpt lat="44.72735" lon="1.59072">
        <ele>343.81</ele>
        <time>2021-08-16T20:33:55Z</time>
      </trkpt>
      <trkpt lat="44.72729" lon="1.59072">
        <ele>344.77</ele>
        <time>2021-08-16T20:34:00Z</time>
      </trkpt>
      <trkpt lat="44.72722" lon="1.59068">
        <ele>345.73</ele>
        <time>2021-08-16T20:34:06Z</time>
      </trkpt>
      <trkpt lat="44.72721" lon="1.59067">
        <ele>345.73</ele>
        <time>2021-08-16T20:34:07Z</time>
      </trkpt>
      <trkpt lat="44.72716" lon="1.59065">
        <ele>346.69</ele>
        <time>2021-08-16T20:34:13Z</time>
      </trkpt>
      <trkpt lat="44.72716" lon="1.59064">
        <ele>346.69</ele>
        <time>2021-08-16T20:34:33Z</time>
      </trkpt>
      <trkpt lat="44.72712" lon="1.59062">
        <ele>346.69</ele>
        <time>2021-08-16T20:34:38Z</time>
      </trkpt>
      <trkpt lat="44.72701" lon="1.59058">
        <ele>348.62</ele>
        <time>2021-08-16T20:34:49Z</time>
      </trkpt>
      <trkpt lat="44.72692" lon="1.59055">
        <ele>350.06</ele>
        <time>2021-08-16T20:34:59Z</time>
      </trkpt>
      <trkpt lat="44.72685" lon="1.59055">
        <ele>350.54</ele>
        <time>2021-08-16T20:35:07Z</time>
      </trkpt>
      <trkpt lat="44.72676" lon="1.59053">
        <ele>351.5</ele>
        <time>2021-08-16T20:35:17Z</time>
      </trkpt>
      <trkpt lat="44.72667" lon="1.59052">
        <ele>353.42</ele>
        <time>2021-08-16T20:35:27Z</time>
      </trkpt>
      <trkpt lat="44.72661" lon="1.59051">
        <ele>353.9</ele>
        <time>2021-08-16T20:35:34Z</time>
      </trkpt>
      <trkpt lat="44.72652" lon="1.59049">
        <ele>354.86</ele>
        <time>2021-08-16T20:35:44Z</time>
      </trkpt>
      <trkpt lat="44.72648" lon="1.59049">
        <ele>354.86</ele>
        <time>2021-08-16T20:35:51Z</time>
      </trkpt>
      <trkpt lat="44.72637" lon="1.59052">
        <ele>355.83</ele>
        <time>2021-08-16T20:35:58Z</time>
      </trkpt>
      <trkpt lat="44.7262" lon="1.59055">
        <ele>356.79</ele>
        <time>2021-08-16T20:36:09Z</time>
      </trkpt>
      <trkpt lat="44.72604" lon="1.59055">
        <ele>358.23</ele>
        <time>2021-08-16T20:36:19Z</time>
      </trkpt>
      <trkpt lat="44.72587" lon="1.59053">
        <ele>359.19</ele>
        <time>2021-08-16T20:36:29Z</time>
      </trkpt>
      <trkpt lat="44.72574" lon="1.59052">
        <ele>359.67</ele>
        <time>2021-08-16T20:36:36Z</time>
      </trkpt>
      <trkpt lat="44.72558" lon="1.59047">
        <ele>360.15</ele>
        <time>2021-08-16T20:36:44Z</time>
      </trkpt>
      <trkpt lat="44.7254" lon="1.59042">
        <ele>360.63</ele>
        <time>2021-08-16T20:36:53Z</time>
      </trkpt>
      <trkpt lat="44.72519" lon="1.59035">
        <ele>361.59</ele>
        <time>2021-08-16T20:37:02Z</time>
      </trkpt>
      <trkpt lat="44.72499" lon="1.5903">
        <ele>362.07</ele>
        <time>2021-08-16T20:37:11Z</time>
      </trkpt>
      <trkpt lat="44.72476" lon="1.59026">
        <ele>362.07</ele>
        <time>2021-08-16T20:37:20Z</time>
      </trkpt>
      <trkpt lat="44.72451" lon="1.59031">
        <ele>362.07</ele>
        <time>2021-08-16T20:37:28Z</time>
      </trkpt>
      <trkpt lat="44.72423" lon="1.59036">
        <ele>362.07</ele>
        <time>2021-08-16T20:37:37Z</time>
      </trkpt>
      <trkpt lat="44.72404" lon="1.5904">
        <ele>362.07</ele>
        <time>2021-08-16T20:37:44Z</time>
      </trkpt>
      <trkpt lat="44.72395" lon="1.59041">
        <ele>362.07</ele>
        <time>2021-08-16T20:37:50Z</time>
      </trkpt>
      <trkpt lat="44.72395" lon="1.59041">
        <ele>362.07</ele>
        <time>2021-08-16T20:37:57Z</time>
      </trkpt>
      <trkpt lat="44.72396" lon="1.59043">
        <ele>362.55</ele>
        <time>2021-08-16T20:38:09Z</time>
      </trkpt>
      <trkpt lat="44.72394" lon="1.59045">
        <ele>362.55</ele>
        <time>2021-08-16T20:38:24Z</time>
      </trkpt>
      <trkpt lat="44.72393" lon="1.59045">
        <ele>362.55</ele>
        <time>2021-08-16T20:38:35Z</time>
      </trkpt>
      <trkpt lat="44.72391" lon="1.59044">
        <ele>363.04</ele>
        <time>2021-08-16T20:38:43Z</time>
      </trkpt>
      <trkpt lat="44.72388" lon="1.59042">
        <ele>363.04</ele>
        <time>2021-08-16T20:38:48Z</time>
      </trkpt>
      <trkpt lat="44.72383" lon="1.59038">
        <ele>363.04</ele>
        <time>2021-08-16T20:38:54Z</time>
      </trkpt>
      <trkpt lat="44.72372" lon="1.59028">
        <ele>363.04</ele>
        <time>2021-08-16T20:39:00Z</time>
      </trkpt>
      <trkpt lat="44.72358" lon="1.59012">
        <ele>363.52</ele>
        <time>2021-08-16T20:39:07Z</time>
      </trkpt>
      <trkpt lat="44.72334" lon="1.58989">
        <ele>361.59</ele>
        <time>2021-08-16T20:39:15Z</time>
      </trkpt>
      <trkpt lat="44.72305" lon="1.58958">
        <ele>359.19</ele>
        <time>2021-08-16T20:39:22Z</time>
      </trkpt>
      <trkpt lat="44.72278" lon="1.58927">
        <ele>359.19</ele>
        <time>2021-08-16T20:39:29Z</time>
      </trkpt>
      <trkpt lat="44.72277" lon="1.58922">
        <ele>359.19</ele>
        <time>2021-08-16T20:39:30Z</time>
      </trkpt>
      <trkpt lat="44.72277" lon="1.58917">
        <ele>358.71</ele>
        <time>2021-08-16T20:39:31Z</time>
      </trkpt>
      <trkpt lat="44.72278" lon="1.58913">
        <ele>359.19</ele>
        <time>2021-08-16T20:39:32Z</time>
      </trkpt>
      <trkpt lat="44.72279" lon="1.58909">
        <ele>359.19</ele>
        <time>2021-08-16T20:39:33Z</time>
      </trkpt>
      <trkpt lat="44.72296" lon="1.58872">
        <ele>358.23</ele>
        <time>2021-08-16T20:39:41Z</time>
      </trkpt>
      <trkpt lat="44.72321" lon="1.58813">
        <ele>356.79</ele>
        <time>2021-08-16T20:39:51Z</time>
      </trkpt>
      <trkpt lat="44.72327" lon="1.58795">
        <ele>356.79</ele>
        <time>2021-08-16T20:39:55Z</time>
      </trkpt>
      <trkpt lat="44.72326" lon="1.58793">
        <ele>355.83</ele>
        <time>2021-08-16T20:39:56Z</time>
      </trkpt>
      <trkpt lat="44.72325" lon="1.58791">
        <ele>355.83</ele>
        <time>2021-08-16T20:39:57Z</time>
      </trkpt>
      <trkpt lat="44.72311" lon="1.58786">
        <ele>354.86</ele>
        <time>2021-08-16T20:40:02Z</time>
      </trkpt>
      <trkpt lat="44.72284" lon="1.58776">
        <ele>352.46</ele>
        <time>2021-08-16T20:40:08Z</time>
      </trkpt>
      <trkpt lat="44.72263" lon="1.58767">
        <ele>349.1</ele>
        <time>2021-08-16T20:40:12Z</time>
      </trkpt>
      <trkpt lat="44.72257" lon="1.58765">
        <ele>349.1</ele>
        <time>2021-08-16T20:40:13Z</time>
      </trkpt>
      <trkpt lat="44.72249" lon="1.58761">
        <ele>348.13</ele>
        <time>2021-08-16T20:40:15Z</time>
      </trkpt>
      <trkpt lat="44.72234" lon="1.58755">
        <ele>345.25</ele>
        <time>2021-08-16T20:40:19Z</time>
      </trkpt>
      <trkpt lat="44.72229" lon="1.58754">
        <ele>344.29</ele>
        <time>2021-08-16T20:40:20Z</time>
      </trkpt>
      <trkpt lat="44.72209" lon="1.58749">
        <ele>339.96</ele>
        <time>2021-08-16T20:40:24Z</time>
      </trkpt>
      <trkpt lat="44.72195" lon="1.58746">
        <ele>337.08</ele>
        <time>2021-08-16T20:40:27Z</time>
      </trkpt>
      <trkpt lat="44.72186" lon="1.58746">
        <ele>335.64</ele>
        <time>2021-08-16T20:40:29Z</time>
      </trkpt>
      <trkpt lat="44.72177" lon="1.58743">
        <ele>333.71</ele>
        <time>2021-08-16T20:40:31Z</time>
      </trkpt>
      <trkpt lat="44.72172" lon="1.58743">
        <ele>332.75</ele>
        <time>2021-08-16T20:40:32Z</time>
      </trkpt>
      <trkpt lat="44.7216" lon="1.58743">
        <ele>330.83</ele>
        <time>2021-08-16T20:40:34Z</time>
      </trkpt>
      <trkpt lat="44.72144" lon="1.58743">
        <ele>327.95</ele>
        <time>2021-08-16T20:40:37Z</time>
      </trkpt>
      <trkpt lat="44.72139" lon="1.58741">
        <ele>327.95</ele>
        <time>2021-08-16T20:40:38Z</time>
      </trkpt>
      <trkpt lat="44.72134" lon="1.5874">
        <ele>327.47</ele>
        <time>2021-08-16T20:40:39Z</time>
      </trkpt>
      <trkpt lat="44.72131" lon="1.58738">
        <ele>326.99</ele>
        <time>2021-08-16T20:40:40Z</time>
      </trkpt>
      <trkpt lat="44.72128" lon="1.58737">
        <ele>326.5</ele>
        <time>2021-08-16T20:40:41Z</time>
      </trkpt>
      <trkpt lat="44.72127" lon="1.58734">
        <ele>326.5</ele>
        <time>2021-08-16T20:40:42Z</time>
      </trkpt>
      <trkpt lat="44.72126" lon="1.58732">
        <ele>326.5</ele>
        <time>2021-08-16T20:40:43Z</time>
      </trkpt>
      <trkpt lat="44.7212" lon="1.5871">
        <ele>324.58</ele>
        <time>2021-08-16T20:40:47Z</time>
      </trkpt>
      <trkpt lat="44.72119" lon="1.58703">
        <ele>324.1</ele>
        <time>2021-08-16T20:40:48Z</time>
      </trkpt>
      <trkpt lat="44.72109" lon="1.58654">
        <ele>320.74</ele>
        <time>2021-08-16T20:40:54Z</time>
      </trkpt>
      <trkpt lat="44.72104" lon="1.5862">
        <ele>319.78</ele>
        <time>2021-08-16T20:40:58Z</time>
      </trkpt>
      <trkpt lat="44.72102" lon="1.58613">
        <ele>319.3</ele>
        <time>2021-08-16T20:40:59Z</time>
      </trkpt>
      <trkpt lat="44.72099" lon="1.58608">
        <ele>319.3</ele>
        <time>2021-08-16T20:41:00Z</time>
      </trkpt>
      <trkpt lat="44.72097" lon="1.58603">
        <ele>318.81</ele>
        <time>2021-08-16T20:41:01Z</time>
      </trkpt>
      <trkpt lat="44.72094" lon="1.58597">
        <ele>318.81</ele>
        <time>2021-08-16T20:41:02Z</time>
      </trkpt>
      <trkpt lat="44.72092" lon="1.58592">
        <ele>317.85</ele>
        <time>2021-08-16T20:41:03Z</time>
      </trkpt>
      <trkpt lat="44.72088" lon="1.58586">
        <ele>317.85</ele>
        <time>2021-08-16T20:41:04Z</time>
      </trkpt>
      <trkpt lat="44.72077" lon="1.58572">
        <ele>316.89</ele>
        <time>2021-08-16T20:41:07Z</time>
      </trkpt>
      <trkpt lat="44.72067" lon="1.58563">
        <ele>315.93</ele>
        <time>2021-08-16T20:41:09Z</time>
      </trkpt>
      <trkpt lat="44.72062" lon="1.5856">
        <ele>315.45</ele>
        <time>2021-08-16T20:41:10Z</time>
      </trkpt>
      <trkpt lat="44.72056" lon="1.58557">
        <ele>314.97</ele>
        <time>2021-08-16T20:41:11Z</time>
      </trkpt>
      <trkpt lat="44.7205" lon="1.58554">
        <ele>314.49</ele>
        <time>2021-08-16T20:41:12Z</time>
      </trkpt>
      <trkpt lat="44.72044" lon="1.5855">
        <ele>314.49</ele>
        <time>2021-08-16T20:41:13Z</time>
      </trkpt>
      <trkpt lat="44.72039" lon="1.58545">
        <ele>314.01</ele>
        <time>2021-08-16T20:41:14Z</time>
      </trkpt>
      <trkpt lat="44.72034" lon="1.58539">
        <ele>313.53</ele>
        <time>2021-08-16T20:41:15Z</time>
      </trkpt>
      <trkpt lat="44.7203" lon="1.58532">
        <ele>313.05</ele>
        <time>2021-08-16T20:41:16Z</time>
      </trkpt>
      <trkpt lat="44.72022" lon="1.58518">
        <ele>312.57</ele>
        <time>2021-08-16T20:41:18Z</time>
      </trkpt>
      <trkpt lat="44.71991" lon="1.58454">
        <ele>309.2</ele>
        <time>2021-08-16T20:41:26Z</time>
      </trkpt>
      <trkpt lat="44.71983" lon="1.58438">
        <ele>308.72</ele>
        <time>2021-08-16T20:41:28Z</time>
      </trkpt>
      <trkpt lat="44.71957" lon="1.58376">
        <ele>306.32</ele>
        <time>2021-08-16T20:41:35Z</time>
      </trkpt>
      <trkpt lat="44.71938" lon="1.58344">
        <ele>304.88</ele>
        <time>2021-08-16T20:41:39Z</time>
      </trkpt>
      <trkpt lat="44.71919" lon="1.5831">
        <ele>302.95</ele>
        <time>2021-08-16T20:41:43Z</time>
      </trkpt>
      <trkpt lat="44.71879" lon="1.58256">
        <ele>300.55</ele>
        <time>2021-08-16T20:41:50Z</time>
      </trkpt>
      <trkpt lat="44.71853" lon="1.58231">
        <ele>298.63</ele>
        <time>2021-08-16T20:41:54Z</time>
      </trkpt>
      <trkpt lat="44.7184" lon="1.58218">
        <ele>298.15</ele>
        <time>2021-08-16T20:41:56Z</time>
      </trkpt>
      <trkpt lat="44.71824" lon="1.58197">
        <ele>297.18</ele>
        <time>2021-08-16T20:41:59Z</time>
      </trkpt>
      <trkpt lat="44.71821" lon="1.5819">
        <ele>297.18</ele>
        <time>2021-08-16T20:42:00Z</time>
      </trkpt>
      <trkpt lat="44.71815" lon="1.58162">
        <ele>296.22</ele>
        <time>2021-08-16T20:42:05Z</time>
      </trkpt>
      <trkpt lat="44.71814" lon="1.58145">
        <ele>295.74</ele>
        <time>2021-08-16T20:42:11Z</time>
      </trkpt>
      <trkpt lat="44.71813" lon="1.58144">
        <ele>295.74</ele>
        <time>2021-08-16T20:42:23Z</time>
      </trkpt>
      <trkpt lat="44.71814" lon="1.58134">
        <ele>295.26</ele>
        <time>2021-08-16T20:42:31Z</time>
      </trkpt>
      <trkpt lat="44.71816" lon="1.58109">
        <ele>294.78</ele>
        <time>2021-08-16T20:42:37Z</time>
      </trkpt>
      <trkpt lat="44.71815" lon="1.58076">
        <ele>294.3</ele>
        <time>2021-08-16T20:42:43Z</time>
      </trkpt>
      <trkpt lat="44.71813" lon="1.58063">
        <ele>293.34</ele>
        <time>2021-08-16T20:42:45Z</time>
      </trkpt>
      <trkpt lat="44.71812" lon="1.58055">
        <ele>292.38</ele>
        <time>2021-08-16T20:42:46Z</time>
      </trkpt>
      <trkpt lat="44.71813" lon="1.58047">
        <ele>291.9</ele>
        <time>2021-08-16T20:42:47Z</time>
      </trkpt>
      <trkpt lat="44.71814" lon="1.58037">
        <ele>290.94</ele>
        <time>2021-08-16T20:42:48Z</time>
      </trkpt>
      <trkpt lat="44.71814" lon="1.5803">
        <ele>290.46</ele>
        <time>2021-08-16T20:42:49Z</time>
      </trkpt>
      <trkpt lat="44.71816" lon="1.58022">
        <ele>290.46</ele>
        <time>2021-08-16T20:42:50Z</time>
      </trkpt>
      <trkpt lat="44.71819" lon="1.58014">
        <ele>289.49</ele>
        <time>2021-08-16T20:42:51Z</time>
      </trkpt>
      <trkpt lat="44.71823" lon="1.58006">
        <ele>289.97</ele>
        <time>2021-08-16T20:42:52Z</time>
      </trkpt>
      <trkpt lat="44.71847" lon="1.57969">
        <ele>288.53</ele>
        <time>2021-08-16T20:42:58Z</time>
      </trkpt>
      <trkpt lat="44.71864" lon="1.57933">
        <ele>288.05</ele>
        <time>2021-08-16T20:43:03Z</time>
      </trkpt>
      <trkpt lat="44.71865" lon="1.57926">
        <ele>288.05</ele>
        <time>2021-08-16T20:43:04Z</time>
      </trkpt>
      <trkpt lat="44.71867" lon="1.5792">
        <ele>288.05</ele>
        <time>2021-08-16T20:43:05Z</time>
      </trkpt>
      <trkpt lat="44.71868" lon="1.57915">
        <ele>288.05</ele>
        <time>2021-08-16T20:43:06Z</time>
      </trkpt>
      <trkpt lat="44.71868" lon="1.5791">
        <ele>288.05</ele>
        <time>2021-08-16T20:43:07Z</time>
      </trkpt>
      <trkpt lat="44.71868" lon="1.57907">
        <ele>289.49</ele>
        <time>2021-08-16T20:43:08Z</time>
      </trkpt>
      <trkpt lat="44.71868" lon="1.57904">
        <ele>289.49</ele>
        <time>2021-08-16T20:43:09Z</time>
      </trkpt>
      <trkpt lat="44.71868" lon="1.57884">
        <ele>290.46</ele>
        <time>2021-08-16T20:43:17Z</time>
      </trkpt>
      <trkpt lat="44.71869" lon="1.57881">
        <ele>290.46</ele>
        <time>2021-08-16T20:43:18Z</time>
      </trkpt>
      <trkpt lat="44.71866" lon="1.57865">
        <ele>291.9</ele>
        <time>2021-08-16T20:43:26Z</time>
      </trkpt>
      <trkpt lat="44.71863" lon="1.57857">
        <ele>292.86</ele>
        <time>2021-08-16T20:43:33Z</time>
      </trkpt>
      <trkpt lat="44.71857" lon="1.57851">
        <ele>294.3</ele>
        <time>2021-08-16T20:43:43Z</time>
      </trkpt>
      <trkpt lat="44.71854" lon="1.57848">
        <ele>294.3</ele>
        <time>2021-08-16T20:43:47Z</time>
      </trkpt>
      <trkpt lat="44.71847" lon="1.57845">
        <ele>295.26</ele>
        <time>2021-08-16T20:43:54Z</time>
      </trkpt>
      <trkpt lat="44.71844" lon="1.57843">
        <ele>295.26</ele>
        <time>2021-08-16T20:44:01Z</time>
      </trkpt>
      <trkpt lat="44.71834" lon="1.57836">
        <ele>295.26</ele>
        <time>2021-08-16T20:44:08Z</time>
      </trkpt>
      <trkpt lat="44.71829" lon="1.57826">
        <ele>295.74</ele>
        <time>2021-08-16T20:44:14Z</time>
      </trkpt>
      <trkpt lat="44.71826" lon="1.5782">
        <ele>296.7</ele>
        <time>2021-08-16T20:44:20Z</time>
      </trkpt>
      <trkpt lat="44.71821" lon="1.57813">
        <ele>297.67</ele>
        <time>2021-08-16T20:44:29Z</time>
      </trkpt>
      <trkpt lat="44.71815" lon="1.57806">
        <ele>299.11</ele>
        <time>2021-08-16T20:44:39Z</time>
      </trkpt>
      <trkpt lat="44.71811" lon="1.57798">
        <ele>300.55</ele>
        <time>2021-08-16T20:44:48Z</time>
      </trkpt>
      <trkpt lat="44.7181" lon="1.57785">
        <ele>301.51</ele>
        <time>2021-08-16T20:44:57Z</time>
      </trkpt>
      <trkpt lat="44.71812" lon="1.5777">
        <ele>302.95</ele>
        <time>2021-08-16T20:45:07Z</time>
      </trkpt>
      <trkpt lat="44.71815" lon="1.57758">
        <ele>304.39</ele>
        <time>2021-08-16T20:45:16Z</time>
      </trkpt>
      <trkpt lat="44.71818" lon="1.57746">
        <ele>305.36</ele>
        <time>2021-08-16T20:45:25Z</time>
      </trkpt>
      <trkpt lat="44.71822" lon="1.57735">
        <ele>305.84</ele>
        <time>2021-08-16T20:45:34Z</time>
      </trkpt>
      <trkpt lat="44.71825" lon="1.57722">
        <ele>306.8</ele>
        <time>2021-08-16T20:45:43Z</time>
      </trkpt>
      <trkpt lat="44.71828" lon="1.57714">
        <ele>307.28</ele>
        <time>2021-08-16T20:45:51Z</time>
      </trkpt>
      <trkpt lat="44.7183" lon="1.57709">
        <ele>307.28</ele>
        <time>2021-08-16T20:45:55Z</time>
      </trkpt>
      <trkpt lat="44.71831" lon="1.57708">
        <ele>307.28</ele>
        <time>2021-08-16T20:45:56Z</time>
      </trkpt>
      <trkpt lat="44.71832" lon="1.57706">
        <ele>307.28</ele>
        <time>2021-08-16T20:45:57Z</time>
      </trkpt>
      <trkpt lat="44.71834" lon="1.577">
        <ele>308.24</ele>
        <time>2021-08-16T20:46:01Z</time>
      </trkpt>
      <trkpt lat="44.71834" lon="1.57698">
        <ele>308.24</ele>
        <time>2021-08-16T20:46:02Z</time>
      </trkpt>
      <trkpt lat="44.71835" lon="1.57696">
        <ele>308.24</ele>
        <time>2021-08-16T20:46:03Z</time>
      </trkpt>
      <trkpt lat="44.71836" lon="1.57693">
        <ele>308.24</ele>
        <time>2021-08-16T20:46:04Z</time>
      </trkpt>
      <trkpt lat="44.71836" lon="1.57691">
        <ele>308.24</ele>
        <time>2021-08-16T20:46:05Z</time>
      </trkpt>
      <trkpt lat="44.71837" lon="1.57689">
        <ele>308.24</ele>
        <time>2021-08-16T20:46:06Z</time>
      </trkpt>
      <trkpt lat="44.71837" lon="1.57686">
        <ele>308.72</ele>
        <time>2021-08-16T20:46:07Z</time>
      </trkpt>
      <trkpt lat="44.71838" lon="1.57684">
        <ele>308.72</ele>
        <time>2021-08-16T20:46:08Z</time>
      </trkpt>
      <trkpt lat="44.71838" lon="1.57682">
        <ele>308.72</ele>
        <time>2021-08-16T20:46:09Z</time>
      </trkpt>
      <trkpt lat="44.71838" lon="1.5768">
        <ele>309.2</ele>
        <time>2021-08-16T20:46:10Z</time>
      </trkpt>
      <trkpt lat="44.71838" lon="1.57677">
        <ele>309.2</ele>
        <time>2021-08-16T20:46:11Z</time>
      </trkpt>
      <trkpt lat="44.71838" lon="1.57674">
        <ele>309.2</ele>
        <time>2021-08-16T20:46:12Z</time>
      </trkpt>
      <trkpt lat="44.71837" lon="1.57656">
        <ele>310.16</ele>
        <time>2021-08-16T20:46:19Z</time>
      </trkpt>
      <trkpt lat="44.71837" lon="1.57654">
        <ele>310.16</ele>
        <time>2021-08-16T20:46:20Z</time>
      </trkpt>
      <trkpt lat="44.71832" lon="1.57637">
        <ele>310.64</ele>
        <time>2021-08-16T20:46:28Z</time>
      </trkpt>
      <trkpt lat="44.7183" lon="1.57632">
        <ele>311.12</ele>
        <time>2021-08-16T20:46:31Z</time>
      </trkpt>
      <trkpt lat="44.71829" lon="1.57629">
        <ele>311.6</ele>
        <time>2021-08-16T20:46:32Z</time>
      </trkpt>
      <trkpt lat="44.71829" lon="1.57627">
        <ele>311.6</ele>
        <time>2021-08-16T20:46:33Z</time>
      </trkpt>
      <trkpt lat="44.71828" lon="1.57625">
        <ele>311.6</ele>
        <time>2021-08-16T20:46:34Z</time>
      </trkpt>
      <trkpt lat="44.71827" lon="1.57622">
        <ele>311.6</ele>
        <time>2021-08-16T20:46:35Z</time>
      </trkpt>
      <trkpt lat="44.71827" lon="1.57619">
        <ele>311.6</ele>
        <time>2021-08-16T20:46:36Z</time>
      </trkpt>
      <trkpt lat="44.71826" lon="1.57616">
        <ele>311.6</ele>
        <time>2021-08-16T20:46:37Z</time>
      </trkpt>
      <trkpt lat="44.71825" lon="1.57613">
        <ele>311.6</ele>
        <time>2021-08-16T20:46:38Z</time>
      </trkpt>
      <trkpt lat="44.71824" lon="1.5761">
        <ele>311.6</ele>
        <time>2021-08-16T20:46:39Z</time>
      </trkpt>
      <trkpt lat="44.71816" lon="1.57586">
        <ele>311.6</ele>
        <time>2021-08-16T20:46:47Z</time>
      </trkpt>
      <trkpt lat="44.71797" lon="1.5755">
        <ele>311.6</ele>
        <time>2021-08-16T20:46:57Z</time>
      </trkpt>
      <trkpt lat="44.71777" lon="1.57523">
        <ele>311.6</ele>
        <time>2021-08-16T20:47:05Z</time>
      </trkpt>
      <trkpt lat="44.71763" lon="1.5751">
        <ele>308.72</ele>
        <time>2021-08-16T20:47:09Z</time>
      </trkpt>
      <trkpt lat="44.71746" lon="1.57495">
        <ele>305.84</ele>
        <time>2021-08-16T20:47:13Z</time>
      </trkpt>
      <trkpt lat="44.71742" lon="1.57491">
        <ele>305.84</ele>
        <time>2021-08-16T20:47:14Z</time>
      </trkpt>
      <trkpt lat="44.71739" lon="1.57486">
        <ele>304.88</ele>
        <time>2021-08-16T20:47:15Z</time>
      </trkpt>
      <trkpt lat="44.71737" lon="1.5748">
        <ele>304.39</ele>
        <time>2021-08-16T20:47:16Z</time>
      </trkpt>
      <trkpt lat="44.71736" lon="1.57474">
        <ele>303.91</ele>
        <time>2021-08-16T20:47:17Z</time>
      </trkpt>
      <trkpt lat="44.71736" lon="1.5747">
        <ele>303.91</ele>
        <time>2021-08-16T20:47:18Z</time>
      </trkpt>
      <trkpt lat="44.71737" lon="1.57465">
        <ele>302.95</ele>
        <time>2021-08-16T20:47:19Z</time>
      </trkpt>
      <trkpt lat="44.71738" lon="1.57462">
        <ele>302.95</ele>
        <time>2021-08-16T20:47:20Z</time>
      </trkpt>
      <trkpt lat="44.71738" lon="1.57459">
        <ele>302.47</ele>
        <time>2021-08-16T20:47:21Z</time>
      </trkpt>
      <trkpt lat="44.71739" lon="1.57456">
        <ele>302.47</ele>
        <time>2021-08-16T20:47:22Z</time>
      </trkpt>
      <trkpt lat="44.71744" lon="1.57444">
        <ele>301.51</ele>
        <time>2021-08-16T20:47:25Z</time>
      </trkpt>
      <trkpt lat="44.71747" lon="1.57442">
        <ele>301.03</ele>
        <time>2021-08-16T20:47:26Z</time>
      </trkpt>
      <trkpt lat="44.71765" lon="1.5743">
        <ele>301.03</ele>
        <time>2021-08-16T20:47:33Z</time>
      </trkpt>
      <trkpt lat="44.71772" lon="1.57424">
        <ele>302.95</ele>
        <time>2021-08-16T20:47:39Z</time>
      </trkpt>
      <trkpt lat="44.7178" lon="1.57415">
        <ele>303.43</ele>
        <time>2021-08-16T20:47:45Z</time>
      </trkpt>
      <trkpt lat="44.71787" lon="1.57403">
        <ele>304.88</ele>
        <time>2021-08-16T20:47:54Z</time>
      </trkpt>
      <trkpt lat="44.71787" lon="1.57402">
        <ele>305.36</ele>
        <time>2021-08-16T20:47:55Z</time>
      </trkpt>
      <trkpt lat="44.71788" lon="1.5739">
        <ele>305.84</ele>
        <time>2021-08-16T20:48:02Z</time>
      </trkpt>
      <trkpt lat="44.71789" lon="1.57388">
        <ele>306.32</ele>
        <time>2021-08-16T20:48:03Z</time>
      </trkpt>
      <trkpt lat="44.7179" lon="1.57386">
        <ele>306.32</ele>
        <time>2021-08-16T20:48:04Z</time>
      </trkpt>
      <trkpt lat="44.71792" lon="1.57381">
        <ele>306.8</ele>
        <time>2021-08-16T20:48:07Z</time>
      </trkpt>
      <trkpt lat="44.71793" lon="1.57379">
        <ele>306.8</ele>
        <time>2021-08-16T20:48:08Z</time>
      </trkpt>
      <trkpt lat="44.71796" lon="1.57376">
        <ele>307.28</ele>
        <time>2021-08-16T20:48:11Z</time>
      </trkpt>
      <trkpt lat="44.71804" lon="1.57367">
        <ele>308.72</ele>
        <time>2021-08-16T20:48:20Z</time>
      </trkpt>
      <trkpt lat="44.71815" lon="1.57357">
        <ele>309.2</ele>
        <time>2021-08-16T20:48:28Z</time>
      </trkpt>
      <trkpt lat="44.71832" lon="1.57345">
        <ele>309.2</ele>
        <time>2021-08-16T20:48:35Z</time>
      </trkpt>
      <trkpt lat="44.71835" lon="1.57339">
        <ele>309.2</ele>
        <time>2021-08-16T20:48:37Z</time>
      </trkpt>
      <trkpt lat="44.71835" lon="1.57337">
        <ele>309.2</ele>
        <time>2021-08-16T20:48:38Z</time>
      </trkpt>
      <trkpt lat="44.71836" lon="1.57334">
        <ele>309.2</ele>
        <time>2021-08-16T20:48:39Z</time>
      </trkpt>
      <trkpt lat="44.71836" lon="1.57332">
        <ele>309.2</ele>
        <time>2021-08-16T20:48:40Z</time>
      </trkpt>
      <trkpt lat="44.71836" lon="1.5733">
        <ele>309.2</ele>
        <time>2021-08-16T20:48:41Z</time>
      </trkpt>
      <trkpt lat="44.71836" lon="1.57328">
        <ele>309.2</ele>
        <time>2021-08-16T20:48:42Z</time>
      </trkpt>
      <trkpt lat="44.71836" lon="1.57326">
        <ele>309.2</ele>
        <time>2021-08-16T20:48:43Z</time>
      </trkpt>
      <trkpt lat="44.71835" lon="1.57324">
        <ele>309.2</ele>
        <time>2021-08-16T20:48:44Z</time>
      </trkpt>
      <trkpt lat="44.71835" lon="1.57322">
        <ele>309.2</ele>
        <time>2021-08-16T20:48:45Z</time>
      </trkpt>
      <trkpt lat="44.71835" lon="1.57315">
        <ele>310.16</ele>
        <time>2021-08-16T20:48:49Z</time>
      </trkpt>
      <trkpt lat="44.71835" lon="1.57313">
        <ele>310.16</ele>
        <time>2021-08-16T20:48:50Z</time>
      </trkpt>
      <trkpt lat="44.71835" lon="1.57311">
        <ele>310.16</ele>
        <time>2021-08-16T20:48:51Z</time>
      </trkpt>
      <trkpt lat="44.71834" lon="1.57309">
        <ele>310.16</ele>
        <time>2021-08-16T20:48:52Z</time>
      </trkpt>
      <trkpt lat="44.71834" lon="1.57306">
        <ele>310.64</ele>
        <time>2021-08-16T20:48:53Z</time>
      </trkpt>
      <trkpt lat="44.71833" lon="1.57287">
        <ele>311.6</ele>
        <time>2021-08-16T20:49:02Z</time>
      </trkpt>
      <trkpt lat="44.71833" lon="1.57274">
        <ele>312.57</ele>
        <time>2021-08-16T20:49:08Z</time>
      </trkpt>
      <trkpt lat="44.71833" lon="1.57271">
        <ele>312.57</ele>
        <time>2021-08-16T20:49:09Z</time>
      </trkpt>
      <trkpt lat="44.71833" lon="1.57269">
        <ele>312.57</ele>
        <time>2021-08-16T20:49:10Z</time>
      </trkpt>
      <trkpt lat="44.71832" lon="1.57251">
        <ele>313.53</ele>
        <time>2021-08-16T20:49:19Z</time>
      </trkpt>
      <trkpt lat="44.71831" lon="1.57249">
        <ele>313.53</ele>
        <time>2021-08-16T20:49:20Z</time>
      </trkpt>
      <trkpt lat="44.71831" lon="1.57248">
        <ele>314.01</ele>
        <time>2021-08-16T20:49:26Z</time>
      </trkpt>
      <trkpt lat="44.71828" lon="1.57239">
        <ele>314.49</ele>
        <time>2021-08-16T20:49:33Z</time>
      </trkpt>
      <trkpt lat="44.71828" lon="1.57238">
        <ele>314.49</ele>
        <time>2021-08-16T20:49:34Z</time>
      </trkpt>
      <trkpt lat="44.71827" lon="1.57236">
        <ele>314.49</ele>
        <time>2021-08-16T20:49:35Z</time>
      </trkpt>
      <trkpt lat="44.71826" lon="1.57234">
        <ele>314.97</ele>
        <time>2021-08-16T20:49:36Z</time>
      </trkpt>
      <trkpt lat="44.71825" lon="1.57232">
        <ele>314.97</ele>
        <time>2021-08-16T20:49:37Z</time>
      </trkpt>
      <trkpt lat="44.71824" lon="1.57231">
        <ele>314.97</ele>
        <time>2021-08-16T20:49:38Z</time>
      </trkpt>
      <trkpt lat="44.71823" lon="1.5723">
        <ele>315.45</ele>
        <time>2021-08-16T20:49:39Z</time>
      </trkpt>
      <trkpt lat="44.71821" lon="1.57229">
        <ele>315.45</ele>
        <time>2021-08-16T20:49:40Z</time>
      </trkpt>
      <trkpt lat="44.7182" lon="1.57228">
        <ele>315.45</ele>
        <time>2021-08-16T20:49:41Z</time>
      </trkpt>
      <trkpt lat="44.71819" lon="1.57227">
        <ele>315.45</ele>
        <time>2021-08-16T20:49:42Z</time>
      </trkpt>
      <trkpt lat="44.7181" lon="1.57215">
        <ele>316.89</ele>
        <time>2021-08-16T20:49:51Z</time>
      </trkpt>
      <trkpt lat="44.71808" lon="1.57214">
        <ele>316.89</ele>
        <time>2021-08-16T20:49:52Z</time>
      </trkpt>
      <trkpt lat="44.71807" lon="1.57213">
        <ele>316.89</ele>
        <time>2021-08-16T20:49:53Z</time>
      </trkpt>
      <trkpt lat="44.71806" lon="1.57212">
        <ele>317.37</ele>
        <time>2021-08-16T20:49:54Z</time>
      </trkpt>
      <trkpt lat="44.71805" lon="1.57211">
        <ele>317.85</ele>
        <time>2021-08-16T20:49:55Z</time>
      </trkpt>
      <trkpt lat="44.71804" lon="1.57209">
        <ele>317.85</ele>
        <time>2021-08-16T20:49:56Z</time>
      </trkpt>
      <trkpt lat="44.71803" lon="1.57208">
        <ele>318.33</ele>
        <time>2021-08-16T20:49:57Z</time>
      </trkpt>
      <trkpt lat="44.71793" lon="1.57198">
        <ele>319.3</ele>
        <time>2021-08-16T20:50:06Z</time>
      </trkpt>
      <trkpt lat="44.71778" lon="1.57183">
        <ele>321.22</ele>
        <time>2021-08-16T20:50:19Z</time>
      </trkpt>
      <trkpt lat="44.71764" lon="1.5717">
        <ele>321.7</ele>
        <time>2021-08-16T20:50:30Z</time>
      </trkpt>
      <trkpt lat="44.71753" lon="1.57159">
        <ele>323.62</ele>
        <time>2021-08-16T20:50:40Z</time>
      </trkpt>
      <trkpt lat="44.71741" lon="1.57143">
        <ele>324.58</ele>
        <time>2021-08-16T20:50:51Z</time>
      </trkpt>
      <trkpt lat="44.71732" lon="1.57127">
        <ele>325.54</ele>
        <time>2021-08-16T20:51:00Z</time>
      </trkpt>
      <trkpt lat="44.71724" lon="1.57111">
        <ele>326.5</ele>
        <time>2021-08-16T20:51:09Z</time>
      </trkpt>
      <trkpt lat="44.71714" lon="1.57095">
        <ele>327.47</ele>
        <time>2021-08-16T20:51:18Z</time>
      </trkpt>
      <trkpt lat="44.71704" lon="1.57079">
        <ele>328.43</ele>
        <time>2021-08-16T20:51:26Z</time>
      </trkpt>
      <trkpt lat="44.71691" lon="1.57057">
        <ele>329.39</ele>
        <time>2021-08-16T20:51:35Z</time>
      </trkpt>
      <trkpt lat="44.71674" lon="1.57029">
        <ele>329.87</ele>
        <time>2021-08-16T20:51:44Z</time>
      </trkpt>
      <trkpt lat="44.71663" lon="1.57011">
        <ele>330.83</ele>
        <time>2021-08-16T20:51:52Z</time>
      </trkpt>
      <trkpt lat="44.7166" lon="1.57006">
        <ele>331.31</ele>
        <time>2021-08-16T20:51:55Z</time>
      </trkpt>
      <trkpt lat="44.7166" lon="1.57004">
        <ele>331.31</ele>
        <time>2021-08-16T20:51:56Z</time>
      </trkpt>
      <trkpt lat="44.71659" lon="1.57003">
        <ele>331.31</ele>
        <time>2021-08-16T20:51:57Z</time>
      </trkpt>
      <trkpt lat="44.71658" lon="1.57002">
        <ele>331.79</ele>
        <time>2021-08-16T20:51:58Z</time>
      </trkpt>
      <trkpt lat="44.71657" lon="1.57">
        <ele>331.79</ele>
        <time>2021-08-16T20:51:59Z</time>
      </trkpt>
      <trkpt lat="44.71657" lon="1.56999">
        <ele>331.79</ele>
        <time>2021-08-16T20:52:00Z</time>
      </trkpt>
      <trkpt lat="44.71656" lon="1.56997">
        <ele>331.79</ele>
        <time>2021-08-16T20:52:01Z</time>
      </trkpt>
      <trkpt lat="44.71655" lon="1.56996">
        <ele>332.27</ele>
        <time>2021-08-16T20:52:02Z</time>
      </trkpt>
      <trkpt lat="44.71655" lon="1.56995">
        <ele>332.27</ele>
        <time>2021-08-16T20:52:03Z</time>
      </trkpt>
      <trkpt lat="44.71654" lon="1.56994">
        <ele>332.75</ele>
        <time>2021-08-16T20:52:04Z</time>
      </trkpt>
      <trkpt lat="44.71653" lon="1.56992">
        <ele>332.75</ele>
        <time>2021-08-16T20:52:05Z</time>
      </trkpt>
      <trkpt lat="44.71653" lon="1.56991">
        <ele>332.75</ele>
        <time>2021-08-16T20:52:06Z</time>
      </trkpt>
      <trkpt lat="44.71652" lon="1.56989">
        <ele>333.23</ele>
        <time>2021-08-16T20:52:07Z</time>
      </trkpt>
      <trkpt lat="44.71652" lon="1.56988">
        <ele>333.23</ele>
        <time>2021-08-16T20:52:08Z</time>
      </trkpt>
      <trkpt lat="44.71651" lon="1.56986">
        <ele>333.23</ele>
        <time>2021-08-16T20:52:09Z</time>
      </trkpt>
      <trkpt lat="44.71651" lon="1.56984">
        <ele>333.23</ele>
        <time>2021-08-16T20:52:10Z</time>
      </trkpt>
      <trkpt lat="44.71651" lon="1.56982">
        <ele>333.71</ele>
        <time>2021-08-16T20:52:11Z</time>
      </trkpt>
      <trkpt lat="44.7165" lon="1.5698">
        <ele>333.71</ele>
        <time>2021-08-16T20:52:12Z</time>
      </trkpt>
      <trkpt lat="44.7165" lon="1.56979">
        <ele>333.71</ele>
        <time>2021-08-16T20:52:13Z</time>
      </trkpt>
      <trkpt lat="44.71649" lon="1.56977">
        <ele>333.71</ele>
        <time>2021-08-16T20:52:14Z</time>
      </trkpt>
      <trkpt lat="44.71645" lon="1.56958">
        <ele>335.16</ele>
        <time>2021-08-16T20:52:24Z</time>
      </trkpt>
      <trkpt lat="44.71637" lon="1.56941">
        <ele>335.64</ele>
        <time>2021-08-16T20:52:33Z</time>
      </trkpt>
      <trkpt lat="44.71621" lon="1.56919">
        <ele>336.12</ele>
        <time>2021-08-16T20:52:43Z</time>
      </trkpt>
      <trkpt lat="44.71607" lon="1.56913">
        <ele>337.08</ele>
        <time>2021-08-16T20:52:49Z</time>
      </trkpt>
      <trkpt lat="44.71606" lon="1.56914">
        <ele>337.08</ele>
        <time>2021-08-16T20:52:50Z</time>
      </trkpt>
      <trkpt lat="44.71605" lon="1.56916">
        <ele>337.08</ele>
        <time>2021-08-16T20:52:51Z</time>
      </trkpt>
      <trkpt lat="44.71593" lon="1.56929">
        <ele>338.52</ele>
        <time>2021-08-16T20:53:00Z</time>
      </trkpt>
      <trkpt lat="44.71585" lon="1.56938">
        <ele>339.48</ele>
        <time>2021-08-16T20:53:07Z</time>
      </trkpt>
      <trkpt lat="44.71574" lon="1.56951">
        <ele>341.41</ele>
        <time>2021-08-16T20:53:17Z</time>
      </trkpt>
      <trkpt lat="44.71563" lon="1.56963">
        <ele>342.37</ele>
        <time>2021-08-16T20:53:26Z</time>
      </trkpt>
      <trkpt lat="44.71552" lon="1.56976">
        <ele>343.33</ele>
        <time>2021-08-16T20:53:36Z</time>
      </trkpt>
      <trkpt lat="44.71551" lon="1.56978">
        <ele>343.33</ele>
        <time>2021-08-16T20:53:37Z</time>
      </trkpt>
      <trkpt lat="44.71546" lon="1.56996">
        <ele>344.77</ele>
        <time>2021-08-16T20:53:47Z</time>
      </trkpt>
      <trkpt lat="44.7154" lon="1.57016">
        <ele>346.21</ele>
        <time>2021-08-16T20:53:57Z</time>
      </trkpt>
      <trkpt lat="44.71537" lon="1.57021">
        <ele>346.69</ele>
        <time>2021-08-16T20:54:00Z</time>
      </trkpt>
      <trkpt lat="44.71535" lon="1.57023">
        <ele>346.69</ele>
        <time>2021-08-16T20:54:01Z</time>
      </trkpt>
      <trkpt lat="44.71529" lon="1.57029">
        <ele>346.69</ele>
        <time>2021-08-16T20:54:06Z</time>
      </trkpt>
      <trkpt lat="44.71527" lon="1.5703">
        <ele>347.65</ele>
        <time>2021-08-16T20:54:07Z</time>
      </trkpt>
      <trkpt lat="44.71526" lon="1.57031">
        <ele>347.65</ele>
        <time>2021-08-16T20:54:08Z</time>
      </trkpt>
      <trkpt lat="44.71524" lon="1.57031">
        <ele>347.65</ele>
        <time>2021-08-16T20:54:09Z</time>
      </trkpt>
      <trkpt lat="44.71523" lon="1.57032">
        <ele>347.65</ele>
        <time>2021-08-16T20:54:10Z</time>
      </trkpt>
      <trkpt lat="44.71522" lon="1.57032">
        <ele>348.13</ele>
        <time>2021-08-16T20:54:11Z</time>
      </trkpt>
      <trkpt lat="44.7152" lon="1.57033">
        <ele>348.13</ele>
        <time>2021-08-16T20:54:12Z</time>
      </trkpt>
      <trkpt lat="44.71519" lon="1.57034">
        <ele>348.13</ele>
        <time>2021-08-16T20:54:13Z</time>
      </trkpt>
      <trkpt lat="44.71518" lon="1.57036">
        <ele>348.13</ele>
        <time>2021-08-16T20:54:14Z</time>
      </trkpt>
      <trkpt lat="44.71514" lon="1.57038">
        <ele>348.62</ele>
        <time>2021-08-16T20:54:17Z</time>
      </trkpt>
      <trkpt lat="44.71512" lon="1.57039">
        <ele>348.62</ele>
        <time>2021-08-16T20:54:18Z</time>
      </trkpt>
      <trkpt lat="44.71498" lon="1.57048">
        <ele>350.06</ele>
        <time>2021-08-16T20:54:28Z</time>
      </trkpt>
      <trkpt lat="44.71484" lon="1.5706">
        <ele>351.5</ele>
        <time>2021-08-16T20:54:38Z</time>
      </trkpt>
      <trkpt lat="44.71473" lon="1.57072">
        <ele>352.46</ele>
        <time>2021-08-16T20:54:47Z</time>
      </trkpt>
      <trkpt lat="44.71472" lon="1.57073">
        <ele>352.46</ele>
        <time>2021-08-16T20:54:48Z</time>
      </trkpt>
      <trkpt lat="44.7147" lon="1.57075">
        <ele>352.46</ele>
        <time>2021-08-16T20:54:49Z</time>
      </trkpt>
      <trkpt lat="44.71469" lon="1.57076">
        <ele>352.46</ele>
        <time>2021-08-16T20:54:50Z</time>
      </trkpt>
      <trkpt lat="44.71468" lon="1.57077">
        <ele>352.46</ele>
        <time>2021-08-16T20:54:51Z</time>
      </trkpt>
      <trkpt lat="44.71467" lon="1.57079">
        <ele>352.46</ele>
        <time>2021-08-16T20:54:52Z</time>
      </trkpt>
      <trkpt lat="44.71466" lon="1.57081">
        <ele>353.42</ele>
        <time>2021-08-16T20:54:53Z</time>
      </trkpt>
      <trkpt lat="44.71464" lon="1.57082">
        <ele>353.42</ele>
        <time>2021-08-16T20:54:54Z</time>
      </trkpt>
      <trkpt lat="44.71463" lon="1.57084">
        <ele>353.42</ele>
        <time>2021-08-16T20:54:55Z</time>
      </trkpt>
      <trkpt lat="44.71462" lon="1.57086">
        <ele>353.9</ele>
        <time>2021-08-16T20:54:56Z</time>
      </trkpt>
      <trkpt lat="44.7146" lon="1.57087">
        <ele>353.9</ele>
        <time>2021-08-16T20:54:57Z</time>
      </trkpt>
      <trkpt lat="44.71459" lon="1.57088">
        <ele>354.38</ele>
        <time>2021-08-16T20:54:58Z</time>
      </trkpt>
      <trkpt lat="44.7145" lon="1.57101">
        <ele>354.86</ele>
        <time>2021-08-16T20:55:06Z</time>
      </trkpt>
      <trkpt lat="44.71437" lon="1.57117">
        <ele>355.34</ele>
        <time>2021-08-16T20:55:15Z</time>
      </trkpt>
      <trkpt lat="44.71424" lon="1.57134">
        <ele>356.31</ele>
        <time>2021-08-16T20:55:24Z</time>
      </trkpt>
      <trkpt lat="44.71408" lon="1.57152">
        <ele>356.79</ele>
        <time>2021-08-16T20:55:33Z</time>
      </trkpt>
      <trkpt lat="44.71393" lon="1.57168">
        <ele>357.27</ele>
        <time>2021-08-16T20:55:41Z</time>
      </trkpt>
      <trkpt lat="44.71376" lon="1.57187">
        <ele>358.23</ele>
        <time>2021-08-16T20:55:49Z</time>
      </trkpt>
      <trkpt lat="44.71362" lon="1.57203">
        <ele>358.71</ele>
        <time>2021-08-16T20:55:56Z</time>
      </trkpt>
      <trkpt lat="44.71346" lon="1.57225">
        <ele>359.19</ele>
        <time>2021-08-16T20:56:04Z</time>
      </trkpt>
      <trkpt lat="44.71321" lon="1.57265">
        <ele>359.19</ele>
        <time>2021-08-16T20:56:15Z</time>
      </trkpt>
      <trkpt lat="44.71311" lon="1.57293">
        <ele>359.19</ele>
        <time>2021-08-16T20:56:21Z</time>
      </trkpt>
      <trkpt lat="44.71304" lon="1.57323">
        <ele>359.19</ele>
        <time>2021-08-16T20:56:27Z</time>
      </trkpt>
      <trkpt lat="44.71294" lon="1.57363">
        <ele>357.75</ele>
        <time>2021-08-16T20:56:34Z</time>
      </trkpt>
      <trkpt lat="44.71287" lon="1.57401">
        <ele>357.75</ele>
        <time>2021-08-16T20:56:42Z</time>
      </trkpt>
      <trkpt lat="44.71276" lon="1.57418">
        <ele>357.75</ele>
        <time>2021-08-16T20:56:47Z</time>
      </trkpt>
      <trkpt lat="44.71275" lon="1.57419">
        <ele>357.75</ele>
        <time>2021-08-16T20:56:48Z</time>
      </trkpt>
      <trkpt lat="44.71273" lon="1.5742">
        <ele>357.75</ele>
        <time>2021-08-16T20:56:53Z</time>
      </trkpt>
      <trkpt lat="44.71274" lon="1.57421">
        <ele>357.75</ele>
        <time>2021-08-16T20:57:06Z</time>
      </trkpt>
      <trkpt lat="44.71273" lon="1.5742">
        <ele>357.75</ele>
        <time>2021-08-16T20:57:26Z</time>
      </trkpt>
      <trkpt lat="44.71273" lon="1.57422">
        <ele>357.75</ele>
        <time>2021-08-16T20:57:49Z</time>
      </trkpt>
      <trkpt lat="44.71272" lon="1.57423">
        <ele>357.75</ele>
        <time>2021-08-16T20:57:50Z</time>
      </trkpt>
      <trkpt lat="44.71268" lon="1.57427">
        <ele>357.75</ele>
        <time>2021-08-16T20:57:53Z</time>
      </trkpt>
      <trkpt lat="44.71253" lon="1.5744">
        <ele>356.79</ele>
        <time>2021-08-16T20:57:59Z</time>
      </trkpt>
      <trkpt lat="44.71233" lon="1.57448">
        <ele>356.31</ele>
        <time>2021-08-16T20:58:05Z</time>
      </trkpt>
      <trkpt lat="44.71228" lon="1.57447">
        <ele>355.34</ele>
        <time>2021-08-16T20:58:06Z</time>
      </trkpt>
      <trkpt lat="44.71223" lon="1.57446">
        <ele>354.86</ele>
        <time>2021-08-16T20:58:07Z</time>
      </trkpt>
      <trkpt lat="44.71217" lon="1.57443">
        <ele>354.38</ele>
        <time>2021-08-16T20:58:08Z</time>
      </trkpt>
      <trkpt lat="44.71211" lon="1.57439">
        <ele>353.9</ele>
        <time>2021-08-16T20:58:09Z</time>
      </trkpt>
      <trkpt lat="44.71205" lon="1.57434">
        <ele>352.94</ele>
        <time>2021-08-16T20:58:10Z</time>
      </trkpt>
      <trkpt lat="44.71199" lon="1.57429">
        <ele>352.94</ele>
        <time>2021-08-16T20:58:11Z</time>
      </trkpt>
      <trkpt lat="44.71186" lon="1.57417">
        <ele>351.5</ele>
        <time>2021-08-16T20:58:13Z</time>
      </trkpt>
      <trkpt lat="44.7113" lon="1.57372">
        <ele>350.54</ele>
        <time>2021-08-16T20:58:22Z</time>
      </trkpt>
      <trkpt lat="44.71083" lon="1.57341">
        <ele>349.1</ele>
        <time>2021-08-16T20:58:30Z</time>
      </trkpt>
      <trkpt lat="44.71064" lon="1.57327">
        <ele>347.17</ele>
        <time>2021-08-16T20:58:33Z</time>
      </trkpt>
      <trkpt lat="44.71015" lon="1.5729">
        <ele>344.29</ele>
        <time>2021-08-16T20:58:40Z</time>
      </trkpt>
      <trkpt lat="44.70958" lon="1.57237">
        <ele>342.37</ele>
        <time>2021-08-16T20:58:49Z</time>
      </trkpt>
      <trkpt lat="44.70941" lon="1.57205">
        <ele>342.37</ele>
        <time>2021-08-16T20:58:54Z</time>
      </trkpt>
      <trkpt lat="44.70931" lon="1.57169">
        <ele>342.37</ele>
        <time>2021-08-16T20:59:00Z</time>
      </trkpt>
      <trkpt lat="44.70918" lon="1.57099">
        <ele>341.41</ele>
        <time>2021-08-16T20:59:10Z</time>
      </trkpt>
      <trkpt lat="44.70907" lon="1.57059">
        <ele>339.48</ele>
        <time>2021-08-16T20:59:15Z</time>
      </trkpt>
      <trkpt lat="44.70885" lon="1.56979">
        <ele>339</ele>
        <time>2021-08-16T20:59:24Z</time>
      </trkpt>
      <trkpt lat="44.70884" lon="1.56971">
        <ele>339</ele>
        <time>2021-08-16T20:59:25Z</time>
      </trkpt>
      <trkpt lat="44.70883" lon="1.56963">
        <ele>339.96</ele>
        <time>2021-08-16T20:59:26Z</time>
      </trkpt>
      <trkpt lat="44.70882" lon="1.56955">
        <ele>340.44</ele>
        <time>2021-08-16T20:59:27Z</time>
      </trkpt>
      <trkpt lat="44.70881" lon="1.56948">
        <ele>340.44</ele>
        <time>2021-08-16T20:59:28Z</time>
      </trkpt>
      <trkpt lat="44.70881" lon="1.56941">
        <ele>340.44</ele>
        <time>2021-08-16T20:59:29Z</time>
      </trkpt>
      <trkpt lat="44.70879" lon="1.5692">
        <ele>342.85</ele>
        <time>2021-08-16T20:59:34Z</time>
      </trkpt>
      <trkpt lat="44.70878" lon="1.56903">
        <ele>343.33</ele>
        <time>2021-08-16T20:59:40Z</time>
      </trkpt>
      <trkpt lat="44.70876" lon="1.56877">
        <ele>344.29</ele>
        <time>2021-08-16T20:59:49Z</time>
      </trkpt>
      <trkpt lat="44.70874" lon="1.56855">
        <ele>345.73</ele>
        <time>2021-08-16T20:59:58Z</time>
      </trkpt>
      <trkpt lat="44.70874" lon="1.56853">
        <ele>346.21</ele>
        <time>2021-08-16T20:59:59Z</time>
      </trkpt>
      <trkpt lat="44.70874" lon="1.5685">
        <ele>346.21</ele>
        <time>2021-08-16T21:00:00Z</time>
      </trkpt>
      <trkpt lat="44.70872" lon="1.56826">
        <ele>347.17</ele>
        <time>2021-08-16T21:00:11Z</time>
      </trkpt>
      <trkpt lat="44.70871" lon="1.56811">
        <ele>348.13</ele>
        <time>2021-08-16T21:00:18Z</time>
      </trkpt>
      <trkpt lat="44.70868" lon="1.56784">
        <ele>349.1</ele>
        <time>2021-08-16T21:00:30Z</time>
      </trkpt>
      <trkpt lat="44.70868" lon="1.56761">
        <ele>350.06</ele>
        <time>2021-08-16T21:00:39Z</time>
      </trkpt>
      <trkpt lat="44.70867" lon="1.56741">
        <ele>350.54</ele>
        <time>2021-08-16T21:00:46Z</time>
      </trkpt>
      <trkpt lat="44.70865" lon="1.56718">
        <ele>351.5</ele>
        <time>2021-08-16T21:00:54Z</time>
      </trkpt>
      <trkpt lat="44.70859" lon="1.56693">
        <ele>351.98</ele>
        <time>2021-08-16T21:01:03Z</time>
      </trkpt>
      <trkpt lat="44.70848" lon="1.56669">
        <ele>351.98</ele>
        <time>2021-08-16T21:01:12Z</time>
      </trkpt>
      <trkpt lat="44.70837" lon="1.5665">
        <ele>352.94</ele>
        <time>2021-08-16T21:01:20Z</time>
      </trkpt>
      <trkpt lat="44.70826" lon="1.56629">
        <ele>353.42</ele>
        <time>2021-08-16T21:01:28Z</time>
      </trkpt>
      <trkpt lat="44.70812" lon="1.56602">
        <ele>353.42</ele>
        <time>2021-08-16T21:01:37Z</time>
      </trkpt>
      <trkpt lat="44.70799" lon="1.56576">
        <ele>355.83</ele>
        <time>2021-08-16T21:01:46Z</time>
      </trkpt>
      <trkpt lat="44.70792" lon="1.56561">
        <ele>355.83</ele>
        <time>2021-08-16T21:01:52Z</time>
      </trkpt>
      <trkpt lat="44.70786" lon="1.56544">
        <ele>356.79</ele>
        <time>2021-08-16T21:01:59Z</time>
      </trkpt>
      <trkpt lat="44.70779" lon="1.56516">
        <ele>357.75</ele>
        <time>2021-08-16T21:02:09Z</time>
      </trkpt>
      <trkpt lat="44.70774" lon="1.56486">
        <ele>357.75</ele>
        <time>2021-08-16T21:02:18Z</time>
      </trkpt>
      <trkpt lat="44.7077" lon="1.56462">
        <ele>358.23</ele>
        <time>2021-08-16T21:02:26Z</time>
      </trkpt>
      <trkpt lat="44.70766" lon="1.56442">
        <ele>359.67</ele>
        <time>2021-08-16T21:02:35Z</time>
      </trkpt>
      <trkpt lat="44.70761" lon="1.56427">
        <ele>360.63</ele>
        <time>2021-08-16T21:02:44Z</time>
      </trkpt>
      <trkpt lat="44.70755" lon="1.56411">
        <ele>361.11</ele>
        <time>2021-08-16T21:02:54Z</time>
      </trkpt>
      <trkpt lat="44.70748" lon="1.56397">
        <ele>362.55</ele>
        <time>2021-08-16T21:03:03Z</time>
      </trkpt>
      <trkpt lat="44.70747" lon="1.56395">
        <ele>362.55</ele>
        <time>2021-08-16T21:03:04Z</time>
      </trkpt>
      <trkpt lat="44.70747" lon="1.56394">
        <ele>362.55</ele>
        <time>2021-08-16T21:03:05Z</time>
      </trkpt>
      <trkpt lat="44.70746" lon="1.56392">
        <ele>363.04</ele>
        <time>2021-08-16T21:03:06Z</time>
      </trkpt>
      <trkpt lat="44.70745" lon="1.5639">
        <ele>363.04</ele>
        <time>2021-08-16T21:03:07Z</time>
      </trkpt>
      <trkpt lat="44.70744" lon="1.56389">
        <ele>363.04</ele>
        <time>2021-08-16T21:03:08Z</time>
      </trkpt>
      <trkpt lat="44.70743" lon="1.56388">
        <ele>363.04</ele>
        <time>2021-08-16T21:03:09Z</time>
      </trkpt>
      <trkpt lat="44.70735" lon="1.56375">
        <ele>364.96</ele>
        <time>2021-08-16T21:03:18Z</time>
      </trkpt>
      <trkpt lat="44.70725" lon="1.56363">
        <ele>366.4</ele>
        <time>2021-08-16T21:03:29Z</time>
      </trkpt>
      <trkpt lat="44.70719" lon="1.56359">
        <ele>367.36</ele>
        <time>2021-08-16T21:03:34Z</time>
      </trkpt>
      <trkpt lat="44.70719" lon="1.56358">
        <ele>367.36</ele>
        <time>2021-08-16T21:03:35Z</time>
      </trkpt>
      <trkpt lat="44.70718" lon="1.56356">
        <ele>367.36</ele>
        <time>2021-08-16T21:03:36Z</time>
      </trkpt>
      <trkpt lat="44.70717" lon="1.56355">
        <ele>367.36</ele>
        <time>2021-08-16T21:03:37Z</time>
      </trkpt>
      <trkpt lat="44.70716" lon="1.56354">
        <ele>367.36</ele>
        <time>2021-08-16T21:03:38Z</time>
      </trkpt>
      <trkpt lat="44.70715" lon="1.56353">
        <ele>367.84</ele>
        <time>2021-08-16T21:03:39Z</time>
      </trkpt>
      <trkpt lat="44.70714" lon="1.56352">
        <ele>367.84</ele>
        <time>2021-08-16T21:03:40Z</time>
      </trkpt>
      <trkpt lat="44.70713" lon="1.56351">
        <ele>367.84</ele>
        <time>2021-08-16T21:03:41Z</time>
      </trkpt>
      <trkpt lat="44.70712" lon="1.5635">
        <ele>368.32</ele>
        <time>2021-08-16T21:03:42Z</time>
      </trkpt>
      <trkpt lat="44.70705" lon="1.56343">
        <ele>368.8</ele>
        <time>2021-08-16T21:03:49Z</time>
      </trkpt>
      <trkpt lat="44.70698" lon="1.56335">
        <ele>370.73</ele>
        <time>2021-08-16T21:03:56Z</time>
      </trkpt>
      <trkpt lat="44.70688" lon="1.56326">
        <ele>371.21</ele>
        <time>2021-08-16T21:04:04Z</time>
      </trkpt>
      <trkpt lat="44.70677" lon="1.56313">
        <ele>372.17</ele>
        <time>2021-08-16T21:04:12Z</time>
      </trkpt>
      <trkpt lat="44.70665" lon="1.56306">
        <ele>372.65</ele>
        <time>2021-08-16T21:04:19Z</time>
      </trkpt>
      <trkpt lat="44.70643" lon="1.56295">
        <ele>373.13</ele>
        <time>2021-08-16T21:04:28Z</time>
      </trkpt>
      <trkpt lat="44.70623" lon="1.56288">
        <ele>373.13</ele>
        <time>2021-08-16T21:04:35Z</time>
      </trkpt>
      <trkpt lat="44.70606" lon="1.56281">
        <ele>373.13</ele>
        <time>2021-08-16T21:04:41Z</time>
      </trkpt>
      <trkpt lat="44.70574" lon="1.56271">
        <ele>373.13</ele>
        <time>2021-08-16T21:04:50Z</time>
      </trkpt>
      <trkpt lat="44.70546" lon="1.56256">
        <ele>371.69</ele>
        <time>2021-08-16T21:04:59Z</time>
      </trkpt>
      <trkpt lat="44.70515" lon="1.56228">
        <ele>370.73</ele>
        <time>2021-08-16T21:05:08Z</time>
      </trkpt>
      <trkpt lat="44.70509" lon="1.56224">
        <ele>370.24</ele>
        <time>2021-08-16T21:05:11Z</time>
      </trkpt>
      <trkpt lat="44.70507" lon="1.56225">
        <ele>370.24</ele>
        <time>2021-08-16T21:05:12Z</time>
      </trkpt>
      <trkpt lat="44.70507" lon="1.56227">
        <ele>370.24</ele>
        <time>2021-08-16T21:05:13Z</time>
      </trkpt>
      <trkpt lat="44.70506" lon="1.56229">
        <ele>370.24</ele>
        <time>2021-08-16T21:05:14Z</time>
      </trkpt>
      <trkpt lat="44.70505" lon="1.56232">
        <ele>370.24</ele>
        <time>2021-08-16T21:05:15Z</time>
      </trkpt>
      <trkpt lat="44.70503" lon="1.56235">
        <ele>370.24</ele>
        <time>2021-08-16T21:05:16Z</time>
      </trkpt>
      <trkpt lat="44.70502" lon="1.56238">
        <ele>370.24</ele>
        <time>2021-08-16T21:05:17Z</time>
      </trkpt>
      <trkpt lat="44.70489" lon="1.56253">
        <ele>372.17</ele>
        <time>2021-08-16T21:05:24Z</time>
      </trkpt>
      <trkpt lat="44.70472" lon="1.56247">
        <ele>372.17</ele>
        <time>2021-08-16T21:05:30Z</time>
      </trkpt>
      <trkpt lat="44.70449" lon="1.56231">
        <ele>372.17</ele>
        <time>2021-08-16T21:05:38Z</time>
      </trkpt>
      <trkpt lat="44.70424" lon="1.56221">
        <ele>372.17</ele>
        <time>2021-08-16T21:05:45Z</time>
      </trkpt>
      <trkpt lat="44.70414" lon="1.56219">
        <ele>370.73</ele>
        <time>2021-08-16T21:05:47Z</time>
      </trkpt>
      <trkpt lat="44.70376" lon="1.56215">
        <ele>369.76</ele>
        <time>2021-08-16T21:05:55Z</time>
      </trkpt>
      <trkpt lat="44.70371" lon="1.56215">
        <ele>369.76</ele>
        <time>2021-08-16T21:05:56Z</time>
      </trkpt>
      <trkpt lat="44.70324" lon="1.56227">
        <ele>368.32</ele>
        <time>2021-08-16T21:06:05Z</time>
      </trkpt>
      <trkpt lat="44.70291" lon="1.56227">
        <ele>367.36</ele>
        <time>2021-08-16T21:06:11Z</time>
      </trkpt>
      <trkpt lat="44.70285" lon="1.56225">
        <ele>366.88</ele>
        <time>2021-08-16T21:06:12Z</time>
      </trkpt>
      <trkpt lat="44.7028" lon="1.56222">
        <ele>366.88</ele>
        <time>2021-08-16T21:06:13Z</time>
      </trkpt>
      <trkpt lat="44.70276" lon="1.56219">
        <ele>366.88</ele>
        <time>2021-08-16T21:06:14Z</time>
      </trkpt>
      <trkpt lat="44.70272" lon="1.56216">
        <ele>366.4</ele>
        <time>2021-08-16T21:06:15Z</time>
      </trkpt>
      <trkpt lat="44.70268" lon="1.56213">
        <ele>366.4</ele>
        <time>2021-08-16T21:06:16Z</time>
      </trkpt>
      <trkpt lat="44.70264" lon="1.5621">
        <ele>366.4</ele>
        <time>2021-08-16T21:06:17Z</time>
      </trkpt>
      <trkpt lat="44.7026" lon="1.56208">
        <ele>365.92</ele>
        <time>2021-08-16T21:06:18Z</time>
      </trkpt>
      <trkpt lat="44.70255" lon="1.56206">
        <ele>364.96</ele>
        <time>2021-08-16T21:06:19Z</time>
      </trkpt>
      <trkpt lat="44.70246" lon="1.56203">
        <ele>364.96</ele>
        <time>2021-08-16T21:06:21Z</time>
      </trkpt>
      <trkpt lat="44.70242" lon="1.56202">
        <ele>364.48</ele>
        <time>2021-08-16T21:06:22Z</time>
      </trkpt>
      <trkpt lat="44.70219" lon="1.56199">
        <ele>363.52</ele>
        <time>2021-08-16T21:06:28Z</time>
      </trkpt>
      <trkpt lat="44.70213" lon="1.562">
        <ele>363.52</ele>
        <time>2021-08-16T21:06:32Z</time>
      </trkpt>
      <trkpt lat="44.70211" lon="1.56201">
        <ele>363.52</ele>
        <time>2021-08-16T21:06:33Z</time>
      </trkpt>
      <trkpt lat="44.7021" lon="1.56203">
        <ele>363.52</ele>
        <time>2021-08-16T21:06:34Z</time>
      </trkpt>
      <trkpt lat="44.70199" lon="1.56225">
        <ele>363.04</ele>
        <time>2021-08-16T21:06:41Z</time>
      </trkpt>
      <trkpt lat="44.70194" lon="1.56239">
        <ele>362.55</ele>
        <time>2021-08-16T21:06:44Z</time>
      </trkpt>
      <trkpt lat="44.70187" lon="1.56258">
        <ele>361.11</ele>
        <time>2021-08-16T21:06:47Z</time>
      </trkpt>
      <trkpt lat="44.70172" lon="1.56304">
        <ele>359.67</ele>
        <time>2021-08-16T21:06:53Z</time>
      </trkpt>
      <trkpt lat="44.7017" lon="1.56313">
        <ele>359.19</ele>
        <time>2021-08-16T21:06:54Z</time>
      </trkpt>
      <trkpt lat="44.70145" lon="1.56388">
        <ele>358.23</ele>
        <time>2021-08-16T21:07:04Z</time>
      </trkpt>
      <trkpt lat="44.70128" lon="1.56424">
        <ele>358.23</ele>
        <time>2021-08-16T21:07:10Z</time>
      </trkpt>
      <trkpt lat="44.70124" lon="1.56428">
        <ele>358.23</ele>
        <time>2021-08-16T21:07:11Z</time>
      </trkpt>
      <trkpt lat="44.7012" lon="1.5643">
        <ele>358.23</ele>
        <time>2021-08-16T21:07:12Z</time>
      </trkpt>
      <trkpt lat="44.70116" lon="1.56432">
        <ele>358.23</ele>
        <time>2021-08-16T21:07:13Z</time>
      </trkpt>
      <trkpt lat="44.70111" lon="1.56433">
        <ele>358.23</ele>
        <time>2021-08-16T21:07:14Z</time>
      </trkpt>
      <trkpt lat="44.70065" lon="1.56436">
        <ele>355.83</ele>
        <time>2021-08-16T21:07:23Z</time>
      </trkpt>
      <trkpt lat="44.7006" lon="1.56437">
        <ele>355.83</ele>
        <time>2021-08-16T21:07:24Z</time>
      </trkpt>
      <trkpt lat="44.70014" lon="1.56438">
        <ele>352.46</ele>
        <time>2021-08-16T21:07:31Z</time>
      </trkpt>
      <trkpt lat="44.6999" lon="1.56436">
        <ele>350.54</ele>
        <time>2021-08-16T21:07:34Z</time>
      </trkpt>
      <trkpt lat="44.69924" lon="1.56425">
        <ele>347.65</ele>
        <time>2021-08-16T21:07:42Z</time>
      </trkpt>
      <trkpt lat="44.69863" lon="1.56409">
        <ele>346.21</ele>
        <time>2021-08-16T21:07:50Z</time>
      </trkpt>
      <trkpt lat="44.69844" lon="1.56399">
        <ele>344.29</ele>
        <time>2021-08-16T21:07:53Z</time>
      </trkpt>
      <trkpt lat="44.69818" lon="1.56388">
        <ele>342.85</ele>
        <time>2021-08-16T21:07:57Z</time>
      </trkpt>
      <trkpt lat="44.69804" lon="1.56385">
        <ele>341.89</ele>
        <time>2021-08-16T21:07:59Z</time>
      </trkpt>
      <trkpt lat="44.69745" lon="1.56377">
        <ele>339</ele>
        <time>2021-08-16T21:08:07Z</time>
      </trkpt>
      <trkpt lat="44.69713" lon="1.56372">
        <ele>338.04</ele>
        <time>2021-08-16T21:08:12Z</time>
      </trkpt>
      <trkpt lat="44.69695" lon="1.56367">
        <ele>336.6</ele>
        <time>2021-08-16T21:08:15Z</time>
      </trkpt>
      <trkpt lat="44.69675" lon="1.56355">
        <ele>335.16</ele>
        <time>2021-08-16T21:08:19Z</time>
      </trkpt>
      <trkpt lat="44.69671" lon="1.56351">
        <ele>334.2</ele>
        <time>2021-08-16T21:08:20Z</time>
      </trkpt>
      <trkpt lat="44.69667" lon="1.56346">
        <ele>334.2</ele>
        <time>2021-08-16T21:08:21Z</time>
      </trkpt>
      <trkpt lat="44.6966" lon="1.56339">
        <ele>333.23</ele>
        <time>2021-08-16T21:08:23Z</time>
      </trkpt>
      <trkpt lat="44.69648" lon="1.5633">
        <ele>332.27</ele>
        <time>2021-08-16T21:08:26Z</time>
      </trkpt>
      <trkpt lat="44.69643" lon="1.56326">
        <ele>332.27</ele>
        <time>2021-08-16T21:08:27Z</time>
      </trkpt>
      <trkpt lat="44.69639" lon="1.56322">
        <ele>331.31</ele>
        <time>2021-08-16T21:08:28Z</time>
      </trkpt>
      <trkpt lat="44.69599" lon="1.56292">
        <ele>327.95</ele>
        <time>2021-08-16T21:08:36Z</time>
      </trkpt>
      <trkpt lat="44.69589" lon="1.56285">
        <ele>327.47</ele>
        <time>2021-08-16T21:08:38Z</time>
      </trkpt>
      <trkpt lat="44.69583" lon="1.56282">
        <ele>326.99</ele>
        <time>2021-08-16T21:08:39Z</time>
      </trkpt>
      <trkpt lat="44.69577" lon="1.56278">
        <ele>326.99</ele>
        <time>2021-08-16T21:08:40Z</time>
      </trkpt>
      <trkpt lat="44.69555" lon="1.56265">
        <ele>324.58</ele>
        <time>2021-08-16T21:08:45Z</time>
      </trkpt>
      <trkpt lat="44.69539" lon="1.56264">
        <ele>321.7</ele>
        <time>2021-08-16T21:08:50Z</time>
      </trkpt>
      <trkpt lat="44.69522" lon="1.56272">
        <ele>318.33</ele>
        <time>2021-08-16T21:08:55Z</time>
      </trkpt>
      <trkpt lat="44.69517" lon="1.56273">
        <ele>317.37</ele>
        <time>2021-08-16T21:08:57Z</time>
      </trkpt>
      <trkpt lat="44.69515" lon="1.56273">
        <ele>316.41</ele>
        <time>2021-08-16T21:08:58Z</time>
      </trkpt>
      <trkpt lat="44.69512" lon="1.56273">
        <ele>315.93</ele>
        <time>2021-08-16T21:08:59Z</time>
      </trkpt>
      <trkpt lat="44.6951" lon="1.56273">
        <ele>315.45</ele>
        <time>2021-08-16T21:09:00Z</time>
      </trkpt>
      <trkpt lat="44.69508" lon="1.56274">
        <ele>314.97</ele>
        <time>2021-08-16T21:09:01Z</time>
      </trkpt>
      <trkpt lat="44.69497" lon="1.5628">
        <ele>311.6</ele>
        <time>2021-08-16T21:09:06Z</time>
      </trkpt>
      <trkpt lat="44.69492" lon="1.56283">
        <ele>309.68</ele>
        <time>2021-08-16T21:09:09Z</time>
      </trkpt>
      <trkpt lat="44.6949" lon="1.56283">
        <ele>309.2</ele>
        <time>2021-08-16T21:09:10Z</time>
      </trkpt>
      <trkpt lat="44.69488" lon="1.56283">
        <ele>308.72</ele>
        <time>2021-08-16T21:09:11Z</time>
      </trkpt>
      <trkpt lat="44.69486" lon="1.56281">
        <ele>307.76</ele>
        <time>2021-08-16T21:09:12Z</time>
      </trkpt>
      <trkpt lat="44.69484" lon="1.56281">
        <ele>307.28</ele>
        <time>2021-08-16T21:09:13Z</time>
      </trkpt>
      <trkpt lat="44.69482" lon="1.5628">
        <ele>307.28</ele>
        <time>2021-08-16T21:09:14Z</time>
      </trkpt>
      <trkpt lat="44.69472" lon="1.56272">
        <ele>304.39</ele>
        <time>2021-08-16T21:09:21Z</time>
      </trkpt>
      <trkpt lat="44.69461" lon="1.5626">
        <ele>301.03</ele>
        <time>2021-08-16T21:09:28Z</time>
      </trkpt>
      <trkpt lat="44.69449" lon="1.56252">
        <ele>299.11</ele>
        <time>2021-08-16T21:09:34Z</time>
      </trkpt>
      <trkpt lat="44.69446" lon="1.56253">
        <ele>298.63</ele>
        <time>2021-08-16T21:09:35Z</time>
      </trkpt>
      <trkpt lat="44.69443" lon="1.56256">
        <ele>298.15</ele>
        <time>2021-08-16T21:09:36Z</time>
      </trkpt>
      <trkpt lat="44.69442" lon="1.56259">
        <ele>298.15</ele>
        <time>2021-08-16T21:09:37Z</time>
      </trkpt>
      <trkpt lat="44.6944" lon="1.56263">
        <ele>298.15</ele>
        <time>2021-08-16T21:09:38Z</time>
      </trkpt>
      <trkpt lat="44.69421" lon="1.56293">
        <ele>297.18</ele>
        <time>2021-08-16T21:09:45Z</time>
      </trkpt>
      <trkpt lat="44.69418" lon="1.56297">
        <ele>297.18</ele>
        <time>2021-08-16T21:09:46Z</time>
      </trkpt>
      <trkpt lat="44.69393" lon="1.56326">
        <ele>296.7</ele>
        <time>2021-08-16T21:09:54Z</time>
      </trkpt>
      <trkpt lat="44.69375" lon="1.56343">
        <ele>296.7</ele>
        <time>2021-08-16T21:10:02Z</time>
      </trkpt>
      <trkpt lat="44.69357" lon="1.56352">
        <ele>298.15</ele>
        <time>2021-08-16T21:10:11Z</time>
      </trkpt>
      <trkpt lat="44.69338" lon="1.56361">
        <ele>299.11</ele>
        <time>2021-08-16T21:10:21Z</time>
      </trkpt>
      <trkpt lat="44.69322" lon="1.56369">
        <ele>299.59</ele>
        <time>2021-08-16T21:10:29Z</time>
      </trkpt>
      <trkpt lat="44.69307" lon="1.56378">
        <ele>300.07</ele>
        <time>2021-08-16T21:10:37Z</time>
      </trkpt>
      <trkpt lat="44.693" lon="1.56381">
        <ele>300.55</ele>
        <time>2021-08-16T21:10:41Z</time>
      </trkpt>
      <trkpt lat="44.69299" lon="1.56383">
        <ele>300.55</ele>
        <time>2021-08-16T21:10:42Z</time>
      </trkpt>
      <trkpt lat="44.69297" lon="1.56384">
        <ele>300.55</ele>
        <time>2021-08-16T21:10:43Z</time>
      </trkpt>
      <trkpt lat="44.69279" lon="1.56396">
        <ele>301.51</ele>
        <time>2021-08-16T21:10:55Z</time>
      </trkpt>
      <trkpt lat="44.69261" lon="1.56407">
        <ele>301.99</ele>
        <time>2021-08-16T21:11:06Z</time>
      </trkpt>
      <trkpt lat="44.69252" lon="1.56414">
        <ele>302.47</ele>
        <time>2021-08-16T21:11:12Z</time>
      </trkpt>
      <trkpt lat="44.69251" lon="1.56414">
        <ele>302.47</ele>
        <time>2021-08-16T21:11:13Z</time>
      </trkpt>
      <trkpt lat="44.6925" lon="1.56415">
        <ele>302.47</ele>
        <time>2021-08-16T21:11:14Z</time>
      </trkpt>
      <trkpt lat="44.69247" lon="1.56416">
        <ele>302.47</ele>
        <time>2021-08-16T21:11:20Z</time>
      </trkpt>
      <trkpt lat="44.69248" lon="1.56417">
        <ele>302.95</ele>
        <time>2021-08-16T21:11:39Z</time>
      </trkpt>
      <trkpt lat="44.69248" lon="1.56417">
        <ele>302.95</ele>
        <time>2021-08-16T21:11:55Z</time>
      </trkpt>
      <trkpt lat="44.69247" lon="1.56418">
        <ele>302.95</ele>
        <time>2021-08-16T21:12:14Z</time>
      </trkpt>
      <trkpt lat="44.69241" lon="1.56422">
        <ele>302.95</ele>
        <time>2021-08-16T21:12:20Z</time>
      </trkpt>
      <trkpt lat="44.6923" lon="1.56431">
        <ele>303.43</ele>
        <time>2021-08-16T21:12:29Z</time>
      </trkpt>
      <trkpt lat="44.69217" lon="1.56443">
        <ele>303.43</ele>
        <time>2021-08-16T21:12:37Z</time>
      </trkpt>
      <trkpt lat="44.69197" lon="1.56458">
        <ele>303.91</ele>
        <time>2021-08-16T21:12:47Z</time>
      </trkpt>
      <trkpt lat="44.69175" lon="1.56476">
        <ele>304.39</ele>
        <time>2021-08-16T21:12:58Z</time>
      </trkpt>
      <trkpt lat="44.69152" lon="1.56494">
        <ele>304.88</ele>
        <time>2021-08-16T21:13:08Z</time>
      </trkpt>
      <trkpt lat="44.69132" lon="1.56509">
        <ele>304.88</ele>
        <time>2021-08-16T21:13:17Z</time>
      </trkpt>
      <trkpt lat="44.69118" lon="1.56507">
        <ele>304.88</ele>
        <time>2021-08-16T21:13:23Z</time>
      </trkpt>
      <trkpt lat="44.69101" lon="1.56487">
        <ele>303.91</ele>
        <time>2021-08-16T21:13:29Z</time>
      </trkpt>
      <trkpt lat="44.69099" lon="1.56482">
        <ele>303.91</ele>
        <time>2021-08-16T21:13:30Z</time>
      </trkpt>
      <trkpt lat="44.69089" lon="1.56459">
        <ele>302.95</ele>
        <time>2021-08-16T21:13:34Z</time>
      </trkpt>
      <trkpt lat="44.69088" lon="1.56454">
        <ele>302.95</ele>
        <time>2021-08-16T21:13:35Z</time>
      </trkpt>
      <trkpt lat="44.69075" lon="1.564">
        <ele>302.47</ele>
        <time>2021-08-16T21:13:44Z</time>
      </trkpt>
      <trkpt lat="44.69068" lon="1.56369">
        <ele>303.91</ele>
        <time>2021-08-16T21:13:51Z</time>
      </trkpt>
      <trkpt lat="44.69052" lon="1.56358">
        <ele>304.88</ele>
        <time>2021-08-16T21:13:59Z</time>
      </trkpt>
      <trkpt lat="44.69049" lon="1.56357">
        <ele>305.36</ele>
        <time>2021-08-16T21:14:01Z</time>
      </trkpt>
      <trkpt lat="44.69047" lon="1.56357">
        <ele>305.36</ele>
        <time>2021-08-16T21:14:02Z</time>
      </trkpt>
      <trkpt lat="44.69033" lon="1.56356">
        <ele>306.32</ele>
        <time>2021-08-16T21:14:11Z</time>
      </trkpt>
      <trkpt lat="44.69031" lon="1.56357">
        <ele>306.32</ele>
        <time>2021-08-16T21:14:13Z</time>
      </trkpt>
      <trkpt lat="44.6903" lon="1.56358">
        <ele>306.32</ele>
        <time>2021-08-16T21:14:14Z</time>
      </trkpt>
      <trkpt lat="44.69028" lon="1.5636">
        <ele>305.84</ele>
        <time>2021-08-16T21:14:19Z</time>
      </trkpt>
      <trkpt lat="44.6903" lon="1.56358">
        <ele>306.32</ele>
        <time>2021-08-16T21:14:34Z</time>
      </trkpt>
      <trkpt lat="44.69035" lon="1.56358">
        <ele>306.32</ele>
        <time>2021-08-16T21:14:36Z</time>
      </trkpt>
      <trkpt lat="44.69044" lon="1.56359">
        <ele>304.88</ele>
        <time>2021-08-16T21:14:39Z</time>
      </trkpt>
      <trkpt lat="44.69052" lon="1.5636">
        <ele>304.39</ele>
        <time>2021-08-16T21:14:41Z</time>
      </trkpt>
      <trkpt lat="44.69056" lon="1.56362">
        <ele>304.39</ele>
        <time>2021-08-16T21:14:42Z</time>
      </trkpt>
      <trkpt lat="44.6906" lon="1.56366">
        <ele>303.91</ele>
        <time>2021-08-16T21:14:43Z</time>
      </trkpt>
      <trkpt lat="44.69063" lon="1.56369">
        <ele>303.91</ele>
        <time>2021-08-16T21:14:44Z</time>
      </trkpt>
      <trkpt lat="44.69065" lon="1.56373">
        <ele>303.91</ele>
        <time>2021-08-16T21:14:45Z</time>
      </trkpt>
      <trkpt lat="44.69067" lon="1.56378">
        <ele>303.43</ele>
        <time>2021-08-16T21:14:46Z</time>
      </trkpt>
      <trkpt lat="44.69069" lon="1.56384">
        <ele>303.43</ele>
        <time>2021-08-16T21:14:47Z</time>
      </trkpt>
      <trkpt lat="44.69068" lon="1.56387">
        <ele>303.43</ele>
        <time>2021-08-16T21:14:48Z</time>
      </trkpt>
      <trkpt lat="44.69066" lon="1.5639">
        <ele>302.95</ele>
        <time>2021-08-16T21:14:49Z</time>
      </trkpt>
      <trkpt lat="44.69064" lon="1.56391">
        <ele>303.43</ele>
        <time>2021-08-16T21:14:50Z</time>
      </trkpt>
      <trkpt lat="44.6906" lon="1.56392">
        <ele>302.47</ele>
        <time>2021-08-16T21:14:51Z</time>
      </trkpt>
      <trkpt lat="44.69056" lon="1.56393">
        <ele>302.47</ele>
        <time>2021-08-16T21:14:52Z</time>
      </trkpt>
      <trkpt lat="44.69025" lon="1.56396">
        <ele>301.99</ele>
        <time>2021-08-16T21:15:01Z</time>
      </trkpt>
      <trkpt lat="44.69009" lon="1.56395">
        <ele>301.99</ele>
        <time>2021-08-16T21:15:08Z</time>
      </trkpt>
      <trkpt lat="44.68999" lon="1.56394">
        <ele>302.95</ele>
        <time>2021-08-16T21:15:13Z</time>
      </trkpt>
      <trkpt lat="44.68997" lon="1.56393">
        <ele>302.95</ele>
        <time>2021-08-16T21:15:14Z</time>
      </trkpt>
      <trkpt lat="44.68996" lon="1.56393">
        <ele>302.95</ele>
        <time>2021-08-16T21:15:15Z</time>
      </trkpt>
      <trkpt lat="44.68994" lon="1.56394">
        <ele>302.95</ele>
        <time>2021-08-16T21:15:16Z</time>
      </trkpt>
      <trkpt lat="44.68991" lon="1.56394">
        <ele>302.95</ele>
        <time>2021-08-16T21:15:17Z</time>
      </trkpt>
      <trkpt lat="44.68989" lon="1.56393">
        <ele>302.95</ele>
        <time>2021-08-16T21:15:18Z</time>
      </trkpt>
      <trkpt lat="44.68987" lon="1.56393">
        <ele>302.95</ele>
        <time>2021-08-16T21:15:19Z</time>
      </trkpt>
      <trkpt lat="44.68985" lon="1.56393">
        <ele>302.95</ele>
        <time>2021-08-16T21:15:20Z</time>
      </trkpt>
      <trkpt lat="44.68965" lon="1.56393">
        <ele>303.91</ele>
        <time>2021-08-16T21:15:28Z</time>
      </trkpt>
      <trkpt lat="44.68944" lon="1.56395">
        <ele>304.39</ele>
        <time>2021-08-16T21:15:36Z</time>
      </trkpt>
      <trkpt lat="44.68919" lon="1.56397">
        <ele>304.88</ele>
        <time>2021-08-16T21:15:45Z</time>
      </trkpt>
      <trkpt lat="44.68891" lon="1.56399">
        <ele>304.88</ele>
        <time>2021-08-16T21:15:55Z</time>
      </trkpt>
      <trkpt lat="44.68871" lon="1.56394">
        <ele>305.36</ele>
        <time>2021-08-16T21:16:03Z</time>
      </trkpt>
      <trkpt lat="44.68859" lon="1.5639">
        <ele>305.84</ele>
        <time>2021-08-16T21:16:10Z</time>
      </trkpt>
      <trkpt lat="44.68846" lon="1.56386">
        <ele>306.32</ele>
        <time>2021-08-16T21:16:15Z</time>
      </trkpt>
      <trkpt lat="44.6883" lon="1.56379">
        <ele>306.8</ele>
        <time>2021-08-16T21:16:23Z</time>
      </trkpt>
      <trkpt lat="44.68815" lon="1.5637">
        <ele>307.76</ele>
        <time>2021-08-16T21:16:30Z</time>
      </trkpt>
      <trkpt lat="44.68804" lon="1.56361">
        <ele>308.72</ele>
        <time>2021-08-16T21:16:38Z</time>
      </trkpt>
      <trkpt lat="44.68797" lon="1.56356">
        <ele>309.68</ele>
        <time>2021-08-16T21:16:48Z</time>
      </trkpt>
      <trkpt lat="44.68789" lon="1.56349">
        <ele>311.12</ele>
        <time>2021-08-16T21:16:57Z</time>
      </trkpt>
      <trkpt lat="44.6878" lon="1.56338">
        <ele>312.57</ele>
        <time>2021-08-16T21:17:08Z</time>
      </trkpt>
      <trkpt lat="44.68775" lon="1.56331">
        <ele>313.53</ele>
        <time>2021-08-16T21:17:16Z</time>
      </trkpt>
      <trkpt lat="44.68768" lon="1.5632">
        <ele>314.97</ele>
        <time>2021-08-16T21:17:27Z</time>
      </trkpt>
      <trkpt lat="44.68764" lon="1.56312">
        <ele>316.41</ele>
        <time>2021-08-16T21:17:38Z</time>
      </trkpt>
      <trkpt lat="44.68765" lon="1.5631">
        <ele>316.41</ele>
        <time>2021-08-16T21:17:52Z</time>
      </trkpt>
      <trkpt lat="44.68762" lon="1.56305">
        <ele>316.89</ele>
        <time>2021-08-16T21:18:03Z</time>
      </trkpt>
      <trkpt lat="44.68757" lon="1.56297">
        <ele>317.85</ele>
        <time>2021-08-16T21:18:12Z</time>
      </trkpt>
      <trkpt lat="44.68752" lon="1.56289">
        <ele>318.81</ele>
        <time>2021-08-16T21:18:21Z</time>
      </trkpt>
      <trkpt lat="44.68746" lon="1.56282">
        <ele>319.78</ele>
        <time>2021-08-16T21:18:30Z</time>
      </trkpt>
      <trkpt lat="44.68741" lon="1.56274">
        <ele>320.26</ele>
        <time>2021-08-16T21:18:39Z</time>
      </trkpt>
      <trkpt lat="44.68733" lon="1.56263">
        <ele>321.7</ele>
        <time>2021-08-16T21:18:51Z</time>
      </trkpt>
      <trkpt lat="44.68728" lon="1.56255">
        <ele>322.66</ele>
        <time>2021-08-16T21:18:59Z</time>
      </trkpt>
      <trkpt lat="44.68725" lon="1.5625">
        <ele>323.62</ele>
        <time>2021-08-16T21:19:08Z</time>
      </trkpt>
      <trkpt lat="44.6872" lon="1.56241">
        <ele>325.06</ele>
        <time>2021-08-16T21:19:18Z</time>
      </trkpt>
      <trkpt lat="44.68716" lon="1.5623">
        <ele>326.02</ele>
        <time>2021-08-16T21:19:30Z</time>
      </trkpt>
      <trkpt lat="44.68718" lon="1.56221">
        <ele>327.47</ele>
        <time>2021-08-16T21:19:39Z</time>
      </trkpt>
      <trkpt lat="44.68723" lon="1.56217">
        <ele>327.95</ele>
        <time>2021-08-16T21:19:46Z</time>
      </trkpt>
      <trkpt lat="44.68732" lon="1.56211">
        <ele>329.87</ele>
        <time>2021-08-16T21:19:57Z</time>
      </trkpt>
      <trkpt lat="44.68735" lon="1.5621">
        <ele>329.87</ele>
        <time>2021-08-16T21:20:07Z</time>
      </trkpt>
      <trkpt lat="44.68737" lon="1.5621">
        <ele>329.87</ele>
        <time>2021-08-16T21:20:23Z</time>
      </trkpt>
      <trkpt lat="44.68744" lon="1.562">
        <ele>330.83</ele>
        <time>2021-08-16T21:20:33Z</time>
      </trkpt>
      <trkpt lat="44.6875" lon="1.56188">
        <ele>331.31</ele>
        <time>2021-08-16T21:20:42Z</time>
      </trkpt>
      <trkpt lat="44.68751" lon="1.56182">
        <ele>332.27</ele>
        <time>2021-08-16T21:20:46Z</time>
      </trkpt>
      <trkpt lat="44.68751" lon="1.56181">
        <ele>332.27</ele>
        <time>2021-08-16T21:20:47Z</time>
      </trkpt>
      <trkpt lat="44.68752" lon="1.56179">
        <ele>332.75</ele>
        <time>2021-08-16T21:20:48Z</time>
      </trkpt>
      <trkpt lat="44.68753" lon="1.56175">
        <ele>332.75</ele>
        <time>2021-08-16T21:20:54Z</time>
      </trkpt>
      <trkpt lat="44.68756" lon="1.5616">
        <ele>333.23</ele>
        <time>2021-08-16T21:21:03Z</time>
      </trkpt>
      <trkpt lat="44.68757" lon="1.56156">
        <ele>333.23</ele>
        <time>2021-08-16T21:21:05Z</time>
      </trkpt>
      <trkpt lat="44.6876" lon="1.56153">
        <ele>333.71</ele>
        <time>2021-08-16T21:21:09Z</time>
      </trkpt>
      <trkpt lat="44.68761" lon="1.5615">
        <ele>333.71</ele>
        <time>2021-08-16T21:21:10Z</time>
      </trkpt>
      <trkpt lat="44.68761" lon="1.56149">
        <ele>333.71</ele>
        <time>2021-08-16T21:21:11Z</time>
      </trkpt>
      <trkpt lat="44.68763" lon="1.56143">
        <ele>334.2</ele>
        <time>2021-08-16T21:21:19Z</time>
      </trkpt>
      <trkpt lat="44.68762" lon="1.56146">
        <ele>334.2</ele>
        <time>2021-08-16T21:21:20Z</time>
      </trkpt>
      <trkpt lat="44.68759" lon="1.56154">
        <ele>334.2</ele>
        <time>2021-08-16T21:21:27Z</time>
      </trkpt>
      <trkpt lat="44.68758" lon="1.56153">
        <ele>334.2</ele>
        <time>2021-08-16T21:21:41Z</time>
      </trkpt>
      <trkpt lat="44.68755" lon="1.56162">
        <ele>334.2</ele>
        <time>2021-08-16T21:21:46Z</time>
      </trkpt>
      <trkpt lat="44.68751" lon="1.56179">
        <ele>333.23</ele>
        <time>2021-08-16T21:21:52Z</time>
      </trkpt>
      <trkpt lat="44.68744" lon="1.56204">
        <ele>330.83</ele>
        <time>2021-08-16T21:22:00Z</time>
      </trkpt>
      <trkpt lat="44.6874" lon="1.56207">
        <ele>330.83</ele>
        <time>2021-08-16T21:22:02Z</time>
      </trkpt>
      <trkpt lat="44.68738" lon="1.56206">
        <ele>329.87</ele>
        <time>2021-08-16T21:22:03Z</time>
      </trkpt>
      <trkpt lat="44.68736" lon="1.56204">
        <ele>329.87</ele>
        <time>2021-08-16T21:22:04Z</time>
      </trkpt>
      <trkpt lat="44.68734" lon="1.56202">
        <ele>329.87</ele>
        <time>2021-08-16T21:22:05Z</time>
      </trkpt>
      <trkpt lat="44.68733" lon="1.56201">
        <ele>329.87</ele>
        <time>2021-08-16T21:22:06Z</time>
      </trkpt>
      <trkpt lat="44.68732" lon="1.56199">
        <ele>329.87</ele>
        <time>2021-08-16T21:22:07Z</time>
      </trkpt>
      <trkpt lat="44.68731" lon="1.56198">
        <ele>329.87</ele>
        <time>2021-08-16T21:22:08Z</time>
      </trkpt>
      <trkpt lat="44.68729" lon="1.56196">
        <ele>329.87</ele>
        <time>2021-08-16T21:22:09Z</time>
      </trkpt>
      <trkpt lat="44.68728" lon="1.56194">
        <ele>329.87</ele>
        <time>2021-08-16T21:22:10Z</time>
      </trkpt>
      <trkpt lat="44.68726" lon="1.56193">
        <ele>329.87</ele>
        <time>2021-08-16T21:22:11Z</time>
      </trkpt>
      <trkpt lat="44.68725" lon="1.56192">
        <ele>329.87</ele>
        <time>2021-08-16T21:22:12Z</time>
      </trkpt>
      <trkpt lat="44.68718" lon="1.56186">
        <ele>330.35</ele>
        <time>2021-08-16T21:22:18Z</time>
      </trkpt>
      <trkpt lat="44.68715" lon="1.56185">
        <ele>330.35</ele>
        <time>2021-08-16T21:22:25Z</time>
      </trkpt>
      <trkpt lat="44.68708" lon="1.56181">
        <ele>330.35</ele>
        <time>2021-08-16T21:22:31Z</time>
      </trkpt>
      <trkpt lat="44.6869" lon="1.56169">
        <ele>330.35</ele>
        <time>2021-08-16T21:22:40Z</time>
      </trkpt>
      <trkpt lat="44.6868" lon="1.56162">
        <ele>330.35</ele>
        <time>2021-08-16T21:22:47Z</time>
      </trkpt>
      <trkpt lat="44.68667" lon="1.56152">
        <ele>330.35</ele>
        <time>2021-08-16T21:22:55Z</time>
      </trkpt>
      <trkpt lat="44.68664" lon="1.56149">
        <ele>330.35</ele>
        <time>2021-08-16T21:22:57Z</time>
      </trkpt>
      <trkpt lat="44.68664" lon="1.56146">
        <ele>330.35</ele>
        <time>2021-08-16T21:22:58Z</time>
      </trkpt>
      <trkpt lat="44.68669" lon="1.56139">
        <ele>330.35</ele>
        <time>2021-08-16T21:23:04Z</time>
      </trkpt>
      <trkpt lat="44.6867" lon="1.5614">
        <ele>330.35</ele>
        <time>2021-08-16T21:23:05Z</time>
      </trkpt>
      <trkpt lat="44.68679" lon="1.56136">
        <ele>330.35</ele>
        <time>2021-08-16T21:23:12Z</time>
      </trkpt>
      <trkpt lat="44.68687" lon="1.56143">
        <ele>331.31</ele>
        <time>2021-08-16T21:23:18Z</time>
      </trkpt>
      <trkpt lat="44.68692" lon="1.56133">
        <ele>331.31</ele>
        <time>2021-08-16T21:23:24Z</time>
      </trkpt>
      <trkpt lat="44.68693" lon="1.5613">
        <ele>331.31</ele>
        <time>2021-08-16T21:23:25Z</time>
      </trkpt>
      <trkpt lat="44.68693" lon="1.56127">
        <ele>331.31</ele>
        <time>2021-08-16T21:23:26Z</time>
      </trkpt>
      <trkpt lat="44.68694" lon="1.56125">
        <ele>331.31</ele>
        <time>2021-08-16T21:23:27Z</time>
      </trkpt>
      <trkpt lat="44.68695" lon="1.56114">
        <ele>331.31</ele>
        <time>2021-08-16T21:23:32Z</time>
      </trkpt>
      <trkpt lat="44.68693" lon="1.56112">
        <ele>331.31</ele>
        <time>2021-08-16T21:23:33Z</time>
      </trkpt>
      <trkpt lat="44.68691" lon="1.56111">
        <ele>331.31</ele>
        <time>2021-08-16T21:23:34Z</time>
      </trkpt>
      <trkpt lat="44.68689" lon="1.56111">
        <ele>331.31</ele>
        <time>2021-08-16T21:23:35Z</time>
      </trkpt>
      <trkpt lat="44.68687" lon="1.5611">
        <ele>331.31</ele>
        <time>2021-08-16T21:23:36Z</time>
      </trkpt>
      <trkpt lat="44.68685" lon="1.56109">
        <ele>331.31</ele>
        <time>2021-08-16T21:23:37Z</time>
      </trkpt>
      <trkpt lat="44.68676" lon="1.56105">
        <ele>331.31</ele>
        <time>2021-08-16T21:23:42Z</time>
      </trkpt>
      <trkpt lat="44.68674" lon="1.56104">
        <ele>331.31</ele>
        <time>2021-08-16T21:23:43Z</time>
      </trkpt>
      <trkpt lat="44.68672" lon="1.56104">
        <ele>331.31</ele>
        <time>2021-08-16T21:23:44Z</time>
      </trkpt>
      <trkpt lat="44.68671" lon="1.56105">
        <ele>331.31</ele>
        <time>2021-08-16T21:23:45Z</time>
      </trkpt>
      <trkpt lat="44.6867" lon="1.56107">
        <ele>331.31</ele>
        <time>2021-08-16T21:23:46Z</time>
      </trkpt>
      <trkpt lat="44.68667" lon="1.56114">
        <ele>331.31</ele>
        <time>2021-08-16T21:23:49Z</time>
      </trkpt>
      <trkpt lat="44.68668" lon="1.56127">
        <ele>331.31</ele>
        <time>2021-08-16T21:23:55Z</time>
      </trkpt>
      <trkpt lat="44.68664" lon="1.56142">
        <ele>331.31</ele>
        <time>2021-08-16T21:24:04Z</time>
      </trkpt>
      <trkpt lat="44.68663" lon="1.56142">
        <ele>331.31</ele>
        <time>2021-08-16T21:24:17Z</time>
      </trkpt>
      <trkpt lat="44.68663" lon="1.56145">
        <ele>331.31</ele>
        <time>2021-08-16T21:24:25Z</time>
      </trkpt>
      <trkpt lat="44.68667" lon="1.56148">
        <ele>331.31</ele>
        <time>2021-08-16T21:24:29Z</time>
      </trkpt>
      <trkpt lat="44.6867" lon="1.56148">
        <ele>331.31</ele>
        <time>2021-08-16T21:24:30Z</time>
      </trkpt>
      <trkpt lat="44.68671" lon="1.56147">
        <ele>331.31</ele>
        <time>2021-08-16T21:24:31Z</time>
      </trkpt>
      <trkpt lat="44.68673" lon="1.56147">
        <ele>331.31</ele>
        <time>2021-08-16T21:24:32Z</time>
      </trkpt>
      <trkpt lat="44.68674" lon="1.56145">
        <ele>331.31</ele>
        <time>2021-08-16T21:24:38Z</time>
      </trkpt>
      <trkpt lat="44.68677" lon="1.56143">
        <ele>331.31</ele>
        <time>2021-08-16T21:24:59Z</time>
      </trkpt>
      <trkpt lat="44.68676" lon="1.56143">
        <ele>331.31</ele>
        <time>2021-08-16T21:25:16Z</time>
      </trkpt>
      <trkpt lat="44.68676" lon="1.56142">
        <ele>331.31</ele>
        <time>2021-08-16T21:25:30Z</time>
      </trkpt>
      <trkpt lat="44.68674" lon="1.56141">
        <ele>331.79</ele>
        <time>2021-08-16T21:25:43Z</time>
      </trkpt>
      <trkpt lat="44.68673" lon="1.56141">
        <ele>331.79</ele>
        <time>2021-08-16T21:25:52Z</time>
      </trkpt>
      <trkpt lat="44.68671" lon="1.56141">
        <ele>331.79</ele>
        <time>2021-08-16T21:26:08Z</time>
      </trkpt>
      <trkpt lat="44.68671" lon="1.5614">
        <ele>331.79</ele>
        <time>2021-08-16T21:26:16Z</time>
      </trkpt>
      <trkpt lat="44.68669" lon="1.56139">
        <ele>332.27</ele>
        <time>2021-08-16T21:26:30Z</time>
      </trkpt>
      <trkpt lat="44.68669" lon="1.56137">
        <ele>332.27</ele>
        <time>2021-08-16T21:26:51Z</time>
      </trkpt>
      <trkpt lat="44.68669" lon="1.56138">
        <ele>332.27</ele>
        <time>2021-08-16T21:27:05Z</time>
      </trkpt>
      <trkpt lat="44.68667" lon="1.5614">
        <ele>332.75</ele>
        <time>2021-08-16T21:27:20Z</time>
      </trkpt>
      <trkpt lat="44.68666" lon="1.5614">
        <ele>332.75</ele>
        <time>2021-08-16T21:27:30Z</time>
      </trkpt>
      <trkpt lat="44.68666" lon="1.56139">
        <ele>332.75</ele>
        <time>2021-08-16T21:27:39Z</time>
      </trkpt>
      <trkpt lat="44.68665" lon="1.56138">
        <ele>333.23</ele>
        <time>2021-08-16T21:27:49Z</time>
      </trkpt>
      <trkpt lat="44.68665" lon="1.56137">
        <ele>333.23</ele>
        <time>2021-08-16T21:28:08Z</time>
      </trkpt>
      <trkpt lat="44.68664" lon="1.56138">
        <ele>333.71</ele>
        <time>2021-08-16T21:28:24Z</time>
      </trkpt>
      <trkpt lat="44.68664" lon="1.56138">
        <ele>333.71</ele>
        <time>2021-08-16T21:28:34Z</time>
      </trkpt>
      <trkpt lat="44.68664" lon="1.56139">
        <ele>334.2</ele>
        <time>2021-08-16T21:28:46Z</time>
      </trkpt>
      <trkpt lat="44.68665" lon="1.56139">
        <ele>334.2</ele>
        <time>2021-08-16T21:29:00Z</time>
      </trkpt>
      <trkpt lat="44.68664" lon="1.56138">
        <ele>334.68</ele>
        <time>2021-08-16T21:29:19Z</time>
      </trkpt>
      <trkpt lat="44.68664" lon="1.56137">
        <ele>334.68</ele>
        <time>2021-08-16T21:29:30Z</time>
      </trkpt>
      <trkpt lat="44.68665" lon="1.56137">
        <ele>334.68</ele>
        <time>2021-08-16T21:29:48Z</time>
      </trkpt>
      <trkpt lat="44.68666" lon="1.56139">
        <ele>335.16</ele>
        <time>2021-08-16T21:30:04Z</time>
      </trkpt>
      <trkpt lat="44.68666" lon="1.5614">
        <ele>335.16</ele>
        <time>2021-08-16T21:30:17Z</time>
      </trkpt>
      <trkpt lat="44.68666" lon="1.56144">
        <ele>335.16</ele>
        <time>2021-08-16T21:30:25Z</time>
      </trkpt>
      <trkpt lat="44.68668" lon="1.56145">
        <ele>335.16</ele>
        <time>2021-08-16T21:30:40Z</time>
      </trkpt>
      <trkpt lat="44.68669" lon="1.56146">
        <ele>335.16</ele>
        <time>2021-08-16T21:30:51Z</time>
      </trkpt>
      <trkpt lat="44.68671" lon="1.56147">
        <ele>335.64</ele>
        <time>2021-08-16T21:30:58Z</time>
      </trkpt>
      <trkpt lat="44.68671" lon="1.56145">
        <ele>335.64</ele>
        <time>2021-08-16T21:31:07Z</time>
      </trkpt>
      <trkpt lat="44.68672" lon="1.56142">
        <ele>335.64</ele>
        <time>2021-08-16T21:31:17Z</time>
      </trkpt>
      <trkpt lat="44.68673" lon="1.5614">
        <ele>335.64</ele>
        <time>2021-08-16T21:31:19Z</time>
      </trkpt>
      <trkpt lat="44.68673" lon="1.56138">
        <ele>335.64</ele>
        <time>2021-08-16T21:31:20Z</time>
      </trkpt>
      <trkpt lat="44.68672" lon="1.56136">
        <ele>335.64</ele>
        <time>2021-08-16T21:31:21Z</time>
      </trkpt>
      <trkpt lat="44.68671" lon="1.56137">
        <ele>335.64</ele>
        <time>2021-08-16T21:31:22Z</time>
      </trkpt>
      <trkpt lat="44.6867" lon="1.56138">
        <ele>335.64</ele>
        <time>2021-08-16T21:31:23Z</time>
      </trkpt>
      <trkpt lat="44.6867" lon="1.5614">
        <ele>335.64</ele>
        <time>2021-08-16T21:31:24Z</time>
      </trkpt>
      <trkpt lat="44.68669" lon="1.56142">
        <ele>335.64</ele>
        <time>2021-08-16T21:31:25Z</time>
      </trkpt>
      <trkpt lat="44.68669" lon="1.56144">
        <ele>335.64</ele>
        <time>2021-08-16T21:31:26Z</time>
      </trkpt>
      <trkpt lat="44.68668" lon="1.56146">
        <ele>335.64</ele>
        <time>2021-08-16T21:31:27Z</time>
      </trkpt>
      <trkpt lat="44.68668" lon="1.56149">
        <ele>335.64</ele>
        <time>2021-08-16T21:31:28Z</time>
      </trkpt>
      <trkpt lat="44.68667" lon="1.56151">
        <ele>335.64</ele>
        <time>2021-08-16T21:31:29Z</time>
      </trkpt>
      <trkpt lat="44.68668" lon="1.56154">
        <ele>335.64</ele>
        <time>2021-08-16T21:31:30Z</time>
      </trkpt>
      <trkpt lat="44.68669" lon="1.56155">
        <ele>335.64</ele>
        <time>2021-08-16T21:31:31Z</time>
      </trkpt>
      <trkpt lat="44.6867" lon="1.56154">
        <ele>335.64</ele>
        <time>2021-08-16T21:31:32Z</time>
      </trkpt>
      <trkpt lat="44.6867" lon="1.56153">
        <ele>335.64</ele>
        <time>2021-08-16T21:31:33Z</time>
      </trkpt>
      <trkpt lat="44.68671" lon="1.56151">
        <ele>335.64</ele>
        <time>2021-08-16T21:31:34Z</time>
      </trkpt>
      <trkpt lat="44.68671" lon="1.56149">
        <ele>335.64</ele>
        <time>2021-08-16T21:31:39Z</time>
      </trkpt>
      <trkpt lat="44.68673" lon="1.56149">
        <ele>335.64</ele>
        <time>2021-08-16T21:31:59Z</time>
      </trkpt>
      <trkpt lat="44.68672" lon="1.5615">
        <ele>335.64</ele>
        <time>2021-08-16T21:32:09Z</time>
      </trkpt>
      <trkpt lat="44.6867" lon="1.56151">
        <ele>335.16</ele>
        <time>2021-08-16T21:32:34Z</time>
      </trkpt>
      <trkpt lat="44.68672" lon="1.5615">
        <ele>335.16</ele>
        <time>2021-08-16T21:32:48Z</time>
      </trkpt>
      <trkpt lat="44.68671" lon="1.56151">
        <ele>335.16</ele>
        <time>2021-08-16T21:33:03Z</time>
      </trkpt>
      <trkpt lat="44.68671" lon="1.56151">
        <ele>335.16</ele>
        <time>2021-08-16T21:33:16Z</time>
      </trkpt>
      <trkpt lat="44.68672" lon="1.56149">
        <ele>335.16</ele>
        <time>2021-08-16T21:33:33Z</time>
      </trkpt>
      <trkpt lat="44.68673" lon="1.56149">
        <ele>335.16</ele>
        <time>2021-08-16T21:33:55Z</time>
      </trkpt>
      <trkpt lat="44.68673" lon="1.56148">
        <ele>335.16</ele>
        <time>2021-08-16T21:34:16Z</time>
      </trkpt>
      <trkpt lat="44.68672" lon="1.56148">
        <ele>335.16</ele>
        <time>2021-08-16T21:34:34Z</time>
      </trkpt>
      <trkpt lat="44.68673" lon="1.56148">
        <ele>335.16</ele>
        <time>2021-08-16T21:34:50Z</time>
      </trkpt>
      <trkpt lat="44.68672" lon="1.56148">
        <ele>335.16</ele>
        <time>2021-08-16T21:35:09Z</time>
      </trkpt>
      <trkpt lat="44.68672" lon="1.56147">
        <ele>335.16</ele>
        <time>2021-08-16T21:35:21Z</time>
      </trkpt>
      <trkpt lat="44.68671" lon="1.56145">
        <ele>335.16</ele>
        <time>2021-08-16T21:35:27Z</time>
      </trkpt>
      <trkpt lat="44.68671" lon="1.56139">
        <ele>335.16</ele>
        <time>2021-08-16T21:35:32Z</time>
      </trkpt>
      <trkpt lat="44.68677" lon="1.56128">
        <ele>335.16</ele>
        <time>2021-08-16T21:35:37Z</time>
      </trkpt>
      <trkpt lat="44.68677" lon="1.56128">
        <ele>335.16</ele>
        <time>2021-08-16T21:35:38Z</time>
      </trkpt>
      <trkpt lat="44.68677" lon="1.56131">
        <ele>335.16</ele>
        <time>2021-08-16T21:35:40Z</time>
      </trkpt>
      <trkpt lat="44.68675" lon="1.56126">
        <ele>335.16</ele>
        <time>2021-08-16T21:35:46Z</time>
      </trkpt>
      <trkpt lat="44.68676" lon="1.5612">
        <ele>335.16</ele>
        <time>2021-08-16T21:35:48Z</time>
      </trkpt>
      <trkpt lat="44.68676" lon="1.56113">
        <ele>335.16</ele>
        <time>2021-08-16T21:35:50Z</time>
      </trkpt>
      <trkpt lat="44.68675" lon="1.56109">
        <ele>335.16</ele>
        <time>2021-08-16T21:35:51Z</time>
      </trkpt>
      <trkpt lat="44.68674" lon="1.56106">
        <ele>335.16</ele>
        <time>2021-08-16T21:35:52Z</time>
      </trkpt>
      <trkpt lat="44.68661" lon="1.56095">
        <ele>335.16</ele>
        <time>2021-08-16T21:35:57Z</time>
      </trkpt>
      <trkpt lat="44.6864" lon="1.56086">
        <ele>335.16</ele>
        <time>2021-08-16T21:36:04Z</time>
      </trkpt>
      <trkpt lat="44.68639" lon="1.56085">
        <ele>335.16</ele>
        <time>2021-08-16T21:36:05Z</time>
      </trkpt>
      <trkpt lat="44.68638" lon="1.56082">
        <ele>335.16</ele>
        <time>2021-08-16T21:36:06Z</time>
      </trkpt>
      <trkpt lat="44.68638" lon="1.5608">
        <ele>335.16</ele>
        <time>2021-08-16T21:36:07Z</time>
      </trkpt>
      <trkpt lat="44.68639" lon="1.56077">
        <ele>335.16</ele>
        <time>2021-08-16T21:36:08Z</time>
      </trkpt>
      <trkpt lat="44.68639" lon="1.56075">
        <ele>335.16</ele>
        <time>2021-08-16T21:36:09Z</time>
      </trkpt>
      <trkpt lat="44.68637" lon="1.56073">
        <ele>335.16</ele>
        <time>2021-08-16T21:36:10Z</time>
      </trkpt>
      <trkpt lat="44.68635" lon="1.56071">
        <ele>335.16</ele>
        <time>2021-08-16T21:36:11Z</time>
      </trkpt>
      <trkpt lat="44.68632" lon="1.5607">
        <ele>335.16</ele>
        <time>2021-08-16T21:36:12Z</time>
      </trkpt>
      <trkpt lat="44.68619" lon="1.5606">
        <ele>335.16</ele>
        <time>2021-08-16T21:36:17Z</time>
      </trkpt>
      <trkpt lat="44.68618" lon="1.56058">
        <ele>335.16</ele>
        <time>2021-08-16T21:36:18Z</time>
      </trkpt>
      <trkpt lat="44.68617" lon="1.56056">
        <ele>335.16</ele>
        <time>2021-08-16T21:36:19Z</time>
      </trkpt>
      <trkpt lat="44.68616" lon="1.56053">
        <ele>335.16</ele>
        <time>2021-08-16T21:36:20Z</time>
      </trkpt>
      <trkpt lat="44.68615" lon="1.56051">
        <ele>335.64</ele>
        <time>2021-08-16T21:36:21Z</time>
      </trkpt>
      <trkpt lat="44.68614" lon="1.56043">
        <ele>335.64</ele>
        <time>2021-08-16T21:36:24Z</time>
      </trkpt>
      <trkpt lat="44.6861" lon="1.56033">
        <ele>335.64</ele>
        <time>2021-08-16T21:36:28Z</time>
      </trkpt>
      <trkpt lat="44.68608" lon="1.56031">
        <ele>335.64</ele>
        <time>2021-08-16T21:36:29Z</time>
      </trkpt>
      <trkpt lat="44.68608" lon="1.56029">
        <ele>335.64</ele>
        <time>2021-08-16T21:36:30Z</time>
      </trkpt>
      <trkpt lat="44.68607" lon="1.56027">
        <ele>335.64</ele>
        <time>2021-08-16T21:36:31Z</time>
      </trkpt>
      <trkpt lat="44.68606" lon="1.56025">
        <ele>335.64</ele>
        <time>2021-08-16T21:36:32Z</time>
      </trkpt>
      <trkpt lat="44.68604" lon="1.56024">
        <ele>335.64</ele>
        <time>2021-08-16T21:36:33Z</time>
      </trkpt>
      <trkpt lat="44.68603" lon="1.56025">
        <ele>335.64</ele>
        <time>2021-08-16T21:36:34Z</time>
      </trkpt>
      <trkpt lat="44.68602" lon="1.56027">
        <ele>335.64</ele>
        <time>2021-08-16T21:36:35Z</time>
      </trkpt>
      <trkpt lat="44.686" lon="1.56032">
        <ele>335.64</ele>
        <time>2021-08-16T21:36:37Z</time>
      </trkpt>
    </trkseg>
  </trk>
</gpx>